<?xml version="1.0" encoding="utf-8"?>
<gpx xmlns:xsi="http://www.w3.org/2001/XMLSchema-instance" xmlns:xsd="http://www.w3.org/2001/XMLSchema" version="1.1" creator="Shapelink.com" xmlns="http://www.topografix.com/GPX/1/1" xmlns:gpxtpx="http://www.garmin.com/xmlschemas/TrackPointExtension/v1">
  <metadata>
    <name>Nordic skiing 91.17 km, 2013-03-03</name>
    <desc></desc>
    <author><name>Kim Kronberg</name></author> 
    <time>1970-01-01T01:00:00Z</time>
  </metadata>
  <trk>
    <name>Nordic skiing 91.17 km, 2013-03-03</name>
    <trkseg>
      <trkpt lat="61.108196" lon="13.294977">
        <ele>347</ele>
        <time>1970-01-01T01:00:00Z</time>
      </trkpt>
      <trkpt lat="61.108203" lon="13.294969">
        <ele>347</ele>
        <time>1970-01-01T01:00:00Z</time>
      </trkpt>
      <trkpt lat="61.108211" lon="13.29496">
        <ele>347</ele>
        <time>1970-01-01T01:00:00Z</time>
      </trkpt>
      <trkpt lat="61.108276" lon="13.294897">
        <ele>347</ele>
        <time>1970-01-01T01:00:00Z</time>
      </trkpt>
      <trkpt lat="61.108329" lon="13.294843">
        <ele>347</ele>
        <time>1970-01-01T01:00:00Z</time>
      </trkpt>
      <trkpt lat="61.108371" lon="13.29481">
        <ele>347</ele>
        <time>1970-01-01T01:00:00Z</time>
      </trkpt>
      <trkpt lat="61.108459" lon="13.294689">
        <ele>347</ele>
        <time>1970-01-01T01:00:00Z</time>
      </trkpt>
      <trkpt lat="61.10852" lon="13.294656">
        <ele>347</ele>
        <time>1970-01-01T01:00:00Z</time>
      </trkpt>
      <trkpt lat="61.108516" lon="13.294672">
        <ele>347</ele>
        <time>1970-01-01T01:00:00Z</time>
      </trkpt>
      <trkpt lat="61.108581" lon="13.294622">
        <ele>347</ele>
        <time>1970-01-01T01:00:00Z</time>
      </trkpt>
      <trkpt lat="61.108684" lon="13.294529">
        <ele>347</ele>
        <time>1970-01-01T01:00:00Z</time>
      </trkpt>
      <trkpt lat="61.10881" lon="13.294389">
        <ele>346.909</ele>
        <time>1970-01-01T01:00:00Z</time>
      </trkpt>
      <trkpt lat="61.108963" lon="13.294241">
        <ele>346.818</ele>
        <time>1970-01-01T01:00:00Z</time>
      </trkpt>
      <trkpt lat="61.1091" lon="13.294024">
        <ele>346.727</ele>
        <time>1970-01-01T01:00:00Z</time>
      </trkpt>
      <trkpt lat="61.109176" lon="13.293963">
        <ele>346.727</ele>
        <time>1970-01-01T01:00:00Z</time>
      </trkpt>
      <trkpt lat="61.109237" lon="13.293899">
        <ele>346.727</ele>
        <time>1970-01-01T01:00:00Z</time>
      </trkpt>
      <trkpt lat="61.109397" lon="13.293806">
        <ele>346.727</ele>
        <time>1970-01-01T01:00:00Z</time>
      </trkpt>
      <trkpt lat="61.109485" lon="13.293765">
        <ele>346.727</ele>
        <time>1970-01-01T01:00:00Z</time>
      </trkpt>
      <trkpt lat="61.109592" lon="13.293672">
        <ele>346.727</ele>
        <time>1970-01-01T01:00:00Z</time>
      </trkpt>
      <trkpt lat="61.109771" lon="13.293481">
        <ele>346.727</ele>
        <time>1970-01-01T01:00:00Z</time>
      </trkpt>
      <trkpt lat="61.109867" lon="13.293375">
        <ele>346.727</ele>
        <time>1970-01-01T01:00:00Z</time>
      </trkpt>
      <trkpt lat="61.110054" lon="13.293261">
        <ele>346.727</ele>
        <time>1970-01-01T01:00:00Z</time>
      </trkpt>
      <trkpt lat="61.110179" lon="13.293168">
        <ele>346.818</ele>
        <time>1970-01-01T01:00:00Z</time>
      </trkpt>
      <trkpt lat="61.110218" lon="13.293113">
        <ele>346.909</ele>
        <time>1970-01-01T01:00:00Z</time>
      </trkpt>
      <trkpt lat="61.110469" lon="13.292975">
        <ele>347</ele>
        <time>1970-01-01T01:00:00Z</time>
      </trkpt>
      <trkpt lat="61.110569" lon="13.293009">
        <ele>347</ele>
        <time>1970-01-01T01:00:00Z</time>
      </trkpt>
      <trkpt lat="61.110847" lon="13.29291">
        <ele>347</ele>
        <time>1970-01-01T01:00:00Z</time>
      </trkpt>
      <trkpt lat="61.110942" lon="13.292922">
        <ele>347</ele>
        <time>1970-01-01T01:00:00Z</time>
      </trkpt>
      <trkpt lat="61.111026" lon="13.2929">
        <ele>347</ele>
        <time>1970-01-01T01:00:00Z</time>
      </trkpt>
      <trkpt lat="61.111129" lon="13.292881">
        <ele>347</ele>
        <time>1970-01-01T01:00:00Z</time>
      </trkpt>
      <trkpt lat="61.111289" lon="13.292796">
        <ele>347</ele>
        <time>1970-01-01T01:00:00Z</time>
      </trkpt>
      <trkpt lat="61.111431" lon="13.292694">
        <ele>347</ele>
        <time>1970-01-01T01:00:00Z</time>
      </trkpt>
      <trkpt lat="61.111557" lon="13.292676">
        <ele>347</ele>
        <time>1970-01-01T01:00:00Z</time>
      </trkpt>
      <trkpt lat="61.11174" lon="13.292666">
        <ele>347</ele>
        <time>1970-01-01T01:00:00Z</time>
      </trkpt>
      <trkpt lat="61.11182" lon="13.29264">
        <ele>347</ele>
        <time>1970-01-01T01:00:00Z</time>
      </trkpt>
      <trkpt lat="61.112098" lon="13.292537">
        <ele>347</ele>
        <time>1970-01-01T01:00:00Z</time>
      </trkpt>
      <trkpt lat="61.112274" lon="13.29248">
        <ele>347</ele>
        <time>1970-01-01T01:00:00Z</time>
      </trkpt>
      <trkpt lat="61.112457" lon="13.292417">
        <ele>347</ele>
        <time>1970-01-01T01:00:00Z</time>
      </trkpt>
      <trkpt lat="61.112556" lon="13.292422">
        <ele>347.091</ele>
        <time>1970-01-01T01:00:00Z</time>
      </trkpt>
      <trkpt lat="61.112686" lon="13.292334">
        <ele>347.182</ele>
        <time>1970-01-01T01:00:00Z</time>
      </trkpt>
      <trkpt lat="61.112804" lon="13.292294">
        <ele>347.273</ele>
        <time>1970-01-01T01:00:00Z</time>
      </trkpt>
      <trkpt lat="61.112926" lon="13.29226">
        <ele>347.364</ele>
        <time>1970-01-01T01:00:00Z</time>
      </trkpt>
      <trkpt lat="61.112983" lon="13.292245">
        <ele>347.455</ele>
        <time>1970-01-01T01:00:00Z</time>
      </trkpt>
      <trkpt lat="61.113086" lon="13.292205">
        <ele>347.455</ele>
        <time>1970-01-01T01:00:00Z</time>
      </trkpt>
      <trkpt lat="61.113185" lon="13.29219">
        <ele>347.455</ele>
        <time>1970-01-01T01:00:00Z</time>
      </trkpt>
      <trkpt lat="61.113254" lon="13.292176">
        <ele>347.455</ele>
        <time>1970-01-01T01:00:00Z</time>
      </trkpt>
      <trkpt lat="61.113334" lon="13.292127">
        <ele>347.545</ele>
        <time>1970-01-01T01:00:00Z</time>
      </trkpt>
      <trkpt lat="61.113368" lon="13.292113">
        <ele>347.636</ele>
        <time>1970-01-01T01:00:00Z</time>
      </trkpt>
      <trkpt lat="61.113571" lon="13.292005">
        <ele>347.727</ele>
        <time>1970-01-01T01:00:00Z</time>
      </trkpt>
      <trkpt lat="61.113605" lon="13.291985">
        <ele>347.727</ele>
        <time>1970-01-01T01:00:00Z</time>
      </trkpt>
      <trkpt lat="61.113735" lon="13.291963">
        <ele>347.818</ele>
        <time>1970-01-01T01:00:00Z</time>
      </trkpt>
      <trkpt lat="61.113883" lon="13.291901">
        <ele>347.909</ele>
        <time>1970-01-01T01:00:00Z</time>
      </trkpt>
      <trkpt lat="61.114025" lon="13.291817">
        <ele>348</ele>
        <time>1970-01-01T01:00:00Z</time>
      </trkpt>
      <trkpt lat="61.114212" lon="13.291746">
        <ele>348.091</ele>
        <time>1970-01-01T01:00:00Z</time>
      </trkpt>
      <trkpt lat="61.114494" lon="13.291663">
        <ele>348.273</ele>
        <time>1970-01-01T01:00:00Z</time>
      </trkpt>
      <trkpt lat="61.114727" lon="13.291563">
        <ele>348.455</ele>
        <time>1970-01-01T01:00:00Z</time>
      </trkpt>
      <trkpt lat="61.114917" lon="13.291528">
        <ele>348.727</ele>
        <time>1970-01-01T01:00:00Z</time>
      </trkpt>
      <trkpt lat="61.115142" lon="13.291444">
        <ele>348.909</ele>
        <time>1970-01-01T01:00:00Z</time>
      </trkpt>
      <trkpt lat="61.115276" lon="13.291376">
        <ele>348.909</ele>
        <time>1970-01-01T01:00:00Z</time>
      </trkpt>
      <trkpt lat="61.115329" lon="13.291373">
        <ele>348.909</ele>
        <time>1970-01-01T01:00:00Z</time>
      </trkpt>
      <trkpt lat="61.115425" lon="13.291351">
        <ele>348.909</ele>
        <time>1970-01-01T01:00:00Z</time>
      </trkpt>
      <trkpt lat="61.11552" lon="13.291345">
        <ele>348.818</ele>
        <time>1970-01-01T01:00:00Z</time>
      </trkpt>
      <trkpt lat="61.115612" lon="13.291325">
        <ele>348.727</ele>
        <time>1970-01-01T01:00:00Z</time>
      </trkpt>
      <trkpt lat="61.115741" lon="13.291254">
        <ele>348.818</ele>
        <time>1970-01-01T01:00:00Z</time>
      </trkpt>
      <trkpt lat="61.115787" lon="13.291234">
        <ele>348.909</ele>
        <time>1970-01-01T01:00:00Z</time>
      </trkpt>
      <trkpt lat="61.115924" lon="13.291196">
        <ele>349</ele>
        <time>1970-01-01T01:00:00Z</time>
      </trkpt>
      <trkpt lat="61.116088" lon="13.291111">
        <ele>349.091</ele>
        <time>1970-01-01T01:00:00Z</time>
      </trkpt>
      <trkpt lat="61.116241" lon="13.291007">
        <ele>349.091</ele>
        <time>1970-01-01T01:00:00Z</time>
      </trkpt>
      <trkpt lat="61.116317" lon="13.290983">
        <ele>349.091</ele>
        <time>1970-01-01T01:00:00Z</time>
      </trkpt>
      <trkpt lat="61.116512" lon="13.290903">
        <ele>349.455</ele>
        <time>1970-01-01T01:00:00Z</time>
      </trkpt>
      <trkpt lat="61.116668" lon="13.290888">
        <ele>349.818</ele>
        <time>1970-01-01T01:00:00Z</time>
      </trkpt>
      <trkpt lat="61.116794" lon="13.290826">
        <ele>350.182</ele>
        <time>1970-01-01T01:00:00Z</time>
      </trkpt>
      <trkpt lat="61.116874" lon="13.29081">
        <ele>350.545</ele>
        <time>1970-01-01T01:00:00Z</time>
      </trkpt>
      <trkpt lat="61.117027" lon="13.290822">
        <ele>350.909</ele>
        <time>1970-01-01T01:00:00Z</time>
      </trkpt>
      <trkpt lat="61.117153" lon="13.290713">
        <ele>351.091</ele>
        <time>1970-01-01T01:00:00Z</time>
      </trkpt>
      <trkpt lat="61.11724" lon="13.29067">
        <ele>351.091</ele>
        <time>1970-01-01T01:00:00Z</time>
      </trkpt>
      <trkpt lat="61.11737" lon="13.290599">
        <ele>351.091</ele>
        <time>1970-01-01T01:00:00Z</time>
      </trkpt>
      <trkpt lat="61.117534" lon="13.290547">
        <ele>351.091</ele>
        <time>1970-01-01T01:00:00Z</time>
      </trkpt>
      <trkpt lat="61.117736" lon="13.290503">
        <ele>351.091</ele>
        <time>1970-01-01T01:00:00Z</time>
      </trkpt>
      <trkpt lat="61.117816" lon="13.29048">
        <ele>351.091</ele>
        <time>1970-01-01T01:00:00Z</time>
      </trkpt>
      <trkpt lat="61.11798" lon="13.29042">
        <ele>350.909</ele>
        <time>1970-01-01T01:00:00Z</time>
      </trkpt>
      <trkpt lat="61.118129" lon="13.290401">
        <ele>350.727</ele>
        <time>1970-01-01T01:00:00Z</time>
      </trkpt>
      <trkpt lat="61.11816" lon="13.29039">
        <ele>350.545</ele>
        <time>1970-01-01T01:00:00Z</time>
      </trkpt>
      <trkpt lat="61.118198" lon="13.290367">
        <ele>351</ele>
        <time>1970-01-01T01:00:00Z</time>
      </trkpt>
      <trkpt lat="61.118274" lon="13.290387">
        <ele>351.455</ele>
        <time>1970-01-01T01:00:00Z</time>
      </trkpt>
      <trkpt lat="61.118408" lon="13.290357">
        <ele>351.909</ele>
        <time>1970-01-01T01:00:00Z</time>
      </trkpt>
      <trkpt lat="61.118587" lon="13.290277">
        <ele>352.545</ele>
        <time>1970-01-01T01:00:00Z</time>
      </trkpt>
      <trkpt lat="61.118732" lon="13.290235">
        <ele>353.182</ele>
        <time>1970-01-01T01:00:00Z</time>
      </trkpt>
      <trkpt lat="61.118846" lon="13.290225">
        <ele>353.818</ele>
        <time>1970-01-01T01:00:00Z</time>
      </trkpt>
      <trkpt lat="61.118988" lon="13.290205">
        <ele>354.273</ele>
        <time>1970-01-01T01:00:00Z</time>
      </trkpt>
      <trkpt lat="61.119026" lon="13.290211">
        <ele>354.727</ele>
        <time>1970-01-01T01:00:00Z</time>
      </trkpt>
      <trkpt lat="61.11919" lon="13.290204">
        <ele>355.182</ele>
        <time>1970-01-01T01:00:00Z</time>
      </trkpt>
      <trkpt lat="61.119293" lon="13.290246">
        <ele>355.636</ele>
        <time>1970-01-01T01:00:00Z</time>
      </trkpt>
      <trkpt lat="61.11938" lon="13.290357">
        <ele>356.091</ele>
        <time>1970-01-01T01:00:00Z</time>
      </trkpt>
      <trkpt lat="61.119445" lon="13.29047">
        <ele>355.909</ele>
        <time>1970-01-01T01:00:00Z</time>
      </trkpt>
      <trkpt lat="61.119476" lon="13.290525">
        <ele>355.636</ele>
        <time>1970-01-01T01:00:00Z</time>
      </trkpt>
      <trkpt lat="61.119522" lon="13.290584">
        <ele>355.364</ele>
        <time>1970-01-01T01:00:00Z</time>
      </trkpt>
      <trkpt lat="61.11956" lon="13.290665">
        <ele>355.091</ele>
        <time>1970-01-01T01:00:00Z</time>
      </trkpt>
      <trkpt lat="61.119594" lon="13.290727">
        <ele>354.818</ele>
        <time>1970-01-01T01:00:00Z</time>
      </trkpt>
      <trkpt lat="61.119625" lon="13.290785">
        <ele>354.545</ele>
        <time>1970-01-01T01:00:00Z</time>
      </trkpt>
      <trkpt lat="61.119651" lon="13.29084">
        <ele>354.455</ele>
        <time>1970-01-01T01:00:00Z</time>
      </trkpt>
      <trkpt lat="61.119682" lon="13.290905">
        <ele>354.364</ele>
        <time>1970-01-01T01:00:00Z</time>
      </trkpt>
      <trkpt lat="61.119712" lon="13.290967">
        <ele>354.273</ele>
        <time>1970-01-01T01:00:00Z</time>
      </trkpt>
      <trkpt lat="61.119731" lon="13.291012">
        <ele>354.182</ele>
        <time>1970-01-01T01:00:00Z</time>
      </trkpt>
      <trkpt lat="61.119754" lon="13.291051">
        <ele>354.091</ele>
        <time>1970-01-01T01:00:00Z</time>
      </trkpt>
      <trkpt lat="61.119766" lon="13.291076">
        <ele>354</ele>
        <time>1970-01-01T01:00:00Z</time>
      </trkpt>
      <trkpt lat="61.119781" lon="13.291091">
        <ele>354</ele>
        <time>1970-01-01T01:00:00Z</time>
      </trkpt>
      <trkpt lat="61.1198" lon="13.291131">
        <ele>354</ele>
        <time>1970-01-01T01:00:00Z</time>
      </trkpt>
      <trkpt lat="61.119819" lon="13.291172">
        <ele>354</ele>
        <time>1970-01-01T01:00:00Z</time>
      </trkpt>
      <trkpt lat="61.119834" lon="13.291211">
        <ele>354</ele>
        <time>1970-01-01T01:00:00Z</time>
      </trkpt>
      <trkpt lat="61.119853" lon="13.291247">
        <ele>354</ele>
        <time>1970-01-01T01:00:00Z</time>
      </trkpt>
      <trkpt lat="61.119857" lon="13.291259">
        <ele>354</ele>
        <time>1970-01-01T01:00:00Z</time>
      </trkpt>
      <trkpt lat="61.119861" lon="13.291264">
        <ele>354</ele>
        <time>1970-01-01T01:00:00Z</time>
      </trkpt>
      <trkpt lat="61.119876" lon="13.291305">
        <ele>354</ele>
        <time>1970-01-01T01:00:00Z</time>
      </trkpt>
      <trkpt lat="61.119907" lon="13.291357">
        <ele>354</ele>
        <time>1970-01-01T01:00:00Z</time>
      </trkpt>
      <trkpt lat="61.119937" lon="13.291406">
        <ele>354</ele>
        <time>1970-01-01T01:00:00Z</time>
      </trkpt>
      <trkpt lat="61.119956" lon="13.291442">
        <ele>354</ele>
        <time>1970-01-01T01:00:00Z</time>
      </trkpt>
      <trkpt lat="61.119968" lon="13.291468">
        <ele>354</ele>
        <time>1970-01-01T01:00:00Z</time>
      </trkpt>
      <trkpt lat="61.119983" lon="13.291495">
        <ele>354</ele>
        <time>1970-01-01T01:00:00Z</time>
      </trkpt>
      <trkpt lat="61.120002" lon="13.291527">
        <ele>354</ele>
        <time>1970-01-01T01:00:00Z</time>
      </trkpt>
      <trkpt lat="61.120018" lon="13.291557">
        <ele>354</ele>
        <time>1970-01-01T01:00:00Z</time>
      </trkpt>
      <trkpt lat="61.120033" lon="13.291584">
        <ele>354</ele>
        <time>1970-01-01T01:00:00Z</time>
      </trkpt>
      <trkpt lat="61.120048" lon="13.291625">
        <ele>354</ele>
        <time>1970-01-01T01:00:00Z</time>
      </trkpt>
      <trkpt lat="61.120063" lon="13.291663">
        <ele>354</ele>
        <time>1970-01-01T01:00:00Z</time>
      </trkpt>
      <trkpt lat="61.120082" lon="13.291697">
        <ele>354</ele>
        <time>1970-01-01T01:00:00Z</time>
      </trkpt>
      <trkpt lat="61.12009" lon="13.291707">
        <ele>354</ele>
        <time>1970-01-01T01:00:00Z</time>
      </trkpt>
      <trkpt lat="61.120101" lon="13.291733">
        <ele>354</ele>
        <time>1970-01-01T01:00:00Z</time>
      </trkpt>
      <trkpt lat="61.120128" lon="13.291766">
        <ele>354</ele>
        <time>1970-01-01T01:00:00Z</time>
      </trkpt>
      <trkpt lat="61.120147" lon="13.291789">
        <ele>354</ele>
        <time>1970-01-01T01:00:00Z</time>
      </trkpt>
      <trkpt lat="61.120182" lon="13.291828">
        <ele>354</ele>
        <time>1970-01-01T01:00:00Z</time>
      </trkpt>
      <trkpt lat="61.120201" lon="13.291849">
        <ele>354</ele>
        <time>1970-01-01T01:00:00Z</time>
      </trkpt>
      <trkpt lat="61.120223" lon="13.291867">
        <ele>354</ele>
        <time>1970-01-01T01:00:00Z</time>
      </trkpt>
      <trkpt lat="61.120235" lon="13.291885">
        <ele>354</ele>
        <time>1970-01-01T01:00:00Z</time>
      </trkpt>
      <trkpt lat="61.12025" lon="13.291898">
        <ele>354</ele>
        <time>1970-01-01T01:00:00Z</time>
      </trkpt>
      <trkpt lat="61.120269" lon="13.291921">
        <ele>354</ele>
        <time>1970-01-01T01:00:00Z</time>
      </trkpt>
      <trkpt lat="61.120288" lon="13.291944">
        <ele>354</ele>
        <time>1970-01-01T01:00:00Z</time>
      </trkpt>
      <trkpt lat="61.120307" lon="13.291967">
        <ele>354</ele>
        <time>1970-01-01T01:00:00Z</time>
      </trkpt>
      <trkpt lat="61.120319" lon="13.291981">
        <ele>354</ele>
        <time>1970-01-01T01:00:00Z</time>
      </trkpt>
      <trkpt lat="61.120334" lon="13.292005">
        <ele>354</ele>
        <time>1970-01-01T01:00:00Z</time>
      </trkpt>
      <trkpt lat="61.120338" lon="13.292009">
        <ele>354</ele>
        <time>1970-01-01T01:00:00Z</time>
      </trkpt>
      <trkpt lat="61.120357" lon="13.292015">
        <ele>353.909</ele>
        <time>1970-01-01T01:00:00Z</time>
      </trkpt>
      <trkpt lat="61.120376" lon="13.292034">
        <ele>353.818</ele>
        <time>1970-01-01T01:00:00Z</time>
      </trkpt>
      <trkpt lat="61.120395" lon="13.292045">
        <ele>353.818</ele>
        <time>1970-01-01T01:00:00Z</time>
      </trkpt>
      <trkpt lat="61.120418" lon="13.292067">
        <ele>353.818</ele>
        <time>1970-01-01T01:00:00Z</time>
      </trkpt>
      <trkpt lat="61.120433" lon="13.292078">
        <ele>353.818</ele>
        <time>1970-01-01T01:00:00Z</time>
      </trkpt>
      <trkpt lat="61.120452" lon="13.292096">
        <ele>353.818</ele>
        <time>1970-01-01T01:00:00Z</time>
      </trkpt>
      <trkpt lat="61.120464" lon="13.292101">
        <ele>353.818</ele>
        <time>1970-01-01T01:00:00Z</time>
      </trkpt>
      <trkpt lat="61.120494" lon="13.292116">
        <ele>353.818</ele>
        <time>1970-01-01T01:00:00Z</time>
      </trkpt>
      <trkpt lat="61.120521" lon="13.292142">
        <ele>353.818</ele>
        <time>1970-01-01T01:00:00Z</time>
      </trkpt>
      <trkpt lat="61.12054" lon="13.292167">
        <ele>353.818</ele>
        <time>1970-01-01T01:00:00Z</time>
      </trkpt>
      <trkpt lat="61.120555" lon="13.292179">
        <ele>353.818</ele>
        <time>1970-01-01T01:00:00Z</time>
      </trkpt>
      <trkpt lat="61.120574" lon="13.292187">
        <ele>353.909</ele>
        <time>1970-01-01T01:00:00Z</time>
      </trkpt>
      <trkpt lat="61.120601" lon="13.292215">
        <ele>354</ele>
        <time>1970-01-01T01:00:00Z</time>
      </trkpt>
      <trkpt lat="61.12062" lon="13.292239">
        <ele>354</ele>
        <time>1970-01-01T01:00:00Z</time>
      </trkpt>
      <trkpt lat="61.120635" lon="13.292258">
        <ele>354</ele>
        <time>1970-01-01T01:00:00Z</time>
      </trkpt>
      <trkpt lat="61.120655" lon="13.29228">
        <ele>354</ele>
        <time>1970-01-01T01:00:00Z</time>
      </trkpt>
      <trkpt lat="61.120681" lon="13.292304">
        <ele>354</ele>
        <time>1970-01-01T01:00:00Z</time>
      </trkpt>
      <trkpt lat="61.120697" lon="13.292324">
        <ele>354</ele>
        <time>1970-01-01T01:00:00Z</time>
      </trkpt>
      <trkpt lat="61.120723" lon="13.292338">
        <ele>354</ele>
        <time>1970-01-01T01:00:00Z</time>
      </trkpt>
      <trkpt lat="61.120758" lon="13.292364">
        <ele>354</ele>
        <time>1970-01-01T01:00:00Z</time>
      </trkpt>
      <trkpt lat="61.120777" lon="13.292387">
        <ele>354</ele>
        <time>1970-01-01T01:00:00Z</time>
      </trkpt>
      <trkpt lat="61.120792" lon="13.292398">
        <ele>354</ele>
        <time>1970-01-01T01:00:00Z</time>
      </trkpt>
      <trkpt lat="61.120815" lon="13.292427">
        <ele>354</ele>
        <time>1970-01-01T01:00:00Z</time>
      </trkpt>
      <trkpt lat="61.120841" lon="13.292462">
        <ele>354</ele>
        <time>1970-01-01T01:00:00Z</time>
      </trkpt>
      <trkpt lat="61.120876" lon="13.292483">
        <ele>354</ele>
        <time>1970-01-01T01:00:00Z</time>
      </trkpt>
      <trkpt lat="61.120918" lon="13.292517">
        <ele>354</ele>
        <time>1970-01-01T01:00:00Z</time>
      </trkpt>
      <trkpt lat="61.120944" lon="13.292537">
        <ele>354</ele>
        <time>1970-01-01T01:00:00Z</time>
      </trkpt>
      <trkpt lat="61.120971" lon="13.292553">
        <ele>354</ele>
        <time>1970-01-01T01:00:00Z</time>
      </trkpt>
      <trkpt lat="61.120998" lon="13.292572">
        <ele>354</ele>
        <time>1970-01-01T01:00:00Z</time>
      </trkpt>
      <trkpt lat="61.121021" lon="13.292593">
        <ele>354</ele>
        <time>1970-01-01T01:00:00Z</time>
      </trkpt>
      <trkpt lat="61.121051" lon="13.292638">
        <ele>354</ele>
        <time>1970-01-01T01:00:00Z</time>
      </trkpt>
      <trkpt lat="61.121059" lon="13.292651">
        <ele>354</ele>
        <time>1970-01-01T01:00:00Z</time>
      </trkpt>
      <trkpt lat="61.121074" lon="13.292666">
        <ele>354</ele>
        <time>1970-01-01T01:00:00Z</time>
      </trkpt>
      <trkpt lat="61.121089" lon="13.292684">
        <ele>354</ele>
        <time>1970-01-01T01:00:00Z</time>
      </trkpt>
      <trkpt lat="61.121101" lon="13.292699">
        <ele>354</ele>
        <time>1970-01-01T01:00:00Z</time>
      </trkpt>
      <trkpt lat="61.121109" lon="13.292714">
        <ele>354</ele>
        <time>1970-01-01T01:00:00Z</time>
      </trkpt>
      <trkpt lat="61.12112" lon="13.29273">
        <ele>354</ele>
        <time>1970-01-01T01:00:00Z</time>
      </trkpt>
      <trkpt lat="61.121139" lon="13.292753">
        <ele>354</ele>
        <time>1970-01-01T01:00:00Z</time>
      </trkpt>
      <trkpt lat="61.121154" lon="13.29278">
        <ele>354</ele>
        <time>1970-01-01T01:00:00Z</time>
      </trkpt>
      <trkpt lat="61.121162" lon="13.292812">
        <ele>354.182</ele>
        <time>1970-01-01T01:00:00Z</time>
      </trkpt>
      <trkpt lat="61.121173" lon="13.292829">
        <ele>354.364</ele>
        <time>1970-01-01T01:00:00Z</time>
      </trkpt>
      <trkpt lat="61.121185" lon="13.29285">
        <ele>354.545</ele>
        <time>1970-01-01T01:00:00Z</time>
      </trkpt>
      <trkpt lat="61.1212" lon="13.292881">
        <ele>354.727</ele>
        <time>1970-01-01T01:00:00Z</time>
      </trkpt>
      <trkpt lat="61.121223" lon="13.292911">
        <ele>354.909</ele>
        <time>1970-01-01T01:00:00Z</time>
      </trkpt>
      <trkpt lat="61.121231" lon="13.292947">
        <ele>355.091</ele>
        <time>1970-01-01T01:00:00Z</time>
      </trkpt>
      <trkpt lat="61.121242" lon="13.292994">
        <ele>355.273</ele>
        <time>1970-01-01T01:00:00Z</time>
      </trkpt>
      <trkpt lat="61.121242" lon="13.293068">
        <ele>355.455</ele>
        <time>1970-01-01T01:00:00Z</time>
      </trkpt>
      <trkpt lat="61.121246" lon="13.29314">
        <ele>355.636</ele>
        <time>1970-01-01T01:00:00Z</time>
      </trkpt>
      <trkpt lat="61.121246" lon="13.293207">
        <ele>355.818</ele>
        <time>1970-01-01T01:00:00Z</time>
      </trkpt>
      <trkpt lat="61.121246" lon="13.293273">
        <ele>356</ele>
        <time>1970-01-01T01:00:00Z</time>
      </trkpt>
      <trkpt lat="61.121242" lon="13.293338">
        <ele>356</ele>
        <time>1970-01-01T01:00:00Z</time>
      </trkpt>
      <trkpt lat="61.121246" lon="13.293454">
        <ele>356</ele>
        <time>1970-01-01T01:00:00Z</time>
      </trkpt>
      <trkpt lat="61.12125" lon="13.293532">
        <ele>356</ele>
        <time>1970-01-01T01:00:00Z</time>
      </trkpt>
      <trkpt lat="61.12125" lon="13.293583">
        <ele>356</ele>
        <time>1970-01-01T01:00:00Z</time>
      </trkpt>
      <trkpt lat="61.12125" lon="13.29365">
        <ele>356.091</ele>
        <time>1970-01-01T01:00:00Z</time>
      </trkpt>
      <trkpt lat="61.121242" lon="13.293726">
        <ele>356.182</ele>
        <time>1970-01-01T01:00:00Z</time>
      </trkpt>
      <trkpt lat="61.121231" lon="13.293787">
        <ele>356.273</ele>
        <time>1970-01-01T01:00:00Z</time>
      </trkpt>
      <trkpt lat="61.121223" lon="13.293836">
        <ele>356.364</ele>
        <time>1970-01-01T01:00:00Z</time>
      </trkpt>
      <trkpt lat="61.121219" lon="13.293882">
        <ele>356.455</ele>
        <time>1970-01-01T01:00:00Z</time>
      </trkpt>
      <trkpt lat="61.121196" lon="13.293948">
        <ele>356.545</ele>
        <time>1970-01-01T01:00:00Z</time>
      </trkpt>
      <trkpt lat="61.121181" lon="13.293998">
        <ele>356.636</ele>
        <time>1970-01-01T01:00:00Z</time>
      </trkpt>
      <trkpt lat="61.121162" lon="13.294052">
        <ele>356.727</ele>
        <time>1970-01-01T01:00:00Z</time>
      </trkpt>
      <trkpt lat="61.121147" lon="13.294085">
        <ele>356.818</ele>
        <time>1970-01-01T01:00:00Z</time>
      </trkpt>
      <trkpt lat="61.121139" lon="13.294104">
        <ele>356.909</ele>
        <time>1970-01-01T01:00:00Z</time>
      </trkpt>
      <trkpt lat="61.121124" lon="13.294136">
        <ele>357</ele>
        <time>1970-01-01T01:00:00Z</time>
      </trkpt>
      <trkpt lat="61.121101" lon="13.29417">
        <ele>357</ele>
        <time>1970-01-01T01:00:00Z</time>
      </trkpt>
      <trkpt lat="61.121086" lon="13.29421">
        <ele>357</ele>
        <time>1970-01-01T01:00:00Z</time>
      </trkpt>
      <trkpt lat="61.121055" lon="13.294252">
        <ele>357</ele>
        <time>1970-01-01T01:00:00Z</time>
      </trkpt>
      <trkpt lat="61.121032" lon="13.294293">
        <ele>357</ele>
        <time>1970-01-01T01:00:00Z</time>
      </trkpt>
      <trkpt lat="61.121017" lon="13.294343">
        <ele>357</ele>
        <time>1970-01-01T01:00:00Z</time>
      </trkpt>
      <trkpt lat="61.121013" lon="13.294344">
        <ele>357</ele>
        <time>1970-01-01T01:00:00Z</time>
      </trkpt>
      <trkpt lat="61.121002" lon="13.294387">
        <ele>357</ele>
        <time>1970-01-01T01:00:00Z</time>
      </trkpt>
      <trkpt lat="61.120983" lon="13.294407">
        <ele>357</ele>
        <time>1970-01-01T01:00:00Z</time>
      </trkpt>
      <trkpt lat="61.120967" lon="13.294448">
        <ele>357</ele>
        <time>1970-01-01T01:00:00Z</time>
      </trkpt>
      <trkpt lat="61.120948" lon="13.294486">
        <ele>357.091</ele>
        <time>1970-01-01T01:00:00Z</time>
      </trkpt>
      <trkpt lat="61.120929" lon="13.294517">
        <ele>357.182</ele>
        <time>1970-01-01T01:00:00Z</time>
      </trkpt>
      <trkpt lat="61.120906" lon="13.29454">
        <ele>357.273</ele>
        <time>1970-01-01T01:00:00Z</time>
      </trkpt>
      <trkpt lat="61.120891" lon="13.294597">
        <ele>357.364</ele>
        <time>1970-01-01T01:00:00Z</time>
      </trkpt>
      <trkpt lat="61.120872" lon="13.294669">
        <ele>357.455</ele>
        <time>1970-01-01T01:00:00Z</time>
      </trkpt>
      <trkpt lat="61.120853" lon="13.294722">
        <ele>357.545</ele>
        <time>1970-01-01T01:00:00Z</time>
      </trkpt>
      <trkpt lat="61.120838" lon="13.294767">
        <ele>357.636</ele>
        <time>1970-01-01T01:00:00Z</time>
      </trkpt>
      <trkpt lat="61.120826" lon="13.294806">
        <ele>357.727</ele>
        <time>1970-01-01T01:00:00Z</time>
      </trkpt>
      <trkpt lat="61.120819" lon="13.294828">
        <ele>357.818</ele>
        <time>1970-01-01T01:00:00Z</time>
      </trkpt>
      <trkpt lat="61.120819" lon="13.294871">
        <ele>357.909</ele>
        <time>1970-01-01T01:00:00Z</time>
      </trkpt>
      <trkpt lat="61.120811" lon="13.294906">
        <ele>358</ele>
        <time>1970-01-01T01:00:00Z</time>
      </trkpt>
      <trkpt lat="61.120811" lon="13.294916">
        <ele>358</ele>
        <time>1970-01-01T01:00:00Z</time>
      </trkpt>
      <trkpt lat="61.120807" lon="13.294951">
        <ele>358</ele>
        <time>1970-01-01T01:00:00Z</time>
      </trkpt>
      <trkpt lat="61.120807" lon="13.294983">
        <ele>358</ele>
        <time>1970-01-01T01:00:00Z</time>
      </trkpt>
      <trkpt lat="61.120811" lon="13.295017">
        <ele>358</ele>
        <time>1970-01-01T01:00:00Z</time>
      </trkpt>
      <trkpt lat="61.120807" lon="13.295045">
        <ele>358</ele>
        <time>1970-01-01T01:00:00Z</time>
      </trkpt>
      <trkpt lat="61.120807" lon="13.295067">
        <ele>358</ele>
        <time>1970-01-01T01:00:00Z</time>
      </trkpt>
      <trkpt lat="61.120811" lon="13.295095">
        <ele>358</ele>
        <time>1970-01-01T01:00:00Z</time>
      </trkpt>
      <trkpt lat="61.120811" lon="13.295118">
        <ele>358</ele>
        <time>1970-01-01T01:00:00Z</time>
      </trkpt>
      <trkpt lat="61.120822" lon="13.295131">
        <ele>358</ele>
        <time>1970-01-01T01:00:00Z</time>
      </trkpt>
      <trkpt lat="61.12083" lon="13.295156">
        <ele>358</ele>
        <time>1970-01-01T01:00:00Z</time>
      </trkpt>
      <trkpt lat="61.120853" lon="13.29518">
        <ele>358</ele>
        <time>1970-01-01T01:00:00Z</time>
      </trkpt>
      <trkpt lat="61.120864" lon="13.295208">
        <ele>358</ele>
        <time>1970-01-01T01:00:00Z</time>
      </trkpt>
      <trkpt lat="61.120883" lon="13.295216">
        <ele>358</ele>
        <time>1970-01-01T01:00:00Z</time>
      </trkpt>
      <trkpt lat="61.120906" lon="13.295235">
        <ele>358</ele>
        <time>1970-01-01T01:00:00Z</time>
      </trkpt>
      <trkpt lat="61.12091" lon="13.295246">
        <ele>358</ele>
        <time>1970-01-01T01:00:00Z</time>
      </trkpt>
      <trkpt lat="61.120914" lon="13.295251">
        <ele>358</ele>
        <time>1970-01-01T01:00:00Z</time>
      </trkpt>
      <trkpt lat="61.120929" lon="13.29527">
        <ele>358</ele>
        <time>1970-01-01T01:00:00Z</time>
      </trkpt>
      <trkpt lat="61.12096" lon="13.295289">
        <ele>358</ele>
        <time>1970-01-01T01:00:00Z</time>
      </trkpt>
      <trkpt lat="61.120994" lon="13.295314">
        <ele>358</ele>
        <time>1970-01-01T01:00:00Z</time>
      </trkpt>
      <trkpt lat="61.121047" lon="13.295338">
        <ele>358</ele>
        <time>1970-01-01T01:00:00Z</time>
      </trkpt>
      <trkpt lat="61.121147" lon="13.295354">
        <ele>358</ele>
        <time>1970-01-01T01:00:00Z</time>
      </trkpt>
      <trkpt lat="61.121223" lon="13.295397">
        <ele>358.182</ele>
        <time>1970-01-01T01:00:00Z</time>
      </trkpt>
      <trkpt lat="61.121269" lon="13.29542">
        <ele>358.364</ele>
        <time>1970-01-01T01:00:00Z</time>
      </trkpt>
      <trkpt lat="61.121353" lon="13.295454">
        <ele>358.545</ele>
        <time>1970-01-01T01:00:00Z</time>
      </trkpt>
      <trkpt lat="61.121437" lon="13.295494">
        <ele>358.727</ele>
        <time>1970-01-01T01:00:00Z</time>
      </trkpt>
      <trkpt lat="61.121498" lon="13.29552">
        <ele>358.909</ele>
        <time>1970-01-01T01:00:00Z</time>
      </trkpt>
      <trkpt lat="61.121566" lon="13.295573">
        <ele>359.091</ele>
        <time>1970-01-01T01:00:00Z</time>
      </trkpt>
      <trkpt lat="61.121646" lon="13.295699">
        <ele>359.273</ele>
        <time>1970-01-01T01:00:00Z</time>
      </trkpt>
      <trkpt lat="61.121696" lon="13.295783">
        <ele>359.455</ele>
        <time>1970-01-01T01:00:00Z</time>
      </trkpt>
      <trkpt lat="61.121742" lon="13.295882">
        <ele>359.636</ele>
        <time>1970-01-01T01:00:00Z</time>
      </trkpt>
      <trkpt lat="61.12178" lon="13.296008">
        <ele>359.818</ele>
        <time>1970-01-01T01:00:00Z</time>
      </trkpt>
      <trkpt lat="61.12181" lon="13.29613">
        <ele>360</ele>
        <time>1970-01-01T01:00:00Z</time>
      </trkpt>
      <trkpt lat="61.121822" lon="13.296304">
        <ele>360</ele>
        <time>1970-01-01T01:00:00Z</time>
      </trkpt>
      <trkpt lat="61.121818" lon="13.296476">
        <ele>360</ele>
        <time>1970-01-01T01:00:00Z</time>
      </trkpt>
      <trkpt lat="61.121814" lon="13.296629">
        <ele>360</ele>
        <time>1970-01-01T01:00:00Z</time>
      </trkpt>
      <trkpt lat="61.121791" lon="13.296735">
        <ele>360.818</ele>
        <time>1970-01-01T01:00:00Z</time>
      </trkpt>
      <trkpt lat="61.121742" lon="13.296873">
        <ele>361.636</ele>
        <time>1970-01-01T01:00:00Z</time>
      </trkpt>
      <trkpt lat="61.121704" lon="13.29697">
        <ele>362.455</ele>
        <time>1970-01-01T01:00:00Z</time>
      </trkpt>
      <trkpt lat="61.121692" lon="13.297008">
        <ele>363.273</ele>
        <time>1970-01-01T01:00:00Z</time>
      </trkpt>
      <trkpt lat="61.121662" lon="13.297084">
        <ele>364.091</ele>
        <time>1970-01-01T01:00:00Z</time>
      </trkpt>
      <trkpt lat="61.121616" lon="13.297209">
        <ele>364.909</ele>
        <time>1970-01-01T01:00:00Z</time>
      </trkpt>
      <trkpt lat="61.12157" lon="13.297317">
        <ele>365.727</ele>
        <time>1970-01-01T01:00:00Z</time>
      </trkpt>
      <trkpt lat="61.121513" lon="13.297423">
        <ele>366.545</ele>
        <time>1970-01-01T01:00:00Z</time>
      </trkpt>
      <trkpt lat="61.121479" lon="13.297489">
        <ele>368.182</ele>
        <time>1970-01-01T01:00:00Z</time>
      </trkpt>
      <trkpt lat="61.121421" lon="13.297627">
        <ele>369.818</ele>
        <time>1970-01-01T01:00:00Z</time>
      </trkpt>
      <trkpt lat="61.121387" lon="13.297754">
        <ele>371</ele>
        <time>1970-01-01T01:00:00Z</time>
      </trkpt>
      <trkpt lat="61.121356" lon="13.297818">
        <ele>371.364</ele>
        <time>1970-01-01T01:00:00Z</time>
      </trkpt>
      <trkpt lat="61.121311" lon="13.297959">
        <ele>371.727</ele>
        <time>1970-01-01T01:00:00Z</time>
      </trkpt>
      <trkpt lat="61.121292" lon="13.29806">
        <ele>372.091</ele>
        <time>1970-01-01T01:00:00Z</time>
      </trkpt>
      <trkpt lat="61.121288" lon="13.298078">
        <ele>373</ele>
        <time>1970-01-01T01:00:00Z</time>
      </trkpt>
      <trkpt lat="61.121253" lon="13.298233">
        <ele>373.909</ele>
        <time>1970-01-01T01:00:00Z</time>
      </trkpt>
      <trkpt lat="61.121231" lon="13.298418">
        <ele>374.818</ele>
        <time>1970-01-01T01:00:00Z</time>
      </trkpt>
      <trkpt lat="61.121215" lon="13.298553">
        <ele>375.727</ele>
        <time>1970-01-01T01:00:00Z</time>
      </trkpt>
      <trkpt lat="61.121192" lon="13.298736">
        <ele>376.636</ele>
        <time>1970-01-01T01:00:00Z</time>
      </trkpt>
      <trkpt lat="61.121177" lon="13.298862">
        <ele>376.727</ele>
        <time>1970-01-01T01:00:00Z</time>
      </trkpt>
      <trkpt lat="61.121173" lon="13.298886">
        <ele>376.818</ele>
        <time>1970-01-01T01:00:00Z</time>
      </trkpt>
      <trkpt lat="61.121154" lon="13.299022">
        <ele>378.727</ele>
        <time>1970-01-01T01:00:00Z</time>
      </trkpt>
      <trkpt lat="61.121124" lon="13.299185">
        <ele>380.636</ele>
        <time>1970-01-01T01:00:00Z</time>
      </trkpt>
      <trkpt lat="61.121109" lon="13.299324">
        <ele>382.545</ele>
        <time>1970-01-01T01:00:00Z</time>
      </trkpt>
      <trkpt lat="61.121109" lon="13.299452">
        <ele>384.455</ele>
        <time>1970-01-01T01:00:00Z</time>
      </trkpt>
      <trkpt lat="61.121112" lon="13.299629">
        <ele>385.818</ele>
        <time>1970-01-01T01:00:00Z</time>
      </trkpt>
      <trkpt lat="61.121116" lon="13.299763">
        <ele>387.182</ele>
        <time>1970-01-01T01:00:00Z</time>
      </trkpt>
      <trkpt lat="61.12112" lon="13.29982">
        <ele>388.545</ele>
        <time>1970-01-01T01:00:00Z</time>
      </trkpt>
      <trkpt lat="61.121135" lon="13.299952">
        <ele>389.909</ele>
        <time>1970-01-01T01:00:00Z</time>
      </trkpt>
      <trkpt lat="61.121158" lon="13.299991">
        <ele>391.273</ele>
        <time>1970-01-01T01:00:00Z</time>
      </trkpt>
      <trkpt lat="61.121166" lon="13.300107">
        <ele>393.182</ele>
        <time>1970-01-01T01:00:00Z</time>
      </trkpt>
      <trkpt lat="61.121177" lon="13.300234">
        <ele>395.091</ele>
        <time>1970-01-01T01:00:00Z</time>
      </trkpt>
      <trkpt lat="61.121177" lon="13.300265">
        <ele>395.636</ele>
        <time>1970-01-01T01:00:00Z</time>
      </trkpt>
      <trkpt lat="61.121185" lon="13.300395">
        <ele>396.182</ele>
        <time>1970-01-01T01:00:00Z</time>
      </trkpt>
      <trkpt lat="61.121181" lon="13.300443">
        <ele>396.727</ele>
        <time>1970-01-01T01:00:00Z</time>
      </trkpt>
      <trkpt lat="61.121181" lon="13.300535">
        <ele>397.273</ele>
        <time>1970-01-01T01:00:00Z</time>
      </trkpt>
      <trkpt lat="61.121185" lon="13.300626">
        <ele>397.818</ele>
        <time>1970-01-01T01:00:00Z</time>
      </trkpt>
      <trkpt lat="61.121185" lon="13.300736">
        <ele>398.364</ele>
        <time>1970-01-01T01:00:00Z</time>
      </trkpt>
      <trkpt lat="61.121192" lon="13.300863">
        <ele>399.364</ele>
        <time>1970-01-01T01:00:00Z</time>
      </trkpt>
      <trkpt lat="61.121196" lon="13.300999">
        <ele>400.364</ele>
        <time>1970-01-01T01:00:00Z</time>
      </trkpt>
      <trkpt lat="61.121196" lon="13.301018">
        <ele>401.364</ele>
        <time>1970-01-01T01:00:00Z</time>
      </trkpt>
      <trkpt lat="61.121189" lon="13.301147">
        <ele>401.818</ele>
        <time>1970-01-01T01:00:00Z</time>
      </trkpt>
      <trkpt lat="61.121192" lon="13.301244">
        <ele>402.273</ele>
        <time>1970-01-01T01:00:00Z</time>
      </trkpt>
      <trkpt lat="61.121196" lon="13.301314">
        <ele>402.727</ele>
        <time>1970-01-01T01:00:00Z</time>
      </trkpt>
      <trkpt lat="61.1212" lon="13.301441">
        <ele>403.182</ele>
        <time>1970-01-01T01:00:00Z</time>
      </trkpt>
      <trkpt lat="61.121196" lon="13.301509">
        <ele>403.636</ele>
        <time>1970-01-01T01:00:00Z</time>
      </trkpt>
      <trkpt lat="61.121204" lon="13.301616">
        <ele>404.091</ele>
        <time>1970-01-01T01:00:00Z</time>
      </trkpt>
      <trkpt lat="61.121212" lon="13.301687">
        <ele>404.545</ele>
        <time>1970-01-01T01:00:00Z</time>
      </trkpt>
      <trkpt lat="61.121215" lon="13.301724">
        <ele>405.545</ele>
        <time>1970-01-01T01:00:00Z</time>
      </trkpt>
      <trkpt lat="61.121215" lon="13.30178">
        <ele>406.091</ele>
        <time>1970-01-01T01:00:00Z</time>
      </trkpt>
      <trkpt lat="61.121223" lon="13.301899">
        <ele>406.636</ele>
        <time>1970-01-01T01:00:00Z</time>
      </trkpt>
      <trkpt lat="61.121227" lon="13.302054">
        <ele>407.182</ele>
        <time>1970-01-01T01:00:00Z</time>
      </trkpt>
      <trkpt lat="61.121227" lon="13.302075">
        <ele>407.727</ele>
        <time>1970-01-01T01:00:00Z</time>
      </trkpt>
      <trkpt lat="61.121234" lon="13.302154">
        <ele>408.273</ele>
        <time>1970-01-01T01:00:00Z</time>
      </trkpt>
      <trkpt lat="61.121238" lon="13.30223">
        <ele>408.818</ele>
        <time>1970-01-01T01:00:00Z</time>
      </trkpt>
      <trkpt lat="61.121257" lon="13.302357">
        <ele>409.818</ele>
        <time>1970-01-01T01:00:00Z</time>
      </trkpt>
      <trkpt lat="61.121261" lon="13.302467">
        <ele>410.818</ele>
        <time>1970-01-01T01:00:00Z</time>
      </trkpt>
      <trkpt lat="61.121261" lon="13.302497">
        <ele>412.091</ele>
        <time>1970-01-01T01:00:00Z</time>
      </trkpt>
      <trkpt lat="61.121257" lon="13.302612">
        <ele>413.091</ele>
        <time>1970-01-01T01:00:00Z</time>
      </trkpt>
      <trkpt lat="61.121269" lon="13.302772">
        <ele>413.545</ele>
        <time>1970-01-01T01:00:00Z</time>
      </trkpt>
      <trkpt lat="61.121273" lon="13.302879">
        <ele>414</ele>
        <time>1970-01-01T01:00:00Z</time>
      </trkpt>
      <trkpt lat="61.121265" lon="13.302963">
        <ele>414.455</ele>
        <time>1970-01-01T01:00:00Z</time>
      </trkpt>
      <trkpt lat="61.121276" lon="13.303108">
        <ele>414.909</ele>
        <time>1970-01-01T01:00:00Z</time>
      </trkpt>
      <trkpt lat="61.121269" lon="13.303251">
        <ele>415.636</ele>
        <time>1970-01-01T01:00:00Z</time>
      </trkpt>
      <trkpt lat="61.121261" lon="13.303435">
        <ele>416.364</ele>
        <time>1970-01-01T01:00:00Z</time>
      </trkpt>
      <trkpt lat="61.121242" lon="13.30361">
        <ele>417.091</ele>
        <time>1970-01-01T01:00:00Z</time>
      </trkpt>
      <trkpt lat="61.121227" lon="13.303733">
        <ele>417.364</ele>
        <time>1970-01-01T01:00:00Z</time>
      </trkpt>
      <trkpt lat="61.121204" lon="13.303862">
        <ele>417.636</ele>
        <time>1970-01-01T01:00:00Z</time>
      </trkpt>
      <trkpt lat="61.1212" lon="13.303935">
        <ele>417.636</ele>
        <time>1970-01-01T01:00:00Z</time>
      </trkpt>
      <trkpt lat="61.121185" lon="13.304">
        <ele>417.909</ele>
        <time>1970-01-01T01:00:00Z</time>
      </trkpt>
      <trkpt lat="61.121173" lon="13.30408">
        <ele>418.182</ele>
        <time>1970-01-01T01:00:00Z</time>
      </trkpt>
      <trkpt lat="61.12115" lon="13.304198">
        <ele>418.455</ele>
        <time>1970-01-01T01:00:00Z</time>
      </trkpt>
      <trkpt lat="61.121147" lon="13.304221">
        <ele>418.727</ele>
        <time>1970-01-01T01:00:00Z</time>
      </trkpt>
      <trkpt lat="61.121143" lon="13.304295">
        <ele>419.364</ele>
        <time>1970-01-01T01:00:00Z</time>
      </trkpt>
      <trkpt lat="61.121101" lon="13.30443">
        <ele>419.727</ele>
        <time>1970-01-01T01:00:00Z</time>
      </trkpt>
      <trkpt lat="61.121055" lon="13.304546">
        <ele>420.091</ele>
        <time>1970-01-01T01:00:00Z</time>
      </trkpt>
      <trkpt lat="61.121055" lon="13.304559">
        <ele>420.455</ele>
        <time>1970-01-01T01:00:00Z</time>
      </trkpt>
      <trkpt lat="61.12104" lon="13.304649">
        <ele>420.818</ele>
        <time>1970-01-01T01:00:00Z</time>
      </trkpt>
      <trkpt lat="61.121021" lon="13.304723">
        <ele>421.182</ele>
        <time>1970-01-01T01:00:00Z</time>
      </trkpt>
      <trkpt lat="61.120998" lon="13.304794">
        <ele>421.545</ele>
        <time>1970-01-01T01:00:00Z</time>
      </trkpt>
      <trkpt lat="61.120979" lon="13.304862">
        <ele>421.909</ele>
        <time>1970-01-01T01:00:00Z</time>
      </trkpt>
      <trkpt lat="61.120952" lon="13.304938">
        <ele>422.273</ele>
        <time>1970-01-01T01:00:00Z</time>
      </trkpt>
      <trkpt lat="61.120933" lon="13.305047">
        <ele>422.636</ele>
        <time>1970-01-01T01:00:00Z</time>
      </trkpt>
      <trkpt lat="61.12091" lon="13.30511">
        <ele>423</ele>
        <time>1970-01-01T01:00:00Z</time>
      </trkpt>
      <trkpt lat="61.120868" lon="13.30521">
        <ele>423.455</ele>
        <time>1970-01-01T01:00:00Z</time>
      </trkpt>
      <trkpt lat="61.120845" lon="13.305266">
        <ele>423.909</ele>
        <time>1970-01-01T01:00:00Z</time>
      </trkpt>
      <trkpt lat="61.120815" lon="13.305365">
        <ele>424.364</ele>
        <time>1970-01-01T01:00:00Z</time>
      </trkpt>
      <trkpt lat="61.12078" lon="13.30543">
        <ele>424.818</ele>
        <time>1970-01-01T01:00:00Z</time>
      </trkpt>
      <trkpt lat="61.12075" lon="13.305486">
        <ele>425.273</ele>
        <time>1970-01-01T01:00:00Z</time>
      </trkpt>
      <trkpt lat="61.120731" lon="13.305543">
        <ele>425.727</ele>
        <time>1970-01-01T01:00:00Z</time>
      </trkpt>
      <trkpt lat="61.1207" lon="13.305618">
        <ele>426.182</ele>
        <time>1970-01-01T01:00:00Z</time>
      </trkpt>
      <trkpt lat="61.12067" lon="13.305681">
        <ele>426.636</ele>
        <time>1970-01-01T01:00:00Z</time>
      </trkpt>
      <trkpt lat="61.120655" lon="13.305722">
        <ele>427.091</ele>
        <time>1970-01-01T01:00:00Z</time>
      </trkpt>
      <trkpt lat="61.120616" lon="13.305842">
        <ele>427.545</ele>
        <time>1970-01-01T01:00:00Z</time>
      </trkpt>
      <trkpt lat="61.120594" lon="13.305916">
        <ele>428.364</ele>
        <time>1970-01-01T01:00:00Z</time>
      </trkpt>
      <trkpt lat="61.120574" lon="13.305961">
        <ele>428.727</ele>
        <time>1970-01-01T01:00:00Z</time>
      </trkpt>
      <trkpt lat="61.120567" lon="13.306023">
        <ele>429.091</ele>
        <time>1970-01-01T01:00:00Z</time>
      </trkpt>
      <trkpt lat="61.120552" lon="13.306116">
        <ele>429.364</ele>
        <time>1970-01-01T01:00:00Z</time>
      </trkpt>
      <trkpt lat="61.120536" lon="13.30624">
        <ele>429.636</ele>
        <time>1970-01-01T01:00:00Z</time>
      </trkpt>
      <trkpt lat="61.120498" lon="13.306426">
        <ele>429.909</ele>
        <time>1970-01-01T01:00:00Z</time>
      </trkpt>
      <trkpt lat="61.120475" lon="13.306551">
        <ele>430.545</ele>
        <time>1970-01-01T01:00:00Z</time>
      </trkpt>
      <trkpt lat="61.120449" lon="13.306657">
        <ele>431.182</ele>
        <time>1970-01-01T01:00:00Z</time>
      </trkpt>
      <trkpt lat="61.120414" lon="13.306838">
        <ele>431.818</ele>
        <time>1970-01-01T01:00:00Z</time>
      </trkpt>
      <trkpt lat="61.120399" lon="13.306968">
        <ele>432.455</ele>
        <time>1970-01-01T01:00:00Z</time>
      </trkpt>
      <trkpt lat="61.120368" lon="13.307139">
        <ele>433.091</ele>
        <time>1970-01-01T01:00:00Z</time>
      </trkpt>
      <trkpt lat="61.120353" lon="13.307276">
        <ele>433.364</ele>
        <time>1970-01-01T01:00:00Z</time>
      </trkpt>
      <trkpt lat="61.120349" lon="13.307343">
        <ele>433.636</ele>
        <time>1970-01-01T01:00:00Z</time>
      </trkpt>
      <trkpt lat="61.12033" lon="13.307583">
        <ele>434.273</ele>
        <time>1970-01-01T01:00:00Z</time>
      </trkpt>
      <trkpt lat="61.120346" lon="13.307705">
        <ele>435</ele>
        <time>1970-01-01T01:00:00Z</time>
      </trkpt>
      <trkpt lat="61.120307" lon="13.307793">
        <ele>435.727</ele>
        <time>1970-01-01T01:00:00Z</time>
      </trkpt>
      <trkpt lat="61.120288" lon="13.307837">
        <ele>436.455</ele>
        <time>1970-01-01T01:00:00Z</time>
      </trkpt>
      <trkpt lat="61.120262" lon="13.307929">
        <ele>436.818</ele>
        <time>1970-01-01T01:00:00Z</time>
      </trkpt>
      <trkpt lat="61.120239" lon="13.308075">
        <ele>437.182</ele>
        <time>1970-01-01T01:00:00Z</time>
      </trkpt>
      <trkpt lat="61.120227" lon="13.308156">
        <ele>437.818</ele>
        <time>1970-01-01T01:00:00Z</time>
      </trkpt>
      <trkpt lat="61.120189" lon="13.308304">
        <ele>438.455</ele>
        <time>1970-01-01T01:00:00Z</time>
      </trkpt>
      <trkpt lat="61.120174" lon="13.30838">
        <ele>439.091</ele>
        <time>1970-01-01T01:00:00Z</time>
      </trkpt>
      <trkpt lat="61.120143" lon="13.308527">
        <ele>439.727</ele>
        <time>1970-01-01T01:00:00Z</time>
      </trkpt>
      <trkpt lat="61.120113" lon="13.308702">
        <ele>440.364</ele>
        <time>1970-01-01T01:00:00Z</time>
      </trkpt>
      <trkpt lat="61.12009" lon="13.308818">
        <ele>440.636</ele>
        <time>1970-01-01T01:00:00Z</time>
      </trkpt>
      <trkpt lat="61.120086" lon="13.30885">
        <ele>440.909</ele>
        <time>1970-01-01T01:00:00Z</time>
      </trkpt>
      <trkpt lat="61.120071" lon="13.308986">
        <ele>441.545</ele>
        <time>1970-01-01T01:00:00Z</time>
      </trkpt>
      <trkpt lat="61.120063" lon="13.309144">
        <ele>442.182</ele>
        <time>1970-01-01T01:00:00Z</time>
      </trkpt>
      <trkpt lat="61.120059" lon="13.309312">
        <ele>442.818</ele>
        <time>1970-01-01T01:00:00Z</time>
      </trkpt>
      <trkpt lat="61.120048" lon="13.309418">
        <ele>443.455</ele>
        <time>1970-01-01T01:00:00Z</time>
      </trkpt>
      <trkpt lat="61.120052" lon="13.309546">
        <ele>443.818</ele>
        <time>1970-01-01T01:00:00Z</time>
      </trkpt>
      <trkpt lat="61.120056" lon="13.309694">
        <ele>444.182</ele>
        <time>1970-01-01T01:00:00Z</time>
      </trkpt>
      <trkpt lat="61.120059" lon="13.3098">
        <ele>444.545</ele>
        <time>1970-01-01T01:00:00Z</time>
      </trkpt>
      <trkpt lat="61.120056" lon="13.309959">
        <ele>445.273</ele>
        <time>1970-01-01T01:00:00Z</time>
      </trkpt>
      <trkpt lat="61.120048" lon="13.309999">
        <ele>446</ele>
        <time>1970-01-01T01:00:00Z</time>
      </trkpt>
      <trkpt lat="61.120025" lon="13.31023">
        <ele>446.727</ele>
        <time>1970-01-01T01:00:00Z</time>
      </trkpt>
      <trkpt lat="61.120006" lon="13.310359">
        <ele>447.455</ele>
        <time>1970-01-01T01:00:00Z</time>
      </trkpt>
      <trkpt lat="61.120002" lon="13.310457">
        <ele>447.818</ele>
        <time>1970-01-01T01:00:00Z</time>
      </trkpt>
      <trkpt lat="61.119976" lon="13.310643">
        <ele>448.182</ele>
        <time>1970-01-01T01:00:00Z</time>
      </trkpt>
      <trkpt lat="61.119964" lon="13.310741">
        <ele>448.545</ele>
        <time>1970-01-01T01:00:00Z</time>
      </trkpt>
      <trkpt lat="61.119964" lon="13.310771">
        <ele>448.909</ele>
        <time>1970-01-01T01:00:00Z</time>
      </trkpt>
      <trkpt lat="61.119964" lon="13.31092">
        <ele>449.636</ele>
        <time>1970-01-01T01:00:00Z</time>
      </trkpt>
      <trkpt lat="61.119964" lon="13.310941">
        <ele>450.364</ele>
        <time>1970-01-01T01:00:00Z</time>
      </trkpt>
      <trkpt lat="61.119968" lon="13.310998">
        <ele>451.091</ele>
        <time>1970-01-01T01:00:00Z</time>
      </trkpt>
      <trkpt lat="61.119964" lon="13.311066">
        <ele>451.455</ele>
        <time>1970-01-01T01:00:00Z</time>
      </trkpt>
      <trkpt lat="61.119949" lon="13.311232">
        <ele>451.818</ele>
        <time>1970-01-01T01:00:00Z</time>
      </trkpt>
      <trkpt lat="61.11993" lon="13.311425">
        <ele>452.182</ele>
        <time>1970-01-01T01:00:00Z</time>
      </trkpt>
      <trkpt lat="61.119903" lon="13.311627">
        <ele>453</ele>
        <time>1970-01-01T01:00:00Z</time>
      </trkpt>
      <trkpt lat="61.119895" lon="13.311717">
        <ele>453.818</ele>
        <time>1970-01-01T01:00:00Z</time>
      </trkpt>
      <trkpt lat="61.119892" lon="13.311766">
        <ele>454.636</ele>
        <time>1970-01-01T01:00:00Z</time>
      </trkpt>
      <trkpt lat="61.11988" lon="13.311821">
        <ele>455.455</ele>
        <time>1970-01-01T01:00:00Z</time>
      </trkpt>
      <trkpt lat="61.119857" lon="13.312043">
        <ele>456.273</ele>
        <time>1970-01-01T01:00:00Z</time>
      </trkpt>
      <trkpt lat="61.11985" lon="13.312134">
        <ele>456.909</ele>
        <time>1970-01-01T01:00:00Z</time>
      </trkpt>
      <trkpt lat="61.119846" lon="13.312282">
        <ele>457.545</ele>
        <time>1970-01-01T01:00:00Z</time>
      </trkpt>
      <trkpt lat="61.119831" lon="13.31248">
        <ele>458.182</ele>
        <time>1970-01-01T01:00:00Z</time>
      </trkpt>
      <trkpt lat="61.119823" lon="13.312592">
        <ele>458.818</ele>
        <time>1970-01-01T01:00:00Z</time>
      </trkpt>
      <trkpt lat="61.119838" lon="13.312787">
        <ele>459.455</ele>
        <time>1970-01-01T01:00:00Z</time>
      </trkpt>
      <trkpt lat="61.119865" lon="13.312972">
        <ele>460.091</ele>
        <time>1970-01-01T01:00:00Z</time>
      </trkpt>
      <trkpt lat="61.11988" lon="13.313083">
        <ele>460.545</ele>
        <time>1970-01-01T01:00:00Z</time>
      </trkpt>
      <trkpt lat="61.119899" lon="13.313299">
        <ele>461</ele>
        <time>1970-01-01T01:00:00Z</time>
      </trkpt>
      <trkpt lat="61.119926" lon="13.313527">
        <ele>461.455</ele>
        <time>1970-01-01T01:00:00Z</time>
      </trkpt>
      <trkpt lat="61.119934" lon="13.31373">
        <ele>461.909</ele>
        <time>1970-01-01T01:00:00Z</time>
      </trkpt>
      <trkpt lat="61.119937" lon="13.313862">
        <ele>462.364</ele>
        <time>1970-01-01T01:00:00Z</time>
      </trkpt>
      <trkpt lat="61.119956" lon="13.314051">
        <ele>463.091</ele>
        <time>1970-01-01T01:00:00Z</time>
      </trkpt>
      <trkpt lat="61.119995" lon="13.314229">
        <ele>463.818</ele>
        <time>1970-01-01T01:00:00Z</time>
      </trkpt>
      <trkpt lat="61.120037" lon="13.31438">
        <ele>464.545</ele>
        <time>1970-01-01T01:00:00Z</time>
      </trkpt>
      <trkpt lat="61.120079" lon="13.314529">
        <ele>465.273</ele>
        <time>1970-01-01T01:00:00Z</time>
      </trkpt>
      <trkpt lat="61.120094" lon="13.314646">
        <ele>466.455</ele>
        <time>1970-01-01T01:00:00Z</time>
      </trkpt>
      <trkpt lat="61.120105" lon="13.314809">
        <ele>467.636</ele>
        <time>1970-01-01T01:00:00Z</time>
      </trkpt>
      <trkpt lat="61.120121" lon="13.315079">
        <ele>468.545</ele>
        <time>1970-01-01T01:00:00Z</time>
      </trkpt>
      <trkpt lat="61.120132" lon="13.315206">
        <ele>469.455</ele>
        <time>1970-01-01T01:00:00Z</time>
      </trkpt>
      <trkpt lat="61.120159" lon="13.315411">
        <ele>470.364</ele>
        <time>1970-01-01T01:00:00Z</time>
      </trkpt>
      <trkpt lat="61.120174" lon="13.315602">
        <ele>471.273</ele>
        <time>1970-01-01T01:00:00Z</time>
      </trkpt>
      <trkpt lat="61.120166" lon="13.315814">
        <ele>472.545</ele>
        <time>1970-01-01T01:00:00Z</time>
      </trkpt>
      <trkpt lat="61.120166" lon="13.315861">
        <ele>473.364</ele>
        <time>1970-01-01T01:00:00Z</time>
      </trkpt>
      <trkpt lat="61.12017" lon="13.31613">
        <ele>474.182</ele>
        <time>1970-01-01T01:00:00Z</time>
      </trkpt>
      <trkpt lat="61.120166" lon="13.316246">
        <ele>475</ele>
        <time>1970-01-01T01:00:00Z</time>
      </trkpt>
      <trkpt lat="61.120166" lon="13.316267">
        <ele>475.818</ele>
        <time>1970-01-01T01:00:00Z</time>
      </trkpt>
      <trkpt lat="61.120166" lon="13.316461">
        <ele>476.182</ele>
        <time>1970-01-01T01:00:00Z</time>
      </trkpt>
      <trkpt lat="61.120162" lon="13.316546">
        <ele>477.091</ele>
        <time>1970-01-01T01:00:00Z</time>
      </trkpt>
      <trkpt lat="61.120174" lon="13.316722">
        <ele>478</ele>
        <time>1970-01-01T01:00:00Z</time>
      </trkpt>
      <trkpt lat="61.120197" lon="13.316929">
        <ele>478.909</ele>
        <time>1970-01-01T01:00:00Z</time>
      </trkpt>
      <trkpt lat="61.120216" lon="13.317066">
        <ele>479.818</ele>
        <time>1970-01-01T01:00:00Z</time>
      </trkpt>
      <trkpt lat="61.120243" lon="13.317147">
        <ele>480.727</ele>
        <time>1970-01-01T01:00:00Z</time>
      </trkpt>
      <trkpt lat="61.120281" lon="13.317283">
        <ele>481.364</ele>
        <time>1970-01-01T01:00:00Z</time>
      </trkpt>
      <trkpt lat="61.120288" lon="13.317314">
        <ele>482</ele>
        <time>1970-01-01T01:00:00Z</time>
      </trkpt>
      <trkpt lat="61.120353" lon="13.317482">
        <ele>483.273</ele>
        <time>1970-01-01T01:00:00Z</time>
      </trkpt>
      <trkpt lat="61.120403" lon="13.317615">
        <ele>484.545</ele>
        <time>1970-01-01T01:00:00Z</time>
      </trkpt>
      <trkpt lat="61.120445" lon="13.317718">
        <ele>485.818</ele>
        <time>1970-01-01T01:00:00Z</time>
      </trkpt>
      <trkpt lat="61.120471" lon="13.317767">
        <ele>487.091</ele>
        <time>1970-01-01T01:00:00Z</time>
      </trkpt>
      <trkpt lat="61.120517" lon="13.317843">
        <ele>487.818</ele>
        <time>1970-01-01T01:00:00Z</time>
      </trkpt>
      <trkpt lat="61.12062" lon="13.318041">
        <ele>488.545</ele>
        <time>1970-01-01T01:00:00Z</time>
      </trkpt>
      <trkpt lat="61.120677" lon="13.318175">
        <ele>489.818</ele>
        <time>1970-01-01T01:00:00Z</time>
      </trkpt>
      <trkpt lat="61.120738" lon="13.3183">
        <ele>491.091</ele>
        <time>1970-01-01T01:00:00Z</time>
      </trkpt>
      <trkpt lat="61.120773" lon="13.318385">
        <ele>492.364</ele>
        <time>1970-01-01T01:00:00Z</time>
      </trkpt>
      <trkpt lat="61.12083" lon="13.318561">
        <ele>493.545</ele>
        <time>1970-01-01T01:00:00Z</time>
      </trkpt>
      <trkpt lat="61.120872" lon="13.318759">
        <ele>494.727</ele>
        <time>1970-01-01T01:00:00Z</time>
      </trkpt>
      <trkpt lat="61.120903" lon="13.318887">
        <ele>495.273</ele>
        <time>1970-01-01T01:00:00Z</time>
      </trkpt>
      <trkpt lat="61.120937" lon="13.31907">
        <ele>496.091</ele>
        <time>1970-01-01T01:00:00Z</time>
      </trkpt>
      <trkpt lat="61.120941" lon="13.3191">
        <ele>496.909</ele>
        <time>1970-01-01T01:00:00Z</time>
      </trkpt>
      <trkpt lat="61.120967" lon="13.319268">
        <ele>497.727</ele>
        <time>1970-01-01T01:00:00Z</time>
      </trkpt>
      <trkpt lat="61.121013" lon="13.31945">
        <ele>498.545</ele>
        <time>1970-01-01T01:00:00Z</time>
      </trkpt>
      <trkpt lat="61.121047" lon="13.319613">
        <ele>499.364</ele>
        <time>1970-01-01T01:00:00Z</time>
      </trkpt>
      <trkpt lat="61.12107" lon="13.31971">
        <ele>499.818</ele>
        <time>1970-01-01T01:00:00Z</time>
      </trkpt>
      <trkpt lat="61.121086" lon="13.319778">
        <ele>500.273</ele>
        <time>1970-01-01T01:00:00Z</time>
      </trkpt>
      <trkpt lat="61.121112" lon="13.319933">
        <ele>500.727</ele>
        <time>1970-01-01T01:00:00Z</time>
      </trkpt>
      <trkpt lat="61.121143" lon="13.320058">
        <ele>501.182</ele>
        <time>1970-01-01T01:00:00Z</time>
      </trkpt>
      <trkpt lat="61.121173" lon="13.320251">
        <ele>501.636</ele>
        <time>1970-01-01T01:00:00Z</time>
      </trkpt>
      <trkpt lat="61.121181" lon="13.320486">
        <ele>502.091</ele>
        <time>1970-01-01T01:00:00Z</time>
      </trkpt>
      <trkpt lat="61.12117" lon="13.320677">
        <ele>502.455</ele>
        <time>1970-01-01T01:00:00Z</time>
      </trkpt>
      <trkpt lat="61.121204" lon="13.320819">
        <ele>502.818</ele>
        <time>1970-01-01T01:00:00Z</time>
      </trkpt>
      <trkpt lat="61.121212" lon="13.320852">
        <ele>503.182</ele>
        <time>1970-01-01T01:00:00Z</time>
      </trkpt>
      <trkpt lat="61.121231" lon="13.32112">
        <ele>503.545</ele>
        <time>1970-01-01T01:00:00Z</time>
      </trkpt>
      <trkpt lat="61.121234" lon="13.321269">
        <ele>504.091</ele>
        <time>1970-01-01T01:00:00Z</time>
      </trkpt>
      <trkpt lat="61.121295" lon="13.321518">
        <ele>504.455</ele>
        <time>1970-01-01T01:00:00Z</time>
      </trkpt>
      <trkpt lat="61.121341" lon="13.321637">
        <ele>504.818</ele>
        <time>1970-01-01T01:00:00Z</time>
      </trkpt>
      <trkpt lat="61.121368" lon="13.321927">
        <ele>505.182</ele>
        <time>1970-01-01T01:00:00Z</time>
      </trkpt>
      <trkpt lat="61.121372" lon="13.321969">
        <ele>505.727</ele>
        <time>1970-01-01T01:00:00Z</time>
      </trkpt>
      <trkpt lat="61.121417" lon="13.32226">
        <ele>506.273</ele>
        <time>1970-01-01T01:00:00Z</time>
      </trkpt>
      <trkpt lat="61.121429" lon="13.322304">
        <ele>506.818</ele>
        <time>1970-01-01T01:00:00Z</time>
      </trkpt>
      <trkpt lat="61.121459" lon="13.322534">
        <ele>507.182</ele>
        <time>1970-01-01T01:00:00Z</time>
      </trkpt>
      <trkpt lat="61.121459" lon="13.322587">
        <ele>507.727</ele>
        <time>1970-01-01T01:00:00Z</time>
      </trkpt>
      <trkpt lat="61.12149" lon="13.322933">
        <ele>508.273</ele>
        <time>1970-01-01T01:00:00Z</time>
      </trkpt>
      <trkpt lat="61.121532" lon="13.323262">
        <ele>509</ele>
        <time>1970-01-01T01:00:00Z</time>
      </trkpt>
      <trkpt lat="61.121562" lon="13.323584">
        <ele>509.545</ele>
        <time>1970-01-01T01:00:00Z</time>
      </trkpt>
      <trkpt lat="61.12157" lon="13.323745">
        <ele>510.273</ele>
        <time>1970-01-01T01:00:00Z</time>
      </trkpt>
      <trkpt lat="61.121578" lon="13.32409">
        <ele>511</ele>
        <time>1970-01-01T01:00:00Z</time>
      </trkpt>
      <trkpt lat="61.121582" lon="13.324482">
        <ele>511.727</ele>
        <time>1970-01-01T01:00:00Z</time>
      </trkpt>
      <trkpt lat="61.121639" lon="13.324889">
        <ele>512.273</ele>
        <time>1970-01-01T01:00:00Z</time>
      </trkpt>
      <trkpt lat="61.121704" lon="13.32516">
        <ele>512.909</ele>
        <time>1970-01-01T01:00:00Z</time>
      </trkpt>
      <trkpt lat="61.12181" lon="13.325526">
        <ele>513.545</ele>
        <time>1970-01-01T01:00:00Z</time>
      </trkpt>
      <trkpt lat="61.121875" lon="13.325868">
        <ele>514.182</ele>
        <time>1970-01-01T01:00:00Z</time>
      </trkpt>
      <trkpt lat="61.121952" lon="13.326005">
        <ele>514.727</ele>
        <time>1970-01-01T01:00:00Z</time>
      </trkpt>
      <trkpt lat="61.122035" lon="13.326197">
        <ele>515.273</ele>
        <time>1970-01-01T01:00:00Z</time>
      </trkpt>
      <trkpt lat="61.122173" lon="13.32652">
        <ele>515.727</ele>
        <time>1970-01-01T01:00:00Z</time>
      </trkpt>
      <trkpt lat="61.12228" lon="13.326818">
        <ele>516.182</ele>
        <time>1970-01-01T01:00:00Z</time>
      </trkpt>
      <trkpt lat="61.122348" lon="13.327084">
        <ele>516.455</ele>
        <time>1970-01-01T01:00:00Z</time>
      </trkpt>
      <trkpt lat="61.122451" lon="13.327317">
        <ele>516.727</ele>
        <time>1970-01-01T01:00:00Z</time>
      </trkpt>
      <trkpt lat="61.122493" lon="13.327606">
        <ele>517</ele>
        <time>1970-01-01T01:00:00Z</time>
      </trkpt>
      <trkpt lat="61.122558" lon="13.328014">
        <ele>517.182</ele>
        <time>1970-01-01T01:00:00Z</time>
      </trkpt>
      <trkpt lat="61.122585" lon="13.328119">
        <ele>517.273</ele>
        <time>1970-01-01T01:00:00Z</time>
      </trkpt>
      <trkpt lat="61.122657" lon="13.328307">
        <ele>517.364</ele>
        <time>1970-01-01T01:00:00Z</time>
      </trkpt>
      <trkpt lat="61.122787" lon="13.328462">
        <ele>517.455</ele>
        <time>1970-01-01T01:00:00Z</time>
      </trkpt>
      <trkpt lat="61.122955" lon="13.328502">
        <ele>517.455</ele>
        <time>1970-01-01T01:00:00Z</time>
      </trkpt>
      <trkpt lat="61.122997" lon="13.328507">
        <ele>517.455</ele>
        <time>1970-01-01T01:00:00Z</time>
      </trkpt>
      <trkpt lat="61.123073" lon="13.32853">
        <ele>517.273</ele>
        <time>1970-01-01T01:00:00Z</time>
      </trkpt>
      <trkpt lat="61.123226" lon="13.328557">
        <ele>517.091</ele>
        <time>1970-01-01T01:00:00Z</time>
      </trkpt>
      <trkpt lat="61.123413" lon="13.32865">
        <ele>516.909</ele>
        <time>1970-01-01T01:00:00Z</time>
      </trkpt>
      <trkpt lat="61.123508" lon="13.328707">
        <ele>516.727</ele>
        <time>1970-01-01T01:00:00Z</time>
      </trkpt>
      <trkpt lat="61.123664" lon="13.32874">
        <ele>516.545</ele>
        <time>1970-01-01T01:00:00Z</time>
      </trkpt>
      <trkpt lat="61.123912" lon="13.328939">
        <ele>516.364</ele>
        <time>1970-01-01T01:00:00Z</time>
      </trkpt>
      <trkpt lat="61.124099" lon="13.328927">
        <ele>516.091</ele>
        <time>1970-01-01T01:00:00Z</time>
      </trkpt>
      <trkpt lat="61.124149" lon="13.32893">
        <ele>515.818</ele>
        <time>1970-01-01T01:00:00Z</time>
      </trkpt>
      <trkpt lat="61.124244" lon="13.328943">
        <ele>515.545</ele>
        <time>1970-01-01T01:00:00Z</time>
      </trkpt>
      <trkpt lat="61.124469" lon="13.328833">
        <ele>515.273</ele>
        <time>1970-01-01T01:00:00Z</time>
      </trkpt>
      <trkpt lat="61.124561" lon="13.328786">
        <ele>515</ele>
        <time>1970-01-01T01:00:00Z</time>
      </trkpt>
      <trkpt lat="61.124675" lon="13.328743">
        <ele>514.909</ele>
        <time>1970-01-01T01:00:00Z</time>
      </trkpt>
      <trkpt lat="61.12471" lon="13.328726">
        <ele>514.727</ele>
        <time>1970-01-01T01:00:00Z</time>
      </trkpt>
      <trkpt lat="61.124889" lon="13.328657">
        <ele>514.545</ele>
        <time>1970-01-01T01:00:00Z</time>
      </trkpt>
      <trkpt lat="61.12503" lon="13.328667">
        <ele>514.364</ele>
        <time>1970-01-01T01:00:00Z</time>
      </trkpt>
      <trkpt lat="61.125209" lon="13.328743">
        <ele>514.182</ele>
        <time>1970-01-01T01:00:00Z</time>
      </trkpt>
      <trkpt lat="61.125408" lon="13.328934">
        <ele>514.091</ele>
        <time>1970-01-01T01:00:00Z</time>
      </trkpt>
      <trkpt lat="61.125583" lon="13.329089">
        <ele>514.091</ele>
        <time>1970-01-01T01:00:00Z</time>
      </trkpt>
      <trkpt lat="61.125747" lon="13.32926">
        <ele>514.091</ele>
        <time>1970-01-01T01:00:00Z</time>
      </trkpt>
      <trkpt lat="61.125782" lon="13.329279">
        <ele>514.091</ele>
        <time>1970-01-01T01:00:00Z</time>
      </trkpt>
      <trkpt lat="61.125915" lon="13.329379">
        <ele>514.091</ele>
        <time>1970-01-01T01:00:00Z</time>
      </trkpt>
      <trkpt lat="61.126064" lon="13.329433">
        <ele>514.091</ele>
        <time>1970-01-01T01:00:00Z</time>
      </trkpt>
      <trkpt lat="61.126174" lon="13.329544">
        <ele>514.091</ele>
        <time>1970-01-01T01:00:00Z</time>
      </trkpt>
      <trkpt lat="61.126296" lon="13.329715">
        <ele>514.182</ele>
        <time>1970-01-01T01:00:00Z</time>
      </trkpt>
      <trkpt lat="61.126399" lon="13.329896">
        <ele>514.273</ele>
        <time>1970-01-01T01:00:00Z</time>
      </trkpt>
      <trkpt lat="61.12648" lon="13.330057">
        <ele>514.455</ele>
        <time>1970-01-01T01:00:00Z</time>
      </trkpt>
      <trkpt lat="61.126567" lon="13.330308">
        <ele>514.636</ele>
        <time>1970-01-01T01:00:00Z</time>
      </trkpt>
      <trkpt lat="61.126609" lon="13.330499">
        <ele>514.818</ele>
        <time>1970-01-01T01:00:00Z</time>
      </trkpt>
      <trkpt lat="61.12667" lon="13.330762">
        <ele>515</ele>
        <time>1970-01-01T01:00:00Z</time>
      </trkpt>
      <trkpt lat="61.126735" lon="13.331052">
        <ele>515.091</ele>
        <time>1970-01-01T01:00:00Z</time>
      </trkpt>
      <trkpt lat="61.1268" lon="13.331336">
        <ele>515.182</ele>
        <time>1970-01-01T01:00:00Z</time>
      </trkpt>
      <trkpt lat="61.126857" lon="13.331534">
        <ele>515.273</ele>
        <time>1970-01-01T01:00:00Z</time>
      </trkpt>
      <trkpt lat="61.126941" lon="13.331782">
        <ele>515.364</ele>
        <time>1970-01-01T01:00:00Z</time>
      </trkpt>
      <trkpt lat="61.127059" lon="13.331978">
        <ele>515.364</ele>
        <time>1970-01-01T01:00:00Z</time>
      </trkpt>
      <trkpt lat="61.127151" lon="13.332074">
        <ele>515.364</ele>
        <time>1970-01-01T01:00:00Z</time>
      </trkpt>
      <trkpt lat="61.127273" lon="13.332092">
        <ele>515.364</ele>
        <time>1970-01-01T01:00:00Z</time>
      </trkpt>
      <trkpt lat="61.127346" lon="13.332036">
        <ele>515.273</ele>
        <time>1970-01-01T01:00:00Z</time>
      </trkpt>
      <trkpt lat="61.127521" lon="13.331908">
        <ele>515.182</ele>
        <time>1970-01-01T01:00:00Z</time>
      </trkpt>
      <trkpt lat="61.127658" lon="13.331768">
        <ele>515.091</ele>
        <time>1970-01-01T01:00:00Z</time>
      </trkpt>
      <trkpt lat="61.127841" lon="13.331623">
        <ele>515</ele>
        <time>1970-01-01T01:00:00Z</time>
      </trkpt>
      <trkpt lat="61.127902" lon="13.331566">
        <ele>515</ele>
        <time>1970-01-01T01:00:00Z</time>
      </trkpt>
      <trkpt lat="61.128067" lon="13.331516">
        <ele>515</ele>
        <time>1970-01-01T01:00:00Z</time>
      </trkpt>
      <trkpt lat="61.128185" lon="13.331488">
        <ele>515</ele>
        <time>1970-01-01T01:00:00Z</time>
      </trkpt>
      <trkpt lat="61.12833" lon="13.331492">
        <ele>515</ele>
        <time>1970-01-01T01:00:00Z</time>
      </trkpt>
      <trkpt lat="61.128417" lon="13.331468">
        <ele>515</ele>
        <time>1970-01-01T01:00:00Z</time>
      </trkpt>
      <trkpt lat="61.12857" lon="13.331422">
        <ele>515</ele>
        <time>1970-01-01T01:00:00Z</time>
      </trkpt>
      <trkpt lat="61.128681" lon="13.331404">
        <ele>515.091</ele>
        <time>1970-01-01T01:00:00Z</time>
      </trkpt>
      <trkpt lat="61.128803" lon="13.331466">
        <ele>515.182</ele>
        <time>1970-01-01T01:00:00Z</time>
      </trkpt>
      <trkpt lat="61.128913" lon="13.331612">
        <ele>515.273</ele>
        <time>1970-01-01T01:00:00Z</time>
      </trkpt>
      <trkpt lat="61.129039" lon="13.331842">
        <ele>515.364</ele>
        <time>1970-01-01T01:00:00Z</time>
      </trkpt>
      <trkpt lat="61.129085" lon="13.331956">
        <ele>515.455</ele>
        <time>1970-01-01T01:00:00Z</time>
      </trkpt>
      <trkpt lat="61.129188" lon="13.332168">
        <ele>515.636</ele>
        <time>1970-01-01T01:00:00Z</time>
      </trkpt>
      <trkpt lat="61.129295" lon="13.33239">
        <ele>515.818</ele>
        <time>1970-01-01T01:00:00Z</time>
      </trkpt>
      <trkpt lat="61.129405" lon="13.332586">
        <ele>516</ele>
        <time>1970-01-01T01:00:00Z</time>
      </trkpt>
      <trkpt lat="61.129493" lon="13.332773">
        <ele>516.182</ele>
        <time>1970-01-01T01:00:00Z</time>
      </trkpt>
      <trkpt lat="61.129592" lon="13.332932">
        <ele>516.364</ele>
        <time>1970-01-01T01:00:00Z</time>
      </trkpt>
      <trkpt lat="61.129692" lon="13.333112">
        <ele>516.545</ele>
        <time>1970-01-01T01:00:00Z</time>
      </trkpt>
      <trkpt lat="61.129779" lon="13.333293">
        <ele>516.636</ele>
        <time>1970-01-01T01:00:00Z</time>
      </trkpt>
      <trkpt lat="61.129856" lon="13.333462">
        <ele>516.727</ele>
        <time>1970-01-01T01:00:00Z</time>
      </trkpt>
      <trkpt lat="61.12992" lon="13.333633">
        <ele>516.909</ele>
        <time>1970-01-01T01:00:00Z</time>
      </trkpt>
      <trkpt lat="61.129985" lon="13.333807">
        <ele>517.091</ele>
        <time>1970-01-01T01:00:00Z</time>
      </trkpt>
      <trkpt lat="61.130073" lon="13.334054">
        <ele>517.364</ele>
        <time>1970-01-01T01:00:00Z</time>
      </trkpt>
      <trkpt lat="61.130126" lon="13.334248">
        <ele>517.545</ele>
        <time>1970-01-01T01:00:00Z</time>
      </trkpt>
      <trkpt lat="61.130207" lon="13.334446">
        <ele>517.727</ele>
        <time>1970-01-01T01:00:00Z</time>
      </trkpt>
      <trkpt lat="61.130287" lon="13.334734">
        <ele>517.909</ele>
        <time>1970-01-01T01:00:00Z</time>
      </trkpt>
      <trkpt lat="61.130386" lon="13.335053">
        <ele>518.091</ele>
        <time>1970-01-01T01:00:00Z</time>
      </trkpt>
      <trkpt lat="61.130462" lon="13.335346">
        <ele>518.273</ele>
        <time>1970-01-01T01:00:00Z</time>
      </trkpt>
      <trkpt lat="61.130489" lon="13.335554">
        <ele>518.455</ele>
        <time>1970-01-01T01:00:00Z</time>
      </trkpt>
      <trkpt lat="61.130512" lon="13.3359">
        <ele>518.636</ele>
        <time>1970-01-01T01:00:00Z</time>
      </trkpt>
      <trkpt lat="61.130508" lon="13.336193">
        <ele>518.818</ele>
        <time>1970-01-01T01:00:00Z</time>
      </trkpt>
      <trkpt lat="61.130512" lon="13.336355">
        <ele>518.909</ele>
        <time>1970-01-01T01:00:00Z</time>
      </trkpt>
      <trkpt lat="61.130489" lon="13.336832">
        <ele>519.091</ele>
        <time>1970-01-01T01:00:00Z</time>
      </trkpt>
      <trkpt lat="61.130432" lon="13.337655">
        <ele>519.182</ele>
        <time>1970-01-01T01:00:00Z</time>
      </trkpt>
      <trkpt lat="61.130382" lon="13.338113">
        <ele>519.273</ele>
        <time>1970-01-01T01:00:00Z</time>
      </trkpt>
      <trkpt lat="61.130359" lon="13.338398">
        <ele>519.364</ele>
        <time>1970-01-01T01:00:00Z</time>
      </trkpt>
      <trkpt lat="61.130332" lon="13.338693">
        <ele>519.455</ele>
        <time>1970-01-01T01:00:00Z</time>
      </trkpt>
      <trkpt lat="61.130397" lon="13.339165">
        <ele>519.545</ele>
        <time>1970-01-01T01:00:00Z</time>
      </trkpt>
      <trkpt lat="61.130424" lon="13.339274">
        <ele>519.636</ele>
        <time>1970-01-01T01:00:00Z</time>
      </trkpt>
      <trkpt lat="61.130527" lon="13.33989">
        <ele>519.727</ele>
        <time>1970-01-01T01:00:00Z</time>
      </trkpt>
      <trkpt lat="61.130569" lon="13.340243">
        <ele>519.818</ele>
        <time>1970-01-01T01:00:00Z</time>
      </trkpt>
      <trkpt lat="61.130611" lon="13.340577">
        <ele>519.909</ele>
        <time>1970-01-01T01:00:00Z</time>
      </trkpt>
      <trkpt lat="61.130634" lon="13.341169">
        <ele>520</ele>
        <time>1970-01-01T01:00:00Z</time>
      </trkpt>
      <trkpt lat="61.130676" lon="13.341579">
        <ele>520</ele>
        <time>1970-01-01T01:00:00Z</time>
      </trkpt>
      <trkpt lat="61.130691" lon="13.341687">
        <ele>520</ele>
        <time>1970-01-01T01:00:00Z</time>
      </trkpt>
      <trkpt lat="61.130805" lon="13.342192">
        <ele>520</ele>
        <time>1970-01-01T01:00:00Z</time>
      </trkpt>
      <trkpt lat="61.130897" lon="13.342393">
        <ele>520</ele>
        <time>1970-01-01T01:00:00Z</time>
      </trkpt>
      <trkpt lat="61.131015" lon="13.342607">
        <ele>520</ele>
        <time>1970-01-01T01:00:00Z</time>
      </trkpt>
      <trkpt lat="61.13116" lon="13.342846">
        <ele>520</ele>
        <time>1970-01-01T01:00:00Z</time>
      </trkpt>
      <trkpt lat="61.131298" lon="13.343173">
        <ele>520</ele>
        <time>1970-01-01T01:00:00Z</time>
      </trkpt>
      <trkpt lat="61.131355" lon="13.343278">
        <ele>520</ele>
        <time>1970-01-01T01:00:00Z</time>
      </trkpt>
      <trkpt lat="61.131481" lon="13.343372">
        <ele>520</ele>
        <time>1970-01-01T01:00:00Z</time>
      </trkpt>
      <trkpt lat="61.131603" lon="13.343415">
        <ele>520</ele>
        <time>1970-01-01T01:00:00Z</time>
      </trkpt>
      <trkpt lat="61.131683" lon="13.343462">
        <ele>520</ele>
        <time>1970-01-01T01:00:00Z</time>
      </trkpt>
      <trkpt lat="61.131797" lon="13.343676">
        <ele>520</ele>
        <time>1970-01-01T01:00:00Z</time>
      </trkpt>
      <trkpt lat="61.131881" lon="13.344017">
        <ele>520</ele>
        <time>1970-01-01T01:00:00Z</time>
      </trkpt>
      <trkpt lat="61.131919" lon="13.344183">
        <ele>520</ele>
        <time>1970-01-01T01:00:00Z</time>
      </trkpt>
      <trkpt lat="61.132022" lon="13.344455">
        <ele>520</ele>
        <time>1970-01-01T01:00:00Z</time>
      </trkpt>
      <trkpt lat="61.132141" lon="13.344708">
        <ele>520</ele>
        <time>1970-01-01T01:00:00Z</time>
      </trkpt>
      <trkpt lat="61.132282" lon="13.345047">
        <ele>520</ele>
        <time>1970-01-01T01:00:00Z</time>
      </trkpt>
      <trkpt lat="61.132411" lon="13.345311">
        <ele>519.909</ele>
        <time>1970-01-01T01:00:00Z</time>
      </trkpt>
      <trkpt lat="61.132476" lon="13.34545">
        <ele>519.818</ele>
        <time>1970-01-01T01:00:00Z</time>
      </trkpt>
      <trkpt lat="61.132579" lon="13.345744">
        <ele>519.727</ele>
        <time>1970-01-01T01:00:00Z</time>
      </trkpt>
      <trkpt lat="61.132617" lon="13.345843">
        <ele>519.636</ele>
        <time>1970-01-01T01:00:00Z</time>
      </trkpt>
      <trkpt lat="61.13272" lon="13.346223">
        <ele>519.455</ele>
        <time>1970-01-01T01:00:00Z</time>
      </trkpt>
      <trkpt lat="61.132843" lon="13.346535">
        <ele>519.273</ele>
        <time>1970-01-01T01:00:00Z</time>
      </trkpt>
      <trkpt lat="61.132926" lon="13.346724">
        <ele>519</ele>
        <time>1970-01-01T01:00:00Z</time>
      </trkpt>
      <trkpt lat="61.132999" lon="13.346986">
        <ele>518.727</ele>
        <time>1970-01-01T01:00:00Z</time>
      </trkpt>
      <trkpt lat="61.133022" lon="13.347084">
        <ele>518.455</ele>
        <time>1970-01-01T01:00:00Z</time>
      </trkpt>
      <trkpt lat="61.133075" lon="13.347254">
        <ele>518.091</ele>
        <time>1970-01-01T01:00:00Z</time>
      </trkpt>
      <trkpt lat="61.133113" lon="13.347806">
        <ele>517.818</ele>
        <time>1970-01-01T01:00:00Z</time>
      </trkpt>
      <trkpt lat="61.133098" lon="13.348126">
        <ele>517.636</ele>
        <time>1970-01-01T01:00:00Z</time>
      </trkpt>
      <trkpt lat="61.13306" lon="13.348361">
        <ele>517.273</ele>
        <time>1970-01-01T01:00:00Z</time>
      </trkpt>
      <trkpt lat="61.133033" lon="13.348715">
        <ele>516.909</ele>
        <time>1970-01-01T01:00:00Z</time>
      </trkpt>
      <trkpt lat="61.132995" lon="13.348979">
        <ele>516.545</ele>
        <time>1970-01-01T01:00:00Z</time>
      </trkpt>
      <trkpt lat="61.132949" lon="13.349302">
        <ele>516.091</ele>
        <time>1970-01-01T01:00:00Z</time>
      </trkpt>
      <trkpt lat="61.132926" lon="13.349478">
        <ele>515.636</ele>
        <time>1970-01-01T01:00:00Z</time>
      </trkpt>
      <trkpt lat="61.132911" lon="13.349678">
        <ele>515.273</ele>
        <time>1970-01-01T01:00:00Z</time>
      </trkpt>
      <trkpt lat="61.132896" lon="13.350061">
        <ele>514.909</ele>
        <time>1970-01-01T01:00:00Z</time>
      </trkpt>
      <trkpt lat="61.132869" lon="13.35023">
        <ele>514.455</ele>
        <time>1970-01-01T01:00:00Z</time>
      </trkpt>
      <trkpt lat="61.132743" lon="13.350553">
        <ele>514.091</ele>
        <time>1970-01-01T01:00:00Z</time>
      </trkpt>
      <trkpt lat="61.132682" lon="13.350708">
        <ele>513.455</ele>
        <time>1970-01-01T01:00:00Z</time>
      </trkpt>
      <trkpt lat="61.132549" lon="13.35115">
        <ele>512.727</ele>
        <time>1970-01-01T01:00:00Z</time>
      </trkpt>
      <trkpt lat="61.132518" lon="13.351232">
        <ele>511.909</ele>
        <time>1970-01-01T01:00:00Z</time>
      </trkpt>
      <trkpt lat="61.132366" lon="13.351772">
        <ele>511.091</ele>
        <time>1970-01-01T01:00:00Z</time>
      </trkpt>
      <trkpt lat="61.132324" lon="13.35208">
        <ele>510.273</ele>
        <time>1970-01-01T01:00:00Z</time>
      </trkpt>
      <trkpt lat="61.132259" lon="13.352513">
        <ele>509.455</ele>
        <time>1970-01-01T01:00:00Z</time>
      </trkpt>
      <trkpt lat="61.132087" lon="13.352905">
        <ele>508.636</ele>
        <time>1970-01-01T01:00:00Z</time>
      </trkpt>
      <trkpt lat="61.131938" lon="13.353152">
        <ele>507.636</ele>
        <time>1970-01-01T01:00:00Z</time>
      </trkpt>
      <trkpt lat="61.131767" lon="13.353508">
        <ele>506.545</ele>
        <time>1970-01-01T01:00:00Z</time>
      </trkpt>
      <trkpt lat="61.131694" lon="13.35375">
        <ele>505.545</ele>
        <time>1970-01-01T01:00:00Z</time>
      </trkpt>
      <trkpt lat="61.131645" lon="13.354203">
        <ele>504.545</ele>
        <time>1970-01-01T01:00:00Z</time>
      </trkpt>
      <trkpt lat="61.131668" lon="13.354649">
        <ele>503.727</ele>
        <time>1970-01-01T01:00:00Z</time>
      </trkpt>
      <trkpt lat="61.13166" lon="13.355158">
        <ele>503</ele>
        <time>1970-01-01T01:00:00Z</time>
      </trkpt>
      <trkpt lat="61.131679" lon="13.355616">
        <ele>502.545</ele>
        <time>1970-01-01T01:00:00Z</time>
      </trkpt>
      <trkpt lat="61.131721" lon="13.356183">
        <ele>502.091</ele>
        <time>1970-01-01T01:00:00Z</time>
      </trkpt>
      <trkpt lat="61.131736" lon="13.356468">
        <ele>501.636</ele>
        <time>1970-01-01T01:00:00Z</time>
      </trkpt>
      <trkpt lat="61.131729" lon="13.356769">
        <ele>501.273</ele>
        <time>1970-01-01T01:00:00Z</time>
      </trkpt>
      <trkpt lat="61.131652" lon="13.357239">
        <ele>500.909</ele>
        <time>1970-01-01T01:00:00Z</time>
      </trkpt>
      <trkpt lat="61.131584" lon="13.357417">
        <ele>500.727</ele>
        <time>1970-01-01T01:00:00Z</time>
      </trkpt>
      <trkpt lat="61.131515" lon="13.357561">
        <ele>500.545</ele>
        <time>1970-01-01T01:00:00Z</time>
      </trkpt>
      <trkpt lat="61.131366" lon="13.357862">
        <ele>500.364</ele>
        <time>1970-01-01T01:00:00Z</time>
      </trkpt>
      <trkpt lat="61.131271" lon="13.358341">
        <ele>500.182</ele>
        <time>1970-01-01T01:00:00Z</time>
      </trkpt>
      <trkpt lat="61.131214" lon="13.358855">
        <ele>500</ele>
        <time>1970-01-01T01:00:00Z</time>
      </trkpt>
      <trkpt lat="61.131168" lon="13.359255">
        <ele>499.818</ele>
        <time>1970-01-01T01:00:00Z</time>
      </trkpt>
      <trkpt lat="61.131122" lon="13.360093">
        <ele>499.636</ele>
        <time>1970-01-01T01:00:00Z</time>
      </trkpt>
      <trkpt lat="61.13116" lon="13.360681">
        <ele>499.455</ele>
        <time>1970-01-01T01:00:00Z</time>
      </trkpt>
      <trkpt lat="61.131221" lon="13.361239">
        <ele>499.364</ele>
        <time>1970-01-01T01:00:00Z</time>
      </trkpt>
      <trkpt lat="61.131271" lon="13.361543">
        <ele>499.364</ele>
        <time>1970-01-01T01:00:00Z</time>
      </trkpt>
      <trkpt lat="61.131359" lon="13.361994">
        <ele>499.364</ele>
        <time>1970-01-01T01:00:00Z</time>
      </trkpt>
      <trkpt lat="61.131412" lon="13.362402">
        <ele>499.364</ele>
        <time>1970-01-01T01:00:00Z</time>
      </trkpt>
      <trkpt lat="61.131412" lon="13.362842">
        <ele>499.455</ele>
        <time>1970-01-01T01:00:00Z</time>
      </trkpt>
      <trkpt lat="61.131416" lon="13.362994">
        <ele>499.545</ele>
        <time>1970-01-01T01:00:00Z</time>
      </trkpt>
      <trkpt lat="61.131465" lon="13.36342">
        <ele>499.636</ele>
        <time>1970-01-01T01:00:00Z</time>
      </trkpt>
      <trkpt lat="61.131523" lon="13.363856">
        <ele>499.727</ele>
        <time>1970-01-01T01:00:00Z</time>
      </trkpt>
      <trkpt lat="61.131561" lon="13.364127">
        <ele>499.818</ele>
        <time>1970-01-01T01:00:00Z</time>
      </trkpt>
      <trkpt lat="61.131652" lon="13.364734">
        <ele>499.909</ele>
        <time>1970-01-01T01:00:00Z</time>
      </trkpt>
      <trkpt lat="61.131702" lon="13.364997">
        <ele>500</ele>
        <time>1970-01-01T01:00:00Z</time>
      </trkpt>
      <trkpt lat="61.131782" lon="13.365262">
        <ele>500</ele>
        <time>1970-01-01T01:00:00Z</time>
      </trkpt>
      <trkpt lat="61.131839" lon="13.365418">
        <ele>500</ele>
        <time>1970-01-01T01:00:00Z</time>
      </trkpt>
      <trkpt lat="61.131881" lon="13.365876">
        <ele>500</ele>
        <time>1970-01-01T01:00:00Z</time>
      </trkpt>
      <trkpt lat="61.131862" lon="13.36608">
        <ele>499.909</ele>
        <time>1970-01-01T01:00:00Z</time>
      </trkpt>
      <trkpt lat="61.131839" lon="13.366355">
        <ele>499.818</ele>
        <time>1970-01-01T01:00:00Z</time>
      </trkpt>
      <trkpt lat="61.131835" lon="13.366496">
        <ele>499.636</ele>
        <time>1970-01-01T01:00:00Z</time>
      </trkpt>
      <trkpt lat="61.131824" lon="13.366735">
        <ele>499.455</ele>
        <time>1970-01-01T01:00:00Z</time>
      </trkpt>
      <trkpt lat="61.131797" lon="13.367009">
        <ele>499.273</ele>
        <time>1970-01-01T01:00:00Z</time>
      </trkpt>
      <trkpt lat="61.131805" lon="13.367478">
        <ele>499</ele>
        <time>1970-01-01T01:00:00Z</time>
      </trkpt>
      <trkpt lat="61.131824" lon="13.367746">
        <ele>498.727</ele>
        <time>1970-01-01T01:00:00Z</time>
      </trkpt>
      <trkpt lat="61.131828" lon="13.368064">
        <ele>498.364</ele>
        <time>1970-01-01T01:00:00Z</time>
      </trkpt>
      <trkpt lat="61.131832" lon="13.368391">
        <ele>498</ele>
        <time>1970-01-01T01:00:00Z</time>
      </trkpt>
      <trkpt lat="61.131832" lon="13.368761">
        <ele>497.636</ele>
        <time>1970-01-01T01:00:00Z</time>
      </trkpt>
      <trkpt lat="61.131835" lon="13.368977">
        <ele>497.182</ele>
        <time>1970-01-01T01:00:00Z</time>
      </trkpt>
      <trkpt lat="61.131862" lon="13.369409">
        <ele>496.818</ele>
        <time>1970-01-01T01:00:00Z</time>
      </trkpt>
      <trkpt lat="61.131874" lon="13.369663">
        <ele>496.455</ele>
        <time>1970-01-01T01:00:00Z</time>
      </trkpt>
      <trkpt lat="61.131881" lon="13.369917">
        <ele>496.182</ele>
        <time>1970-01-01T01:00:00Z</time>
      </trkpt>
      <trkpt lat="61.131862" lon="13.370296">
        <ele>495.727</ele>
        <time>1970-01-01T01:00:00Z</time>
      </trkpt>
      <trkpt lat="61.131782" lon="13.370566">
        <ele>495.273</ele>
        <time>1970-01-01T01:00:00Z</time>
      </trkpt>
      <trkpt lat="61.131668" lon="13.370809">
        <ele>495.273</ele>
        <time>1970-01-01T01:00:00Z</time>
      </trkpt>
      <trkpt lat="61.131599" lon="13.370935">
        <ele>495.273</ele>
        <time>1970-01-01T01:00:00Z</time>
      </trkpt>
      <trkpt lat="61.131477" lon="13.37119">
        <ele>495.273</ele>
        <time>1970-01-01T01:00:00Z</time>
      </trkpt>
      <trkpt lat="61.131389" lon="13.371374">
        <ele>495.273</ele>
        <time>1970-01-01T01:00:00Z</time>
      </trkpt>
      <trkpt lat="61.131282" lon="13.3716">
        <ele>495.273</ele>
        <time>1970-01-01T01:00:00Z</time>
      </trkpt>
      <trkpt lat="61.131214" lon="13.371727">
        <ele>495.364</ele>
        <time>1970-01-01T01:00:00Z</time>
      </trkpt>
      <trkpt lat="61.131072" lon="13.37205">
        <ele>495.455</ele>
        <time>1970-01-01T01:00:00Z</time>
      </trkpt>
      <trkpt lat="61.131019" lon="13.372144">
        <ele>495.364</ele>
        <time>1970-01-01T01:00:00Z</time>
      </trkpt>
      <trkpt lat="61.130889" lon="13.372313">
        <ele>495.273</ele>
        <time>1970-01-01T01:00:00Z</time>
      </trkpt>
      <trkpt lat="61.130767" lon="13.372547">
        <ele>495.909</ele>
        <time>1970-01-01T01:00:00Z</time>
      </trkpt>
      <trkpt lat="61.13068" lon="13.372749">
        <ele>496.545</ele>
        <time>1970-01-01T01:00:00Z</time>
      </trkpt>
      <trkpt lat="61.130634" lon="13.372859">
        <ele>496.636</ele>
        <time>1970-01-01T01:00:00Z</time>
      </trkpt>
      <trkpt lat="61.130584" lon="13.37303">
        <ele>496.727</ele>
        <time>1970-01-01T01:00:00Z</time>
      </trkpt>
      <trkpt lat="61.130538" lon="13.373165">
        <ele>496.909</ele>
        <time>1970-01-01T01:00:00Z</time>
      </trkpt>
      <trkpt lat="61.130409" lon="13.37349">
        <ele>497.091</ele>
        <time>1970-01-01T01:00:00Z</time>
      </trkpt>
      <trkpt lat="61.130352" lon="13.373637">
        <ele>497.273</ele>
        <time>1970-01-01T01:00:00Z</time>
      </trkpt>
      <trkpt lat="61.130229" lon="13.373908">
        <ele>496.727</ele>
        <time>1970-01-01T01:00:00Z</time>
      </trkpt>
      <trkpt lat="61.130138" lon="13.374076">
        <ele>496.727</ele>
        <time>1970-01-01T01:00:00Z</time>
      </trkpt>
      <trkpt lat="61.129974" lon="13.374283">
        <ele>496.909</ele>
        <time>1970-01-01T01:00:00Z</time>
      </trkpt>
      <trkpt lat="61.129878" lon="13.374434">
        <ele>497.091</ele>
        <time>1970-01-01T01:00:00Z</time>
      </trkpt>
      <trkpt lat="61.129802" lon="13.374533">
        <ele>496.727</ele>
        <time>1970-01-01T01:00:00Z</time>
      </trkpt>
      <trkpt lat="61.129665" lon="13.374708">
        <ele>496.364</ele>
        <time>1970-01-01T01:00:00Z</time>
      </trkpt>
      <trkpt lat="61.129489" lon="13.374915">
        <ele>496.182</ele>
        <time>1970-01-01T01:00:00Z</time>
      </trkpt>
      <trkpt lat="61.129428" lon="13.375054">
        <ele>495.636</ele>
        <time>1970-01-01T01:00:00Z</time>
      </trkpt>
      <trkpt lat="61.129344" lon="13.37516">
        <ele>495.091</ele>
        <time>1970-01-01T01:00:00Z</time>
      </trkpt>
      <trkpt lat="61.129325" lon="13.375186">
        <ele>494.545</ele>
        <time>1970-01-01T01:00:00Z</time>
      </trkpt>
      <trkpt lat="61.129211" lon="13.375343">
        <ele>494.545</ele>
        <time>1970-01-01T01:00:00Z</time>
      </trkpt>
      <trkpt lat="61.129173" lon="13.375424">
        <ele>495.273</ele>
        <time>1970-01-01T01:00:00Z</time>
      </trkpt>
      <trkpt lat="61.12907" lon="13.375689">
        <ele>495.455</ele>
        <time>1970-01-01T01:00:00Z</time>
      </trkpt>
      <trkpt lat="61.128993" lon="13.375801">
        <ele>495.636</ele>
        <time>1970-01-01T01:00:00Z</time>
      </trkpt>
      <trkpt lat="61.128952" lon="13.375846">
        <ele>495.818</ele>
        <time>1970-01-01T01:00:00Z</time>
      </trkpt>
      <trkpt lat="61.128784" lon="13.375849">
        <ele>496</ele>
        <time>1970-01-01T01:00:00Z</time>
      </trkpt>
      <trkpt lat="61.12862" lon="13.375825">
        <ele>496.182</ele>
        <time>1970-01-01T01:00:00Z</time>
      </trkpt>
      <trkpt lat="61.128585" lon="13.375814">
        <ele>496.545</ele>
        <time>1970-01-01T01:00:00Z</time>
      </trkpt>
      <trkpt lat="61.128444" lon="13.375819">
        <ele>497.273</ele>
        <time>1970-01-01T01:00:00Z</time>
      </trkpt>
      <trkpt lat="61.128341" lon="13.375868">
        <ele>498</ele>
        <time>1970-01-01T01:00:00Z</time>
      </trkpt>
      <trkpt lat="61.128231" lon="13.37594">
        <ele>498.727</ele>
        <time>1970-01-01T01:00:00Z</time>
      </trkpt>
      <trkpt lat="61.128086" lon="13.376005">
        <ele>498.909</ele>
        <time>1970-01-01T01:00:00Z</time>
      </trkpt>
      <trkpt lat="61.127979" lon="13.376082">
        <ele>499.091</ele>
        <time>1970-01-01T01:00:00Z</time>
      </trkpt>
      <trkpt lat="61.127845" lon="13.37625">
        <ele>499.273</ele>
        <time>1970-01-01T01:00:00Z</time>
      </trkpt>
      <trkpt lat="61.12778" lon="13.37634">
        <ele>499.455</ele>
        <time>1970-01-01T01:00:00Z</time>
      </trkpt>
      <trkpt lat="61.127708" lon="13.376467">
        <ele>499.636</ele>
        <time>1970-01-01T01:00:00Z</time>
      </trkpt>
      <trkpt lat="61.127677" lon="13.376533">
        <ele>499.818</ele>
        <time>1970-01-01T01:00:00Z</time>
      </trkpt>
      <trkpt lat="61.127647" lon="13.376664">
        <ele>500</ele>
        <time>1970-01-01T01:00:00Z</time>
      </trkpt>
      <trkpt lat="61.127613" lon="13.376779">
        <ele>500</ele>
        <time>1970-01-01T01:00:00Z</time>
      </trkpt>
      <trkpt lat="61.127529" lon="13.377126">
        <ele>500.091</ele>
        <time>1970-01-01T01:00:00Z</time>
      </trkpt>
      <trkpt lat="61.127506" lon="13.377348">
        <ele>500.182</ele>
        <time>1970-01-01T01:00:00Z</time>
      </trkpt>
      <trkpt lat="61.127437" lon="13.377601">
        <ele>500.273</ele>
        <time>1970-01-01T01:00:00Z</time>
      </trkpt>
      <trkpt lat="61.12733" lon="13.377859">
        <ele>500.364</ele>
        <time>1970-01-01T01:00:00Z</time>
      </trkpt>
      <trkpt lat="61.127239" lon="13.378065">
        <ele>500.455</ele>
        <time>1970-01-01T01:00:00Z</time>
      </trkpt>
      <trkpt lat="61.127079" lon="13.378376">
        <ele>500.545</ele>
        <time>1970-01-01T01:00:00Z</time>
      </trkpt>
      <trkpt lat="61.127006" lon="13.378474">
        <ele>500.636</ele>
        <time>1970-01-01T01:00:00Z</time>
      </trkpt>
      <trkpt lat="61.126922" lon="13.378597">
        <ele>500.727</ele>
        <time>1970-01-01T01:00:00Z</time>
      </trkpt>
      <trkpt lat="61.126811" lon="13.378782">
        <ele>500.818</ele>
        <time>1970-01-01T01:00:00Z</time>
      </trkpt>
      <trkpt lat="61.126697" lon="13.378982">
        <ele>500.818</ele>
        <time>1970-01-01T01:00:00Z</time>
      </trkpt>
      <trkpt lat="61.126571" lon="13.37913">
        <ele>500.818</ele>
        <time>1970-01-01T01:00:00Z</time>
      </trkpt>
      <trkpt lat="61.126438" lon="13.379303">
        <ele>500.727</ele>
        <time>1970-01-01T01:00:00Z</time>
      </trkpt>
      <trkpt lat="61.126373" lon="13.37943">
        <ele>500.636</ele>
        <time>1970-01-01T01:00:00Z</time>
      </trkpt>
      <trkpt lat="61.126296" lon="13.379528">
        <ele>500.545</ele>
        <time>1970-01-01T01:00:00Z</time>
      </trkpt>
      <trkpt lat="61.126201" lon="13.379674">
        <ele>500.273</ele>
        <time>1970-01-01T01:00:00Z</time>
      </trkpt>
      <trkpt lat="61.126132" lon="13.379745">
        <ele>500</ele>
        <time>1970-01-01T01:00:00Z</time>
      </trkpt>
      <trkpt lat="61.126003" lon="13.37997">
        <ele>499.636</ele>
        <time>1970-01-01T01:00:00Z</time>
      </trkpt>
      <trkpt lat="61.125965" lon="13.380076">
        <ele>499.273</ele>
        <time>1970-01-01T01:00:00Z</time>
      </trkpt>
      <trkpt lat="61.125885" lon="13.380301">
        <ele>498.909</ele>
        <time>1970-01-01T01:00:00Z</time>
      </trkpt>
      <trkpt lat="61.125736" lon="13.380537">
        <ele>498.545</ele>
        <time>1970-01-01T01:00:00Z</time>
      </trkpt>
      <trkpt lat="61.125595" lon="13.380717">
        <ele>498.273</ele>
        <time>1970-01-01T01:00:00Z</time>
      </trkpt>
      <trkpt lat="61.125366" lon="13.380674">
        <ele>498</ele>
        <time>1970-01-01T01:00:00Z</time>
      </trkpt>
      <trkpt lat="61.12524" lon="13.380649">
        <ele>497.727</ele>
        <time>1970-01-01T01:00:00Z</time>
      </trkpt>
      <trkpt lat="61.125164" lon="13.380653">
        <ele>497.455</ele>
        <time>1970-01-01T01:00:00Z</time>
      </trkpt>
      <trkpt lat="61.125053" lon="13.380673">
        <ele>497.182</ele>
        <time>1970-01-01T01:00:00Z</time>
      </trkpt>
      <trkpt lat="61.124908" lon="13.380679">
        <ele>497.091</ele>
        <time>1970-01-01T01:00:00Z</time>
      </trkpt>
      <trkpt lat="61.124816" lon="13.380708">
        <ele>497</ele>
        <time>1970-01-01T01:00:00Z</time>
      </trkpt>
      <trkpt lat="61.124702" lon="13.380764">
        <ele>497</ele>
        <time>1970-01-01T01:00:00Z</time>
      </trkpt>
      <trkpt lat="61.124584" lon="13.380801">
        <ele>497</ele>
        <time>1970-01-01T01:00:00Z</time>
      </trkpt>
      <trkpt lat="61.124443" lon="13.38083">
        <ele>497.091</ele>
        <time>1970-01-01T01:00:00Z</time>
      </trkpt>
      <trkpt lat="61.124313" lon="13.380881">
        <ele>497.182</ele>
        <time>1970-01-01T01:00:00Z</time>
      </trkpt>
      <trkpt lat="61.124179" lon="13.380928">
        <ele>497.273</ele>
        <time>1970-01-01T01:00:00Z</time>
      </trkpt>
      <trkpt lat="61.124038" lon="13.380957">
        <ele>497.364</ele>
        <time>1970-01-01T01:00:00Z</time>
      </trkpt>
      <trkpt lat="61.123924" lon="13.380981">
        <ele>497.455</ele>
        <time>1970-01-01T01:00:00Z</time>
      </trkpt>
      <trkpt lat="61.123748" lon="13.381038">
        <ele>497.455</ele>
        <time>1970-01-01T01:00:00Z</time>
      </trkpt>
      <trkpt lat="61.123657" lon="13.381047">
        <ele>497.545</ele>
        <time>1970-01-01T01:00:00Z</time>
      </trkpt>
      <trkpt lat="61.123546" lon="13.381077">
        <ele>497.636</ele>
        <time>1970-01-01T01:00:00Z</time>
      </trkpt>
      <trkpt lat="61.123363" lon="13.381152">
        <ele>497.727</ele>
        <time>1970-01-01T01:00:00Z</time>
      </trkpt>
      <trkpt lat="61.123275" lon="13.381202">
        <ele>497.818</ele>
        <time>1970-01-01T01:00:00Z</time>
      </trkpt>
      <trkpt lat="61.123126" lon="13.3813">
        <ele>497.909</ele>
        <time>1970-01-01T01:00:00Z</time>
      </trkpt>
      <trkpt lat="61.122978" lon="13.38141">
        <ele>497.909</ele>
        <time>1970-01-01T01:00:00Z</time>
      </trkpt>
      <trkpt lat="61.122871" lon="13.381489">
        <ele>497.909</ele>
        <time>1970-01-01T01:00:00Z</time>
      </trkpt>
      <trkpt lat="61.12273" lon="13.381587">
        <ele>497.909</ele>
        <time>1970-01-01T01:00:00Z</time>
      </trkpt>
      <trkpt lat="61.122608" lon="13.381652">
        <ele>498</ele>
        <time>1970-01-01T01:00:00Z</time>
      </trkpt>
      <trkpt lat="61.12247" lon="13.381752">
        <ele>498</ele>
        <time>1970-01-01T01:00:00Z</time>
      </trkpt>
      <trkpt lat="61.122428" lon="13.381792">
        <ele>498.091</ele>
        <time>1970-01-01T01:00:00Z</time>
      </trkpt>
      <trkpt lat="61.122291" lon="13.381914">
        <ele>498.091</ele>
        <time>1970-01-01T01:00:00Z</time>
      </trkpt>
      <trkpt lat="61.122249" lon="13.381931">
        <ele>498.091</ele>
        <time>1970-01-01T01:00:00Z</time>
      </trkpt>
      <trkpt lat="61.122085" lon="13.382056">
        <ele>498.091</ele>
        <time>1970-01-01T01:00:00Z</time>
      </trkpt>
      <trkpt lat="61.121944" lon="13.382189">
        <ele>498.091</ele>
        <time>1970-01-01T01:00:00Z</time>
      </trkpt>
      <trkpt lat="61.121772" lon="13.382382">
        <ele>498</ele>
        <time>1970-01-01T01:00:00Z</time>
      </trkpt>
      <trkpt lat="61.121623" lon="13.382596">
        <ele>497.909</ele>
        <time>1970-01-01T01:00:00Z</time>
      </trkpt>
      <trkpt lat="61.121589" lon="13.382634">
        <ele>497.818</ele>
        <time>1970-01-01T01:00:00Z</time>
      </trkpt>
      <trkpt lat="61.121429" lon="13.382839">
        <ele>497.636</ele>
        <time>1970-01-01T01:00:00Z</time>
      </trkpt>
      <trkpt lat="61.121391" lon="13.382877">
        <ele>497.364</ele>
        <time>1970-01-01T01:00:00Z</time>
      </trkpt>
      <trkpt lat="61.121192" lon="13.383093">
        <ele>497.182</ele>
        <time>1970-01-01T01:00:00Z</time>
      </trkpt>
      <trkpt lat="61.121112" lon="13.383319">
        <ele>497</ele>
        <time>1970-01-01T01:00:00Z</time>
      </trkpt>
      <trkpt lat="61.121032" lon="13.383592">
        <ele>496.818</ele>
        <time>1970-01-01T01:00:00Z</time>
      </trkpt>
      <trkpt lat="61.120952" lon="13.383959">
        <ele>496.636</ele>
        <time>1970-01-01T01:00:00Z</time>
      </trkpt>
      <trkpt lat="61.120899" lon="13.384198">
        <ele>496.455</ele>
        <time>1970-01-01T01:00:00Z</time>
      </trkpt>
      <trkpt lat="61.120868" lon="13.384452">
        <ele>496.273</ele>
        <time>1970-01-01T01:00:00Z</time>
      </trkpt>
      <trkpt lat="61.120845" lon="13.384678">
        <ele>496.091</ele>
        <time>1970-01-01T01:00:00Z</time>
      </trkpt>
      <trkpt lat="61.120838" lon="13.384938">
        <ele>495.909</ele>
        <time>1970-01-01T01:00:00Z</time>
      </trkpt>
      <trkpt lat="61.120838" lon="13.385192">
        <ele>495.727</ele>
        <time>1970-01-01T01:00:00Z</time>
      </trkpt>
      <trkpt lat="61.120838" lon="13.385261">
        <ele>495.636</ele>
        <time>1970-01-01T01:00:00Z</time>
      </trkpt>
      <trkpt lat="61.120849" lon="13.385459">
        <ele>495.545</ele>
        <time>1970-01-01T01:00:00Z</time>
      </trkpt>
      <trkpt lat="61.120914" lon="13.385724">
        <ele>495.455</ele>
        <time>1970-01-01T01:00:00Z</time>
      </trkpt>
      <trkpt lat="61.120937" lon="13.385965">
        <ele>495.364</ele>
        <time>1970-01-01T01:00:00Z</time>
      </trkpt>
      <trkpt lat="61.120933" lon="13.386062">
        <ele>495.273</ele>
        <time>1970-01-01T01:00:00Z</time>
      </trkpt>
      <trkpt lat="61.12091" lon="13.386245">
        <ele>495.182</ele>
        <time>1970-01-01T01:00:00Z</time>
      </trkpt>
      <trkpt lat="61.120887" lon="13.386429">
        <ele>495.091</ele>
        <time>1970-01-01T01:00:00Z</time>
      </trkpt>
      <trkpt lat="61.120876" lon="13.386532">
        <ele>495</ele>
        <time>1970-01-01T01:00:00Z</time>
      </trkpt>
      <trkpt lat="61.120811" lon="13.38681">
        <ele>495</ele>
        <time>1970-01-01T01:00:00Z</time>
      </trkpt>
      <trkpt lat="61.120697" lon="13.387016">
        <ele>495</ele>
        <time>1970-01-01T01:00:00Z</time>
      </trkpt>
      <trkpt lat="61.120597" lon="13.387181">
        <ele>495</ele>
        <time>1970-01-01T01:00:00Z</time>
      </trkpt>
      <trkpt lat="61.120525" lon="13.387346">
        <ele>495</ele>
        <time>1970-01-01T01:00:00Z</time>
      </trkpt>
      <trkpt lat="61.120433" lon="13.387584">
        <ele>495</ele>
        <time>1970-01-01T01:00:00Z</time>
      </trkpt>
      <trkpt lat="61.120365" lon="13.387736">
        <ele>495</ele>
        <time>1970-01-01T01:00:00Z</time>
      </trkpt>
      <trkpt lat="61.120292" lon="13.387917">
        <ele>495</ele>
        <time>1970-01-01T01:00:00Z</time>
      </trkpt>
      <trkpt lat="61.120208" lon="13.388099">
        <ele>495</ele>
        <time>1970-01-01T01:00:00Z</time>
      </trkpt>
      <trkpt lat="61.120151" lon="13.388229">
        <ele>495</ele>
        <time>1970-01-01T01:00:00Z</time>
      </trkpt>
      <trkpt lat="61.120044" lon="13.388466">
        <ele>495</ele>
        <time>1970-01-01T01:00:00Z</time>
      </trkpt>
      <trkpt lat="61.119979" lon="13.388606">
        <ele>495</ele>
        <time>1970-01-01T01:00:00Z</time>
      </trkpt>
      <trkpt lat="61.119956" lon="13.388655">
        <ele>495</ele>
        <time>1970-01-01T01:00:00Z</time>
      </trkpt>
      <trkpt lat="61.119888" lon="13.38875">
        <ele>495</ele>
        <time>1970-01-01T01:00:00Z</time>
      </trkpt>
      <trkpt lat="61.11988" lon="13.388764">
        <ele>495</ele>
        <time>1970-01-01T01:00:00Z</time>
      </trkpt>
      <trkpt lat="61.119842" lon="13.388916">
        <ele>495</ele>
        <time>1970-01-01T01:00:00Z</time>
      </trkpt>
      <trkpt lat="61.119819" lon="13.389035">
        <ele>495.091</ele>
        <time>1970-01-01T01:00:00Z</time>
      </trkpt>
      <trkpt lat="61.119838" lon="13.389227">
        <ele>495.182</ele>
        <time>1970-01-01T01:00:00Z</time>
      </trkpt>
      <trkpt lat="61.119857" lon="13.389395">
        <ele>495.273</ele>
        <time>1970-01-01T01:00:00Z</time>
      </trkpt>
      <trkpt lat="61.119853" lon="13.389485">
        <ele>495.364</ele>
        <time>1970-01-01T01:00:00Z</time>
      </trkpt>
      <trkpt lat="61.119865" lon="13.389611">
        <ele>495.455</ele>
        <time>1970-01-01T01:00:00Z</time>
      </trkpt>
      <trkpt lat="61.119869" lon="13.389807">
        <ele>495.545</ele>
        <time>1970-01-01T01:00:00Z</time>
      </trkpt>
      <trkpt lat="61.119915" lon="13.390123">
        <ele>495.636</ele>
        <time>1970-01-01T01:00:00Z</time>
      </trkpt>
      <trkpt lat="61.119972" lon="13.390381">
        <ele>495.727</ele>
        <time>1970-01-01T01:00:00Z</time>
      </trkpt>
      <trkpt lat="61.120033" lon="13.390572">
        <ele>495.727</ele>
        <time>1970-01-01T01:00:00Z</time>
      </trkpt>
      <trkpt lat="61.120044" lon="13.390634">
        <ele>495.727</ele>
        <time>1970-01-01T01:00:00Z</time>
      </trkpt>
      <trkpt lat="61.120109" lon="13.390856">
        <ele>495.727</ele>
        <time>1970-01-01T01:00:00Z</time>
      </trkpt>
      <trkpt lat="61.120189" lon="13.391058">
        <ele>495.636</ele>
        <time>1970-01-01T01:00:00Z</time>
      </trkpt>
      <trkpt lat="61.120239" lon="13.39125">
        <ele>495.545</ele>
        <time>1970-01-01T01:00:00Z</time>
      </trkpt>
      <trkpt lat="61.120285" lon="13.391524">
        <ele>495.455</ele>
        <time>1970-01-01T01:00:00Z</time>
      </trkpt>
      <trkpt lat="61.120307" lon="13.391797">
        <ele>495.364</ele>
        <time>1970-01-01T01:00:00Z</time>
      </trkpt>
      <trkpt lat="61.120319" lon="13.392062">
        <ele>495.364</ele>
        <time>1970-01-01T01:00:00Z</time>
      </trkpt>
      <trkpt lat="61.120342" lon="13.392334">
        <ele>495.364</ele>
        <time>1970-01-01T01:00:00Z</time>
      </trkpt>
      <trkpt lat="61.120384" lon="13.392604">
        <ele>495.364</ele>
        <time>1970-01-01T01:00:00Z</time>
      </trkpt>
      <trkpt lat="61.12041" lon="13.39288">
        <ele>495.364</ele>
        <time>1970-01-01T01:00:00Z</time>
      </trkpt>
      <trkpt lat="61.120429" lon="13.393193">
        <ele>495.455</ele>
        <time>1970-01-01T01:00:00Z</time>
      </trkpt>
      <trkpt lat="61.120468" lon="13.393495">
        <ele>495.545</ele>
        <time>1970-01-01T01:00:00Z</time>
      </trkpt>
      <trkpt lat="61.120517" lon="13.393735">
        <ele>495.636</ele>
        <time>1970-01-01T01:00:00Z</time>
      </trkpt>
      <trkpt lat="61.120552" lon="13.393899">
        <ele>495.636</ele>
        <time>1970-01-01T01:00:00Z</time>
      </trkpt>
      <trkpt lat="61.120674" lon="13.394327">
        <ele>495.636</ele>
        <time>1970-01-01T01:00:00Z</time>
      </trkpt>
      <trkpt lat="61.120826" lon="13.394556">
        <ele>495.727</ele>
        <time>1970-01-01T01:00:00Z</time>
      </trkpt>
      <trkpt lat="61.120891" lon="13.394604">
        <ele>495.818</ele>
        <time>1970-01-01T01:00:00Z</time>
      </trkpt>
      <trkpt lat="61.120925" lon="13.394638">
        <ele>495.818</ele>
        <time>1970-01-01T01:00:00Z</time>
      </trkpt>
      <trkpt lat="61.121032" lon="13.394712">
        <ele>495.818</ele>
        <time>1970-01-01T01:00:00Z</time>
      </trkpt>
      <trkpt lat="61.121227" lon="13.39485">
        <ele>495.818</ele>
        <time>1970-01-01T01:00:00Z</time>
      </trkpt>
      <trkpt lat="61.121444" lon="13.394955">
        <ele>495.636</ele>
        <time>1970-01-01T01:00:00Z</time>
      </trkpt>
      <trkpt lat="61.121643" lon="13.395027">
        <ele>495.455</ele>
        <time>1970-01-01T01:00:00Z</time>
      </trkpt>
      <trkpt lat="61.12173" lon="13.395084">
        <ele>495.273</ele>
        <time>1970-01-01T01:00:00Z</time>
      </trkpt>
      <trkpt lat="61.121875" lon="13.395249">
        <ele>495.091</ele>
        <time>1970-01-01T01:00:00Z</time>
      </trkpt>
      <trkpt lat="61.12199" lon="13.395493">
        <ele>495</ele>
        <time>1970-01-01T01:00:00Z</time>
      </trkpt>
      <trkpt lat="61.122097" lon="13.395898">
        <ele>495.182</ele>
        <time>1970-01-01T01:00:00Z</time>
      </trkpt>
      <trkpt lat="61.122226" lon="13.396351">
        <ele>495.273</ele>
        <time>1970-01-01T01:00:00Z</time>
      </trkpt>
      <trkpt lat="61.12239" lon="13.396678">
        <ele>495.545</ele>
        <time>1970-01-01T01:00:00Z</time>
      </trkpt>
      <trkpt lat="61.122497" lon="13.396894">
        <ele>495.818</ele>
        <time>1970-01-01T01:00:00Z</time>
      </trkpt>
      <trkpt lat="61.122604" lon="13.397124">
        <ele>495.909</ele>
        <time>1970-01-01T01:00:00Z</time>
      </trkpt>
      <trkpt lat="61.122714" lon="13.397447">
        <ele>495.909</ele>
        <time>1970-01-01T01:00:00Z</time>
      </trkpt>
      <trkpt lat="61.122821" lon="13.397769">
        <ele>496.091</ele>
        <time>1970-01-01T01:00:00Z</time>
      </trkpt>
      <trkpt lat="61.122875" lon="13.397994">
        <ele>496.273</ele>
        <time>1970-01-01T01:00:00Z</time>
      </trkpt>
      <trkpt lat="61.122955" lon="13.398296">
        <ele>496.364</ele>
        <time>1970-01-01T01:00:00Z</time>
      </trkpt>
      <trkpt lat="61.123054" lon="13.398689">
        <ele>496.455</ele>
        <time>1970-01-01T01:00:00Z</time>
      </trkpt>
      <trkpt lat="61.123138" lon="13.399035">
        <ele>496.545</ele>
        <time>1970-01-01T01:00:00Z</time>
      </trkpt>
      <trkpt lat="61.12318" lon="13.399204">
        <ele>496.364</ele>
        <time>1970-01-01T01:00:00Z</time>
      </trkpt>
      <trkpt lat="61.123264" lon="13.399557">
        <ele>496.182</ele>
        <time>1970-01-01T01:00:00Z</time>
      </trkpt>
      <trkpt lat="61.12331" lon="13.399825">
        <ele>495.818</ele>
        <time>1970-01-01T01:00:00Z</time>
      </trkpt>
      <trkpt lat="61.123359" lon="13.400072">
        <ele>495.455</ele>
        <time>1970-01-01T01:00:00Z</time>
      </trkpt>
      <trkpt lat="61.12347" lon="13.400456">
        <ele>495.364</ele>
        <time>1970-01-01T01:00:00Z</time>
      </trkpt>
      <trkpt lat="61.123489" lon="13.400527">
        <ele>495.364</ele>
        <time>1970-01-01T01:00:00Z</time>
      </trkpt>
      <trkpt lat="61.123527" lon="13.400688">
        <ele>495.273</ele>
        <time>1970-01-01T01:00:00Z</time>
      </trkpt>
      <trkpt lat="61.1236" lon="13.400935">
        <ele>495.182</ele>
        <time>1970-01-01T01:00:00Z</time>
      </trkpt>
      <trkpt lat="61.123668" lon="13.401214">
        <ele>495.182</ele>
        <time>1970-01-01T01:00:00Z</time>
      </trkpt>
      <trkpt lat="61.123725" lon="13.401546">
        <ele>495.273</ele>
        <time>1970-01-01T01:00:00Z</time>
      </trkpt>
      <trkpt lat="61.12379" lon="13.401903">
        <ele>495.364</ele>
        <time>1970-01-01T01:00:00Z</time>
      </trkpt>
      <trkpt lat="61.123832" lon="13.402187">
        <ele>495.545</ele>
        <time>1970-01-01T01:00:00Z</time>
      </trkpt>
      <trkpt lat="61.12384" lon="13.402279">
        <ele>495.727</ele>
        <time>1970-01-01T01:00:00Z</time>
      </trkpt>
      <trkpt lat="61.123893" lon="13.402862">
        <ele>495.909</ele>
        <time>1970-01-01T01:00:00Z</time>
      </trkpt>
      <trkpt lat="61.123947" lon="13.403316">
        <ele>496.091</ele>
        <time>1970-01-01T01:00:00Z</time>
      </trkpt>
      <trkpt lat="61.12397" lon="13.403507">
        <ele>496.182</ele>
        <time>1970-01-01T01:00:00Z</time>
      </trkpt>
      <trkpt lat="61.123985" lon="13.403936">
        <ele>496.273</ele>
        <time>1970-01-01T01:00:00Z</time>
      </trkpt>
      <trkpt lat="61.123996" lon="13.40402">
        <ele>496.455</ele>
        <time>1970-01-01T01:00:00Z</time>
      </trkpt>
      <trkpt lat="61.124015" lon="13.404205">
        <ele>496.636</ele>
        <time>1970-01-01T01:00:00Z</time>
      </trkpt>
      <trkpt lat="61.124034" lon="13.404394">
        <ele>496.909</ele>
        <time>1970-01-01T01:00:00Z</time>
      </trkpt>
      <trkpt lat="61.12408" lon="13.404904">
        <ele>497.091</ele>
        <time>1970-01-01T01:00:00Z</time>
      </trkpt>
      <trkpt lat="61.124088" lon="13.405205">
        <ele>497.182</ele>
        <time>1970-01-01T01:00:00Z</time>
      </trkpt>
      <trkpt lat="61.124084" lon="13.405378">
        <ele>497.273</ele>
        <time>1970-01-01T01:00:00Z</time>
      </trkpt>
      <trkpt lat="61.124073" lon="13.405463">
        <ele>497.273</ele>
        <time>1970-01-01T01:00:00Z</time>
      </trkpt>
      <trkpt lat="61.124027" lon="13.405781">
        <ele>497.273</ele>
        <time>1970-01-01T01:00:00Z</time>
      </trkpt>
      <trkpt lat="61.123893" lon="13.406288">
        <ele>497.273</ele>
        <time>1970-01-01T01:00:00Z</time>
      </trkpt>
      <trkpt lat="61.123817" lon="13.406633">
        <ele>497.182</ele>
        <time>1970-01-01T01:00:00Z</time>
      </trkpt>
      <trkpt lat="61.123786" lon="13.406813">
        <ele>497.091</ele>
        <time>1970-01-01T01:00:00Z</time>
      </trkpt>
      <trkpt lat="61.123699" lon="13.407168">
        <ele>497</ele>
        <time>1970-01-01T01:00:00Z</time>
      </trkpt>
      <trkpt lat="61.123584" lon="13.407611">
        <ele>496.909</ele>
        <time>1970-01-01T01:00:00Z</time>
      </trkpt>
      <trkpt lat="61.123542" lon="13.407775">
        <ele>496.636</ele>
        <time>1970-01-01T01:00:00Z</time>
      </trkpt>
      <trkpt lat="61.123504" lon="13.408034">
        <ele>496.364</ele>
        <time>1970-01-01T01:00:00Z</time>
      </trkpt>
      <trkpt lat="61.123485" lon="13.408303">
        <ele>496.182</ele>
        <time>1970-01-01T01:00:00Z</time>
      </trkpt>
      <trkpt lat="61.123474" lon="13.408465">
        <ele>495.818</ele>
        <time>1970-01-01T01:00:00Z</time>
      </trkpt>
      <trkpt lat="61.123432" lon="13.408696">
        <ele>495.545</ele>
        <time>1970-01-01T01:00:00Z</time>
      </trkpt>
      <trkpt lat="61.123386" lon="13.408921">
        <ele>495.273</ele>
        <time>1970-01-01T01:00:00Z</time>
      </trkpt>
      <trkpt lat="61.123302" lon="13.409192">
        <ele>495</ele>
        <time>1970-01-01T01:00:00Z</time>
      </trkpt>
      <trkpt lat="61.123191" lon="13.409616">
        <ele>494.727</ele>
        <time>1970-01-01T01:00:00Z</time>
      </trkpt>
      <trkpt lat="61.123149" lon="13.409813">
        <ele>494.727</ele>
        <time>1970-01-01T01:00:00Z</time>
      </trkpt>
      <trkpt lat="61.123119" lon="13.409919">
        <ele>494.727</ele>
        <time>1970-01-01T01:00:00Z</time>
      </trkpt>
      <trkpt lat="61.123088" lon="13.410139">
        <ele>494.727</ele>
        <time>1970-01-01T01:00:00Z</time>
      </trkpt>
      <trkpt lat="61.123043" lon="13.410414">
        <ele>494.818</ele>
        <time>1970-01-01T01:00:00Z</time>
      </trkpt>
      <trkpt lat="61.12302" lon="13.410613">
        <ele>494.909</ele>
        <time>1970-01-01T01:00:00Z</time>
      </trkpt>
      <trkpt lat="61.122932" lon="13.411116">
        <ele>494.909</ele>
        <time>1970-01-01T01:00:00Z</time>
      </trkpt>
      <trkpt lat="61.122924" lon="13.411206">
        <ele>495</ele>
        <time>1970-01-01T01:00:00Z</time>
      </trkpt>
      <trkpt lat="61.122863" lon="13.411506">
        <ele>495.091</ele>
        <time>1970-01-01T01:00:00Z</time>
      </trkpt>
      <trkpt lat="61.122852" lon="13.411574">
        <ele>495</ele>
        <time>1970-01-01T01:00:00Z</time>
      </trkpt>
      <trkpt lat="61.122814" lon="13.411799">
        <ele>494.909</ele>
        <time>1970-01-01T01:00:00Z</time>
      </trkpt>
      <trkpt lat="61.122772" lon="13.412113">
        <ele>494.909</ele>
        <time>1970-01-01T01:00:00Z</time>
      </trkpt>
      <trkpt lat="61.12276" lon="13.412272">
        <ele>494.636</ele>
        <time>1970-01-01T01:00:00Z</time>
      </trkpt>
      <trkpt lat="61.122749" lon="13.412648">
        <ele>494.091</ele>
        <time>1970-01-01T01:00:00Z</time>
      </trkpt>
      <trkpt lat="61.122734" lon="13.412923">
        <ele>493.545</ele>
        <time>1970-01-01T01:00:00Z</time>
      </trkpt>
      <trkpt lat="61.122718" lon="13.413172">
        <ele>493</ele>
        <time>1970-01-01T01:00:00Z</time>
      </trkpt>
      <trkpt lat="61.122688" lon="13.413452">
        <ele>492.182</ele>
        <time>1970-01-01T01:00:00Z</time>
      </trkpt>
      <trkpt lat="61.122646" lon="13.413722">
        <ele>491.455</ele>
        <time>1970-01-01T01:00:00Z</time>
      </trkpt>
      <trkpt lat="61.122646" lon="13.414106">
        <ele>490.727</ele>
        <time>1970-01-01T01:00:00Z</time>
      </trkpt>
      <trkpt lat="61.122653" lon="13.414176">
        <ele>489.727</ele>
        <time>1970-01-01T01:00:00Z</time>
      </trkpt>
      <trkpt lat="61.122661" lon="13.414526">
        <ele>488.909</ele>
        <time>1970-01-01T01:00:00Z</time>
      </trkpt>
      <trkpt lat="61.12268" lon="13.414834">
        <ele>488.091</ele>
        <time>1970-01-01T01:00:00Z</time>
      </trkpt>
      <trkpt lat="61.122684" lon="13.415163">
        <ele>487.091</ele>
        <time>1970-01-01T01:00:00Z</time>
      </trkpt>
      <trkpt lat="61.122695" lon="13.415465">
        <ele>486.091</ele>
        <time>1970-01-01T01:00:00Z</time>
      </trkpt>
      <trkpt lat="61.122692" lon="13.415533">
        <ele>485.273</ele>
        <time>1970-01-01T01:00:00Z</time>
      </trkpt>
      <trkpt lat="61.122718" lon="13.415888">
        <ele>484.455</ele>
        <time>1970-01-01T01:00:00Z</time>
      </trkpt>
      <trkpt lat="61.122734" lon="13.416177">
        <ele>483.636</ele>
        <time>1970-01-01T01:00:00Z</time>
      </trkpt>
      <trkpt lat="61.122764" lon="13.416554">
        <ele>483</ele>
        <time>1970-01-01T01:00:00Z</time>
      </trkpt>
      <trkpt lat="61.122779" lon="13.416955">
        <ele>482.364</ele>
        <time>1970-01-01T01:00:00Z</time>
      </trkpt>
      <trkpt lat="61.122802" lon="13.417268">
        <ele>481.727</ele>
        <time>1970-01-01T01:00:00Z</time>
      </trkpt>
      <trkpt lat="61.122817" lon="13.417598">
        <ele>481.091</ele>
        <time>1970-01-01T01:00:00Z</time>
      </trkpt>
      <trkpt lat="61.122829" lon="13.417937">
        <ele>480.455</ele>
        <time>1970-01-01T01:00:00Z</time>
      </trkpt>
      <trkpt lat="61.122833" lon="13.418019">
        <ele>479.818</ele>
        <time>1970-01-01T01:00:00Z</time>
      </trkpt>
      <trkpt lat="61.122882" lon="13.418421">
        <ele>479.364</ele>
        <time>1970-01-01T01:00:00Z</time>
      </trkpt>
      <trkpt lat="61.122901" lon="13.418578">
        <ele>478.909</ele>
        <time>1970-01-01T01:00:00Z</time>
      </trkpt>
      <trkpt lat="61.122985" lon="13.418913">
        <ele>478.545</ele>
        <time>1970-01-01T01:00:00Z</time>
      </trkpt>
      <trkpt lat="61.123035" lon="13.419078">
        <ele>478.273</ele>
        <time>1970-01-01T01:00:00Z</time>
      </trkpt>
      <trkpt lat="61.123081" lon="13.419442">
        <ele>478</ele>
        <time>1970-01-01T01:00:00Z</time>
      </trkpt>
      <trkpt lat="61.123146" lon="13.41978">
        <ele>477.818</ele>
        <time>1970-01-01T01:00:00Z</time>
      </trkpt>
      <trkpt lat="61.123203" lon="13.420015">
        <ele>477.727</ele>
        <time>1970-01-01T01:00:00Z</time>
      </trkpt>
      <trkpt lat="61.123256" lon="13.420276">
        <ele>477.636</ele>
        <time>1970-01-01T01:00:00Z</time>
      </trkpt>
      <trkpt lat="61.12331" lon="13.420539">
        <ele>477.818</ele>
        <time>1970-01-01T01:00:00Z</time>
      </trkpt>
      <trkpt lat="61.123386" lon="13.420838">
        <ele>478.091</ele>
        <time>1970-01-01T01:00:00Z</time>
      </trkpt>
      <trkpt lat="61.123485" lon="13.421209">
        <ele>478.364</ele>
        <time>1970-01-01T01:00:00Z</time>
      </trkpt>
      <trkpt lat="61.12355" lon="13.421497">
        <ele>478.818</ele>
        <time>1970-01-01T01:00:00Z</time>
      </trkpt>
      <trkpt lat="61.123611" lon="13.42176">
        <ele>479.273</ele>
        <time>1970-01-01T01:00:00Z</time>
      </trkpt>
      <trkpt lat="61.123664" lon="13.422023">
        <ele>479.727</ele>
        <time>1970-01-01T01:00:00Z</time>
      </trkpt>
      <trkpt lat="61.123733" lon="13.422307">
        <ele>480.091</ele>
        <time>1970-01-01T01:00:00Z</time>
      </trkpt>
      <trkpt lat="61.123794" lon="13.422708">
        <ele>480.455</ele>
        <time>1970-01-01T01:00:00Z</time>
      </trkpt>
      <trkpt lat="61.123836" lon="13.422985">
        <ele>480.818</ele>
        <time>1970-01-01T01:00:00Z</time>
      </trkpt>
      <trkpt lat="61.123874" lon="13.423231">
        <ele>481.091</ele>
        <time>1970-01-01T01:00:00Z</time>
      </trkpt>
      <trkpt lat="61.123908" lon="13.423567">
        <ele>481.455</ele>
        <time>1970-01-01T01:00:00Z</time>
      </trkpt>
      <trkpt lat="61.123947" lon="13.42384">
        <ele>481.818</ele>
        <time>1970-01-01T01:00:00Z</time>
      </trkpt>
      <trkpt lat="61.123977" lon="13.424039">
        <ele>482.091</ele>
        <time>1970-01-01T01:00:00Z</time>
      </trkpt>
      <trkpt lat="61.123992" lon="13.424311">
        <ele>482.364</ele>
        <time>1970-01-01T01:00:00Z</time>
      </trkpt>
      <trkpt lat="61.124015" lon="13.424654">
        <ele>482.455</ele>
        <time>1970-01-01T01:00:00Z</time>
      </trkpt>
      <trkpt lat="61.124046" lon="13.424888">
        <ele>482.545</ele>
        <time>1970-01-01T01:00:00Z</time>
      </trkpt>
      <trkpt lat="61.124053" lon="13.42514">
        <ele>482.636</ele>
        <time>1970-01-01T01:00:00Z</time>
      </trkpt>
      <trkpt lat="61.124095" lon="13.425411">
        <ele>482.727</ele>
        <time>1970-01-01T01:00:00Z</time>
      </trkpt>
      <trkpt lat="61.124164" lon="13.425751">
        <ele>482.818</ele>
        <time>1970-01-01T01:00:00Z</time>
      </trkpt>
      <trkpt lat="61.124233" lon="13.426054">
        <ele>482.909</ele>
        <time>1970-01-01T01:00:00Z</time>
      </trkpt>
      <trkpt lat="61.124252" lon="13.426108">
        <ele>483</ele>
        <time>1970-01-01T01:00:00Z</time>
      </trkpt>
      <trkpt lat="61.124317" lon="13.426359">
        <ele>483</ele>
        <time>1970-01-01T01:00:00Z</time>
      </trkpt>
      <trkpt lat="61.12432" lon="13.426503">
        <ele>483</ele>
        <time>1970-01-01T01:00:00Z</time>
      </trkpt>
      <trkpt lat="61.12432" lon="13.426525">
        <ele>483</ele>
        <time>1970-01-01T01:00:00Z</time>
      </trkpt>
      <trkpt lat="61.124298" lon="13.426566">
        <ele>483</ele>
        <time>1970-01-01T01:00:00Z</time>
      </trkpt>
      <trkpt lat="61.124275" lon="13.426589">
        <ele>483</ele>
        <time>1970-01-01T01:00:00Z</time>
      </trkpt>
      <trkpt lat="61.124267" lon="13.42658">
        <ele>483</ele>
        <time>1970-01-01T01:00:00Z</time>
      </trkpt>
      <trkpt lat="61.124263" lon="13.426597">
        <ele>483</ele>
        <time>1970-01-01T01:00:00Z</time>
      </trkpt>
      <trkpt lat="61.124244" lon="13.426689">
        <ele>483</ele>
        <time>1970-01-01T01:00:00Z</time>
      </trkpt>
      <trkpt lat="61.124229" lon="13.426717">
        <ele>483</ele>
        <time>1970-01-01T01:00:00Z</time>
      </trkpt>
      <trkpt lat="61.124229" lon="13.426745">
        <ele>483</ele>
        <time>1970-01-01T01:00:00Z</time>
      </trkpt>
      <trkpt lat="61.124221" lon="13.426869">
        <ele>483</ele>
        <time>1970-01-01T01:00:00Z</time>
      </trkpt>
      <trkpt lat="61.124237" lon="13.426936">
        <ele>483</ele>
        <time>1970-01-01T01:00:00Z</time>
      </trkpt>
      <trkpt lat="61.12424" lon="13.426954">
        <ele>483</ele>
        <time>1970-01-01T01:00:00Z</time>
      </trkpt>
      <trkpt lat="61.124248" lon="13.427138">
        <ele>483.182</ele>
        <time>1970-01-01T01:00:00Z</time>
      </trkpt>
      <trkpt lat="61.124309" lon="13.427415">
        <ele>483.364</ele>
        <time>1970-01-01T01:00:00Z</time>
      </trkpt>
      <trkpt lat="61.124401" lon="13.427691">
        <ele>483.545</ele>
        <time>1970-01-01T01:00:00Z</time>
      </trkpt>
      <trkpt lat="61.124481" lon="13.427917">
        <ele>483.727</ele>
        <time>1970-01-01T01:00:00Z</time>
      </trkpt>
      <trkpt lat="61.124572" lon="13.428106">
        <ele>483.909</ele>
        <time>1970-01-01T01:00:00Z</time>
      </trkpt>
      <trkpt lat="61.12466" lon="13.42832">
        <ele>484.091</ele>
        <time>1970-01-01T01:00:00Z</time>
      </trkpt>
      <trkpt lat="61.124786" lon="13.42858">
        <ele>484.273</ele>
        <time>1970-01-01T01:00:00Z</time>
      </trkpt>
      <trkpt lat="61.124843" lon="13.42872">
        <ele>484.545</ele>
        <time>1970-01-01T01:00:00Z</time>
      </trkpt>
      <trkpt lat="61.124935" lon="13.428936">
        <ele>484.818</ele>
        <time>1970-01-01T01:00:00Z</time>
      </trkpt>
      <trkpt lat="61.124984" lon="13.429073">
        <ele>485.091</ele>
        <time>1970-01-01T01:00:00Z</time>
      </trkpt>
      <trkpt lat="61.125019" lon="13.429201">
        <ele>485.364</ele>
        <time>1970-01-01T01:00:00Z</time>
      </trkpt>
      <trkpt lat="61.125022" lon="13.429556">
        <ele>485.455</ele>
        <time>1970-01-01T01:00:00Z</time>
      </trkpt>
      <trkpt lat="61.125" lon="13.429705">
        <ele>485.545</ele>
        <time>1970-01-01T01:00:00Z</time>
      </trkpt>
      <trkpt lat="61.124965" lon="13.429903">
        <ele>485.636</ele>
        <time>1970-01-01T01:00:00Z</time>
      </trkpt>
      <trkpt lat="61.124958" lon="13.430184">
        <ele>485.727</ele>
        <time>1970-01-01T01:00:00Z</time>
      </trkpt>
      <trkpt lat="61.124954" lon="13.430481">
        <ele>485.818</ele>
        <time>1970-01-01T01:00:00Z</time>
      </trkpt>
      <trkpt lat="61.124954" lon="13.430988">
        <ele>485.909</ele>
        <time>1970-01-01T01:00:00Z</time>
      </trkpt>
      <trkpt lat="61.124961" lon="13.431202">
        <ele>486</ele>
        <time>1970-01-01T01:00:00Z</time>
      </trkpt>
      <trkpt lat="61.124958" lon="13.431594">
        <ele>486.182</ele>
        <time>1970-01-01T01:00:00Z</time>
      </trkpt>
      <trkpt lat="61.124973" lon="13.431909">
        <ele>486.364</ele>
        <time>1970-01-01T01:00:00Z</time>
      </trkpt>
      <trkpt lat="61.124961" lon="13.432213">
        <ele>486.545</ele>
        <time>1970-01-01T01:00:00Z</time>
      </trkpt>
      <trkpt lat="61.124954" lon="13.432498">
        <ele>486.818</ele>
        <time>1970-01-01T01:00:00Z</time>
      </trkpt>
      <trkpt lat="61.124912" lon="13.432832">
        <ele>487.091</ele>
        <time>1970-01-01T01:00:00Z</time>
      </trkpt>
      <trkpt lat="61.1249" lon="13.433211">
        <ele>487.364</ele>
        <time>1970-01-01T01:00:00Z</time>
      </trkpt>
      <trkpt lat="61.124862" lon="13.433586">
        <ele>487.636</ele>
        <time>1970-01-01T01:00:00Z</time>
      </trkpt>
      <trkpt lat="61.12482" lon="13.433874">
        <ele>487.818</ele>
        <time>1970-01-01T01:00:00Z</time>
      </trkpt>
      <trkpt lat="61.124778" lon="13.434151">
        <ele>488.091</ele>
        <time>1970-01-01T01:00:00Z</time>
      </trkpt>
      <trkpt lat="61.12474" lon="13.434416">
        <ele>488.364</ele>
        <time>1970-01-01T01:00:00Z</time>
      </trkpt>
      <trkpt lat="61.124694" lon="13.434698">
        <ele>488.636</ele>
        <time>1970-01-01T01:00:00Z</time>
      </trkpt>
      <trkpt lat="61.124645" lon="13.434981">
        <ele>488.818</ele>
        <time>1970-01-01T01:00:00Z</time>
      </trkpt>
      <trkpt lat="61.124591" lon="13.435265">
        <ele>489</ele>
        <time>1970-01-01T01:00:00Z</time>
      </trkpt>
      <trkpt lat="61.124546" lon="13.435542">
        <ele>489.182</ele>
        <time>1970-01-01T01:00:00Z</time>
      </trkpt>
      <trkpt lat="61.124496" lon="13.435868">
        <ele>489.273</ele>
        <time>1970-01-01T01:00:00Z</time>
      </trkpt>
      <trkpt lat="61.124481" lon="13.436074">
        <ele>489.364</ele>
        <time>1970-01-01T01:00:00Z</time>
      </trkpt>
      <trkpt lat="61.124469" lon="13.436346">
        <ele>489.545</ele>
        <time>1970-01-01T01:00:00Z</time>
      </trkpt>
      <trkpt lat="61.124485" lon="13.436616">
        <ele>489.727</ele>
        <time>1970-01-01T01:00:00Z</time>
      </trkpt>
      <trkpt lat="61.124477" lon="13.436778">
        <ele>490</ele>
        <time>1970-01-01T01:00:00Z</time>
      </trkpt>
      <trkpt lat="61.124412" lon="13.437">
        <ele>490.182</ele>
        <time>1970-01-01T01:00:00Z</time>
      </trkpt>
      <trkpt lat="61.124401" lon="13.437108">
        <ele>490.364</ele>
        <time>1970-01-01T01:00:00Z</time>
      </trkpt>
      <trkpt lat="61.124382" lon="13.437335">
        <ele>490.545</ele>
        <time>1970-01-01T01:00:00Z</time>
      </trkpt>
      <trkpt lat="61.124378" lon="13.437508">
        <ele>490.636</ele>
        <time>1970-01-01T01:00:00Z</time>
      </trkpt>
      <trkpt lat="61.12437" lon="13.437654">
        <ele>490.818</ele>
        <time>1970-01-01T01:00:00Z</time>
      </trkpt>
      <trkpt lat="61.124374" lon="13.437716">
        <ele>491</ele>
        <time>1970-01-01T01:00:00Z</time>
      </trkpt>
      <trkpt lat="61.12437" lon="13.438088">
        <ele>491.182</ele>
        <time>1970-01-01T01:00:00Z</time>
      </trkpt>
      <trkpt lat="61.124378" lon="13.43833">
        <ele>491.364</ele>
        <time>1970-01-01T01:00:00Z</time>
      </trkpt>
      <trkpt lat="61.124382" lon="13.438572">
        <ele>491.455</ele>
        <time>1970-01-01T01:00:00Z</time>
      </trkpt>
      <trkpt lat="61.124378" lon="13.438817">
        <ele>491.636</ele>
        <time>1970-01-01T01:00:00Z</time>
      </trkpt>
      <trkpt lat="61.124378" lon="13.43908">
        <ele>491.818</ele>
        <time>1970-01-01T01:00:00Z</time>
      </trkpt>
      <trkpt lat="61.124385" lon="13.439264">
        <ele>492</ele>
        <time>1970-01-01T01:00:00Z</time>
      </trkpt>
      <trkpt lat="61.124385" lon="13.439378">
        <ele>492.364</ele>
        <time>1970-01-01T01:00:00Z</time>
      </trkpt>
      <trkpt lat="61.124423" lon="13.43959">
        <ele>492.727</ele>
        <time>1970-01-01T01:00:00Z</time>
      </trkpt>
      <trkpt lat="61.124458" lon="13.439853">
        <ele>493.091</ele>
        <time>1970-01-01T01:00:00Z</time>
      </trkpt>
      <trkpt lat="61.124431" lon="13.440088">
        <ele>493.636</ele>
        <time>1970-01-01T01:00:00Z</time>
      </trkpt>
      <trkpt lat="61.124427" lon="13.44039">
        <ele>494.182</ele>
        <time>1970-01-01T01:00:00Z</time>
      </trkpt>
      <trkpt lat="61.124423" lon="13.440778">
        <ele>494.727</ele>
        <time>1970-01-01T01:00:00Z</time>
      </trkpt>
      <trkpt lat="61.124404" lon="13.441014">
        <ele>495.273</ele>
        <time>1970-01-01T01:00:00Z</time>
      </trkpt>
      <trkpt lat="61.124382" lon="13.441274">
        <ele>495.909</ele>
        <time>1970-01-01T01:00:00Z</time>
      </trkpt>
      <trkpt lat="61.124336" lon="13.441517">
        <ele>496.455</ele>
        <time>1970-01-01T01:00:00Z</time>
      </trkpt>
      <trkpt lat="61.124275" lon="13.441725">
        <ele>497</ele>
        <time>1970-01-01T01:00:00Z</time>
      </trkpt>
      <trkpt lat="61.124195" lon="13.441949">
        <ele>497.545</ele>
        <time>1970-01-01T01:00:00Z</time>
      </trkpt>
      <trkpt lat="61.124145" lon="13.442044">
        <ele>498.091</ele>
        <time>1970-01-01T01:00:00Z</time>
      </trkpt>
      <trkpt lat="61.12405" lon="13.442266">
        <ele>498.818</ele>
        <time>1970-01-01T01:00:00Z</time>
      </trkpt>
      <trkpt lat="61.123973" lon="13.442437">
        <ele>499.545</ele>
        <time>1970-01-01T01:00:00Z</time>
      </trkpt>
      <trkpt lat="61.123859" lon="13.442666">
        <ele>500</ele>
        <time>1970-01-01T01:00:00Z</time>
      </trkpt>
      <trkpt lat="61.123805" lon="13.442772">
        <ele>500.455</ele>
        <time>1970-01-01T01:00:00Z</time>
      </trkpt>
      <trkpt lat="61.123737" lon="13.442884">
        <ele>500.909</ele>
        <time>1970-01-01T01:00:00Z</time>
      </trkpt>
      <trkpt lat="61.123668" lon="13.443026">
        <ele>501.364</ele>
        <time>1970-01-01T01:00:00Z</time>
      </trkpt>
      <trkpt lat="61.123615" lon="13.443136">
        <ele>501.909</ele>
        <time>1970-01-01T01:00:00Z</time>
      </trkpt>
      <trkpt lat="61.123527" lon="13.44329">
        <ele>502.455</ele>
        <time>1970-01-01T01:00:00Z</time>
      </trkpt>
      <trkpt lat="61.123493" lon="13.443367">
        <ele>503</ele>
        <time>1970-01-01T01:00:00Z</time>
      </trkpt>
      <trkpt lat="61.123401" lon="13.443583">
        <ele>503.818</ele>
        <time>1970-01-01T01:00:00Z</time>
      </trkpt>
      <trkpt lat="61.123329" lon="13.443808">
        <ele>504.455</ele>
        <time>1970-01-01T01:00:00Z</time>
      </trkpt>
      <trkpt lat="61.123256" lon="13.44405">
        <ele>504.909</ele>
        <time>1970-01-01T01:00:00Z</time>
      </trkpt>
      <trkpt lat="61.123222" lon="13.444296">
        <ele>505.364</ele>
        <time>1970-01-01T01:00:00Z</time>
      </trkpt>
      <trkpt lat="61.123195" lon="13.444509">
        <ele>506</ele>
        <time>1970-01-01T01:00:00Z</time>
      </trkpt>
      <trkpt lat="61.123134" lon="13.444898">
        <ele>506.636</ele>
        <time>1970-01-01T01:00:00Z</time>
      </trkpt>
      <trkpt lat="61.123107" lon="13.445155">
        <ele>507.273</ele>
        <time>1970-01-01T01:00:00Z</time>
      </trkpt>
      <trkpt lat="61.123104" lon="13.445393">
        <ele>508</ele>
        <time>1970-01-01T01:00:00Z</time>
      </trkpt>
      <trkpt lat="61.123104" lon="13.445436">
        <ele>508.545</ele>
        <time>1970-01-01T01:00:00Z</time>
      </trkpt>
      <trkpt lat="61.123111" lon="13.44576">
        <ele>509.091</ele>
        <time>1970-01-01T01:00:00Z</time>
      </trkpt>
      <trkpt lat="61.12313" lon="13.446016">
        <ele>509.636</ele>
        <time>1970-01-01T01:00:00Z</time>
      </trkpt>
      <trkpt lat="61.123146" lon="13.446195">
        <ele>509.909</ele>
        <time>1970-01-01T01:00:00Z</time>
      </trkpt>
      <trkpt lat="61.123195" lon="13.446473">
        <ele>510.182</ele>
        <time>1970-01-01T01:00:00Z</time>
      </trkpt>
      <trkpt lat="61.12321" lon="13.446743">
        <ele>510.455</ele>
        <time>1970-01-01T01:00:00Z</time>
      </trkpt>
      <trkpt lat="61.123203" lon="13.446808">
        <ele>510.727</ele>
        <time>1970-01-01T01:00:00Z</time>
      </trkpt>
      <trkpt lat="61.123207" lon="13.447083">
        <ele>510.909</ele>
        <time>1970-01-01T01:00:00Z</time>
      </trkpt>
      <trkpt lat="61.123245" lon="13.4473">
        <ele>511.091</ele>
        <time>1970-01-01T01:00:00Z</time>
      </trkpt>
      <trkpt lat="61.123268" lon="13.447459">
        <ele>511.273</ele>
        <time>1970-01-01T01:00:00Z</time>
      </trkpt>
      <trkpt lat="61.123237" lon="13.447694">
        <ele>511.364</ele>
        <time>1970-01-01T01:00:00Z</time>
      </trkpt>
      <trkpt lat="61.123237" lon="13.447825">
        <ele>511.455</ele>
        <time>1970-01-01T01:00:00Z</time>
      </trkpt>
      <trkpt lat="61.123241" lon="13.448041">
        <ele>511.545</ele>
        <time>1970-01-01T01:00:00Z</time>
      </trkpt>
      <trkpt lat="61.123252" lon="13.448222">
        <ele>511.636</ele>
        <time>1970-01-01T01:00:00Z</time>
      </trkpt>
      <trkpt lat="61.123249" lon="13.448448">
        <ele>511.727</ele>
        <time>1970-01-01T01:00:00Z</time>
      </trkpt>
      <trkpt lat="61.123241" lon="13.448535">
        <ele>511.818</ele>
        <time>1970-01-01T01:00:00Z</time>
      </trkpt>
      <trkpt lat="61.123233" lon="13.448762">
        <ele>511.909</ele>
        <time>1970-01-01T01:00:00Z</time>
      </trkpt>
      <trkpt lat="61.123256" lon="13.449089">
        <ele>512</ele>
        <time>1970-01-01T01:00:00Z</time>
      </trkpt>
      <trkpt lat="61.12326" lon="13.449173">
        <ele>512</ele>
        <time>1970-01-01T01:00:00Z</time>
      </trkpt>
      <trkpt lat="61.123222" lon="13.449545">
        <ele>512</ele>
        <time>1970-01-01T01:00:00Z</time>
      </trkpt>
      <trkpt lat="61.123153" lon="13.449899">
        <ele>511.909</ele>
        <time>1970-01-01T01:00:00Z</time>
      </trkpt>
      <trkpt lat="61.123104" lon="13.450084">
        <ele>511.818</ele>
        <time>1970-01-01T01:00:00Z</time>
      </trkpt>
      <trkpt lat="61.123065" lon="13.450256">
        <ele>511.727</ele>
        <time>1970-01-01T01:00:00Z</time>
      </trkpt>
      <trkpt lat="61.123023" lon="13.450399">
        <ele>511.636</ele>
        <time>1970-01-01T01:00:00Z</time>
      </trkpt>
      <trkpt lat="61.122989" lon="13.45054">
        <ele>511.545</ele>
        <time>1970-01-01T01:00:00Z</time>
      </trkpt>
      <trkpt lat="61.122901" lon="13.450823">
        <ele>511.455</ele>
        <time>1970-01-01T01:00:00Z</time>
      </trkpt>
      <trkpt lat="61.122802" lon="13.451196">
        <ele>511.364</ele>
        <time>1970-01-01T01:00:00Z</time>
      </trkpt>
      <trkpt lat="61.122772" lon="13.451338">
        <ele>511.273</ele>
        <time>1970-01-01T01:00:00Z</time>
      </trkpt>
      <trkpt lat="61.122711" lon="13.451573">
        <ele>511.182</ele>
        <time>1970-01-01T01:00:00Z</time>
      </trkpt>
      <trkpt lat="61.122646" lon="13.451785">
        <ele>511.182</ele>
        <time>1970-01-01T01:00:00Z</time>
      </trkpt>
      <trkpt lat="61.122535" lon="13.45207">
        <ele>511.091</ele>
        <time>1970-01-01T01:00:00Z</time>
      </trkpt>
      <trkpt lat="61.122425" lon="13.452366">
        <ele>511.091</ele>
        <time>1970-01-01T01:00:00Z</time>
      </trkpt>
      <trkpt lat="61.122333" lon="13.45261">
        <ele>511.091</ele>
        <time>1970-01-01T01:00:00Z</time>
      </trkpt>
      <trkpt lat="61.122249" lon="13.452873">
        <ele>511.091</ele>
        <time>1970-01-01T01:00:00Z</time>
      </trkpt>
      <trkpt lat="61.122165" lon="13.45312">
        <ele>511.091</ele>
        <time>1970-01-01T01:00:00Z</time>
      </trkpt>
      <trkpt lat="61.122085" lon="13.453365">
        <ele>511.091</ele>
        <time>1970-01-01T01:00:00Z</time>
      </trkpt>
      <trkpt lat="61.121974" lon="13.453706">
        <ele>511.091</ele>
        <time>1970-01-01T01:00:00Z</time>
      </trkpt>
      <trkpt lat="61.121955" lon="13.453768">
        <ele>511.091</ele>
        <time>1970-01-01T01:00:00Z</time>
      </trkpt>
      <trkpt lat="61.121852" lon="13.453992">
        <ele>511.182</ele>
        <time>1970-01-01T01:00:00Z</time>
      </trkpt>
      <trkpt lat="61.121799" lon="13.454122">
        <ele>511.182</ele>
        <time>1970-01-01T01:00:00Z</time>
      </trkpt>
      <trkpt lat="61.121685" lon="13.454357">
        <ele>511.091</ele>
        <time>1970-01-01T01:00:00Z</time>
      </trkpt>
      <trkpt lat="61.121627" lon="13.454474">
        <ele>511.091</ele>
        <time>1970-01-01T01:00:00Z</time>
      </trkpt>
      <trkpt lat="61.12154" lon="13.454637">
        <ele>511.091</ele>
        <time>1970-01-01T01:00:00Z</time>
      </trkpt>
      <trkpt lat="61.121387" lon="13.45487">
        <ele>511.091</ele>
        <time>1970-01-01T01:00:00Z</time>
      </trkpt>
      <trkpt lat="61.121189" lon="13.455121">
        <ele>511.091</ele>
        <time>1970-01-01T01:00:00Z</time>
      </trkpt>
      <trkpt lat="61.121063" lon="13.45531">
        <ele>511.091</ele>
        <time>1970-01-01T01:00:00Z</time>
      </trkpt>
      <trkpt lat="61.120937" lon="13.455507">
        <ele>511.091</ele>
        <time>1970-01-01T01:00:00Z</time>
      </trkpt>
      <trkpt lat="61.120841" lon="13.455656">
        <ele>511.091</ele>
        <time>1970-01-01T01:00:00Z</time>
      </trkpt>
      <trkpt lat="61.120677" lon="13.45592">
        <ele>511.091</ele>
        <time>1970-01-01T01:00:00Z</time>
      </trkpt>
      <trkpt lat="61.120578" lon="13.456077">
        <ele>511</ele>
        <time>1970-01-01T01:00:00Z</time>
      </trkpt>
      <trkpt lat="61.120479" lon="13.456235">
        <ele>511</ele>
        <time>1970-01-01T01:00:00Z</time>
      </trkpt>
      <trkpt lat="61.120338" lon="13.456398">
        <ele>511</ele>
        <time>1970-01-01T01:00:00Z</time>
      </trkpt>
      <trkpt lat="61.120262" lon="13.456493">
        <ele>510.818</ele>
        <time>1970-01-01T01:00:00Z</time>
      </trkpt>
      <trkpt lat="61.120185" lon="13.456596">
        <ele>510.636</ele>
        <time>1970-01-01T01:00:00Z</time>
      </trkpt>
      <trkpt lat="61.12004" lon="13.45669">
        <ele>510.455</ele>
        <time>1970-01-01T01:00:00Z</time>
      </trkpt>
      <trkpt lat="61.119869" lon="13.456789">
        <ele>510.273</ele>
        <time>1970-01-01T01:00:00Z</time>
      </trkpt>
      <trkpt lat="61.119739" lon="13.456848">
        <ele>510.091</ele>
        <time>1970-01-01T01:00:00Z</time>
      </trkpt>
      <trkpt lat="61.119533" lon="13.456946">
        <ele>509.909</ele>
        <time>1970-01-01T01:00:00Z</time>
      </trkpt>
      <trkpt lat="61.1194" lon="13.456991">
        <ele>509.455</ele>
        <time>1970-01-01T01:00:00Z</time>
      </trkpt>
      <trkpt lat="61.119281" lon="13.457041">
        <ele>509</ele>
        <time>1970-01-01T01:00:00Z</time>
      </trkpt>
      <trkpt lat="61.119148" lon="13.457091">
        <ele>508.545</ele>
        <time>1970-01-01T01:00:00Z</time>
      </trkpt>
      <trkpt lat="61.119102" lon="13.457098">
        <ele>508.091</ele>
        <time>1970-01-01T01:00:00Z</time>
      </trkpt>
      <trkpt lat="61.118885" lon="13.457161">
        <ele>507.636</ele>
        <time>1970-01-01T01:00:00Z</time>
      </trkpt>
      <trkpt lat="61.118747" lon="13.457209">
        <ele>507.364</ele>
        <time>1970-01-01T01:00:00Z</time>
      </trkpt>
      <trkpt lat="61.118614" lon="13.457269">
        <ele>506.636</ele>
        <time>1970-01-01T01:00:00Z</time>
      </trkpt>
      <trkpt lat="61.118492" lon="13.457315">
        <ele>505.909</ele>
        <time>1970-01-01T01:00:00Z</time>
      </trkpt>
      <trkpt lat="61.11837" lon="13.45734">
        <ele>505.182</ele>
        <time>1970-01-01T01:00:00Z</time>
      </trkpt>
      <trkpt lat="61.118328" lon="13.457341">
        <ele>504.455</ele>
        <time>1970-01-01T01:00:00Z</time>
      </trkpt>
      <trkpt lat="61.11811" lon="13.457405">
        <ele>503.727</ele>
        <time>1970-01-01T01:00:00Z</time>
      </trkpt>
      <trkpt lat="61.117942" lon="13.457475">
        <ele>503.273</ele>
        <time>1970-01-01T01:00:00Z</time>
      </trkpt>
      <trkpt lat="61.117862" lon="13.457495">
        <ele>502.818</ele>
        <time>1970-01-01T01:00:00Z</time>
      </trkpt>
      <trkpt lat="61.11779" lon="13.457506">
        <ele>502.364</ele>
        <time>1970-01-01T01:00:00Z</time>
      </trkpt>
      <trkpt lat="61.11761" lon="13.457584">
        <ele>501.182</ele>
        <time>1970-01-01T01:00:00Z</time>
      </trkpt>
      <trkpt lat="61.117485" lon="13.457671">
        <ele>500</ele>
        <time>1970-01-01T01:00:00Z</time>
      </trkpt>
      <trkpt lat="61.117301" lon="13.457777">
        <ele>498.818</ele>
        <time>1970-01-01T01:00:00Z</time>
      </trkpt>
      <trkpt lat="61.117202" lon="13.45781">
        <ele>498.091</ele>
        <time>1970-01-01T01:00:00Z</time>
      </trkpt>
      <trkpt lat="61.117134" lon="13.457834">
        <ele>497.364</ele>
        <time>1970-01-01T01:00:00Z</time>
      </trkpt>
      <trkpt lat="61.116981" lon="13.457913">
        <ele>496.636</ele>
        <time>1970-01-01T01:00:00Z</time>
      </trkpt>
      <trkpt lat="61.116939" lon="13.457933">
        <ele>494.909</ele>
        <time>1970-01-01T01:00:00Z</time>
      </trkpt>
      <trkpt lat="61.116771" lon="13.458033">
        <ele>493.182</ele>
        <time>1970-01-01T01:00:00Z</time>
      </trkpt>
      <trkpt lat="61.116703" lon="13.458061">
        <ele>491.727</ele>
        <time>1970-01-01T01:00:00Z</time>
      </trkpt>
      <trkpt lat="61.116596" lon="13.458174">
        <ele>490.273</ele>
        <time>1970-01-01T01:00:00Z</time>
      </trkpt>
      <trkpt lat="61.116443" lon="13.458327">
        <ele>488.818</ele>
        <time>1970-01-01T01:00:00Z</time>
      </trkpt>
      <trkpt lat="61.116256" lon="13.458529">
        <ele>488.091</ele>
        <time>1970-01-01T01:00:00Z</time>
      </trkpt>
      <trkpt lat="61.116119" lon="13.458697">
        <ele>487.364</ele>
        <time>1970-01-01T01:00:00Z</time>
      </trkpt>
      <trkpt lat="61.116001" lon="13.45892">
        <ele>486.636</ele>
        <time>1970-01-01T01:00:00Z</time>
      </trkpt>
      <trkpt lat="61.115978" lon="13.458978">
        <ele>486.091</ele>
        <time>1970-01-01T01:00:00Z</time>
      </trkpt>
      <trkpt lat="61.115859" lon="13.459202">
        <ele>485.545</ele>
        <time>1970-01-01T01:00:00Z</time>
      </trkpt>
      <trkpt lat="61.115837" lon="13.45924">
        <ele>485.273</ele>
        <time>1970-01-01T01:00:00Z</time>
      </trkpt>
      <trkpt lat="61.115737" lon="13.459435">
        <ele>486</ele>
        <time>1970-01-01T01:00:00Z</time>
      </trkpt>
      <trkpt lat="61.115669" lon="13.459614">
        <ele>486.727</ele>
        <time>1970-01-01T01:00:00Z</time>
      </trkpt>
      <trkpt lat="61.115589" lon="13.459898">
        <ele>487.364</ele>
        <time>1970-01-01T01:00:00Z</time>
      </trkpt>
      <trkpt lat="61.115535" lon="13.460204">
        <ele>488</ele>
        <time>1970-01-01T01:00:00Z</time>
      </trkpt>
      <trkpt lat="61.115501" lon="13.460565">
        <ele>488.636</ele>
        <time>1970-01-01T01:00:00Z</time>
      </trkpt>
      <trkpt lat="61.115505" lon="13.460976">
        <ele>489.273</ele>
        <time>1970-01-01T01:00:00Z</time>
      </trkpt>
      <trkpt lat="61.115524" lon="13.4612">
        <ele>490.182</ele>
        <time>1970-01-01T01:00:00Z</time>
      </trkpt>
      <trkpt lat="61.11552" lon="13.461464">
        <ele>491.091</ele>
        <time>1970-01-01T01:00:00Z</time>
      </trkpt>
      <trkpt lat="61.115528" lon="13.461722">
        <ele>491.818</ele>
        <time>1970-01-01T01:00:00Z</time>
      </trkpt>
      <trkpt lat="61.115528" lon="13.461793">
        <ele>492.727</ele>
        <time>1970-01-01T01:00:00Z</time>
      </trkpt>
      <trkpt lat="61.115512" lon="13.462054">
        <ele>493.364</ele>
        <time>1970-01-01T01:00:00Z</time>
      </trkpt>
      <trkpt lat="61.115512" lon="13.462368">
        <ele>494</ele>
        <time>1970-01-01T01:00:00Z</time>
      </trkpt>
      <trkpt lat="61.115524" lon="13.462554">
        <ele>494.636</ele>
        <time>1970-01-01T01:00:00Z</time>
      </trkpt>
      <trkpt lat="61.115535" lon="13.46284">
        <ele>495.364</ele>
        <time>1970-01-01T01:00:00Z</time>
      </trkpt>
      <trkpt lat="61.11552" lon="13.463108">
        <ele>496.091</ele>
        <time>1970-01-01T01:00:00Z</time>
      </trkpt>
      <trkpt lat="61.115535" lon="13.463415">
        <ele>496.818</ele>
        <time>1970-01-01T01:00:00Z</time>
      </trkpt>
      <trkpt lat="61.115539" lon="13.463624">
        <ele>497.545</ele>
        <time>1970-01-01T01:00:00Z</time>
      </trkpt>
      <trkpt lat="61.115539" lon="13.463825">
        <ele>498.182</ele>
        <time>1970-01-01T01:00:00Z</time>
      </trkpt>
      <trkpt lat="61.115558" lon="13.463962">
        <ele>498.818</ele>
        <time>1970-01-01T01:00:00Z</time>
      </trkpt>
      <trkpt lat="61.11555" lon="13.464233">
        <ele>499.455</ele>
        <time>1970-01-01T01:00:00Z</time>
      </trkpt>
      <trkpt lat="61.115554" lon="13.464502">
        <ele>499.909</ele>
        <time>1970-01-01T01:00:00Z</time>
      </trkpt>
      <trkpt lat="61.115562" lon="13.464625">
        <ele>500.636</ele>
        <time>1970-01-01T01:00:00Z</time>
      </trkpt>
      <trkpt lat="61.115573" lon="13.464731">
        <ele>501.364</ele>
        <time>1970-01-01T01:00:00Z</time>
      </trkpt>
      <trkpt lat="61.115596" lon="13.464954">
        <ele>502.091</ele>
        <time>1970-01-01T01:00:00Z</time>
      </trkpt>
      <trkpt lat="61.115619" lon="13.465131">
        <ele>502.545</ele>
        <time>1970-01-01T01:00:00Z</time>
      </trkpt>
      <trkpt lat="61.115673" lon="13.465362">
        <ele>503</ele>
        <time>1970-01-01T01:00:00Z</time>
      </trkpt>
      <trkpt lat="61.115699" lon="13.465561">
        <ele>503.636</ele>
        <time>1970-01-01T01:00:00Z</time>
      </trkpt>
      <trkpt lat="61.115707" lon="13.465617">
        <ele>504.273</ele>
        <time>1970-01-01T01:00:00Z</time>
      </trkpt>
      <trkpt lat="61.115749" lon="13.465947">
        <ele>504.727</ele>
        <time>1970-01-01T01:00:00Z</time>
      </trkpt>
      <trkpt lat="61.115756" lon="13.466025">
        <ele>505.364</ele>
        <time>1970-01-01T01:00:00Z</time>
      </trkpt>
      <trkpt lat="61.115791" lon="13.466342">
        <ele>506</ele>
        <time>1970-01-01T01:00:00Z</time>
      </trkpt>
      <trkpt lat="61.115787" lon="13.466401">
        <ele>506.636</ele>
        <time>1970-01-01T01:00:00Z</time>
      </trkpt>
      <trkpt lat="61.115783" lon="13.466708">
        <ele>507.091</ele>
        <time>1970-01-01T01:00:00Z</time>
      </trkpt>
      <trkpt lat="61.115783" lon="13.466899">
        <ele>507.545</ele>
        <time>1970-01-01T01:00:00Z</time>
      </trkpt>
      <trkpt lat="61.115779" lon="13.46724">
        <ele>508</ele>
        <time>1970-01-01T01:00:00Z</time>
      </trkpt>
      <trkpt lat="61.115783" lon="13.467638">
        <ele>508.545</ele>
        <time>1970-01-01T01:00:00Z</time>
      </trkpt>
      <trkpt lat="61.115776" lon="13.467877">
        <ele>509.091</ele>
        <time>1970-01-01T01:00:00Z</time>
      </trkpt>
      <trkpt lat="61.115756" lon="13.46819">
        <ele>509.455</ele>
        <time>1970-01-01T01:00:00Z</time>
      </trkpt>
      <trkpt lat="61.115741" lon="13.468473">
        <ele>509.909</ele>
        <time>1970-01-01T01:00:00Z</time>
      </trkpt>
      <trkpt lat="61.115726" lon="13.468773">
        <ele>510.364</ele>
        <time>1970-01-01T01:00:00Z</time>
      </trkpt>
      <trkpt lat="61.115707" lon="13.469018">
        <ele>510.636</ele>
        <time>1970-01-01T01:00:00Z</time>
      </trkpt>
      <trkpt lat="61.115673" lon="13.469303">
        <ele>510.909</ele>
        <time>1970-01-01T01:00:00Z</time>
      </trkpt>
      <trkpt lat="61.11565" lon="13.469604">
        <ele>511.182</ele>
        <time>1970-01-01T01:00:00Z</time>
      </trkpt>
      <trkpt lat="61.115627" lon="13.469923">
        <ele>511.455</ele>
        <time>1970-01-01T01:00:00Z</time>
      </trkpt>
      <trkpt lat="61.1156" lon="13.470234">
        <ele>511.727</ele>
        <time>1970-01-01T01:00:00Z</time>
      </trkpt>
      <trkpt lat="61.115566" lon="13.470532">
        <ele>511.909</ele>
        <time>1970-01-01T01:00:00Z</time>
      </trkpt>
      <trkpt lat="61.115543" lon="13.470868">
        <ele>512</ele>
        <time>1970-01-01T01:00:00Z</time>
      </trkpt>
      <trkpt lat="61.115531" lon="13.471112">
        <ele>512.091</ele>
        <time>1970-01-01T01:00:00Z</time>
      </trkpt>
      <trkpt lat="61.115493" lon="13.471386">
        <ele>512.182</ele>
        <time>1970-01-01T01:00:00Z</time>
      </trkpt>
      <trkpt lat="61.115463" lon="13.471654">
        <ele>512.182</ele>
        <time>1970-01-01T01:00:00Z</time>
      </trkpt>
      <trkpt lat="61.115444" lon="13.471775">
        <ele>512.182</ele>
        <time>1970-01-01T01:00:00Z</time>
      </trkpt>
      <trkpt lat="61.11544" lon="13.472036">
        <ele>512.273</ele>
        <time>1970-01-01T01:00:00Z</time>
      </trkpt>
      <trkpt lat="61.115386" lon="13.472295">
        <ele>512.364</ele>
        <time>1970-01-01T01:00:00Z</time>
      </trkpt>
      <trkpt lat="61.115337" lon="13.47246">
        <ele>512.455</ele>
        <time>1970-01-01T01:00:00Z</time>
      </trkpt>
      <trkpt lat="61.115303" lon="13.472586">
        <ele>512.455</ele>
        <time>1970-01-01T01:00:00Z</time>
      </trkpt>
      <trkpt lat="61.115272" lon="13.472779">
        <ele>512.455</ele>
        <time>1970-01-01T01:00:00Z</time>
      </trkpt>
      <trkpt lat="61.115211" lon="13.473023">
        <ele>512.545</ele>
        <time>1970-01-01T01:00:00Z</time>
      </trkpt>
      <trkpt lat="61.115154" lon="13.473342">
        <ele>512.636</ele>
        <time>1970-01-01T01:00:00Z</time>
      </trkpt>
      <trkpt lat="61.115085" lon="13.473587">
        <ele>512.727</ele>
        <time>1970-01-01T01:00:00Z</time>
      </trkpt>
      <trkpt lat="61.115043" lon="13.473696">
        <ele>512.818</ele>
        <time>1970-01-01T01:00:00Z</time>
      </trkpt>
      <trkpt lat="61.114921" lon="13.473883">
        <ele>512.909</ele>
        <time>1970-01-01T01:00:00Z</time>
      </trkpt>
      <trkpt lat="61.114753" lon="13.47401">
        <ele>513.091</ele>
        <time>1970-01-01T01:00:00Z</time>
      </trkpt>
      <trkpt lat="61.114658" lon="13.474103">
        <ele>513.182</ele>
        <time>1970-01-01T01:00:00Z</time>
      </trkpt>
      <trkpt lat="61.11454" lon="13.474245">
        <ele>513.273</ele>
        <time>1970-01-01T01:00:00Z</time>
      </trkpt>
      <trkpt lat="61.114448" lon="13.474487">
        <ele>513.364</ele>
        <time>1970-01-01T01:00:00Z</time>
      </trkpt>
      <trkpt lat="61.114391" lon="13.474585">
        <ele>513.455</ele>
        <time>1970-01-01T01:00:00Z</time>
      </trkpt>
      <trkpt lat="61.114295" lon="13.474729">
        <ele>513.545</ele>
        <time>1970-01-01T01:00:00Z</time>
      </trkpt>
      <trkpt lat="61.114204" lon="13.474872">
        <ele>513.455</ele>
        <time>1970-01-01T01:00:00Z</time>
      </trkpt>
      <trkpt lat="61.114082" lon="13.47509">
        <ele>513.364</ele>
        <time>1970-01-01T01:00:00Z</time>
      </trkpt>
      <trkpt lat="61.114055" lon="13.475147">
        <ele>513.273</ele>
        <time>1970-01-01T01:00:00Z</time>
      </trkpt>
      <trkpt lat="61.113941" lon="13.475336">
        <ele>513.182</ele>
        <time>1970-01-01T01:00:00Z</time>
      </trkpt>
      <trkpt lat="61.113857" lon="13.475475">
        <ele>513.091</ele>
        <time>1970-01-01T01:00:00Z</time>
      </trkpt>
      <trkpt lat="61.113735" lon="13.475639">
        <ele>512.909</ele>
        <time>1970-01-01T01:00:00Z</time>
      </trkpt>
      <trkpt lat="61.113708" lon="13.475684">
        <ele>512.727</ele>
        <time>1970-01-01T01:00:00Z</time>
      </trkpt>
      <trkpt lat="61.113586" lon="13.475913">
        <ele>512.545</ele>
        <time>1970-01-01T01:00:00Z</time>
      </trkpt>
      <trkpt lat="61.113483" lon="13.476097">
        <ele>512.364</ele>
        <time>1970-01-01T01:00:00Z</time>
      </trkpt>
      <trkpt lat="61.113403" lon="13.476251">
        <ele>512.182</ele>
        <time>1970-01-01T01:00:00Z</time>
      </trkpt>
      <trkpt lat="61.113304" lon="13.476455">
        <ele>512</ele>
        <time>1970-01-01T01:00:00Z</time>
      </trkpt>
      <trkpt lat="61.113204" lon="13.476675">
        <ele>512</ele>
        <time>1970-01-01T01:00:00Z</time>
      </trkpt>
      <trkpt lat="61.113094" lon="13.476882">
        <ele>512</ele>
        <time>1970-01-01T01:00:00Z</time>
      </trkpt>
      <trkpt lat="61.112972" lon="13.477098">
        <ele>512</ele>
        <time>1970-01-01T01:00:00Z</time>
      </trkpt>
      <trkpt lat="61.112846" lon="13.47737">
        <ele>512</ele>
        <time>1970-01-01T01:00:00Z</time>
      </trkpt>
      <trkpt lat="61.112762" lon="13.477583">
        <ele>512</ele>
        <time>1970-01-01T01:00:00Z</time>
      </trkpt>
      <trkpt lat="61.112667" lon="13.477807">
        <ele>512</ele>
        <time>1970-01-01T01:00:00Z</time>
      </trkpt>
      <trkpt lat="61.112617" lon="13.477924">
        <ele>512</ele>
        <time>1970-01-01T01:00:00Z</time>
      </trkpt>
      <trkpt lat="61.11251" lon="13.478149">
        <ele>512</ele>
        <time>1970-01-01T01:00:00Z</time>
      </trkpt>
      <trkpt lat="61.112434" lon="13.478265">
        <ele>512</ele>
        <time>1970-01-01T01:00:00Z</time>
      </trkpt>
      <trkpt lat="61.112327" lon="13.478446">
        <ele>512</ele>
        <time>1970-01-01T01:00:00Z</time>
      </trkpt>
      <trkpt lat="61.112228" lon="13.478602">
        <ele>512</ele>
        <time>1970-01-01T01:00:00Z</time>
      </trkpt>
      <trkpt lat="61.112125" lon="13.478801">
        <ele>512</ele>
        <time>1970-01-01T01:00:00Z</time>
      </trkpt>
      <trkpt lat="61.112098" lon="13.478848">
        <ele>512</ele>
        <time>1970-01-01T01:00:00Z</time>
      </trkpt>
      <trkpt lat="61.111949" lon="13.479073">
        <ele>512</ele>
        <time>1970-01-01T01:00:00Z</time>
      </trkpt>
      <trkpt lat="61.111869" lon="13.479171">
        <ele>512</ele>
        <time>1970-01-01T01:00:00Z</time>
      </trkpt>
      <trkpt lat="61.111721" lon="13.479346">
        <ele>512</ele>
        <time>1970-01-01T01:00:00Z</time>
      </trkpt>
      <trkpt lat="61.111602" lon="13.479496">
        <ele>512</ele>
        <time>1970-01-01T01:00:00Z</time>
      </trkpt>
      <trkpt lat="61.111484" lon="13.479712">
        <ele>512</ele>
        <time>1970-01-01T01:00:00Z</time>
      </trkpt>
      <trkpt lat="61.111389" lon="13.479911">
        <ele>512</ele>
        <time>1970-01-01T01:00:00Z</time>
      </trkpt>
      <trkpt lat="61.111286" lon="13.480161">
        <ele>512</ele>
        <time>1970-01-01T01:00:00Z</time>
      </trkpt>
      <trkpt lat="61.111244" lon="13.480416">
        <ele>512</ele>
        <time>1970-01-01T01:00:00Z</time>
      </trkpt>
      <trkpt lat="61.111179" lon="13.480596">
        <ele>512</ele>
        <time>1970-01-01T01:00:00Z</time>
      </trkpt>
      <trkpt lat="61.111068" lon="13.480849">
        <ele>512</ele>
        <time>1970-01-01T01:00:00Z</time>
      </trkpt>
      <trkpt lat="61.110946" lon="13.48116">
        <ele>512</ele>
        <time>1970-01-01T01:00:00Z</time>
      </trkpt>
      <trkpt lat="61.110836" lon="13.481387">
        <ele>512</ele>
        <time>1970-01-01T01:00:00Z</time>
      </trkpt>
      <trkpt lat="61.110809" lon="13.481457">
        <ele>512</ele>
        <time>1970-01-01T01:00:00Z</time>
      </trkpt>
      <trkpt lat="61.110771" lon="13.481659">
        <ele>512</ele>
        <time>1970-01-01T01:00:00Z</time>
      </trkpt>
      <trkpt lat="61.110683" lon="13.481829">
        <ele>512</ele>
        <time>1970-01-01T01:00:00Z</time>
      </trkpt>
      <trkpt lat="61.11061" lon="13.482151">
        <ele>512</ele>
        <time>1970-01-01T01:00:00Z</time>
      </trkpt>
      <trkpt lat="61.110591" lon="13.48239">
        <ele>512</ele>
        <time>1970-01-01T01:00:00Z</time>
      </trkpt>
      <trkpt lat="61.110576" lon="13.482721">
        <ele>512</ele>
        <time>1970-01-01T01:00:00Z</time>
      </trkpt>
      <trkpt lat="61.110565" lon="13.483044">
        <ele>512</ele>
        <time>1970-01-01T01:00:00Z</time>
      </trkpt>
      <trkpt lat="61.110527" lon="13.483283">
        <ele>512.091</ele>
        <time>1970-01-01T01:00:00Z</time>
      </trkpt>
      <trkpt lat="61.110473" lon="13.483651">
        <ele>512.182</ele>
        <time>1970-01-01T01:00:00Z</time>
      </trkpt>
      <trkpt lat="61.110443" lon="13.48396">
        <ele>512.273</ele>
        <time>1970-01-01T01:00:00Z</time>
      </trkpt>
      <trkpt lat="61.110424" lon="13.484275">
        <ele>512.364</ele>
        <time>1970-01-01T01:00:00Z</time>
      </trkpt>
      <trkpt lat="61.110412" lon="13.48456">
        <ele>512.455</ele>
        <time>1970-01-01T01:00:00Z</time>
      </trkpt>
      <trkpt lat="61.110401" lon="13.48493">
        <ele>512.545</ele>
        <time>1970-01-01T01:00:00Z</time>
      </trkpt>
      <trkpt lat="61.110397" lon="13.485267">
        <ele>512.636</ele>
        <time>1970-01-01T01:00:00Z</time>
      </trkpt>
      <trkpt lat="61.110389" lon="13.485558">
        <ele>512.727</ele>
        <time>1970-01-01T01:00:00Z</time>
      </trkpt>
      <trkpt lat="61.110378" lon="13.485829">
        <ele>512.818</ele>
        <time>1970-01-01T01:00:00Z</time>
      </trkpt>
      <trkpt lat="61.110366" lon="13.486136">
        <ele>512.909</ele>
        <time>1970-01-01T01:00:00Z</time>
      </trkpt>
      <trkpt lat="61.110363" lon="13.486426">
        <ele>513</ele>
        <time>1970-01-01T01:00:00Z</time>
      </trkpt>
      <trkpt lat="61.110347" lon="13.486675">
        <ele>513</ele>
        <time>1970-01-01T01:00:00Z</time>
      </trkpt>
      <trkpt lat="61.110332" lon="13.486915">
        <ele>513</ele>
        <time>1970-01-01T01:00:00Z</time>
      </trkpt>
      <trkpt lat="61.110332" lon="13.487195">
        <ele>513</ele>
        <time>1970-01-01T01:00:00Z</time>
      </trkpt>
      <trkpt lat="61.110324" lon="13.487608">
        <ele>513</ele>
        <time>1970-01-01T01:00:00Z</time>
      </trkpt>
      <trkpt lat="61.110321" lon="13.487875">
        <ele>513</ele>
        <time>1970-01-01T01:00:00Z</time>
      </trkpt>
      <trkpt lat="61.110279" lon="13.488245">
        <ele>513</ele>
        <time>1970-01-01T01:00:00Z</time>
      </trkpt>
      <trkpt lat="61.110252" lon="13.48847">
        <ele>513</ele>
        <time>1970-01-01T01:00:00Z</time>
      </trkpt>
      <trkpt lat="61.11024" lon="13.488674">
        <ele>513</ele>
        <time>1970-01-01T01:00:00Z</time>
      </trkpt>
      <trkpt lat="61.110191" lon="13.488931">
        <ele>513</ele>
        <time>1970-01-01T01:00:00Z</time>
      </trkpt>
      <trkpt lat="61.110172" lon="13.489105">
        <ele>513</ele>
        <time>1970-01-01T01:00:00Z</time>
      </trkpt>
      <trkpt lat="61.110137" lon="13.489428">
        <ele>513</ele>
        <time>1970-01-01T01:00:00Z</time>
      </trkpt>
      <trkpt lat="61.11013" lon="13.489552">
        <ele>512.909</ele>
        <time>1970-01-01T01:00:00Z</time>
      </trkpt>
      <trkpt lat="61.110057" lon="13.489975">
        <ele>512.909</ele>
        <time>1970-01-01T01:00:00Z</time>
      </trkpt>
      <trkpt lat="61.109989" lon="13.49018">
        <ele>512.909</ele>
        <time>1970-01-01T01:00:00Z</time>
      </trkpt>
      <trkpt lat="61.109924" lon="13.490288">
        <ele>512.909</ele>
        <time>1970-01-01T01:00:00Z</time>
      </trkpt>
      <trkpt lat="61.109844" lon="13.490383">
        <ele>512.909</ele>
        <time>1970-01-01T01:00:00Z</time>
      </trkpt>
      <trkpt lat="61.109664" lon="13.49055">
        <ele>512.909</ele>
        <time>1970-01-01T01:00:00Z</time>
      </trkpt>
      <trkpt lat="61.109493" lon="13.490754">
        <ele>512.818</ele>
        <time>1970-01-01T01:00:00Z</time>
      </trkpt>
      <trkpt lat="61.109424" lon="13.490829">
        <ele>512.727</ele>
        <time>1970-01-01T01:00:00Z</time>
      </trkpt>
      <trkpt lat="61.109352" lon="13.490901">
        <ele>512.636</ele>
        <time>1970-01-01T01:00:00Z</time>
      </trkpt>
      <trkpt lat="61.109287" lon="13.491012">
        <ele>512.545</ele>
        <time>1970-01-01T01:00:00Z</time>
      </trkpt>
      <trkpt lat="61.109188" lon="13.491149">
        <ele>512.455</ele>
        <time>1970-01-01T01:00:00Z</time>
      </trkpt>
      <trkpt lat="61.109058" lon="13.491322">
        <ele>512.455</ele>
        <time>1970-01-01T01:00:00Z</time>
      </trkpt>
      <trkpt lat="61.108966" lon="13.49144">
        <ele>512.364</ele>
        <time>1970-01-01T01:00:00Z</time>
      </trkpt>
      <trkpt lat="61.108901" lon="13.491544">
        <ele>512.273</ele>
        <time>1970-01-01T01:00:00Z</time>
      </trkpt>
      <trkpt lat="61.108802" lon="13.491653">
        <ele>512.182</ele>
        <time>1970-01-01T01:00:00Z</time>
      </trkpt>
      <trkpt lat="61.108718" lon="13.491776">
        <ele>512.091</ele>
        <time>1970-01-01T01:00:00Z</time>
      </trkpt>
      <trkpt lat="61.108589" lon="13.491908">
        <ele>512</ele>
        <time>1970-01-01T01:00:00Z</time>
      </trkpt>
      <trkpt lat="61.108478" lon="13.492031">
        <ele>512</ele>
        <time>1970-01-01T01:00:00Z</time>
      </trkpt>
      <trkpt lat="61.108356" lon="13.492179">
        <ele>512</ele>
        <time>1970-01-01T01:00:00Z</time>
      </trkpt>
      <trkpt lat="61.108226" lon="13.492374">
        <ele>512</ele>
        <time>1970-01-01T01:00:00Z</time>
      </trkpt>
      <trkpt lat="61.108108" lon="13.492516">
        <ele>512</ele>
        <time>1970-01-01T01:00:00Z</time>
      </trkpt>
      <trkpt lat="61.108013" lon="13.492627">
        <ele>512</ele>
        <time>1970-01-01T01:00:00Z</time>
      </trkpt>
      <trkpt lat="61.107891" lon="13.492799">
        <ele>512</ele>
        <time>1970-01-01T01:00:00Z</time>
      </trkpt>
      <trkpt lat="61.107791" lon="13.492932">
        <ele>511.909</ele>
        <time>1970-01-01T01:00:00Z</time>
      </trkpt>
      <trkpt lat="61.107643" lon="13.493136">
        <ele>511.909</ele>
        <time>1970-01-01T01:00:00Z</time>
      </trkpt>
      <trkpt lat="61.107566" lon="13.493287">
        <ele>511.909</ele>
        <time>1970-01-01T01:00:00Z</time>
      </trkpt>
      <trkpt lat="61.107452" lon="13.493476">
        <ele>511.909</ele>
        <time>1970-01-01T01:00:00Z</time>
      </trkpt>
      <trkpt lat="61.107341" lon="13.493657">
        <ele>511.909</ele>
        <time>1970-01-01T01:00:00Z</time>
      </trkpt>
      <trkpt lat="61.107177" lon="13.493904">
        <ele>511.909</ele>
        <time>1970-01-01T01:00:00Z</time>
      </trkpt>
      <trkpt lat="61.107028" lon="13.494095">
        <ele>511.818</ele>
        <time>1970-01-01T01:00:00Z</time>
      </trkpt>
      <trkpt lat="61.107002" lon="13.494134">
        <ele>511.727</ele>
        <time>1970-01-01T01:00:00Z</time>
      </trkpt>
      <trkpt lat="61.106849" lon="13.494338">
        <ele>511.636</ele>
        <time>1970-01-01T01:00:00Z</time>
      </trkpt>
      <trkpt lat="61.106746" lon="13.494501">
        <ele>511.636</ele>
        <time>1970-01-01T01:00:00Z</time>
      </trkpt>
      <trkpt lat="61.106697" lon="13.494577">
        <ele>511.636</ele>
        <time>1970-01-01T01:00:00Z</time>
      </trkpt>
      <trkpt lat="61.106544" lon="13.494741">
        <ele>511.727</ele>
        <time>1970-01-01T01:00:00Z</time>
      </trkpt>
      <trkpt lat="61.106456" lon="13.494845">
        <ele>511.727</ele>
        <time>1970-01-01T01:00:00Z</time>
      </trkpt>
      <trkpt lat="61.106323" lon="13.494977">
        <ele>511.636</ele>
        <time>1970-01-01T01:00:00Z</time>
      </trkpt>
      <trkpt lat="61.106193" lon="13.495118">
        <ele>511.545</ele>
        <time>1970-01-01T01:00:00Z</time>
      </trkpt>
      <trkpt lat="61.106063" lon="13.495277">
        <ele>511.455</ele>
        <time>1970-01-01T01:00:00Z</time>
      </trkpt>
      <trkpt lat="61.105953" lon="13.495368">
        <ele>511.364</ele>
        <time>1970-01-01T01:00:00Z</time>
      </trkpt>
      <trkpt lat="61.105831" lon="13.495484">
        <ele>511.455</ele>
        <time>1970-01-01T01:00:00Z</time>
      </trkpt>
      <trkpt lat="61.105804" lon="13.495523">
        <ele>511.545</ele>
        <time>1970-01-01T01:00:00Z</time>
      </trkpt>
      <trkpt lat="61.105674" lon="13.495622">
        <ele>511.636</ele>
        <time>1970-01-01T01:00:00Z</time>
      </trkpt>
      <trkpt lat="61.105579" lon="13.49571">
        <ele>511.545</ele>
        <time>1970-01-01T01:00:00Z</time>
      </trkpt>
      <trkpt lat="61.105464" lon="13.495838">
        <ele>511.455</ele>
        <time>1970-01-01T01:00:00Z</time>
      </trkpt>
      <trkpt lat="61.105377" lon="13.495952">
        <ele>511.364</ele>
        <time>1970-01-01T01:00:00Z</time>
      </trkpt>
      <trkpt lat="61.105274" lon="13.496105">
        <ele>511.273</ele>
        <time>1970-01-01T01:00:00Z</time>
      </trkpt>
      <trkpt lat="61.105136" lon="13.496281">
        <ele>511.455</ele>
        <time>1970-01-01T01:00:00Z</time>
      </trkpt>
      <trkpt lat="61.105007" lon="13.496446">
        <ele>511.545</ele>
        <time>1970-01-01T01:00:00Z</time>
      </trkpt>
      <trkpt lat="61.104881" lon="13.496603">
        <ele>511.636</ele>
        <time>1970-01-01T01:00:00Z</time>
      </trkpt>
      <trkpt lat="61.104778" lon="13.496727">
        <ele>511.727</ele>
        <time>1970-01-01T01:00:00Z</time>
      </trkpt>
      <trkpt lat="61.104686" lon="13.496902">
        <ele>511.727</ele>
        <time>1970-01-01T01:00:00Z</time>
      </trkpt>
      <trkpt lat="61.104614" lon="13.497057">
        <ele>511.727</ele>
        <time>1970-01-01T01:00:00Z</time>
      </trkpt>
      <trkpt lat="61.104526" lon="13.497202">
        <ele>511.727</ele>
        <time>1970-01-01T01:00:00Z</time>
      </trkpt>
      <trkpt lat="61.104389" lon="13.497378">
        <ele>512</ele>
        <time>1970-01-01T01:00:00Z</time>
      </trkpt>
      <trkpt lat="61.104267" lon="13.497524">
        <ele>512.273</ele>
        <time>1970-01-01T01:00:00Z</time>
      </trkpt>
      <trkpt lat="61.104137" lon="13.49768">
        <ele>512.545</ele>
        <time>1970-01-01T01:00:00Z</time>
      </trkpt>
      <trkpt lat="61.103977" lon="13.497836">
        <ele>512.818</ele>
        <time>1970-01-01T01:00:00Z</time>
      </trkpt>
      <trkpt lat="61.103881" lon="13.497952">
        <ele>512.909</ele>
        <time>1970-01-01T01:00:00Z</time>
      </trkpt>
      <trkpt lat="61.103752" lon="13.498104">
        <ele>513.091</ele>
        <time>1970-01-01T01:00:00Z</time>
      </trkpt>
      <trkpt lat="61.10366" lon="13.498233">
        <ele>513.273</ele>
        <time>1970-01-01T01:00:00Z</time>
      </trkpt>
      <trkpt lat="61.103626" lon="13.498275">
        <ele>513.455</ele>
        <time>1970-01-01T01:00:00Z</time>
      </trkpt>
      <trkpt lat="61.103542" lon="13.498438">
        <ele>513.727</ele>
        <time>1970-01-01T01:00:00Z</time>
      </trkpt>
      <trkpt lat="61.103469" lon="13.498569">
        <ele>514</ele>
        <time>1970-01-01T01:00:00Z</time>
      </trkpt>
      <trkpt lat="61.103309" lon="13.498756">
        <ele>514.273</ele>
        <time>1970-01-01T01:00:00Z</time>
      </trkpt>
      <trkpt lat="61.103153" lon="13.498925">
        <ele>514.364</ele>
        <time>1970-01-01T01:00:00Z</time>
      </trkpt>
      <trkpt lat="61.103027" lon="13.499182">
        <ele>514.455</ele>
        <time>1970-01-01T01:00:00Z</time>
      </trkpt>
      <trkpt lat="61.102943" lon="13.499426">
        <ele>514.545</ele>
        <time>1970-01-01T01:00:00Z</time>
      </trkpt>
      <trkpt lat="61.102859" lon="13.499567">
        <ele>514.636</ele>
        <time>1970-01-01T01:00:00Z</time>
      </trkpt>
      <trkpt lat="61.102825" lon="13.499602">
        <ele>514.727</ele>
        <time>1970-01-01T01:00:00Z</time>
      </trkpt>
      <trkpt lat="61.102752" lon="13.499682">
        <ele>514.818</ele>
        <time>1970-01-01T01:00:00Z</time>
      </trkpt>
      <trkpt lat="61.102584" lon="13.499827">
        <ele>515</ele>
        <time>1970-01-01T01:00:00Z</time>
      </trkpt>
      <trkpt lat="61.102458" lon="13.499956">
        <ele>515.182</ele>
        <time>1970-01-01T01:00:00Z</time>
      </trkpt>
      <trkpt lat="61.102333" lon="13.500085">
        <ele>515.273</ele>
        <time>1970-01-01T01:00:00Z</time>
      </trkpt>
      <trkpt lat="61.102218" lon="13.500246">
        <ele>515.455</ele>
        <time>1970-01-01T01:00:00Z</time>
      </trkpt>
      <trkpt lat="61.102104" lon="13.500437">
        <ele>515.636</ele>
        <time>1970-01-01T01:00:00Z</time>
      </trkpt>
      <trkpt lat="61.102016" lon="13.500672">
        <ele>515.818</ele>
        <time>1970-01-01T01:00:00Z</time>
      </trkpt>
      <trkpt lat="61.101921" lon="13.50094">
        <ele>516</ele>
        <time>1970-01-01T01:00:00Z</time>
      </trkpt>
      <trkpt lat="61.10186" lon="13.50111">
        <ele>516.273</ele>
        <time>1970-01-01T01:00:00Z</time>
      </trkpt>
      <trkpt lat="61.101753" lon="13.50131">
        <ele>516.545</ele>
        <time>1970-01-01T01:00:00Z</time>
      </trkpt>
      <trkpt lat="61.101634" lon="13.501485">
        <ele>516.818</ele>
        <time>1970-01-01T01:00:00Z</time>
      </trkpt>
      <trkpt lat="61.101512" lon="13.501671">
        <ele>517.091</ele>
        <time>1970-01-01T01:00:00Z</time>
      </trkpt>
      <trkpt lat="61.101409" lon="13.501818">
        <ele>517.273</ele>
        <time>1970-01-01T01:00:00Z</time>
      </trkpt>
      <trkpt lat="61.101245" lon="13.501893">
        <ele>517.455</ele>
        <time>1970-01-01T01:00:00Z</time>
      </trkpt>
      <trkpt lat="61.101142" lon="13.501904">
        <ele>517.636</ele>
        <time>1970-01-01T01:00:00Z</time>
      </trkpt>
      <trkpt lat="61.100933" lon="13.502007">
        <ele>517.727</ele>
        <time>1970-01-01T01:00:00Z</time>
      </trkpt>
      <trkpt lat="61.100814" lon="13.502085">
        <ele>517.909</ele>
        <time>1970-01-01T01:00:00Z</time>
      </trkpt>
      <trkpt lat="61.100704" lon="13.502234">
        <ele>518.091</ele>
        <time>1970-01-01T01:00:00Z</time>
      </trkpt>
      <trkpt lat="61.100612" lon="13.502333">
        <ele>518.273</ele>
        <time>1970-01-01T01:00:00Z</time>
      </trkpt>
      <trkpt lat="61.100589" lon="13.50238">
        <ele>518.364</ele>
        <time>1970-01-01T01:00:00Z</time>
      </trkpt>
      <trkpt lat="61.100456" lon="13.502566">
        <ele>518.455</ele>
        <time>1970-01-01T01:00:00Z</time>
      </trkpt>
      <trkpt lat="61.100341" lon="13.50274">
        <ele>518.545</ele>
        <time>1970-01-01T01:00:00Z</time>
      </trkpt>
      <trkpt lat="61.100219" lon="13.502907">
        <ele>518.636</ele>
        <time>1970-01-01T01:00:00Z</time>
      </trkpt>
      <trkpt lat="61.100112" lon="13.503084">
        <ele>518.909</ele>
        <time>1970-01-01T01:00:00Z</time>
      </trkpt>
      <trkpt lat="61.099987" lon="13.503244">
        <ele>519.182</ele>
        <time>1970-01-01T01:00:00Z</time>
      </trkpt>
      <trkpt lat="61.099876" lon="13.503392">
        <ele>519.455</ele>
        <time>1970-01-01T01:00:00Z</time>
      </trkpt>
      <trkpt lat="61.09975" lon="13.503568">
        <ele>519.727</ele>
        <time>1970-01-01T01:00:00Z</time>
      </trkpt>
      <trkpt lat="61.09967" lon="13.503658">
        <ele>519.909</ele>
        <time>1970-01-01T01:00:00Z</time>
      </trkpt>
      <trkpt lat="61.099578" lon="13.503762">
        <ele>520.091</ele>
        <time>1970-01-01T01:00:00Z</time>
      </trkpt>
      <trkpt lat="61.099452" lon="13.503882">
        <ele>520.273</ele>
        <time>1970-01-01T01:00:00Z</time>
      </trkpt>
      <trkpt lat="61.099319" lon="13.504026">
        <ele>520.455</ele>
        <time>1970-01-01T01:00:00Z</time>
      </trkpt>
      <trkpt lat="61.099292" lon="13.504063">
        <ele>520.727</ele>
        <time>1970-01-01T01:00:00Z</time>
      </trkpt>
      <trkpt lat="61.099216" lon="13.504228">
        <ele>521.091</ele>
        <time>1970-01-01T01:00:00Z</time>
      </trkpt>
      <trkpt lat="61.099128" lon="13.50438">
        <ele>521.455</ele>
        <time>1970-01-01T01:00:00Z</time>
      </trkpt>
      <trkpt lat="61.099025" lon="13.504532">
        <ele>521.636</ele>
        <time>1970-01-01T01:00:00Z</time>
      </trkpt>
      <trkpt lat="61.098995" lon="13.504578">
        <ele>521.818</ele>
        <time>1970-01-01T01:00:00Z</time>
      </trkpt>
      <trkpt lat="61.098846" lon="13.504761">
        <ele>522</ele>
        <time>1970-01-01T01:00:00Z</time>
      </trkpt>
      <trkpt lat="61.098712" lon="13.504923">
        <ele>522.182</ele>
        <time>1970-01-01T01:00:00Z</time>
      </trkpt>
      <trkpt lat="61.098575" lon="13.505126">
        <ele>522.364</ele>
        <time>1970-01-01T01:00:00Z</time>
      </trkpt>
      <trkpt lat="61.098518" lon="13.505199">
        <ele>522.545</ele>
        <time>1970-01-01T01:00:00Z</time>
      </trkpt>
      <trkpt lat="61.098407" lon="13.505352">
        <ele>522.909</ele>
        <time>1970-01-01T01:00:00Z</time>
      </trkpt>
      <trkpt lat="61.098308" lon="13.505485">
        <ele>523.273</ele>
        <time>1970-01-01T01:00:00Z</time>
      </trkpt>
      <trkpt lat="61.098224" lon="13.505592">
        <ele>523.545</ele>
        <time>1970-01-01T01:00:00Z</time>
      </trkpt>
      <trkpt lat="61.098114" lon="13.505706">
        <ele>523.727</ele>
        <time>1970-01-01T01:00:00Z</time>
      </trkpt>
      <trkpt lat="61.098007" lon="13.505843">
        <ele>523.909</ele>
        <time>1970-01-01T01:00:00Z</time>
      </trkpt>
      <trkpt lat="61.097896" lon="13.505994">
        <ele>524.091</ele>
        <time>1970-01-01T01:00:00Z</time>
      </trkpt>
      <trkpt lat="61.097782" lon="13.506143">
        <ele>524.273</ele>
        <time>1970-01-01T01:00:00Z</time>
      </trkpt>
      <trkpt lat="61.097667" lon="13.506297">
        <ele>524.455</ele>
        <time>1970-01-01T01:00:00Z</time>
      </trkpt>
      <trkpt lat="61.097583" lon="13.506402">
        <ele>524.636</ele>
        <time>1970-01-01T01:00:00Z</time>
      </trkpt>
      <trkpt lat="61.097499" lon="13.50652">
        <ele>525</ele>
        <time>1970-01-01T01:00:00Z</time>
      </trkpt>
      <trkpt lat="61.097412" lon="13.506625">
        <ele>525.364</ele>
        <time>1970-01-01T01:00:00Z</time>
      </trkpt>
      <trkpt lat="61.097282" lon="13.506767">
        <ele>525.545</ele>
        <time>1970-01-01T01:00:00Z</time>
      </trkpt>
      <trkpt lat="61.097221" lon="13.506869">
        <ele>525.727</ele>
        <time>1970-01-01T01:00:00Z</time>
      </trkpt>
      <trkpt lat="61.097099" lon="13.507035">
        <ele>525.909</ele>
        <time>1970-01-01T01:00:00Z</time>
      </trkpt>
      <trkpt lat="61.097026" lon="13.507174">
        <ele>526.091</ele>
        <time>1970-01-01T01:00:00Z</time>
      </trkpt>
      <trkpt lat="61.096954" lon="13.507317">
        <ele>526.273</ele>
        <time>1970-01-01T01:00:00Z</time>
      </trkpt>
      <trkpt lat="61.096897" lon="13.507385">
        <ele>526.455</ele>
        <time>1970-01-01T01:00:00Z</time>
      </trkpt>
      <trkpt lat="61.096755" lon="13.50756">
        <ele>526.636</ele>
        <time>1970-01-01T01:00:00Z</time>
      </trkpt>
      <trkpt lat="61.09666" lon="13.507662">
        <ele>526.727</ele>
        <time>1970-01-01T01:00:00Z</time>
      </trkpt>
      <trkpt lat="61.096549" lon="13.507802">
        <ele>526.818</ele>
        <time>1970-01-01T01:00:00Z</time>
      </trkpt>
      <trkpt lat="61.096458" lon="13.507921">
        <ele>526.727</ele>
        <time>1970-01-01T01:00:00Z</time>
      </trkpt>
      <trkpt lat="61.096363" lon="13.508077">
        <ele>526.636</ele>
        <time>1970-01-01T01:00:00Z</time>
      </trkpt>
      <trkpt lat="61.096313" lon="13.508172">
        <ele>526.545</ele>
        <time>1970-01-01T01:00:00Z</time>
      </trkpt>
      <trkpt lat="61.096187" lon="13.508305">
        <ele>526.455</ele>
        <time>1970-01-01T01:00:00Z</time>
      </trkpt>
      <trkpt lat="61.096031" lon="13.508442">
        <ele>526.364</ele>
        <time>1970-01-01T01:00:00Z</time>
      </trkpt>
      <trkpt lat="61.095901" lon="13.508632">
        <ele>526.273</ele>
        <time>1970-01-01T01:00:00Z</time>
      </trkpt>
      <trkpt lat="61.095802" lon="13.5088">
        <ele>526.182</ele>
        <time>1970-01-01T01:00:00Z</time>
      </trkpt>
      <trkpt lat="61.09571" lon="13.50895">
        <ele>526.091</ele>
        <time>1970-01-01T01:00:00Z</time>
      </trkpt>
      <trkpt lat="61.095592" lon="13.509158">
        <ele>526</ele>
        <time>1970-01-01T01:00:00Z</time>
      </trkpt>
      <trkpt lat="61.095474" lon="13.509482">
        <ele>526</ele>
        <time>1970-01-01T01:00:00Z</time>
      </trkpt>
      <trkpt lat="61.095397" lon="13.509825">
        <ele>526</ele>
        <time>1970-01-01T01:00:00Z</time>
      </trkpt>
      <trkpt lat="61.095367" lon="13.510061">
        <ele>526</ele>
        <time>1970-01-01T01:00:00Z</time>
      </trkpt>
      <trkpt lat="61.095359" lon="13.510163">
        <ele>526</ele>
        <time>1970-01-01T01:00:00Z</time>
      </trkpt>
      <trkpt lat="61.095413" lon="13.510522">
        <ele>526</ele>
        <time>1970-01-01T01:00:00Z</time>
      </trkpt>
      <trkpt lat="61.09542" lon="13.510689">
        <ele>526</ele>
        <time>1970-01-01T01:00:00Z</time>
      </trkpt>
      <trkpt lat="61.095413" lon="13.511104">
        <ele>526</ele>
        <time>1970-01-01T01:00:00Z</time>
      </trkpt>
      <trkpt lat="61.095413" lon="13.511275">
        <ele>526</ele>
        <time>1970-01-01T01:00:00Z</time>
      </trkpt>
      <trkpt lat="61.095401" lon="13.511411">
        <ele>526</ele>
        <time>1970-01-01T01:00:00Z</time>
      </trkpt>
      <trkpt lat="61.095401" lon="13.51157">
        <ele>526</ele>
        <time>1970-01-01T01:00:00Z</time>
      </trkpt>
      <trkpt lat="61.095397" lon="13.511636">
        <ele>526</ele>
        <time>1970-01-01T01:00:00Z</time>
      </trkpt>
      <trkpt lat="61.095375" lon="13.511929">
        <ele>526</ele>
        <time>1970-01-01T01:00:00Z</time>
      </trkpt>
      <trkpt lat="61.095371" lon="13.512177">
        <ele>526</ele>
        <time>1970-01-01T01:00:00Z</time>
      </trkpt>
      <trkpt lat="61.095378" lon="13.512489">
        <ele>526</ele>
        <time>1970-01-01T01:00:00Z</time>
      </trkpt>
      <trkpt lat="61.095386" lon="13.512804">
        <ele>526</ele>
        <time>1970-01-01T01:00:00Z</time>
      </trkpt>
      <trkpt lat="61.095375" lon="13.513194">
        <ele>526</ele>
        <time>1970-01-01T01:00:00Z</time>
      </trkpt>
      <trkpt lat="61.095359" lon="13.513496">
        <ele>526</ele>
        <time>1970-01-01T01:00:00Z</time>
      </trkpt>
      <trkpt lat="61.095325" lon="13.513778">
        <ele>526</ele>
        <time>1970-01-01T01:00:00Z</time>
      </trkpt>
      <trkpt lat="61.095222" lon="13.514085">
        <ele>526</ele>
        <time>1970-01-01T01:00:00Z</time>
      </trkpt>
      <trkpt lat="61.095207" lon="13.514149">
        <ele>526</ele>
        <time>1970-01-01T01:00:00Z</time>
      </trkpt>
      <trkpt lat="61.095123" lon="13.514413">
        <ele>526</ele>
        <time>1970-01-01T01:00:00Z</time>
      </trkpt>
      <trkpt lat="61.09502" lon="13.514705">
        <ele>526.091</ele>
        <time>1970-01-01T01:00:00Z</time>
      </trkpt>
      <trkpt lat="61.094963" lon="13.514862">
        <ele>526</ele>
        <time>1970-01-01T01:00:00Z</time>
      </trkpt>
      <trkpt lat="61.094913" lon="13.51502">
        <ele>525.909</ele>
        <time>1970-01-01T01:00:00Z</time>
      </trkpt>
      <trkpt lat="61.094837" lon="13.51521">
        <ele>525.818</ele>
        <time>1970-01-01T01:00:00Z</time>
      </trkpt>
      <trkpt lat="61.094734" lon="13.515467">
        <ele>525.818</ele>
        <time>1970-01-01T01:00:00Z</time>
      </trkpt>
      <trkpt lat="61.094718" lon="13.515526">
        <ele>525.818</ele>
        <time>1970-01-01T01:00:00Z</time>
      </trkpt>
      <trkpt lat="61.094593" lon="13.515853">
        <ele>525.818</ele>
        <time>1970-01-01T01:00:00Z</time>
      </trkpt>
      <trkpt lat="61.094505" lon="13.516099">
        <ele>525.818</ele>
        <time>1970-01-01T01:00:00Z</time>
      </trkpt>
      <trkpt lat="61.094413" lon="13.516336">
        <ele>525.818</ele>
        <time>1970-01-01T01:00:00Z</time>
      </trkpt>
      <trkpt lat="61.094352" lon="13.516558">
        <ele>525.818</ele>
        <time>1970-01-01T01:00:00Z</time>
      </trkpt>
      <trkpt lat="61.094272" lon="13.516824">
        <ele>525.909</ele>
        <time>1970-01-01T01:00:00Z</time>
      </trkpt>
      <trkpt lat="61.094203" lon="13.517072">
        <ele>525.909</ele>
        <time>1970-01-01T01:00:00Z</time>
      </trkpt>
      <trkpt lat="61.094116" lon="13.517298">
        <ele>526</ele>
        <time>1970-01-01T01:00:00Z</time>
      </trkpt>
      <trkpt lat="61.094036" lon="13.51757">
        <ele>526.091</ele>
        <time>1970-01-01T01:00:00Z</time>
      </trkpt>
      <trkpt lat="61.093944" lon="13.517913">
        <ele>526.182</ele>
        <time>1970-01-01T01:00:00Z</time>
      </trkpt>
      <trkpt lat="61.093894" lon="13.518109">
        <ele>526.273</ele>
        <time>1970-01-01T01:00:00Z</time>
      </trkpt>
      <trkpt lat="61.093818" lon="13.518486">
        <ele>526.455</ele>
        <time>1970-01-01T01:00:00Z</time>
      </trkpt>
      <trkpt lat="61.093769" lon="13.51881">
        <ele>526.636</ele>
        <time>1970-01-01T01:00:00Z</time>
      </trkpt>
      <trkpt lat="61.093757" lon="13.519167">
        <ele>526.818</ele>
        <time>1970-01-01T01:00:00Z</time>
      </trkpt>
      <trkpt lat="61.093772" lon="13.519387">
        <ele>527</ele>
        <time>1970-01-01T01:00:00Z</time>
      </trkpt>
      <trkpt lat="61.093799" lon="13.519716">
        <ele>527.182</ele>
        <time>1970-01-01T01:00:00Z</time>
      </trkpt>
      <trkpt lat="61.093818" lon="13.519891">
        <ele>527.364</ele>
        <time>1970-01-01T01:00:00Z</time>
      </trkpt>
      <trkpt lat="61.093814" lon="13.520212">
        <ele>527.545</ele>
        <time>1970-01-01T01:00:00Z</time>
      </trkpt>
      <trkpt lat="61.093807" lon="13.520487">
        <ele>527.818</ele>
        <time>1970-01-01T01:00:00Z</time>
      </trkpt>
      <trkpt lat="61.093818" lon="13.520799">
        <ele>528.091</ele>
        <time>1970-01-01T01:00:00Z</time>
      </trkpt>
      <trkpt lat="61.093822" lon="13.520981">
        <ele>528.364</ele>
        <time>1970-01-01T01:00:00Z</time>
      </trkpt>
      <trkpt lat="61.093868" lon="13.52138">
        <ele>528.545</ele>
        <time>1970-01-01T01:00:00Z</time>
      </trkpt>
      <trkpt lat="61.09391" lon="13.521756">
        <ele>528.636</ele>
        <time>1970-01-01T01:00:00Z</time>
      </trkpt>
      <trkpt lat="61.09391" lon="13.521913">
        <ele>528.727</ele>
        <time>1970-01-01T01:00:00Z</time>
      </trkpt>
      <trkpt lat="61.093872" lon="13.522082">
        <ele>528.818</ele>
        <time>1970-01-01T01:00:00Z</time>
      </trkpt>
      <trkpt lat="61.093864" lon="13.522119">
        <ele>528.909</ele>
        <time>1970-01-01T01:00:00Z</time>
      </trkpt>
      <trkpt lat="61.093807" lon="13.522549">
        <ele>529</ele>
        <time>1970-01-01T01:00:00Z</time>
      </trkpt>
      <trkpt lat="61.093788" lon="13.522789">
        <ele>529.091</ele>
        <time>1970-01-01T01:00:00Z</time>
      </trkpt>
      <trkpt lat="61.093723" lon="13.52315">
        <ele>529.182</ele>
        <time>1970-01-01T01:00:00Z</time>
      </trkpt>
      <trkpt lat="61.093677" lon="13.523319">
        <ele>529.273</ele>
        <time>1970-01-01T01:00:00Z</time>
      </trkpt>
      <trkpt lat="61.093608" lon="13.523591">
        <ele>529.364</ele>
        <time>1970-01-01T01:00:00Z</time>
      </trkpt>
      <trkpt lat="61.093566" lon="13.523781">
        <ele>529.636</ele>
        <time>1970-01-01T01:00:00Z</time>
      </trkpt>
      <trkpt lat="61.093536" lon="13.523911">
        <ele>529.909</ele>
        <time>1970-01-01T01:00:00Z</time>
      </trkpt>
      <trkpt lat="61.093444" lon="13.524173">
        <ele>530.182</ele>
        <time>1970-01-01T01:00:00Z</time>
      </trkpt>
      <trkpt lat="61.09336" lon="13.52437">
        <ele>530.455</ele>
        <time>1970-01-01T01:00:00Z</time>
      </trkpt>
      <trkpt lat="61.093311" lon="13.524476">
        <ele>531</ele>
        <time>1970-01-01T01:00:00Z</time>
      </trkpt>
      <trkpt lat="61.093246" lon="13.524819">
        <ele>531.545</ele>
        <time>1970-01-01T01:00:00Z</time>
      </trkpt>
      <trkpt lat="61.093158" lon="13.525128">
        <ele>532.091</ele>
        <time>1970-01-01T01:00:00Z</time>
      </trkpt>
      <trkpt lat="61.093112" lon="13.525339">
        <ele>532.727</ele>
        <time>1970-01-01T01:00:00Z</time>
      </trkpt>
      <trkpt lat="61.093101" lon="13.525497">
        <ele>533.364</ele>
        <time>1970-01-01T01:00:00Z</time>
      </trkpt>
      <trkpt lat="61.093093" lon="13.525802">
        <ele>534</ele>
        <time>1970-01-01T01:00:00Z</time>
      </trkpt>
      <trkpt lat="61.093109" lon="13.525899">
        <ele>534.727</ele>
        <time>1970-01-01T01:00:00Z</time>
      </trkpt>
      <trkpt lat="61.093173" lon="13.526318">
        <ele>535.273</ele>
        <time>1970-01-01T01:00:00Z</time>
      </trkpt>
      <trkpt lat="61.093193" lon="13.526496">
        <ele>535.818</ele>
        <time>1970-01-01T01:00:00Z</time>
      </trkpt>
      <trkpt lat="61.093204" lon="13.526798">
        <ele>536.545</ele>
        <time>1970-01-01T01:00:00Z</time>
      </trkpt>
      <trkpt lat="61.093215" lon="13.526953">
        <ele>537.273</ele>
        <time>1970-01-01T01:00:00Z</time>
      </trkpt>
      <trkpt lat="61.093261" lon="13.527212">
        <ele>538.727</ele>
        <time>1970-01-01T01:00:00Z</time>
      </trkpt>
      <trkpt lat="61.093273" lon="13.527509">
        <ele>540.182</ele>
        <time>1970-01-01T01:00:00Z</time>
      </trkpt>
      <trkpt lat="61.093254" lon="13.527894">
        <ele>541.636</ele>
        <time>1970-01-01T01:00:00Z</time>
      </trkpt>
      <trkpt lat="61.093223" lon="13.528154">
        <ele>543.636</ele>
        <time>1970-01-01T01:00:00Z</time>
      </trkpt>
      <trkpt lat="61.093231" lon="13.528544">
        <ele>545.636</ele>
        <time>1970-01-01T01:00:00Z</time>
      </trkpt>
      <trkpt lat="61.09325" lon="13.528867">
        <ele>546.636</ele>
        <time>1970-01-01T01:00:00Z</time>
      </trkpt>
      <trkpt lat="61.093254" lon="13.529352">
        <ele>546.182</ele>
        <time>1970-01-01T01:00:00Z</time>
      </trkpt>
      <trkpt lat="61.093257" lon="13.529408">
        <ele>545.727</ele>
        <time>1970-01-01T01:00:00Z</time>
      </trkpt>
      <trkpt lat="61.093345" lon="13.529842">
        <ele>544.455</ele>
        <time>1970-01-01T01:00:00Z</time>
      </trkpt>
      <trkpt lat="61.093379" lon="13.529996">
        <ele>543</ele>
        <time>1970-01-01T01:00:00Z</time>
      </trkpt>
      <trkpt lat="61.093509" lon="13.530687">
        <ele>541.545</ele>
        <time>1970-01-01T01:00:00Z</time>
      </trkpt>
      <trkpt lat="61.093631" lon="13.531378">
        <ele>537.455</ele>
        <time>1970-01-01T01:00:00Z</time>
      </trkpt>
      <trkpt lat="61.093685" lon="13.531724">
        <ele>533.364</ele>
        <time>1970-01-01T01:00:00Z</time>
      </trkpt>
      <trkpt lat="61.09375" lon="13.532172">
        <ele>529.273</ele>
        <time>1970-01-01T01:00:00Z</time>
      </trkpt>
      <trkpt lat="61.093769" lon="13.532487">
        <ele>524</ele>
        <time>1970-01-01T01:00:00Z</time>
      </trkpt>
      <trkpt lat="61.093795" lon="13.532746">
        <ele>518.727</ele>
        <time>1970-01-01T01:00:00Z</time>
      </trkpt>
      <trkpt lat="61.093818" lon="13.533022">
        <ele>514.273</ele>
        <time>1970-01-01T01:00:00Z</time>
      </trkpt>
      <trkpt lat="61.093872" lon="13.533497">
        <ele>511.182</ele>
        <time>1970-01-01T01:00:00Z</time>
      </trkpt>
      <trkpt lat="61.093894" lon="13.533798">
        <ele>508</ele>
        <time>1970-01-01T01:00:00Z</time>
      </trkpt>
      <trkpt lat="61.093971" lon="13.534291">
        <ele>505.636</ele>
        <time>1970-01-01T01:00:00Z</time>
      </trkpt>
      <trkpt lat="61.094036" lon="13.534669">
        <ele>503.273</ele>
        <time>1970-01-01T01:00:00Z</time>
      </trkpt>
      <trkpt lat="61.094123" lon="13.53514">
        <ele>500.727</ele>
        <time>1970-01-01T01:00:00Z</time>
      </trkpt>
      <trkpt lat="61.094184" lon="13.535466">
        <ele>499.818</ele>
        <time>1970-01-01T01:00:00Z</time>
      </trkpt>
      <trkpt lat="61.094223" lon="13.535665">
        <ele>498.909</ele>
        <time>1970-01-01T01:00:00Z</time>
      </trkpt>
      <trkpt lat="61.094253" lon="13.536148">
        <ele>498</ele>
        <time>1970-01-01T01:00:00Z</time>
      </trkpt>
      <trkpt lat="61.094245" lon="13.536248">
        <ele>497.455</ele>
        <time>1970-01-01T01:00:00Z</time>
      </trkpt>
      <trkpt lat="61.094234" lon="13.536443">
        <ele>496.909</ele>
        <time>1970-01-01T01:00:00Z</time>
      </trkpt>
      <trkpt lat="61.094188" lon="13.536869">
        <ele>496.545</ele>
        <time>1970-01-01T01:00:00Z</time>
      </trkpt>
      <trkpt lat="61.094123" lon="13.537423">
        <ele>496.364</ele>
        <time>1970-01-01T01:00:00Z</time>
      </trkpt>
      <trkpt lat="61.094085" lon="13.537641">
        <ele>496.273</ele>
        <time>1970-01-01T01:00:00Z</time>
      </trkpt>
      <trkpt lat="61.094036" lon="13.537989">
        <ele>496.182</ele>
        <time>1970-01-01T01:00:00Z</time>
      </trkpt>
      <trkpt lat="61.09394" lon="13.538443">
        <ele>496</ele>
        <time>1970-01-01T01:00:00Z</time>
      </trkpt>
      <trkpt lat="61.093826" lon="13.538795">
        <ele>496</ele>
        <time>1970-01-01T01:00:00Z</time>
      </trkpt>
      <trkpt lat="61.093799" lon="13.538868">
        <ele>496</ele>
        <time>1970-01-01T01:00:00Z</time>
      </trkpt>
      <trkpt lat="61.093624" lon="13.539175">
        <ele>496.273</ele>
        <time>1970-01-01T01:00:00Z</time>
      </trkpt>
      <trkpt lat="61.093421" lon="13.539478">
        <ele>496.545</ele>
        <time>1970-01-01T01:00:00Z</time>
      </trkpt>
      <trkpt lat="61.09325" lon="13.539676">
        <ele>496.909</ele>
        <time>1970-01-01T01:00:00Z</time>
      </trkpt>
      <trkpt lat="61.093139" lon="13.539826">
        <ele>497.182</ele>
        <time>1970-01-01T01:00:00Z</time>
      </trkpt>
      <trkpt lat="61.093109" lon="13.539868">
        <ele>497.455</ele>
        <time>1970-01-01T01:00:00Z</time>
      </trkpt>
      <trkpt lat="61.092983" lon="13.540051">
        <ele>497.545</ele>
        <time>1970-01-01T01:00:00Z</time>
      </trkpt>
      <trkpt lat="61.09288" lon="13.540184">
        <ele>497.636</ele>
        <time>1970-01-01T01:00:00Z</time>
      </trkpt>
      <trkpt lat="61.0927" lon="13.540405">
        <ele>497.727</ele>
        <time>1970-01-01T01:00:00Z</time>
      </trkpt>
      <trkpt lat="61.092632" lon="13.540498">
        <ele>497.909</ele>
        <time>1970-01-01T01:00:00Z</time>
      </trkpt>
      <trkpt lat="61.092453" lon="13.540754">
        <ele>498.182</ele>
        <time>1970-01-01T01:00:00Z</time>
      </trkpt>
      <trkpt lat="61.092422" lon="13.54081">
        <ele>498.455</ele>
        <time>1970-01-01T01:00:00Z</time>
      </trkpt>
      <trkpt lat="61.092281" lon="13.541009">
        <ele>498.455</ele>
        <time>1970-01-01T01:00:00Z</time>
      </trkpt>
      <trkpt lat="61.092254" lon="13.541057">
        <ele>498.455</ele>
        <time>1970-01-01T01:00:00Z</time>
      </trkpt>
      <trkpt lat="61.092109" lon="13.541292">
        <ele>498.455</ele>
        <time>1970-01-01T01:00:00Z</time>
      </trkpt>
      <trkpt lat="61.092025" lon="13.54144">
        <ele>498.545</ele>
        <time>1970-01-01T01:00:00Z</time>
      </trkpt>
      <trkpt lat="61.091972" lon="13.541524">
        <ele>498.545</ele>
        <time>1970-01-01T01:00:00Z</time>
      </trkpt>
      <trkpt lat="61.091819" lon="13.54178">
        <ele>498.545</ele>
        <time>1970-01-01T01:00:00Z</time>
      </trkpt>
      <trkpt lat="61.091793" lon="13.541817">
        <ele>498.636</ele>
        <time>1970-01-01T01:00:00Z</time>
      </trkpt>
      <trkpt lat="61.091678" lon="13.541993">
        <ele>498.727</ele>
        <time>1970-01-01T01:00:00Z</time>
      </trkpt>
      <trkpt lat="61.091617" lon="13.542094">
        <ele>498.818</ele>
        <time>1970-01-01T01:00:00Z</time>
      </trkpt>
      <trkpt lat="61.091461" lon="13.542332">
        <ele>498.818</ele>
        <time>1970-01-01T01:00:00Z</time>
      </trkpt>
      <trkpt lat="61.091342" lon="13.542508">
        <ele>498.818</ele>
        <time>1970-01-01T01:00:00Z</time>
      </trkpt>
      <trkpt lat="61.09127" lon="13.542633">
        <ele>498.727</ele>
        <time>1970-01-01T01:00:00Z</time>
      </trkpt>
      <trkpt lat="61.091239" lon="13.542675">
        <ele>498.636</ele>
        <time>1970-01-01T01:00:00Z</time>
      </trkpt>
      <trkpt lat="61.091205" lon="13.542781">
        <ele>498.545</ele>
        <time>1970-01-01T01:00:00Z</time>
      </trkpt>
      <trkpt lat="61.091182" lon="13.542829">
        <ele>498.455</ele>
        <time>1970-01-01T01:00:00Z</time>
      </trkpt>
      <trkpt lat="61.091136" lon="13.542909">
        <ele>498.455</ele>
        <time>1970-01-01T01:00:00Z</time>
      </trkpt>
      <trkpt lat="61.091022" lon="13.543145">
        <ele>498.455</ele>
        <time>1970-01-01T01:00:00Z</time>
      </trkpt>
      <trkpt lat="61.090957" lon="13.543303">
        <ele>498.364</ele>
        <time>1970-01-01T01:00:00Z</time>
      </trkpt>
      <trkpt lat="61.090827" lon="13.543552">
        <ele>498.273</ele>
        <time>1970-01-01T01:00:00Z</time>
      </trkpt>
      <trkpt lat="61.090721" lon="13.543752">
        <ele>498.182</ele>
        <time>1970-01-01T01:00:00Z</time>
      </trkpt>
      <trkpt lat="61.090652" lon="13.543854">
        <ele>498.091</ele>
        <time>1970-01-01T01:00:00Z</time>
      </trkpt>
      <trkpt lat="61.090564" lon="13.544014">
        <ele>498</ele>
        <time>1970-01-01T01:00:00Z</time>
      </trkpt>
      <trkpt lat="61.090423" lon="13.544269">
        <ele>498</ele>
        <time>1970-01-01T01:00:00Z</time>
      </trkpt>
      <trkpt lat="61.090351" lon="13.544455">
        <ele>498</ele>
        <time>1970-01-01T01:00:00Z</time>
      </trkpt>
      <trkpt lat="61.090206" lon="13.544725">
        <ele>498</ele>
        <time>1970-01-01T01:00:00Z</time>
      </trkpt>
      <trkpt lat="61.09011" lon="13.544909">
        <ele>498.091</ele>
        <time>1970-01-01T01:00:00Z</time>
      </trkpt>
      <trkpt lat="61.09008" lon="13.544963">
        <ele>498.182</ele>
        <time>1970-01-01T01:00:00Z</time>
      </trkpt>
      <trkpt lat="61.08995" lon="13.545226">
        <ele>498.273</ele>
        <time>1970-01-01T01:00:00Z</time>
      </trkpt>
      <trkpt lat="61.089847" lon="13.545417">
        <ele>498.364</ele>
        <time>1970-01-01T01:00:00Z</time>
      </trkpt>
      <trkpt lat="61.089775" lon="13.545534">
        <ele>498.364</ele>
        <time>1970-01-01T01:00:00Z</time>
      </trkpt>
      <trkpt lat="61.089599" lon="13.545791">
        <ele>498.364</ele>
        <time>1970-01-01T01:00:00Z</time>
      </trkpt>
      <trkpt lat="61.089565" lon="13.545844">
        <ele>498.364</ele>
        <time>1970-01-01T01:00:00Z</time>
      </trkpt>
      <trkpt lat="61.08942" lon="13.546101">
        <ele>498.364</ele>
        <time>1970-01-01T01:00:00Z</time>
      </trkpt>
      <trkpt lat="61.089347" lon="13.546277">
        <ele>498.364</ele>
        <time>1970-01-01T01:00:00Z</time>
      </trkpt>
      <trkpt lat="61.089328" lon="13.546346">
        <ele>498.364</ele>
        <time>1970-01-01T01:00:00Z</time>
      </trkpt>
      <trkpt lat="61.089225" lon="13.546618">
        <ele>498.364</ele>
        <time>1970-01-01T01:00:00Z</time>
      </trkpt>
      <trkpt lat="61.089172" lon="13.546751">
        <ele>498.273</ele>
        <time>1970-01-01T01:00:00Z</time>
      </trkpt>
      <trkpt lat="61.089145" lon="13.546817">
        <ele>498.182</ele>
        <time>1970-01-01T01:00:00Z</time>
      </trkpt>
      <trkpt lat="61.089046" lon="13.547095">
        <ele>498</ele>
        <time>1970-01-01T01:00:00Z</time>
      </trkpt>
      <trkpt lat="61.088935" lon="13.54743">
        <ele>497.818</ele>
        <time>1970-01-01T01:00:00Z</time>
      </trkpt>
      <trkpt lat="61.088871" lon="13.54765">
        <ele>497.727</ele>
        <time>1970-01-01T01:00:00Z</time>
      </trkpt>
      <trkpt lat="61.088809" lon="13.547871">
        <ele>497.636</ele>
        <time>1970-01-01T01:00:00Z</time>
      </trkpt>
      <trkpt lat="61.088771" lon="13.547971">
        <ele>497.545</ele>
        <time>1970-01-01T01:00:00Z</time>
      </trkpt>
      <trkpt lat="61.088745" lon="13.54801">
        <ele>497.455</ele>
        <time>1970-01-01T01:00:00Z</time>
      </trkpt>
      <trkpt lat="61.088722" lon="13.548058">
        <ele>497.364</ele>
        <time>1970-01-01T01:00:00Z</time>
      </trkpt>
      <trkpt lat="61.088676" lon="13.548174">
        <ele>497.273</ele>
        <time>1970-01-01T01:00:00Z</time>
      </trkpt>
      <trkpt lat="61.088596" lon="13.548365">
        <ele>497.182</ele>
        <time>1970-01-01T01:00:00Z</time>
      </trkpt>
      <trkpt lat="61.088516" lon="13.548527">
        <ele>497.091</ele>
        <time>1970-01-01T01:00:00Z</time>
      </trkpt>
      <trkpt lat="61.088436" lon="13.548706">
        <ele>497</ele>
        <time>1970-01-01T01:00:00Z</time>
      </trkpt>
      <trkpt lat="61.088359" lon="13.548899">
        <ele>497</ele>
        <time>1970-01-01T01:00:00Z</time>
      </trkpt>
      <trkpt lat="61.088333" lon="13.548965">
        <ele>496.909</ele>
        <time>1970-01-01T01:00:00Z</time>
      </trkpt>
      <trkpt lat="61.088302" lon="13.549037">
        <ele>496.818</ele>
        <time>1970-01-01T01:00:00Z</time>
      </trkpt>
      <trkpt lat="61.088188" lon="13.549324">
        <ele>496.727</ele>
        <time>1970-01-01T01:00:00Z</time>
      </trkpt>
      <trkpt lat="61.088153" lon="13.549442">
        <ele>496.636</ele>
        <time>1970-01-01T01:00:00Z</time>
      </trkpt>
      <trkpt lat="61.088127" lon="13.54959">
        <ele>496.545</ele>
        <time>1970-01-01T01:00:00Z</time>
      </trkpt>
      <trkpt lat="61.088119" lon="13.549663">
        <ele>496.455</ele>
        <time>1970-01-01T01:00:00Z</time>
      </trkpt>
      <trkpt lat="61.088062" lon="13.549958">
        <ele>496.364</ele>
        <time>1970-01-01T01:00:00Z</time>
      </trkpt>
      <trkpt lat="61.088012" lon="13.550168">
        <ele>496.182</ele>
        <time>1970-01-01T01:00:00Z</time>
      </trkpt>
      <trkpt lat="61.087955" lon="13.550423">
        <ele>496</ele>
        <time>1970-01-01T01:00:00Z</time>
      </trkpt>
      <trkpt lat="61.087917" lon="13.550734">
        <ele>495.818</ele>
        <time>1970-01-01T01:00:00Z</time>
      </trkpt>
      <trkpt lat="61.087867" lon="13.551026">
        <ele>495.636</ele>
        <time>1970-01-01T01:00:00Z</time>
      </trkpt>
      <trkpt lat="61.087844" lon="13.551187">
        <ele>495.545</ele>
        <time>1970-01-01T01:00:00Z</time>
      </trkpt>
      <trkpt lat="61.087818" lon="13.551356">
        <ele>495.455</ele>
        <time>1970-01-01T01:00:00Z</time>
      </trkpt>
      <trkpt lat="61.087806" lon="13.55144">
        <ele>495.364</ele>
        <time>1970-01-01T01:00:00Z</time>
      </trkpt>
      <trkpt lat="61.087772" lon="13.551777">
        <ele>495.091</ele>
        <time>1970-01-01T01:00:00Z</time>
      </trkpt>
      <trkpt lat="61.087772" lon="13.551858">
        <ele>494.818</ele>
        <time>1970-01-01T01:00:00Z</time>
      </trkpt>
      <trkpt lat="61.087757" lon="13.552323">
        <ele>494.455</ele>
        <time>1970-01-01T01:00:00Z</time>
      </trkpt>
      <trkpt lat="61.087734" lon="13.552649">
        <ele>494.091</ele>
        <time>1970-01-01T01:00:00Z</time>
      </trkpt>
      <trkpt lat="61.087703" lon="13.552985">
        <ele>493.818</ele>
        <time>1970-01-01T01:00:00Z</time>
      </trkpt>
      <trkpt lat="61.087692" lon="13.553322">
        <ele>493.364</ele>
        <time>1970-01-01T01:00:00Z</time>
      </trkpt>
      <trkpt lat="61.087665" lon="13.553639">
        <ele>492.909</ele>
        <time>1970-01-01T01:00:00Z</time>
      </trkpt>
      <trkpt lat="61.087646" lon="13.553934">
        <ele>492.455</ele>
        <time>1970-01-01T01:00:00Z</time>
      </trkpt>
      <trkpt lat="61.087635" lon="13.554213">
        <ele>492</ele>
        <time>1970-01-01T01:00:00Z</time>
      </trkpt>
      <trkpt lat="61.087638" lon="13.554513">
        <ele>491.545</ele>
        <time>1970-01-01T01:00:00Z</time>
      </trkpt>
      <trkpt lat="61.087635" lon="13.554884">
        <ele>491</ele>
        <time>1970-01-01T01:00:00Z</time>
      </trkpt>
      <trkpt lat="61.087627" lon="13.555127">
        <ele>490.636</ele>
        <time>1970-01-01T01:00:00Z</time>
      </trkpt>
      <trkpt lat="61.087623" lon="13.555227">
        <ele>490.182</ele>
        <time>1970-01-01T01:00:00Z</time>
      </trkpt>
      <trkpt lat="61.087623" lon="13.5554">
        <ele>489.818</ele>
        <time>1970-01-01T01:00:00Z</time>
      </trkpt>
      <trkpt lat="61.087619" lon="13.555478">
        <ele>489.455</ele>
        <time>1970-01-01T01:00:00Z</time>
      </trkpt>
      <trkpt lat="61.087612" lon="13.555901">
        <ele>489</ele>
        <time>1970-01-01T01:00:00Z</time>
      </trkpt>
      <trkpt lat="61.087612" lon="13.556075">
        <ele>488.727</ele>
        <time>1970-01-01T01:00:00Z</time>
      </trkpt>
      <trkpt lat="61.087585" lon="13.556521">
        <ele>488.455</ele>
        <time>1970-01-01T01:00:00Z</time>
      </trkpt>
      <trkpt lat="61.087558" lon="13.556821">
        <ele>488.182</ele>
        <time>1970-01-01T01:00:00Z</time>
      </trkpt>
      <trkpt lat="61.087535" lon="13.557101">
        <ele>487.909</ele>
        <time>1970-01-01T01:00:00Z</time>
      </trkpt>
      <trkpt lat="61.087516" lon="13.55736">
        <ele>487.636</ele>
        <time>1970-01-01T01:00:00Z</time>
      </trkpt>
      <trkpt lat="61.087505" lon="13.557657">
        <ele>487.364</ele>
        <time>1970-01-01T01:00:00Z</time>
      </trkpt>
      <trkpt lat="61.087501" lon="13.557948">
        <ele>487.091</ele>
        <time>1970-01-01T01:00:00Z</time>
      </trkpt>
      <trkpt lat="61.087512" lon="13.558218">
        <ele>486.909</ele>
        <time>1970-01-01T01:00:00Z</time>
      </trkpt>
      <trkpt lat="61.08752" lon="13.558315">
        <ele>486.182</ele>
        <time>1970-01-01T01:00:00Z</time>
      </trkpt>
      <trkpt lat="61.087539" lon="13.558663">
        <ele>485.455</ele>
        <time>1970-01-01T01:00:00Z</time>
      </trkpt>
      <trkpt lat="61.087543" lon="13.558812">
        <ele>484.818</ele>
        <time>1970-01-01T01:00:00Z</time>
      </trkpt>
      <trkpt lat="61.087566" lon="13.559188">
        <ele>484.091</ele>
        <time>1970-01-01T01:00:00Z</time>
      </trkpt>
      <trkpt lat="61.087562" lon="13.559465">
        <ele>483.273</ele>
        <time>1970-01-01T01:00:00Z</time>
      </trkpt>
      <trkpt lat="61.087566" lon="13.559641">
        <ele>482.455</ele>
        <time>1970-01-01T01:00:00Z</time>
      </trkpt>
      <trkpt lat="61.087577" lon="13.560107">
        <ele>481.545</ele>
        <time>1970-01-01T01:00:00Z</time>
      </trkpt>
      <trkpt lat="61.087566" lon="13.560236">
        <ele>480.636</ele>
        <time>1970-01-01T01:00:00Z</time>
      </trkpt>
      <trkpt lat="61.087482" lon="13.561245">
        <ele>479.727</ele>
        <time>1970-01-01T01:00:00Z</time>
      </trkpt>
      <trkpt lat="61.087402" lon="13.562113">
        <ele>478.818</ele>
        <time>1970-01-01T01:00:00Z</time>
      </trkpt>
      <trkpt lat="61.087326" lon="13.562964">
        <ele>477.818</ele>
        <time>1970-01-01T01:00:00Z</time>
      </trkpt>
      <trkpt lat="61.087318" lon="13.563085">
        <ele>477.364</ele>
        <time>1970-01-01T01:00:00Z</time>
      </trkpt>
      <trkpt lat="61.08728" lon="13.563864">
        <ele>476.818</ele>
        <time>1970-01-01T01:00:00Z</time>
      </trkpt>
      <trkpt lat="61.087268" lon="13.564333">
        <ele>476.273</ele>
        <time>1970-01-01T01:00:00Z</time>
      </trkpt>
      <trkpt lat="61.087234" lon="13.564656">
        <ele>475.818</ele>
        <time>1970-01-01T01:00:00Z</time>
      </trkpt>
      <trkpt lat="61.087219" lon="13.565088">
        <ele>475.364</ele>
        <time>1970-01-01T01:00:00Z</time>
      </trkpt>
      <trkpt lat="61.0872" lon="13.565181">
        <ele>474.909</ele>
        <time>1970-01-01T01:00:00Z</time>
      </trkpt>
      <trkpt lat="61.08712" lon="13.565657">
        <ele>474.545</ele>
        <time>1970-01-01T01:00:00Z</time>
      </trkpt>
      <trkpt lat="61.087078" lon="13.565946">
        <ele>474.091</ele>
        <time>1970-01-01T01:00:00Z</time>
      </trkpt>
      <trkpt lat="61.08702" lon="13.56627">
        <ele>473.727</ele>
        <time>1970-01-01T01:00:00Z</time>
      </trkpt>
      <trkpt lat="61.087001" lon="13.566364">
        <ele>473.364</ele>
        <time>1970-01-01T01:00:00Z</time>
      </trkpt>
      <trkpt lat="61.086956" lon="13.56665">
        <ele>473.182</ele>
        <time>1970-01-01T01:00:00Z</time>
      </trkpt>
      <trkpt lat="61.086799" lon="13.567015">
        <ele>473</ele>
        <time>1970-01-01T01:00:00Z</time>
      </trkpt>
      <trkpt lat="61.086643" lon="13.567191">
        <ele>472.818</ele>
        <time>1970-01-01T01:00:00Z</time>
      </trkpt>
      <trkpt lat="61.086578" lon="13.567264">
        <ele>472.636</ele>
        <time>1970-01-01T01:00:00Z</time>
      </trkpt>
      <trkpt lat="61.08638" lon="13.567543">
        <ele>472.455</ele>
        <time>1970-01-01T01:00:00Z</time>
      </trkpt>
      <trkpt lat="61.086254" lon="13.567601">
        <ele>472.364</ele>
        <time>1970-01-01T01:00:00Z</time>
      </trkpt>
      <trkpt lat="61.086109" lon="13.567914">
        <ele>472.182</ele>
        <time>1970-01-01T01:00:00Z</time>
      </trkpt>
      <trkpt lat="61.085998" lon="13.568305">
        <ele>472.091</ele>
        <time>1970-01-01T01:00:00Z</time>
      </trkpt>
      <trkpt lat="61.085926" lon="13.568422">
        <ele>472.091</ele>
        <time>1970-01-01T01:00:00Z</time>
      </trkpt>
      <trkpt lat="61.085754" lon="13.568683">
        <ele>472.091</ele>
        <time>1970-01-01T01:00:00Z</time>
      </trkpt>
      <trkpt lat="61.085678" lon="13.568802">
        <ele>472.091</ele>
        <time>1970-01-01T01:00:00Z</time>
      </trkpt>
      <trkpt lat="61.085521" lon="13.569002">
        <ele>471.909</ele>
        <time>1970-01-01T01:00:00Z</time>
      </trkpt>
      <trkpt lat="61.085411" lon="13.569146">
        <ele>471.727</ele>
        <time>1970-01-01T01:00:00Z</time>
      </trkpt>
      <trkpt lat="61.085323" lon="13.56928">
        <ele>471.636</ele>
        <time>1970-01-01T01:00:00Z</time>
      </trkpt>
      <trkpt lat="61.0853" lon="13.569313">
        <ele>471.455</ele>
        <time>1970-01-01T01:00:00Z</time>
      </trkpt>
      <trkpt lat="61.08522" lon="13.569613">
        <ele>471.273</ele>
        <time>1970-01-01T01:00:00Z</time>
      </trkpt>
      <trkpt lat="61.085159" lon="13.56987">
        <ele>471.091</ele>
        <time>1970-01-01T01:00:00Z</time>
      </trkpt>
      <trkpt lat="61.085094" lon="13.570162">
        <ele>470.818</ele>
        <time>1970-01-01T01:00:00Z</time>
      </trkpt>
      <trkpt lat="61.085048" lon="13.5704">
        <ele>470.455</ele>
        <time>1970-01-01T01:00:00Z</time>
      </trkpt>
      <trkpt lat="61.084972" lon="13.570702">
        <ele>470.182</ele>
        <time>1970-01-01T01:00:00Z</time>
      </trkpt>
      <trkpt lat="61.08493" lon="13.570849">
        <ele>469.818</ele>
        <time>1970-01-01T01:00:00Z</time>
      </trkpt>
      <trkpt lat="61.084827" lon="13.571248">
        <ele>469.455</ele>
        <time>1970-01-01T01:00:00Z</time>
      </trkpt>
      <trkpt lat="61.08477" lon="13.571582">
        <ele>469.182</ele>
        <time>1970-01-01T01:00:00Z</time>
      </trkpt>
      <trkpt lat="61.084651" lon="13.571799">
        <ele>468.909</ele>
        <time>1970-01-01T01:00:00Z</time>
      </trkpt>
      <trkpt lat="61.084465" lon="13.571996">
        <ele>468.636</ele>
        <time>1970-01-01T01:00:00Z</time>
      </trkpt>
      <trkpt lat="61.084392" lon="13.572096">
        <ele>468.273</ele>
        <time>1970-01-01T01:00:00Z</time>
      </trkpt>
      <trkpt lat="61.084274" lon="13.572337">
        <ele>467.909</ele>
        <time>1970-01-01T01:00:00Z</time>
      </trkpt>
      <trkpt lat="61.084239" lon="13.572542">
        <ele>467.545</ele>
        <time>1970-01-01T01:00:00Z</time>
      </trkpt>
      <trkpt lat="61.084236" lon="13.572772">
        <ele>467.364</ele>
        <time>1970-01-01T01:00:00Z</time>
      </trkpt>
      <trkpt lat="61.084197" lon="13.573001">
        <ele>467.182</ele>
        <time>1970-01-01T01:00:00Z</time>
      </trkpt>
      <trkpt lat="61.084182" lon="13.573078">
        <ele>466.727</ele>
        <time>1970-01-01T01:00:00Z</time>
      </trkpt>
      <trkpt lat="61.084114" lon="13.573333">
        <ele>466.364</ele>
        <time>1970-01-01T01:00:00Z</time>
      </trkpt>
      <trkpt lat="61.084014" lon="13.573586">
        <ele>466</ele>
        <time>1970-01-01T01:00:00Z</time>
      </trkpt>
      <trkpt lat="61.08398" lon="13.573649">
        <ele>465.636</ele>
        <time>1970-01-01T01:00:00Z</time>
      </trkpt>
      <trkpt lat="61.083854" lon="13.573863">
        <ele>465.091</ele>
        <time>1970-01-01T01:00:00Z</time>
      </trkpt>
      <trkpt lat="61.083675" lon="13.574131">
        <ele>464.545</ele>
        <time>1970-01-01T01:00:00Z</time>
      </trkpt>
      <trkpt lat="61.083576" lon="13.574277">
        <ele>464.182</ele>
        <time>1970-01-01T01:00:00Z</time>
      </trkpt>
      <trkpt lat="61.083465" lon="13.574504">
        <ele>463.818</ele>
        <time>1970-01-01T01:00:00Z</time>
      </trkpt>
      <trkpt lat="61.083404" lon="13.574687">
        <ele>463.273</ele>
        <time>1970-01-01T01:00:00Z</time>
      </trkpt>
      <trkpt lat="61.08337" lon="13.574831">
        <ele>462.727</ele>
        <time>1970-01-01T01:00:00Z</time>
      </trkpt>
      <trkpt lat="61.083354" lon="13.575022">
        <ele>462.182</ele>
        <time>1970-01-01T01:00:00Z</time>
      </trkpt>
      <trkpt lat="61.083335" lon="13.575182">
        <ele>461.818</ele>
        <time>1970-01-01T01:00:00Z</time>
      </trkpt>
      <trkpt lat="61.083301" lon="13.575453">
        <ele>461.455</ele>
        <time>1970-01-01T01:00:00Z</time>
      </trkpt>
      <trkpt lat="61.083343" lon="13.575942">
        <ele>461.091</ele>
        <time>1970-01-01T01:00:00Z</time>
      </trkpt>
      <trkpt lat="61.08337" lon="13.576339">
        <ele>460.727</ele>
        <time>1970-01-01T01:00:00Z</time>
      </trkpt>
      <trkpt lat="61.083415" lon="13.576716">
        <ele>460.455</ele>
        <time>1970-01-01T01:00:00Z</time>
      </trkpt>
      <trkpt lat="61.083541" lon="13.576891">
        <ele>460.182</ele>
        <time>1970-01-01T01:00:00Z</time>
      </trkpt>
      <trkpt lat="61.083671" lon="13.577009">
        <ele>459.909</ele>
        <time>1970-01-01T01:00:00Z</time>
      </trkpt>
      <trkpt lat="61.083866" lon="13.577129">
        <ele>459.636</ele>
        <time>1970-01-01T01:00:00Z</time>
      </trkpt>
      <trkpt lat="61.083915" lon="13.577146">
        <ele>459.455</ele>
        <time>1970-01-01T01:00:00Z</time>
      </trkpt>
      <trkpt lat="61.084167" lon="13.577305">
        <ele>459.273</ele>
        <time>1970-01-01T01:00:00Z</time>
      </trkpt>
      <trkpt lat="61.084365" lon="13.577569">
        <ele>459.091</ele>
        <time>1970-01-01T01:00:00Z</time>
      </trkpt>
      <trkpt lat="61.084472" lon="13.57801">
        <ele>458.909</ele>
        <time>1970-01-01T01:00:00Z</time>
      </trkpt>
      <trkpt lat="61.084415" lon="13.578623">
        <ele>458.727</ele>
        <time>1970-01-01T01:00:00Z</time>
      </trkpt>
      <trkpt lat="61.084392" lon="13.578865">
        <ele>458.545</ele>
        <time>1970-01-01T01:00:00Z</time>
      </trkpt>
      <trkpt lat="61.084362" lon="13.579069">
        <ele>458.364</ele>
        <time>1970-01-01T01:00:00Z</time>
      </trkpt>
      <trkpt lat="61.084289" lon="13.579509">
        <ele>458.273</ele>
        <time>1970-01-01T01:00:00Z</time>
      </trkpt>
      <trkpt lat="61.08427" lon="13.579603">
        <ele>458.182</ele>
        <time>1970-01-01T01:00:00Z</time>
      </trkpt>
      <trkpt lat="61.084247" lon="13.579782">
        <ele>458.091</ele>
        <time>1970-01-01T01:00:00Z</time>
      </trkpt>
      <trkpt lat="61.084213" lon="13.579944">
        <ele>458</ele>
        <time>1970-01-01T01:00:00Z</time>
      </trkpt>
      <trkpt lat="61.084197" lon="13.580018">
        <ele>458</ele>
        <time>1970-01-01T01:00:00Z</time>
      </trkpt>
      <trkpt lat="61.084178" lon="13.580165">
        <ele>458</ele>
        <time>1970-01-01T01:00:00Z</time>
      </trkpt>
      <trkpt lat="61.084144" lon="13.580307">
        <ele>457.909</ele>
        <time>1970-01-01T01:00:00Z</time>
      </trkpt>
      <trkpt lat="61.084133" lon="13.580389">
        <ele>457.818</ele>
        <time>1970-01-01T01:00:00Z</time>
      </trkpt>
      <trkpt lat="61.084102" lon="13.580679">
        <ele>457.727</ele>
        <time>1970-01-01T01:00:00Z</time>
      </trkpt>
      <trkpt lat="61.084064" lon="13.580862">
        <ele>457.727</ele>
        <time>1970-01-01T01:00:00Z</time>
      </trkpt>
      <trkpt lat="61.084049" lon="13.581007">
        <ele>457.636</ele>
        <time>1970-01-01T01:00:00Z</time>
      </trkpt>
      <trkpt lat="61.084003" lon="13.581281">
        <ele>457.545</ele>
        <time>1970-01-01T01:00:00Z</time>
      </trkpt>
      <trkpt lat="61.083919" lon="13.581584">
        <ele>457.455</ele>
        <time>1970-01-01T01:00:00Z</time>
      </trkpt>
      <trkpt lat="61.083854" lon="13.581962">
        <ele>457.364</ele>
        <time>1970-01-01T01:00:00Z</time>
      </trkpt>
      <trkpt lat="61.083816" lon="13.582192">
        <ele>457.273</ele>
        <time>1970-01-01T01:00:00Z</time>
      </trkpt>
      <trkpt lat="61.083763" lon="13.582573">
        <ele>457.182</ele>
        <time>1970-01-01T01:00:00Z</time>
      </trkpt>
      <trkpt lat="61.083724" lon="13.582907">
        <ele>457.091</ele>
        <time>1970-01-01T01:00:00Z</time>
      </trkpt>
      <trkpt lat="61.083713" lon="13.582992">
        <ele>457.091</ele>
        <time>1970-01-01T01:00:00Z</time>
      </trkpt>
      <trkpt lat="61.083629" lon="13.583333">
        <ele>457.091</ele>
        <time>1970-01-01T01:00:00Z</time>
      </trkpt>
      <trkpt lat="61.083602" lon="13.583407">
        <ele>457.091</ele>
        <time>1970-01-01T01:00:00Z</time>
      </trkpt>
      <trkpt lat="61.083541" lon="13.58364">
        <ele>457</ele>
        <time>1970-01-01T01:00:00Z</time>
      </trkpt>
      <trkpt lat="61.083473" lon="13.583872">
        <ele>457</ele>
        <time>1970-01-01T01:00:00Z</time>
      </trkpt>
      <trkpt lat="61.0834" lon="13.584189">
        <ele>457</ele>
        <time>1970-01-01T01:00:00Z</time>
      </trkpt>
      <trkpt lat="61.083366" lon="13.58432">
        <ele>457.091</ele>
        <time>1970-01-01T01:00:00Z</time>
      </trkpt>
      <trkpt lat="61.083282" lon="13.584645">
        <ele>457.182</ele>
        <time>1970-01-01T01:00:00Z</time>
      </trkpt>
      <trkpt lat="61.083271" lon="13.584717">
        <ele>457.273</ele>
        <time>1970-01-01T01:00:00Z</time>
      </trkpt>
      <trkpt lat="61.083236" lon="13.585031">
        <ele>457.364</ele>
        <time>1970-01-01T01:00:00Z</time>
      </trkpt>
      <trkpt lat="61.08319" lon="13.585321">
        <ele>457.364</ele>
        <time>1970-01-01T01:00:00Z</time>
      </trkpt>
      <trkpt lat="61.083133" lon="13.585604">
        <ele>457.364</ele>
        <time>1970-01-01T01:00:00Z</time>
      </trkpt>
      <trkpt lat="61.083091" lon="13.585836">
        <ele>457.455</ele>
        <time>1970-01-01T01:00:00Z</time>
      </trkpt>
      <trkpt lat="61.083053" lon="13.586013">
        <ele>457.545</ele>
        <time>1970-01-01T01:00:00Z</time>
      </trkpt>
      <trkpt lat="61.083011" lon="13.586355">
        <ele>457.636</ele>
        <time>1970-01-01T01:00:00Z</time>
      </trkpt>
      <trkpt lat="61.082935" lon="13.586681">
        <ele>457.727</ele>
        <time>1970-01-01T01:00:00Z</time>
      </trkpt>
      <trkpt lat="61.082866" lon="13.587072">
        <ele>457.818</ele>
        <time>1970-01-01T01:00:00Z</time>
      </trkpt>
      <trkpt lat="61.082828" lon="13.587304">
        <ele>457.818</ele>
        <time>1970-01-01T01:00:00Z</time>
      </trkpt>
      <trkpt lat="61.082809" lon="13.58763">
        <ele>457.818</ele>
        <time>1970-01-01T01:00:00Z</time>
      </trkpt>
      <trkpt lat="61.08282" lon="13.587775">
        <ele>457.818</ele>
        <time>1970-01-01T01:00:00Z</time>
      </trkpt>
      <trkpt lat="61.08292" lon="13.588214">
        <ele>457.909</ele>
        <time>1970-01-01T01:00:00Z</time>
      </trkpt>
      <trkpt lat="61.082946" lon="13.588818">
        <ele>458.091</ele>
        <time>1970-01-01T01:00:00Z</time>
      </trkpt>
      <trkpt lat="61.082908" lon="13.589063">
        <ele>458.273</ele>
        <time>1970-01-01T01:00:00Z</time>
      </trkpt>
      <trkpt lat="61.082885" lon="13.589143">
        <ele>458.364</ele>
        <time>1970-01-01T01:00:00Z</time>
      </trkpt>
      <trkpt lat="61.082813" lon="13.589368">
        <ele>458.455</ele>
        <time>1970-01-01T01:00:00Z</time>
      </trkpt>
      <trkpt lat="61.08274" lon="13.589674">
        <ele>458.545</ele>
        <time>1970-01-01T01:00:00Z</time>
      </trkpt>
      <trkpt lat="61.082721" lon="13.589748">
        <ele>458.636</ele>
        <time>1970-01-01T01:00:00Z</time>
      </trkpt>
      <trkpt lat="61.082592" lon="13.590137">
        <ele>458.727</ele>
        <time>1970-01-01T01:00:00Z</time>
      </trkpt>
      <trkpt lat="61.082534" lon="13.590271">
        <ele>458.818</ele>
        <time>1970-01-01T01:00:00Z</time>
      </trkpt>
      <trkpt lat="61.082508" lon="13.590331">
        <ele>458.909</ele>
        <time>1970-01-01T01:00:00Z</time>
      </trkpt>
      <trkpt lat="61.082439" lon="13.590556">
        <ele>459</ele>
        <time>1970-01-01T01:00:00Z</time>
      </trkpt>
      <trkpt lat="61.082408" lon="13.590618">
        <ele>459</ele>
        <time>1970-01-01T01:00:00Z</time>
      </trkpt>
      <trkpt lat="61.082378" lon="13.590686">
        <ele>459</ele>
        <time>1970-01-01T01:00:00Z</time>
      </trkpt>
      <trkpt lat="61.082237" lon="13.590991">
        <ele>459</ele>
        <time>1970-01-01T01:00:00Z</time>
      </trkpt>
      <trkpt lat="61.082187" lon="13.591046">
        <ele>459</ele>
        <time>1970-01-01T01:00:00Z</time>
      </trkpt>
      <trkpt lat="61.082073" lon="13.591345">
        <ele>459</ele>
        <time>1970-01-01T01:00:00Z</time>
      </trkpt>
      <trkpt lat="61.081958" lon="13.591672">
        <ele>459</ele>
        <time>1970-01-01T01:00:00Z</time>
      </trkpt>
      <trkpt lat="61.081821" lon="13.591999">
        <ele>458.909</ele>
        <time>1970-01-01T01:00:00Z</time>
      </trkpt>
      <trkpt lat="61.081649" lon="13.592289">
        <ele>458.909</ele>
        <time>1970-01-01T01:00:00Z</time>
      </trkpt>
      <trkpt lat="61.081554" lon="13.592444">
        <ele>458.909</ele>
        <time>1970-01-01T01:00:00Z</time>
      </trkpt>
      <trkpt lat="61.08139" lon="13.592653">
        <ele>458.909</ele>
        <time>1970-01-01T01:00:00Z</time>
      </trkpt>
      <trkpt lat="61.081336" lon="13.59275">
        <ele>458.909</ele>
        <time>1970-01-01T01:00:00Z</time>
      </trkpt>
      <trkpt lat="61.081207" lon="13.592907">
        <ele>458.909</ele>
        <time>1970-01-01T01:00:00Z</time>
      </trkpt>
      <trkpt lat="61.081073" lon="13.593129">
        <ele>458.909</ele>
        <time>1970-01-01T01:00:00Z</time>
      </trkpt>
      <trkpt lat="61.080974" lon="13.593242">
        <ele>458.818</ele>
        <time>1970-01-01T01:00:00Z</time>
      </trkpt>
      <trkpt lat="61.080856" lon="13.593427">
        <ele>458.727</ele>
        <time>1970-01-01T01:00:00Z</time>
      </trkpt>
      <trkpt lat="61.080745" lon="13.593613">
        <ele>458.636</ele>
        <time>1970-01-01T01:00:00Z</time>
      </trkpt>
      <trkpt lat="61.080619" lon="13.593809">
        <ele>458.545</ele>
        <time>1970-01-01T01:00:00Z</time>
      </trkpt>
      <trkpt lat="61.080516" lon="13.593947">
        <ele>458.545</ele>
        <time>1970-01-01T01:00:00Z</time>
      </trkpt>
      <trkpt lat="61.080387" lon="13.594097">
        <ele>458.455</ele>
        <time>1970-01-01T01:00:00Z</time>
      </trkpt>
      <trkpt lat="61.08023" lon="13.594274">
        <ele>458.364</ele>
        <time>1970-01-01T01:00:00Z</time>
      </trkpt>
      <trkpt lat="61.080089" lon="13.594418">
        <ele>458.182</ele>
        <time>1970-01-01T01:00:00Z</time>
      </trkpt>
      <trkpt lat="61.079975" lon="13.594487">
        <ele>458</ele>
        <time>1970-01-01T01:00:00Z</time>
      </trkpt>
      <trkpt lat="61.079887" lon="13.594691">
        <ele>457.818</ele>
        <time>1970-01-01T01:00:00Z</time>
      </trkpt>
      <trkpt lat="61.079837" lon="13.594931">
        <ele>457.636</ele>
        <time>1970-01-01T01:00:00Z</time>
      </trkpt>
      <trkpt lat="61.079677" lon="13.595141">
        <ele>457.545</ele>
        <time>1970-01-01T01:00:00Z</time>
      </trkpt>
      <trkpt lat="61.079574" lon="13.595178">
        <ele>457.455</ele>
        <time>1970-01-01T01:00:00Z</time>
      </trkpt>
      <trkpt lat="61.079463" lon="13.595195">
        <ele>457.364</ele>
        <time>1970-01-01T01:00:00Z</time>
      </trkpt>
      <trkpt lat="61.079357" lon="13.595201">
        <ele>457.273</ele>
        <time>1970-01-01T01:00:00Z</time>
      </trkpt>
      <trkpt lat="61.079284" lon="13.595265">
        <ele>457.182</ele>
        <time>1970-01-01T01:00:00Z</time>
      </trkpt>
      <trkpt lat="61.079132" lon="13.595316">
        <ele>457</ele>
        <time>1970-01-01T01:00:00Z</time>
      </trkpt>
      <trkpt lat="61.079078" lon="13.595339">
        <ele>456.818</ele>
        <time>1970-01-01T01:00:00Z</time>
      </trkpt>
      <trkpt lat="61.078983" lon="13.595582">
        <ele>456.727</ele>
        <time>1970-01-01T01:00:00Z</time>
      </trkpt>
      <trkpt lat="61.078948" lon="13.595789">
        <ele>456.636</ele>
        <time>1970-01-01T01:00:00Z</time>
      </trkpt>
      <trkpt lat="61.078876" lon="13.596162">
        <ele>456.545</ele>
        <time>1970-01-01T01:00:00Z</time>
      </trkpt>
      <trkpt lat="61.078899" lon="13.596602">
        <ele>456.455</ele>
        <time>1970-01-01T01:00:00Z</time>
      </trkpt>
      <trkpt lat="61.078937" lon="13.596805">
        <ele>456.273</ele>
        <time>1970-01-01T01:00:00Z</time>
      </trkpt>
      <trkpt lat="61.078968" lon="13.597084">
        <ele>456.091</ele>
        <time>1970-01-01T01:00:00Z</time>
      </trkpt>
      <trkpt lat="61.079006" lon="13.597289">
        <ele>455.818</ele>
        <time>1970-01-01T01:00:00Z</time>
      </trkpt>
      <trkpt lat="61.079029" lon="13.597401">
        <ele>455.545</ele>
        <time>1970-01-01T01:00:00Z</time>
      </trkpt>
      <trkpt lat="61.079093" lon="13.597818">
        <ele>455.273</ele>
        <time>1970-01-01T01:00:00Z</time>
      </trkpt>
      <trkpt lat="61.079109" lon="13.598206">
        <ele>455</ele>
        <time>1970-01-01T01:00:00Z</time>
      </trkpt>
      <trkpt lat="61.079078" lon="13.598541">
        <ele>454.727</ele>
        <time>1970-01-01T01:00:00Z</time>
      </trkpt>
      <trkpt lat="61.07904" lon="13.598862">
        <ele>454.455</ele>
        <time>1970-01-01T01:00:00Z</time>
      </trkpt>
      <trkpt lat="61.078987" lon="13.59932">
        <ele>454.182</ele>
        <time>1970-01-01T01:00:00Z</time>
      </trkpt>
      <trkpt lat="61.078956" lon="13.599609">
        <ele>453.818</ele>
        <time>1970-01-01T01:00:00Z</time>
      </trkpt>
      <trkpt lat="61.078945" lon="13.600152">
        <ele>453.455</ele>
        <time>1970-01-01T01:00:00Z</time>
      </trkpt>
      <trkpt lat="61.078926" lon="13.600427">
        <ele>453.182</ele>
        <time>1970-01-01T01:00:00Z</time>
      </trkpt>
      <trkpt lat="61.078907" lon="13.600865">
        <ele>452.818</ele>
        <time>1970-01-01T01:00:00Z</time>
      </trkpt>
      <trkpt lat="61.078941" lon="13.601125">
        <ele>452.545</ele>
        <time>1970-01-01T01:00:00Z</time>
      </trkpt>
      <trkpt lat="61.078998" lon="13.601508">
        <ele>452.273</ele>
        <time>1970-01-01T01:00:00Z</time>
      </trkpt>
      <trkpt lat="61.079044" lon="13.601693">
        <ele>451.909</ele>
        <time>1970-01-01T01:00:00Z</time>
      </trkpt>
      <trkpt lat="61.07909" lon="13.60193">
        <ele>451.636</ele>
        <time>1970-01-01T01:00:00Z</time>
      </trkpt>
      <trkpt lat="61.079063" lon="13.602361">
        <ele>451.364</ele>
        <time>1970-01-01T01:00:00Z</time>
      </trkpt>
      <trkpt lat="61.079002" lon="13.602776">
        <ele>451.091</ele>
        <time>1970-01-01T01:00:00Z</time>
      </trkpt>
      <trkpt lat="61.078971" lon="13.602906">
        <ele>450.818</ele>
        <time>1970-01-01T01:00:00Z</time>
      </trkpt>
      <trkpt lat="61.078941" lon="13.603288">
        <ele>450.636</ele>
        <time>1970-01-01T01:00:00Z</time>
      </trkpt>
      <trkpt lat="61.07891" lon="13.603539">
        <ele>450.455</ele>
        <time>1970-01-01T01:00:00Z</time>
      </trkpt>
      <trkpt lat="61.078891" lon="13.603618">
        <ele>450.091</ele>
        <time>1970-01-01T01:00:00Z</time>
      </trkpt>
      <trkpt lat="61.078861" lon="13.603753">
        <ele>449.818</ele>
        <time>1970-01-01T01:00:00Z</time>
      </trkpt>
      <trkpt lat="61.0788" lon="13.604008">
        <ele>449.545</ele>
        <time>1970-01-01T01:00:00Z</time>
      </trkpt>
      <trkpt lat="61.078788" lon="13.604249">
        <ele>449.364</ele>
        <time>1970-01-01T01:00:00Z</time>
      </trkpt>
      <trkpt lat="61.0788" lon="13.604496">
        <ele>449.273</ele>
        <time>1970-01-01T01:00:00Z</time>
      </trkpt>
      <trkpt lat="61.078861" lon="13.604797">
        <ele>449.182</ele>
        <time>1970-01-01T01:00:00Z</time>
      </trkpt>
      <trkpt lat="61.078922" lon="13.605113">
        <ele>449.273</ele>
        <time>1970-01-01T01:00:00Z</time>
      </trkpt>
      <trkpt lat="61.078929" lon="13.605192">
        <ele>449.364</ele>
        <time>1970-01-01T01:00:00Z</time>
      </trkpt>
      <trkpt lat="61.078941" lon="13.605537">
        <ele>449.455</ele>
        <time>1970-01-01T01:00:00Z</time>
      </trkpt>
      <trkpt lat="61.078933" lon="13.605817">
        <ele>449.545</ele>
        <time>1970-01-01T01:00:00Z</time>
      </trkpt>
      <trkpt lat="61.078884" lon="13.605952">
        <ele>449.636</ele>
        <time>1970-01-01T01:00:00Z</time>
      </trkpt>
      <trkpt lat="61.07872" lon="13.606467">
        <ele>449.909</ele>
        <time>1970-01-01T01:00:00Z</time>
      </trkpt>
      <trkpt lat="61.078639" lon="13.606761">
        <ele>450.182</ele>
        <time>1970-01-01T01:00:00Z</time>
      </trkpt>
      <trkpt lat="61.078605" lon="13.607008">
        <ele>450.455</ele>
        <time>1970-01-01T01:00:00Z</time>
      </trkpt>
      <trkpt lat="61.078594" lon="13.607151">
        <ele>450.636</ele>
        <time>1970-01-01T01:00:00Z</time>
      </trkpt>
      <trkpt lat="61.078601" lon="13.607489">
        <ele>450.727</ele>
        <time>1970-01-01T01:00:00Z</time>
      </trkpt>
      <trkpt lat="61.078609" lon="13.60757">
        <ele>450.818</ele>
        <time>1970-01-01T01:00:00Z</time>
      </trkpt>
      <trkpt lat="61.078605" lon="13.607974">
        <ele>450.727</ele>
        <time>1970-01-01T01:00:00Z</time>
      </trkpt>
      <trkpt lat="61.078594" lon="13.608151">
        <ele>450.636</ele>
        <time>1970-01-01T01:00:00Z</time>
      </trkpt>
      <trkpt lat="61.078525" lon="13.608486">
        <ele>450.545</ele>
        <time>1970-01-01T01:00:00Z</time>
      </trkpt>
      <trkpt lat="61.078464" lon="13.608929">
        <ele>450.455</ele>
        <time>1970-01-01T01:00:00Z</time>
      </trkpt>
      <trkpt lat="61.07843" lon="13.609306">
        <ele>450.364</ele>
        <time>1970-01-01T01:00:00Z</time>
      </trkpt>
      <trkpt lat="61.078536" lon="13.609659">
        <ele>450.182</ele>
        <time>1970-01-01T01:00:00Z</time>
      </trkpt>
      <trkpt lat="61.078563" lon="13.609809">
        <ele>450</ele>
        <time>1970-01-01T01:00:00Z</time>
      </trkpt>
      <trkpt lat="61.078601" lon="13.609931">
        <ele>449.818</ele>
        <time>1970-01-01T01:00:00Z</time>
      </trkpt>
      <trkpt lat="61.078735" lon="13.610154">
        <ele>449.636</ele>
        <time>1970-01-01T01:00:00Z</time>
      </trkpt>
      <trkpt lat="61.078765" lon="13.610162">
        <ele>449.545</ele>
        <time>1970-01-01T01:00:00Z</time>
      </trkpt>
      <trkpt lat="61.078968" lon="13.610263">
        <ele>449.455</ele>
        <time>1970-01-01T01:00:00Z</time>
      </trkpt>
      <trkpt lat="61.079116" lon="13.610352">
        <ele>449.182</ele>
        <time>1970-01-01T01:00:00Z</time>
      </trkpt>
      <trkpt lat="61.079246" lon="13.610501">
        <ele>448.909</ele>
        <time>1970-01-01T01:00:00Z</time>
      </trkpt>
      <trkpt lat="61.079383" lon="13.610682">
        <ele>448.636</ele>
        <time>1970-01-01T01:00:00Z</time>
      </trkpt>
      <trkpt lat="61.079498" lon="13.610866">
        <ele>448.364</ele>
        <time>1970-01-01T01:00:00Z</time>
      </trkpt>
      <trkpt lat="61.079566" lon="13.611057">
        <ele>448.091</ele>
        <time>1970-01-01T01:00:00Z</time>
      </trkpt>
      <trkpt lat="61.079631" lon="13.611318">
        <ele>447.818</ele>
        <time>1970-01-01T01:00:00Z</time>
      </trkpt>
      <trkpt lat="61.079692" lon="13.611593">
        <ele>447.545</ele>
        <time>1970-01-01T01:00:00Z</time>
      </trkpt>
      <trkpt lat="61.079738" lon="13.611847">
        <ele>447.273</ele>
        <time>1970-01-01T01:00:00Z</time>
      </trkpt>
      <trkpt lat="61.07975" lon="13.611918">
        <ele>447</ele>
        <time>1970-01-01T01:00:00Z</time>
      </trkpt>
      <trkpt lat="61.079772" lon="13.612084">
        <ele>446.727</ele>
        <time>1970-01-01T01:00:00Z</time>
      </trkpt>
      <trkpt lat="61.079795" lon="13.612227">
        <ele>446.455</ele>
        <time>1970-01-01T01:00:00Z</time>
      </trkpt>
      <trkpt lat="61.079803" lon="13.612302">
        <ele>446.364</ele>
        <time>1970-01-01T01:00:00Z</time>
      </trkpt>
      <trkpt lat="61.079811" lon="13.612376">
        <ele>446.273</ele>
        <time>1970-01-01T01:00:00Z</time>
      </trkpt>
      <trkpt lat="61.079845" lon="13.61266">
        <ele>446.182</ele>
        <time>1970-01-01T01:00:00Z</time>
      </trkpt>
      <trkpt lat="61.07986" lon="13.612849">
        <ele>446.091</ele>
        <time>1970-01-01T01:00:00Z</time>
      </trkpt>
      <trkpt lat="61.079864" lon="13.612898">
        <ele>446</ele>
        <time>1970-01-01T01:00:00Z</time>
      </trkpt>
      <trkpt lat="61.079864" lon="13.61301">
        <ele>446</ele>
        <time>1970-01-01T01:00:00Z</time>
      </trkpt>
      <trkpt lat="61.079879" lon="13.613152">
        <ele>446</ele>
        <time>1970-01-01T01:00:00Z</time>
      </trkpt>
      <trkpt lat="61.079879" lon="13.613257">
        <ele>446</ele>
        <time>1970-01-01T01:00:00Z</time>
      </trkpt>
      <trkpt lat="61.079936" lon="13.613444">
        <ele>446</ele>
        <time>1970-01-01T01:00:00Z</time>
      </trkpt>
      <trkpt lat="61.079948" lon="13.613474">
        <ele>445.818</ele>
        <time>1970-01-01T01:00:00Z</time>
      </trkpt>
      <trkpt lat="61.080055" lon="13.613636">
        <ele>445.636</ele>
        <time>1970-01-01T01:00:00Z</time>
      </trkpt>
      <trkpt lat="61.080101" lon="13.613651">
        <ele>445.455</ele>
        <time>1970-01-01T01:00:00Z</time>
      </trkpt>
      <trkpt lat="61.080261" lon="13.613655">
        <ele>445.273</ele>
        <time>1970-01-01T01:00:00Z</time>
      </trkpt>
      <trkpt lat="61.08039" lon="13.613647">
        <ele>445.091</ele>
        <time>1970-01-01T01:00:00Z</time>
      </trkpt>
      <trkpt lat="61.080501" lon="13.613648">
        <ele>444.909</ele>
        <time>1970-01-01T01:00:00Z</time>
      </trkpt>
      <trkpt lat="61.080608" lon="13.613727">
        <ele>444.727</ele>
        <time>1970-01-01T01:00:00Z</time>
      </trkpt>
      <trkpt lat="61.080703" lon="13.613889">
        <ele>444.545</ele>
        <time>1970-01-01T01:00:00Z</time>
      </trkpt>
      <trkpt lat="61.080741" lon="13.614048">
        <ele>444.364</ele>
        <time>1970-01-01T01:00:00Z</time>
      </trkpt>
      <trkpt lat="61.080753" lon="13.614363">
        <ele>444.182</ele>
        <time>1970-01-01T01:00:00Z</time>
      </trkpt>
      <trkpt lat="61.080745" lon="13.614706">
        <ele>443.909</ele>
        <time>1970-01-01T01:00:00Z</time>
      </trkpt>
      <trkpt lat="61.080741" lon="13.614826">
        <ele>443.818</ele>
        <time>1970-01-01T01:00:00Z</time>
      </trkpt>
      <trkpt lat="61.08078" lon="13.615402">
        <ele>443.818</ele>
        <time>1970-01-01T01:00:00Z</time>
      </trkpt>
      <trkpt lat="61.080814" lon="13.616122">
        <ele>443.818</ele>
        <time>1970-01-01T01:00:00Z</time>
      </trkpt>
      <trkpt lat="61.080825" lon="13.616611">
        <ele>443.818</ele>
        <time>1970-01-01T01:00:00Z</time>
      </trkpt>
      <trkpt lat="61.080741" lon="13.617167">
        <ele>443.818</ele>
        <time>1970-01-01T01:00:00Z</time>
      </trkpt>
      <trkpt lat="61.080596" lon="13.617412">
        <ele>443.818</ele>
        <time>1970-01-01T01:00:00Z</time>
      </trkpt>
      <trkpt lat="61.080448" lon="13.61752">
        <ele>443.818</ele>
        <time>1970-01-01T01:00:00Z</time>
      </trkpt>
      <trkpt lat="61.080257" lon="13.617738">
        <ele>443.818</ele>
        <time>1970-01-01T01:00:00Z</time>
      </trkpt>
      <trkpt lat="61.080184" lon="13.617812">
        <ele>443.909</ele>
        <time>1970-01-01T01:00:00Z</time>
      </trkpt>
      <trkpt lat="61.079998" lon="13.618066">
        <ele>444</ele>
        <time>1970-01-01T01:00:00Z</time>
      </trkpt>
      <trkpt lat="61.079856" lon="13.61824">
        <ele>444.182</ele>
        <time>1970-01-01T01:00:00Z</time>
      </trkpt>
      <trkpt lat="61.07975" lon="13.618404">
        <ele>444.364</ele>
        <time>1970-01-01T01:00:00Z</time>
      </trkpt>
      <trkpt lat="61.079666" lon="13.618447">
        <ele>444.455</ele>
        <time>1970-01-01T01:00:00Z</time>
      </trkpt>
      <trkpt lat="61.079593" lon="13.618498">
        <ele>444.545</ele>
        <time>1970-01-01T01:00:00Z</time>
      </trkpt>
      <trkpt lat="61.079563" lon="13.618502">
        <ele>444.636</ele>
        <time>1970-01-01T01:00:00Z</time>
      </trkpt>
      <trkpt lat="61.079544" lon="13.618515">
        <ele>444.727</ele>
        <time>1970-01-01T01:00:00Z</time>
      </trkpt>
      <trkpt lat="61.079528" lon="13.618529">
        <ele>444.818</ele>
        <time>1970-01-01T01:00:00Z</time>
      </trkpt>
      <trkpt lat="61.079521" lon="13.618543">
        <ele>444.909</ele>
        <time>1970-01-01T01:00:00Z</time>
      </trkpt>
      <trkpt lat="61.079483" lon="13.61859">
        <ele>445</ele>
        <time>1970-01-01T01:00:00Z</time>
      </trkpt>
      <trkpt lat="61.079471" lon="13.618591">
        <ele>445</ele>
        <time>1970-01-01T01:00:00Z</time>
      </trkpt>
      <trkpt lat="61.079429" lon="13.618602">
        <ele>445</ele>
        <time>1970-01-01T01:00:00Z</time>
      </trkpt>
      <trkpt lat="61.079383" lon="13.618614">
        <ele>445</ele>
        <time>1970-01-01T01:00:00Z</time>
      </trkpt>
      <trkpt lat="61.079319" lon="13.618698">
        <ele>445</ele>
        <time>1970-01-01T01:00:00Z</time>
      </trkpt>
      <trkpt lat="61.079273" lon="13.61876">
        <ele>445</ele>
        <time>1970-01-01T01:00:00Z</time>
      </trkpt>
      <trkpt lat="61.079204" lon="13.61893">
        <ele>445</ele>
        <time>1970-01-01T01:00:00Z</time>
      </trkpt>
      <trkpt lat="61.079135" lon="13.619135">
        <ele>444.909</ele>
        <time>1970-01-01T01:00:00Z</time>
      </trkpt>
      <trkpt lat="61.079086" lon="13.619383">
        <ele>444.727</ele>
        <time>1970-01-01T01:00:00Z</time>
      </trkpt>
      <trkpt lat="61.079044" lon="13.619638">
        <ele>444.545</ele>
        <time>1970-01-01T01:00:00Z</time>
      </trkpt>
      <trkpt lat="61.078994" lon="13.620016">
        <ele>444.273</ele>
        <time>1970-01-01T01:00:00Z</time>
      </trkpt>
      <trkpt lat="61.078987" lon="13.620082">
        <ele>444</ele>
        <time>1970-01-01T01:00:00Z</time>
      </trkpt>
      <trkpt lat="61.079006" lon="13.620484">
        <ele>443.727</ele>
        <time>1970-01-01T01:00:00Z</time>
      </trkpt>
      <trkpt lat="61.079059" lon="13.621285">
        <ele>443.455</ele>
        <time>1970-01-01T01:00:00Z</time>
      </trkpt>
      <trkpt lat="61.079154" lon="13.621974">
        <ele>443.091</ele>
        <time>1970-01-01T01:00:00Z</time>
      </trkpt>
      <trkpt lat="61.079177" lon="13.62225">
        <ele>442.727</ele>
        <time>1970-01-01T01:00:00Z</time>
      </trkpt>
      <trkpt lat="61.079139" lon="13.622632">
        <ele>442.364</ele>
        <time>1970-01-01T01:00:00Z</time>
      </trkpt>
      <trkpt lat="61.079044" lon="13.622915">
        <ele>442</ele>
        <time>1970-01-01T01:00:00Z</time>
      </trkpt>
      <trkpt lat="61.078979" lon="13.623027">
        <ele>441.727</ele>
        <time>1970-01-01T01:00:00Z</time>
      </trkpt>
      <trkpt lat="61.07888" lon="13.623158">
        <ele>441.545</ele>
        <time>1970-01-01T01:00:00Z</time>
      </trkpt>
      <trkpt lat="61.078823" lon="13.623234">
        <ele>441.364</ele>
        <time>1970-01-01T01:00:00Z</time>
      </trkpt>
      <trkpt lat="61.078693" lon="13.623394">
        <ele>441.273</ele>
        <time>1970-01-01T01:00:00Z</time>
      </trkpt>
      <trkpt lat="61.07859" lon="13.623537">
        <ele>441.182</ele>
        <time>1970-01-01T01:00:00Z</time>
      </trkpt>
      <trkpt lat="61.078468" lon="13.623618">
        <ele>441.091</ele>
        <time>1970-01-01T01:00:00Z</time>
      </trkpt>
      <trkpt lat="61.078407" lon="13.623683">
        <ele>441</ele>
        <time>1970-01-01T01:00:00Z</time>
      </trkpt>
      <trkpt lat="61.078311" lon="13.623692">
        <ele>440.909</ele>
        <time>1970-01-01T01:00:00Z</time>
      </trkpt>
      <trkpt lat="61.078289" lon="13.623667">
        <ele>441</ele>
        <time>1970-01-01T01:00:00Z</time>
      </trkpt>
      <trkpt lat="61.078243" lon="13.623643">
        <ele>441.091</ele>
        <time>1970-01-01T01:00:00Z</time>
      </trkpt>
      <trkpt lat="61.078155" lon="13.623736">
        <ele>441.182</ele>
        <time>1970-01-01T01:00:00Z</time>
      </trkpt>
      <trkpt lat="61.078132" lon="13.623766">
        <ele>441.091</ele>
        <time>1970-01-01T01:00:00Z</time>
      </trkpt>
      <trkpt lat="61.078002" lon="13.623955">
        <ele>441</ele>
        <time>1970-01-01T01:00:00Z</time>
      </trkpt>
      <trkpt lat="61.077922" lon="13.624098">
        <ele>440.636</ele>
        <time>1970-01-01T01:00:00Z</time>
      </trkpt>
      <trkpt lat="61.077854" lon="13.624336">
        <ele>440.273</ele>
        <time>1970-01-01T01:00:00Z</time>
      </trkpt>
      <trkpt lat="61.077812" lon="13.624571">
        <ele>439.909</ele>
        <time>1970-01-01T01:00:00Z</time>
      </trkpt>
      <trkpt lat="61.077827" lon="13.624897">
        <ele>439.182</ele>
        <time>1970-01-01T01:00:00Z</time>
      </trkpt>
      <trkpt lat="61.077846" lon="13.625242">
        <ele>438.455</ele>
        <time>1970-01-01T01:00:00Z</time>
      </trkpt>
      <trkpt lat="61.077758" lon="13.625729">
        <ele>437.818</ele>
        <time>1970-01-01T01:00:00Z</time>
      </trkpt>
      <trkpt lat="61.077671" lon="13.626032">
        <ele>436.455</ele>
        <time>1970-01-01T01:00:00Z</time>
      </trkpt>
      <trkpt lat="61.077602" lon="13.626306">
        <ele>435.545</ele>
        <time>1970-01-01T01:00:00Z</time>
      </trkpt>
      <trkpt lat="61.077484" lon="13.626612">
        <ele>434.182</ele>
        <time>1970-01-01T01:00:00Z</time>
      </trkpt>
      <trkpt lat="61.077419" lon="13.626786">
        <ele>433</ele>
        <time>1970-01-01T01:00:00Z</time>
      </trkpt>
      <trkpt lat="61.077384" lon="13.626876">
        <ele>431.364</ele>
        <time>1970-01-01T01:00:00Z</time>
      </trkpt>
      <trkpt lat="61.07719" lon="13.627592">
        <ele>430</ele>
        <time>1970-01-01T01:00:00Z</time>
      </trkpt>
      <trkpt lat="61.077068" lon="13.627898">
        <ele>428.364</ele>
        <time>1970-01-01T01:00:00Z</time>
      </trkpt>
      <trkpt lat="61.076953" lon="13.628181">
        <ele>426.727</ele>
        <time>1970-01-01T01:00:00Z</time>
      </trkpt>
      <trkpt lat="61.076755" lon="13.628596">
        <ele>425.455</ele>
        <time>1970-01-01T01:00:00Z</time>
      </trkpt>
      <trkpt lat="61.076637" lon="13.629164">
        <ele>424.364</ele>
        <time>1970-01-01T01:00:00Z</time>
      </trkpt>
      <trkpt lat="61.076541" lon="13.629502">
        <ele>423.273</ele>
        <time>1970-01-01T01:00:00Z</time>
      </trkpt>
      <trkpt lat="61.076446" lon="13.629759">
        <ele>422.636</ele>
        <time>1970-01-01T01:00:00Z</time>
      </trkpt>
      <trkpt lat="61.076339" lon="13.629972">
        <ele>421.545</ele>
        <time>1970-01-01T01:00:00Z</time>
      </trkpt>
      <trkpt lat="61.076286" lon="13.63009">
        <ele>420.909</ele>
        <time>1970-01-01T01:00:00Z</time>
      </trkpt>
      <trkpt lat="61.076217" lon="13.630199">
        <ele>420.273</ele>
        <time>1970-01-01T01:00:00Z</time>
      </trkpt>
      <trkpt lat="61.076133" lon="13.630411">
        <ele>420</ele>
        <time>1970-01-01T01:00:00Z</time>
      </trkpt>
      <trkpt lat="61.075965" lon="13.630649">
        <ele>419.727</ele>
        <time>1970-01-01T01:00:00Z</time>
      </trkpt>
      <trkpt lat="61.075916" lon="13.630699">
        <ele>419.727</ele>
        <time>1970-01-01T01:00:00Z</time>
      </trkpt>
      <trkpt lat="61.075832" lon="13.630874">
        <ele>419.727</ele>
        <time>1970-01-01T01:00:00Z</time>
      </trkpt>
      <trkpt lat="61.075748" lon="13.631155">
        <ele>419.727</ele>
        <time>1970-01-01T01:00:00Z</time>
      </trkpt>
      <trkpt lat="61.075641" lon="13.631594">
        <ele>419.545</ele>
        <time>1970-01-01T01:00:00Z</time>
      </trkpt>
      <trkpt lat="61.075626" lon="13.631667">
        <ele>419.364</ele>
        <time>1970-01-01T01:00:00Z</time>
      </trkpt>
      <trkpt lat="61.07545" lon="13.632045">
        <ele>419.091</ele>
        <time>1970-01-01T01:00:00Z</time>
      </trkpt>
      <trkpt lat="61.075412" lon="13.632099">
        <ele>418.818</ele>
        <time>1970-01-01T01:00:00Z</time>
      </trkpt>
      <trkpt lat="61.075267" lon="13.632428">
        <ele>418.545</ele>
        <time>1970-01-01T01:00:00Z</time>
      </trkpt>
      <trkpt lat="61.075157" lon="13.632779">
        <ele>418.273</ele>
        <time>1970-01-01T01:00:00Z</time>
      </trkpt>
      <trkpt lat="61.075054" lon="13.633039">
        <ele>417.818</ele>
        <time>1970-01-01T01:00:00Z</time>
      </trkpt>
      <trkpt lat="61.074977" lon="13.633217">
        <ele>417.364</ele>
        <time>1970-01-01T01:00:00Z</time>
      </trkpt>
      <trkpt lat="61.074954" lon="13.633348">
        <ele>416.636</ele>
        <time>1970-01-01T01:00:00Z</time>
      </trkpt>
      <trkpt lat="61.07492" lon="13.633483">
        <ele>415.909</ele>
        <time>1970-01-01T01:00:00Z</time>
      </trkpt>
      <trkpt lat="61.074897" lon="13.633613">
        <ele>414.909</ele>
        <time>1970-01-01T01:00:00Z</time>
      </trkpt>
      <trkpt lat="61.074928" lon="13.633964">
        <ele>413.909</ele>
        <time>1970-01-01T01:00:00Z</time>
      </trkpt>
      <trkpt lat="61.074947" lon="13.634086">
        <ele>412.636</ele>
        <time>1970-01-01T01:00:00Z</time>
      </trkpt>
      <trkpt lat="61.075004" lon="13.6347">
        <ele>411.545</ele>
        <time>1970-01-01T01:00:00Z</time>
      </trkpt>
      <trkpt lat="61.075004" lon="13.634821">
        <ele>410.455</ele>
        <time>1970-01-01T01:00:00Z</time>
      </trkpt>
      <trkpt lat="61.075012" lon="13.635761">
        <ele>409.091</ele>
        <time>1970-01-01T01:00:00Z</time>
      </trkpt>
      <trkpt lat="61.074981" lon="13.636314">
        <ele>407.727</ele>
        <time>1970-01-01T01:00:00Z</time>
      </trkpt>
      <trkpt lat="61.074836" lon="13.636881">
        <ele>406.455</ele>
        <time>1970-01-01T01:00:00Z</time>
      </trkpt>
      <trkpt lat="61.074726" lon="13.637135">
        <ele>405.182</ele>
        <time>1970-01-01T01:00:00Z</time>
      </trkpt>
      <trkpt lat="61.074554" lon="13.637451">
        <ele>404</ele>
        <time>1970-01-01T01:00:00Z</time>
      </trkpt>
      <trkpt lat="61.074394" lon="13.638013">
        <ele>402.818</ele>
        <time>1970-01-01T01:00:00Z</time>
      </trkpt>
      <trkpt lat="61.074405" lon="13.638542">
        <ele>401.636</ele>
        <time>1970-01-01T01:00:00Z</time>
      </trkpt>
      <trkpt lat="61.074451" lon="13.639164">
        <ele>400.455</ele>
        <time>1970-01-01T01:00:00Z</time>
      </trkpt>
      <trkpt lat="61.074481" lon="13.639486">
        <ele>399.364</ele>
        <time>1970-01-01T01:00:00Z</time>
      </trkpt>
      <trkpt lat="61.074512" lon="13.639967">
        <ele>398.364</ele>
        <time>1970-01-01T01:00:00Z</time>
      </trkpt>
      <trkpt lat="61.074436" lon="13.64043">
        <ele>397.364</ele>
        <time>1970-01-01T01:00:00Z</time>
      </trkpt>
      <trkpt lat="61.074279" lon="13.640831">
        <ele>396.636</ele>
        <time>1970-01-01T01:00:00Z</time>
      </trkpt>
      <trkpt lat="61.074073" lon="13.641149">
        <ele>395.727</ele>
        <time>1970-01-01T01:00:00Z</time>
      </trkpt>
      <trkpt lat="61.073841" lon="13.641412">
        <ele>395</ele>
        <time>1970-01-01T01:00:00Z</time>
      </trkpt>
      <trkpt lat="61.073722" lon="13.64164">
        <ele>394</ele>
        <time>1970-01-01T01:00:00Z</time>
      </trkpt>
      <trkpt lat="61.073692" lon="13.641903">
        <ele>393.182</ele>
        <time>1970-01-01T01:00:00Z</time>
      </trkpt>
      <trkpt lat="61.073657" lon="13.642052">
        <ele>392.364</ele>
        <time>1970-01-01T01:00:00Z</time>
      </trkpt>
      <trkpt lat="61.073616" lon="13.642386">
        <ele>391.818</ele>
        <time>1970-01-01T01:00:00Z</time>
      </trkpt>
      <trkpt lat="61.073616" lon="13.642721">
        <ele>391.273</ele>
        <time>1970-01-01T01:00:00Z</time>
      </trkpt>
      <trkpt lat="61.073524" lon="13.643121">
        <ele>390.909</ele>
        <time>1970-01-01T01:00:00Z</time>
      </trkpt>
      <trkpt lat="61.073417" lon="13.643436">
        <ele>390.182</ele>
        <time>1970-01-01T01:00:00Z</time>
      </trkpt>
      <trkpt lat="61.07339" lon="13.643523">
        <ele>389.636</ele>
        <time>1970-01-01T01:00:00Z</time>
      </trkpt>
      <trkpt lat="61.073318" lon="13.643671">
        <ele>389.091</ele>
        <time>1970-01-01T01:00:00Z</time>
      </trkpt>
      <trkpt lat="61.073223" lon="13.643818">
        <ele>388.455</ele>
        <time>1970-01-01T01:00:00Z</time>
      </trkpt>
      <trkpt lat="61.073184" lon="13.643849">
        <ele>387.818</ele>
        <time>1970-01-01T01:00:00Z</time>
      </trkpt>
      <trkpt lat="61.073001" lon="13.644076">
        <ele>387.455</ele>
        <time>1970-01-01T01:00:00Z</time>
      </trkpt>
      <trkpt lat="61.072902" lon="13.644358">
        <ele>387.091</ele>
        <time>1970-01-01T01:00:00Z</time>
      </trkpt>
      <trkpt lat="61.072803" lon="13.644536">
        <ele>386.727</ele>
        <time>1970-01-01T01:00:00Z</time>
      </trkpt>
      <trkpt lat="61.072631" lon="13.644807">
        <ele>386.091</ele>
        <time>1970-01-01T01:00:00Z</time>
      </trkpt>
      <trkpt lat="61.072555" lon="13.644876">
        <ele>385.455</ele>
        <time>1970-01-01T01:00:00Z</time>
      </trkpt>
      <trkpt lat="61.072517" lon="13.644919">
        <ele>384.818</ele>
        <time>1970-01-01T01:00:00Z</time>
      </trkpt>
      <trkpt lat="61.072467" lon="13.645005">
        <ele>384.182</ele>
        <time>1970-01-01T01:00:00Z</time>
      </trkpt>
      <trkpt lat="61.072376" lon="13.645417">
        <ele>383.364</ele>
        <time>1970-01-01T01:00:00Z</time>
      </trkpt>
      <trkpt lat="61.072376" lon="13.645769">
        <ele>382.364</ele>
        <time>1970-01-01T01:00:00Z</time>
      </trkpt>
      <trkpt lat="61.072383" lon="13.645942">
        <ele>381.636</ele>
        <time>1970-01-01T01:00:00Z</time>
      </trkpt>
      <trkpt lat="61.072429" lon="13.646209">
        <ele>380.909</ele>
        <time>1970-01-01T01:00:00Z</time>
      </trkpt>
      <trkpt lat="61.072429" lon="13.64657">
        <ele>380.182</ele>
        <time>1970-01-01T01:00:00Z</time>
      </trkpt>
      <trkpt lat="61.072372" lon="13.646916">
        <ele>379.455</ele>
        <time>1970-01-01T01:00:00Z</time>
      </trkpt>
      <trkpt lat="61.072364" lon="13.647203">
        <ele>378.455</ele>
        <time>1970-01-01T01:00:00Z</time>
      </trkpt>
      <trkpt lat="61.072299" lon="13.647541">
        <ele>377.909</ele>
        <time>1970-01-01T01:00:00Z</time>
      </trkpt>
      <trkpt lat="61.072254" lon="13.647733">
        <ele>377.364</ele>
        <time>1970-01-01T01:00:00Z</time>
      </trkpt>
      <trkpt lat="61.072204" lon="13.647893">
        <ele>376.636</ele>
        <time>1970-01-01T01:00:00Z</time>
      </trkpt>
      <trkpt lat="61.072177" lon="13.647971">
        <ele>376.182</ele>
        <time>1970-01-01T01:00:00Z</time>
      </trkpt>
      <trkpt lat="61.072147" lon="13.648055">
        <ele>375.727</ele>
        <time>1970-01-01T01:00:00Z</time>
      </trkpt>
      <trkpt lat="61.072048" lon="13.648351">
        <ele>375.455</ele>
        <time>1970-01-01T01:00:00Z</time>
      </trkpt>
      <trkpt lat="61.071964" lon="13.64869">
        <ele>375</ele>
        <time>1970-01-01T01:00:00Z</time>
      </trkpt>
      <trkpt lat="61.07191" lon="13.648928">
        <ele>374.545</ele>
        <time>1970-01-01T01:00:00Z</time>
      </trkpt>
      <trkpt lat="61.071899" lon="13.649071">
        <ele>373.909</ele>
        <time>1970-01-01T01:00:00Z</time>
      </trkpt>
      <trkpt lat="61.07188" lon="13.649219">
        <ele>373.273</ele>
        <time>1970-01-01T01:00:00Z</time>
      </trkpt>
      <trkpt lat="61.071857" lon="13.649486">
        <ele>372.909</ele>
        <time>1970-01-01T01:00:00Z</time>
      </trkpt>
      <trkpt lat="61.071853" lon="13.649891">
        <ele>372.364</ele>
        <time>1970-01-01T01:00:00Z</time>
      </trkpt>
      <trkpt lat="61.071846" lon="13.650179">
        <ele>371.818</ele>
        <time>1970-01-01T01:00:00Z</time>
      </trkpt>
      <trkpt lat="61.071762" lon="13.650762">
        <ele>371.455</ele>
        <time>1970-01-01T01:00:00Z</time>
      </trkpt>
      <trkpt lat="61.071712" lon="13.650984">
        <ele>371.091</ele>
        <time>1970-01-01T01:00:00Z</time>
      </trkpt>
      <trkpt lat="61.071674" lon="13.651467">
        <ele>370.727</ele>
        <time>1970-01-01T01:00:00Z</time>
      </trkpt>
      <trkpt lat="61.071624" lon="13.651833">
        <ele>370.364</ele>
        <time>1970-01-01T01:00:00Z</time>
      </trkpt>
      <trkpt lat="61.071594" lon="13.652064">
        <ele>370.182</ele>
        <time>1970-01-01T01:00:00Z</time>
      </trkpt>
      <trkpt lat="61.071552" lon="13.652303">
        <ele>370</ele>
        <time>1970-01-01T01:00:00Z</time>
      </trkpt>
      <trkpt lat="61.071483" lon="13.652422">
        <ele>370</ele>
        <time>1970-01-01T01:00:00Z</time>
      </trkpt>
      <trkpt lat="61.071464" lon="13.652479">
        <ele>370</ele>
        <time>1970-01-01T01:00:00Z</time>
      </trkpt>
      <trkpt lat="61.071392" lon="13.652858">
        <ele>370</ele>
        <time>1970-01-01T01:00:00Z</time>
      </trkpt>
      <trkpt lat="61.071403" lon="13.653699">
        <ele>370</ele>
        <time>1970-01-01T01:00:00Z</time>
      </trkpt>
      <trkpt lat="61.071418" lon="13.653824">
        <ele>370</ele>
        <time>1970-01-01T01:00:00Z</time>
      </trkpt>
      <trkpt lat="61.071453" lon="13.65403">
        <ele>370</ele>
        <time>1970-01-01T01:00:00Z</time>
      </trkpt>
      <trkpt lat="61.071605" lon="13.654359">
        <ele>370</ele>
        <time>1970-01-01T01:00:00Z</time>
      </trkpt>
      <trkpt lat="61.071636" lon="13.654527">
        <ele>370</ele>
        <time>1970-01-01T01:00:00Z</time>
      </trkpt>
      <trkpt lat="61.071701" lon="13.654898">
        <ele>370</ele>
        <time>1970-01-01T01:00:00Z</time>
      </trkpt>
      <trkpt lat="61.071735" lon="13.655254">
        <ele>370</ele>
        <time>1970-01-01T01:00:00Z</time>
      </trkpt>
      <trkpt lat="61.071716" lon="13.65572">
        <ele>370</ele>
        <time>1970-01-01T01:00:00Z</time>
      </trkpt>
      <trkpt lat="61.071617" lon="13.656332">
        <ele>370</ele>
        <time>1970-01-01T01:00:00Z</time>
      </trkpt>
      <trkpt lat="61.07159" lon="13.656438">
        <ele>370</ele>
        <time>1970-01-01T01:00:00Z</time>
      </trkpt>
      <trkpt lat="61.071559" lon="13.656813">
        <ele>369.818</ele>
        <time>1970-01-01T01:00:00Z</time>
      </trkpt>
      <trkpt lat="61.071533" lon="13.657139">
        <ele>369.636</ele>
        <time>1970-01-01T01:00:00Z</time>
      </trkpt>
      <trkpt lat="61.07151" lon="13.657444">
        <ele>369.455</ele>
        <time>1970-01-01T01:00:00Z</time>
      </trkpt>
      <trkpt lat="61.071449" lon="13.657806">
        <ele>369.182</ele>
        <time>1970-01-01T01:00:00Z</time>
      </trkpt>
      <trkpt lat="61.071334" lon="13.658131">
        <ele>368.909</ele>
        <time>1970-01-01T01:00:00Z</time>
      </trkpt>
      <trkpt lat="61.071247" lon="13.658242">
        <ele>368.636</ele>
        <time>1970-01-01T01:00:00Z</time>
      </trkpt>
      <trkpt lat="61.071216" lon="13.658308">
        <ele>368.182</ele>
        <time>1970-01-01T01:00:00Z</time>
      </trkpt>
      <trkpt lat="61.071105" lon="13.658603">
        <ele>367.727</ele>
        <time>1970-01-01T01:00:00Z</time>
      </trkpt>
      <trkpt lat="61.071014" lon="13.658839">
        <ele>367.273</ele>
        <time>1970-01-01T01:00:00Z</time>
      </trkpt>
      <trkpt lat="61.070968" lon="13.659216">
        <ele>366.727</ele>
        <time>1970-01-01T01:00:00Z</time>
      </trkpt>
      <trkpt lat="61.071037" lon="13.659511">
        <ele>366.182</ele>
        <time>1970-01-01T01:00:00Z</time>
      </trkpt>
      <trkpt lat="61.071147" lon="13.659802">
        <ele>365.636</ele>
        <time>1970-01-01T01:00:00Z</time>
      </trkpt>
      <trkpt lat="61.071212" lon="13.660084">
        <ele>365.091</ele>
        <time>1970-01-01T01:00:00Z</time>
      </trkpt>
      <trkpt lat="61.071247" lon="13.660349">
        <ele>364.545</ele>
        <time>1970-01-01T01:00:00Z</time>
      </trkpt>
      <trkpt lat="61.071338" lon="13.660631">
        <ele>364.091</ele>
        <time>1970-01-01T01:00:00Z</time>
      </trkpt>
      <trkpt lat="61.071514" lon="13.660989">
        <ele>363.636</ele>
        <time>1970-01-01T01:00:00Z</time>
      </trkpt>
      <trkpt lat="61.071655" lon="13.661271">
        <ele>362.909</ele>
        <time>1970-01-01T01:00:00Z</time>
      </trkpt>
      <trkpt lat="61.071674" lon="13.661311">
        <ele>362.364</ele>
        <time>1970-01-01T01:00:00Z</time>
      </trkpt>
      <trkpt lat="61.0718" lon="13.661488">
        <ele>361.818</ele>
        <time>1970-01-01T01:00:00Z</time>
      </trkpt>
      <trkpt lat="61.07188" lon="13.661637">
        <ele>361.273</ele>
        <time>1970-01-01T01:00:00Z</time>
      </trkpt>
      <trkpt lat="61.072036" lon="13.661962">
        <ele>360.818</ele>
        <time>1970-01-01T01:00:00Z</time>
      </trkpt>
      <trkpt lat="61.072132" lon="13.662124">
        <ele>360.364</ele>
        <time>1970-01-01T01:00:00Z</time>
      </trkpt>
      <trkpt lat="61.072307" lon="13.662326">
        <ele>360</ele>
        <time>1970-01-01T01:00:00Z</time>
      </trkpt>
      <trkpt lat="61.072395" lon="13.662394">
        <ele>359.636</ele>
        <time>1970-01-01T01:00:00Z</time>
      </trkpt>
      <trkpt lat="61.072574" lon="13.662462">
        <ele>359.273</ele>
        <time>1970-01-01T01:00:00Z</time>
      </trkpt>
      <trkpt lat="61.072742" lon="13.662468">
        <ele>358.909</ele>
        <time>1970-01-01T01:00:00Z</time>
      </trkpt>
      <trkpt lat="61.072898" lon="13.662459">
        <ele>358.545</ele>
        <time>1970-01-01T01:00:00Z</time>
      </trkpt>
      <trkpt lat="61.073074" lon="13.662396">
        <ele>358.364</ele>
        <time>1970-01-01T01:00:00Z</time>
      </trkpt>
      <trkpt lat="61.073223" lon="13.662365">
        <ele>358.182</ele>
        <time>1970-01-01T01:00:00Z</time>
      </trkpt>
      <trkpt lat="61.073455" lon="13.662482">
        <ele>357.545</ele>
        <time>1970-01-01T01:00:00Z</time>
      </trkpt>
      <trkpt lat="61.07357" lon="13.662734">
        <ele>356.636</ele>
        <time>1970-01-01T01:00:00Z</time>
      </trkpt>
      <trkpt lat="61.073638" lon="13.662912">
        <ele>355.364</ele>
        <time>1970-01-01T01:00:00Z</time>
      </trkpt>
      <trkpt lat="61.073783" lon="13.663254">
        <ele>354.091</ele>
        <time>1970-01-01T01:00:00Z</time>
      </trkpt>
      <trkpt lat="61.073795" lon="13.663323">
        <ele>352.545</ele>
        <time>1970-01-01T01:00:00Z</time>
      </trkpt>
      <trkpt lat="61.073879" lon="13.663847">
        <ele>351</ele>
        <time>1970-01-01T01:00:00Z</time>
      </trkpt>
      <trkpt lat="61.073886" lon="13.664069">
        <ele>349.455</ele>
        <time>1970-01-01T01:00:00Z</time>
      </trkpt>
      <trkpt lat="61.07389" lon="13.664897">
        <ele>347.636</ele>
        <time>1970-01-01T01:00:00Z</time>
      </trkpt>
      <trkpt lat="61.073913" lon="13.665292">
        <ele>345.818</ele>
        <time>1970-01-01T01:00:00Z</time>
      </trkpt>
      <trkpt lat="61.073947" lon="13.665542">
        <ele>343.727</ele>
        <time>1970-01-01T01:00:00Z</time>
      </trkpt>
      <trkpt lat="61.073982" lon="13.665982">
        <ele>341.636</ele>
        <time>1970-01-01T01:00:00Z</time>
      </trkpt>
      <trkpt lat="61.073989" lon="13.666265">
        <ele>340</ele>
        <time>1970-01-01T01:00:00Z</time>
      </trkpt>
      <trkpt lat="61.074012" lon="13.666543">
        <ele>338.636</ele>
        <time>1970-01-01T01:00:00Z</time>
      </trkpt>
      <trkpt lat="61.074066" lon="13.666926">
        <ele>337.273</ele>
        <time>1970-01-01T01:00:00Z</time>
      </trkpt>
      <trkpt lat="61.074188" lon="13.667333">
        <ele>335.909</ele>
        <time>1970-01-01T01:00:00Z</time>
      </trkpt>
      <trkpt lat="61.074199" lon="13.667396">
        <ele>334.909</ele>
        <time>1970-01-01T01:00:00Z</time>
      </trkpt>
      <trkpt lat="61.074245" lon="13.667562">
        <ele>333.545</ele>
        <time>1970-01-01T01:00:00Z</time>
      </trkpt>
      <trkpt lat="61.074241" lon="13.667838">
        <ele>332.182</ele>
        <time>1970-01-01T01:00:00Z</time>
      </trkpt>
      <trkpt lat="61.07418" lon="13.668133">
        <ele>331.091</ele>
        <time>1970-01-01T01:00:00Z</time>
      </trkpt>
      <trkpt lat="61.074172" lon="13.668406">
        <ele>329.636</ele>
        <time>1970-01-01T01:00:00Z</time>
      </trkpt>
      <trkpt lat="61.074172" lon="13.668508">
        <ele>328.545</ele>
        <time>1970-01-01T01:00:00Z</time>
      </trkpt>
      <trkpt lat="61.074165" lon="13.668821">
        <ele>327.455</ele>
        <time>1970-01-01T01:00:00Z</time>
      </trkpt>
      <trkpt lat="61.074176" lon="13.669189">
        <ele>326.364</ele>
        <time>1970-01-01T01:00:00Z</time>
      </trkpt>
      <trkpt lat="61.074287" lon="13.669577">
        <ele>325.273</ele>
        <time>1970-01-01T01:00:00Z</time>
      </trkpt>
      <trkpt lat="61.074382" lon="13.669798">
        <ele>324.545</ele>
        <time>1970-01-01T01:00:00Z</time>
      </trkpt>
      <trkpt lat="61.074443" lon="13.669944">
        <ele>323.636</ele>
        <time>1970-01-01T01:00:00Z</time>
      </trkpt>
      <trkpt lat="61.074501" lon="13.670068">
        <ele>322.727</ele>
        <time>1970-01-01T01:00:00Z</time>
      </trkpt>
      <trkpt lat="61.074527" lon="13.670136">
        <ele>322.182</ele>
        <time>1970-01-01T01:00:00Z</time>
      </trkpt>
      <trkpt lat="61.074577" lon="13.670276">
        <ele>321.636</ele>
        <time>1970-01-01T01:00:00Z</time>
      </trkpt>
      <trkpt lat="61.074623" lon="13.670394">
        <ele>321</ele>
        <time>1970-01-01T01:00:00Z</time>
      </trkpt>
      <trkpt lat="61.074726" lon="13.670715">
        <ele>320.727</ele>
        <time>1970-01-01T01:00:00Z</time>
      </trkpt>
      <trkpt lat="61.074745" lon="13.670871">
        <ele>320.455</ele>
        <time>1970-01-01T01:00:00Z</time>
      </trkpt>
      <trkpt lat="61.074745" lon="13.670946">
        <ele>320.182</ele>
        <time>1970-01-01T01:00:00Z</time>
      </trkpt>
      <trkpt lat="61.074741" lon="13.671112">
        <ele>319.909</ele>
        <time>1970-01-01T01:00:00Z</time>
      </trkpt>
      <trkpt lat="61.074687" lon="13.671492">
        <ele>319.636</ele>
        <time>1970-01-01T01:00:00Z</time>
      </trkpt>
      <trkpt lat="61.074657" lon="13.671711">
        <ele>319.273</ele>
        <time>1970-01-01T01:00:00Z</time>
      </trkpt>
      <trkpt lat="61.074649" lon="13.672084">
        <ele>319.091</ele>
        <time>1970-01-01T01:00:00Z</time>
      </trkpt>
      <trkpt lat="61.074668" lon="13.672415">
        <ele>318.909</ele>
        <time>1970-01-01T01:00:00Z</time>
      </trkpt>
      <trkpt lat="61.074665" lon="13.672648">
        <ele>318.727</ele>
        <time>1970-01-01T01:00:00Z</time>
      </trkpt>
      <trkpt lat="61.074668" lon="13.672902">
        <ele>318.545</ele>
        <time>1970-01-01T01:00:00Z</time>
      </trkpt>
      <trkpt lat="61.074649" lon="13.67311">
        <ele>318.455</ele>
        <time>1970-01-01T01:00:00Z</time>
      </trkpt>
      <trkpt lat="61.074645" lon="13.673174">
        <ele>318.273</ele>
        <time>1970-01-01T01:00:00Z</time>
      </trkpt>
      <trkpt lat="61.074645" lon="13.673233">
        <ele>318.091</ele>
        <time>1970-01-01T01:00:00Z</time>
      </trkpt>
      <trkpt lat="61.074634" lon="13.673463">
        <ele>317.909</ele>
        <time>1970-01-01T01:00:00Z</time>
      </trkpt>
      <trkpt lat="61.074638" lon="13.673507">
        <ele>317.727</ele>
        <time>1970-01-01T01:00:00Z</time>
      </trkpt>
      <trkpt lat="61.074668" lon="13.67378">
        <ele>317.545</ele>
        <time>1970-01-01T01:00:00Z</time>
      </trkpt>
      <trkpt lat="61.074726" lon="13.674017">
        <ele>317.455</ele>
        <time>1970-01-01T01:00:00Z</time>
      </trkpt>
      <trkpt lat="61.074752" lon="13.674264">
        <ele>317.364</ele>
        <time>1970-01-01T01:00:00Z</time>
      </trkpt>
      <trkpt lat="61.074745" lon="13.674564">
        <ele>317.273</ele>
        <time>1970-01-01T01:00:00Z</time>
      </trkpt>
      <trkpt lat="61.074794" lon="13.67482">
        <ele>317.182</ele>
        <time>1970-01-01T01:00:00Z</time>
      </trkpt>
      <trkpt lat="61.074771" lon="13.675159">
        <ele>317.091</ele>
        <time>1970-01-01T01:00:00Z</time>
      </trkpt>
      <trkpt lat="61.07476" lon="13.675415">
        <ele>317</ele>
        <time>1970-01-01T01:00:00Z</time>
      </trkpt>
      <trkpt lat="61.074722" lon="13.675684">
        <ele>317</ele>
        <time>1970-01-01T01:00:00Z</time>
      </trkpt>
      <trkpt lat="61.074699" lon="13.675782">
        <ele>317</ele>
        <time>1970-01-01T01:00:00Z</time>
      </trkpt>
      <trkpt lat="61.074569" lon="13.676331">
        <ele>317</ele>
        <time>1970-01-01T01:00:00Z</time>
      </trkpt>
      <trkpt lat="61.074539" lon="13.676594">
        <ele>317</ele>
        <time>1970-01-01T01:00:00Z</time>
      </trkpt>
      <trkpt lat="61.074455" lon="13.676898">
        <ele>317.091</ele>
        <time>1970-01-01T01:00:00Z</time>
      </trkpt>
      <trkpt lat="61.074317" lon="13.67718">
        <ele>317.182</ele>
        <time>1970-01-01T01:00:00Z</time>
      </trkpt>
      <trkpt lat="61.074222" lon="13.677378">
        <ele>317.273</ele>
        <time>1970-01-01T01:00:00Z</time>
      </trkpt>
      <trkpt lat="61.074119" lon="13.677569">
        <ele>317.364</ele>
        <time>1970-01-01T01:00:00Z</time>
      </trkpt>
      <trkpt lat="61.074092" lon="13.677654">
        <ele>317.455</ele>
        <time>1970-01-01T01:00:00Z</time>
      </trkpt>
      <trkpt lat="61.074054" lon="13.678119">
        <ele>317.545</ele>
        <time>1970-01-01T01:00:00Z</time>
      </trkpt>
      <trkpt lat="61.074062" lon="13.678251">
        <ele>317.636</ele>
        <time>1970-01-01T01:00:00Z</time>
      </trkpt>
      <trkpt lat="61.074146" lon="13.678725">
        <ele>317.727</ele>
        <time>1970-01-01T01:00:00Z</time>
      </trkpt>
      <trkpt lat="61.074279" lon="13.679016">
        <ele>317.818</ele>
        <time>1970-01-01T01:00:00Z</time>
      </trkpt>
      <trkpt lat="61.07431" lon="13.679077">
        <ele>317.909</ele>
        <time>1970-01-01T01:00:00Z</time>
      </trkpt>
      <trkpt lat="61.074432" lon="13.679252">
        <ele>318</ele>
        <time>1970-01-01T01:00:00Z</time>
      </trkpt>
      <trkpt lat="61.074481" lon="13.679317">
        <ele>318</ele>
        <time>1970-01-01T01:00:00Z</time>
      </trkpt>
      <trkpt lat="61.0746" lon="13.679473">
        <ele>318.091</ele>
        <time>1970-01-01T01:00:00Z</time>
      </trkpt>
      <trkpt lat="61.074806" lon="13.679711">
        <ele>318.182</ele>
        <time>1970-01-01T01:00:00Z</time>
      </trkpt>
      <trkpt lat="61.075111" lon="13.679846">
        <ele>318.273</ele>
        <time>1970-01-01T01:00:00Z</time>
      </trkpt>
      <trkpt lat="61.075187" lon="13.679853">
        <ele>318.364</ele>
        <time>1970-01-01T01:00:00Z</time>
      </trkpt>
      <trkpt lat="61.075443" lon="13.679936">
        <ele>318.455</ele>
        <time>1970-01-01T01:00:00Z</time>
      </trkpt>
      <trkpt lat="61.07574" lon="13.679864">
        <ele>318.545</ele>
        <time>1970-01-01T01:00:00Z</time>
      </trkpt>
      <trkpt lat="61.075969" lon="13.679618">
        <ele>318.636</ele>
        <time>1970-01-01T01:00:00Z</time>
      </trkpt>
      <trkpt lat="61.076179" lon="13.679394">
        <ele>318.727</ele>
        <time>1970-01-01T01:00:00Z</time>
      </trkpt>
      <trkpt lat="61.076221" lon="13.679361">
        <ele>318.818</ele>
        <time>1970-01-01T01:00:00Z</time>
      </trkpt>
      <trkpt lat="61.076263" lon="13.679332">
        <ele>319</ele>
        <time>1970-01-01T01:00:00Z</time>
      </trkpt>
      <trkpt lat="61.0764" lon="13.67927">
        <ele>319.182</ele>
        <time>1970-01-01T01:00:00Z</time>
      </trkpt>
      <trkpt lat="61.076526" lon="13.679297">
        <ele>319.273</ele>
        <time>1970-01-01T01:00:00Z</time>
      </trkpt>
      <trkpt lat="61.076732" lon="13.679423">
        <ele>319.364</ele>
        <time>1970-01-01T01:00:00Z</time>
      </trkpt>
      <trkpt lat="61.076995" lon="13.679598">
        <ele>319.364</ele>
        <time>1970-01-01T01:00:00Z</time>
      </trkpt>
      <trkpt lat="61.077163" lon="13.679696">
        <ele>319.364</ele>
        <time>1970-01-01T01:00:00Z</time>
      </trkpt>
      <trkpt lat="61.077262" lon="13.679759">
        <ele>319.364</ele>
        <time>1970-01-01T01:00:00Z</time>
      </trkpt>
      <trkpt lat="61.077445" lon="13.680151">
        <ele>319.364</ele>
        <time>1970-01-01T01:00:00Z</time>
      </trkpt>
      <trkpt lat="61.077487" lon="13.680235">
        <ele>319.364</ele>
        <time>1970-01-01T01:00:00Z</time>
      </trkpt>
      <trkpt lat="61.077613" lon="13.680462">
        <ele>319.364</ele>
        <time>1970-01-01T01:00:00Z</time>
      </trkpt>
      <trkpt lat="61.077686" lon="13.680676">
        <ele>319.364</ele>
        <time>1970-01-01T01:00:00Z</time>
      </trkpt>
      <trkpt lat="61.077793" lon="13.680937">
        <ele>319.273</ele>
        <time>1970-01-01T01:00:00Z</time>
      </trkpt>
      <trkpt lat="61.07793" lon="13.681263">
        <ele>319.182</ele>
        <time>1970-01-01T01:00:00Z</time>
      </trkpt>
      <trkpt lat="61.077995" lon="13.681427">
        <ele>319.091</ele>
        <time>1970-01-01T01:00:00Z</time>
      </trkpt>
      <trkpt lat="61.078102" lon="13.681654">
        <ele>319</ele>
        <time>1970-01-01T01:00:00Z</time>
      </trkpt>
      <trkpt lat="61.078117" lon="13.681702">
        <ele>319</ele>
        <time>1970-01-01T01:00:00Z</time>
      </trkpt>
      <trkpt lat="61.07822" lon="13.682003">
        <ele>319</ele>
        <time>1970-01-01T01:00:00Z</time>
      </trkpt>
      <trkpt lat="61.078292" lon="13.682276">
        <ele>319</ele>
        <time>1970-01-01T01:00:00Z</time>
      </trkpt>
      <trkpt lat="61.07833" lon="13.682388">
        <ele>319</ele>
        <time>1970-01-01T01:00:00Z</time>
      </trkpt>
      <trkpt lat="61.078395" lon="13.682523">
        <ele>319</ele>
        <time>1970-01-01T01:00:00Z</time>
      </trkpt>
      <trkpt lat="61.078414" lon="13.682561">
        <ele>319</ele>
        <time>1970-01-01T01:00:00Z</time>
      </trkpt>
      <trkpt lat="61.078464" lon="13.682717">
        <ele>319</ele>
        <time>1970-01-01T01:00:00Z</time>
      </trkpt>
      <trkpt lat="61.078491" lon="13.682784">
        <ele>319</ele>
        <time>1970-01-01T01:00:00Z</time>
      </trkpt>
      <trkpt lat="61.078536" lon="13.682995">
        <ele>319</ele>
        <time>1970-01-01T01:00:00Z</time>
      </trkpt>
      <trkpt lat="61.078601" lon="13.683228">
        <ele>319</ele>
        <time>1970-01-01T01:00:00Z</time>
      </trkpt>
      <trkpt lat="61.078689" lon="13.683377">
        <ele>319</ele>
        <time>1970-01-01T01:00:00Z</time>
      </trkpt>
      <trkpt lat="61.078723" lon="13.683427">
        <ele>319</ele>
        <time>1970-01-01T01:00:00Z</time>
      </trkpt>
      <trkpt lat="61.078784" lon="13.683673">
        <ele>319</ele>
        <time>1970-01-01T01:00:00Z</time>
      </trkpt>
      <trkpt lat="61.078769" lon="13.683925">
        <ele>319</ele>
        <time>1970-01-01T01:00:00Z</time>
      </trkpt>
      <trkpt lat="61.078716" lon="13.684123">
        <ele>319</ele>
        <time>1970-01-01T01:00:00Z</time>
      </trkpt>
      <trkpt lat="61.078712" lon="13.684262">
        <ele>319</ele>
        <time>1970-01-01T01:00:00Z</time>
      </trkpt>
      <trkpt lat="61.078659" lon="13.684539">
        <ele>319</ele>
        <time>1970-01-01T01:00:00Z</time>
      </trkpt>
      <trkpt lat="61.078651" lon="13.684814">
        <ele>319</ele>
        <time>1970-01-01T01:00:00Z</time>
      </trkpt>
      <trkpt lat="61.078655" lon="13.685069">
        <ele>318.909</ele>
        <time>1970-01-01T01:00:00Z</time>
      </trkpt>
      <trkpt lat="61.07867" lon="13.685291">
        <ele>318.818</ele>
        <time>1970-01-01T01:00:00Z</time>
      </trkpt>
      <trkpt lat="61.078666" lon="13.685372">
        <ele>318.727</ele>
        <time>1970-01-01T01:00:00Z</time>
      </trkpt>
      <trkpt lat="61.078712" lon="13.685718">
        <ele>318.545</ele>
        <time>1970-01-01T01:00:00Z</time>
      </trkpt>
      <trkpt lat="61.078708" lon="13.686031">
        <ele>318.364</ele>
        <time>1970-01-01T01:00:00Z</time>
      </trkpt>
      <trkpt lat="61.078731" lon="13.686381">
        <ele>318.182</ele>
        <time>1970-01-01T01:00:00Z</time>
      </trkpt>
      <trkpt lat="61.078739" lon="13.686514">
        <ele>318</ele>
        <time>1970-01-01T01:00:00Z</time>
      </trkpt>
      <trkpt lat="61.078784" lon="13.686893">
        <ele>317.727</ele>
        <time>1970-01-01T01:00:00Z</time>
      </trkpt>
      <trkpt lat="61.078853" lon="13.687154">
        <ele>317.455</ele>
        <time>1970-01-01T01:00:00Z</time>
      </trkpt>
      <trkpt lat="61.078937" lon="13.687381">
        <ele>317.182</ele>
        <time>1970-01-01T01:00:00Z</time>
      </trkpt>
      <trkpt lat="61.079013" lon="13.687582">
        <ele>316.818</ele>
        <time>1970-01-01T01:00:00Z</time>
      </trkpt>
      <trkpt lat="61.079135" lon="13.687829">
        <ele>316.545</ele>
        <time>1970-01-01T01:00:00Z</time>
      </trkpt>
      <trkpt lat="61.079257" lon="13.688128">
        <ele>316.364</ele>
        <time>1970-01-01T01:00:00Z</time>
      </trkpt>
      <trkpt lat="61.079372" lon="13.688464">
        <ele>316.182</ele>
        <time>1970-01-01T01:00:00Z</time>
      </trkpt>
      <trkpt lat="61.07949" lon="13.688786">
        <ele>316.091</ele>
        <time>1970-01-01T01:00:00Z</time>
      </trkpt>
      <trkpt lat="61.079551" lon="13.688941">
        <ele>316</ele>
        <time>1970-01-01T01:00:00Z</time>
      </trkpt>
      <trkpt lat="61.079601" lon="13.689084">
        <ele>315.909</ele>
        <time>1970-01-01T01:00:00Z</time>
      </trkpt>
      <trkpt lat="61.079681" lon="13.689349">
        <ele>315.909</ele>
        <time>1970-01-01T01:00:00Z</time>
      </trkpt>
      <trkpt lat="61.079723" lon="13.689476">
        <ele>316</ele>
        <time>1970-01-01T01:00:00Z</time>
      </trkpt>
      <trkpt lat="61.079765" lon="13.68964">
        <ele>316.091</ele>
        <time>1970-01-01T01:00:00Z</time>
      </trkpt>
      <trkpt lat="61.079845" lon="13.689963">
        <ele>316.182</ele>
        <time>1970-01-01T01:00:00Z</time>
      </trkpt>
      <trkpt lat="61.079925" lon="13.690212">
        <ele>316.364</ele>
        <time>1970-01-01T01:00:00Z</time>
      </trkpt>
      <trkpt lat="61.080001" lon="13.690471">
        <ele>316.545</ele>
        <time>1970-01-01T01:00:00Z</time>
      </trkpt>
      <trkpt lat="61.080051" lon="13.690658">
        <ele>316.636</ele>
        <time>1970-01-01T01:00:00Z</time>
      </trkpt>
      <trkpt lat="61.080112" lon="13.690881">
        <ele>316.727</ele>
        <time>1970-01-01T01:00:00Z</time>
      </trkpt>
      <trkpt lat="61.080146" lon="13.691064">
        <ele>316.818</ele>
        <time>1970-01-01T01:00:00Z</time>
      </trkpt>
      <trkpt lat="61.080165" lon="13.691115">
        <ele>316.909</ele>
        <time>1970-01-01T01:00:00Z</time>
      </trkpt>
      <trkpt lat="61.080261" lon="13.691279">
        <ele>317</ele>
        <time>1970-01-01T01:00:00Z</time>
      </trkpt>
      <trkpt lat="61.080318" lon="13.69145">
        <ele>317.091</ele>
        <time>1970-01-01T01:00:00Z</time>
      </trkpt>
      <trkpt lat="61.080345" lon="13.691553">
        <ele>317.182</ele>
        <time>1970-01-01T01:00:00Z</time>
      </trkpt>
      <trkpt lat="61.080394" lon="13.691761">
        <ele>317.273</ele>
        <time>1970-01-01T01:00:00Z</time>
      </trkpt>
      <trkpt lat="61.080406" lon="13.691828">
        <ele>317.364</ele>
        <time>1970-01-01T01:00:00Z</time>
      </trkpt>
      <trkpt lat="61.08039" lon="13.692026">
        <ele>317.455</ele>
        <time>1970-01-01T01:00:00Z</time>
      </trkpt>
      <trkpt lat="61.080444" lon="13.692131">
        <ele>317.545</ele>
        <time>1970-01-01T01:00:00Z</time>
      </trkpt>
      <trkpt lat="61.080478" lon="13.692244">
        <ele>317.636</ele>
        <time>1970-01-01T01:00:00Z</time>
      </trkpt>
      <trkpt lat="61.080501" lon="13.692349">
        <ele>317.818</ele>
        <time>1970-01-01T01:00:00Z</time>
      </trkpt>
      <trkpt lat="61.080532" lon="13.692572">
        <ele>318</ele>
        <time>1970-01-01T01:00:00Z</time>
      </trkpt>
      <trkpt lat="61.080543" lon="13.692722">
        <ele>318.182</ele>
        <time>1970-01-01T01:00:00Z</time>
      </trkpt>
      <trkpt lat="61.080581" lon="13.692914">
        <ele>318.364</ele>
        <time>1970-01-01T01:00:00Z</time>
      </trkpt>
      <trkpt lat="61.080574" lon="13.692999">
        <ele>318.545</ele>
        <time>1970-01-01T01:00:00Z</time>
      </trkpt>
      <trkpt lat="61.080581" lon="13.693162">
        <ele>318.727</ele>
        <time>1970-01-01T01:00:00Z</time>
      </trkpt>
      <trkpt lat="61.080589" lon="13.693221">
        <ele>318.909</ele>
        <time>1970-01-01T01:00:00Z</time>
      </trkpt>
      <trkpt lat="61.080581" lon="13.693331">
        <ele>319.091</ele>
        <time>1970-01-01T01:00:00Z</time>
      </trkpt>
      <trkpt lat="61.080577" lon="13.693538">
        <ele>319.273</ele>
        <time>1970-01-01T01:00:00Z</time>
      </trkpt>
      <trkpt lat="61.080513" lon="13.693931">
        <ele>319.455</ele>
        <time>1970-01-01T01:00:00Z</time>
      </trkpt>
      <trkpt lat="61.080455" lon="13.694182">
        <ele>319.636</ele>
        <time>1970-01-01T01:00:00Z</time>
      </trkpt>
      <trkpt lat="61.080436" lon="13.694372">
        <ele>319.727</ele>
        <time>1970-01-01T01:00:00Z</time>
      </trkpt>
      <trkpt lat="61.080364" lon="13.694764">
        <ele>319.818</ele>
        <time>1970-01-01T01:00:00Z</time>
      </trkpt>
      <trkpt lat="61.080318" lon="13.69489">
        <ele>319.909</ele>
        <time>1970-01-01T01:00:00Z</time>
      </trkpt>
      <trkpt lat="61.08023" lon="13.695303">
        <ele>320</ele>
        <time>1970-01-01T01:00:00Z</time>
      </trkpt>
      <trkpt lat="61.080177" lon="13.695477">
        <ele>320</ele>
        <time>1970-01-01T01:00:00Z</time>
      </trkpt>
      <trkpt lat="61.08012" lon="13.695721">
        <ele>320</ele>
        <time>1970-01-01T01:00:00Z</time>
      </trkpt>
      <trkpt lat="61.080078" lon="13.695837">
        <ele>320</ele>
        <time>1970-01-01T01:00:00Z</time>
      </trkpt>
      <trkpt lat="61.080001" lon="13.696142">
        <ele>320</ele>
        <time>1970-01-01T01:00:00Z</time>
      </trkpt>
      <trkpt lat="61.079944" lon="13.696523">
        <ele>320</ele>
        <time>1970-01-01T01:00:00Z</time>
      </trkpt>
      <trkpt lat="61.079936" lon="13.696596">
        <ele>320</ele>
        <time>1970-01-01T01:00:00Z</time>
      </trkpt>
      <trkpt lat="61.07991" lon="13.696777">
        <ele>320</ele>
        <time>1970-01-01T01:00:00Z</time>
      </trkpt>
      <trkpt lat="61.079895" lon="13.697044">
        <ele>320</ele>
        <time>1970-01-01T01:00:00Z</time>
      </trkpt>
      <trkpt lat="61.079914" lon="13.69728">
        <ele>320</ele>
        <time>1970-01-01T01:00:00Z</time>
      </trkpt>
      <trkpt lat="61.079948" lon="13.697432">
        <ele>320</ele>
        <time>1970-01-01T01:00:00Z</time>
      </trkpt>
      <trkpt lat="61.079975" lon="13.697733">
        <ele>320</ele>
        <time>1970-01-01T01:00:00Z</time>
      </trkpt>
      <trkpt lat="61.08002" lon="13.698027">
        <ele>319.909</ele>
        <time>1970-01-01T01:00:00Z</time>
      </trkpt>
      <trkpt lat="61.08002" lon="13.698159">
        <ele>319.818</ele>
        <time>1970-01-01T01:00:00Z</time>
      </trkpt>
      <trkpt lat="61.080005" lon="13.698374">
        <ele>319.727</ele>
        <time>1970-01-01T01:00:00Z</time>
      </trkpt>
      <trkpt lat="61.079986" lon="13.698457">
        <ele>319.636</ele>
        <time>1970-01-01T01:00:00Z</time>
      </trkpt>
      <trkpt lat="61.079982" lon="13.698547">
        <ele>319.545</ele>
        <time>1970-01-01T01:00:00Z</time>
      </trkpt>
      <trkpt lat="61.080017" lon="13.698818">
        <ele>319.455</ele>
        <time>1970-01-01T01:00:00Z</time>
      </trkpt>
      <trkpt lat="61.080051" lon="13.699058">
        <ele>319.364</ele>
        <time>1970-01-01T01:00:00Z</time>
      </trkpt>
      <trkpt lat="61.080074" lon="13.699215">
        <ele>319.182</ele>
        <time>1970-01-01T01:00:00Z</time>
      </trkpt>
      <trkpt lat="61.080142" lon="13.69956">
        <ele>319</ele>
        <time>1970-01-01T01:00:00Z</time>
      </trkpt>
      <trkpt lat="61.080245" lon="13.699824">
        <ele>318.818</ele>
        <time>1970-01-01T01:00:00Z</time>
      </trkpt>
      <trkpt lat="61.080333" lon="13.700045">
        <ele>318.636</ele>
        <time>1970-01-01T01:00:00Z</time>
      </trkpt>
      <trkpt lat="61.080352" lon="13.700118">
        <ele>318.545</ele>
        <time>1970-01-01T01:00:00Z</time>
      </trkpt>
      <trkpt lat="61.080364" lon="13.700539">
        <ele>318.455</ele>
        <time>1970-01-01T01:00:00Z</time>
      </trkpt>
      <trkpt lat="61.080402" lon="13.700887">
        <ele>318.364</ele>
        <time>1970-01-01T01:00:00Z</time>
      </trkpt>
      <trkpt lat="61.080444" lon="13.701137">
        <ele>318.273</ele>
        <time>1970-01-01T01:00:00Z</time>
      </trkpt>
      <trkpt lat="61.080497" lon="13.701415">
        <ele>318.182</ele>
        <time>1970-01-01T01:00:00Z</time>
      </trkpt>
      <trkpt lat="61.080554" lon="13.70163">
        <ele>318.091</ele>
        <time>1970-01-01T01:00:00Z</time>
      </trkpt>
      <trkpt lat="61.080566" lon="13.701776">
        <ele>318</ele>
        <time>1970-01-01T01:00:00Z</time>
      </trkpt>
      <trkpt lat="61.080608" lon="13.70208">
        <ele>318</ele>
        <time>1970-01-01T01:00:00Z</time>
      </trkpt>
      <trkpt lat="61.080608" lon="13.702218">
        <ele>318</ele>
        <time>1970-01-01T01:00:00Z</time>
      </trkpt>
      <trkpt lat="61.080596" lon="13.702446">
        <ele>318</ele>
        <time>1970-01-01T01:00:00Z</time>
      </trkpt>
      <trkpt lat="61.080619" lon="13.702636">
        <ele>318</ele>
        <time>1970-01-01T01:00:00Z</time>
      </trkpt>
      <trkpt lat="61.080574" lon="13.702883">
        <ele>318.091</ele>
        <time>1970-01-01T01:00:00Z</time>
      </trkpt>
      <trkpt lat="61.080577" lon="13.703122">
        <ele>318.182</ele>
        <time>1970-01-01T01:00:00Z</time>
      </trkpt>
      <trkpt lat="61.080577" lon="13.703379">
        <ele>318.273</ele>
        <time>1970-01-01T01:00:00Z</time>
      </trkpt>
      <trkpt lat="61.080585" lon="13.703429">
        <ele>318.364</ele>
        <time>1970-01-01T01:00:00Z</time>
      </trkpt>
      <trkpt lat="61.08065" lon="13.703722">
        <ele>318.455</ele>
        <time>1970-01-01T01:00:00Z</time>
      </trkpt>
      <trkpt lat="61.080692" lon="13.703882">
        <ele>318.545</ele>
        <time>1970-01-01T01:00:00Z</time>
      </trkpt>
      <trkpt lat="61.080738" lon="13.704066">
        <ele>318.636</ele>
        <time>1970-01-01T01:00:00Z</time>
      </trkpt>
      <trkpt lat="61.08076" lon="13.704183">
        <ele>318.727</ele>
        <time>1970-01-01T01:00:00Z</time>
      </trkpt>
      <trkpt lat="61.080802" lon="13.704498">
        <ele>318.818</ele>
        <time>1970-01-01T01:00:00Z</time>
      </trkpt>
      <trkpt lat="61.080848" lon="13.704699">
        <ele>319</ele>
        <time>1970-01-01T01:00:00Z</time>
      </trkpt>
      <trkpt lat="61.080863" lon="13.704934">
        <ele>319.182</ele>
        <time>1970-01-01T01:00:00Z</time>
      </trkpt>
      <trkpt lat="61.080902" lon="13.705085">
        <ele>319.273</ele>
        <time>1970-01-01T01:00:00Z</time>
      </trkpt>
      <trkpt lat="61.080909" lon="13.705234">
        <ele>319.364</ele>
        <time>1970-01-01T01:00:00Z</time>
      </trkpt>
      <trkpt lat="61.080928" lon="13.705376">
        <ele>319.455</ele>
        <time>1970-01-01T01:00:00Z</time>
      </trkpt>
      <trkpt lat="61.080951" lon="13.705592">
        <ele>319.545</ele>
        <time>1970-01-01T01:00:00Z</time>
      </trkpt>
      <trkpt lat="61.080986" lon="13.705826">
        <ele>319.636</ele>
        <time>1970-01-01T01:00:00Z</time>
      </trkpt>
      <trkpt lat="61.081008" lon="13.706062">
        <ele>319.727</ele>
        <time>1970-01-01T01:00:00Z</time>
      </trkpt>
      <trkpt lat="61.081031" lon="13.70626">
        <ele>319.909</ele>
        <time>1970-01-01T01:00:00Z</time>
      </trkpt>
      <trkpt lat="61.081043" lon="13.706361">
        <ele>320.091</ele>
        <time>1970-01-01T01:00:00Z</time>
      </trkpt>
      <trkpt lat="61.081081" lon="13.706619">
        <ele>320.273</ele>
        <time>1970-01-01T01:00:00Z</time>
      </trkpt>
      <trkpt lat="61.081089" lon="13.706695">
        <ele>320.364</ele>
        <time>1970-01-01T01:00:00Z</time>
      </trkpt>
      <trkpt lat="61.081108" lon="13.70703">
        <ele>320.636</ele>
        <time>1970-01-01T01:00:00Z</time>
      </trkpt>
      <trkpt lat="61.081127" lon="13.707229">
        <ele>320.909</ele>
        <time>1970-01-01T01:00:00Z</time>
      </trkpt>
      <trkpt lat="61.08113" lon="13.707364">
        <ele>321.182</ele>
        <time>1970-01-01T01:00:00Z</time>
      </trkpt>
      <trkpt lat="61.081146" lon="13.707658">
        <ele>321.455</ele>
        <time>1970-01-01T01:00:00Z</time>
      </trkpt>
      <trkpt lat="61.081142" lon="13.7079">
        <ele>321.909</ele>
        <time>1970-01-01T01:00:00Z</time>
      </trkpt>
      <trkpt lat="61.081108" lon="13.708136">
        <ele>322.364</ele>
        <time>1970-01-01T01:00:00Z</time>
      </trkpt>
      <trkpt lat="61.081077" lon="13.708429">
        <ele>322.818</ele>
        <time>1970-01-01T01:00:00Z</time>
      </trkpt>
      <trkpt lat="61.081062" lon="13.708617">
        <ele>323.182</ele>
        <time>1970-01-01T01:00:00Z</time>
      </trkpt>
      <trkpt lat="61.081077" lon="13.708784">
        <ele>323.727</ele>
        <time>1970-01-01T01:00:00Z</time>
      </trkpt>
      <trkpt lat="61.081073" lon="13.708934">
        <ele>324.273</ele>
        <time>1970-01-01T01:00:00Z</time>
      </trkpt>
      <trkpt lat="61.081073" lon="13.709045">
        <ele>324.909</ele>
        <time>1970-01-01T01:00:00Z</time>
      </trkpt>
      <trkpt lat="61.081085" lon="13.709252">
        <ele>325.545</ele>
        <time>1970-01-01T01:00:00Z</time>
      </trkpt>
      <trkpt lat="61.081127" lon="13.709484">
        <ele>326.182</ele>
        <time>1970-01-01T01:00:00Z</time>
      </trkpt>
      <trkpt lat="61.081161" lon="13.70973">
        <ele>326.818</ele>
        <time>1970-01-01T01:00:00Z</time>
      </trkpt>
      <trkpt lat="61.081211" lon="13.709993">
        <ele>327.455</ele>
        <time>1970-01-01T01:00:00Z</time>
      </trkpt>
      <trkpt lat="61.081272" lon="13.710248">
        <ele>327.909</ele>
        <time>1970-01-01T01:00:00Z</time>
      </trkpt>
      <trkpt lat="61.081356" lon="13.710464">
        <ele>328.545</ele>
        <time>1970-01-01T01:00:00Z</time>
      </trkpt>
      <trkpt lat="61.081428" lon="13.710706">
        <ele>329.182</ele>
        <time>1970-01-01T01:00:00Z</time>
      </trkpt>
      <trkpt lat="61.081493" lon="13.710883">
        <ele>329.818</ele>
        <time>1970-01-01T01:00:00Z</time>
      </trkpt>
      <trkpt lat="61.081508" lon="13.711101">
        <ele>330.273</ele>
        <time>1970-01-01T01:00:00Z</time>
      </trkpt>
      <trkpt lat="61.08152" lon="13.711227">
        <ele>330.818</ele>
        <time>1970-01-01T01:00:00Z</time>
      </trkpt>
      <trkpt lat="61.081588" lon="13.711498">
        <ele>331.273</ele>
        <time>1970-01-01T01:00:00Z</time>
      </trkpt>
      <trkpt lat="61.081642" lon="13.711658">
        <ele>331.545</ele>
        <time>1970-01-01T01:00:00Z</time>
      </trkpt>
      <trkpt lat="61.081699" lon="13.711843">
        <ele>331.818</ele>
        <time>1970-01-01T01:00:00Z</time>
      </trkpt>
      <trkpt lat="61.081714" lon="13.711921">
        <ele>332.091</ele>
        <time>1970-01-01T01:00:00Z</time>
      </trkpt>
      <trkpt lat="61.081806" lon="13.712169">
        <ele>332.364</ele>
        <time>1970-01-01T01:00:00Z</time>
      </trkpt>
      <trkpt lat="61.081867" lon="13.712327">
        <ele>333.091</ele>
        <time>1970-01-01T01:00:00Z</time>
      </trkpt>
      <trkpt lat="61.081901" lon="13.712427">
        <ele>333.636</ele>
        <time>1970-01-01T01:00:00Z</time>
      </trkpt>
      <trkpt lat="61.081947" lon="13.712593">
        <ele>334.182</ele>
        <time>1970-01-01T01:00:00Z</time>
      </trkpt>
      <trkpt lat="61.082004" lon="13.712738">
        <ele>334.727</ele>
        <time>1970-01-01T01:00:00Z</time>
      </trkpt>
      <trkpt lat="61.082054" lon="13.712932">
        <ele>335.364</ele>
        <time>1970-01-01T01:00:00Z</time>
      </trkpt>
      <trkpt lat="61.082126" lon="13.713165">
        <ele>335.909</ele>
        <time>1970-01-01T01:00:00Z</time>
      </trkpt>
      <trkpt lat="61.082199" lon="13.713441">
        <ele>336.455</ele>
        <time>1970-01-01T01:00:00Z</time>
      </trkpt>
      <trkpt lat="61.082244" lon="13.713655">
        <ele>337</ele>
        <time>1970-01-01T01:00:00Z</time>
      </trkpt>
      <trkpt lat="61.082271" lon="13.713793">
        <ele>337.636</ele>
        <time>1970-01-01T01:00:00Z</time>
      </trkpt>
      <trkpt lat="61.082336" lon="13.714049">
        <ele>338.273</ele>
        <time>1970-01-01T01:00:00Z</time>
      </trkpt>
      <trkpt lat="61.082393" lon="13.71428">
        <ele>338.909</ele>
        <time>1970-01-01T01:00:00Z</time>
      </trkpt>
      <trkpt lat="61.08245" lon="13.714456">
        <ele>339.091</ele>
        <time>1970-01-01T01:00:00Z</time>
      </trkpt>
      <trkpt lat="61.082534" lon="13.714631">
        <ele>339.273</ele>
        <time>1970-01-01T01:00:00Z</time>
      </trkpt>
      <trkpt lat="61.082614" lon="13.714801">
        <ele>339.545</ele>
        <time>1970-01-01T01:00:00Z</time>
      </trkpt>
      <trkpt lat="61.082675" lon="13.714935">
        <ele>339.818</ele>
        <time>1970-01-01T01:00:00Z</time>
      </trkpt>
      <trkpt lat="61.082717" lon="13.715064">
        <ele>340.364</ele>
        <time>1970-01-01T01:00:00Z</time>
      </trkpt>
      <trkpt lat="61.082744" lon="13.715187">
        <ele>340.909</ele>
        <time>1970-01-01T01:00:00Z</time>
      </trkpt>
      <trkpt lat="61.082786" lon="13.715377">
        <ele>341.636</ele>
        <time>1970-01-01T01:00:00Z</time>
      </trkpt>
      <trkpt lat="61.082836" lon="13.715609">
        <ele>342.364</ele>
        <time>1970-01-01T01:00:00Z</time>
      </trkpt>
      <trkpt lat="61.082897" lon="13.715832">
        <ele>343</ele>
        <time>1970-01-01T01:00:00Z</time>
      </trkpt>
      <trkpt lat="61.082988" lon="13.716099">
        <ele>343.636</ele>
        <time>1970-01-01T01:00:00Z</time>
      </trkpt>
      <trkpt lat="61.083045" lon="13.716313">
        <ele>344.273</ele>
        <time>1970-01-01T01:00:00Z</time>
      </trkpt>
      <trkpt lat="61.083091" lon="13.716487">
        <ele>345.091</ele>
        <time>1970-01-01T01:00:00Z</time>
      </trkpt>
      <trkpt lat="61.083114" lon="13.716658">
        <ele>345.909</ele>
        <time>1970-01-01T01:00:00Z</time>
      </trkpt>
      <trkpt lat="61.083137" lon="13.716789">
        <ele>346.636</ele>
        <time>1970-01-01T01:00:00Z</time>
      </trkpt>
      <trkpt lat="61.083148" lon="13.716961">
        <ele>347.364</ele>
        <time>1970-01-01T01:00:00Z</time>
      </trkpt>
      <trkpt lat="61.083183" lon="13.717151">
        <ele>347.727</ele>
        <time>1970-01-01T01:00:00Z</time>
      </trkpt>
      <trkpt lat="61.083255" lon="13.717395">
        <ele>348.091</ele>
        <time>1970-01-01T01:00:00Z</time>
      </trkpt>
      <trkpt lat="61.08332" lon="13.717596">
        <ele>348.273</ele>
        <time>1970-01-01T01:00:00Z</time>
      </trkpt>
      <trkpt lat="61.0834" lon="13.717789">
        <ele>348.455</ele>
        <time>1970-01-01T01:00:00Z</time>
      </trkpt>
      <trkpt lat="61.08345" lon="13.717993">
        <ele>348.636</ele>
        <time>1970-01-01T01:00:00Z</time>
      </trkpt>
      <trkpt lat="61.083526" lon="13.718227">
        <ele>348.818</ele>
        <time>1970-01-01T01:00:00Z</time>
      </trkpt>
      <trkpt lat="61.083614" lon="13.71848">
        <ele>349</ele>
        <time>1970-01-01T01:00:00Z</time>
      </trkpt>
      <trkpt lat="61.08369" lon="13.718756">
        <ele>349.182</ele>
        <time>1970-01-01T01:00:00Z</time>
      </trkpt>
      <trkpt lat="61.083721" lon="13.718956">
        <ele>349.364</ele>
        <time>1970-01-01T01:00:00Z</time>
      </trkpt>
      <trkpt lat="61.08374" lon="13.719199">
        <ele>349.455</ele>
        <time>1970-01-01T01:00:00Z</time>
      </trkpt>
      <trkpt lat="61.083778" lon="13.719584">
        <ele>349.545</ele>
        <time>1970-01-01T01:00:00Z</time>
      </trkpt>
      <trkpt lat="61.083793" lon="13.719754">
        <ele>349.636</ele>
        <time>1970-01-01T01:00:00Z</time>
      </trkpt>
      <trkpt lat="61.083881" lon="13.720152">
        <ele>349.727</ele>
        <time>1970-01-01T01:00:00Z</time>
      </trkpt>
      <trkpt lat="61.083904" lon="13.72024">
        <ele>349.818</ele>
        <time>1970-01-01T01:00:00Z</time>
      </trkpt>
      <trkpt lat="61.084022" lon="13.720538">
        <ele>349.909</ele>
        <time>1970-01-01T01:00:00Z</time>
      </trkpt>
      <trkpt lat="61.084079" lon="13.72065">
        <ele>350</ele>
        <time>1970-01-01T01:00:00Z</time>
      </trkpt>
      <trkpt lat="61.084228" lon="13.72104">
        <ele>350.091</ele>
        <time>1970-01-01T01:00:00Z</time>
      </trkpt>
      <trkpt lat="61.084251" lon="13.721115">
        <ele>350.182</ele>
        <time>1970-01-01T01:00:00Z</time>
      </trkpt>
      <trkpt lat="61.084289" lon="13.721268">
        <ele>350.091</ele>
        <time>1970-01-01T01:00:00Z</time>
      </trkpt>
      <trkpt lat="61.084327" lon="13.72152">
        <ele>350</ele>
        <time>1970-01-01T01:00:00Z</time>
      </trkpt>
      <trkpt lat="61.084362" lon="13.721916">
        <ele>350</ele>
        <time>1970-01-01T01:00:00Z</time>
      </trkpt>
      <trkpt lat="61.084365" lon="13.722054">
        <ele>350</ele>
        <time>1970-01-01T01:00:00Z</time>
      </trkpt>
      <trkpt lat="61.084369" lon="13.72234">
        <ele>350</ele>
        <time>1970-01-01T01:00:00Z</time>
      </trkpt>
      <trkpt lat="61.084388" lon="13.722554">
        <ele>350.091</ele>
        <time>1970-01-01T01:00:00Z</time>
      </trkpt>
      <trkpt lat="61.084461" lon="13.722877">
        <ele>350.182</ele>
        <time>1970-01-01T01:00:00Z</time>
      </trkpt>
      <trkpt lat="61.084461" lon="13.723189">
        <ele>350.273</ele>
        <time>1970-01-01T01:00:00Z</time>
      </trkpt>
      <trkpt lat="61.084465" lon="13.723545">
        <ele>350.364</ele>
        <time>1970-01-01T01:00:00Z</time>
      </trkpt>
      <trkpt lat="61.084457" lon="13.723672">
        <ele>350.455</ele>
        <time>1970-01-01T01:00:00Z</time>
      </trkpt>
      <trkpt lat="61.084457" lon="13.723918">
        <ele>350.545</ele>
        <time>1970-01-01T01:00:00Z</time>
      </trkpt>
      <trkpt lat="61.084476" lon="13.724171">
        <ele>350.636</ele>
        <time>1970-01-01T01:00:00Z</time>
      </trkpt>
      <trkpt lat="61.084506" lon="13.7243">
        <ele>350.909</ele>
        <time>1970-01-01T01:00:00Z</time>
      </trkpt>
      <trkpt lat="61.084571" lon="13.724595">
        <ele>351.182</ele>
        <time>1970-01-01T01:00:00Z</time>
      </trkpt>
      <trkpt lat="61.084583" lon="13.724732">
        <ele>351.455</ele>
        <time>1970-01-01T01:00:00Z</time>
      </trkpt>
      <trkpt lat="61.08459" lon="13.724883">
        <ele>351.727</ele>
        <time>1970-01-01T01:00:00Z</time>
      </trkpt>
      <trkpt lat="61.084598" lon="13.725005">
        <ele>351.909</ele>
        <time>1970-01-01T01:00:00Z</time>
      </trkpt>
      <trkpt lat="61.084644" lon="13.725224">
        <ele>352.091</ele>
        <time>1970-01-01T01:00:00Z</time>
      </trkpt>
      <trkpt lat="61.084655" lon="13.725341">
        <ele>352.273</ele>
        <time>1970-01-01T01:00:00Z</time>
      </trkpt>
      <trkpt lat="61.084732" lon="13.725485">
        <ele>352.545</ele>
        <time>1970-01-01T01:00:00Z</time>
      </trkpt>
      <trkpt lat="61.08477" lon="13.72568">
        <ele>352.818</ele>
        <time>1970-01-01T01:00:00Z</time>
      </trkpt>
      <trkpt lat="61.084854" lon="13.725803">
        <ele>353.091</ele>
        <time>1970-01-01T01:00:00Z</time>
      </trkpt>
      <trkpt lat="61.084941" lon="13.725987">
        <ele>353.364</ele>
        <time>1970-01-01T01:00:00Z</time>
      </trkpt>
      <trkpt lat="61.085006" lon="13.726159">
        <ele>353.455</ele>
        <time>1970-01-01T01:00:00Z</time>
      </trkpt>
      <trkpt lat="61.085079" lon="13.726391">
        <ele>353.636</ele>
        <time>1970-01-01T01:00:00Z</time>
      </trkpt>
      <trkpt lat="61.085124" lon="13.726546">
        <ele>353.818</ele>
        <time>1970-01-01T01:00:00Z</time>
      </trkpt>
      <trkpt lat="61.085186" lon="13.726799">
        <ele>354</ele>
        <time>1970-01-01T01:00:00Z</time>
      </trkpt>
      <trkpt lat="61.085208" lon="13.727009">
        <ele>354.182</ele>
        <time>1970-01-01T01:00:00Z</time>
      </trkpt>
      <trkpt lat="61.08522" lon="13.727059">
        <ele>354.364</ele>
        <time>1970-01-01T01:00:00Z</time>
      </trkpt>
      <trkpt lat="61.085247" lon="13.727224">
        <ele>354.545</ele>
        <time>1970-01-01T01:00:00Z</time>
      </trkpt>
      <trkpt lat="61.085254" lon="13.727447">
        <ele>354.636</ele>
        <time>1970-01-01T01:00:00Z</time>
      </trkpt>
      <trkpt lat="61.085273" lon="13.727712">
        <ele>354.727</ele>
        <time>1970-01-01T01:00:00Z</time>
      </trkpt>
      <trkpt lat="61.085281" lon="13.72777">
        <ele>354.909</ele>
        <time>1970-01-01T01:00:00Z</time>
      </trkpt>
      <trkpt lat="61.085315" lon="13.728085">
        <ele>355.091</ele>
        <time>1970-01-01T01:00:00Z</time>
      </trkpt>
      <trkpt lat="61.08535" lon="13.728393">
        <ele>355.273</ele>
        <time>1970-01-01T01:00:00Z</time>
      </trkpt>
      <trkpt lat="61.085346" lon="13.72862">
        <ele>355.364</ele>
        <time>1970-01-01T01:00:00Z</time>
      </trkpt>
      <trkpt lat="61.08535" lon="13.728676">
        <ele>355.455</ele>
        <time>1970-01-01T01:00:00Z</time>
      </trkpt>
      <trkpt lat="61.085353" lon="13.728938">
        <ele>355.636</ele>
        <time>1970-01-01T01:00:00Z</time>
      </trkpt>
      <trkpt lat="61.08535" lon="13.728982">
        <ele>355.818</ele>
        <time>1970-01-01T01:00:00Z</time>
      </trkpt>
      <trkpt lat="61.085342" lon="13.729074">
        <ele>356</ele>
        <time>1970-01-01T01:00:00Z</time>
      </trkpt>
      <trkpt lat="61.085372" lon="13.729368">
        <ele>356.182</ele>
        <time>1970-01-01T01:00:00Z</time>
      </trkpt>
      <trkpt lat="61.085357" lon="13.729484">
        <ele>356.455</ele>
        <time>1970-01-01T01:00:00Z</time>
      </trkpt>
      <trkpt lat="61.085311" lon="13.729765">
        <ele>356.727</ele>
        <time>1970-01-01T01:00:00Z</time>
      </trkpt>
      <trkpt lat="61.085243" lon="13.730074">
        <ele>356.909</ele>
        <time>1970-01-01T01:00:00Z</time>
      </trkpt>
      <trkpt lat="61.085235" lon="13.730133">
        <ele>357.091</ele>
        <time>1970-01-01T01:00:00Z</time>
      </trkpt>
      <trkpt lat="61.085216" lon="13.730333">
        <ele>357.273</ele>
        <time>1970-01-01T01:00:00Z</time>
      </trkpt>
      <trkpt lat="61.085243" lon="13.730468">
        <ele>357.455</ele>
        <time>1970-01-01T01:00:00Z</time>
      </trkpt>
      <trkpt lat="61.085243" lon="13.730619">
        <ele>357.727</ele>
        <time>1970-01-01T01:00:00Z</time>
      </trkpt>
      <trkpt lat="61.085262" lon="13.730773">
        <ele>358</ele>
        <time>1970-01-01T01:00:00Z</time>
      </trkpt>
      <trkpt lat="61.085311" lon="13.731019">
        <ele>358.273</ele>
        <time>1970-01-01T01:00:00Z</time>
      </trkpt>
      <trkpt lat="61.085334" lon="13.731088">
        <ele>358.545</ele>
        <time>1970-01-01T01:00:00Z</time>
      </trkpt>
      <trkpt lat="61.085376" lon="13.731235">
        <ele>358.909</ele>
        <time>1970-01-01T01:00:00Z</time>
      </trkpt>
      <trkpt lat="61.085403" lon="13.731307">
        <ele>359.182</ele>
        <time>1970-01-01T01:00:00Z</time>
      </trkpt>
      <trkpt lat="61.085453" lon="13.731544">
        <ele>359.455</ele>
        <time>1970-01-01T01:00:00Z</time>
      </trkpt>
      <trkpt lat="61.085498" lon="13.731794">
        <ele>359.727</ele>
        <time>1970-01-01T01:00:00Z</time>
      </trkpt>
      <trkpt lat="61.085552" lon="13.732007">
        <ele>360</ele>
        <time>1970-01-01T01:00:00Z</time>
      </trkpt>
      <trkpt lat="61.085632" lon="13.732266">
        <ele>360.455</ele>
        <time>1970-01-01T01:00:00Z</time>
      </trkpt>
      <trkpt lat="61.085796" lon="13.732435">
        <ele>360.909</ele>
        <time>1970-01-01T01:00:00Z</time>
      </trkpt>
      <trkpt lat="61.085834" lon="13.732499">
        <ele>361.273</ele>
        <time>1970-01-01T01:00:00Z</time>
      </trkpt>
      <trkpt lat="61.085891" lon="13.732735">
        <ele>361.545</ele>
        <time>1970-01-01T01:00:00Z</time>
      </trkpt>
      <trkpt lat="61.085903" lon="13.732907">
        <ele>361.909</ele>
        <time>1970-01-01T01:00:00Z</time>
      </trkpt>
      <trkpt lat="61.085952" lon="13.733164">
        <ele>362.273</ele>
        <time>1970-01-01T01:00:00Z</time>
      </trkpt>
      <trkpt lat="61.085994" lon="13.733441">
        <ele>362.545</ele>
        <time>1970-01-01T01:00:00Z</time>
      </trkpt>
      <trkpt lat="61.086017" lon="13.733695">
        <ele>362.818</ele>
        <time>1970-01-01T01:00:00Z</time>
      </trkpt>
      <trkpt lat="61.086036" lon="13.733781">
        <ele>363.091</ele>
        <time>1970-01-01T01:00:00Z</time>
      </trkpt>
      <trkpt lat="61.08604" lon="13.733949">
        <ele>363.636</ele>
        <time>1970-01-01T01:00:00Z</time>
      </trkpt>
      <trkpt lat="61.086051" lon="13.73408">
        <ele>364.455</ele>
        <time>1970-01-01T01:00:00Z</time>
      </trkpt>
      <trkpt lat="61.08612" lon="13.734293">
        <ele>365.091</ele>
        <time>1970-01-01T01:00:00Z</time>
      </trkpt>
      <trkpt lat="61.086158" lon="13.734474">
        <ele>365.727</ele>
        <time>1970-01-01T01:00:00Z</time>
      </trkpt>
      <trkpt lat="61.086158" lon="13.734515">
        <ele>366.364</ele>
        <time>1970-01-01T01:00:00Z</time>
      </trkpt>
      <trkpt lat="61.086257" lon="13.734819">
        <ele>367</ele>
        <time>1970-01-01T01:00:00Z</time>
      </trkpt>
      <trkpt lat="61.086349" lon="13.734968">
        <ele>367.727</ele>
        <time>1970-01-01T01:00:00Z</time>
      </trkpt>
      <trkpt lat="61.086399" lon="13.735098">
        <ele>368.455</ele>
        <time>1970-01-01T01:00:00Z</time>
      </trkpt>
      <trkpt lat="61.086441" lon="13.735224">
        <ele>369.182</ele>
        <time>1970-01-01T01:00:00Z</time>
      </trkpt>
      <trkpt lat="61.086467" lon="13.735291">
        <ele>369.909</ele>
        <time>1970-01-01T01:00:00Z</time>
      </trkpt>
      <trkpt lat="61.086559" lon="13.735476">
        <ele>370.636</ele>
        <time>1970-01-01T01:00:00Z</time>
      </trkpt>
      <trkpt lat="61.086597" lon="13.735578">
        <ele>371.091</ele>
        <time>1970-01-01T01:00:00Z</time>
      </trkpt>
      <trkpt lat="61.086692" lon="13.735718">
        <ele>371.455</ele>
        <time>1970-01-01T01:00:00Z</time>
      </trkpt>
      <trkpt lat="61.086708" lon="13.735745">
        <ele>371.818</ele>
        <time>1970-01-01T01:00:00Z</time>
      </trkpt>
      <trkpt lat="61.086811" lon="13.73595">
        <ele>372.182</ele>
        <time>1970-01-01T01:00:00Z</time>
      </trkpt>
      <trkpt lat="61.086883" lon="13.736134">
        <ele>372.545</ele>
        <time>1970-01-01T01:00:00Z</time>
      </trkpt>
      <trkpt lat="61.086925" lon="13.736266">
        <ele>372.909</ele>
        <time>1970-01-01T01:00:00Z</time>
      </trkpt>
      <trkpt lat="61.086952" lon="13.736466">
        <ele>373.273</ele>
        <time>1970-01-01T01:00:00Z</time>
      </trkpt>
      <trkpt lat="61.086963" lon="13.736514">
        <ele>373.636</ele>
        <time>1970-01-01T01:00:00Z</time>
      </trkpt>
      <trkpt lat="61.086967" lon="13.736701">
        <ele>374</ele>
        <time>1970-01-01T01:00:00Z</time>
      </trkpt>
      <trkpt lat="61.086971" lon="13.736867">
        <ele>374.364</ele>
        <time>1970-01-01T01:00:00Z</time>
      </trkpt>
      <trkpt lat="61.086975" lon="13.736997">
        <ele>374.727</ele>
        <time>1970-01-01T01:00:00Z</time>
      </trkpt>
      <trkpt lat="61.087001" lon="13.737232">
        <ele>375.273</ele>
        <time>1970-01-01T01:00:00Z</time>
      </trkpt>
      <trkpt lat="61.087009" lon="13.737445">
        <ele>375.636</ele>
        <time>1970-01-01T01:00:00Z</time>
      </trkpt>
      <trkpt lat="61.087024" lon="13.73761">
        <ele>376</ele>
        <time>1970-01-01T01:00:00Z</time>
      </trkpt>
      <trkpt lat="61.087039" lon="13.737764">
        <ele>376.364</ele>
        <time>1970-01-01T01:00:00Z</time>
      </trkpt>
      <trkpt lat="61.087047" lon="13.737953">
        <ele>376.727</ele>
        <time>1970-01-01T01:00:00Z</time>
      </trkpt>
      <trkpt lat="61.087059" lon="13.738145">
        <ele>377.273</ele>
        <time>1970-01-01T01:00:00Z</time>
      </trkpt>
      <trkpt lat="61.08707" lon="13.738224">
        <ele>377.636</ele>
        <time>1970-01-01T01:00:00Z</time>
      </trkpt>
      <trkpt lat="61.087059" lon="13.738352">
        <ele>378</ele>
        <time>1970-01-01T01:00:00Z</time>
      </trkpt>
      <trkpt lat="61.087043" lon="13.738556">
        <ele>378.364</ele>
        <time>1970-01-01T01:00:00Z</time>
      </trkpt>
      <trkpt lat="61.087043" lon="13.738739">
        <ele>378.727</ele>
        <time>1970-01-01T01:00:00Z</time>
      </trkpt>
      <trkpt lat="61.087028" lon="13.738883">
        <ele>379.091</ele>
        <time>1970-01-01T01:00:00Z</time>
      </trkpt>
      <trkpt lat="61.087028" lon="13.738998">
        <ele>379.455</ele>
        <time>1970-01-01T01:00:00Z</time>
      </trkpt>
      <trkpt lat="61.087032" lon="13.739117">
        <ele>379.818</ele>
        <time>1970-01-01T01:00:00Z</time>
      </trkpt>
      <trkpt lat="61.087028" lon="13.739208">
        <ele>380.182</ele>
        <time>1970-01-01T01:00:00Z</time>
      </trkpt>
      <trkpt lat="61.087032" lon="13.739299">
        <ele>380.545</ele>
        <time>1970-01-01T01:00:00Z</time>
      </trkpt>
      <trkpt lat="61.087005" lon="13.739489">
        <ele>380.909</ele>
        <time>1970-01-01T01:00:00Z</time>
      </trkpt>
      <trkpt lat="61.086982" lon="13.739704">
        <ele>381.455</ele>
        <time>1970-01-01T01:00:00Z</time>
      </trkpt>
      <trkpt lat="61.086963" lon="13.739815">
        <ele>382</ele>
        <time>1970-01-01T01:00:00Z</time>
      </trkpt>
      <trkpt lat="61.086925" lon="13.740053">
        <ele>382.545</ele>
        <time>1970-01-01T01:00:00Z</time>
      </trkpt>
      <trkpt lat="61.086887" lon="13.740243">
        <ele>383.091</ele>
        <time>1970-01-01T01:00:00Z</time>
      </trkpt>
      <trkpt lat="61.086853" lon="13.740417">
        <ele>383.636</ele>
        <time>1970-01-01T01:00:00Z</time>
      </trkpt>
      <trkpt lat="61.086814" lon="13.740608">
        <ele>384.455</ele>
        <time>1970-01-01T01:00:00Z</time>
      </trkpt>
      <trkpt lat="61.086788" lon="13.740896">
        <ele>385.091</ele>
        <time>1970-01-01T01:00:00Z</time>
      </trkpt>
      <trkpt lat="61.086788" lon="13.740945">
        <ele>385.727</ele>
        <time>1970-01-01T01:00:00Z</time>
      </trkpt>
      <trkpt lat="61.086761" lon="13.741178">
        <ele>386.364</ele>
        <time>1970-01-01T01:00:00Z</time>
      </trkpt>
      <trkpt lat="61.086757" lon="13.741231">
        <ele>387.091</ele>
        <time>1970-01-01T01:00:00Z</time>
      </trkpt>
      <trkpt lat="61.086776" lon="13.741523">
        <ele>387.818</ele>
        <time>1970-01-01T01:00:00Z</time>
      </trkpt>
      <trkpt lat="61.08678" lon="13.741703">
        <ele>388.182</ele>
        <time>1970-01-01T01:00:00Z</time>
      </trkpt>
      <trkpt lat="61.086772" lon="13.741793">
        <ele>388.545</ele>
        <time>1970-01-01T01:00:00Z</time>
      </trkpt>
      <trkpt lat="61.086765" lon="13.742013">
        <ele>388.909</ele>
        <time>1970-01-01T01:00:00Z</time>
      </trkpt>
      <trkpt lat="61.086761" lon="13.742206">
        <ele>389.364</ele>
        <time>1970-01-01T01:00:00Z</time>
      </trkpt>
      <trkpt lat="61.086772" lon="13.742475">
        <ele>389.818</ele>
        <time>1970-01-01T01:00:00Z</time>
      </trkpt>
      <trkpt lat="61.086761" lon="13.742667">
        <ele>390</ele>
        <time>1970-01-01T01:00:00Z</time>
      </trkpt>
      <trkpt lat="61.086761" lon="13.74271">
        <ele>390.182</ele>
        <time>1970-01-01T01:00:00Z</time>
      </trkpt>
      <trkpt lat="61.086753" lon="13.742951">
        <ele>390.455</ele>
        <time>1970-01-01T01:00:00Z</time>
      </trkpt>
      <trkpt lat="61.086746" lon="13.743134">
        <ele>390.727</ele>
        <time>1970-01-01T01:00:00Z</time>
      </trkpt>
      <trkpt lat="61.086746" lon="13.743232">
        <ele>390.909</ele>
        <time>1970-01-01T01:00:00Z</time>
      </trkpt>
      <trkpt lat="61.086734" lon="13.743575">
        <ele>391.091</ele>
        <time>1970-01-01T01:00:00Z</time>
      </trkpt>
      <trkpt lat="61.08673" lon="13.743783">
        <ele>391.364</ele>
        <time>1970-01-01T01:00:00Z</time>
      </trkpt>
      <trkpt lat="61.086723" lon="13.743998">
        <ele>391.636</ele>
        <time>1970-01-01T01:00:00Z</time>
      </trkpt>
      <trkpt lat="61.086727" lon="13.744129">
        <ele>391.909</ele>
        <time>1970-01-01T01:00:00Z</time>
      </trkpt>
      <trkpt lat="61.086711" lon="13.744346">
        <ele>392.091</ele>
        <time>1970-01-01T01:00:00Z</time>
      </trkpt>
      <trkpt lat="61.086681" lon="13.744622">
        <ele>392.273</ele>
        <time>1970-01-01T01:00:00Z</time>
      </trkpt>
      <trkpt lat="61.086662" lon="13.744802">
        <ele>392.455</ele>
        <time>1970-01-01T01:00:00Z</time>
      </trkpt>
      <trkpt lat="61.086647" lon="13.744973">
        <ele>392.636</ele>
        <time>1970-01-01T01:00:00Z</time>
      </trkpt>
      <trkpt lat="61.086647" lon="13.745223">
        <ele>392.727</ele>
        <time>1970-01-01T01:00:00Z</time>
      </trkpt>
      <trkpt lat="61.086647" lon="13.745265">
        <ele>392.818</ele>
        <time>1970-01-01T01:00:00Z</time>
      </trkpt>
      <trkpt lat="61.086608" lon="13.745586">
        <ele>392.909</ele>
        <time>1970-01-01T01:00:00Z</time>
      </trkpt>
      <trkpt lat="61.086605" lon="13.745632">
        <ele>393</ele>
        <time>1970-01-01T01:00:00Z</time>
      </trkpt>
      <trkpt lat="61.086578" lon="13.745824">
        <ele>393</ele>
        <time>1970-01-01T01:00:00Z</time>
      </trkpt>
      <trkpt lat="61.086547" lon="13.745996">
        <ele>393</ele>
        <time>1970-01-01T01:00:00Z</time>
      </trkpt>
      <trkpt lat="61.086528" lon="13.746146">
        <ele>393</ele>
        <time>1970-01-01T01:00:00Z</time>
      </trkpt>
      <trkpt lat="61.086524" lon="13.746193">
        <ele>393</ele>
        <time>1970-01-01T01:00:00Z</time>
      </trkpt>
      <trkpt lat="61.086505" lon="13.746514">
        <ele>393</ele>
        <time>1970-01-01T01:00:00Z</time>
      </trkpt>
      <trkpt lat="61.086498" lon="13.746555">
        <ele>393</ele>
        <time>1970-01-01T01:00:00Z</time>
      </trkpt>
      <trkpt lat="61.086486" lon="13.74686">
        <ele>393</ele>
        <time>1970-01-01T01:00:00Z</time>
      </trkpt>
      <trkpt lat="61.08649" lon="13.746945">
        <ele>393</ele>
        <time>1970-01-01T01:00:00Z</time>
      </trkpt>
      <trkpt lat="61.086479" lon="13.747077">
        <ele>393</ele>
        <time>1970-01-01T01:00:00Z</time>
      </trkpt>
      <trkpt lat="61.086467" lon="13.747301">
        <ele>393</ele>
        <time>1970-01-01T01:00:00Z</time>
      </trkpt>
      <trkpt lat="61.086456" lon="13.747394">
        <ele>393</ele>
        <time>1970-01-01T01:00:00Z</time>
      </trkpt>
      <trkpt lat="61.086463" lon="13.747611">
        <ele>393</ele>
        <time>1970-01-01T01:00:00Z</time>
      </trkpt>
      <trkpt lat="61.086452" lon="13.747868">
        <ele>393</ele>
        <time>1970-01-01T01:00:00Z</time>
      </trkpt>
      <trkpt lat="61.086444" lon="13.748013">
        <ele>393.091</ele>
        <time>1970-01-01T01:00:00Z</time>
      </trkpt>
      <trkpt lat="61.086421" lon="13.748265">
        <ele>393.182</ele>
        <time>1970-01-01T01:00:00Z</time>
      </trkpt>
      <trkpt lat="61.086425" lon="13.748407">
        <ele>393.273</ele>
        <time>1970-01-01T01:00:00Z</time>
      </trkpt>
      <trkpt lat="61.086395" lon="13.748591">
        <ele>393.364</ele>
        <time>1970-01-01T01:00:00Z</time>
      </trkpt>
      <trkpt lat="61.086395" lon="13.748781">
        <ele>393.455</ele>
        <time>1970-01-01T01:00:00Z</time>
      </trkpt>
      <trkpt lat="61.086395" lon="13.748826">
        <ele>393.545</ele>
        <time>1970-01-01T01:00:00Z</time>
      </trkpt>
      <trkpt lat="61.08638" lon="13.74906">
        <ele>393.636</ele>
        <time>1970-01-01T01:00:00Z</time>
      </trkpt>
      <trkpt lat="61.08638" lon="13.749241">
        <ele>393.727</ele>
        <time>1970-01-01T01:00:00Z</time>
      </trkpt>
      <trkpt lat="61.086368" lon="13.749422">
        <ele>393.818</ele>
        <time>1970-01-01T01:00:00Z</time>
      </trkpt>
      <trkpt lat="61.08636" lon="13.749565">
        <ele>393.909</ele>
        <time>1970-01-01T01:00:00Z</time>
      </trkpt>
      <trkpt lat="61.086345" lon="13.749862">
        <ele>394</ele>
        <time>1970-01-01T01:00:00Z</time>
      </trkpt>
      <trkpt lat="61.086338" lon="13.749913">
        <ele>394</ele>
        <time>1970-01-01T01:00:00Z</time>
      </trkpt>
      <trkpt lat="61.086318" lon="13.750137">
        <ele>394</ele>
        <time>1970-01-01T01:00:00Z</time>
      </trkpt>
      <trkpt lat="61.086322" lon="13.750223">
        <ele>394</ele>
        <time>1970-01-01T01:00:00Z</time>
      </trkpt>
      <trkpt lat="61.086322" lon="13.750456">
        <ele>394</ele>
        <time>1970-01-01T01:00:00Z</time>
      </trkpt>
      <trkpt lat="61.08633" lon="13.750713">
        <ele>394</ele>
        <time>1970-01-01T01:00:00Z</time>
      </trkpt>
      <trkpt lat="61.086326" lon="13.750824">
        <ele>394</ele>
        <time>1970-01-01T01:00:00Z</time>
      </trkpt>
      <trkpt lat="61.086326" lon="13.751058">
        <ele>394</ele>
        <time>1970-01-01T01:00:00Z</time>
      </trkpt>
      <trkpt lat="61.086311" lon="13.751275">
        <ele>394</ele>
        <time>1970-01-01T01:00:00Z</time>
      </trkpt>
      <trkpt lat="61.086311" lon="13.751487">
        <ele>393.636</ele>
        <time>1970-01-01T01:00:00Z</time>
      </trkpt>
      <trkpt lat="61.086299" lon="13.751724">
        <ele>393.273</ele>
        <time>1970-01-01T01:00:00Z</time>
      </trkpt>
      <trkpt lat="61.086292" lon="13.751914">
        <ele>392.909</ele>
        <time>1970-01-01T01:00:00Z</time>
      </trkpt>
      <trkpt lat="61.086292" lon="13.752156">
        <ele>392.545</ele>
        <time>1970-01-01T01:00:00Z</time>
      </trkpt>
      <trkpt lat="61.086284" lon="13.752206">
        <ele>392.182</ele>
        <time>1970-01-01T01:00:00Z</time>
      </trkpt>
      <trkpt lat="61.086261" lon="13.752403">
        <ele>391.818</ele>
        <time>1970-01-01T01:00:00Z</time>
      </trkpt>
      <trkpt lat="61.086254" lon="13.752646">
        <ele>391.455</ele>
        <time>1970-01-01T01:00:00Z</time>
      </trkpt>
      <trkpt lat="61.08625" lon="13.752744">
        <ele>391.091</ele>
        <time>1970-01-01T01:00:00Z</time>
      </trkpt>
      <trkpt lat="61.08625" lon="13.752845">
        <ele>390.727</ele>
        <time>1970-01-01T01:00:00Z</time>
      </trkpt>
      <trkpt lat="61.086238" lon="13.753075">
        <ele>390.364</ele>
        <time>1970-01-01T01:00:00Z</time>
      </trkpt>
      <trkpt lat="61.086212" lon="13.753291">
        <ele>390</ele>
        <time>1970-01-01T01:00:00Z</time>
      </trkpt>
      <trkpt lat="61.0862" lon="13.753518">
        <ele>390</ele>
        <time>1970-01-01T01:00:00Z</time>
      </trkpt>
      <trkpt lat="61.086193" lon="13.753708">
        <ele>390.455</ele>
        <time>1970-01-01T01:00:00Z</time>
      </trkpt>
      <trkpt lat="61.086174" lon="13.753951">
        <ele>390.909</ele>
        <time>1970-01-01T01:00:00Z</time>
      </trkpt>
      <trkpt lat="61.086177" lon="13.754133">
        <ele>391.364</ele>
        <time>1970-01-01T01:00:00Z</time>
      </trkpt>
      <trkpt lat="61.086185" lon="13.754322">
        <ele>391.818</ele>
        <time>1970-01-01T01:00:00Z</time>
      </trkpt>
      <trkpt lat="61.086238" lon="13.754556">
        <ele>392.182</ele>
        <time>1970-01-01T01:00:00Z</time>
      </trkpt>
      <trkpt lat="61.086322" lon="13.754742">
        <ele>392.545</ele>
        <time>1970-01-01T01:00:00Z</time>
      </trkpt>
      <trkpt lat="61.086357" lon="13.754828">
        <ele>392.909</ele>
        <time>1970-01-01T01:00:00Z</time>
      </trkpt>
      <trkpt lat="61.086414" lon="13.755032">
        <ele>393.273</ele>
        <time>1970-01-01T01:00:00Z</time>
      </trkpt>
      <trkpt lat="61.086475" lon="13.755358">
        <ele>393.636</ele>
        <time>1970-01-01T01:00:00Z</time>
      </trkpt>
      <trkpt lat="61.086471" lon="13.755606">
        <ele>394</ele>
        <time>1970-01-01T01:00:00Z</time>
      </trkpt>
      <trkpt lat="61.086463" lon="13.755735">
        <ele>394.364</ele>
        <time>1970-01-01T01:00:00Z</time>
      </trkpt>
      <trkpt lat="61.086452" lon="13.755923">
        <ele>394.273</ele>
        <time>1970-01-01T01:00:00Z</time>
      </trkpt>
      <trkpt lat="61.08646" lon="13.756176">
        <ele>394.182</ele>
        <time>1970-01-01T01:00:00Z</time>
      </trkpt>
      <trkpt lat="61.086452" lon="13.756305">
        <ele>394.091</ele>
        <time>1970-01-01T01:00:00Z</time>
      </trkpt>
      <trkpt lat="61.086463" lon="13.756694">
        <ele>394</ele>
        <time>1970-01-01T01:00:00Z</time>
      </trkpt>
      <trkpt lat="61.086513" lon="13.757098">
        <ele>394</ele>
        <time>1970-01-01T01:00:00Z</time>
      </trkpt>
      <trkpt lat="61.086547" lon="13.757376">
        <ele>394</ele>
        <time>1970-01-01T01:00:00Z</time>
      </trkpt>
      <trkpt lat="61.08657" lon="13.757627">
        <ele>394</ele>
        <time>1970-01-01T01:00:00Z</time>
      </trkpt>
      <trkpt lat="61.086612" lon="13.757873">
        <ele>393.909</ele>
        <time>1970-01-01T01:00:00Z</time>
      </trkpt>
      <trkpt lat="61.086643" lon="13.758128">
        <ele>393.818</ele>
        <time>1970-01-01T01:00:00Z</time>
      </trkpt>
      <trkpt lat="61.086654" lon="13.758234">
        <ele>393.727</ele>
        <time>1970-01-01T01:00:00Z</time>
      </trkpt>
      <trkpt lat="61.086673" lon="13.758461">
        <ele>393.636</ele>
        <time>1970-01-01T01:00:00Z</time>
      </trkpt>
      <trkpt lat="61.086685" lon="13.758713">
        <ele>393.364</ele>
        <time>1970-01-01T01:00:00Z</time>
      </trkpt>
      <trkpt lat="61.086662" lon="13.758966">
        <ele>393.091</ele>
        <time>1970-01-01T01:00:00Z</time>
      </trkpt>
      <trkpt lat="61.086578" lon="13.759274">
        <ele>392.636</ele>
        <time>1970-01-01T01:00:00Z</time>
      </trkpt>
      <trkpt lat="61.086479" lon="13.759552">
        <ele>392.182</ele>
        <time>1970-01-01T01:00:00Z</time>
      </trkpt>
      <trkpt lat="61.086456" lon="13.759613">
        <ele>391.727</ele>
        <time>1970-01-01T01:00:00Z</time>
      </trkpt>
      <trkpt lat="61.086399" lon="13.759753">
        <ele>391.182</ele>
        <time>1970-01-01T01:00:00Z</time>
      </trkpt>
      <trkpt lat="61.08633" lon="13.759877">
        <ele>390.636</ele>
        <time>1970-01-01T01:00:00Z</time>
      </trkpt>
      <trkpt lat="61.086227" lon="13.760124">
        <ele>390.182</ele>
        <time>1970-01-01T01:00:00Z</time>
      </trkpt>
      <trkpt lat="61.086116" lon="13.760386">
        <ele>389.727</ele>
        <time>1970-01-01T01:00:00Z</time>
      </trkpt>
      <trkpt lat="61.086093" lon="13.760438">
        <ele>389.273</ele>
        <time>1970-01-01T01:00:00Z</time>
      </trkpt>
      <trkpt lat="61.085987" lon="13.760663">
        <ele>388.818</ele>
        <time>1970-01-01T01:00:00Z</time>
      </trkpt>
      <trkpt lat="61.085922" lon="13.760795">
        <ele>388.545</ele>
        <time>1970-01-01T01:00:00Z</time>
      </trkpt>
      <trkpt lat="61.085895" lon="13.760875">
        <ele>388.273</ele>
        <time>1970-01-01T01:00:00Z</time>
      </trkpt>
      <trkpt lat="61.085845" lon="13.761044">
        <ele>388.273</ele>
        <time>1970-01-01T01:00:00Z</time>
      </trkpt>
      <trkpt lat="61.085803" lon="13.761259">
        <ele>388.273</ele>
        <time>1970-01-01T01:00:00Z</time>
      </trkpt>
      <trkpt lat="61.085781" lon="13.761343">
        <ele>388.273</ele>
        <time>1970-01-01T01:00:00Z</time>
      </trkpt>
      <trkpt lat="61.085742" lon="13.761514">
        <ele>388.364</ele>
        <time>1970-01-01T01:00:00Z</time>
      </trkpt>
      <trkpt lat="61.0857" lon="13.76188">
        <ele>388.455</ele>
        <time>1970-01-01T01:00:00Z</time>
      </trkpt>
      <trkpt lat="61.085697" lon="13.762221">
        <ele>388.455</ele>
        <time>1970-01-01T01:00:00Z</time>
      </trkpt>
      <trkpt lat="61.085716" lon="13.762612">
        <ele>388.455</ele>
        <time>1970-01-01T01:00:00Z</time>
      </trkpt>
      <trkpt lat="61.085723" lon="13.762718">
        <ele>388.455</ele>
        <time>1970-01-01T01:00:00Z</time>
      </trkpt>
      <trkpt lat="61.085914" lon="13.763465">
        <ele>388.455</ele>
        <time>1970-01-01T01:00:00Z</time>
      </trkpt>
      <trkpt lat="61.085945" lon="13.763568">
        <ele>388.455</ele>
        <time>1970-01-01T01:00:00Z</time>
      </trkpt>
      <trkpt lat="61.085998" lon="13.764019">
        <ele>388.455</ele>
        <time>1970-01-01T01:00:00Z</time>
      </trkpt>
      <trkpt lat="61.086051" lon="13.764204">
        <ele>388.545</ele>
        <time>1970-01-01T01:00:00Z</time>
      </trkpt>
      <trkpt lat="61.086097" lon="13.76443">
        <ele>388.636</ele>
        <time>1970-01-01T01:00:00Z</time>
      </trkpt>
      <trkpt lat="61.086124" lon="13.764618">
        <ele>388.727</ele>
        <time>1970-01-01T01:00:00Z</time>
      </trkpt>
      <trkpt lat="61.086185" lon="13.764832">
        <ele>388.818</ele>
        <time>1970-01-01T01:00:00Z</time>
      </trkpt>
      <trkpt lat="61.086208" lon="13.764908">
        <ele>388.909</ele>
        <time>1970-01-01T01:00:00Z</time>
      </trkpt>
      <trkpt lat="61.086292" lon="13.765213">
        <ele>389.091</ele>
        <time>1970-01-01T01:00:00Z</time>
      </trkpt>
      <trkpt lat="61.086376" lon="13.765527">
        <ele>389.273</ele>
        <time>1970-01-01T01:00:00Z</time>
      </trkpt>
      <trkpt lat="61.086456" lon="13.765805">
        <ele>389.455</ele>
        <time>1970-01-01T01:00:00Z</time>
      </trkpt>
      <trkpt lat="61.086528" lon="13.766031">
        <ele>389.636</ele>
        <time>1970-01-01T01:00:00Z</time>
      </trkpt>
      <trkpt lat="61.086589" lon="13.766323">
        <ele>389.818</ele>
        <time>1970-01-01T01:00:00Z</time>
      </trkpt>
      <trkpt lat="61.086601" lon="13.766401">
        <ele>390</ele>
        <time>1970-01-01T01:00:00Z</time>
      </trkpt>
      <trkpt lat="61.086677" lon="13.766835">
        <ele>390.091</ele>
        <time>1970-01-01T01:00:00Z</time>
      </trkpt>
      <trkpt lat="61.086704" lon="13.767229">
        <ele>390.182</ele>
        <time>1970-01-01T01:00:00Z</time>
      </trkpt>
      <trkpt lat="61.086673" lon="13.767505">
        <ele>390.273</ele>
        <time>1970-01-01T01:00:00Z</time>
      </trkpt>
      <trkpt lat="61.08662" lon="13.767765">
        <ele>390.455</ele>
        <time>1970-01-01T01:00:00Z</time>
      </trkpt>
      <trkpt lat="61.086582" lon="13.767895">
        <ele>390.636</ele>
        <time>1970-01-01T01:00:00Z</time>
      </trkpt>
      <trkpt lat="61.086605" lon="13.768255">
        <ele>390.818</ele>
        <time>1970-01-01T01:00:00Z</time>
      </trkpt>
      <trkpt lat="61.086631" lon="13.768536">
        <ele>391</ele>
        <time>1970-01-01T01:00:00Z</time>
      </trkpt>
      <trkpt lat="61.086688" lon="13.768753">
        <ele>391.182</ele>
        <time>1970-01-01T01:00:00Z</time>
      </trkpt>
      <trkpt lat="61.0867" lon="13.768888">
        <ele>391.364</ele>
        <time>1970-01-01T01:00:00Z</time>
      </trkpt>
      <trkpt lat="61.086738" lon="13.769166">
        <ele>391.636</ele>
        <time>1970-01-01T01:00:00Z</time>
      </trkpt>
      <trkpt lat="61.08678" lon="13.76945">
        <ele>391.909</ele>
        <time>1970-01-01T01:00:00Z</time>
      </trkpt>
      <trkpt lat="61.086879" lon="13.769954">
        <ele>392.091</ele>
        <time>1970-01-01T01:00:00Z</time>
      </trkpt>
      <trkpt lat="61.086868" lon="13.770218">
        <ele>392.273</ele>
        <time>1970-01-01T01:00:00Z</time>
      </trkpt>
      <trkpt lat="61.086788" lon="13.770435">
        <ele>392.455</ele>
        <time>1970-01-01T01:00:00Z</time>
      </trkpt>
      <trkpt lat="61.086757" lon="13.770561">
        <ele>392.545</ele>
        <time>1970-01-01T01:00:00Z</time>
      </trkpt>
      <trkpt lat="61.086765" lon="13.770867">
        <ele>392.636</ele>
        <time>1970-01-01T01:00:00Z</time>
      </trkpt>
      <trkpt lat="61.086772" lon="13.771166">
        <ele>392.727</ele>
        <time>1970-01-01T01:00:00Z</time>
      </trkpt>
      <trkpt lat="61.086776" lon="13.771251">
        <ele>392.909</ele>
        <time>1970-01-01T01:00:00Z</time>
      </trkpt>
      <trkpt lat="61.086784" lon="13.771531">
        <ele>393.091</ele>
        <time>1970-01-01T01:00:00Z</time>
      </trkpt>
      <trkpt lat="61.08683" lon="13.771697">
        <ele>393.273</ele>
        <time>1970-01-01T01:00:00Z</time>
      </trkpt>
      <trkpt lat="61.086849" lon="13.771803">
        <ele>393.364</ele>
        <time>1970-01-01T01:00:00Z</time>
      </trkpt>
      <trkpt lat="61.086929" lon="13.772041">
        <ele>393.364</ele>
        <time>1970-01-01T01:00:00Z</time>
      </trkpt>
      <trkpt lat="61.086963" lon="13.772322">
        <ele>393.545</ele>
        <time>1970-01-01T01:00:00Z</time>
      </trkpt>
      <trkpt lat="61.086925" lon="13.772758">
        <ele>393.727</ele>
        <time>1970-01-01T01:00:00Z</time>
      </trkpt>
      <trkpt lat="61.08691" lon="13.772884">
        <ele>393.909</ele>
        <time>1970-01-01T01:00:00Z</time>
      </trkpt>
      <trkpt lat="61.086902" lon="13.773511">
        <ele>394</ele>
        <time>1970-01-01T01:00:00Z</time>
      </trkpt>
      <trkpt lat="61.086978" lon="13.774259">
        <ele>394.091</ele>
        <time>1970-01-01T01:00:00Z</time>
      </trkpt>
      <trkpt lat="61.087135" lon="13.774953">
        <ele>394.182</ele>
        <time>1970-01-01T01:00:00Z</time>
      </trkpt>
      <trkpt lat="61.087249" lon="13.775279">
        <ele>394.182</ele>
        <time>1970-01-01T01:00:00Z</time>
      </trkpt>
      <trkpt lat="61.087299" lon="13.775426">
        <ele>394.182</ele>
        <time>1970-01-01T01:00:00Z</time>
      </trkpt>
      <trkpt lat="61.087471" lon="13.775964">
        <ele>394.182</ele>
        <time>1970-01-01T01:00:00Z</time>
      </trkpt>
      <trkpt lat="61.087501" lon="13.77607">
        <ele>394.091</ele>
        <time>1970-01-01T01:00:00Z</time>
      </trkpt>
      <trkpt lat="61.087547" lon="13.776457">
        <ele>394.182</ele>
        <time>1970-01-01T01:00:00Z</time>
      </trkpt>
      <trkpt lat="61.087604" lon="13.777039">
        <ele>394.091</ele>
        <time>1970-01-01T01:00:00Z</time>
      </trkpt>
      <trkpt lat="61.087665" lon="13.777368">
        <ele>394</ele>
        <time>1970-01-01T01:00:00Z</time>
      </trkpt>
      <trkpt lat="61.087795" lon="13.777823">
        <ele>393.909</ele>
        <time>1970-01-01T01:00:00Z</time>
      </trkpt>
      <trkpt lat="61.087902" lon="13.778094">
        <ele>393.909</ele>
        <time>1970-01-01T01:00:00Z</time>
      </trkpt>
      <trkpt lat="61.087985" lon="13.778263">
        <ele>393.909</ele>
        <time>1970-01-01T01:00:00Z</time>
      </trkpt>
      <trkpt lat="61.08815" lon="13.778594">
        <ele>393.909</ele>
        <time>1970-01-01T01:00:00Z</time>
      </trkpt>
      <trkpt lat="61.088226" lon="13.77873">
        <ele>393.909</ele>
        <time>1970-01-01T01:00:00Z</time>
      </trkpt>
      <trkpt lat="61.088367" lon="13.779004">
        <ele>393.909</ele>
        <time>1970-01-01T01:00:00Z</time>
      </trkpt>
      <trkpt lat="61.088466" lon="13.779347">
        <ele>394</ele>
        <time>1970-01-01T01:00:00Z</time>
      </trkpt>
      <trkpt lat="61.088569" lon="13.779639">
        <ele>394.182</ele>
        <time>1970-01-01T01:00:00Z</time>
      </trkpt>
      <trkpt lat="61.088615" lon="13.779869">
        <ele>394.273</ele>
        <time>1970-01-01T01:00:00Z</time>
      </trkpt>
      <trkpt lat="61.088657" lon="13.780026">
        <ele>394.364</ele>
        <time>1970-01-01T01:00:00Z</time>
      </trkpt>
      <trkpt lat="61.088752" lon="13.78039">
        <ele>394.455</ele>
        <time>1970-01-01T01:00:00Z</time>
      </trkpt>
      <trkpt lat="61.088882" lon="13.780673">
        <ele>394.545</ele>
        <time>1970-01-01T01:00:00Z</time>
      </trkpt>
      <trkpt lat="61.089061" lon="13.781066">
        <ele>394.636</ele>
        <time>1970-01-01T01:00:00Z</time>
      </trkpt>
      <trkpt lat="61.089157" lon="13.781308">
        <ele>394.818</ele>
        <time>1970-01-01T01:00:00Z</time>
      </trkpt>
      <trkpt lat="61.089237" lon="13.781863">
        <ele>395</ele>
        <time>1970-01-01T01:00:00Z</time>
      </trkpt>
      <trkpt lat="61.089248" lon="13.78198">
        <ele>395.182</ele>
        <time>1970-01-01T01:00:00Z</time>
      </trkpt>
      <trkpt lat="61.089309" lon="13.782555">
        <ele>395.364</ele>
        <time>1970-01-01T01:00:00Z</time>
      </trkpt>
      <trkpt lat="61.089344" lon="13.782867">
        <ele>395.455</ele>
        <time>1970-01-01T01:00:00Z</time>
      </trkpt>
      <trkpt lat="61.089389" lon="13.783123">
        <ele>395.545</ele>
        <time>1970-01-01T01:00:00Z</time>
      </trkpt>
      <trkpt lat="61.089408" lon="13.783428">
        <ele>395.636</ele>
        <time>1970-01-01T01:00:00Z</time>
      </trkpt>
      <trkpt lat="61.089405" lon="13.783615">
        <ele>395.727</ele>
        <time>1970-01-01T01:00:00Z</time>
      </trkpt>
      <trkpt lat="61.089385" lon="13.783878">
        <ele>395.818</ele>
        <time>1970-01-01T01:00:00Z</time>
      </trkpt>
      <trkpt lat="61.089344" lon="13.784195">
        <ele>395.909</ele>
        <time>1970-01-01T01:00:00Z</time>
      </trkpt>
      <trkpt lat="61.089347" lon="13.784303">
        <ele>396</ele>
        <time>1970-01-01T01:00:00Z</time>
      </trkpt>
      <trkpt lat="61.089351" lon="13.78442">
        <ele>396</ele>
        <time>1970-01-01T01:00:00Z</time>
      </trkpt>
      <trkpt lat="61.089385" lon="13.784799">
        <ele>396</ele>
        <time>1970-01-01T01:00:00Z</time>
      </trkpt>
      <trkpt lat="61.089431" lon="13.785173">
        <ele>396</ele>
        <time>1970-01-01T01:00:00Z</time>
      </trkpt>
      <trkpt lat="61.089443" lon="13.785325">
        <ele>396</ele>
        <time>1970-01-01T01:00:00Z</time>
      </trkpt>
      <trkpt lat="61.089466" lon="13.785627">
        <ele>396</ele>
        <time>1970-01-01T01:00:00Z</time>
      </trkpt>
      <trkpt lat="61.089458" lon="13.785763">
        <ele>396</ele>
        <time>1970-01-01T01:00:00Z</time>
      </trkpt>
      <trkpt lat="61.089454" lon="13.786127">
        <ele>395.909</ele>
        <time>1970-01-01T01:00:00Z</time>
      </trkpt>
      <trkpt lat="61.089466" lon="13.786337">
        <ele>396</ele>
        <time>1970-01-01T01:00:00Z</time>
      </trkpt>
      <trkpt lat="61.089488" lon="13.786552">
        <ele>396.091</ele>
        <time>1970-01-01T01:00:00Z</time>
      </trkpt>
      <trkpt lat="61.089492" lon="13.786624">
        <ele>396</ele>
        <time>1970-01-01T01:00:00Z</time>
      </trkpt>
      <trkpt lat="61.089534" lon="13.786917">
        <ele>395.909</ele>
        <time>1970-01-01T01:00:00Z</time>
      </trkpt>
      <trkpt lat="61.089584" lon="13.787225">
        <ele>395.818</ele>
        <time>1970-01-01T01:00:00Z</time>
      </trkpt>
      <trkpt lat="61.089637" lon="13.78756">
        <ele>395.455</ele>
        <time>1970-01-01T01:00:00Z</time>
      </trkpt>
      <trkpt lat="61.089656" lon="13.787737">
        <ele>395.091</ele>
        <time>1970-01-01T01:00:00Z</time>
      </trkpt>
      <trkpt lat="61.089725" lon="13.788253">
        <ele>394.727</ele>
        <time>1970-01-01T01:00:00Z</time>
      </trkpt>
      <trkpt lat="61.089736" lon="13.788354">
        <ele>394.182</ele>
        <time>1970-01-01T01:00:00Z</time>
      </trkpt>
      <trkpt lat="61.08979" lon="13.788625">
        <ele>393.636</ele>
        <time>1970-01-01T01:00:00Z</time>
      </trkpt>
      <trkpt lat="61.089843" lon="13.788922">
        <ele>393.182</ele>
        <time>1970-01-01T01:00:00Z</time>
      </trkpt>
      <trkpt lat="61.089874" lon="13.789283">
        <ele>392.545</ele>
        <time>1970-01-01T01:00:00Z</time>
      </trkpt>
      <trkpt lat="61.08987" lon="13.789622">
        <ele>391.909</ele>
        <time>1970-01-01T01:00:00Z</time>
      </trkpt>
      <trkpt lat="61.089843" lon="13.789923">
        <ele>391.455</ele>
        <time>1970-01-01T01:00:00Z</time>
      </trkpt>
      <trkpt lat="61.089836" lon="13.790035">
        <ele>391</ele>
        <time>1970-01-01T01:00:00Z</time>
      </trkpt>
      <trkpt lat="61.089832" lon="13.790074">
        <ele>390.545</ele>
        <time>1970-01-01T01:00:00Z</time>
      </trkpt>
      <trkpt lat="61.089824" lon="13.790097">
        <ele>390.364</ele>
        <time>1970-01-01T01:00:00Z</time>
      </trkpt>
      <trkpt lat="61.089832" lon="13.790162">
        <ele>390.182</ele>
        <time>1970-01-01T01:00:00Z</time>
      </trkpt>
      <trkpt lat="61.089832" lon="13.790193">
        <ele>389.909</ele>
        <time>1970-01-01T01:00:00Z</time>
      </trkpt>
      <trkpt lat="61.089824" lon="13.790203">
        <ele>389.818</ele>
        <time>1970-01-01T01:00:00Z</time>
      </trkpt>
      <trkpt lat="61.089836" lon="13.790266">
        <ele>389.727</ele>
        <time>1970-01-01T01:00:00Z</time>
      </trkpt>
      <trkpt lat="61.089866" lon="13.790355">
        <ele>389.636</ele>
        <time>1970-01-01T01:00:00Z</time>
      </trkpt>
      <trkpt lat="61.089904" lon="13.790431">
        <ele>389.545</ele>
        <time>1970-01-01T01:00:00Z</time>
      </trkpt>
      <trkpt lat="61.090045" lon="13.790665">
        <ele>389.455</ele>
        <time>1970-01-01T01:00:00Z</time>
      </trkpt>
      <trkpt lat="61.090148" lon="13.790902">
        <ele>389.364</ele>
        <time>1970-01-01T01:00:00Z</time>
      </trkpt>
      <trkpt lat="61.090213" lon="13.791192">
        <ele>389.273</ele>
        <time>1970-01-01T01:00:00Z</time>
      </trkpt>
      <trkpt lat="61.090232" lon="13.791265">
        <ele>389.182</ele>
        <time>1970-01-01T01:00:00Z</time>
      </trkpt>
      <trkpt lat="61.09032" lon="13.791573">
        <ele>389.091</ele>
        <time>1970-01-01T01:00:00Z</time>
      </trkpt>
      <trkpt lat="61.090427" lon="13.791962">
        <ele>389</ele>
        <time>1970-01-01T01:00:00Z</time>
      </trkpt>
      <trkpt lat="61.09045" lon="13.792036">
        <ele>389</ele>
        <time>1970-01-01T01:00:00Z</time>
      </trkpt>
      <trkpt lat="61.090587" lon="13.792386">
        <ele>389</ele>
        <time>1970-01-01T01:00:00Z</time>
      </trkpt>
      <trkpt lat="61.090705" lon="13.792707">
        <ele>389</ele>
        <time>1970-01-01T01:00:00Z</time>
      </trkpt>
      <trkpt lat="61.090778" lon="13.793098">
        <ele>389.091</ele>
        <time>1970-01-01T01:00:00Z</time>
      </trkpt>
      <trkpt lat="61.09082" lon="13.793457">
        <ele>389.182</ele>
        <time>1970-01-01T01:00:00Z</time>
      </trkpt>
      <trkpt lat="61.090873" lon="13.793839">
        <ele>389.273</ele>
        <time>1970-01-01T01:00:00Z</time>
      </trkpt>
      <trkpt lat="61.09093" lon="13.79423">
        <ele>389.364</ele>
        <time>1970-01-01T01:00:00Z</time>
      </trkpt>
      <trkpt lat="61.090976" lon="13.794535">
        <ele>389.455</ele>
        <time>1970-01-01T01:00:00Z</time>
      </trkpt>
      <trkpt lat="61.091011" lon="13.794845">
        <ele>389.545</ele>
        <time>1970-01-01T01:00:00Z</time>
      </trkpt>
      <trkpt lat="61.091026" lon="13.795176">
        <ele>389.636</ele>
        <time>1970-01-01T01:00:00Z</time>
      </trkpt>
      <trkpt lat="61.091056" lon="13.795503">
        <ele>389.727</ele>
        <time>1970-01-01T01:00:00Z</time>
      </trkpt>
      <trkpt lat="61.09114" lon="13.795885">
        <ele>389.909</ele>
        <time>1970-01-01T01:00:00Z</time>
      </trkpt>
      <trkpt lat="61.091133" lon="13.796117">
        <ele>390.091</ele>
        <time>1970-01-01T01:00:00Z</time>
      </trkpt>
      <trkpt lat="61.091114" lon="13.796369">
        <ele>390.273</ele>
        <time>1970-01-01T01:00:00Z</time>
      </trkpt>
      <trkpt lat="61.091053" lon="13.796644">
        <ele>390.364</ele>
        <time>1970-01-01T01:00:00Z</time>
      </trkpt>
      <trkpt lat="61.09098" lon="13.796892">
        <ele>390.455</ele>
        <time>1970-01-01T01:00:00Z</time>
      </trkpt>
      <trkpt lat="61.090927" lon="13.79719">
        <ele>390.545</ele>
        <time>1970-01-01T01:00:00Z</time>
      </trkpt>
      <trkpt lat="61.090896" lon="13.797369">
        <ele>390.636</ele>
        <time>1970-01-01T01:00:00Z</time>
      </trkpt>
      <trkpt lat="61.090888" lon="13.797421">
        <ele>390.727</ele>
        <time>1970-01-01T01:00:00Z</time>
      </trkpt>
      <trkpt lat="61.090866" lon="13.797574">
        <ele>390.818</ele>
        <time>1970-01-01T01:00:00Z</time>
      </trkpt>
      <trkpt lat="61.090858" lon="13.797675">
        <ele>390.909</ele>
        <time>1970-01-01T01:00:00Z</time>
      </trkpt>
      <trkpt lat="61.09085" lon="13.797722">
        <ele>391</ele>
        <time>1970-01-01T01:00:00Z</time>
      </trkpt>
      <trkpt lat="61.09085" lon="13.797767">
        <ele>391</ele>
        <time>1970-01-01T01:00:00Z</time>
      </trkpt>
      <trkpt lat="61.090869" lon="13.797949">
        <ele>391</ele>
        <time>1970-01-01T01:00:00Z</time>
      </trkpt>
      <trkpt lat="61.090885" lon="13.798074">
        <ele>391</ele>
        <time>1970-01-01T01:00:00Z</time>
      </trkpt>
      <trkpt lat="61.090908" lon="13.798162">
        <ele>391</ele>
        <time>1970-01-01T01:00:00Z</time>
      </trkpt>
      <trkpt lat="61.090957" lon="13.798269">
        <ele>391</ele>
        <time>1970-01-01T01:00:00Z</time>
      </trkpt>
      <trkpt lat="61.091026" lon="13.798436">
        <ele>391</ele>
        <time>1970-01-01T01:00:00Z</time>
      </trkpt>
      <trkpt lat="61.091075" lon="13.798594">
        <ele>391</ele>
        <time>1970-01-01T01:00:00Z</time>
      </trkpt>
      <trkpt lat="61.091083" lon="13.798631">
        <ele>391.273</ele>
        <time>1970-01-01T01:00:00Z</time>
      </trkpt>
      <trkpt lat="61.09114" lon="13.798795">
        <ele>391.545</ele>
        <time>1970-01-01T01:00:00Z</time>
      </trkpt>
      <trkpt lat="61.09119" lon="13.798996">
        <ele>392</ele>
        <time>1970-01-01T01:00:00Z</time>
      </trkpt>
      <trkpt lat="61.091232" lon="13.799205">
        <ele>392.455</ele>
        <time>1970-01-01T01:00:00Z</time>
      </trkpt>
      <trkpt lat="61.091251" lon="13.799312">
        <ele>392.909</ele>
        <time>1970-01-01T01:00:00Z</time>
      </trkpt>
      <trkpt lat="61.091285" lon="13.799478">
        <ele>393.364</ele>
        <time>1970-01-01T01:00:00Z</time>
      </trkpt>
      <trkpt lat="61.091297" lon="13.799537">
        <ele>394</ele>
        <time>1970-01-01T01:00:00Z</time>
      </trkpt>
      <trkpt lat="61.091312" lon="13.799731">
        <ele>394.636</ele>
        <time>1970-01-01T01:00:00Z</time>
      </trkpt>
      <trkpt lat="61.091346" lon="13.799879">
        <ele>395.273</ele>
        <time>1970-01-01T01:00:00Z</time>
      </trkpt>
      <trkpt lat="61.091419" lon="13.800027">
        <ele>395.909</ele>
        <time>1970-01-01T01:00:00Z</time>
      </trkpt>
      <trkpt lat="61.091533" lon="13.800297">
        <ele>396.455</ele>
        <time>1970-01-01T01:00:00Z</time>
      </trkpt>
      <trkpt lat="61.091663" lon="13.800605">
        <ele>396.636</ele>
        <time>1970-01-01T01:00:00Z</time>
      </trkpt>
      <trkpt lat="61.091732" lon="13.800781">
        <ele>396.818</ele>
        <time>1970-01-01T01:00:00Z</time>
      </trkpt>
      <trkpt lat="61.091827" lon="13.801054">
        <ele>396.818</ele>
        <time>1970-01-01T01:00:00Z</time>
      </trkpt>
      <trkpt lat="61.091888" lon="13.801214">
        <ele>396.636</ele>
        <time>1970-01-01T01:00:00Z</time>
      </trkpt>
      <trkpt lat="61.091983" lon="13.801445">
        <ele>396.455</ele>
        <time>1970-01-01T01:00:00Z</time>
      </trkpt>
      <trkpt lat="61.092105" lon="13.801639">
        <ele>396.273</ele>
        <time>1970-01-01T01:00:00Z</time>
      </trkpt>
      <trkpt lat="61.092227" lon="13.801838">
        <ele>395.909</ele>
        <time>1970-01-01T01:00:00Z</time>
      </trkpt>
      <trkpt lat="61.092319" lon="13.802002">
        <ele>395.545</ele>
        <time>1970-01-01T01:00:00Z</time>
      </trkpt>
      <trkpt lat="61.092422" lon="13.802187">
        <ele>395</ele>
        <time>1970-01-01T01:00:00Z</time>
      </trkpt>
      <trkpt lat="61.092494" lon="13.802346">
        <ele>394.273</ele>
        <time>1970-01-01T01:00:00Z</time>
      </trkpt>
      <trkpt lat="61.092563" lon="13.802491">
        <ele>393.636</ele>
        <time>1970-01-01T01:00:00Z</time>
      </trkpt>
      <trkpt lat="61.092655" lon="13.802656">
        <ele>393.091</ele>
        <time>1970-01-01T01:00:00Z</time>
      </trkpt>
      <trkpt lat="61.092815" lon="13.802895">
        <ele>392.455</ele>
        <time>1970-01-01T01:00:00Z</time>
      </trkpt>
      <trkpt lat="61.092903" lon="13.803051">
        <ele>391.818</ele>
        <time>1970-01-01T01:00:00Z</time>
      </trkpt>
      <trkpt lat="61.093044" lon="13.803525">
        <ele>391.364</ele>
        <time>1970-01-01T01:00:00Z</time>
      </trkpt>
      <trkpt lat="61.093166" lon="13.804141">
        <ele>390.909</ele>
        <time>1970-01-01T01:00:00Z</time>
      </trkpt>
      <trkpt lat="61.093368" lon="13.804656">
        <ele>390.455</ele>
        <time>1970-01-01T01:00:00Z</time>
      </trkpt>
      <trkpt lat="61.093563" lon="13.805026">
        <ele>390</ele>
        <time>1970-01-01T01:00:00Z</time>
      </trkpt>
      <trkpt lat="61.093593" lon="13.805081">
        <ele>389.545</ele>
        <time>1970-01-01T01:00:00Z</time>
      </trkpt>
      <trkpt lat="61.093704" lon="13.805317">
        <ele>389.273</ele>
        <time>1970-01-01T01:00:00Z</time>
      </trkpt>
      <trkpt lat="61.09378" lon="13.805621">
        <ele>389.182</ele>
        <time>1970-01-01T01:00:00Z</time>
      </trkpt>
      <trkpt lat="61.093795" lon="13.805861">
        <ele>389.091</ele>
        <time>1970-01-01T01:00:00Z</time>
      </trkpt>
      <trkpt lat="61.093803" lon="13.806061">
        <ele>389</ele>
        <time>1970-01-01T01:00:00Z</time>
      </trkpt>
      <trkpt lat="61.093818" lon="13.806277">
        <ele>389</ele>
        <time>1970-01-01T01:00:00Z</time>
      </trkpt>
      <trkpt lat="61.093818" lon="13.806457">
        <ele>389</ele>
        <time>1970-01-01T01:00:00Z</time>
      </trkpt>
      <trkpt lat="61.09386" lon="13.806632">
        <ele>389</ele>
        <time>1970-01-01T01:00:00Z</time>
      </trkpt>
      <trkpt lat="61.093936" lon="13.806793">
        <ele>389</ele>
        <time>1970-01-01T01:00:00Z</time>
      </trkpt>
      <trkpt lat="61.094017" lon="13.80695">
        <ele>389</ele>
        <time>1970-01-01T01:00:00Z</time>
      </trkpt>
      <trkpt lat="61.094081" lon="13.807097">
        <ele>389</ele>
        <time>1970-01-01T01:00:00Z</time>
      </trkpt>
      <trkpt lat="61.094139" lon="13.807234">
        <ele>389.091</ele>
        <time>1970-01-01T01:00:00Z</time>
      </trkpt>
      <trkpt lat="61.094173" lon="13.807292">
        <ele>389.182</ele>
        <time>1970-01-01T01:00:00Z</time>
      </trkpt>
      <trkpt lat="61.094219" lon="13.807409">
        <ele>389.182</ele>
        <time>1970-01-01T01:00:00Z</time>
      </trkpt>
      <trkpt lat="61.094326" lon="13.8077">
        <ele>389.182</ele>
        <time>1970-01-01T01:00:00Z</time>
      </trkpt>
      <trkpt lat="61.094448" lon="13.807959">
        <ele>389.182</ele>
        <time>1970-01-01T01:00:00Z</time>
      </trkpt>
      <trkpt lat="61.094543" lon="13.80813">
        <ele>389.182</ele>
        <time>1970-01-01T01:00:00Z</time>
      </trkpt>
      <trkpt lat="61.094589" lon="13.808242">
        <ele>389.182</ele>
        <time>1970-01-01T01:00:00Z</time>
      </trkpt>
      <trkpt lat="61.09473" lon="13.808476">
        <ele>389.182</ele>
        <time>1970-01-01T01:00:00Z</time>
      </trkpt>
      <trkpt lat="61.094841" lon="13.808659">
        <ele>389.182</ele>
        <time>1970-01-01T01:00:00Z</time>
      </trkpt>
      <trkpt lat="61.094867" lon="13.808703">
        <ele>389.182</ele>
        <time>1970-01-01T01:00:00Z</time>
      </trkpt>
      <trkpt lat="61.095008" lon="13.808891">
        <ele>389.182</ele>
        <time>1970-01-01T01:00:00Z</time>
      </trkpt>
      <trkpt lat="61.095115" lon="13.809039">
        <ele>389.091</ele>
        <time>1970-01-01T01:00:00Z</time>
      </trkpt>
      <trkpt lat="61.095237" lon="13.809237">
        <ele>389</ele>
        <time>1970-01-01T01:00:00Z</time>
      </trkpt>
      <trkpt lat="61.095336" lon="13.809437">
        <ele>389</ele>
        <time>1970-01-01T01:00:00Z</time>
      </trkpt>
      <trkpt lat="61.095424" lon="13.809683">
        <ele>389</ele>
        <time>1970-01-01T01:00:00Z</time>
      </trkpt>
      <trkpt lat="61.095485" lon="13.809885">
        <ele>389</ele>
        <time>1970-01-01T01:00:00Z</time>
      </trkpt>
      <trkpt lat="61.095542" lon="13.810136">
        <ele>389</ele>
        <time>1970-01-01T01:00:00Z</time>
      </trkpt>
      <trkpt lat="61.095603" lon="13.810297">
        <ele>389</ele>
        <time>1970-01-01T01:00:00Z</time>
      </trkpt>
      <trkpt lat="61.09563" lon="13.810411">
        <ele>389</ele>
        <time>1970-01-01T01:00:00Z</time>
      </trkpt>
      <trkpt lat="61.09568" lon="13.810556">
        <ele>389</ele>
        <time>1970-01-01T01:00:00Z</time>
      </trkpt>
      <trkpt lat="61.095798" lon="13.810847">
        <ele>389</ele>
        <time>1970-01-01T01:00:00Z</time>
      </trkpt>
      <trkpt lat="61.095829" lon="13.810894">
        <ele>389</ele>
        <time>1970-01-01T01:00:00Z</time>
      </trkpt>
      <trkpt lat="61.095863" lon="13.810942">
        <ele>389</ele>
        <time>1970-01-01T01:00:00Z</time>
      </trkpt>
      <trkpt lat="61.095901" lon="13.810994">
        <ele>389.091</ele>
        <time>1970-01-01T01:00:00Z</time>
      </trkpt>
      <trkpt lat="61.095973" lon="13.811093">
        <ele>389.182</ele>
        <time>1970-01-01T01:00:00Z</time>
      </trkpt>
      <trkpt lat="61.096015" lon="13.811144">
        <ele>389.273</ele>
        <time>1970-01-01T01:00:00Z</time>
      </trkpt>
      <trkpt lat="61.096057" lon="13.811198">
        <ele>389.273</ele>
        <time>1970-01-01T01:00:00Z</time>
      </trkpt>
      <trkpt lat="61.096164" lon="13.811372">
        <ele>389.273</ele>
        <time>1970-01-01T01:00:00Z</time>
      </trkpt>
      <trkpt lat="61.096286" lon="13.811624">
        <ele>389.273</ele>
        <time>1970-01-01T01:00:00Z</time>
      </trkpt>
      <trkpt lat="61.096431" lon="13.811903">
        <ele>389.364</ele>
        <time>1970-01-01T01:00:00Z</time>
      </trkpt>
      <trkpt lat="61.096553" lon="13.812081">
        <ele>389.455</ele>
        <time>1970-01-01T01:00:00Z</time>
      </trkpt>
      <trkpt lat="61.096668" lon="13.812249">
        <ele>389.455</ele>
        <time>1970-01-01T01:00:00Z</time>
      </trkpt>
      <trkpt lat="61.09682" lon="13.812448">
        <ele>389.455</ele>
        <time>1970-01-01T01:00:00Z</time>
      </trkpt>
      <trkpt lat="61.097045" lon="13.812671">
        <ele>389.455</ele>
        <time>1970-01-01T01:00:00Z</time>
      </trkpt>
      <trkpt lat="61.097179" lon="13.81284">
        <ele>389.364</ele>
        <time>1970-01-01T01:00:00Z</time>
      </trkpt>
      <trkpt lat="61.097278" lon="13.813023">
        <ele>389.273</ele>
        <time>1970-01-01T01:00:00Z</time>
      </trkpt>
      <trkpt lat="61.097404" lon="13.813344">
        <ele>389.182</ele>
        <time>1970-01-01T01:00:00Z</time>
      </trkpt>
      <trkpt lat="61.097431" lon="13.8134">
        <ele>389.182</ele>
        <time>1970-01-01T01:00:00Z</time>
      </trkpt>
      <trkpt lat="61.097545" lon="13.813707">
        <ele>389.182</ele>
        <time>1970-01-01T01:00:00Z</time>
      </trkpt>
      <trkpt lat="61.097667" lon="13.813943">
        <ele>389.182</ele>
        <time>1970-01-01T01:00:00Z</time>
      </trkpt>
      <trkpt lat="61.097721" lon="13.814109">
        <ele>389.182</ele>
        <time>1970-01-01T01:00:00Z</time>
      </trkpt>
      <trkpt lat="61.097763" lon="13.814343">
        <ele>389.182</ele>
        <time>1970-01-01T01:00:00Z</time>
      </trkpt>
      <trkpt lat="61.097793" lon="13.814506">
        <ele>389.273</ele>
        <time>1970-01-01T01:00:00Z</time>
      </trkpt>
      <trkpt lat="61.097854" lon="13.814744">
        <ele>389.364</ele>
        <time>1970-01-01T01:00:00Z</time>
      </trkpt>
      <trkpt lat="61.097927" lon="13.8149">
        <ele>389.455</ele>
        <time>1970-01-01T01:00:00Z</time>
      </trkpt>
      <trkpt lat="61.097988" lon="13.815033">
        <ele>389.545</ele>
        <time>1970-01-01T01:00:00Z</time>
      </trkpt>
      <trkpt lat="61.098133" lon="13.815344">
        <ele>389.636</ele>
        <time>1970-01-01T01:00:00Z</time>
      </trkpt>
      <trkpt lat="61.098258" lon="13.815515">
        <ele>390.455</ele>
        <time>1970-01-01T01:00:00Z</time>
      </trkpt>
      <trkpt lat="61.098388" lon="13.815623">
        <ele>391.273</ele>
        <time>1970-01-01T01:00:00Z</time>
      </trkpt>
      <trkpt lat="61.098529" lon="13.815742">
        <ele>392.091</ele>
        <time>1970-01-01T01:00:00Z</time>
      </trkpt>
      <trkpt lat="61.098613" lon="13.815801">
        <ele>392.909</ele>
        <time>1970-01-01T01:00:00Z</time>
      </trkpt>
      <trkpt lat="61.098747" lon="13.815838">
        <ele>393.636</ele>
        <time>1970-01-01T01:00:00Z</time>
      </trkpt>
      <trkpt lat="61.098831" lon="13.815856">
        <ele>394.364</ele>
        <time>1970-01-01T01:00:00Z</time>
      </trkpt>
      <trkpt lat="61.098869" lon="13.815853">
        <ele>395.091</ele>
        <time>1970-01-01T01:00:00Z</time>
      </trkpt>
      <trkpt lat="61.098949" lon="13.815866">
        <ele>395.818</ele>
        <time>1970-01-01T01:00:00Z</time>
      </trkpt>
      <trkpt lat="61.099029" lon="13.81588">
        <ele>396.545</ele>
        <time>1970-01-01T01:00:00Z</time>
      </trkpt>
      <trkpt lat="61.099071" lon="13.815897">
        <ele>397.273</ele>
        <time>1970-01-01T01:00:00Z</time>
      </trkpt>
      <trkpt lat="61.099189" lon="13.815903">
        <ele>398</ele>
        <time>1970-01-01T01:00:00Z</time>
      </trkpt>
      <trkpt lat="61.099269" lon="13.815878">
        <ele>398.273</ele>
        <time>1970-01-01T01:00:00Z</time>
      </trkpt>
      <trkpt lat="61.099372" lon="13.815862">
        <ele>398.545</ele>
        <time>1970-01-01T01:00:00Z</time>
      </trkpt>
      <trkpt lat="61.099487" lon="13.815845">
        <ele>398.818</ele>
        <time>1970-01-01T01:00:00Z</time>
      </trkpt>
      <trkpt lat="61.099571" lon="13.815797">
        <ele>399.091</ele>
        <time>1970-01-01T01:00:00Z</time>
      </trkpt>
      <trkpt lat="61.099609" lon="13.815776">
        <ele>399.364</ele>
        <time>1970-01-01T01:00:00Z</time>
      </trkpt>
      <trkpt lat="61.099708" lon="13.815733">
        <ele>399.636</ele>
        <time>1970-01-01T01:00:00Z</time>
      </trkpt>
      <trkpt lat="61.099811" lon="13.815723">
        <ele>399.909</ele>
        <time>1970-01-01T01:00:00Z</time>
      </trkpt>
      <trkpt lat="61.099903" lon="13.815696">
        <ele>400.182</ele>
        <time>1970-01-01T01:00:00Z</time>
      </trkpt>
      <trkpt lat="61.099914" lon="13.815691">
        <ele>400.455</ele>
        <time>1970-01-01T01:00:00Z</time>
      </trkpt>
      <trkpt lat="61.100032" lon="13.815678">
        <ele>400.727</ele>
        <time>1970-01-01T01:00:00Z</time>
      </trkpt>
      <trkpt lat="61.100109" lon="13.815689">
        <ele>401.273</ele>
        <time>1970-01-01T01:00:00Z</time>
      </trkpt>
      <trkpt lat="61.100177" lon="13.8157">
        <ele>401.545</ele>
        <time>1970-01-01T01:00:00Z</time>
      </trkpt>
      <trkpt lat="61.100265" lon="13.815727">
        <ele>401.818</ele>
        <time>1970-01-01T01:00:00Z</time>
      </trkpt>
      <trkpt lat="61.10028" lon="13.815729">
        <ele>402.091</ele>
        <time>1970-01-01T01:00:00Z</time>
      </trkpt>
      <trkpt lat="61.100387" lon="13.815774">
        <ele>402.364</ele>
        <time>1970-01-01T01:00:00Z</time>
      </trkpt>
      <trkpt lat="61.100513" lon="13.815877">
        <ele>402.636</ele>
        <time>1970-01-01T01:00:00Z</time>
      </trkpt>
      <trkpt lat="61.100593" lon="13.815954">
        <ele>402.909</ele>
        <time>1970-01-01T01:00:00Z</time>
      </trkpt>
      <trkpt lat="61.100688" lon="13.816067">
        <ele>403.545</ele>
        <time>1970-01-01T01:00:00Z</time>
      </trkpt>
      <trkpt lat="61.100765" lon="13.816151">
        <ele>404.182</ele>
        <time>1970-01-01T01:00:00Z</time>
      </trkpt>
      <trkpt lat="61.100875" lon="13.816246">
        <ele>404.818</ele>
        <time>1970-01-01T01:00:00Z</time>
      </trkpt>
      <trkpt lat="61.101028" lon="13.81635">
        <ele>405.455</ele>
        <time>1970-01-01T01:00:00Z</time>
      </trkpt>
      <trkpt lat="61.101154" lon="13.816448">
        <ele>405.818</ele>
        <time>1970-01-01T01:00:00Z</time>
      </trkpt>
      <trkpt lat="61.101306" lon="13.816486">
        <ele>406.182</ele>
        <time>1970-01-01T01:00:00Z</time>
      </trkpt>
      <trkpt lat="61.101455" lon="13.816582">
        <ele>406.909</ele>
        <time>1970-01-01T01:00:00Z</time>
      </trkpt>
      <trkpt lat="61.101669" lon="13.81676">
        <ele>407.636</ele>
        <time>1970-01-01T01:00:00Z</time>
      </trkpt>
      <trkpt lat="61.101715" lon="13.816795">
        <ele>408.364</ele>
        <time>1970-01-01T01:00:00Z</time>
      </trkpt>
      <trkpt lat="61.101825" lon="13.816903">
        <ele>409.091</ele>
        <time>1970-01-01T01:00:00Z</time>
      </trkpt>
      <trkpt lat="61.101974" lon="13.81707">
        <ele>409.818</ele>
        <time>1970-01-01T01:00:00Z</time>
      </trkpt>
      <trkpt lat="61.10213" lon="13.817188">
        <ele>410.182</ele>
        <time>1970-01-01T01:00:00Z</time>
      </trkpt>
      <trkpt lat="61.102203" lon="13.817232">
        <ele>410.545</ele>
        <time>1970-01-01T01:00:00Z</time>
      </trkpt>
      <trkpt lat="61.102363" lon="13.817404">
        <ele>410.909</ele>
        <time>1970-01-01T01:00:00Z</time>
      </trkpt>
      <trkpt lat="61.102535" lon="13.817561">
        <ele>411.545</ele>
        <time>1970-01-01T01:00:00Z</time>
      </trkpt>
      <trkpt lat="61.102611" lon="13.817624">
        <ele>412.182</ele>
        <time>1970-01-01T01:00:00Z</time>
      </trkpt>
      <trkpt lat="61.102729" lon="13.817741">
        <ele>412.818</ele>
        <time>1970-01-01T01:00:00Z</time>
      </trkpt>
      <trkpt lat="61.102832" lon="13.817791">
        <ele>413.091</ele>
        <time>1970-01-01T01:00:00Z</time>
      </trkpt>
      <trkpt lat="61.102951" lon="13.81791">
        <ele>413.364</ele>
        <time>1970-01-01T01:00:00Z</time>
      </trkpt>
      <trkpt lat="61.103054" lon="13.817991">
        <ele>413.455</ele>
        <time>1970-01-01T01:00:00Z</time>
      </trkpt>
      <trkpt lat="61.103179" lon="13.818136">
        <ele>413.545</ele>
        <time>1970-01-01T01:00:00Z</time>
      </trkpt>
      <trkpt lat="61.103282" lon="13.818268">
        <ele>413.909</ele>
        <time>1970-01-01T01:00:00Z</time>
      </trkpt>
      <trkpt lat="61.103401" lon="13.818415">
        <ele>413.909</ele>
        <time>1970-01-01T01:00:00Z</time>
      </trkpt>
      <trkpt lat="61.103546" lon="13.818619">
        <ele>413.909</ele>
        <time>1970-01-01T01:00:00Z</time>
      </trkpt>
      <trkpt lat="61.103675" lon="13.81882">
        <ele>413.909</ele>
        <time>1970-01-01T01:00:00Z</time>
      </trkpt>
      <trkpt lat="61.103713" lon="13.818886">
        <ele>413.455</ele>
        <time>1970-01-01T01:00:00Z</time>
      </trkpt>
      <trkpt lat="61.103885" lon="13.819371">
        <ele>413</ele>
        <time>1970-01-01T01:00:00Z</time>
      </trkpt>
      <trkpt lat="61.104042" lon="13.819947">
        <ele>412.727</ele>
        <time>1970-01-01T01:00:00Z</time>
      </trkpt>
      <trkpt lat="61.104076" lon="13.82005">
        <ele>412.455</ele>
        <time>1970-01-01T01:00:00Z</time>
      </trkpt>
      <trkpt lat="61.104232" lon="13.820339">
        <ele>412.182</ele>
        <time>1970-01-01T01:00:00Z</time>
      </trkpt>
      <trkpt lat="61.104415" lon="13.820549">
        <ele>412.091</ele>
        <time>1970-01-01T01:00:00Z</time>
      </trkpt>
      <trkpt lat="61.10456" lon="13.820724">
        <ele>411.818</ele>
        <time>1970-01-01T01:00:00Z</time>
      </trkpt>
      <trkpt lat="61.104721" lon="13.82089">
        <ele>411.273</ele>
        <time>1970-01-01T01:00:00Z</time>
      </trkpt>
      <trkpt lat="61.104789" lon="13.820972">
        <ele>411.091</ele>
        <time>1970-01-01T01:00:00Z</time>
      </trkpt>
      <trkpt lat="61.104862" lon="13.821045">
        <ele>410.818</ele>
        <time>1970-01-01T01:00:00Z</time>
      </trkpt>
      <trkpt lat="61.104923" lon="13.821127">
        <ele>410.545</ele>
        <time>1970-01-01T01:00:00Z</time>
      </trkpt>
      <trkpt lat="61.105056" lon="13.821272">
        <ele>410.455</ele>
        <time>1970-01-01T01:00:00Z</time>
      </trkpt>
      <trkpt lat="61.105228" lon="13.821441">
        <ele>410.364</ele>
        <time>1970-01-01T01:00:00Z</time>
      </trkpt>
      <trkpt lat="61.105373" lon="13.821564">
        <ele>410.091</ele>
        <time>1970-01-01T01:00:00Z</time>
      </trkpt>
      <trkpt lat="61.10551" lon="13.821675">
        <ele>409.818</ele>
        <time>1970-01-01T01:00:00Z</time>
      </trkpt>
      <trkpt lat="61.105655" lon="13.821797">
        <ele>409.545</ele>
        <time>1970-01-01T01:00:00Z</time>
      </trkpt>
      <trkpt lat="61.105796" lon="13.82192">
        <ele>409.273</ele>
        <time>1970-01-01T01:00:00Z</time>
      </trkpt>
      <trkpt lat="61.105937" lon="13.822078">
        <ele>409.182</ele>
        <time>1970-01-01T01:00:00Z</time>
      </trkpt>
      <trkpt lat="61.106056" lon="13.822155">
        <ele>409.091</ele>
        <time>1970-01-01T01:00:00Z</time>
      </trkpt>
      <trkpt lat="61.106128" lon="13.822231">
        <ele>409.091</ele>
        <time>1970-01-01T01:00:00Z</time>
      </trkpt>
      <trkpt lat="61.106212" lon="13.82236">
        <ele>409.182</ele>
        <time>1970-01-01T01:00:00Z</time>
      </trkpt>
      <trkpt lat="61.106281" lon="13.822559">
        <ele>409.273</ele>
        <time>1970-01-01T01:00:00Z</time>
      </trkpt>
      <trkpt lat="61.106334" lon="13.822763">
        <ele>409.545</ele>
        <time>1970-01-01T01:00:00Z</time>
      </trkpt>
      <trkpt lat="61.106391" lon="13.823013">
        <ele>409.818</ele>
        <time>1970-01-01T01:00:00Z</time>
      </trkpt>
      <trkpt lat="61.106422" lon="13.823186">
        <ele>410.091</ele>
        <time>1970-01-01T01:00:00Z</time>
      </trkpt>
      <trkpt lat="61.106472" lon="13.823389">
        <ele>410.364</ele>
        <time>1970-01-01T01:00:00Z</time>
      </trkpt>
      <trkpt lat="61.106525" lon="13.823653">
        <ele>410.636</ele>
        <time>1970-01-01T01:00:00Z</time>
      </trkpt>
      <trkpt lat="61.106529" lon="13.823903">
        <ele>410.909</ele>
        <time>1970-01-01T01:00:00Z</time>
      </trkpt>
      <trkpt lat="61.106521" lon="13.824028">
        <ele>411.636</ele>
        <time>1970-01-01T01:00:00Z</time>
      </trkpt>
      <trkpt lat="61.106533" lon="13.824103">
        <ele>412.364</ele>
        <time>1970-01-01T01:00:00Z</time>
      </trkpt>
      <trkpt lat="61.106548" lon="13.824325">
        <ele>413</ele>
        <time>1970-01-01T01:00:00Z</time>
      </trkpt>
      <trkpt lat="61.106552" lon="13.824357">
        <ele>413.636</ele>
        <time>1970-01-01T01:00:00Z</time>
      </trkpt>
      <trkpt lat="61.106601" lon="13.824574">
        <ele>414.273</ele>
        <time>1970-01-01T01:00:00Z</time>
      </trkpt>
      <trkpt lat="61.106651" lon="13.824745">
        <ele>415</ele>
        <time>1970-01-01T01:00:00Z</time>
      </trkpt>
      <trkpt lat="61.106727" lon="13.824935">
        <ele>415.727</ele>
        <time>1970-01-01T01:00:00Z</time>
      </trkpt>
      <trkpt lat="61.106815" lon="13.825121">
        <ele>416.545</ele>
        <time>1970-01-01T01:00:00Z</time>
      </trkpt>
      <trkpt lat="61.10688" lon="13.825302">
        <ele>417.364</ele>
        <time>1970-01-01T01:00:00Z</time>
      </trkpt>
      <trkpt lat="61.106945" lon="13.825467">
        <ele>418.182</ele>
        <time>1970-01-01T01:00:00Z</time>
      </trkpt>
      <trkpt lat="61.10699" lon="13.825556">
        <ele>419</ele>
        <time>1970-01-01T01:00:00Z</time>
      </trkpt>
      <trkpt lat="61.107032" lon="13.825688">
        <ele>419.364</ele>
        <time>1970-01-01T01:00:00Z</time>
      </trkpt>
      <trkpt lat="61.107093" lon="13.825801">
        <ele>419.727</ele>
        <time>1970-01-01T01:00:00Z</time>
      </trkpt>
      <trkpt lat="61.107109" lon="13.825819">
        <ele>420.091</ele>
        <time>1970-01-01T01:00:00Z</time>
      </trkpt>
      <trkpt lat="61.107196" lon="13.825935">
        <ele>420.455</ele>
        <time>1970-01-01T01:00:00Z</time>
      </trkpt>
      <trkpt lat="61.10733" lon="13.826035">
        <ele>420.818</ele>
        <time>1970-01-01T01:00:00Z</time>
      </trkpt>
      <trkpt lat="61.107452" lon="13.82611">
        <ele>420.909</ele>
        <time>1970-01-01T01:00:00Z</time>
      </trkpt>
      <trkpt lat="61.107547" lon="13.826228">
        <ele>421</ele>
        <time>1970-01-01T01:00:00Z</time>
      </trkpt>
      <trkpt lat="61.107646" lon="13.826436">
        <ele>421.091</ele>
        <time>1970-01-01T01:00:00Z</time>
      </trkpt>
      <trkpt lat="61.107738" lon="13.826601">
        <ele>421.182</ele>
        <time>1970-01-01T01:00:00Z</time>
      </trkpt>
      <trkpt lat="61.107791" lon="13.826743">
        <ele>421.364</ele>
        <time>1970-01-01T01:00:00Z</time>
      </trkpt>
      <trkpt lat="61.107852" lon="13.826933">
        <ele>421.545</ele>
        <time>1970-01-01T01:00:00Z</time>
      </trkpt>
      <trkpt lat="61.107891" lon="13.827116">
        <ele>421.727</ele>
        <time>1970-01-01T01:00:00Z</time>
      </trkpt>
      <trkpt lat="61.107921" lon="13.827329">
        <ele>422</ele>
        <time>1970-01-01T01:00:00Z</time>
      </trkpt>
      <trkpt lat="61.107952" lon="13.827531">
        <ele>422.273</ele>
        <time>1970-01-01T01:00:00Z</time>
      </trkpt>
      <trkpt lat="61.107986" lon="13.827747">
        <ele>422.545</ele>
        <time>1970-01-01T01:00:00Z</time>
      </trkpt>
      <trkpt lat="61.108005" lon="13.827849">
        <ele>422.818</ele>
        <time>1970-01-01T01:00:00Z</time>
      </trkpt>
      <trkpt lat="61.108016" lon="13.827931">
        <ele>423.091</ele>
        <time>1970-01-01T01:00:00Z</time>
      </trkpt>
      <trkpt lat="61.108024" lon="13.828022">
        <ele>423.364</ele>
        <time>1970-01-01T01:00:00Z</time>
      </trkpt>
      <trkpt lat="61.108032" lon="13.82811">
        <ele>423.545</ele>
        <time>1970-01-01T01:00:00Z</time>
      </trkpt>
      <trkpt lat="61.108036" lon="13.828214">
        <ele>423.727</ele>
        <time>1970-01-01T01:00:00Z</time>
      </trkpt>
      <trkpt lat="61.108051" lon="13.828278">
        <ele>423.818</ele>
        <time>1970-01-01T01:00:00Z</time>
      </trkpt>
      <trkpt lat="61.108081" lon="13.828459">
        <ele>423.909</ele>
        <time>1970-01-01T01:00:00Z</time>
      </trkpt>
      <trkpt lat="61.108104" lon="13.828584">
        <ele>424.091</ele>
        <time>1970-01-01T01:00:00Z</time>
      </trkpt>
      <trkpt lat="61.108108" lon="13.828617">
        <ele>424</ele>
        <time>1970-01-01T01:00:00Z</time>
      </trkpt>
      <trkpt lat="61.108089" lon="13.828827">
        <ele>423.909</ele>
        <time>1970-01-01T01:00:00Z</time>
      </trkpt>
      <trkpt lat="61.108074" lon="13.829025">
        <ele>423.818</ele>
        <time>1970-01-01T01:00:00Z</time>
      </trkpt>
      <trkpt lat="61.108028" lon="13.829403">
        <ele>423.727</ele>
        <time>1970-01-01T01:00:00Z</time>
      </trkpt>
      <trkpt lat="61.108005" lon="13.829627">
        <ele>423.636</ele>
        <time>1970-01-01T01:00:00Z</time>
      </trkpt>
      <trkpt lat="61.107978" lon="13.829934">
        <ele>423.636</ele>
        <time>1970-01-01T01:00:00Z</time>
      </trkpt>
      <trkpt lat="61.107952" lon="13.830313">
        <ele>423.636</ele>
        <time>1970-01-01T01:00:00Z</time>
      </trkpt>
      <trkpt lat="61.107913" lon="13.830531">
        <ele>423.636</ele>
        <time>1970-01-01T01:00:00Z</time>
      </trkpt>
      <trkpt lat="61.107845" lon="13.830837">
        <ele>423.636</ele>
        <time>1970-01-01T01:00:00Z</time>
      </trkpt>
      <trkpt lat="61.107757" lon="13.83119">
        <ele>423.636</ele>
        <time>1970-01-01T01:00:00Z</time>
      </trkpt>
      <trkpt lat="61.107696" lon="13.831444">
        <ele>423.545</ele>
        <time>1970-01-01T01:00:00Z</time>
      </trkpt>
      <trkpt lat="61.107673" lon="13.831548">
        <ele>423.636</ele>
        <time>1970-01-01T01:00:00Z</time>
      </trkpt>
      <trkpt lat="61.107578" lon="13.832031">
        <ele>423.818</ele>
        <time>1970-01-01T01:00:00Z</time>
      </trkpt>
      <trkpt lat="61.107482" lon="13.832195">
        <ele>423.909</ele>
        <time>1970-01-01T01:00:00Z</time>
      </trkpt>
      <trkpt lat="61.107433" lon="13.83231">
        <ele>424</ele>
        <time>1970-01-01T01:00:00Z</time>
      </trkpt>
      <trkpt lat="61.107322" lon="13.832638">
        <ele>424.091</ele>
        <time>1970-01-01T01:00:00Z</time>
      </trkpt>
      <trkpt lat="61.107265" lon="13.832965">
        <ele>424.091</ele>
        <time>1970-01-01T01:00:00Z</time>
      </trkpt>
      <trkpt lat="61.107185" lon="13.83323">
        <ele>424.091</ele>
        <time>1970-01-01T01:00:00Z</time>
      </trkpt>
      <trkpt lat="61.107086" lon="13.833678">
        <ele>424.182</ele>
        <time>1970-01-01T01:00:00Z</time>
      </trkpt>
      <trkpt lat="61.10704" lon="13.833856">
        <ele>424.273</ele>
        <time>1970-01-01T01:00:00Z</time>
      </trkpt>
      <trkpt lat="61.106983" lon="13.834265">
        <ele>424.364</ele>
        <time>1970-01-01T01:00:00Z</time>
      </trkpt>
      <trkpt lat="61.106983" lon="13.834516">
        <ele>424.455</ele>
        <time>1970-01-01T01:00:00Z</time>
      </trkpt>
      <trkpt lat="61.107021" lon="13.834782">
        <ele>424.545</ele>
        <time>1970-01-01T01:00:00Z</time>
      </trkpt>
      <trkpt lat="61.10712" lon="13.835193">
        <ele>424.545</ele>
        <time>1970-01-01T01:00:00Z</time>
      </trkpt>
      <trkpt lat="61.107212" lon="13.835463">
        <ele>424.545</ele>
        <time>1970-01-01T01:00:00Z</time>
      </trkpt>
      <trkpt lat="61.107311" lon="13.835686">
        <ele>424.545</ele>
        <time>1970-01-01T01:00:00Z</time>
      </trkpt>
      <trkpt lat="61.107517" lon="13.835992">
        <ele>424.545</ele>
        <time>1970-01-01T01:00:00Z</time>
      </trkpt>
      <trkpt lat="61.107666" lon="13.836168">
        <ele>424.455</ele>
        <time>1970-01-01T01:00:00Z</time>
      </trkpt>
      <trkpt lat="61.107746" lon="13.836252">
        <ele>424.364</ele>
        <time>1970-01-01T01:00:00Z</time>
      </trkpt>
      <trkpt lat="61.107814" lon="13.836346">
        <ele>424.182</ele>
        <time>1970-01-01T01:00:00Z</time>
      </trkpt>
      <trkpt lat="61.107955" lon="13.836576">
        <ele>423.909</ele>
        <time>1970-01-01T01:00:00Z</time>
      </trkpt>
      <trkpt lat="61.108028" lon="13.836738">
        <ele>423.636</ele>
        <time>1970-01-01T01:00:00Z</time>
      </trkpt>
      <trkpt lat="61.108215" lon="13.837182">
        <ele>423.364</ele>
        <time>1970-01-01T01:00:00Z</time>
      </trkpt>
      <trkpt lat="61.108291" lon="13.837362">
        <ele>423.091</ele>
        <time>1970-01-01T01:00:00Z</time>
      </trkpt>
      <trkpt lat="61.108497" lon="13.837923">
        <ele>422.818</ele>
        <time>1970-01-01T01:00:00Z</time>
      </trkpt>
      <trkpt lat="61.108543" lon="13.838042">
        <ele>422.636</ele>
        <time>1970-01-01T01:00:00Z</time>
      </trkpt>
      <trkpt lat="61.108596" lon="13.838124">
        <ele>422.455</ele>
        <time>1970-01-01T01:00:00Z</time>
      </trkpt>
      <trkpt lat="61.108627" lon="13.838151">
        <ele>422.273</ele>
        <time>1970-01-01T01:00:00Z</time>
      </trkpt>
      <trkpt lat="61.108661" lon="13.83818">
        <ele>422.182</ele>
        <time>1970-01-01T01:00:00Z</time>
      </trkpt>
      <trkpt lat="61.108715" lon="13.838254">
        <ele>422</ele>
        <time>1970-01-01T01:00:00Z</time>
      </trkpt>
      <trkpt lat="61.108745" lon="13.838288">
        <ele>421.818</ele>
        <time>1970-01-01T01:00:00Z</time>
      </trkpt>
      <trkpt lat="61.108871" lon="13.838472">
        <ele>421.727</ele>
        <time>1970-01-01T01:00:00Z</time>
      </trkpt>
      <trkpt lat="61.108898" lon="13.838519">
        <ele>421.636</ele>
        <time>1970-01-01T01:00:00Z</time>
      </trkpt>
      <trkpt lat="61.109004" lon="13.838723">
        <ele>421.545</ele>
        <time>1970-01-01T01:00:00Z</time>
      </trkpt>
      <trkpt lat="61.109046" lon="13.838862">
        <ele>421.455</ele>
        <time>1970-01-01T01:00:00Z</time>
      </trkpt>
      <trkpt lat="61.109054" lon="13.838965">
        <ele>421.364</ele>
        <time>1970-01-01T01:00:00Z</time>
      </trkpt>
      <trkpt lat="61.109115" lon="13.839262">
        <ele>421.273</ele>
        <time>1970-01-01T01:00:00Z</time>
      </trkpt>
      <trkpt lat="61.109207" lon="13.839648">
        <ele>421.182</ele>
        <time>1970-01-01T01:00:00Z</time>
      </trkpt>
      <trkpt lat="61.10923" lon="13.839737">
        <ele>421.091</ele>
        <time>1970-01-01T01:00:00Z</time>
      </trkpt>
      <trkpt lat="61.109287" lon="13.840015">
        <ele>421</ele>
        <time>1970-01-01T01:00:00Z</time>
      </trkpt>
      <trkpt lat="61.109302" lon="13.840073">
        <ele>421</ele>
        <time>1970-01-01T01:00:00Z</time>
      </trkpt>
      <trkpt lat="61.109405" lon="13.840414">
        <ele>421</ele>
        <time>1970-01-01T01:00:00Z</time>
      </trkpt>
      <trkpt lat="61.109569" lon="13.840881">
        <ele>421</ele>
        <time>1970-01-01T01:00:00Z</time>
      </trkpt>
      <trkpt lat="61.109737" lon="13.841392">
        <ele>421</ele>
        <time>1970-01-01T01:00:00Z</time>
      </trkpt>
      <trkpt lat="61.109905" lon="13.841775">
        <ele>421</ele>
        <time>1970-01-01T01:00:00Z</time>
      </trkpt>
      <trkpt lat="61.109973" lon="13.841898">
        <ele>420.909</ele>
        <time>1970-01-01T01:00:00Z</time>
      </trkpt>
      <trkpt lat="61.110153" lon="13.842195">
        <ele>420.818</ele>
        <time>1970-01-01T01:00:00Z</time>
      </trkpt>
      <trkpt lat="61.110275" lon="13.842442">
        <ele>420.727</ele>
        <time>1970-01-01T01:00:00Z</time>
      </trkpt>
      <trkpt lat="61.110309" lon="13.842481">
        <ele>420.636</ele>
        <time>1970-01-01T01:00:00Z</time>
      </trkpt>
      <trkpt lat="61.110397" lon="13.842586">
        <ele>420.545</ele>
        <time>1970-01-01T01:00:00Z</time>
      </trkpt>
      <trkpt lat="61.11061" lon="13.84279">
        <ele>420.455</ele>
        <time>1970-01-01T01:00:00Z</time>
      </trkpt>
      <trkpt lat="61.110759" lon="13.842967">
        <ele>420.364</ele>
        <time>1970-01-01T01:00:00Z</time>
      </trkpt>
      <trkpt lat="61.110973" lon="13.843102">
        <ele>420.273</ele>
        <time>1970-01-01T01:00:00Z</time>
      </trkpt>
      <trkpt lat="61.111095" lon="13.843237">
        <ele>420.182</ele>
        <time>1970-01-01T01:00:00Z</time>
      </trkpt>
      <trkpt lat="61.11111" lon="13.843288">
        <ele>420.091</ele>
        <time>1970-01-01T01:00:00Z</time>
      </trkpt>
      <trkpt lat="61.111206" lon="13.843505">
        <ele>419.909</ele>
        <time>1970-01-01T01:00:00Z</time>
      </trkpt>
      <trkpt lat="61.111221" lon="13.843569">
        <ele>419.818</ele>
        <time>1970-01-01T01:00:00Z</time>
      </trkpt>
      <trkpt lat="61.111213" lon="13.843829">
        <ele>419.727</ele>
        <time>1970-01-01T01:00:00Z</time>
      </trkpt>
      <trkpt lat="61.111213" lon="13.844126">
        <ele>419.636</ele>
        <time>1970-01-01T01:00:00Z</time>
      </trkpt>
      <trkpt lat="61.111171" lon="13.844594">
        <ele>419.545</ele>
        <time>1970-01-01T01:00:00Z</time>
      </trkpt>
      <trkpt lat="61.111145" lon="13.844947">
        <ele>419.455</ele>
        <time>1970-01-01T01:00:00Z</time>
      </trkpt>
      <trkpt lat="61.111114" lon="13.845093">
        <ele>419.364</ele>
        <time>1970-01-01T01:00:00Z</time>
      </trkpt>
      <trkpt lat="61.111083" lon="13.845279">
        <ele>419.273</ele>
        <time>1970-01-01T01:00:00Z</time>
      </trkpt>
      <trkpt lat="61.111103" lon="13.845452">
        <ele>419.091</ele>
        <time>1970-01-01T01:00:00Z</time>
      </trkpt>
      <trkpt lat="61.111114" lon="13.845539">
        <ele>418.909</ele>
        <time>1970-01-01T01:00:00Z</time>
      </trkpt>
      <trkpt lat="61.111118" lon="13.845676">
        <ele>418.727</ele>
        <time>1970-01-01T01:00:00Z</time>
      </trkpt>
      <trkpt lat="61.111114" lon="13.845927">
        <ele>418.636</ele>
        <time>1970-01-01T01:00:00Z</time>
      </trkpt>
      <trkpt lat="61.111106" lon="13.84622">
        <ele>418.545</ele>
        <time>1970-01-01T01:00:00Z</time>
      </trkpt>
      <trkpt lat="61.111091" lon="13.846359">
        <ele>418.455</ele>
        <time>1970-01-01T01:00:00Z</time>
      </trkpt>
      <trkpt lat="61.11108" lon="13.846497">
        <ele>418.364</ele>
        <time>1970-01-01T01:00:00Z</time>
      </trkpt>
      <trkpt lat="61.111042" lon="13.84686">
        <ele>418.182</ele>
        <time>1970-01-01T01:00:00Z</time>
      </trkpt>
      <trkpt lat="61.111007" lon="13.847146">
        <ele>418</ele>
        <time>1970-01-01T01:00:00Z</time>
      </trkpt>
      <trkpt lat="61.111015" lon="13.84736">
        <ele>417.818</ele>
        <time>1970-01-01T01:00:00Z</time>
      </trkpt>
      <trkpt lat="61.111076" lon="13.847614">
        <ele>417.636</ele>
        <time>1970-01-01T01:00:00Z</time>
      </trkpt>
      <trkpt lat="61.111137" lon="13.847806">
        <ele>417.364</ele>
        <time>1970-01-01T01:00:00Z</time>
      </trkpt>
      <trkpt lat="61.11119" lon="13.848038">
        <ele>417.091</ele>
        <time>1970-01-01T01:00:00Z</time>
      </trkpt>
      <trkpt lat="61.111202" lon="13.848096">
        <ele>416.727</ele>
        <time>1970-01-01T01:00:00Z</time>
      </trkpt>
      <trkpt lat="61.111198" lon="13.848351">
        <ele>416.364</ele>
        <time>1970-01-01T01:00:00Z</time>
      </trkpt>
      <trkpt lat="61.11124" lon="13.848672">
        <ele>416</ele>
        <time>1970-01-01T01:00:00Z</time>
      </trkpt>
      <trkpt lat="61.111282" lon="13.849005">
        <ele>415.636</ele>
        <time>1970-01-01T01:00:00Z</time>
      </trkpt>
      <trkpt lat="61.111362" lon="13.849407">
        <ele>415.273</ele>
        <time>1970-01-01T01:00:00Z</time>
      </trkpt>
      <trkpt lat="61.111427" lon="13.849628">
        <ele>415</ele>
        <time>1970-01-01T01:00:00Z</time>
      </trkpt>
      <trkpt lat="61.111511" lon="13.849868">
        <ele>414.727</ele>
        <time>1970-01-01T01:00:00Z</time>
      </trkpt>
      <trkpt lat="61.11156" lon="13.850057">
        <ele>414.455</ele>
        <time>1970-01-01T01:00:00Z</time>
      </trkpt>
      <trkpt lat="61.111629" lon="13.850314">
        <ele>414.182</ele>
        <time>1970-01-01T01:00:00Z</time>
      </trkpt>
      <trkpt lat="61.111717" lon="13.850507">
        <ele>413.727</ele>
        <time>1970-01-01T01:00:00Z</time>
      </trkpt>
      <trkpt lat="61.111808" lon="13.850687">
        <ele>413.273</ele>
        <time>1970-01-01T01:00:00Z</time>
      </trkpt>
      <trkpt lat="61.111904" lon="13.850951">
        <ele>412.909</ele>
        <time>1970-01-01T01:00:00Z</time>
      </trkpt>
      <trkpt lat="61.111988" lon="13.851083">
        <ele>412.545</ele>
        <time>1970-01-01T01:00:00Z</time>
      </trkpt>
      <trkpt lat="61.112091" lon="13.851235">
        <ele>412.182</ele>
        <time>1970-01-01T01:00:00Z</time>
      </trkpt>
      <trkpt lat="61.112171" lon="13.851287">
        <ele>411.818</ele>
        <time>1970-01-01T01:00:00Z</time>
      </trkpt>
      <trkpt lat="61.112354" lon="13.8514">
        <ele>411.455</ele>
        <time>1970-01-01T01:00:00Z</time>
      </trkpt>
      <trkpt lat="61.112487" lon="13.8515">
        <ele>410.545</ele>
        <time>1970-01-01T01:00:00Z</time>
      </trkpt>
      <trkpt lat="61.112628" lon="13.851651">
        <ele>409.636</ele>
        <time>1970-01-01T01:00:00Z</time>
      </trkpt>
      <trkpt lat="61.112674" lon="13.851732">
        <ele>408.727</ele>
        <time>1970-01-01T01:00:00Z</time>
      </trkpt>
      <trkpt lat="61.112888" lon="13.852362">
        <ele>407.636</ele>
        <time>1970-01-01T01:00:00Z</time>
      </trkpt>
      <trkpt lat="61.112945" lon="13.852677">
        <ele>406.909</ele>
        <time>1970-01-01T01:00:00Z</time>
      </trkpt>
      <trkpt lat="61.113109" lon="13.853345">
        <ele>406.182</ele>
        <time>1970-01-01T01:00:00Z</time>
      </trkpt>
      <trkpt lat="61.113155" lon="13.853485">
        <ele>405.455</ele>
        <time>1970-01-01T01:00:00Z</time>
      </trkpt>
      <trkpt lat="61.113254" lon="13.853858">
        <ele>404.727</ele>
        <time>1970-01-01T01:00:00Z</time>
      </trkpt>
      <trkpt lat="61.113338" lon="13.854133">
        <ele>404</ele>
        <time>1970-01-01T01:00:00Z</time>
      </trkpt>
      <trkpt lat="61.113391" lon="13.854339">
        <ele>403.455</ele>
        <time>1970-01-01T01:00:00Z</time>
      </trkpt>
      <trkpt lat="61.113475" lon="13.854644">
        <ele>402.909</ele>
        <time>1970-01-01T01:00:00Z</time>
      </trkpt>
      <trkpt lat="61.113544" lon="13.854825">
        <ele>402.364</ele>
        <time>1970-01-01T01:00:00Z</time>
      </trkpt>
      <trkpt lat="61.113597" lon="13.855091">
        <ele>401.818</ele>
        <time>1970-01-01T01:00:00Z</time>
      </trkpt>
      <trkpt lat="61.113651" lon="13.855384">
        <ele>401.364</ele>
        <time>1970-01-01T01:00:00Z</time>
      </trkpt>
      <trkpt lat="61.113719" lon="13.855707">
        <ele>401.091</ele>
        <time>1970-01-01T01:00:00Z</time>
      </trkpt>
      <trkpt lat="61.1138" lon="13.856004">
        <ele>400.818</ele>
        <time>1970-01-01T01:00:00Z</time>
      </trkpt>
      <trkpt lat="61.113822" lon="13.856086">
        <ele>400.636</ele>
        <time>1970-01-01T01:00:00Z</time>
      </trkpt>
      <trkpt lat="61.113891" lon="13.856313">
        <ele>400.455</ele>
        <time>1970-01-01T01:00:00Z</time>
      </trkpt>
      <trkpt lat="61.113964" lon="13.856514">
        <ele>400.273</ele>
        <time>1970-01-01T01:00:00Z</time>
      </trkpt>
      <trkpt lat="61.114074" lon="13.85672">
        <ele>399.909</ele>
        <time>1970-01-01T01:00:00Z</time>
      </trkpt>
      <trkpt lat="61.114234" lon="13.857046">
        <ele>399.364</ele>
        <time>1970-01-01T01:00:00Z</time>
      </trkpt>
      <trkpt lat="61.114326" lon="13.857209">
        <ele>398.818</ele>
        <time>1970-01-01T01:00:00Z</time>
      </trkpt>
      <trkpt lat="61.114444" lon="13.857429">
        <ele>398.818</ele>
        <time>1970-01-01T01:00:00Z</time>
      </trkpt>
      <trkpt lat="61.114547" lon="13.857599">
        <ele>398.818</ele>
        <time>1970-01-01T01:00:00Z</time>
      </trkpt>
      <trkpt lat="61.114646" lon="13.857876">
        <ele>398.727</ele>
        <time>1970-01-01T01:00:00Z</time>
      </trkpt>
      <trkpt lat="61.114734" lon="13.858268">
        <ele>398.636</ele>
        <time>1970-01-01T01:00:00Z</time>
      </trkpt>
      <trkpt lat="61.114753" lon="13.858389">
        <ele>398.545</ele>
        <time>1970-01-01T01:00:00Z</time>
      </trkpt>
      <trkpt lat="61.114795" lon="13.858623">
        <ele>398.455</ele>
        <time>1970-01-01T01:00:00Z</time>
      </trkpt>
      <trkpt lat="61.114845" lon="13.858914">
        <ele>398.364</ele>
        <time>1970-01-01T01:00:00Z</time>
      </trkpt>
      <trkpt lat="61.114883" lon="13.859069">
        <ele>398.273</ele>
        <time>1970-01-01T01:00:00Z</time>
      </trkpt>
      <trkpt lat="61.115005" lon="13.859353">
        <ele>398.455</ele>
        <time>1970-01-01T01:00:00Z</time>
      </trkpt>
      <trkpt lat="61.115089" lon="13.859591">
        <ele>398.545</ele>
        <time>1970-01-01T01:00:00Z</time>
      </trkpt>
      <trkpt lat="61.11515" lon="13.859791">
        <ele>398.636</ele>
        <time>1970-01-01T01:00:00Z</time>
      </trkpt>
      <trkpt lat="61.115249" lon="13.860011">
        <ele>398.727</ele>
        <time>1970-01-01T01:00:00Z</time>
      </trkpt>
      <trkpt lat="61.115318" lon="13.860199">
        <ele>398.909</ele>
        <time>1970-01-01T01:00:00Z</time>
      </trkpt>
      <trkpt lat="61.115402" lon="13.860465">
        <ele>399.091</ele>
        <time>1970-01-01T01:00:00Z</time>
      </trkpt>
      <trkpt lat="61.115482" lon="13.860751">
        <ele>399.273</ele>
        <time>1970-01-01T01:00:00Z</time>
      </trkpt>
      <trkpt lat="61.115554" lon="13.860929">
        <ele>399.455</ele>
        <time>1970-01-01T01:00:00Z</time>
      </trkpt>
      <trkpt lat="61.115634" lon="13.861154">
        <ele>399.545</ele>
        <time>1970-01-01T01:00:00Z</time>
      </trkpt>
      <trkpt lat="61.115734" lon="13.861369">
        <ele>399.636</ele>
        <time>1970-01-01T01:00:00Z</time>
      </trkpt>
      <trkpt lat="61.115818" lon="13.861598">
        <ele>399.727</ele>
        <time>1970-01-01T01:00:00Z</time>
      </trkpt>
      <trkpt lat="61.115928" lon="13.861873">
        <ele>399.727</ele>
        <time>1970-01-01T01:00:00Z</time>
      </trkpt>
      <trkpt lat="61.116016" lon="13.862127">
        <ele>399.818</ele>
        <time>1970-01-01T01:00:00Z</time>
      </trkpt>
      <trkpt lat="61.11613" lon="13.862454">
        <ele>399.909</ele>
        <time>1970-01-01T01:00:00Z</time>
      </trkpt>
      <trkpt lat="61.11634" lon="13.862977">
        <ele>400</ele>
        <time>1970-01-01T01:00:00Z</time>
      </trkpt>
      <trkpt lat="61.116378" lon="13.863134">
        <ele>400</ele>
        <time>1970-01-01T01:00:00Z</time>
      </trkpt>
      <trkpt lat="61.116447" lon="13.863528">
        <ele>400</ele>
        <time>1970-01-01T01:00:00Z</time>
      </trkpt>
      <trkpt lat="61.116527" lon="13.863922">
        <ele>400</ele>
        <time>1970-01-01T01:00:00Z</time>
      </trkpt>
      <trkpt lat="61.116565" lon="13.864194">
        <ele>400</ele>
        <time>1970-01-01T01:00:00Z</time>
      </trkpt>
      <trkpt lat="61.116592" lon="13.86446">
        <ele>400.091</ele>
        <time>1970-01-01T01:00:00Z</time>
      </trkpt>
      <trkpt lat="61.116622" lon="13.864807">
        <ele>400.182</ele>
        <time>1970-01-01T01:00:00Z</time>
      </trkpt>
      <trkpt lat="61.116645" lon="13.864999">
        <ele>400.364</ele>
        <time>1970-01-01T01:00:00Z</time>
      </trkpt>
      <trkpt lat="61.116699" lon="13.865365">
        <ele>400.545</ele>
        <time>1970-01-01T01:00:00Z</time>
      </trkpt>
      <trkpt lat="61.116733" lon="13.865509">
        <ele>400.727</ele>
        <time>1970-01-01T01:00:00Z</time>
      </trkpt>
      <trkpt lat="61.116798" lon="13.865761">
        <ele>400.909</ele>
        <time>1970-01-01T01:00:00Z</time>
      </trkpt>
      <trkpt lat="61.116863" lon="13.866081">
        <ele>400.818</ele>
        <time>1970-01-01T01:00:00Z</time>
      </trkpt>
      <trkpt lat="61.116916" lon="13.866457">
        <ele>400.727</ele>
        <time>1970-01-01T01:00:00Z</time>
      </trkpt>
      <trkpt lat="61.116985" lon="13.866748">
        <ele>400.636</ele>
        <time>1970-01-01T01:00:00Z</time>
      </trkpt>
      <trkpt lat="61.117053" lon="13.867028">
        <ele>400.545</ele>
        <time>1970-01-01T01:00:00Z</time>
      </trkpt>
      <trkpt lat="61.117069" lon="13.8671">
        <ele>400.455</ele>
        <time>1970-01-01T01:00:00Z</time>
      </trkpt>
      <trkpt lat="61.117107" lon="13.867316">
        <ele>400.545</ele>
        <time>1970-01-01T01:00:00Z</time>
      </trkpt>
      <trkpt lat="61.117126" lon="13.867478">
        <ele>400.636</ele>
        <time>1970-01-01T01:00:00Z</time>
      </trkpt>
      <trkpt lat="61.11713" lon="13.867553">
        <ele>400.545</ele>
        <time>1970-01-01T01:00:00Z</time>
      </trkpt>
      <trkpt lat="61.11713" lon="13.867632">
        <ele>400.455</ele>
        <time>1970-01-01T01:00:00Z</time>
      </trkpt>
      <trkpt lat="61.117111" lon="13.868021">
        <ele>400.364</ele>
        <time>1970-01-01T01:00:00Z</time>
      </trkpt>
      <trkpt lat="61.117088" lon="13.868326">
        <ele>400.273</ele>
        <time>1970-01-01T01:00:00Z</time>
      </trkpt>
      <trkpt lat="61.117069" lon="13.868623">
        <ele>400.364</ele>
        <time>1970-01-01T01:00:00Z</time>
      </trkpt>
      <trkpt lat="61.117023" lon="13.868875">
        <ele>400.455</ele>
        <time>1970-01-01T01:00:00Z</time>
      </trkpt>
      <trkpt lat="61.116977" lon="13.869094">
        <ele>400.545</ele>
        <time>1970-01-01T01:00:00Z</time>
      </trkpt>
      <trkpt lat="61.116954" lon="13.869256">
        <ele>400.636</ele>
        <time>1970-01-01T01:00:00Z</time>
      </trkpt>
      <trkpt lat="61.116905" lon="13.869431">
        <ele>400.727</ele>
        <time>1970-01-01T01:00:00Z</time>
      </trkpt>
      <trkpt lat="61.116828" lon="13.869659">
        <ele>400.545</ele>
        <time>1970-01-01T01:00:00Z</time>
      </trkpt>
      <trkpt lat="61.116771" lon="13.869801">
        <ele>400.364</ele>
        <time>1970-01-01T01:00:00Z</time>
      </trkpt>
      <trkpt lat="61.116645" lon="13.870102">
        <ele>400.273</ele>
        <time>1970-01-01T01:00:00Z</time>
      </trkpt>
      <trkpt lat="61.116596" lon="13.870172">
        <ele>400.182</ele>
        <time>1970-01-01T01:00:00Z</time>
      </trkpt>
      <trkpt lat="61.116523" lon="13.870347">
        <ele>400.091</ele>
        <time>1970-01-01T01:00:00Z</time>
      </trkpt>
      <trkpt lat="61.116374" lon="13.870719">
        <ele>399.909</ele>
        <time>1970-01-01T01:00:00Z</time>
      </trkpt>
      <trkpt lat="61.116352" lon="13.870775">
        <ele>399.818</ele>
        <time>1970-01-01T01:00:00Z</time>
      </trkpt>
      <trkpt lat="61.116279" lon="13.870944">
        <ele>399.727</ele>
        <time>1970-01-01T01:00:00Z</time>
      </trkpt>
      <trkpt lat="61.116222" lon="13.871174">
        <ele>399.636</ele>
        <time>1970-01-01T01:00:00Z</time>
      </trkpt>
      <trkpt lat="61.116222" lon="13.87124">
        <ele>399.545</ele>
        <time>1970-01-01T01:00:00Z</time>
      </trkpt>
      <trkpt lat="61.116195" lon="13.871509">
        <ele>399.455</ele>
        <time>1970-01-01T01:00:00Z</time>
      </trkpt>
      <trkpt lat="61.116134" lon="13.871795">
        <ele>399.364</ele>
        <time>1970-01-01T01:00:00Z</time>
      </trkpt>
      <trkpt lat="61.116062" lon="13.871949">
        <ele>399.273</ele>
        <time>1970-01-01T01:00:00Z</time>
      </trkpt>
      <trkpt lat="61.115951" lon="13.872111">
        <ele>399.182</ele>
        <time>1970-01-01T01:00:00Z</time>
      </trkpt>
      <trkpt lat="61.115894" lon="13.872177">
        <ele>399.091</ele>
        <time>1970-01-01T01:00:00Z</time>
      </trkpt>
      <trkpt lat="61.115879" lon="13.872195">
        <ele>399</ele>
        <time>1970-01-01T01:00:00Z</time>
      </trkpt>
      <trkpt lat="61.115837" lon="13.872277">
        <ele>399</ele>
        <time>1970-01-01T01:00:00Z</time>
      </trkpt>
      <trkpt lat="61.115779" lon="13.87233">
        <ele>398.909</ele>
        <time>1970-01-01T01:00:00Z</time>
      </trkpt>
      <trkpt lat="61.11573" lon="13.872356">
        <ele>398.818</ele>
        <time>1970-01-01T01:00:00Z</time>
      </trkpt>
      <trkpt lat="61.11568" lon="13.872426">
        <ele>398.727</ele>
        <time>1970-01-01T01:00:00Z</time>
      </trkpt>
      <trkpt lat="61.115623" lon="13.872496">
        <ele>398.636</ele>
        <time>1970-01-01T01:00:00Z</time>
      </trkpt>
      <trkpt lat="61.115566" lon="13.872567">
        <ele>398.636</ele>
        <time>1970-01-01T01:00:00Z</time>
      </trkpt>
      <trkpt lat="61.115402" lon="13.872774">
        <ele>398.636</ele>
        <time>1970-01-01T01:00:00Z</time>
      </trkpt>
      <trkpt lat="61.115253" lon="13.872879">
        <ele>398.636</ele>
        <time>1970-01-01T01:00:00Z</time>
      </trkpt>
      <trkpt lat="61.114955" lon="13.872976">
        <ele>398.636</ele>
        <time>1970-01-01T01:00:00Z</time>
      </trkpt>
      <trkpt lat="61.114768" lon="13.872994">
        <ele>398.636</ele>
        <time>1970-01-01T01:00:00Z</time>
      </trkpt>
      <trkpt lat="61.114559" lon="13.873075">
        <ele>398.545</ele>
        <time>1970-01-01T01:00:00Z</time>
      </trkpt>
      <trkpt lat="61.114479" lon="13.873184">
        <ele>398.455</ele>
        <time>1970-01-01T01:00:00Z</time>
      </trkpt>
      <trkpt lat="61.114376" lon="13.873373">
        <ele>398.455</ele>
        <time>1970-01-01T01:00:00Z</time>
      </trkpt>
      <trkpt lat="61.114356" lon="13.873454">
        <ele>398.455</ele>
        <time>1970-01-01T01:00:00Z</time>
      </trkpt>
      <trkpt lat="61.114315" lon="13.873627">
        <ele>398.455</ele>
        <time>1970-01-01T01:00:00Z</time>
      </trkpt>
      <trkpt lat="61.114238" lon="13.873909">
        <ele>398.455</ele>
        <time>1970-01-01T01:00:00Z</time>
      </trkpt>
      <trkpt lat="61.114204" lon="13.874073">
        <ele>398.455</ele>
        <time>1970-01-01T01:00:00Z</time>
      </trkpt>
      <trkpt lat="61.114105" lon="13.874276">
        <ele>398.455</ele>
        <time>1970-01-01T01:00:00Z</time>
      </trkpt>
      <trkpt lat="61.114017" lon="13.874393">
        <ele>398.455</ele>
        <time>1970-01-01T01:00:00Z</time>
      </trkpt>
      <trkpt lat="61.113922" lon="13.874525">
        <ele>398.455</ele>
        <time>1970-01-01T01:00:00Z</time>
      </trkpt>
      <trkpt lat="61.113842" lon="13.874662">
        <ele>398.455</ele>
        <time>1970-01-01T01:00:00Z</time>
      </trkpt>
      <trkpt lat="61.113723" lon="13.874848">
        <ele>398.545</ele>
        <time>1970-01-01T01:00:00Z</time>
      </trkpt>
      <trkpt lat="61.113616" lon="13.87509">
        <ele>398.636</ele>
        <time>1970-01-01T01:00:00Z</time>
      </trkpt>
      <trkpt lat="61.113521" lon="13.875311">
        <ele>398.636</ele>
        <time>1970-01-01T01:00:00Z</time>
      </trkpt>
      <trkpt lat="61.113479" lon="13.875549">
        <ele>398.636</ele>
        <time>1970-01-01T01:00:00Z</time>
      </trkpt>
      <trkpt lat="61.11346" lon="13.87588">
        <ele>398.636</ele>
        <time>1970-01-01T01:00:00Z</time>
      </trkpt>
      <trkpt lat="61.113433" lon="13.876159">
        <ele>398.545</ele>
        <time>1970-01-01T01:00:00Z</time>
      </trkpt>
      <trkpt lat="61.113418" lon="13.876319">
        <ele>398.364</ele>
        <time>1970-01-01T01:00:00Z</time>
      </trkpt>
      <trkpt lat="61.113414" lon="13.876553">
        <ele>398.182</ele>
        <time>1970-01-01T01:00:00Z</time>
      </trkpt>
      <trkpt lat="61.113418" lon="13.876766">
        <ele>398.091</ele>
        <time>1970-01-01T01:00:00Z</time>
      </trkpt>
      <trkpt lat="61.11346" lon="13.877061">
        <ele>398</ele>
        <time>1970-01-01T01:00:00Z</time>
      </trkpt>
      <trkpt lat="61.113487" lon="13.877304">
        <ele>397.909</ele>
        <time>1970-01-01T01:00:00Z</time>
      </trkpt>
      <trkpt lat="61.113525" lon="13.877511">
        <ele>397.818</ele>
        <time>1970-01-01T01:00:00Z</time>
      </trkpt>
      <trkpt lat="61.113536" lon="13.877589">
        <ele>397.727</ele>
        <time>1970-01-01T01:00:00Z</time>
      </trkpt>
      <trkpt lat="61.113586" lon="13.877992">
        <ele>397.727</ele>
        <time>1970-01-01T01:00:00Z</time>
      </trkpt>
      <trkpt lat="61.113594" lon="13.878283">
        <ele>397.727</ele>
        <time>1970-01-01T01:00:00Z</time>
      </trkpt>
      <trkpt lat="61.113594" lon="13.878342">
        <ele>397.727</ele>
        <time>1970-01-01T01:00:00Z</time>
      </trkpt>
      <trkpt lat="61.11362" lon="13.87863">
        <ele>397.818</ele>
        <time>1970-01-01T01:00:00Z</time>
      </trkpt>
      <trkpt lat="61.113643" lon="13.87885">
        <ele>397.909</ele>
        <time>1970-01-01T01:00:00Z</time>
      </trkpt>
      <trkpt lat="61.113655" lon="13.879169">
        <ele>398</ele>
        <time>1970-01-01T01:00:00Z</time>
      </trkpt>
      <trkpt lat="61.113651" lon="13.879294">
        <ele>398</ele>
        <time>1970-01-01T01:00:00Z</time>
      </trkpt>
      <trkpt lat="61.113681" lon="13.879541">
        <ele>398.091</ele>
        <time>1970-01-01T01:00:00Z</time>
      </trkpt>
      <trkpt lat="61.113697" lon="13.879691">
        <ele>398.182</ele>
        <time>1970-01-01T01:00:00Z</time>
      </trkpt>
      <trkpt lat="61.113731" lon="13.879967">
        <ele>398.182</ele>
        <time>1970-01-01T01:00:00Z</time>
      </trkpt>
      <trkpt lat="61.113742" lon="13.880032">
        <ele>398.182</ele>
        <time>1970-01-01T01:00:00Z</time>
      </trkpt>
      <trkpt lat="61.113765" lon="13.88035">
        <ele>398.273</ele>
        <time>1970-01-01T01:00:00Z</time>
      </trkpt>
      <trkpt lat="61.113769" lon="13.880549">
        <ele>398.364</ele>
        <time>1970-01-01T01:00:00Z</time>
      </trkpt>
      <trkpt lat="61.113784" lon="13.88067">
        <ele>398.455</ele>
        <time>1970-01-01T01:00:00Z</time>
      </trkpt>
      <trkpt lat="61.113895" lon="13.880965">
        <ele>398.545</ele>
        <time>1970-01-01T01:00:00Z</time>
      </trkpt>
      <trkpt lat="61.114013" lon="13.881191">
        <ele>398.636</ele>
        <time>1970-01-01T01:00:00Z</time>
      </trkpt>
      <trkpt lat="61.114105" lon="13.881309">
        <ele>398.727</ele>
        <time>1970-01-01T01:00:00Z</time>
      </trkpt>
      <trkpt lat="61.114212" lon="13.881481">
        <ele>398.818</ele>
        <time>1970-01-01T01:00:00Z</time>
      </trkpt>
      <trkpt lat="61.114284" lon="13.881657">
        <ele>398.818</ele>
        <time>1970-01-01T01:00:00Z</time>
      </trkpt>
      <trkpt lat="61.114337" lon="13.881862">
        <ele>398.818</ele>
        <time>1970-01-01T01:00:00Z</time>
      </trkpt>
      <trkpt lat="61.114341" lon="13.881956">
        <ele>399</ele>
        <time>1970-01-01T01:00:00Z</time>
      </trkpt>
      <trkpt lat="61.114341" lon="13.882144">
        <ele>399.182</ele>
        <time>1970-01-01T01:00:00Z</time>
      </trkpt>
      <trkpt lat="61.11436" lon="13.882347">
        <ele>399.273</ele>
        <time>1970-01-01T01:00:00Z</time>
      </trkpt>
      <trkpt lat="61.114379" lon="13.882569">
        <ele>399.364</ele>
        <time>1970-01-01T01:00:00Z</time>
      </trkpt>
      <trkpt lat="61.114402" lon="13.8829">
        <ele>399.455</ele>
        <time>1970-01-01T01:00:00Z</time>
      </trkpt>
      <trkpt lat="61.114398" lon="13.883085">
        <ele>399.545</ele>
        <time>1970-01-01T01:00:00Z</time>
      </trkpt>
      <trkpt lat="61.114471" lon="13.88336">
        <ele>399.636</ele>
        <time>1970-01-01T01:00:00Z</time>
      </trkpt>
      <trkpt lat="61.114532" lon="13.88362">
        <ele>399.727</ele>
        <time>1970-01-01T01:00:00Z</time>
      </trkpt>
      <trkpt lat="61.11454" lon="13.883673">
        <ele>399.818</ele>
        <time>1970-01-01T01:00:00Z</time>
      </trkpt>
      <trkpt lat="61.114585" lon="13.883809">
        <ele>399.909</ele>
        <time>1970-01-01T01:00:00Z</time>
      </trkpt>
      <trkpt lat="61.114662" lon="13.884069">
        <ele>400</ele>
        <time>1970-01-01T01:00:00Z</time>
      </trkpt>
      <trkpt lat="61.1147" lon="13.884266">
        <ele>400</ele>
        <time>1970-01-01T01:00:00Z</time>
      </trkpt>
      <trkpt lat="61.114788" lon="13.884624">
        <ele>400</ele>
        <time>1970-01-01T01:00:00Z</time>
      </trkpt>
      <trkpt lat="61.114852" lon="13.884864">
        <ele>400</ele>
        <time>1970-01-01T01:00:00Z</time>
      </trkpt>
      <trkpt lat="61.114883" lon="13.884992">
        <ele>400</ele>
        <time>1970-01-01T01:00:00Z</time>
      </trkpt>
      <trkpt lat="61.11491" lon="13.885089">
        <ele>400</ele>
        <time>1970-01-01T01:00:00Z</time>
      </trkpt>
      <trkpt lat="61.114978" lon="13.885349">
        <ele>400</ele>
        <time>1970-01-01T01:00:00Z</time>
      </trkpt>
      <trkpt lat="61.114994" lon="13.885418">
        <ele>399.909</ele>
        <time>1970-01-01T01:00:00Z</time>
      </trkpt>
      <trkpt lat="61.115005" lon="13.885489">
        <ele>399.818</ele>
        <time>1970-01-01T01:00:00Z</time>
      </trkpt>
      <trkpt lat="61.115081" lon="13.885746">
        <ele>399.727</ele>
        <time>1970-01-01T01:00:00Z</time>
      </trkpt>
      <trkpt lat="61.115242" lon="13.886013">
        <ele>399.636</ele>
        <time>1970-01-01T01:00:00Z</time>
      </trkpt>
      <trkpt lat="61.115322" lon="13.88616">
        <ele>399.455</ele>
        <time>1970-01-01T01:00:00Z</time>
      </trkpt>
      <trkpt lat="61.115394" lon="13.886358">
        <ele>399.273</ele>
        <time>1970-01-01T01:00:00Z</time>
      </trkpt>
      <trkpt lat="61.11544" lon="13.886569">
        <ele>399.182</ele>
        <time>1970-01-01T01:00:00Z</time>
      </trkpt>
      <trkpt lat="61.115478" lon="13.886818">
        <ele>399.091</ele>
        <time>1970-01-01T01:00:00Z</time>
      </trkpt>
      <trkpt lat="61.115497" lon="13.887108">
        <ele>398.909</ele>
        <time>1970-01-01T01:00:00Z</time>
      </trkpt>
      <trkpt lat="61.115493" lon="13.887179">
        <ele>398.727</ele>
        <time>1970-01-01T01:00:00Z</time>
      </trkpt>
      <trkpt lat="61.115463" lon="13.887314">
        <ele>398.545</ele>
        <time>1970-01-01T01:00:00Z</time>
      </trkpt>
      <trkpt lat="61.115406" lon="13.887578">
        <ele>398.455</ele>
        <time>1970-01-01T01:00:00Z</time>
      </trkpt>
      <trkpt lat="61.115417" lon="13.887816">
        <ele>398.364</ele>
        <time>1970-01-01T01:00:00Z</time>
      </trkpt>
      <trkpt lat="61.115489" lon="13.88812">
        <ele>398.273</ele>
        <time>1970-01-01T01:00:00Z</time>
      </trkpt>
      <trkpt lat="61.115554" lon="13.888427">
        <ele>398.182</ele>
        <time>1970-01-01T01:00:00Z</time>
      </trkpt>
      <trkpt lat="61.115623" lon="13.889012">
        <ele>398.182</ele>
        <time>1970-01-01T01:00:00Z</time>
      </trkpt>
      <trkpt lat="61.115692" lon="13.889293">
        <ele>398.182</ele>
        <time>1970-01-01T01:00:00Z</time>
      </trkpt>
      <trkpt lat="61.115821" lon="13.889544">
        <ele>398.091</ele>
        <time>1970-01-01T01:00:00Z</time>
      </trkpt>
      <trkpt lat="61.115837" lon="13.889588">
        <ele>398</ele>
        <time>1970-01-01T01:00:00Z</time>
      </trkpt>
      <trkpt lat="61.115882" lon="13.889666">
        <ele>398</ele>
        <time>1970-01-01T01:00:00Z</time>
      </trkpt>
      <trkpt lat="61.115959" lon="13.889895">
        <ele>398</ele>
        <time>1970-01-01T01:00:00Z</time>
      </trkpt>
      <trkpt lat="61.115989" lon="13.89008">
        <ele>398</ele>
        <time>1970-01-01T01:00:00Z</time>
      </trkpt>
      <trkpt lat="61.116016" lon="13.890477">
        <ele>398</ele>
        <time>1970-01-01T01:00:00Z</time>
      </trkpt>
      <trkpt lat="61.116008" lon="13.89065">
        <ele>398</ele>
        <time>1970-01-01T01:00:00Z</time>
      </trkpt>
      <trkpt lat="61.115966" lon="13.890963">
        <ele>398</ele>
        <time>1970-01-01T01:00:00Z</time>
      </trkpt>
      <trkpt lat="61.115875" lon="13.891389">
        <ele>398</ele>
        <time>1970-01-01T01:00:00Z</time>
      </trkpt>
      <trkpt lat="61.115859" lon="13.891507">
        <ele>398</ele>
        <time>1970-01-01T01:00:00Z</time>
      </trkpt>
      <trkpt lat="61.115783" lon="13.891819">
        <ele>398</ele>
        <time>1970-01-01T01:00:00Z</time>
      </trkpt>
      <trkpt lat="61.115749" lon="13.891985">
        <ele>398</ele>
        <time>1970-01-01T01:00:00Z</time>
      </trkpt>
      <trkpt lat="61.115657" lon="13.892384">
        <ele>398</ele>
        <time>1970-01-01T01:00:00Z</time>
      </trkpt>
      <trkpt lat="61.115528" lon="13.892642">
        <ele>398</ele>
        <time>1970-01-01T01:00:00Z</time>
      </trkpt>
      <trkpt lat="61.115474" lon="13.892774">
        <ele>398</ele>
        <time>1970-01-01T01:00:00Z</time>
      </trkpt>
      <trkpt lat="61.115425" lon="13.893018">
        <ele>398</ele>
        <time>1970-01-01T01:00:00Z</time>
      </trkpt>
      <trkpt lat="61.115409" lon="13.893197">
        <ele>398</ele>
        <time>1970-01-01T01:00:00Z</time>
      </trkpt>
      <trkpt lat="61.11539" lon="13.893366">
        <ele>398</ele>
        <time>1970-01-01T01:00:00Z</time>
      </trkpt>
      <trkpt lat="61.115356" lon="13.893634">
        <ele>398</ele>
        <time>1970-01-01T01:00:00Z</time>
      </trkpt>
      <trkpt lat="61.115337" lon="13.893799">
        <ele>398</ele>
        <time>1970-01-01T01:00:00Z</time>
      </trkpt>
      <trkpt lat="61.115287" lon="13.894141">
        <ele>398</ele>
        <time>1970-01-01T01:00:00Z</time>
      </trkpt>
      <trkpt lat="61.115283" lon="13.894537">
        <ele>398</ele>
        <time>1970-01-01T01:00:00Z</time>
      </trkpt>
      <trkpt lat="61.115283" lon="13.894731">
        <ele>398</ele>
        <time>1970-01-01T01:00:00Z</time>
      </trkpt>
      <trkpt lat="61.115295" lon="13.894895">
        <ele>397.909</ele>
        <time>1970-01-01T01:00:00Z</time>
      </trkpt>
      <trkpt lat="61.115314" lon="13.895115">
        <ele>397.818</ele>
        <time>1970-01-01T01:00:00Z</time>
      </trkpt>
      <trkpt lat="61.115329" lon="13.895275">
        <ele>397.727</ele>
        <time>1970-01-01T01:00:00Z</time>
      </trkpt>
      <trkpt lat="61.115337" lon="13.895318">
        <ele>397.636</ele>
        <time>1970-01-01T01:00:00Z</time>
      </trkpt>
      <trkpt lat="61.115417" lon="13.895579">
        <ele>397.545</ele>
        <time>1970-01-01T01:00:00Z</time>
      </trkpt>
      <trkpt lat="61.115474" lon="13.895786">
        <ele>397.455</ele>
        <time>1970-01-01T01:00:00Z</time>
      </trkpt>
      <trkpt lat="61.11557" lon="13.896067">
        <ele>397.364</ele>
        <time>1970-01-01T01:00:00Z</time>
      </trkpt>
      <trkpt lat="61.115726" lon="13.896326">
        <ele>397.182</ele>
        <time>1970-01-01T01:00:00Z</time>
      </trkpt>
      <trkpt lat="61.11576" lon="13.896359">
        <ele>397</ele>
        <time>1970-01-01T01:00:00Z</time>
      </trkpt>
      <trkpt lat="61.115905" lon="13.89645">
        <ele>396.818</ele>
        <time>1970-01-01T01:00:00Z</time>
      </trkpt>
      <trkpt lat="61.11605" lon="13.896552">
        <ele>396.636</ele>
        <time>1970-01-01T01:00:00Z</time>
      </trkpt>
      <trkpt lat="61.116195" lon="13.896596">
        <ele>396.545</ele>
        <time>1970-01-01T01:00:00Z</time>
      </trkpt>
      <trkpt lat="61.116344" lon="13.896621">
        <ele>396.455</ele>
        <time>1970-01-01T01:00:00Z</time>
      </trkpt>
      <trkpt lat="61.116497" lon="13.896658">
        <ele>396.364</ele>
        <time>1970-01-01T01:00:00Z</time>
      </trkpt>
      <trkpt lat="61.116573" lon="13.896672">
        <ele>396.182</ele>
        <time>1970-01-01T01:00:00Z</time>
      </trkpt>
      <trkpt lat="61.116676" lon="13.896687">
        <ele>396</ele>
        <time>1970-01-01T01:00:00Z</time>
      </trkpt>
      <trkpt lat="61.116806" lon="13.896695">
        <ele>395.818</ele>
        <time>1970-01-01T01:00:00Z</time>
      </trkpt>
      <trkpt lat="61.116897" lon="13.896704">
        <ele>395.636</ele>
        <time>1970-01-01T01:00:00Z</time>
      </trkpt>
      <trkpt lat="61.117015" lon="13.896758">
        <ele>395.545</ele>
        <time>1970-01-01T01:00:00Z</time>
      </trkpt>
      <trkpt lat="61.117137" lon="13.896777">
        <ele>395.455</ele>
        <time>1970-01-01T01:00:00Z</time>
      </trkpt>
      <trkpt lat="61.117244" lon="13.896793">
        <ele>395.364</ele>
        <time>1970-01-01T01:00:00Z</time>
      </trkpt>
      <trkpt lat="61.117267" lon="13.896788">
        <ele>395.364</ele>
        <time>1970-01-01T01:00:00Z</time>
      </trkpt>
      <trkpt lat="61.117359" lon="13.896812">
        <ele>395.273</ele>
        <time>1970-01-01T01:00:00Z</time>
      </trkpt>
      <trkpt lat="61.117446" lon="13.896936">
        <ele>395.182</ele>
        <time>1970-01-01T01:00:00Z</time>
      </trkpt>
      <trkpt lat="61.117496" lon="13.896966">
        <ele>395.091</ele>
        <time>1970-01-01T01:00:00Z</time>
      </trkpt>
      <trkpt lat="61.117687" lon="13.897098">
        <ele>395.091</ele>
        <time>1970-01-01T01:00:00Z</time>
      </trkpt>
      <trkpt lat="61.117858" lon="13.897266">
        <ele>395.091</ele>
        <time>1970-01-01T01:00:00Z</time>
      </trkpt>
      <trkpt lat="61.117992" lon="13.897495">
        <ele>395.091</ele>
        <time>1970-01-01T01:00:00Z</time>
      </trkpt>
      <trkpt lat="61.118045" lon="13.897607">
        <ele>395.091</ele>
        <time>1970-01-01T01:00:00Z</time>
      </trkpt>
      <trkpt lat="61.118209" lon="13.89778">
        <ele>395.091</ele>
        <time>1970-01-01T01:00:00Z</time>
      </trkpt>
      <trkpt lat="61.118373" lon="13.897788">
        <ele>395.091</ele>
        <time>1970-01-01T01:00:00Z</time>
      </trkpt>
      <trkpt lat="61.118621" lon="13.897735">
        <ele>395.091</ele>
        <time>1970-01-01T01:00:00Z</time>
      </trkpt>
      <trkpt lat="61.118835" lon="13.897655">
        <ele>395</ele>
        <time>1970-01-01T01:00:00Z</time>
      </trkpt>
      <trkpt lat="61.118911" lon="13.897613">
        <ele>395</ele>
        <time>1970-01-01T01:00:00Z</time>
      </trkpt>
      <trkpt lat="61.119026" lon="13.897576">
        <ele>395</ele>
        <time>1970-01-01T01:00:00Z</time>
      </trkpt>
      <trkpt lat="61.119056" lon="13.897549">
        <ele>395</ele>
        <time>1970-01-01T01:00:00Z</time>
      </trkpt>
      <trkpt lat="61.119136" lon="13.897484">
        <ele>395</ele>
        <time>1970-01-01T01:00:00Z</time>
      </trkpt>
      <trkpt lat="61.119159" lon="13.897481">
        <ele>395</ele>
        <time>1970-01-01T01:00:00Z</time>
      </trkpt>
      <trkpt lat="61.119289" lon="13.897511">
        <ele>395</ele>
        <time>1970-01-01T01:00:00Z</time>
      </trkpt>
      <trkpt lat="61.119373" lon="13.897511">
        <ele>395</ele>
        <time>1970-01-01T01:00:00Z</time>
      </trkpt>
      <trkpt lat="61.119419" lon="13.897475">
        <ele>395</ele>
        <time>1970-01-01T01:00:00Z</time>
      </trkpt>
      <trkpt lat="61.119522" lon="13.897455">
        <ele>395</ele>
        <time>1970-01-01T01:00:00Z</time>
      </trkpt>
      <trkpt lat="61.119609" lon="13.897439">
        <ele>395</ele>
        <time>1970-01-01T01:00:00Z</time>
      </trkpt>
      <trkpt lat="61.119644" lon="13.897426">
        <ele>395</ele>
        <time>1970-01-01T01:00:00Z</time>
      </trkpt>
      <trkpt lat="61.119789" lon="13.897371">
        <ele>395</ele>
        <time>1970-01-01T01:00:00Z</time>
      </trkpt>
      <trkpt lat="61.119926" lon="13.897361">
        <ele>395</ele>
        <time>1970-01-01T01:00:00Z</time>
      </trkpt>
      <trkpt lat="61.12004" lon="13.897366">
        <ele>395</ele>
        <time>1970-01-01T01:00:00Z</time>
      </trkpt>
      <trkpt lat="61.120243" lon="13.897358">
        <ele>395</ele>
        <time>1970-01-01T01:00:00Z</time>
      </trkpt>
      <trkpt lat="61.120361" lon="13.897416">
        <ele>395</ele>
        <time>1970-01-01T01:00:00Z</time>
      </trkpt>
      <trkpt lat="61.120456" lon="13.897477">
        <ele>395</ele>
        <time>1970-01-01T01:00:00Z</time>
      </trkpt>
      <trkpt lat="61.120594" lon="13.897597">
        <ele>395</ele>
        <time>1970-01-01T01:00:00Z</time>
      </trkpt>
      <trkpt lat="61.120826" lon="13.897796">
        <ele>395</ele>
        <time>1970-01-01T01:00:00Z</time>
      </trkpt>
      <trkpt lat="61.120986" lon="13.897904">
        <ele>395</ele>
        <time>1970-01-01T01:00:00Z</time>
      </trkpt>
      <trkpt lat="61.12115" lon="13.898047">
        <ele>395</ele>
        <time>1970-01-01T01:00:00Z</time>
      </trkpt>
      <trkpt lat="61.12125" lon="13.898125">
        <ele>395</ele>
        <time>1970-01-01T01:00:00Z</time>
      </trkpt>
      <trkpt lat="61.12141" lon="13.898269">
        <ele>395</ele>
        <time>1970-01-01T01:00:00Z</time>
      </trkpt>
      <trkpt lat="61.121536" lon="13.898385">
        <ele>395</ele>
        <time>1970-01-01T01:00:00Z</time>
      </trkpt>
      <trkpt lat="61.121627" lon="13.898474">
        <ele>395</ele>
        <time>1970-01-01T01:00:00Z</time>
      </trkpt>
      <trkpt lat="61.121742" lon="13.898571">
        <ele>395</ele>
        <time>1970-01-01T01:00:00Z</time>
      </trkpt>
      <trkpt lat="61.121856" lon="13.898661">
        <ele>395</ele>
        <time>1970-01-01T01:00:00Z</time>
      </trkpt>
      <trkpt lat="61.121967" lon="13.898775">
        <ele>395</ele>
        <time>1970-01-01T01:00:00Z</time>
      </trkpt>
      <trkpt lat="61.122074" lon="13.898863">
        <ele>395</ele>
        <time>1970-01-01T01:00:00Z</time>
      </trkpt>
      <trkpt lat="61.122161" lon="13.898956">
        <ele>395</ele>
        <time>1970-01-01T01:00:00Z</time>
      </trkpt>
      <trkpt lat="61.122234" lon="13.899033">
        <ele>395</ele>
        <time>1970-01-01T01:00:00Z</time>
      </trkpt>
      <trkpt lat="61.122352" lon="13.89915">
        <ele>395</ele>
        <time>1970-01-01T01:00:00Z</time>
      </trkpt>
      <trkpt lat="61.122455" lon="13.899266">
        <ele>395</ele>
        <time>1970-01-01T01:00:00Z</time>
      </trkpt>
      <trkpt lat="61.122581" lon="13.899427">
        <ele>395.091</ele>
        <time>1970-01-01T01:00:00Z</time>
      </trkpt>
      <trkpt lat="61.122661" lon="13.899541">
        <ele>395.182</ele>
        <time>1970-01-01T01:00:00Z</time>
      </trkpt>
      <trkpt lat="61.122745" lon="13.899676">
        <ele>395.273</ele>
        <time>1970-01-01T01:00:00Z</time>
      </trkpt>
      <trkpt lat="61.122837" lon="13.899834">
        <ele>395.455</ele>
        <time>1970-01-01T01:00:00Z</time>
      </trkpt>
      <trkpt lat="61.122936" lon="13.899977">
        <ele>395.636</ele>
        <time>1970-01-01T01:00:00Z</time>
      </trkpt>
      <trkpt lat="61.123043" lon="13.900092">
        <ele>395.818</ele>
        <time>1970-01-01T01:00:00Z</time>
      </trkpt>
      <trkpt lat="61.123138" lon="13.900258">
        <ele>396</ele>
        <time>1970-01-01T01:00:00Z</time>
      </trkpt>
      <trkpt lat="61.123188" lon="13.900314">
        <ele>396.182</ele>
        <time>1970-01-01T01:00:00Z</time>
      </trkpt>
      <trkpt lat="61.123291" lon="13.900511">
        <ele>396.364</ele>
        <time>1970-01-01T01:00:00Z</time>
      </trkpt>
      <trkpt lat="61.123405" lon="13.900636">
        <ele>396.545</ele>
        <time>1970-01-01T01:00:00Z</time>
      </trkpt>
      <trkpt lat="61.123527" lon="13.900725">
        <ele>396.727</ele>
        <time>1970-01-01T01:00:00Z</time>
      </trkpt>
      <trkpt lat="61.12363" lon="13.900798">
        <ele>396.818</ele>
        <time>1970-01-01T01:00:00Z</time>
      </trkpt>
      <trkpt lat="61.12379" lon="13.900825">
        <ele>397</ele>
        <time>1970-01-01T01:00:00Z</time>
      </trkpt>
      <trkpt lat="61.123916" lon="13.900937">
        <ele>397.182</ele>
        <time>1970-01-01T01:00:00Z</time>
      </trkpt>
      <trkpt lat="61.124061" lon="13.901031">
        <ele>397.273</ele>
        <time>1970-01-01T01:00:00Z</time>
      </trkpt>
      <trkpt lat="61.124244" lon="13.901186">
        <ele>397.364</ele>
        <time>1970-01-01T01:00:00Z</time>
      </trkpt>
      <trkpt lat="61.124336" lon="13.901254">
        <ele>397.455</ele>
        <time>1970-01-01T01:00:00Z</time>
      </trkpt>
      <trkpt lat="61.124416" lon="13.901315">
        <ele>397.545</ele>
        <time>1970-01-01T01:00:00Z</time>
      </trkpt>
      <trkpt lat="61.124446" lon="13.901336">
        <ele>397.636</ele>
        <time>1970-01-01T01:00:00Z</time>
      </trkpt>
      <trkpt lat="61.124557" lon="13.901405">
        <ele>397.727</ele>
        <time>1970-01-01T01:00:00Z</time>
      </trkpt>
      <trkpt lat="61.124633" lon="13.901467">
        <ele>397.818</ele>
        <time>1970-01-01T01:00:00Z</time>
      </trkpt>
      <trkpt lat="61.124744" lon="13.901579">
        <ele>397.909</ele>
        <time>1970-01-01T01:00:00Z</time>
      </trkpt>
      <trkpt lat="61.12487" lon="13.901672">
        <ele>398.091</ele>
        <time>1970-01-01T01:00:00Z</time>
      </trkpt>
      <trkpt lat="61.124958" lon="13.901785">
        <ele>398.182</ele>
        <time>1970-01-01T01:00:00Z</time>
      </trkpt>
      <trkpt lat="61.125034" lon="13.901862">
        <ele>398.273</ele>
        <time>1970-01-01T01:00:00Z</time>
      </trkpt>
      <trkpt lat="61.125179" lon="13.90202">
        <ele>398.364</ele>
        <time>1970-01-01T01:00:00Z</time>
      </trkpt>
      <trkpt lat="61.125205" lon="13.902048">
        <ele>398.364</ele>
        <time>1970-01-01T01:00:00Z</time>
      </trkpt>
      <trkpt lat="61.125293" lon="13.902218">
        <ele>398.364</ele>
        <time>1970-01-01T01:00:00Z</time>
      </trkpt>
      <trkpt lat="61.125316" lon="13.902263">
        <ele>398.364</ele>
        <time>1970-01-01T01:00:00Z</time>
      </trkpt>
      <trkpt lat="61.12535" lon="13.90233">
        <ele>398.455</ele>
        <time>1970-01-01T01:00:00Z</time>
      </trkpt>
      <trkpt lat="61.125423" lon="13.902488">
        <ele>398.545</ele>
        <time>1970-01-01T01:00:00Z</time>
      </trkpt>
      <trkpt lat="61.125511" lon="13.902663">
        <ele>398.636</ele>
        <time>1970-01-01T01:00:00Z</time>
      </trkpt>
      <trkpt lat="61.125545" lon="13.902753">
        <ele>398.727</ele>
        <time>1970-01-01T01:00:00Z</time>
      </trkpt>
      <trkpt lat="61.125621" lon="13.902979">
        <ele>398.727</ele>
        <time>1970-01-01T01:00:00Z</time>
      </trkpt>
      <trkpt lat="61.125682" lon="13.903172">
        <ele>398.727</ele>
        <time>1970-01-01T01:00:00Z</time>
      </trkpt>
      <trkpt lat="61.125751" lon="13.903389">
        <ele>398.727</ele>
        <time>1970-01-01T01:00:00Z</time>
      </trkpt>
      <trkpt lat="61.125831" lon="13.903569">
        <ele>398.727</ele>
        <time>1970-01-01T01:00:00Z</time>
      </trkpt>
      <trkpt lat="61.125873" lon="13.903674">
        <ele>398.818</ele>
        <time>1970-01-01T01:00:00Z</time>
      </trkpt>
      <trkpt lat="61.125961" lon="13.903869">
        <ele>398.818</ele>
        <time>1970-01-01T01:00:00Z</time>
      </trkpt>
      <trkpt lat="61.126041" lon="13.904024">
        <ele>398.818</ele>
        <time>1970-01-01T01:00:00Z</time>
      </trkpt>
      <trkpt lat="61.12614" lon="13.904225">
        <ele>398.727</ele>
        <time>1970-01-01T01:00:00Z</time>
      </trkpt>
      <trkpt lat="61.126163" lon="13.904271">
        <ele>398.636</ele>
        <time>1970-01-01T01:00:00Z</time>
      </trkpt>
      <trkpt lat="61.126251" lon="13.904476">
        <ele>398.545</ele>
        <time>1970-01-01T01:00:00Z</time>
      </trkpt>
      <trkpt lat="61.126274" lon="13.904531">
        <ele>398.455</ele>
        <time>1970-01-01T01:00:00Z</time>
      </trkpt>
      <trkpt lat="61.126369" lon="13.904698">
        <ele>398.364</ele>
        <time>1970-01-01T01:00:00Z</time>
      </trkpt>
      <trkpt lat="61.126468" lon="13.904824">
        <ele>398.273</ele>
        <time>1970-01-01T01:00:00Z</time>
      </trkpt>
      <trkpt lat="61.126541" lon="13.904885">
        <ele>398.091</ele>
        <time>1970-01-01T01:00:00Z</time>
      </trkpt>
      <trkpt lat="61.126586" lon="13.904907">
        <ele>397.909</ele>
        <time>1970-01-01T01:00:00Z</time>
      </trkpt>
      <trkpt lat="61.126697" lon="13.904955">
        <ele>397.727</ele>
        <time>1970-01-01T01:00:00Z</time>
      </trkpt>
      <trkpt lat="61.126831" lon="13.905023">
        <ele>397.727</ele>
        <time>1970-01-01T01:00:00Z</time>
      </trkpt>
      <trkpt lat="61.127082" lon="13.90518">
        <ele>397.727</ele>
        <time>1970-01-01T01:00:00Z</time>
      </trkpt>
      <trkpt lat="61.127231" lon="13.905293">
        <ele>397.727</ele>
        <time>1970-01-01T01:00:00Z</time>
      </trkpt>
      <trkpt lat="61.127418" lon="13.905451">
        <ele>397.727</ele>
        <time>1970-01-01T01:00:00Z</time>
      </trkpt>
      <trkpt lat="61.127445" lon="13.905476">
        <ele>397.727</ele>
        <time>1970-01-01T01:00:00Z</time>
      </trkpt>
      <trkpt lat="61.127552" lon="13.90556">
        <ele>397.727</ele>
        <time>1970-01-01T01:00:00Z</time>
      </trkpt>
      <trkpt lat="61.127658" lon="13.905743">
        <ele>397.727</ele>
        <time>1970-01-01T01:00:00Z</time>
      </trkpt>
      <trkpt lat="61.127761" lon="13.905967">
        <ele>397.727</ele>
        <time>1970-01-01T01:00:00Z</time>
      </trkpt>
      <trkpt lat="61.127838" lon="13.906162">
        <ele>397.818</ele>
        <time>1970-01-01T01:00:00Z</time>
      </trkpt>
      <trkpt lat="61.127868" lon="13.906255">
        <ele>397.909</ele>
        <time>1970-01-01T01:00:00Z</time>
      </trkpt>
      <trkpt lat="61.127872" lon="13.906233">
        <ele>398</ele>
        <time>1970-01-01T01:00:00Z</time>
      </trkpt>
      <trkpt lat="61.127872" lon="13.906218">
        <ele>398</ele>
        <time>1970-01-01T01:00:00Z</time>
      </trkpt>
      <trkpt lat="61.127864" lon="13.906224">
        <ele>398</ele>
        <time>1970-01-01T01:00:00Z</time>
      </trkpt>
      <trkpt lat="61.127872" lon="13.906206">
        <ele>398</ele>
        <time>1970-01-01T01:00:00Z</time>
      </trkpt>
      <trkpt lat="61.127872" lon="13.906202">
        <ele>398</ele>
        <time>1970-01-01T01:00:00Z</time>
      </trkpt>
      <trkpt lat="61.12788" lon="13.906232">
        <ele>398</ele>
        <time>1970-01-01T01:00:00Z</time>
      </trkpt>
      <trkpt lat="61.127971" lon="13.906357">
        <ele>398</ele>
        <time>1970-01-01T01:00:00Z</time>
      </trkpt>
      <trkpt lat="61.128082" lon="13.906501">
        <ele>398.091</ele>
        <time>1970-01-01T01:00:00Z</time>
      </trkpt>
      <trkpt lat="61.12817" lon="13.906635">
        <ele>398.273</ele>
        <time>1970-01-01T01:00:00Z</time>
      </trkpt>
      <trkpt lat="61.128299" lon="13.906762">
        <ele>398.455</ele>
        <time>1970-01-01T01:00:00Z</time>
      </trkpt>
      <trkpt lat="61.128505" lon="13.906888">
        <ele>398.636</ele>
        <time>1970-01-01T01:00:00Z</time>
      </trkpt>
      <trkpt lat="61.128643" lon="13.90701">
        <ele>398.818</ele>
        <time>1970-01-01T01:00:00Z</time>
      </trkpt>
      <trkpt lat="61.128742" lon="13.907213">
        <ele>399</ele>
        <time>1970-01-01T01:00:00Z</time>
      </trkpt>
      <trkpt lat="61.128829" lon="13.90745">
        <ele>399.182</ele>
        <time>1970-01-01T01:00:00Z</time>
      </trkpt>
      <trkpt lat="61.12891" lon="13.907727">
        <ele>399.364</ele>
        <time>1970-01-01T01:00:00Z</time>
      </trkpt>
      <trkpt lat="61.12902" lon="13.907952">
        <ele>399.545</ele>
        <time>1970-01-01T01:00:00Z</time>
      </trkpt>
      <trkpt lat="61.129135" lon="13.908124">
        <ele>399.636</ele>
        <time>1970-01-01T01:00:00Z</time>
      </trkpt>
      <trkpt lat="61.129234" lon="13.908317">
        <ele>399.727</ele>
        <time>1970-01-01T01:00:00Z</time>
      </trkpt>
      <trkpt lat="61.129253" lon="13.908372">
        <ele>399.727</ele>
        <time>1970-01-01T01:00:00Z</time>
      </trkpt>
      <trkpt lat="61.129375" lon="13.908574">
        <ele>399.727</ele>
        <time>1970-01-01T01:00:00Z</time>
      </trkpt>
      <trkpt lat="61.129451" lon="13.908719">
        <ele>399.727</ele>
        <time>1970-01-01T01:00:00Z</time>
      </trkpt>
      <trkpt lat="61.129493" lon="13.908832">
        <ele>399.727</ele>
        <time>1970-01-01T01:00:00Z</time>
      </trkpt>
      <trkpt lat="61.129566" lon="13.90894">
        <ele>399.727</ele>
        <time>1970-01-01T01:00:00Z</time>
      </trkpt>
      <trkpt lat="61.129615" lon="13.909037">
        <ele>399.727</ele>
        <time>1970-01-01T01:00:00Z</time>
      </trkpt>
      <trkpt lat="61.129695" lon="13.909337">
        <ele>399.727</ele>
        <time>1970-01-01T01:00:00Z</time>
      </trkpt>
      <trkpt lat="61.129772" lon="13.909637">
        <ele>399.636</ele>
        <time>1970-01-01T01:00:00Z</time>
      </trkpt>
      <trkpt lat="61.129875" lon="13.909853">
        <ele>399.545</ele>
        <time>1970-01-01T01:00:00Z</time>
      </trkpt>
      <trkpt lat="61.12992" lon="13.910047">
        <ele>399.545</ele>
        <time>1970-01-01T01:00:00Z</time>
      </trkpt>
      <trkpt lat="61.129936" lon="13.910196">
        <ele>399.545</ele>
        <time>1970-01-01T01:00:00Z</time>
      </trkpt>
      <trkpt lat="61.129943" lon="13.910265">
        <ele>399.545</ele>
        <time>1970-01-01T01:00:00Z</time>
      </trkpt>
      <trkpt lat="61.129993" lon="13.910508">
        <ele>399.455</ele>
        <time>1970-01-01T01:00:00Z</time>
      </trkpt>
      <trkpt lat="61.130065" lon="13.910737">
        <ele>399.364</ele>
        <time>1970-01-01T01:00:00Z</time>
      </trkpt>
      <trkpt lat="61.130142" lon="13.910957">
        <ele>399.273</ele>
        <time>1970-01-01T01:00:00Z</time>
      </trkpt>
      <trkpt lat="61.130199" lon="13.911203">
        <ele>399.182</ele>
        <time>1970-01-01T01:00:00Z</time>
      </trkpt>
      <trkpt lat="61.130256" lon="13.911444">
        <ele>399.182</ele>
        <time>1970-01-01T01:00:00Z</time>
      </trkpt>
      <trkpt lat="61.130321" lon="13.9117">
        <ele>399.091</ele>
        <time>1970-01-01T01:00:00Z</time>
      </trkpt>
      <trkpt lat="61.13034" lon="13.911766">
        <ele>399.091</ele>
        <time>1970-01-01T01:00:00Z</time>
      </trkpt>
      <trkpt lat="61.130382" lon="13.911868">
        <ele>399.091</ele>
        <time>1970-01-01T01:00:00Z</time>
      </trkpt>
      <trkpt lat="61.130424" lon="13.911964">
        <ele>399.091</ele>
        <time>1970-01-01T01:00:00Z</time>
      </trkpt>
      <trkpt lat="61.130451" lon="13.912022">
        <ele>399.091</ele>
        <time>1970-01-01T01:00:00Z</time>
      </trkpt>
      <trkpt lat="61.130554" lon="13.912217">
        <ele>399.091</ele>
        <time>1970-01-01T01:00:00Z</time>
      </trkpt>
      <trkpt lat="61.130641" lon="13.912418">
        <ele>399.091</ele>
        <time>1970-01-01T01:00:00Z</time>
      </trkpt>
      <trkpt lat="61.130737" lon="13.912614">
        <ele>399.091</ele>
        <time>1970-01-01T01:00:00Z</time>
      </trkpt>
      <trkpt lat="61.130802" lon="13.912771">
        <ele>399.091</ele>
        <time>1970-01-01T01:00:00Z</time>
      </trkpt>
      <trkpt lat="61.130882" lon="13.912942">
        <ele>399.182</ele>
        <time>1970-01-01T01:00:00Z</time>
      </trkpt>
      <trkpt lat="61.131034" lon="13.91322">
        <ele>399.091</ele>
        <time>1970-01-01T01:00:00Z</time>
      </trkpt>
      <trkpt lat="61.131134" lon="13.913404">
        <ele>399.091</ele>
        <time>1970-01-01T01:00:00Z</time>
      </trkpt>
      <trkpt lat="61.131195" lon="13.913546">
        <ele>399.091</ele>
        <time>1970-01-01T01:00:00Z</time>
      </trkpt>
      <trkpt lat="61.131252" lon="13.913659">
        <ele>399.091</ele>
        <time>1970-01-01T01:00:00Z</time>
      </trkpt>
      <trkpt lat="61.131416" lon="13.913847">
        <ele>399.182</ele>
        <time>1970-01-01T01:00:00Z</time>
      </trkpt>
      <trkpt lat="61.131565" lon="13.913983">
        <ele>399.273</ele>
        <time>1970-01-01T01:00:00Z</time>
      </trkpt>
      <trkpt lat="61.131698" lon="13.91411">
        <ele>399.273</ele>
        <time>1970-01-01T01:00:00Z</time>
      </trkpt>
      <trkpt lat="61.131874" lon="13.914284">
        <ele>399.273</ele>
        <time>1970-01-01T01:00:00Z</time>
      </trkpt>
      <trkpt lat="61.132022" lon="13.914413">
        <ele>399.273</ele>
        <time>1970-01-01T01:00:00Z</time>
      </trkpt>
      <trkpt lat="61.132148" lon="13.914561">
        <ele>399.273</ele>
        <time>1970-01-01T01:00:00Z</time>
      </trkpt>
      <trkpt lat="61.132221" lon="13.914666">
        <ele>399.182</ele>
        <time>1970-01-01T01:00:00Z</time>
      </trkpt>
      <trkpt lat="61.132251" lon="13.914695">
        <ele>399.182</ele>
        <time>1970-01-01T01:00:00Z</time>
      </trkpt>
      <trkpt lat="61.132286" lon="13.914735">
        <ele>399.182</ele>
        <time>1970-01-01T01:00:00Z</time>
      </trkpt>
      <trkpt lat="61.132434" lon="13.914918">
        <ele>399.182</ele>
        <time>1970-01-01T01:00:00Z</time>
      </trkpt>
      <trkpt lat="61.132526" lon="13.915108">
        <ele>399.182</ele>
        <time>1970-01-01T01:00:00Z</time>
      </trkpt>
      <trkpt lat="61.132652" lon="13.915249">
        <ele>399.091</ele>
        <time>1970-01-01T01:00:00Z</time>
      </trkpt>
      <trkpt lat="61.132778" lon="13.915364">
        <ele>399</ele>
        <time>1970-01-01T01:00:00Z</time>
      </trkpt>
      <trkpt lat="61.132926" lon="13.915456">
        <ele>399</ele>
        <time>1970-01-01T01:00:00Z</time>
      </trkpt>
      <trkpt lat="61.13306" lon="13.915573">
        <ele>399</ele>
        <time>1970-01-01T01:00:00Z</time>
      </trkpt>
      <trkpt lat="61.133197" lon="13.91567">
        <ele>399</ele>
        <time>1970-01-01T01:00:00Z</time>
      </trkpt>
      <trkpt lat="61.133384" lon="13.915761">
        <ele>399</ele>
        <time>1970-01-01T01:00:00Z</time>
      </trkpt>
      <trkpt lat="61.133506" lon="13.915833">
        <ele>399</ele>
        <time>1970-01-01T01:00:00Z</time>
      </trkpt>
      <trkpt lat="61.133621" lon="13.915837">
        <ele>399</ele>
        <time>1970-01-01T01:00:00Z</time>
      </trkpt>
      <trkpt lat="61.133708" lon="13.915895">
        <ele>399</ele>
        <time>1970-01-01T01:00:00Z</time>
      </trkpt>
      <trkpt lat="61.133876" lon="13.91599">
        <ele>399</ele>
        <time>1970-01-01T01:00:00Z</time>
      </trkpt>
      <trkpt lat="61.133995" lon="13.916149">
        <ele>399</ele>
        <time>1970-01-01T01:00:00Z</time>
      </trkpt>
      <trkpt lat="61.134105" lon="13.916304">
        <ele>399</ele>
        <time>1970-01-01T01:00:00Z</time>
      </trkpt>
      <trkpt lat="61.134204" lon="13.916424">
        <ele>399</ele>
        <time>1970-01-01T01:00:00Z</time>
      </trkpt>
      <trkpt lat="61.134277" lon="13.916522">
        <ele>399</ele>
        <time>1970-01-01T01:00:00Z</time>
      </trkpt>
      <trkpt lat="61.134357" lon="13.91667">
        <ele>399</ele>
        <time>1970-01-01T01:00:00Z</time>
      </trkpt>
      <trkpt lat="61.134471" lon="13.916896">
        <ele>399</ele>
        <time>1970-01-01T01:00:00Z</time>
      </trkpt>
      <trkpt lat="61.134548" lon="13.917067">
        <ele>399</ele>
        <time>1970-01-01T01:00:00Z</time>
      </trkpt>
      <trkpt lat="61.134582" lon="13.917156">
        <ele>399</ele>
        <time>1970-01-01T01:00:00Z</time>
      </trkpt>
      <trkpt lat="61.134635" lon="13.917354">
        <ele>399</ele>
        <time>1970-01-01T01:00:00Z</time>
      </trkpt>
      <trkpt lat="61.134735" lon="13.917578">
        <ele>399</ele>
        <time>1970-01-01T01:00:00Z</time>
      </trkpt>
      <trkpt lat="61.13488" lon="13.917904">
        <ele>399</ele>
        <time>1970-01-01T01:00:00Z</time>
      </trkpt>
      <trkpt lat="61.134994" lon="13.918108">
        <ele>399</ele>
        <time>1970-01-01T01:00:00Z</time>
      </trkpt>
      <trkpt lat="61.135116" lon="13.91831">
        <ele>399</ele>
        <time>1970-01-01T01:00:00Z</time>
      </trkpt>
      <trkpt lat="61.135192" lon="13.918528">
        <ele>399</ele>
        <time>1970-01-01T01:00:00Z</time>
      </trkpt>
      <trkpt lat="61.135269" lon="13.91866">
        <ele>399</ele>
        <time>1970-01-01T01:00:00Z</time>
      </trkpt>
      <trkpt lat="61.135349" lon="13.918786">
        <ele>399</ele>
        <time>1970-01-01T01:00:00Z</time>
      </trkpt>
      <trkpt lat="61.135459" lon="13.918977">
        <ele>399</ele>
        <time>1970-01-01T01:00:00Z</time>
      </trkpt>
      <trkpt lat="61.135562" lon="13.9192">
        <ele>399</ele>
        <time>1970-01-01T01:00:00Z</time>
      </trkpt>
      <trkpt lat="61.135673" lon="13.919363">
        <ele>399</ele>
        <time>1970-01-01T01:00:00Z</time>
      </trkpt>
      <trkpt lat="61.135704" lon="13.919428">
        <ele>399</ele>
        <time>1970-01-01T01:00:00Z</time>
      </trkpt>
      <trkpt lat="61.135753" lon="13.919601">
        <ele>399</ele>
        <time>1970-01-01T01:00:00Z</time>
      </trkpt>
      <trkpt lat="61.135833" lon="13.919736">
        <ele>399</ele>
        <time>1970-01-01T01:00:00Z</time>
      </trkpt>
      <trkpt lat="61.135959" lon="13.919966">
        <ele>399</ele>
        <time>1970-01-01T01:00:00Z</time>
      </trkpt>
      <trkpt lat="61.136058" lon="13.920182">
        <ele>399</ele>
        <time>1970-01-01T01:00:00Z</time>
      </trkpt>
      <trkpt lat="61.136116" lon="13.920326">
        <ele>399</ele>
        <time>1970-01-01T01:00:00Z</time>
      </trkpt>
      <trkpt lat="61.136196" lon="13.920495">
        <ele>399</ele>
        <time>1970-01-01T01:00:00Z</time>
      </trkpt>
      <trkpt lat="61.136215" lon="13.920581">
        <ele>399</ele>
        <time>1970-01-01T01:00:00Z</time>
      </trkpt>
      <trkpt lat="61.136222" lon="13.92063">
        <ele>399</ele>
        <time>1970-01-01T01:00:00Z</time>
      </trkpt>
      <trkpt lat="61.136234" lon="13.920673">
        <ele>399</ele>
        <time>1970-01-01T01:00:00Z</time>
      </trkpt>
      <trkpt lat="61.136264" lon="13.920765">
        <ele>399</ele>
        <time>1970-01-01T01:00:00Z</time>
      </trkpt>
      <trkpt lat="61.136344" lon="13.920978">
        <ele>399</ele>
        <time>1970-01-01T01:00:00Z</time>
      </trkpt>
      <trkpt lat="61.136386" lon="13.921057">
        <ele>399</ele>
        <time>1970-01-01T01:00:00Z</time>
      </trkpt>
      <trkpt lat="61.13652" lon="13.921337">
        <ele>399</ele>
        <time>1970-01-01T01:00:00Z</time>
      </trkpt>
      <trkpt lat="61.136642" lon="13.921507">
        <ele>399</ele>
        <time>1970-01-01T01:00:00Z</time>
      </trkpt>
      <trkpt lat="61.136718" lon="13.921737">
        <ele>399</ele>
        <time>1970-01-01T01:00:00Z</time>
      </trkpt>
      <trkpt lat="61.136814" lon="13.921971">
        <ele>399</ele>
        <time>1970-01-01T01:00:00Z</time>
      </trkpt>
      <trkpt lat="61.136833" lon="13.922031">
        <ele>399</ele>
        <time>1970-01-01T01:00:00Z</time>
      </trkpt>
      <trkpt lat="61.136951" lon="13.922203">
        <ele>399</ele>
        <time>1970-01-01T01:00:00Z</time>
      </trkpt>
      <trkpt lat="61.137084" lon="13.922347">
        <ele>399</ele>
        <time>1970-01-01T01:00:00Z</time>
      </trkpt>
      <trkpt lat="61.137248" lon="13.92247">
        <ele>399</ele>
        <time>1970-01-01T01:00:00Z</time>
      </trkpt>
      <trkpt lat="61.137294" lon="13.922501">
        <ele>399</ele>
        <time>1970-01-01T01:00:00Z</time>
      </trkpt>
      <trkpt lat="61.13742" lon="13.922628">
        <ele>399</ele>
        <time>1970-01-01T01:00:00Z</time>
      </trkpt>
      <trkpt lat="61.137523" lon="13.922783">
        <ele>399</ele>
        <time>1970-01-01T01:00:00Z</time>
      </trkpt>
      <trkpt lat="61.137573" lon="13.922889">
        <ele>399</ele>
        <time>1970-01-01T01:00:00Z</time>
      </trkpt>
      <trkpt lat="61.137664" lon="13.923092">
        <ele>399</ele>
        <time>1970-01-01T01:00:00Z</time>
      </trkpt>
      <trkpt lat="61.137729" lon="13.923401">
        <ele>398.909</ele>
        <time>1970-01-01T01:00:00Z</time>
      </trkpt>
      <trkpt lat="61.137775" lon="13.923622">
        <ele>398.818</ele>
        <time>1970-01-01T01:00:00Z</time>
      </trkpt>
      <trkpt lat="61.137809" lon="13.923783">
        <ele>398.727</ele>
        <time>1970-01-01T01:00:00Z</time>
      </trkpt>
      <trkpt lat="61.137905" lon="13.923954">
        <ele>398.636</ele>
        <time>1970-01-01T01:00:00Z</time>
      </trkpt>
      <trkpt lat="61.137958" lon="13.92412">
        <ele>398.545</ele>
        <time>1970-01-01T01:00:00Z</time>
      </trkpt>
      <trkpt lat="61.138027" lon="13.924306">
        <ele>398.455</ele>
        <time>1970-01-01T01:00:00Z</time>
      </trkpt>
      <trkpt lat="61.138065" lon="13.924531">
        <ele>398.364</ele>
        <time>1970-01-01T01:00:00Z</time>
      </trkpt>
      <trkpt lat="61.138076" lon="13.924592">
        <ele>398.273</ele>
        <time>1970-01-01T01:00:00Z</time>
      </trkpt>
      <trkpt lat="61.138153" lon="13.924851">
        <ele>398.182</ele>
        <time>1970-01-01T01:00:00Z</time>
      </trkpt>
      <trkpt lat="61.138221" lon="13.925041">
        <ele>398.091</ele>
        <time>1970-01-01T01:00:00Z</time>
      </trkpt>
      <trkpt lat="61.138267" lon="13.925172">
        <ele>398</ele>
        <time>1970-01-01T01:00:00Z</time>
      </trkpt>
      <trkpt lat="61.138294" lon="13.925242">
        <ele>398</ele>
        <time>1970-01-01T01:00:00Z</time>
      </trkpt>
      <trkpt lat="61.138397" lon="13.925492">
        <ele>397.909</ele>
        <time>1970-01-01T01:00:00Z</time>
      </trkpt>
      <trkpt lat="61.138473" lon="13.925831">
        <ele>397.818</ele>
        <time>1970-01-01T01:00:00Z</time>
      </trkpt>
      <trkpt lat="61.138553" lon="13.926166">
        <ele>397.727</ele>
        <time>1970-01-01T01:00:00Z</time>
      </trkpt>
      <trkpt lat="61.138576" lon="13.926238">
        <ele>397.636</ele>
        <time>1970-01-01T01:00:00Z</time>
      </trkpt>
      <trkpt lat="61.138744" lon="13.926753">
        <ele>397.545</ele>
        <time>1970-01-01T01:00:00Z</time>
      </trkpt>
      <trkpt lat="61.138813" lon="13.926929">
        <ele>397.455</ele>
        <time>1970-01-01T01:00:00Z</time>
      </trkpt>
      <trkpt lat="61.138851" lon="13.927016">
        <ele>397.364</ele>
        <time>1970-01-01T01:00:00Z</time>
      </trkpt>
      <trkpt lat="61.138927" lon="13.927186">
        <ele>397.273</ele>
        <time>1970-01-01T01:00:00Z</time>
      </trkpt>
      <trkpt lat="61.139038" lon="13.927414">
        <ele>397.182</ele>
        <time>1970-01-01T01:00:00Z</time>
      </trkpt>
      <trkpt lat="61.13911" lon="13.927548">
        <ele>397.091</ele>
        <time>1970-01-01T01:00:00Z</time>
      </trkpt>
      <trkpt lat="61.13919" lon="13.927664">
        <ele>397</ele>
        <time>1970-01-01T01:00:00Z</time>
      </trkpt>
      <trkpt lat="61.139278" lon="13.927858">
        <ele>397</ele>
        <time>1970-01-01T01:00:00Z</time>
      </trkpt>
      <trkpt lat="61.139369" lon="13.928184">
        <ele>396.818</ele>
        <time>1970-01-01T01:00:00Z</time>
      </trkpt>
      <trkpt lat="61.139434" lon="13.928458">
        <ele>396.636</ele>
        <time>1970-01-01T01:00:00Z</time>
      </trkpt>
      <trkpt lat="61.139469" lon="13.928631">
        <ele>396.455</ele>
        <time>1970-01-01T01:00:00Z</time>
      </trkpt>
      <trkpt lat="61.139522" lon="13.928844">
        <ele>396.273</ele>
        <time>1970-01-01T01:00:00Z</time>
      </trkpt>
      <trkpt lat="61.139591" lon="13.929087">
        <ele>396.091</ele>
        <time>1970-01-01T01:00:00Z</time>
      </trkpt>
      <trkpt lat="61.139675" lon="13.929348">
        <ele>395.909</ele>
        <time>1970-01-01T01:00:00Z</time>
      </trkpt>
      <trkpt lat="61.139736" lon="13.929514">
        <ele>395.727</ele>
        <time>1970-01-01T01:00:00Z</time>
      </trkpt>
      <trkpt lat="61.139839" lon="13.929732">
        <ele>395.545</ele>
        <time>1970-01-01T01:00:00Z</time>
      </trkpt>
      <trkpt lat="61.139858" lon="13.929765">
        <ele>395.364</ele>
        <time>1970-01-01T01:00:00Z</time>
      </trkpt>
      <trkpt lat="61.13993" lon="13.929918">
        <ele>395.182</ele>
        <time>1970-01-01T01:00:00Z</time>
      </trkpt>
      <trkpt lat="61.139968" lon="13.930045">
        <ele>395</ele>
        <time>1970-01-01T01:00:00Z</time>
      </trkpt>
      <trkpt lat="61.140007" lon="13.930189">
        <ele>395</ele>
        <time>1970-01-01T01:00:00Z</time>
      </trkpt>
      <trkpt lat="61.140022" lon="13.930376">
        <ele>395</ele>
        <time>1970-01-01T01:00:00Z</time>
      </trkpt>
      <trkpt lat="61.140068" lon="13.930545">
        <ele>395</ele>
        <time>1970-01-01T01:00:00Z</time>
      </trkpt>
      <trkpt lat="61.140117" lon="13.930786">
        <ele>394.818</ele>
        <time>1970-01-01T01:00:00Z</time>
      </trkpt>
      <trkpt lat="61.140193" lon="13.931115">
        <ele>394.636</ele>
        <time>1970-01-01T01:00:00Z</time>
      </trkpt>
      <trkpt lat="61.14027" lon="13.931344">
        <ele>394.455</ele>
        <time>1970-01-01T01:00:00Z</time>
      </trkpt>
      <trkpt lat="61.140304" lon="13.931468">
        <ele>394.273</ele>
        <time>1970-01-01T01:00:00Z</time>
      </trkpt>
      <trkpt lat="61.140419" lon="13.931792">
        <ele>394.091</ele>
        <time>1970-01-01T01:00:00Z</time>
      </trkpt>
      <trkpt lat="61.140472" lon="13.93194">
        <ele>393.909</ele>
        <time>1970-01-01T01:00:00Z</time>
      </trkpt>
      <trkpt lat="61.140563" lon="13.932204">
        <ele>393.818</ele>
        <time>1970-01-01T01:00:00Z</time>
      </trkpt>
      <trkpt lat="61.140628" lon="13.932386">
        <ele>393.727</ele>
        <time>1970-01-01T01:00:00Z</time>
      </trkpt>
      <trkpt lat="61.140644" lon="13.932428">
        <ele>393.636</ele>
        <time>1970-01-01T01:00:00Z</time>
      </trkpt>
      <trkpt lat="61.140689" lon="13.932738">
        <ele>393.545</ele>
        <time>1970-01-01T01:00:00Z</time>
      </trkpt>
      <trkpt lat="61.140678" lon="13.932965">
        <ele>393.455</ele>
        <time>1970-01-01T01:00:00Z</time>
      </trkpt>
      <trkpt lat="61.140663" lon="13.933087">
        <ele>393.545</ele>
        <time>1970-01-01T01:00:00Z</time>
      </trkpt>
      <trkpt lat="61.140663" lon="13.933116">
        <ele>393.727</ele>
        <time>1970-01-01T01:00:00Z</time>
      </trkpt>
      <trkpt lat="61.140655" lon="13.933175">
        <ele>393.909</ele>
        <time>1970-01-01T01:00:00Z</time>
      </trkpt>
      <trkpt lat="61.140636" lon="13.933316">
        <ele>394.273</ele>
        <time>1970-01-01T01:00:00Z</time>
      </trkpt>
      <trkpt lat="61.140632" lon="13.933477">
        <ele>394.636</ele>
        <time>1970-01-01T01:00:00Z</time>
      </trkpt>
      <trkpt lat="61.140586" lon="13.933695">
        <ele>395</ele>
        <time>1970-01-01T01:00:00Z</time>
      </trkpt>
      <trkpt lat="61.140529" lon="13.933901">
        <ele>395.273</ele>
        <time>1970-01-01T01:00:00Z</time>
      </trkpt>
      <trkpt lat="61.140483" lon="13.93406">
        <ele>395.545</ele>
        <time>1970-01-01T01:00:00Z</time>
      </trkpt>
      <trkpt lat="61.140434" lon="13.934192">
        <ele>395.818</ele>
        <time>1970-01-01T01:00:00Z</time>
      </trkpt>
      <trkpt lat="61.140415" lon="13.934308">
        <ele>396.091</ele>
        <time>1970-01-01T01:00:00Z</time>
      </trkpt>
      <trkpt lat="61.140411" lon="13.934338">
        <ele>396.455</ele>
        <time>1970-01-01T01:00:00Z</time>
      </trkpt>
      <trkpt lat="61.140399" lon="13.934386">
        <ele>396.818</ele>
        <time>1970-01-01T01:00:00Z</time>
      </trkpt>
      <trkpt lat="61.140388" lon="13.934409">
        <ele>397.091</ele>
        <time>1970-01-01T01:00:00Z</time>
      </trkpt>
      <trkpt lat="61.140377" lon="13.934435">
        <ele>397.364</ele>
        <time>1970-01-01T01:00:00Z</time>
      </trkpt>
      <trkpt lat="61.140338" lon="13.934549">
        <ele>397.455</ele>
        <time>1970-01-01T01:00:00Z</time>
      </trkpt>
      <trkpt lat="61.140319" lon="13.9347">
        <ele>397.636</ele>
        <time>1970-01-01T01:00:00Z</time>
      </trkpt>
      <trkpt lat="61.140266" lon="13.934864">
        <ele>397.818</ele>
        <time>1970-01-01T01:00:00Z</time>
      </trkpt>
      <trkpt lat="61.140224" lon="13.935001">
        <ele>398</ele>
        <time>1970-01-01T01:00:00Z</time>
      </trkpt>
      <trkpt lat="61.14022" lon="13.935119">
        <ele>398.182</ele>
        <time>1970-01-01T01:00:00Z</time>
      </trkpt>
      <trkpt lat="61.140186" lon="13.935278">
        <ele>398.364</ele>
        <time>1970-01-01T01:00:00Z</time>
      </trkpt>
      <trkpt lat="61.140125" lon="13.935586">
        <ele>398.545</ele>
        <time>1970-01-01T01:00:00Z</time>
      </trkpt>
      <trkpt lat="61.140094" lon="13.935696">
        <ele>398.636</ele>
        <time>1970-01-01T01:00:00Z</time>
      </trkpt>
      <trkpt lat="61.140052" lon="13.935818">
        <ele>398.727</ele>
        <time>1970-01-01T01:00:00Z</time>
      </trkpt>
      <trkpt lat="61.139961" lon="13.935955">
        <ele>398.818</ele>
        <time>1970-01-01T01:00:00Z</time>
      </trkpt>
      <trkpt lat="61.139934" lon="13.936016">
        <ele>398.909</ele>
        <time>1970-01-01T01:00:00Z</time>
      </trkpt>
      <trkpt lat="61.13993" lon="13.936032">
        <ele>399</ele>
        <time>1970-01-01T01:00:00Z</time>
      </trkpt>
      <trkpt lat="61.139923" lon="13.93605">
        <ele>399.091</ele>
        <time>1970-01-01T01:00:00Z</time>
      </trkpt>
      <trkpt lat="61.139907" lon="13.936092">
        <ele>399.182</ele>
        <time>1970-01-01T01:00:00Z</time>
      </trkpt>
      <trkpt lat="61.139896" lon="13.936107">
        <ele>399.273</ele>
        <time>1970-01-01T01:00:00Z</time>
      </trkpt>
      <trkpt lat="61.139881" lon="13.936148">
        <ele>399.364</ele>
        <time>1970-01-01T01:00:00Z</time>
      </trkpt>
      <trkpt lat="61.139865" lon="13.936215">
        <ele>399.455</ele>
        <time>1970-01-01T01:00:00Z</time>
      </trkpt>
      <trkpt lat="61.139823" lon="13.936343">
        <ele>399.545</ele>
        <time>1970-01-01T01:00:00Z</time>
      </trkpt>
      <trkpt lat="61.139797" lon="13.936442">
        <ele>399.636</ele>
        <time>1970-01-01T01:00:00Z</time>
      </trkpt>
      <trkpt lat="61.13977" lon="13.936597">
        <ele>399.727</ele>
        <time>1970-01-01T01:00:00Z</time>
      </trkpt>
      <trkpt lat="61.139739" lon="13.936708">
        <ele>400.273</ele>
        <time>1970-01-01T01:00:00Z</time>
      </trkpt>
      <trkpt lat="61.139686" lon="13.936871">
        <ele>400.818</ele>
        <time>1970-01-01T01:00:00Z</time>
      </trkpt>
      <trkpt lat="61.139667" lon="13.936944">
        <ele>401.364</ele>
        <time>1970-01-01T01:00:00Z</time>
      </trkpt>
      <trkpt lat="61.139656" lon="13.936982">
        <ele>401.818</ele>
        <time>1970-01-01T01:00:00Z</time>
      </trkpt>
      <trkpt lat="61.139648" lon="13.937014">
        <ele>402.455</ele>
        <time>1970-01-01T01:00:00Z</time>
      </trkpt>
      <trkpt lat="61.139591" lon="13.937233">
        <ele>403.091</ele>
        <time>1970-01-01T01:00:00Z</time>
      </trkpt>
      <trkpt lat="61.139514" lon="13.937449">
        <ele>403.727</ele>
        <time>1970-01-01T01:00:00Z</time>
      </trkpt>
      <trkpt lat="61.139419" lon="13.937699">
        <ele>404.909</ele>
        <time>1970-01-01T01:00:00Z</time>
      </trkpt>
      <trkpt lat="61.139354" lon="13.937825">
        <ele>406.091</ele>
        <time>1970-01-01T01:00:00Z</time>
      </trkpt>
      <trkpt lat="61.139266" lon="13.937982">
        <ele>407.364</ele>
        <time>1970-01-01T01:00:00Z</time>
      </trkpt>
      <trkpt lat="61.139072" lon="13.938229">
        <ele>408.636</ele>
        <time>1970-01-01T01:00:00Z</time>
      </trkpt>
      <trkpt lat="61.138854" lon="13.938443">
        <ele>409.455</ele>
        <time>1970-01-01T01:00:00Z</time>
      </trkpt>
      <trkpt lat="61.138793" lon="13.93865">
        <ele>409.909</ele>
        <time>1970-01-01T01:00:00Z</time>
      </trkpt>
      <trkpt lat="61.138771" lon="13.938779">
        <ele>410.364</ele>
        <time>1970-01-01T01:00:00Z</time>
      </trkpt>
      <trkpt lat="61.138721" lon="13.939114">
        <ele>410.818</ele>
        <time>1970-01-01T01:00:00Z</time>
      </trkpt>
      <trkpt lat="61.138717" lon="13.939352">
        <ele>411.091</ele>
        <time>1970-01-01T01:00:00Z</time>
      </trkpt>
      <trkpt lat="61.138767" lon="13.939542">
        <ele>411.545</ele>
        <time>1970-01-01T01:00:00Z</time>
      </trkpt>
      <trkpt lat="61.138809" lon="13.939722">
        <ele>412</ele>
        <time>1970-01-01T01:00:00Z</time>
      </trkpt>
      <trkpt lat="61.138832" lon="13.939878">
        <ele>411.909</ele>
        <time>1970-01-01T01:00:00Z</time>
      </trkpt>
      <trkpt lat="61.138858" lon="13.940215">
        <ele>411.909</ele>
        <time>1970-01-01T01:00:00Z</time>
      </trkpt>
      <trkpt lat="61.138885" lon="13.940308">
        <ele>411.818</ele>
        <time>1970-01-01T01:00:00Z</time>
      </trkpt>
      <trkpt lat="61.138923" lon="13.940575">
        <ele>411.818</ele>
        <time>1970-01-01T01:00:00Z</time>
      </trkpt>
      <trkpt lat="61.138992" lon="13.940889">
        <ele>411.818</ele>
        <time>1970-01-01T01:00:00Z</time>
      </trkpt>
      <trkpt lat="61.138999" lon="13.941076">
        <ele>412.182</ele>
        <time>1970-01-01T01:00:00Z</time>
      </trkpt>
      <trkpt lat="61.139011" lon="13.941338">
        <ele>412.636</ele>
        <time>1970-01-01T01:00:00Z</time>
      </trkpt>
      <trkpt lat="61.139019" lon="13.941665">
        <ele>413.091</ele>
        <time>1970-01-01T01:00:00Z</time>
      </trkpt>
      <trkpt lat="61.139015" lon="13.942144">
        <ele>413.545</ele>
        <time>1970-01-01T01:00:00Z</time>
      </trkpt>
      <trkpt lat="61.139034" lon="13.942635">
        <ele>413.909</ele>
        <time>1970-01-01T01:00:00Z</time>
      </trkpt>
      <trkpt lat="61.139068" lon="13.942853">
        <ele>414.273</ele>
        <time>1970-01-01T01:00:00Z</time>
      </trkpt>
      <trkpt lat="61.139133" lon="13.943233">
        <ele>414.636</ele>
        <time>1970-01-01T01:00:00Z</time>
      </trkpt>
      <trkpt lat="61.139179" lon="13.943497">
        <ele>414.909</ele>
        <time>1970-01-01T01:00:00Z</time>
      </trkpt>
      <trkpt lat="61.139232" lon="13.943687">
        <ele>415.182</ele>
        <time>1970-01-01T01:00:00Z</time>
      </trkpt>
      <trkpt lat="61.139255" lon="13.943941">
        <ele>415.364</ele>
        <time>1970-01-01T01:00:00Z</time>
      </trkpt>
      <trkpt lat="61.139263" lon="13.94422">
        <ele>415.545</ele>
        <time>1970-01-01T01:00:00Z</time>
      </trkpt>
      <trkpt lat="61.139263" lon="13.944365">
        <ele>415.727</ele>
        <time>1970-01-01T01:00:00Z</time>
      </trkpt>
      <trkpt lat="61.139209" lon="13.944635">
        <ele>415.818</ele>
        <time>1970-01-01T01:00:00Z</time>
      </trkpt>
      <trkpt lat="61.139183" lon="13.94478">
        <ele>416</ele>
        <time>1970-01-01T01:00:00Z</time>
      </trkpt>
      <trkpt lat="61.13916" lon="13.944861">
        <ele>416.182</ele>
        <time>1970-01-01T01:00:00Z</time>
      </trkpt>
      <trkpt lat="61.139148" lon="13.945025">
        <ele>416.273</ele>
        <time>1970-01-01T01:00:00Z</time>
      </trkpt>
      <trkpt lat="61.139137" lon="13.945234">
        <ele>416.364</ele>
        <time>1970-01-01T01:00:00Z</time>
      </trkpt>
      <trkpt lat="61.139133" lon="13.945356">
        <ele>416.545</ele>
        <time>1970-01-01T01:00:00Z</time>
      </trkpt>
      <trkpt lat="61.139095" lon="13.94555">
        <ele>416.727</ele>
        <time>1970-01-01T01:00:00Z</time>
      </trkpt>
      <trkpt lat="61.139068" lon="13.945716">
        <ele>416.909</ele>
        <time>1970-01-01T01:00:00Z</time>
      </trkpt>
      <trkpt lat="61.13906" lon="13.94592">
        <ele>417.182</ele>
        <time>1970-01-01T01:00:00Z</time>
      </trkpt>
      <trkpt lat="61.139019" lon="13.946227">
        <ele>417.455</ele>
        <time>1970-01-01T01:00:00Z</time>
      </trkpt>
      <trkpt lat="61.138999" lon="13.946482">
        <ele>417.727</ele>
        <time>1970-01-01T01:00:00Z</time>
      </trkpt>
      <trkpt lat="61.138992" lon="13.946713">
        <ele>418</ele>
        <time>1970-01-01T01:00:00Z</time>
      </trkpt>
      <trkpt lat="61.138977" lon="13.946904">
        <ele>418.273</ele>
        <time>1970-01-01T01:00:00Z</time>
      </trkpt>
      <trkpt lat="61.138957" lon="13.947171">
        <ele>418.545</ele>
        <time>1970-01-01T01:00:00Z</time>
      </trkpt>
      <trkpt lat="61.138919" lon="13.947398">
        <ele>419.273</ele>
        <time>1970-01-01T01:00:00Z</time>
      </trkpt>
      <trkpt lat="61.138874" lon="13.94773">
        <ele>420</ele>
        <time>1970-01-01T01:00:00Z</time>
      </trkpt>
      <trkpt lat="61.138843" lon="13.947918">
        <ele>420.636</ele>
        <time>1970-01-01T01:00:00Z</time>
      </trkpt>
      <trkpt lat="61.13882" lon="13.948049">
        <ele>421.273</ele>
        <time>1970-01-01T01:00:00Z</time>
      </trkpt>
      <trkpt lat="61.138805" lon="13.94825">
        <ele>422</ele>
        <time>1970-01-01T01:00:00Z</time>
      </trkpt>
      <trkpt lat="61.138771" lon="13.948536">
        <ele>422.636</ele>
        <time>1970-01-01T01:00:00Z</time>
      </trkpt>
      <trkpt lat="61.138763" lon="13.948563">
        <ele>423.273</ele>
        <time>1970-01-01T01:00:00Z</time>
      </trkpt>
      <trkpt lat="61.138755" lon="13.948597">
        <ele>423.909</ele>
        <time>1970-01-01T01:00:00Z</time>
      </trkpt>
      <trkpt lat="61.138744" lon="13.948703">
        <ele>424.636</ele>
        <time>1970-01-01T01:00:00Z</time>
      </trkpt>
      <trkpt lat="61.138713" lon="13.948923">
        <ele>425.273</ele>
        <time>1970-01-01T01:00:00Z</time>
      </trkpt>
      <trkpt lat="61.13869" lon="13.949052">
        <ele>425.909</ele>
        <time>1970-01-01T01:00:00Z</time>
      </trkpt>
      <trkpt lat="61.138641" lon="13.949265">
        <ele>426.091</ele>
        <time>1970-01-01T01:00:00Z</time>
      </trkpt>
      <trkpt lat="61.138603" lon="13.949454">
        <ele>426.273</ele>
        <time>1970-01-01T01:00:00Z</time>
      </trkpt>
      <trkpt lat="61.138542" lon="13.949781">
        <ele>426.455</ele>
        <time>1970-01-01T01:00:00Z</time>
      </trkpt>
      <trkpt lat="61.138469" lon="13.949983">
        <ele>426.636</ele>
        <time>1970-01-01T01:00:00Z</time>
      </trkpt>
      <trkpt lat="61.138416" lon="13.950183">
        <ele>427.273</ele>
        <time>1970-01-01T01:00:00Z</time>
      </trkpt>
      <trkpt lat="61.138355" lon="13.950366">
        <ele>427.909</ele>
        <time>1970-01-01T01:00:00Z</time>
      </trkpt>
      <trkpt lat="61.138256" lon="13.95062">
        <ele>428.545</ele>
        <time>1970-01-01T01:00:00Z</time>
      </trkpt>
      <trkpt lat="61.138141" lon="13.950795">
        <ele>429.182</ele>
        <time>1970-01-01T01:00:00Z</time>
      </trkpt>
      <trkpt lat="61.138057" lon="13.950863">
        <ele>429.727</ele>
        <time>1970-01-01T01:00:00Z</time>
      </trkpt>
      <trkpt lat="61.137966" lon="13.950896">
        <ele>430.273</ele>
        <time>1970-01-01T01:00:00Z</time>
      </trkpt>
      <trkpt lat="61.13787" lon="13.950968">
        <ele>430.818</ele>
        <time>1970-01-01T01:00:00Z</time>
      </trkpt>
      <trkpt lat="61.137744" lon="13.951056">
        <ele>431.364</ele>
        <time>1970-01-01T01:00:00Z</time>
      </trkpt>
      <trkpt lat="61.137607" lon="13.951227">
        <ele>431.909</ele>
        <time>1970-01-01T01:00:00Z</time>
      </trkpt>
      <trkpt lat="61.13742" lon="13.951523">
        <ele>432.455</ele>
        <time>1970-01-01T01:00:00Z</time>
      </trkpt>
      <trkpt lat="61.137367" lon="13.951693">
        <ele>433</ele>
        <time>1970-01-01T01:00:00Z</time>
      </trkpt>
      <trkpt lat="61.137317" lon="13.951914">
        <ele>433</ele>
        <time>1970-01-01T01:00:00Z</time>
      </trkpt>
      <trkpt lat="61.137306" lon="13.951946">
        <ele>433.455</ele>
        <time>1970-01-01T01:00:00Z</time>
      </trkpt>
      <trkpt lat="61.137279" lon="13.952125">
        <ele>433.909</ele>
        <time>1970-01-01T01:00:00Z</time>
      </trkpt>
      <trkpt lat="61.137233" lon="13.952319">
        <ele>434.455</ele>
        <time>1970-01-01T01:00:00Z</time>
      </trkpt>
      <trkpt lat="61.137184" lon="13.952522">
        <ele>435</ele>
        <time>1970-01-01T01:00:00Z</time>
      </trkpt>
      <trkpt lat="61.137134" lon="13.952784">
        <ele>435.545</ele>
        <time>1970-01-01T01:00:00Z</time>
      </trkpt>
      <trkpt lat="61.137054" lon="13.95296">
        <ele>436.091</ele>
        <time>1970-01-01T01:00:00Z</time>
      </trkpt>
      <trkpt lat="61.137027" lon="13.953011">
        <ele>436.636</ele>
        <time>1970-01-01T01:00:00Z</time>
      </trkpt>
      <trkpt lat="61.136951" lon="13.953148">
        <ele>437.182</ele>
        <time>1970-01-01T01:00:00Z</time>
      </trkpt>
      <trkpt lat="61.136886" lon="13.953222">
        <ele>437.727</ele>
        <time>1970-01-01T01:00:00Z</time>
      </trkpt>
      <trkpt lat="61.136783" lon="13.9533">
        <ele>438.273</ele>
        <time>1970-01-01T01:00:00Z</time>
      </trkpt>
      <trkpt lat="61.136692" lon="13.953364">
        <ele>438.818</ele>
        <time>1970-01-01T01:00:00Z</time>
      </trkpt>
      <trkpt lat="61.136669" lon="13.953382">
        <ele>438.909</ele>
        <time>1970-01-01T01:00:00Z</time>
      </trkpt>
      <trkpt lat="61.136573" lon="13.953433">
        <ele>439.364</ele>
        <time>1970-01-01T01:00:00Z</time>
      </trkpt>
      <trkpt lat="61.136543" lon="13.95345">
        <ele>439.727</ele>
        <time>1970-01-01T01:00:00Z</time>
      </trkpt>
      <trkpt lat="61.136459" lon="13.953485">
        <ele>440.091</ele>
        <time>1970-01-01T01:00:00Z</time>
      </trkpt>
      <trkpt lat="61.136371" lon="13.953488">
        <ele>440.455</ele>
        <time>1970-01-01T01:00:00Z</time>
      </trkpt>
      <trkpt lat="61.136291" lon="13.953491">
        <ele>440.818</ele>
        <time>1970-01-01T01:00:00Z</time>
      </trkpt>
      <trkpt lat="61.136215" lon="13.953483">
        <ele>441.182</ele>
        <time>1970-01-01T01:00:00Z</time>
      </trkpt>
      <trkpt lat="61.136157" lon="13.953465">
        <ele>441.545</ele>
        <time>1970-01-01T01:00:00Z</time>
      </trkpt>
      <trkpt lat="61.136032" lon="13.953442">
        <ele>441.909</ele>
        <time>1970-01-01T01:00:00Z</time>
      </trkpt>
      <trkpt lat="61.13594" lon="13.953446">
        <ele>442.273</ele>
        <time>1970-01-01T01:00:00Z</time>
      </trkpt>
      <trkpt lat="61.135829" lon="13.953523">
        <ele>442.636</ele>
        <time>1970-01-01T01:00:00Z</time>
      </trkpt>
      <trkpt lat="61.135757" lon="13.953582">
        <ele>443</ele>
        <time>1970-01-01T01:00:00Z</time>
      </trkpt>
      <trkpt lat="61.135734" lon="13.953598">
        <ele>443.273</ele>
        <time>1970-01-01T01:00:00Z</time>
      </trkpt>
      <trkpt lat="61.135581" lon="13.95368">
        <ele>443.545</ele>
        <time>1970-01-01T01:00:00Z</time>
      </trkpt>
      <trkpt lat="61.13554" lon="13.953702">
        <ele>443.818</ele>
        <time>1970-01-01T01:00:00Z</time>
      </trkpt>
      <trkpt lat="61.135513" lon="13.953715">
        <ele>444.091</ele>
        <time>1970-01-01T01:00:00Z</time>
      </trkpt>
      <trkpt lat="61.135475" lon="13.953744">
        <ele>444.364</ele>
        <time>1970-01-01T01:00:00Z</time>
      </trkpt>
      <trkpt lat="61.135402" lon="13.953982">
        <ele>444.636</ele>
        <time>1970-01-01T01:00:00Z</time>
      </trkpt>
      <trkpt lat="61.135398" lon="13.954051">
        <ele>444.909</ele>
        <time>1970-01-01T01:00:00Z</time>
      </trkpt>
      <trkpt lat="61.135383" lon="13.95412">
        <ele>445.182</ele>
        <time>1970-01-01T01:00:00Z</time>
      </trkpt>
      <trkpt lat="61.135379" lon="13.954127">
        <ele>445.455</ele>
        <time>1970-01-01T01:00:00Z</time>
      </trkpt>
      <trkpt lat="61.135387" lon="13.954149">
        <ele>445.727</ele>
        <time>1970-01-01T01:00:00Z</time>
      </trkpt>
      <trkpt lat="61.13541" lon="13.954228">
        <ele>446</ele>
        <time>1970-01-01T01:00:00Z</time>
      </trkpt>
      <trkpt lat="61.135414" lon="13.954239">
        <ele>445.727</ele>
        <time>1970-01-01T01:00:00Z</time>
      </trkpt>
      <trkpt lat="61.135429" lon="13.954288">
        <ele>445.455</ele>
        <time>1970-01-01T01:00:00Z</time>
      </trkpt>
      <trkpt lat="61.135437" lon="13.954325">
        <ele>445.182</ele>
        <time>1970-01-01T01:00:00Z</time>
      </trkpt>
      <trkpt lat="61.135437" lon="13.954339">
        <ele>444.909</ele>
        <time>1970-01-01T01:00:00Z</time>
      </trkpt>
      <trkpt lat="61.135444" lon="13.954358">
        <ele>444.636</ele>
        <time>1970-01-01T01:00:00Z</time>
      </trkpt>
      <trkpt lat="61.135459" lon="13.954396">
        <ele>444.364</ele>
        <time>1970-01-01T01:00:00Z</time>
      </trkpt>
      <trkpt lat="61.135482" lon="13.954472">
        <ele>444.091</ele>
        <time>1970-01-01T01:00:00Z</time>
      </trkpt>
      <trkpt lat="61.135513" lon="13.954537">
        <ele>443.818</ele>
        <time>1970-01-01T01:00:00Z</time>
      </trkpt>
      <trkpt lat="61.135524" lon="13.954566">
        <ele>443.545</ele>
        <time>1970-01-01T01:00:00Z</time>
      </trkpt>
      <trkpt lat="61.135543" lon="13.954674">
        <ele>443.273</ele>
        <time>1970-01-01T01:00:00Z</time>
      </trkpt>
      <trkpt lat="61.135559" lon="13.954686">
        <ele>443</ele>
        <time>1970-01-01T01:00:00Z</time>
      </trkpt>
      <trkpt lat="61.135601" lon="13.954702">
        <ele>443</ele>
        <time>1970-01-01T01:00:00Z</time>
      </trkpt>
      <trkpt lat="61.135726" lon="13.954719">
        <ele>443</ele>
        <time>1970-01-01T01:00:00Z</time>
      </trkpt>
      <trkpt lat="61.135753" lon="13.954708">
        <ele>442.727</ele>
        <time>1970-01-01T01:00:00Z</time>
      </trkpt>
      <trkpt lat="61.13589" lon="13.95465">
        <ele>442.455</ele>
        <time>1970-01-01T01:00:00Z</time>
      </trkpt>
      <trkpt lat="61.135993" lon="13.954588">
        <ele>442.182</ele>
        <time>1970-01-01T01:00:00Z</time>
      </trkpt>
      <trkpt lat="61.136138" lon="13.954634">
        <ele>441.909</ele>
        <time>1970-01-01T01:00:00Z</time>
      </trkpt>
      <trkpt lat="61.13623" lon="13.954664">
        <ele>441.636</ele>
        <time>1970-01-01T01:00:00Z</time>
      </trkpt>
      <trkpt lat="61.136394" lon="13.954691">
        <ele>441.364</ele>
        <time>1970-01-01T01:00:00Z</time>
      </trkpt>
      <trkpt lat="61.136539" lon="13.954689">
        <ele>441.091</ele>
        <time>1970-01-01T01:00:00Z</time>
      </trkpt>
      <trkpt lat="61.136615" lon="13.954678">
        <ele>440.909</ele>
        <time>1970-01-01T01:00:00Z</time>
      </trkpt>
      <trkpt lat="61.136772" lon="13.954782">
        <ele>440.727</ele>
        <time>1970-01-01T01:00:00Z</time>
      </trkpt>
      <trkpt lat="61.136894" lon="13.954957">
        <ele>440.545</ele>
        <time>1970-01-01T01:00:00Z</time>
      </trkpt>
      <trkpt lat="61.136989" lon="13.955204">
        <ele>440.364</ele>
        <time>1970-01-01T01:00:00Z</time>
      </trkpt>
      <trkpt lat="61.137023" lon="13.955408">
        <ele>440.455</ele>
        <time>1970-01-01T01:00:00Z</time>
      </trkpt>
      <trkpt lat="61.137031" lon="13.955773">
        <ele>440.545</ele>
        <time>1970-01-01T01:00:00Z</time>
      </trkpt>
      <trkpt lat="61.137012" lon="13.956067">
        <ele>440.636</ele>
        <time>1970-01-01T01:00:00Z</time>
      </trkpt>
      <trkpt lat="61.136981" lon="13.956263">
        <ele>440.727</ele>
        <time>1970-01-01T01:00:00Z</time>
      </trkpt>
      <trkpt lat="61.13697" lon="13.956563">
        <ele>440.727</ele>
        <time>1970-01-01T01:00:00Z</time>
      </trkpt>
      <trkpt lat="61.136985" lon="13.956776">
        <ele>440.727</ele>
        <time>1970-01-01T01:00:00Z</time>
      </trkpt>
      <trkpt lat="61.136989" lon="13.956833">
        <ele>440.727</ele>
        <time>1970-01-01T01:00:00Z</time>
      </trkpt>
      <trkpt lat="61.137054" lon="13.957101">
        <ele>440.636</ele>
        <time>1970-01-01T01:00:00Z</time>
      </trkpt>
      <trkpt lat="61.137069" lon="13.95717">
        <ele>440.545</ele>
        <time>1970-01-01T01:00:00Z</time>
      </trkpt>
      <trkpt lat="61.137119" lon="13.957372">
        <ele>440.455</ele>
        <time>1970-01-01T01:00:00Z</time>
      </trkpt>
      <trkpt lat="61.137248" lon="13.957678">
        <ele>440.364</ele>
        <time>1970-01-01T01:00:00Z</time>
      </trkpt>
      <trkpt lat="61.137359" lon="13.958011">
        <ele>439.818</ele>
        <time>1970-01-01T01:00:00Z</time>
      </trkpt>
      <trkpt lat="61.13747" lon="13.95818">
        <ele>439.273</ele>
        <time>1970-01-01T01:00:00Z</time>
      </trkpt>
      <trkpt lat="61.137557" lon="13.95826">
        <ele>438.727</ele>
        <time>1970-01-01T01:00:00Z</time>
      </trkpt>
      <trkpt lat="61.137779" lon="13.958383">
        <ele>438.182</ele>
        <time>1970-01-01T01:00:00Z</time>
      </trkpt>
      <trkpt lat="61.137916" lon="13.958441">
        <ele>437.727</ele>
        <time>1970-01-01T01:00:00Z</time>
      </trkpt>
      <trkpt lat="61.138046" lon="13.958598">
        <ele>437.273</ele>
        <time>1970-01-01T01:00:00Z</time>
      </trkpt>
      <trkpt lat="61.138134" lon="13.958772">
        <ele>436.727</ele>
        <time>1970-01-01T01:00:00Z</time>
      </trkpt>
      <trkpt lat="61.138172" lon="13.95892">
        <ele>436.182</ele>
        <time>1970-01-01T01:00:00Z</time>
      </trkpt>
      <trkpt lat="61.138248" lon="13.959115">
        <ele>435.636</ele>
        <time>1970-01-01T01:00:00Z</time>
      </trkpt>
      <trkpt lat="61.138328" lon="13.959386">
        <ele>435.091</ele>
        <time>1970-01-01T01:00:00Z</time>
      </trkpt>
      <trkpt lat="61.138374" lon="13.959544">
        <ele>434.545</ele>
        <time>1970-01-01T01:00:00Z</time>
      </trkpt>
      <trkpt lat="61.138423" lon="13.959798">
        <ele>434.455</ele>
        <time>1970-01-01T01:00:00Z</time>
      </trkpt>
      <trkpt lat="61.138477" lon="13.960067">
        <ele>434.273</ele>
        <time>1970-01-01T01:00:00Z</time>
      </trkpt>
      <trkpt lat="61.138549" lon="13.960416">
        <ele>434.091</ele>
        <time>1970-01-01T01:00:00Z</time>
      </trkpt>
      <trkpt lat="61.138607" lon="13.960672">
        <ele>433.909</ele>
        <time>1970-01-01T01:00:00Z</time>
      </trkpt>
      <trkpt lat="61.138629" lon="13.960904">
        <ele>433.727</ele>
        <time>1970-01-01T01:00:00Z</time>
      </trkpt>
      <trkpt lat="61.138618" lon="13.961158">
        <ele>433.545</ele>
        <time>1970-01-01T01:00:00Z</time>
      </trkpt>
      <trkpt lat="61.138568" lon="13.961423">
        <ele>433.364</ele>
        <time>1970-01-01T01:00:00Z</time>
      </trkpt>
      <trkpt lat="61.138504" lon="13.961647">
        <ele>433.182</ele>
        <time>1970-01-01T01:00:00Z</time>
      </trkpt>
      <trkpt lat="61.138458" lon="13.961825">
        <ele>433</ele>
        <time>1970-01-01T01:00:00Z</time>
      </trkpt>
      <trkpt lat="61.138446" lon="13.961869">
        <ele>432.818</ele>
        <time>1970-01-01T01:00:00Z</time>
      </trkpt>
      <trkpt lat="61.13837" lon="13.962141">
        <ele>432.636</ele>
        <time>1970-01-01T01:00:00Z</time>
      </trkpt>
      <trkpt lat="61.138347" lon="13.962234">
        <ele>432.455</ele>
        <time>1970-01-01T01:00:00Z</time>
      </trkpt>
      <trkpt lat="61.138294" lon="13.962438">
        <ele>432.364</ele>
        <time>1970-01-01T01:00:00Z</time>
      </trkpt>
      <trkpt lat="61.138256" lon="13.962656">
        <ele>432.273</ele>
        <time>1970-01-01T01:00:00Z</time>
      </trkpt>
      <trkpt lat="61.138229" lon="13.962858">
        <ele>432.182</ele>
        <time>1970-01-01T01:00:00Z</time>
      </trkpt>
      <trkpt lat="61.138202" lon="13.963018">
        <ele>432.091</ele>
        <time>1970-01-01T01:00:00Z</time>
      </trkpt>
      <trkpt lat="61.138168" lon="13.963269">
        <ele>431.909</ele>
        <time>1970-01-01T01:00:00Z</time>
      </trkpt>
      <trkpt lat="61.13816" lon="13.963315">
        <ele>432.364</ele>
        <time>1970-01-01T01:00:00Z</time>
      </trkpt>
      <trkpt lat="61.138126" lon="13.963461">
        <ele>432.818</ele>
        <time>1970-01-01T01:00:00Z</time>
      </trkpt>
      <trkpt lat="61.138114" lon="13.963501">
        <ele>433.182</ele>
        <time>1970-01-01T01:00:00Z</time>
      </trkpt>
      <trkpt lat="61.138057" lon="13.963705">
        <ele>433.545</ele>
        <time>1970-01-01T01:00:00Z</time>
      </trkpt>
      <trkpt lat="61.137996" lon="13.963884">
        <ele>433.909</ele>
        <time>1970-01-01T01:00:00Z</time>
      </trkpt>
      <trkpt lat="61.137931" lon="13.964153">
        <ele>434.273</ele>
        <time>1970-01-01T01:00:00Z</time>
      </trkpt>
      <trkpt lat="61.137882" lon="13.96444">
        <ele>434.091</ele>
        <time>1970-01-01T01:00:00Z</time>
      </trkpt>
      <trkpt lat="61.137844" lon="13.964756">
        <ele>433.818</ele>
        <time>1970-01-01T01:00:00Z</time>
      </trkpt>
      <trkpt lat="61.137878" lon="13.965027">
        <ele>433.545</ele>
        <time>1970-01-01T01:00:00Z</time>
      </trkpt>
      <trkpt lat="61.137931" lon="13.965241">
        <ele>433.273</ele>
        <time>1970-01-01T01:00:00Z</time>
      </trkpt>
      <trkpt lat="61.137966" lon="13.96535">
        <ele>433</ele>
        <time>1970-01-01T01:00:00Z</time>
      </trkpt>
      <trkpt lat="61.138" lon="13.965462">
        <ele>432.182</ele>
        <time>1970-01-01T01:00:00Z</time>
      </trkpt>
      <trkpt lat="61.138053" lon="13.965906">
        <ele>431.364</ele>
        <time>1970-01-01T01:00:00Z</time>
      </trkpt>
      <trkpt lat="61.138038" lon="13.966198">
        <ele>430.545</ele>
        <time>1970-01-01T01:00:00Z</time>
      </trkpt>
      <trkpt lat="61.138042" lon="13.966293">
        <ele>430.273</ele>
        <time>1970-01-01T01:00:00Z</time>
      </trkpt>
      <trkpt lat="61.138103" lon="13.966596">
        <ele>430</ele>
        <time>1970-01-01T01:00:00Z</time>
      </trkpt>
      <trkpt lat="61.138137" lon="13.966785">
        <ele>429.727</ele>
        <time>1970-01-01T01:00:00Z</time>
      </trkpt>
      <trkpt lat="61.138092" lon="13.967069">
        <ele>430</ele>
        <time>1970-01-01T01:00:00Z</time>
      </trkpt>
      <trkpt lat="61.138011" lon="13.967243">
        <ele>430.364</ele>
        <time>1970-01-01T01:00:00Z</time>
      </trkpt>
      <trkpt lat="61.137912" lon="13.96744">
        <ele>430.545</ele>
        <time>1970-01-01T01:00:00Z</time>
      </trkpt>
      <trkpt lat="61.137878" lon="13.96752">
        <ele>430.727</ele>
        <time>1970-01-01T01:00:00Z</time>
      </trkpt>
      <trkpt lat="61.137752" lon="13.967699">
        <ele>431</ele>
        <time>1970-01-01T01:00:00Z</time>
      </trkpt>
      <trkpt lat="61.137657" lon="13.96788">
        <ele>431.273</ele>
        <time>1970-01-01T01:00:00Z</time>
      </trkpt>
      <trkpt lat="61.137611" lon="13.967912">
        <ele>432</ele>
        <time>1970-01-01T01:00:00Z</time>
      </trkpt>
      <trkpt lat="61.137428" lon="13.968111">
        <ele>432.727</ele>
        <time>1970-01-01T01:00:00Z</time>
      </trkpt>
      <trkpt lat="61.137298" lon="13.968344">
        <ele>432.909</ele>
        <time>1970-01-01T01:00:00Z</time>
      </trkpt>
      <trkpt lat="61.137241" lon="13.968457">
        <ele>433.091</ele>
        <time>1970-01-01T01:00:00Z</time>
      </trkpt>
      <trkpt lat="61.137126" lon="13.968605">
        <ele>433.273</ele>
        <time>1970-01-01T01:00:00Z</time>
      </trkpt>
      <trkpt lat="61.137008" lon="13.96871">
        <ele>433.455</ele>
        <time>1970-01-01T01:00:00Z</time>
      </trkpt>
      <trkpt lat="61.13692" lon="13.968819">
        <ele>433.545</ele>
        <time>1970-01-01T01:00:00Z</time>
      </trkpt>
      <trkpt lat="61.136898" lon="13.96883">
        <ele>433.818</ele>
        <time>1970-01-01T01:00:00Z</time>
      </trkpt>
      <trkpt lat="61.136798" lon="13.968972">
        <ele>434.091</ele>
        <time>1970-01-01T01:00:00Z</time>
      </trkpt>
      <trkpt lat="61.136722" lon="13.969123">
        <ele>434.364</ele>
        <time>1970-01-01T01:00:00Z</time>
      </trkpt>
      <trkpt lat="61.136547" lon="13.969342">
        <ele>434.545</ele>
        <time>1970-01-01T01:00:00Z</time>
      </trkpt>
      <trkpt lat="61.136493" lon="13.969685">
        <ele>434.636</ele>
        <time>1970-01-01T01:00:00Z</time>
      </trkpt>
      <trkpt lat="61.13644" lon="13.969901">
        <ele>434.818</ele>
        <time>1970-01-01T01:00:00Z</time>
      </trkpt>
      <trkpt lat="61.136386" lon="13.970113">
        <ele>434.818</ele>
        <time>1970-01-01T01:00:00Z</time>
      </trkpt>
      <trkpt lat="61.136341" lon="13.970323">
        <ele>434.818</ele>
        <time>1970-01-01T01:00:00Z</time>
      </trkpt>
      <trkpt lat="61.136299" lon="13.970779">
        <ele>434.636</ele>
        <time>1970-01-01T01:00:00Z</time>
      </trkpt>
      <trkpt lat="61.136238" lon="13.971641">
        <ele>434.455</ele>
        <time>1970-01-01T01:00:00Z</time>
      </trkpt>
      <trkpt lat="61.136226" lon="13.971813">
        <ele>434.091</ele>
        <time>1970-01-01T01:00:00Z</time>
      </trkpt>
      <trkpt lat="61.136154" lon="13.972709">
        <ele>433.545</ele>
        <time>1970-01-01T01:00:00Z</time>
      </trkpt>
      <trkpt lat="61.136196" lon="13.973028">
        <ele>433</ele>
        <time>1970-01-01T01:00:00Z</time>
      </trkpt>
      <trkpt lat="61.136219" lon="13.973138">
        <ele>432.091</ele>
        <time>1970-01-01T01:00:00Z</time>
      </trkpt>
      <trkpt lat="61.136222" lon="13.973612">
        <ele>431.091</ele>
        <time>1970-01-01T01:00:00Z</time>
      </trkpt>
      <trkpt lat="61.136188" lon="13.974088">
        <ele>429.727</ele>
        <time>1970-01-01T01:00:00Z</time>
      </trkpt>
      <trkpt lat="61.136215" lon="13.974755">
        <ele>428.364</ele>
        <time>1970-01-01T01:00:00Z</time>
      </trkpt>
      <trkpt lat="61.136188" lon="13.975326">
        <ele>426.818</ele>
        <time>1970-01-01T01:00:00Z</time>
      </trkpt>
      <trkpt lat="61.136066" lon="13.976515">
        <ele>425.364</ele>
        <time>1970-01-01T01:00:00Z</time>
      </trkpt>
      <trkpt lat="61.135971" lon="13.977235">
        <ele>423.727</ele>
        <time>1970-01-01T01:00:00Z</time>
      </trkpt>
      <trkpt lat="61.135765" lon="13.977797">
        <ele>422.091</ele>
        <time>1970-01-01T01:00:00Z</time>
      </trkpt>
      <trkpt lat="61.135673" lon="13.977967">
        <ele>420.727</ele>
        <time>1970-01-01T01:00:00Z</time>
      </trkpt>
      <trkpt lat="61.135601" lon="13.978148">
        <ele>419.545</ele>
        <time>1970-01-01T01:00:00Z</time>
      </trkpt>
      <trkpt lat="61.13541" lon="13.978447">
        <ele>418.091</ele>
        <time>1970-01-01T01:00:00Z</time>
      </trkpt>
      <trkpt lat="61.135211" lon="13.978865">
        <ele>416.727</ele>
        <time>1970-01-01T01:00:00Z</time>
      </trkpt>
      <trkpt lat="61.135166" lon="13.978961">
        <ele>415.182</ele>
        <time>1970-01-01T01:00:00Z</time>
      </trkpt>
      <trkpt lat="61.13507" lon="13.979356">
        <ele>413.636</ele>
        <time>1970-01-01T01:00:00Z</time>
      </trkpt>
      <trkpt lat="61.135005" lon="13.979592">
        <ele>412.091</ele>
        <time>1970-01-01T01:00:00Z</time>
      </trkpt>
      <trkpt lat="61.134937" lon="13.979845">
        <ele>410.636</ele>
        <time>1970-01-01T01:00:00Z</time>
      </trkpt>
      <trkpt lat="61.134819" lon="13.980643">
        <ele>409.091</ele>
        <time>1970-01-01T01:00:00Z</time>
      </trkpt>
      <trkpt lat="61.134777" lon="13.981372">
        <ele>407.636</ele>
        <time>1970-01-01T01:00:00Z</time>
      </trkpt>
      <trkpt lat="61.134773" lon="13.981628">
        <ele>406.182</ele>
        <time>1970-01-01T01:00:00Z</time>
      </trkpt>
      <trkpt lat="61.134769" lon="13.982167">
        <ele>404.545</ele>
        <time>1970-01-01T01:00:00Z</time>
      </trkpt>
      <trkpt lat="61.134746" lon="13.982529">
        <ele>402.909</ele>
        <time>1970-01-01T01:00:00Z</time>
      </trkpt>
      <trkpt lat="61.134746" lon="13.982715">
        <ele>401.545</ele>
        <time>1970-01-01T01:00:00Z</time>
      </trkpt>
      <trkpt lat="61.134738" lon="13.983301">
        <ele>400.455</ele>
        <time>1970-01-01T01:00:00Z</time>
      </trkpt>
      <trkpt lat="61.134723" lon="13.983434">
        <ele>399.455</ele>
        <time>1970-01-01T01:00:00Z</time>
      </trkpt>
      <trkpt lat="61.134681" lon="13.983942">
        <ele>398.455</ele>
        <time>1970-01-01T01:00:00Z</time>
      </trkpt>
      <trkpt lat="61.13467" lon="13.984175">
        <ele>397.182</ele>
        <time>1970-01-01T01:00:00Z</time>
      </trkpt>
      <trkpt lat="61.134674" lon="13.984536">
        <ele>396.182</ele>
        <time>1970-01-01T01:00:00Z</time>
      </trkpt>
      <trkpt lat="61.13467" lon="13.984648">
        <ele>395.182</ele>
        <time>1970-01-01T01:00:00Z</time>
      </trkpt>
      <trkpt lat="61.134628" lon="13.98515">
        <ele>394.455</ele>
        <time>1970-01-01T01:00:00Z</time>
      </trkpt>
      <trkpt lat="61.134647" lon="13.985473">
        <ele>393.727</ele>
        <time>1970-01-01T01:00:00Z</time>
      </trkpt>
      <trkpt lat="61.134693" lon="13.985695">
        <ele>393.182</ele>
        <time>1970-01-01T01:00:00Z</time>
      </trkpt>
      <trkpt lat="61.134696" lon="13.985815">
        <ele>392.636</ele>
        <time>1970-01-01T01:00:00Z</time>
      </trkpt>
      <trkpt lat="61.134716" lon="13.985906">
        <ele>392.091</ele>
        <time>1970-01-01T01:00:00Z</time>
      </trkpt>
      <trkpt lat="61.134723" lon="13.985989">
        <ele>391.273</ele>
        <time>1970-01-01T01:00:00Z</time>
      </trkpt>
      <trkpt lat="61.134735" lon="13.986019">
        <ele>390.727</ele>
        <time>1970-01-01T01:00:00Z</time>
      </trkpt>
      <trkpt lat="61.134788" lon="13.986093">
        <ele>390.182</ele>
        <time>1970-01-01T01:00:00Z</time>
      </trkpt>
      <trkpt lat="61.134918" lon="13.986287">
        <ele>389.909</ele>
        <time>1970-01-01T01:00:00Z</time>
      </trkpt>
      <trkpt lat="61.134948" lon="13.986312">
        <ele>389.364</ele>
        <time>1970-01-01T01:00:00Z</time>
      </trkpt>
      <trkpt lat="61.135005" lon="13.986424">
        <ele>388.818</ele>
        <time>1970-01-01T01:00:00Z</time>
      </trkpt>
      <trkpt lat="61.135009" lon="13.986703">
        <ele>388</ele>
        <time>1970-01-01T01:00:00Z</time>
      </trkpt>
      <trkpt lat="61.134979" lon="13.986881">
        <ele>387.182</ele>
        <time>1970-01-01T01:00:00Z</time>
      </trkpt>
      <trkpt lat="61.134967" lon="13.98696">
        <ele>386.364</ele>
        <time>1970-01-01T01:00:00Z</time>
      </trkpt>
      <trkpt lat="61.134952" lon="13.987277">
        <ele>385.455</ele>
        <time>1970-01-01T01:00:00Z</time>
      </trkpt>
      <trkpt lat="61.134925" lon="13.987598">
        <ele>384.545</ele>
        <time>1970-01-01T01:00:00Z</time>
      </trkpt>
      <trkpt lat="61.134883" lon="13.988254">
        <ele>383.818</ele>
        <time>1970-01-01T01:00:00Z</time>
      </trkpt>
      <trkpt lat="61.134868" lon="13.988534">
        <ele>383.091</ele>
        <time>1970-01-01T01:00:00Z</time>
      </trkpt>
      <trkpt lat="61.13486" lon="13.988677">
        <ele>382.364</ele>
        <time>1970-01-01T01:00:00Z</time>
      </trkpt>
      <trkpt lat="61.134838" lon="13.988924">
        <ele>381.182</ele>
        <time>1970-01-01T01:00:00Z</time>
      </trkpt>
      <trkpt lat="61.134792" lon="13.989324">
        <ele>380.273</ele>
        <time>1970-01-01T01:00:00Z</time>
      </trkpt>
      <trkpt lat="61.134757" lon="13.989662">
        <ele>379.364</ele>
        <time>1970-01-01T01:00:00Z</time>
      </trkpt>
      <trkpt lat="61.134731" lon="13.989867">
        <ele>378.545</ele>
        <time>1970-01-01T01:00:00Z</time>
      </trkpt>
      <trkpt lat="61.134677" lon="13.990271">
        <ele>377.727</ele>
        <time>1970-01-01T01:00:00Z</time>
      </trkpt>
      <trkpt lat="61.134605" lon="13.990639">
        <ele>376.909</ele>
        <time>1970-01-01T01:00:00Z</time>
      </trkpt>
      <trkpt lat="61.134559" lon="13.990895">
        <ele>375.909</ele>
        <time>1970-01-01T01:00:00Z</time>
      </trkpt>
      <trkpt lat="61.134498" lon="13.991189">
        <ele>374.909</ele>
        <time>1970-01-01T01:00:00Z</time>
      </trkpt>
      <trkpt lat="61.134395" lon="13.991538">
        <ele>374</ele>
        <time>1970-01-01T01:00:00Z</time>
      </trkpt>
      <trkpt lat="61.134315" lon="13.991687">
        <ele>373.091</ele>
        <time>1970-01-01T01:00:00Z</time>
      </trkpt>
      <trkpt lat="61.134136" lon="13.992024">
        <ele>372.182</ele>
        <time>1970-01-01T01:00:00Z</time>
      </trkpt>
      <trkpt lat="61.134014" lon="13.992265">
        <ele>371.273</ele>
        <time>1970-01-01T01:00:00Z</time>
      </trkpt>
      <trkpt lat="61.133956" lon="13.992417">
        <ele>370.364</ele>
        <time>1970-01-01T01:00:00Z</time>
      </trkpt>
      <trkpt lat="61.133876" lon="13.992705">
        <ele>369.455</ele>
        <time>1970-01-01T01:00:00Z</time>
      </trkpt>
      <trkpt lat="61.133853" lon="13.992804">
        <ele>368.636</ele>
        <time>1970-01-01T01:00:00Z</time>
      </trkpt>
      <trkpt lat="61.133838" lon="13.992864">
        <ele>367.818</ele>
        <time>1970-01-01T01:00:00Z</time>
      </trkpt>
      <trkpt lat="61.133781" lon="13.993118">
        <ele>367</ele>
        <time>1970-01-01T01:00:00Z</time>
      </trkpt>
      <trkpt lat="61.133705" lon="13.993503">
        <ele>366.364</ele>
        <time>1970-01-01T01:00:00Z</time>
      </trkpt>
      <trkpt lat="61.133609" lon="13.993762">
        <ele>365.727</ele>
        <time>1970-01-01T01:00:00Z</time>
      </trkpt>
      <trkpt lat="61.133514" lon="13.994031">
        <ele>365.091</ele>
        <time>1970-01-01T01:00:00Z</time>
      </trkpt>
      <trkpt lat="61.133449" lon="13.994261">
        <ele>364.273</ele>
        <time>1970-01-01T01:00:00Z</time>
      </trkpt>
      <trkpt lat="61.133438" lon="13.994485">
        <ele>363.455</ele>
        <time>1970-01-01T01:00:00Z</time>
      </trkpt>
      <trkpt lat="61.133403" lon="13.9949">
        <ele>363.091</ele>
        <time>1970-01-01T01:00:00Z</time>
      </trkpt>
      <trkpt lat="61.133392" lon="13.994968">
        <ele>362.545</ele>
        <time>1970-01-01T01:00:00Z</time>
      </trkpt>
      <trkpt lat="61.133365" lon="13.995344">
        <ele>362</ele>
        <time>1970-01-01T01:00:00Z</time>
      </trkpt>
      <trkpt lat="61.133365" lon="13.995515">
        <ele>361.545</ele>
        <time>1970-01-01T01:00:00Z</time>
      </trkpt>
      <trkpt lat="61.133388" lon="13.995867">
        <ele>360.818</ele>
        <time>1970-01-01T01:00:00Z</time>
      </trkpt>
      <trkpt lat="61.133388" lon="13.996208">
        <ele>360.091</ele>
        <time>1970-01-01T01:00:00Z</time>
      </trkpt>
      <trkpt lat="61.133361" lon="13.996421">
        <ele>359.455</ele>
        <time>1970-01-01T01:00:00Z</time>
      </trkpt>
      <trkpt lat="61.133323" lon="13.996638">
        <ele>358.545</ele>
        <time>1970-01-01T01:00:00Z</time>
      </trkpt>
      <trkpt lat="61.133239" lon="13.997137">
        <ele>357.636</ele>
        <time>1970-01-01T01:00:00Z</time>
      </trkpt>
      <trkpt lat="61.133235" lon="13.997225">
        <ele>356.909</ele>
        <time>1970-01-01T01:00:00Z</time>
      </trkpt>
      <trkpt lat="61.133205" lon="13.997496">
        <ele>356.182</ele>
        <time>1970-01-01T01:00:00Z</time>
      </trkpt>
      <trkpt lat="61.133205" lon="13.997708">
        <ele>355.273</ele>
        <time>1970-01-01T01:00:00Z</time>
      </trkpt>
      <trkpt lat="61.133216" lon="13.998108">
        <ele>354.545</ele>
        <time>1970-01-01T01:00:00Z</time>
      </trkpt>
      <trkpt lat="61.133213" lon="13.998311">
        <ele>353.818</ele>
        <time>1970-01-01T01:00:00Z</time>
      </trkpt>
      <trkpt lat="61.133159" lon="13.998521">
        <ele>353.091</ele>
        <time>1970-01-01T01:00:00Z</time>
      </trkpt>
      <trkpt lat="61.133129" lon="13.998654">
        <ele>352.636</ele>
        <time>1970-01-01T01:00:00Z</time>
      </trkpt>
      <trkpt lat="61.132984" lon="13.998971">
        <ele>352</ele>
        <time>1970-01-01T01:00:00Z</time>
      </trkpt>
      <trkpt lat="61.132953" lon="13.999064">
        <ele>351.364</ele>
        <time>1970-01-01T01:00:00Z</time>
      </trkpt>
      <trkpt lat="61.132919" lon="13.999154">
        <ele>350.818</ele>
        <time>1970-01-01T01:00:00Z</time>
      </trkpt>
      <trkpt lat="61.132888" lon="13.99924">
        <ele>350.273</ele>
        <time>1970-01-01T01:00:00Z</time>
      </trkpt>
      <trkpt lat="61.132831" lon="13.999433">
        <ele>349.364</ele>
        <time>1970-01-01T01:00:00Z</time>
      </trkpt>
      <trkpt lat="61.13277" lon="13.999635">
        <ele>348.455</ele>
        <time>1970-01-01T01:00:00Z</time>
      </trkpt>
      <trkpt lat="61.132667" lon="13.999905">
        <ele>347.727</ele>
        <time>1970-01-01T01:00:00Z</time>
      </trkpt>
      <trkpt lat="61.132369" lon="14.000532">
        <ele>346.818</ele>
        <time>1970-01-01T01:00:00Z</time>
      </trkpt>
      <trkpt lat="61.132209" lon="14.001029">
        <ele>345.818</ele>
        <time>1970-01-01T01:00:00Z</time>
      </trkpt>
      <trkpt lat="61.13198" lon="14.00149">
        <ele>344.636</ele>
        <time>1970-01-01T01:00:00Z</time>
      </trkpt>
      <trkpt lat="61.13171" lon="14.00196">
        <ele>343.455</ele>
        <time>1970-01-01T01:00:00Z</time>
      </trkpt>
      <trkpt lat="61.131595" lon="14.002103">
        <ele>342.455</ele>
        <time>1970-01-01T01:00:00Z</time>
      </trkpt>
      <trkpt lat="61.131309" lon="14.002315">
        <ele>341</ele>
        <time>1970-01-01T01:00:00Z</time>
      </trkpt>
      <trkpt lat="61.131076" lon="14.002766">
        <ele>339.727</ele>
        <time>1970-01-01T01:00:00Z</time>
      </trkpt>
      <trkpt lat="61.130825" lon="14.003295">
        <ele>338.455</ele>
        <time>1970-01-01T01:00:00Z</time>
      </trkpt>
      <trkpt lat="61.130695" lon="14.00352">
        <ele>337.545</ele>
        <time>1970-01-01T01:00:00Z</time>
      </trkpt>
      <trkpt lat="61.130622" lon="14.003629">
        <ele>336.636</ele>
        <time>1970-01-01T01:00:00Z</time>
      </trkpt>
      <trkpt lat="61.130321" lon="14.003955">
        <ele>335.727</ele>
        <time>1970-01-01T01:00:00Z</time>
      </trkpt>
      <trkpt lat="61.130252" lon="14.004011">
        <ele>334.818</ele>
        <time>1970-01-01T01:00:00Z</time>
      </trkpt>
      <trkpt lat="61.129985" lon="14.004321">
        <ele>334</ele>
        <time>1970-01-01T01:00:00Z</time>
      </trkpt>
      <trkpt lat="61.12994" lon="14.004364">
        <ele>333.364</ele>
        <time>1970-01-01T01:00:00Z</time>
      </trkpt>
      <trkpt lat="61.129848" lon="14.00454">
        <ele>332.364</ele>
        <time>1970-01-01T01:00:00Z</time>
      </trkpt>
      <trkpt lat="61.129814" lon="14.004606">
        <ele>331.364</ele>
        <time>1970-01-01T01:00:00Z</time>
      </trkpt>
      <trkpt lat="61.129722" lon="14.00474">
        <ele>330.818</ele>
        <time>1970-01-01T01:00:00Z</time>
      </trkpt>
      <trkpt lat="61.129688" lon="14.004819">
        <ele>330.182</ele>
        <time>1970-01-01T01:00:00Z</time>
      </trkpt>
      <trkpt lat="61.129669" lon="14.004907">
        <ele>329.545</ele>
        <time>1970-01-01T01:00:00Z</time>
      </trkpt>
      <trkpt lat="61.129623" lon="14.005125">
        <ele>328.818</ele>
        <time>1970-01-01T01:00:00Z</time>
      </trkpt>
      <trkpt lat="61.129577" lon="14.005347">
        <ele>328.091</ele>
        <time>1970-01-01T01:00:00Z</time>
      </trkpt>
      <trkpt lat="61.129554" lon="14.005459">
        <ele>327.364</ele>
        <time>1970-01-01T01:00:00Z</time>
      </trkpt>
      <trkpt lat="61.129409" lon="14.005998">
        <ele>326.818</ele>
        <time>1970-01-01T01:00:00Z</time>
      </trkpt>
      <trkpt lat="61.129325" lon="14.00618">
        <ele>325.909</ele>
        <time>1970-01-01T01:00:00Z</time>
      </trkpt>
      <trkpt lat="61.129158" lon="14.00647">
        <ele>325</ele>
        <time>1970-01-01T01:00:00Z</time>
      </trkpt>
      <trkpt lat="61.129119" lon="14.006545">
        <ele>324.455</ele>
        <time>1970-01-01T01:00:00Z</time>
      </trkpt>
      <trkpt lat="61.129035" lon="14.006677">
        <ele>323.909</ele>
        <time>1970-01-01T01:00:00Z</time>
      </trkpt>
      <trkpt lat="61.128845" lon="14.006972">
        <ele>323.364</ele>
        <time>1970-01-01T01:00:00Z</time>
      </trkpt>
      <trkpt lat="61.128658" lon="14.007395">
        <ele>322.909</ele>
        <time>1970-01-01T01:00:00Z</time>
      </trkpt>
      <trkpt lat="61.12852" lon="14.007752">
        <ele>322.455</ele>
        <time>1970-01-01T01:00:00Z</time>
      </trkpt>
      <trkpt lat="61.12841" lon="14.008075">
        <ele>322</ele>
        <time>1970-01-01T01:00:00Z</time>
      </trkpt>
      <trkpt lat="61.128356" lon="14.008211">
        <ele>321.545</ele>
        <time>1970-01-01T01:00:00Z</time>
      </trkpt>
      <trkpt lat="61.128265" lon="14.008428">
        <ele>321.091</ele>
        <time>1970-01-01T01:00:00Z</time>
      </trkpt>
      <trkpt lat="61.128108" lon="14.008868">
        <ele>320.636</ele>
        <time>1970-01-01T01:00:00Z</time>
      </trkpt>
      <trkpt lat="61.127983" lon="14.009549">
        <ele>320.455</ele>
        <time>1970-01-01T01:00:00Z</time>
      </trkpt>
      <trkpt lat="61.127822" lon="14.01002">
        <ele>320.273</ele>
        <time>1970-01-01T01:00:00Z</time>
      </trkpt>
      <trkpt lat="61.127651" lon="14.010445">
        <ele>319.909</ele>
        <time>1970-01-01T01:00:00Z</time>
      </trkpt>
      <trkpt lat="61.127609" lon="14.010897">
        <ele>319.545</ele>
        <time>1970-01-01T01:00:00Z</time>
      </trkpt>
      <trkpt lat="61.127628" lon="14.011014">
        <ele>319.182</ele>
        <time>1970-01-01T01:00:00Z</time>
      </trkpt>
      <trkpt lat="61.127693" lon="14.011721">
        <ele>318.545</ele>
        <time>1970-01-01T01:00:00Z</time>
      </trkpt>
      <trkpt lat="61.127693" lon="14.011814">
        <ele>317.909</ele>
        <time>1970-01-01T01:00:00Z</time>
      </trkpt>
      <trkpt lat="61.127758" lon="14.012229">
        <ele>317.364</ele>
        <time>1970-01-01T01:00:00Z</time>
      </trkpt>
      <trkpt lat="61.127777" lon="14.012554">
        <ele>316.636</ele>
        <time>1970-01-01T01:00:00Z</time>
      </trkpt>
      <trkpt lat="61.127765" lon="14.012927">
        <ele>315.909</ele>
        <time>1970-01-01T01:00:00Z</time>
      </trkpt>
      <trkpt lat="61.127716" lon="14.013236">
        <ele>315.182</ele>
        <time>1970-01-01T01:00:00Z</time>
      </trkpt>
      <trkpt lat="61.127693" lon="14.013332">
        <ele>314.545</ele>
        <time>1970-01-01T01:00:00Z</time>
      </trkpt>
      <trkpt lat="61.127597" lon="14.013633">
        <ele>313.909</ele>
        <time>1970-01-01T01:00:00Z</time>
      </trkpt>
      <trkpt lat="61.127529" lon="14.01408">
        <ele>313.455</ele>
        <time>1970-01-01T01:00:00Z</time>
      </trkpt>
      <trkpt lat="61.127525" lon="14.014186">
        <ele>313</ele>
        <time>1970-01-01T01:00:00Z</time>
      </trkpt>
      <trkpt lat="61.127517" lon="14.014342">
        <ele>312.364</ele>
        <time>1970-01-01T01:00:00Z</time>
      </trkpt>
      <trkpt lat="61.12751" lon="14.01445">
        <ele>312</ele>
        <time>1970-01-01T01:00:00Z</time>
      </trkpt>
      <trkpt lat="61.12751" lon="14.014512">
        <ele>311.636</ele>
        <time>1970-01-01T01:00:00Z</time>
      </trkpt>
      <trkpt lat="61.12751" lon="14.014568">
        <ele>311.273</ele>
        <time>1970-01-01T01:00:00Z</time>
      </trkpt>
      <trkpt lat="61.127502" lon="14.014621">
        <ele>310.909</ele>
        <time>1970-01-01T01:00:00Z</time>
      </trkpt>
      <trkpt lat="61.12749" lon="14.01476">
        <ele>310.545</ele>
        <time>1970-01-01T01:00:00Z</time>
      </trkpt>
      <trkpt lat="61.12749" lon="14.014807">
        <ele>310.182</ele>
        <time>1970-01-01T01:00:00Z</time>
      </trkpt>
      <trkpt lat="61.12749" lon="14.014863">
        <ele>309.818</ele>
        <time>1970-01-01T01:00:00Z</time>
      </trkpt>
      <trkpt lat="61.127521" lon="14.015037">
        <ele>309.273</ele>
        <time>1970-01-01T01:00:00Z</time>
      </trkpt>
      <trkpt lat="61.127506" lon="14.015573">
        <ele>308.545</ele>
        <time>1970-01-01T01:00:00Z</time>
      </trkpt>
      <trkpt lat="61.127437" lon="14.015921">
        <ele>307.636</ele>
        <time>1970-01-01T01:00:00Z</time>
      </trkpt>
      <trkpt lat="61.127407" lon="14.016064">
        <ele>306.909</ele>
        <time>1970-01-01T01:00:00Z</time>
      </trkpt>
      <trkpt lat="61.127384" lon="14.01622">
        <ele>306.182</ele>
        <time>1970-01-01T01:00:00Z</time>
      </trkpt>
      <trkpt lat="61.127365" lon="14.016381">
        <ele>305.455</ele>
        <time>1970-01-01T01:00:00Z</time>
      </trkpt>
      <trkpt lat="61.127269" lon="14.017414">
        <ele>304.545</ele>
        <time>1970-01-01T01:00:00Z</time>
      </trkpt>
      <trkpt lat="61.127143" lon="14.017995">
        <ele>303.818</ele>
        <time>1970-01-01T01:00:00Z</time>
      </trkpt>
      <trkpt lat="61.127002" lon="14.018393">
        <ele>303.091</ele>
        <time>1970-01-01T01:00:00Z</time>
      </trkpt>
      <trkpt lat="61.126884" lon="14.018588">
        <ele>302.364</ele>
        <time>1970-01-01T01:00:00Z</time>
      </trkpt>
      <trkpt lat="61.126838" lon="14.018715">
        <ele>301.636</ele>
        <time>1970-01-01T01:00:00Z</time>
      </trkpt>
      <trkpt lat="61.126789" lon="14.019034">
        <ele>301.091</ele>
        <time>1970-01-01T01:00:00Z</time>
      </trkpt>
      <trkpt lat="61.126785" lon="14.019137">
        <ele>300.727</ele>
        <time>1970-01-01T01:00:00Z</time>
      </trkpt>
      <trkpt lat="61.126781" lon="14.01925">
        <ele>300.545</ele>
        <time>1970-01-01T01:00:00Z</time>
      </trkpt>
      <trkpt lat="61.12677" lon="14.019579">
        <ele>300.364</ele>
        <time>1970-01-01T01:00:00Z</time>
      </trkpt>
      <trkpt lat="61.12677" lon="14.019742">
        <ele>300.182</ele>
        <time>1970-01-01T01:00:00Z</time>
      </trkpt>
      <trkpt lat="61.126762" lon="14.019854">
        <ele>299.909</ele>
        <time>1970-01-01T01:00:00Z</time>
      </trkpt>
      <trkpt lat="61.12677" lon="14.020211">
        <ele>299.818</ele>
        <time>1970-01-01T01:00:00Z</time>
      </trkpt>
      <trkpt lat="61.126708" lon="14.020646">
        <ele>299.636</ele>
        <time>1970-01-01T01:00:00Z</time>
      </trkpt>
      <trkpt lat="61.126674" lon="14.020767">
        <ele>299.455</ele>
        <time>1970-01-01T01:00:00Z</time>
      </trkpt>
      <trkpt lat="61.126567" lon="14.021238">
        <ele>299.273</ele>
        <time>1970-01-01T01:00:00Z</time>
      </trkpt>
      <trkpt lat="61.126552" lon="14.021341">
        <ele>299.091</ele>
        <time>1970-01-01T01:00:00Z</time>
      </trkpt>
      <trkpt lat="61.126476" lon="14.021902">
        <ele>298.909</ele>
        <time>1970-01-01T01:00:00Z</time>
      </trkpt>
      <trkpt lat="61.126441" lon="14.022385">
        <ele>298.727</ele>
        <time>1970-01-01T01:00:00Z</time>
      </trkpt>
      <trkpt lat="61.126449" lon="14.022509">
        <ele>298.545</ele>
        <time>1970-01-01T01:00:00Z</time>
      </trkpt>
      <trkpt lat="61.126483" lon="14.022809">
        <ele>298.273</ele>
        <time>1970-01-01T01:00:00Z</time>
      </trkpt>
      <trkpt lat="61.126525" lon="14.023072">
        <ele>298</ele>
        <time>1970-01-01T01:00:00Z</time>
      </trkpt>
      <trkpt lat="61.126575" lon="14.023206">
        <ele>297.727</ele>
        <time>1970-01-01T01:00:00Z</time>
      </trkpt>
      <trkpt lat="61.126602" lon="14.023262">
        <ele>297.455</ele>
        <time>1970-01-01T01:00:00Z</time>
      </trkpt>
      <trkpt lat="61.126747" lon="14.023616">
        <ele>297.273</ele>
        <time>1970-01-01T01:00:00Z</time>
      </trkpt>
      <trkpt lat="61.126857" lon="14.024173">
        <ele>297.091</ele>
        <time>1970-01-01T01:00:00Z</time>
      </trkpt>
      <trkpt lat="61.126853" lon="14.024383">
        <ele>296.909</ele>
        <time>1970-01-01T01:00:00Z</time>
      </trkpt>
      <trkpt lat="61.126815" lon="14.024866">
        <ele>296.727</ele>
        <time>1970-01-01T01:00:00Z</time>
      </trkpt>
      <trkpt lat="61.126823" lon="14.025056">
        <ele>296.545</ele>
        <time>1970-01-01T01:00:00Z</time>
      </trkpt>
      <trkpt lat="61.12677" lon="14.025396">
        <ele>296.273</ele>
        <time>1970-01-01T01:00:00Z</time>
      </trkpt>
      <trkpt lat="61.126678" lon="14.025621">
        <ele>296</ele>
        <time>1970-01-01T01:00:00Z</time>
      </trkpt>
      <trkpt lat="61.126571" lon="14.025794">
        <ele>295.818</ele>
        <time>1970-01-01T01:00:00Z</time>
      </trkpt>
      <trkpt lat="61.126506" lon="14.026037">
        <ele>295.636</ele>
        <time>1970-01-01T01:00:00Z</time>
      </trkpt>
      <trkpt lat="61.126457" lon="14.026227">
        <ele>295.545</ele>
        <time>1970-01-01T01:00:00Z</time>
      </trkpt>
      <trkpt lat="61.126411" lon="14.026412">
        <ele>295.455</ele>
        <time>1970-01-01T01:00:00Z</time>
      </trkpt>
      <trkpt lat="61.126407" lon="14.026465">
        <ele>295.364</ele>
        <time>1970-01-01T01:00:00Z</time>
      </trkpt>
      <trkpt lat="61.126392" lon="14.026578">
        <ele>295.182</ele>
        <time>1970-01-01T01:00:00Z</time>
      </trkpt>
      <trkpt lat="61.12638" lon="14.026635">
        <ele>295</ele>
        <time>1970-01-01T01:00:00Z</time>
      </trkpt>
      <trkpt lat="61.126377" lon="14.026694">
        <ele>294.818</ele>
        <time>1970-01-01T01:00:00Z</time>
      </trkpt>
      <trkpt lat="61.126361" lon="14.026824">
        <ele>294.636</ele>
        <time>1970-01-01T01:00:00Z</time>
      </trkpt>
      <trkpt lat="61.126342" lon="14.027047">
        <ele>294.455</ele>
        <time>1970-01-01T01:00:00Z</time>
      </trkpt>
      <trkpt lat="61.126327" lon="14.027257">
        <ele>294.273</ele>
        <time>1970-01-01T01:00:00Z</time>
      </trkpt>
      <trkpt lat="61.126323" lon="14.02744">
        <ele>294.091</ele>
        <time>1970-01-01T01:00:00Z</time>
      </trkpt>
      <trkpt lat="61.126338" lon="14.02773">
        <ele>293.818</ele>
        <time>1970-01-01T01:00:00Z</time>
      </trkpt>
      <trkpt lat="61.126369" lon="14.027948">
        <ele>293.545</ele>
        <time>1970-01-01T01:00:00Z</time>
      </trkpt>
      <trkpt lat="61.12638" lon="14.028184">
        <ele>293.273</ele>
        <time>1970-01-01T01:00:00Z</time>
      </trkpt>
      <trkpt lat="61.126396" lon="14.028447">
        <ele>293</ele>
        <time>1970-01-01T01:00:00Z</time>
      </trkpt>
      <trkpt lat="61.126396" lon="14.028778">
        <ele>292.818</ele>
        <time>1970-01-01T01:00:00Z</time>
      </trkpt>
      <trkpt lat="61.12638" lon="14.029017">
        <ele>292.545</ele>
        <time>1970-01-01T01:00:00Z</time>
      </trkpt>
      <trkpt lat="61.126369" lon="14.029187">
        <ele>292.273</ele>
        <time>1970-01-01T01:00:00Z</time>
      </trkpt>
      <trkpt lat="61.126365" lon="14.029315">
        <ele>292</ele>
        <time>1970-01-01T01:00:00Z</time>
      </trkpt>
      <trkpt lat="61.126365" lon="14.029378">
        <ele>291.727</ele>
        <time>1970-01-01T01:00:00Z</time>
      </trkpt>
      <trkpt lat="61.126358" lon="14.029454">
        <ele>291.455</ele>
        <time>1970-01-01T01:00:00Z</time>
      </trkpt>
      <trkpt lat="61.126319" lon="14.029761">
        <ele>291.182</ele>
        <time>1970-01-01T01:00:00Z</time>
      </trkpt>
      <trkpt lat="61.126331" lon="14.030133">
        <ele>290.818</ele>
        <time>1970-01-01T01:00:00Z</time>
      </trkpt>
      <trkpt lat="61.126331" lon="14.030292">
        <ele>290.455</ele>
        <time>1970-01-01T01:00:00Z</time>
      </trkpt>
      <trkpt lat="61.126312" lon="14.030577">
        <ele>290.091</ele>
        <time>1970-01-01T01:00:00Z</time>
      </trkpt>
      <trkpt lat="61.126296" lon="14.030821">
        <ele>289.545</ele>
        <time>1970-01-01T01:00:00Z</time>
      </trkpt>
      <trkpt lat="61.126274" lon="14.031191">
        <ele>289</ele>
        <time>1970-01-01T01:00:00Z</time>
      </trkpt>
      <trkpt lat="61.126251" lon="14.03148">
        <ele>288.545</ele>
        <time>1970-01-01T01:00:00Z</time>
      </trkpt>
      <trkpt lat="61.126239" lon="14.031723">
        <ele>288.091</ele>
        <time>1970-01-01T01:00:00Z</time>
      </trkpt>
      <trkpt lat="61.126209" lon="14.031991">
        <ele>287.636</ele>
        <time>1970-01-01T01:00:00Z</time>
      </trkpt>
      <trkpt lat="61.126205" lon="14.032278">
        <ele>287.273</ele>
        <time>1970-01-01T01:00:00Z</time>
      </trkpt>
      <trkpt lat="61.126186" lon="14.032559">
        <ele>286.909</ele>
        <time>1970-01-01T01:00:00Z</time>
      </trkpt>
      <trkpt lat="61.12614" lon="14.032863">
        <ele>286.545</ele>
        <time>1970-01-01T01:00:00Z</time>
      </trkpt>
      <trkpt lat="61.126125" lon="14.032936">
        <ele>286.273</ele>
        <time>1970-01-01T01:00:00Z</time>
      </trkpt>
      <trkpt lat="61.126132" lon="14.033285">
        <ele>286</ele>
        <time>1970-01-01T01:00:00Z</time>
      </trkpt>
      <trkpt lat="61.126125" lon="14.033436">
        <ele>285.727</ele>
        <time>1970-01-01T01:00:00Z</time>
      </trkpt>
      <trkpt lat="61.126121" lon="14.033503">
        <ele>285.636</ele>
        <time>1970-01-01T01:00:00Z</time>
      </trkpt>
      <trkpt lat="61.126098" lon="14.033721">
        <ele>285.545</ele>
        <time>1970-01-01T01:00:00Z</time>
      </trkpt>
      <trkpt lat="61.126071" lon="14.034006">
        <ele>285.455</ele>
        <time>1970-01-01T01:00:00Z</time>
      </trkpt>
      <trkpt lat="61.126052" lon="14.034316">
        <ele>285.455</ele>
        <time>1970-01-01T01:00:00Z</time>
      </trkpt>
      <trkpt lat="61.126056" lon="14.034397">
        <ele>285.455</ele>
        <time>1970-01-01T01:00:00Z</time>
      </trkpt>
      <trkpt lat="61.126041" lon="14.034833">
        <ele>285.545</ele>
        <time>1970-01-01T01:00:00Z</time>
      </trkpt>
      <trkpt lat="61.125988" lon="14.035126">
        <ele>285.636</ele>
        <time>1970-01-01T01:00:00Z</time>
      </trkpt>
      <trkpt lat="61.125953" lon="14.035315">
        <ele>285.727</ele>
        <time>1970-01-01T01:00:00Z</time>
      </trkpt>
      <trkpt lat="61.125946" lon="14.035771">
        <ele>285.909</ele>
        <time>1970-01-01T01:00:00Z</time>
      </trkpt>
      <trkpt lat="61.125934" lon="14.036024">
        <ele>286.091</ele>
        <time>1970-01-01T01:00:00Z</time>
      </trkpt>
      <trkpt lat="61.125907" lon="14.036368">
        <ele>286.273</ele>
        <time>1970-01-01T01:00:00Z</time>
      </trkpt>
      <trkpt lat="61.125904" lon="14.036432">
        <ele>286.455</ele>
        <time>1970-01-01T01:00:00Z</time>
      </trkpt>
      <trkpt lat="61.125854" lon="14.036725">
        <ele>286.636</ele>
        <time>1970-01-01T01:00:00Z</time>
      </trkpt>
      <trkpt lat="61.125797" lon="14.036972">
        <ele>286.818</ele>
        <time>1970-01-01T01:00:00Z</time>
      </trkpt>
      <trkpt lat="61.125724" lon="14.037312">
        <ele>286.909</ele>
        <time>1970-01-01T01:00:00Z</time>
      </trkpt>
      <trkpt lat="61.125705" lon="14.037469">
        <ele>286.545</ele>
        <time>1970-01-01T01:00:00Z</time>
      </trkpt>
      <trkpt lat="61.125659" lon="14.03788">
        <ele>286.091</ele>
        <time>1970-01-01T01:00:00Z</time>
      </trkpt>
      <trkpt lat="61.125583" lon="14.038166">
        <ele>285.636</ele>
        <time>1970-01-01T01:00:00Z</time>
      </trkpt>
      <trkpt lat="61.125541" lon="14.038283">
        <ele>285.182</ele>
        <time>1970-01-01T01:00:00Z</time>
      </trkpt>
      <trkpt lat="61.125461" lon="14.038546">
        <ele>284.727</ele>
        <time>1970-01-01T01:00:00Z</time>
      </trkpt>
      <trkpt lat="61.125389" lon="14.038805">
        <ele>284.273</ele>
        <time>1970-01-01T01:00:00Z</time>
      </trkpt>
      <trkpt lat="61.125335" lon="14.038998">
        <ele>283.818</ele>
        <time>1970-01-01T01:00:00Z</time>
      </trkpt>
      <trkpt lat="61.125282" lon="14.039216">
        <ele>283.364</ele>
        <time>1970-01-01T01:00:00Z</time>
      </trkpt>
      <trkpt lat="61.125251" lon="14.039368">
        <ele>282.909</ele>
        <time>1970-01-01T01:00:00Z</time>
      </trkpt>
      <trkpt lat="61.125209" lon="14.039613">
        <ele>282.455</ele>
        <time>1970-01-01T01:00:00Z</time>
      </trkpt>
      <trkpt lat="61.125156" lon="14.039925">
        <ele>282</ele>
        <time>1970-01-01T01:00:00Z</time>
      </trkpt>
      <trkpt lat="61.125122" lon="14.040181">
        <ele>282</ele>
        <time>1970-01-01T01:00:00Z</time>
      </trkpt>
      <trkpt lat="61.12508" lon="14.040568">
        <ele>282</ele>
        <time>1970-01-01T01:00:00Z</time>
      </trkpt>
      <trkpt lat="61.125034" lon="14.040846">
        <ele>282</ele>
        <time>1970-01-01T01:00:00Z</time>
      </trkpt>
      <trkpt lat="61.125022" lon="14.040918">
        <ele>282</ele>
        <time>1970-01-01T01:00:00Z</time>
      </trkpt>
      <trkpt lat="61.125003" lon="14.041198">
        <ele>282</ele>
        <time>1970-01-01T01:00:00Z</time>
      </trkpt>
      <trkpt lat="61.124965" lon="14.0417">
        <ele>282</ele>
        <time>1970-01-01T01:00:00Z</time>
      </trkpt>
      <trkpt lat="61.124965" lon="14.042015">
        <ele>282</ele>
        <time>1970-01-01T01:00:00Z</time>
      </trkpt>
      <trkpt lat="61.124931" lon="14.042316">
        <ele>281.909</ele>
        <time>1970-01-01T01:00:00Z</time>
      </trkpt>
      <trkpt lat="61.124885" lon="14.04261">
        <ele>281.818</ele>
        <time>1970-01-01T01:00:00Z</time>
      </trkpt>
      <trkpt lat="61.124847" lon="14.042851">
        <ele>281.727</ele>
        <time>1970-01-01T01:00:00Z</time>
      </trkpt>
      <trkpt lat="61.124832" lon="14.043154">
        <ele>281.636</ele>
        <time>1970-01-01T01:00:00Z</time>
      </trkpt>
      <trkpt lat="61.124782" lon="14.043532">
        <ele>281.545</ele>
        <time>1970-01-01T01:00:00Z</time>
      </trkpt>
      <trkpt lat="61.124759" lon="14.043864">
        <ele>281.455</ele>
        <time>1970-01-01T01:00:00Z</time>
      </trkpt>
      <trkpt lat="61.124725" lon="14.04418">
        <ele>281.364</ele>
        <time>1970-01-01T01:00:00Z</time>
      </trkpt>
      <trkpt lat="61.124687" lon="14.044501">
        <ele>281.364</ele>
        <time>1970-01-01T01:00:00Z</time>
      </trkpt>
      <trkpt lat="61.124671" lon="14.04466">
        <ele>281</ele>
        <time>1970-01-01T01:00:00Z</time>
      </trkpt>
      <trkpt lat="61.124668" lon="14.044742">
        <ele>280.636</ele>
        <time>1970-01-01T01:00:00Z</time>
      </trkpt>
      <trkpt lat="61.124645" lon="14.045202">
        <ele>280.273</ele>
        <time>1970-01-01T01:00:00Z</time>
      </trkpt>
      <trkpt lat="61.124645" lon="14.045372">
        <ele>280</ele>
        <time>1970-01-01T01:00:00Z</time>
      </trkpt>
      <trkpt lat="61.124637" lon="14.045572">
        <ele>279.727</ele>
        <time>1970-01-01T01:00:00Z</time>
      </trkpt>
      <trkpt lat="61.124618" lon="14.045796">
        <ele>279.364</ele>
        <time>1970-01-01T01:00:00Z</time>
      </trkpt>
      <trkpt lat="61.12461" lon="14.04603">
        <ele>279</ele>
        <time>1970-01-01T01:00:00Z</time>
      </trkpt>
      <trkpt lat="61.124618" lon="14.04643">
        <ele>278.636</ele>
        <time>1970-01-01T01:00:00Z</time>
      </trkpt>
      <trkpt lat="61.124614" lon="14.046522">
        <ele>278.273</ele>
        <time>1970-01-01T01:00:00Z</time>
      </trkpt>
      <trkpt lat="61.124572" lon="14.046908">
        <ele>277.909</ele>
        <time>1970-01-01T01:00:00Z</time>
      </trkpt>
      <trkpt lat="61.124542" lon="14.047253">
        <ele>277.455</ele>
        <time>1970-01-01T01:00:00Z</time>
      </trkpt>
      <trkpt lat="61.124473" lon="14.047554">
        <ele>277.364</ele>
        <time>1970-01-01T01:00:00Z</time>
      </trkpt>
      <trkpt lat="61.124427" lon="14.047714">
        <ele>277.273</ele>
        <time>1970-01-01T01:00:00Z</time>
      </trkpt>
      <trkpt lat="61.124347" lon="14.048033">
        <ele>277.182</ele>
        <time>1970-01-01T01:00:00Z</time>
      </trkpt>
      <trkpt lat="61.124282" lon="14.048263">
        <ele>277.091</ele>
        <time>1970-01-01T01:00:00Z</time>
      </trkpt>
      <trkpt lat="61.124233" lon="14.048597">
        <ele>277.091</ele>
        <time>1970-01-01T01:00:00Z</time>
      </trkpt>
      <trkpt lat="61.12421" lon="14.04876">
        <ele>277.182</ele>
        <time>1970-01-01T01:00:00Z</time>
      </trkpt>
      <trkpt lat="61.124202" lon="14.049041">
        <ele>277.273</ele>
        <time>1970-01-01T01:00:00Z</time>
      </trkpt>
      <trkpt lat="61.124237" lon="14.049267">
        <ele>277.455</ele>
        <time>1970-01-01T01:00:00Z</time>
      </trkpt>
      <trkpt lat="61.124275" lon="14.0495">
        <ele>277.636</ele>
        <time>1970-01-01T01:00:00Z</time>
      </trkpt>
      <trkpt lat="61.124309" lon="14.049716">
        <ele>277.818</ele>
        <time>1970-01-01T01:00:00Z</time>
      </trkpt>
      <trkpt lat="61.12432" lon="14.049942">
        <ele>278</ele>
        <time>1970-01-01T01:00:00Z</time>
      </trkpt>
      <trkpt lat="61.12434" lon="14.050214">
        <ele>278.273</ele>
        <time>1970-01-01T01:00:00Z</time>
      </trkpt>
      <trkpt lat="61.124359" lon="14.050597">
        <ele>278.545</ele>
        <time>1970-01-01T01:00:00Z</time>
      </trkpt>
      <trkpt lat="61.124427" lon="14.050903">
        <ele>278.818</ele>
        <time>1970-01-01T01:00:00Z</time>
      </trkpt>
      <trkpt lat="61.12445" lon="14.051002">
        <ele>279.091</ele>
        <time>1970-01-01T01:00:00Z</time>
      </trkpt>
      <trkpt lat="61.124477" lon="14.051104">
        <ele>279.273</ele>
        <time>1970-01-01T01:00:00Z</time>
      </trkpt>
      <trkpt lat="61.124511" lon="14.051477">
        <ele>279.455</ele>
        <time>1970-01-01T01:00:00Z</time>
      </trkpt>
      <trkpt lat="61.124504" lon="14.051619">
        <ele>279.636</ele>
        <time>1970-01-01T01:00:00Z</time>
      </trkpt>
      <trkpt lat="61.124481" lon="14.051744">
        <ele>279.727</ele>
        <time>1970-01-01T01:00:00Z</time>
      </trkpt>
      <trkpt lat="61.124389" lon="14.051914">
        <ele>279.818</ele>
        <time>1970-01-01T01:00:00Z</time>
      </trkpt>
      <trkpt lat="61.124214" lon="14.0523">
        <ele>279.909</ele>
        <time>1970-01-01T01:00:00Z</time>
      </trkpt>
      <trkpt lat="61.124187" lon="14.052365">
        <ele>279.182</ele>
        <time>1970-01-01T01:00:00Z</time>
      </trkpt>
      <trkpt lat="61.123958" lon="14.05281">
        <ele>279.091</ele>
        <time>1970-01-01T01:00:00Z</time>
      </trkpt>
      <trkpt lat="61.123882" lon="14.052996">
        <ele>279</ele>
        <time>1970-01-01T01:00:00Z</time>
      </trkpt>
      <trkpt lat="61.123847" lon="14.053096">
        <ele>278.909</ele>
        <time>1970-01-01T01:00:00Z</time>
      </trkpt>
      <trkpt lat="61.123809" lon="14.053205">
        <ele>278.818</ele>
        <time>1970-01-01T01:00:00Z</time>
      </trkpt>
      <trkpt lat="61.123733" lon="14.053794">
        <ele>278.727</ele>
        <time>1970-01-01T01:00:00Z</time>
      </trkpt>
      <trkpt lat="61.123809" lon="14.054207">
        <ele>278.636</ele>
        <time>1970-01-01T01:00:00Z</time>
      </trkpt>
      <trkpt lat="61.123832" lon="14.054293">
        <ele>278.545</ele>
        <time>1970-01-01T01:00:00Z</time>
      </trkpt>
      <trkpt lat="61.123901" lon="14.054539">
        <ele>278.455</ele>
        <time>1970-01-01T01:00:00Z</time>
      </trkpt>
      <trkpt lat="61.124" lon="14.054806">
        <ele>278.364</ele>
        <time>1970-01-01T01:00:00Z</time>
      </trkpt>
      <trkpt lat="61.124069" lon="14.055083">
        <ele>278.273</ele>
        <time>1970-01-01T01:00:00Z</time>
      </trkpt>
      <trkpt lat="61.124134" lon="14.055356">
        <ele>278.727</ele>
        <time>1970-01-01T01:00:00Z</time>
      </trkpt>
      <trkpt lat="61.124149" lon="14.055476">
        <ele>278.455</ele>
        <time>1970-01-01T01:00:00Z</time>
      </trkpt>
      <trkpt lat="61.124153" lon="14.055803">
        <ele>278.182</ele>
        <time>1970-01-01T01:00:00Z</time>
      </trkpt>
      <trkpt lat="61.124176" lon="14.056228">
        <ele>277.909</ele>
        <time>1970-01-01T01:00:00Z</time>
      </trkpt>
      <trkpt lat="61.124191" lon="14.056306">
        <ele>277.636</ele>
        <time>1970-01-01T01:00:00Z</time>
      </trkpt>
      <trkpt lat="61.124198" lon="14.056457">
        <ele>276.909</ele>
        <time>1970-01-01T01:00:00Z</time>
      </trkpt>
      <trkpt lat="61.124195" lon="14.056535">
        <ele>276.182</ele>
        <time>1970-01-01T01:00:00Z</time>
      </trkpt>
      <trkpt lat="61.12416" lon="14.056819">
        <ele>275.455</ele>
        <time>1970-01-01T01:00:00Z</time>
      </trkpt>
      <trkpt lat="61.124141" lon="14.056925">
        <ele>274.727</ele>
        <time>1970-01-01T01:00:00Z</time>
      </trkpt>
      <trkpt lat="61.124122" lon="14.057033">
        <ele>273.727</ele>
        <time>1970-01-01T01:00:00Z</time>
      </trkpt>
      <trkpt lat="61.124065" lon="14.057268">
        <ele>272.182</ele>
        <time>1970-01-01T01:00:00Z</time>
      </trkpt>
      <trkpt lat="61.124031" lon="14.057405">
        <ele>270.909</ele>
        <time>1970-01-01T01:00:00Z</time>
      </trkpt>
      <trkpt lat="61.123962" lon="14.057689">
        <ele>269.636</ele>
        <time>1970-01-01T01:00:00Z</time>
      </trkpt>
      <trkpt lat="61.123931" lon="14.057827">
        <ele>268.364</ele>
        <time>1970-01-01T01:00:00Z</time>
      </trkpt>
      <trkpt lat="61.123851" lon="14.058304">
        <ele>267</ele>
        <time>1970-01-01T01:00:00Z</time>
      </trkpt>
      <trkpt lat="61.12376" lon="14.058696">
        <ele>264.909</ele>
        <time>1970-01-01T01:00:00Z</time>
      </trkpt>
      <trkpt lat="61.123741" lon="14.058789">
        <ele>263.273</ele>
        <time>1970-01-01T01:00:00Z</time>
      </trkpt>
      <trkpt lat="61.123538" lon="14.059192">
        <ele>261.636</ele>
        <time>1970-01-01T01:00:00Z</time>
      </trkpt>
      <trkpt lat="61.123477" lon="14.059267">
        <ele>260</ele>
        <time>1970-01-01T01:00:00Z</time>
      </trkpt>
      <trkpt lat="61.123134" lon="14.059659">
        <ele>258.364</ele>
        <time>1970-01-01T01:00:00Z</time>
      </trkpt>
      <trkpt lat="61.122825" lon="14.059945">
        <ele>256.636</ele>
        <time>1970-01-01T01:00:00Z</time>
      </trkpt>
      <trkpt lat="61.122688" lon="14.060063">
        <ele>255.455</ele>
        <time>1970-01-01T01:00:00Z</time>
      </trkpt>
      <trkpt lat="61.12255" lon="14.060264">
        <ele>254.364</ele>
        <time>1970-01-01T01:00:00Z</time>
      </trkpt>
      <trkpt lat="61.122467" lon="14.060243">
        <ele>253.273</ele>
        <time>1970-01-01T01:00:00Z</time>
      </trkpt>
      <trkpt lat="61.122394" lon="14.0603">
        <ele>252.182</ele>
        <time>1970-01-01T01:00:00Z</time>
      </trkpt>
      <trkpt lat="61.122314" lon="14.060461">
        <ele>251.182</ele>
        <time>1970-01-01T01:00:00Z</time>
      </trkpt>
      <trkpt lat="61.12218" lon="14.060665">
        <ele>250.909</ele>
        <time>1970-01-01T01:00:00Z</time>
      </trkpt>
      <trkpt lat="61.122081" lon="14.060815">
        <ele>250.636</ele>
        <time>1970-01-01T01:00:00Z</time>
      </trkpt>
      <trkpt lat="61.122001" lon="14.061005">
        <ele>250.364</ele>
        <time>1970-01-01T01:00:00Z</time>
      </trkpt>
      <trkpt lat="61.121944" lon="14.061308">
        <ele>250.091</ele>
        <time>1970-01-01T01:00:00Z</time>
      </trkpt>
      <trkpt lat="61.121879" lon="14.061492">
        <ele>250.364</ele>
        <time>1970-01-01T01:00:00Z</time>
      </trkpt>
      <trkpt lat="61.12178" lon="14.061662">
        <ele>251</ele>
        <time>1970-01-01T01:00:00Z</time>
      </trkpt>
      <trkpt lat="61.121677" lon="14.061712">
        <ele>251.636</ele>
        <time>1970-01-01T01:00:00Z</time>
      </trkpt>
      <trkpt lat="61.121597" lon="14.061803">
        <ele>252.182</ele>
        <time>1970-01-01T01:00:00Z</time>
      </trkpt>
      <trkpt lat="61.121391" lon="14.061849">
        <ele>252.727</ele>
        <time>1970-01-01T01:00:00Z</time>
      </trkpt>
      <trkpt lat="61.121257" lon="14.061803">
        <ele>253.273</ele>
        <time>1970-01-01T01:00:00Z</time>
      </trkpt>
      <trkpt lat="61.121212" lon="14.061765">
        <ele>253.818</ele>
        <time>1970-01-01T01:00:00Z</time>
      </trkpt>
      <trkpt lat="61.121112" lon="14.061606">
        <ele>254.364</ele>
        <time>1970-01-01T01:00:00Z</time>
      </trkpt>
      <trkpt lat="61.121086" lon="14.061571">
        <ele>254.909</ele>
        <time>1970-01-01T01:00:00Z</time>
      </trkpt>
      <trkpt lat="61.121017" lon="14.061503">
        <ele>255.455</ele>
        <time>1970-01-01T01:00:00Z</time>
      </trkpt>
      <trkpt lat="61.120941" lon="14.061455">
        <ele>256</ele>
        <time>1970-01-01T01:00:00Z</time>
      </trkpt>
      <trkpt lat="61.120868" lon="14.061404">
        <ele>256</ele>
        <time>1970-01-01T01:00:00Z</time>
      </trkpt>
      <trkpt lat="61.120845" lon="14.061346">
        <ele>256</ele>
        <time>1970-01-01T01:00:00Z</time>
      </trkpt>
      <trkpt lat="61.120826" lon="14.061337">
        <ele>256</ele>
        <time>1970-01-01T01:00:00Z</time>
      </trkpt>
      <trkpt lat="61.12075" lon="14.061324">
        <ele>256.455</ele>
        <time>1970-01-01T01:00:00Z</time>
      </trkpt>
      <trkpt lat="61.120685" lon="14.061311">
        <ele>256.909</ele>
        <time>1970-01-01T01:00:00Z</time>
      </trkpt>
      <trkpt lat="61.120624" lon="14.061299">
        <ele>257.364</ele>
        <time>1970-01-01T01:00:00Z</time>
      </trkpt>
      <trkpt lat="61.120491" lon="14.061253">
        <ele>257.818</ele>
        <time>1970-01-01T01:00:00Z</time>
      </trkpt>
      <trkpt lat="61.120464" lon="14.061249">
        <ele>258.273</ele>
        <time>1970-01-01T01:00:00Z</time>
      </trkpt>
      <trkpt lat="61.120368" lon="14.061213">
        <ele>258.727</ele>
        <time>1970-01-01T01:00:00Z</time>
      </trkpt>
      <trkpt lat="61.120357" lon="14.061219">
        <ele>259.182</ele>
        <time>1970-01-01T01:00:00Z</time>
      </trkpt>
      <trkpt lat="61.120212" lon="14.061185">
        <ele>259.636</ele>
        <time>1970-01-01T01:00:00Z</time>
      </trkpt>
      <trkpt lat="61.120101" lon="14.061181">
        <ele>260.091</ele>
        <time>1970-01-01T01:00:00Z</time>
      </trkpt>
      <trkpt lat="61.11996" lon="14.061187">
        <ele>260.545</ele>
        <time>1970-01-01T01:00:00Z</time>
      </trkpt>
      <trkpt lat="61.119892" lon="14.061222">
        <ele>261</ele>
        <time>1970-01-01T01:00:00Z</time>
      </trkpt>
      <trkpt lat="61.119869" lon="14.061232">
        <ele>261</ele>
        <time>1970-01-01T01:00:00Z</time>
      </trkpt>
      <trkpt lat="61.119819" lon="14.061261">
        <ele>261</ele>
        <time>1970-01-01T01:00:00Z</time>
      </trkpt>
      <trkpt lat="61.119812" lon="14.061276">
        <ele>261.455</ele>
        <time>1970-01-01T01:00:00Z</time>
      </trkpt>
      <trkpt lat="61.119777" lon="14.061284">
        <ele>261.909</ele>
        <time>1970-01-01T01:00:00Z</time>
      </trkpt>
      <trkpt lat="61.119743" lon="14.061291">
        <ele>262.364</ele>
        <time>1970-01-01T01:00:00Z</time>
      </trkpt>
      <trkpt lat="61.119682" lon="14.061255">
        <ele>262.818</ele>
        <time>1970-01-01T01:00:00Z</time>
      </trkpt>
      <trkpt lat="61.119636" lon="14.061334">
        <ele>263.273</ele>
        <time>1970-01-01T01:00:00Z</time>
      </trkpt>
      <trkpt lat="61.119571" lon="14.061327">
        <ele>263.727</ele>
        <time>1970-01-01T01:00:00Z</time>
      </trkpt>
      <trkpt lat="61.119503" lon="14.061389">
        <ele>264.182</ele>
        <time>1970-01-01T01:00:00Z</time>
      </trkpt>
      <trkpt lat="61.119411" lon="14.061479">
        <ele>264.636</ele>
        <time>1970-01-01T01:00:00Z</time>
      </trkpt>
      <trkpt lat="61.119361" lon="14.061523">
        <ele>265.091</ele>
        <time>1970-01-01T01:00:00Z</time>
      </trkpt>
      <trkpt lat="61.119293" lon="14.061563">
        <ele>265.545</ele>
        <time>1970-01-01T01:00:00Z</time>
      </trkpt>
      <trkpt lat="61.119197" lon="14.061619">
        <ele>266</ele>
        <time>1970-01-01T01:00:00Z</time>
      </trkpt>
      <trkpt lat="61.119106" lon="14.061687">
        <ele>266.455</ele>
        <time>1970-01-01T01:00:00Z</time>
      </trkpt>
      <trkpt lat="61.119064" lon="14.06171">
        <ele>266.909</ele>
        <time>1970-01-01T01:00:00Z</time>
      </trkpt>
      <trkpt lat="61.119026" lon="14.06182">
        <ele>267.364</ele>
        <time>1970-01-01T01:00:00Z</time>
      </trkpt>
      <trkpt lat="61.118976" lon="14.061864">
        <ele>267.818</ele>
        <time>1970-01-01T01:00:00Z</time>
      </trkpt>
      <trkpt lat="61.118953" lon="14.061888">
        <ele>268.273</ele>
        <time>1970-01-01T01:00:00Z</time>
      </trkpt>
      <trkpt lat="61.118804" lon="14.061935">
        <ele>268.727</ele>
        <time>1970-01-01T01:00:00Z</time>
      </trkpt>
      <trkpt lat="61.118732" lon="14.061999">
        <ele>269.182</ele>
        <time>1970-01-01T01:00:00Z</time>
      </trkpt>
      <trkpt lat="61.118659" lon="14.062036">
        <ele>269.636</ele>
        <time>1970-01-01T01:00:00Z</time>
      </trkpt>
      <trkpt lat="61.118591" lon="14.062165">
        <ele>270.091</ele>
        <time>1970-01-01T01:00:00Z</time>
      </trkpt>
      <trkpt lat="61.118583" lon="14.062201">
        <ele>270.545</ele>
        <time>1970-01-01T01:00:00Z</time>
      </trkpt>
      <trkpt lat="61.118465" lon="14.062335">
        <ele>271.545</ele>
        <time>1970-01-01T01:00:00Z</time>
      </trkpt>
      <trkpt lat="61.118328" lon="14.062475">
        <ele>272.091</ele>
        <time>1970-01-01T01:00:00Z</time>
      </trkpt>
      <trkpt lat="61.118244" lon="14.062597">
        <ele>272.636</ele>
        <time>1970-01-01T01:00:00Z</time>
      </trkpt>
      <trkpt lat="61.118171" lon="14.062732">
        <ele>273.182</ele>
        <time>1970-01-01T01:00:00Z</time>
      </trkpt>
      <trkpt lat="61.118041" lon="14.062921">
        <ele>273.727</ele>
        <time>1970-01-01T01:00:00Z</time>
      </trkpt>
      <trkpt lat="61.11787" lon="14.063086">
        <ele>274.273</ele>
        <time>1970-01-01T01:00:00Z</time>
      </trkpt>
      <trkpt lat="61.117797" lon="14.063311">
        <ele>274.818</ele>
        <time>1970-01-01T01:00:00Z</time>
      </trkpt>
      <trkpt lat="61.117748" lon="14.06357">
        <ele>275.364</ele>
        <time>1970-01-01T01:00:00Z</time>
      </trkpt>
      <trkpt lat="61.117713" lon="14.063773">
        <ele>275.909</ele>
        <time>1970-01-01T01:00:00Z</time>
      </trkpt>
      <trkpt lat="61.117683" lon="14.063933">
        <ele>276.455</ele>
        <time>1970-01-01T01:00:00Z</time>
      </trkpt>
      <trkpt lat="61.117668" lon="14.064154">
        <ele>277</ele>
        <time>1970-01-01T01:00:00Z</time>
      </trkpt>
      <trkpt lat="61.117683" lon="14.06434">
        <ele>277</ele>
        <time>1970-01-01T01:00:00Z</time>
      </trkpt>
      <trkpt lat="61.117668" lon="14.064656">
        <ele>277</ele>
        <time>1970-01-01T01:00:00Z</time>
      </trkpt>
      <trkpt lat="61.117668" lon="14.064945">
        <ele>277</ele>
        <time>1970-01-01T01:00:00Z</time>
      </trkpt>
      <trkpt lat="61.117698" lon="14.06517">
        <ele>277</ele>
        <time>1970-01-01T01:00:00Z</time>
      </trkpt>
      <trkpt lat="61.117729" lon="14.065452">
        <ele>277</ele>
        <time>1970-01-01T01:00:00Z</time>
      </trkpt>
      <trkpt lat="61.117733" lon="14.065717">
        <ele>277</ele>
        <time>1970-01-01T01:00:00Z</time>
      </trkpt>
      <trkpt lat="61.117717" lon="14.066007">
        <ele>277</ele>
        <time>1970-01-01T01:00:00Z</time>
      </trkpt>
      <trkpt lat="61.117687" lon="14.066388">
        <ele>277</ele>
        <time>1970-01-01T01:00:00Z</time>
      </trkpt>
      <trkpt lat="61.117668" lon="14.066493">
        <ele>277</ele>
        <time>1970-01-01T01:00:00Z</time>
      </trkpt>
      <trkpt lat="61.117652" lon="14.066749">
        <ele>276.545</ele>
        <time>1970-01-01T01:00:00Z</time>
      </trkpt>
      <trkpt lat="61.117698" lon="14.066974">
        <ele>276.091</ele>
        <time>1970-01-01T01:00:00Z</time>
      </trkpt>
      <trkpt lat="61.117786" lon="14.067209">
        <ele>275.636</ele>
        <time>1970-01-01T01:00:00Z</time>
      </trkpt>
      <trkpt lat="61.117919" lon="14.067385">
        <ele>275.182</ele>
        <time>1970-01-01T01:00:00Z</time>
      </trkpt>
      <trkpt lat="61.117954" lon="14.067397">
        <ele>274.727</ele>
        <time>1970-01-01T01:00:00Z</time>
      </trkpt>
      <trkpt lat="61.118041" lon="14.067513">
        <ele>274.091</ele>
        <time>1970-01-01T01:00:00Z</time>
      </trkpt>
      <trkpt lat="61.118129" lon="14.067756">
        <ele>273.455</ele>
        <time>1970-01-01T01:00:00Z</time>
      </trkpt>
      <trkpt lat="61.118175" lon="14.067906">
        <ele>272.818</ele>
        <time>1970-01-01T01:00:00Z</time>
      </trkpt>
      <trkpt lat="61.118236" lon="14.068277">
        <ele>272.182</ele>
        <time>1970-01-01T01:00:00Z</time>
      </trkpt>
      <trkpt lat="61.118278" lon="14.068605">
        <ele>271.455</ele>
        <time>1970-01-01T01:00:00Z</time>
      </trkpt>
      <trkpt lat="61.118305" lon="14.068853">
        <ele>270.727</ele>
        <time>1970-01-01T01:00:00Z</time>
      </trkpt>
      <trkpt lat="61.118331" lon="14.069207">
        <ele>270.455</ele>
        <time>1970-01-01T01:00:00Z</time>
      </trkpt>
      <trkpt lat="61.118354" lon="14.069385">
        <ele>270</ele>
        <time>1970-01-01T01:00:00Z</time>
      </trkpt>
      <trkpt lat="61.118381" lon="14.069551">
        <ele>269.545</ele>
        <time>1970-01-01T01:00:00Z</time>
      </trkpt>
      <trkpt lat="61.11837" lon="14.069861">
        <ele>269.091</ele>
        <time>1970-01-01T01:00:00Z</time>
      </trkpt>
      <trkpt lat="61.118316" lon="14.070116">
        <ele>269.091</ele>
        <time>1970-01-01T01:00:00Z</time>
      </trkpt>
      <trkpt lat="61.118244" lon="14.070387">
        <ele>269</ele>
        <time>1970-01-01T01:00:00Z</time>
      </trkpt>
      <trkpt lat="61.118152" lon="14.070649">
        <ele>268.909</ele>
        <time>1970-01-01T01:00:00Z</time>
      </trkpt>
      <trkpt lat="61.118068" lon="14.07088">
        <ele>268.818</ele>
        <time>1970-01-01T01:00:00Z</time>
      </trkpt>
      <trkpt lat="61.118011" lon="14.071038">
        <ele>268.727</ele>
        <time>1970-01-01T01:00:00Z</time>
      </trkpt>
      <trkpt lat="61.117931" lon="14.071219">
        <ele>268.727</ele>
        <time>1970-01-01T01:00:00Z</time>
      </trkpt>
      <trkpt lat="61.117813" lon="14.071351">
        <ele>268.727</ele>
        <time>1970-01-01T01:00:00Z</time>
      </trkpt>
      <trkpt lat="61.117767" lon="14.071386">
        <ele>268.727</ele>
        <time>1970-01-01T01:00:00Z</time>
      </trkpt>
      <trkpt lat="61.117694" lon="14.071431">
        <ele>268.909</ele>
        <time>1970-01-01T01:00:00Z</time>
      </trkpt>
      <trkpt lat="61.117568" lon="14.071602">
        <ele>269.364</ele>
        <time>1970-01-01T01:00:00Z</time>
      </trkpt>
      <trkpt lat="61.117542" lon="14.07165">
        <ele>269.818</ele>
        <time>1970-01-01T01:00:00Z</time>
      </trkpt>
      <trkpt lat="61.117404" lon="14.07187">
        <ele>269.455</ele>
        <time>1970-01-01T01:00:00Z</time>
      </trkpt>
      <trkpt lat="61.117309" lon="14.071958">
        <ele>269.364</ele>
        <time>1970-01-01T01:00:00Z</time>
      </trkpt>
      <trkpt lat="61.117183" lon="14.072123">
        <ele>269.273</ele>
        <time>1970-01-01T01:00:00Z</time>
      </trkpt>
      <trkpt lat="61.117031" lon="14.07232">
        <ele>268.818</ele>
        <time>1970-01-01T01:00:00Z</time>
      </trkpt>
      <trkpt lat="61.116802" lon="14.072884">
        <ele>268.364</ele>
        <time>1970-01-01T01:00:00Z</time>
      </trkpt>
      <trkpt lat="61.116729" lon="14.073082">
        <ele>267.727</ele>
        <time>1970-01-01T01:00:00Z</time>
      </trkpt>
      <trkpt lat="61.116687" lon="14.073509">
        <ele>267.091</ele>
        <time>1970-01-01T01:00:00Z</time>
      </trkpt>
      <trkpt lat="61.116687" lon="14.07371">
        <ele>266.455</ele>
        <time>1970-01-01T01:00:00Z</time>
      </trkpt>
      <trkpt lat="61.116703" lon="14.074205">
        <ele>265.636</ele>
        <time>1970-01-01T01:00:00Z</time>
      </trkpt>
      <trkpt lat="61.11671" lon="14.074544">
        <ele>264.545</ele>
        <time>1970-01-01T01:00:00Z</time>
      </trkpt>
      <trkpt lat="61.116767" lon="14.074886">
        <ele>263.455</ele>
        <time>1970-01-01T01:00:00Z</time>
      </trkpt>
      <trkpt lat="61.116844" lon="14.075307">
        <ele>262.727</ele>
        <time>1970-01-01T01:00:00Z</time>
      </trkpt>
      <trkpt lat="61.116851" lon="14.075388">
        <ele>261.909</ele>
        <time>1970-01-01T01:00:00Z</time>
      </trkpt>
      <trkpt lat="61.116859" lon="14.075572">
        <ele>261.091</ele>
        <time>1970-01-01T01:00:00Z</time>
      </trkpt>
      <trkpt lat="61.116859" lon="14.075736">
        <ele>260.455</ele>
        <time>1970-01-01T01:00:00Z</time>
      </trkpt>
      <trkpt lat="61.116844" lon="14.075907">
        <ele>259.818</ele>
        <time>1970-01-01T01:00:00Z</time>
      </trkpt>
      <trkpt lat="61.116813" lon="14.076235">
        <ele>259.273</ele>
        <time>1970-01-01T01:00:00Z</time>
      </trkpt>
      <trkpt lat="61.116752" lon="14.076632">
        <ele>258.727</ele>
        <time>1970-01-01T01:00:00Z</time>
      </trkpt>
      <trkpt lat="61.116748" lon="14.077044">
        <ele>258</ele>
        <time>1970-01-01T01:00:00Z</time>
      </trkpt>
      <trkpt lat="61.116687" lon="14.07743">
        <ele>257.455</ele>
        <time>1970-01-01T01:00:00Z</time>
      </trkpt>
      <trkpt lat="61.116638" lon="14.077892">
        <ele>256.909</ele>
        <time>1970-01-01T01:00:00Z</time>
      </trkpt>
      <trkpt lat="61.116603" lon="14.078355">
        <ele>256.364</ele>
        <time>1970-01-01T01:00:00Z</time>
      </trkpt>
      <trkpt lat="61.116592" lon="14.078529">
        <ele>255.727</ele>
        <time>1970-01-01T01:00:00Z</time>
      </trkpt>
      <trkpt lat="61.11655" lon="14.078843">
        <ele>255.182</ele>
        <time>1970-01-01T01:00:00Z</time>
      </trkpt>
      <trkpt lat="61.116428" lon="14.079239">
        <ele>254.909</ele>
        <time>1970-01-01T01:00:00Z</time>
      </trkpt>
      <trkpt lat="61.116405" lon="14.0793">
        <ele>254.818</ele>
        <time>1970-01-01T01:00:00Z</time>
      </trkpt>
      <trkpt lat="61.116363" lon="14.079417">
        <ele>254.727</ele>
        <time>1970-01-01T01:00:00Z</time>
      </trkpt>
      <trkpt lat="61.116294" lon="14.079637">
        <ele>254.727</ele>
        <time>1970-01-01T01:00:00Z</time>
      </trkpt>
      <trkpt lat="61.116283" lon="14.079692">
        <ele>254.727</ele>
        <time>1970-01-01T01:00:00Z</time>
      </trkpt>
      <trkpt lat="61.116168" lon="14.079953">
        <ele>254.909</ele>
        <time>1970-01-01T01:00:00Z</time>
      </trkpt>
      <trkpt lat="61.116073" lon="14.080165">
        <ele>255.182</ele>
        <time>1970-01-01T01:00:00Z</time>
      </trkpt>
      <trkpt lat="61.115951" lon="14.080349">
        <ele>255.455</ele>
        <time>1970-01-01T01:00:00Z</time>
      </trkpt>
      <trkpt lat="61.115848" lon="14.080459">
        <ele>255.727</ele>
        <time>1970-01-01T01:00:00Z</time>
      </trkpt>
      <trkpt lat="61.115756" lon="14.080573">
        <ele>256.182</ele>
        <time>1970-01-01T01:00:00Z</time>
      </trkpt>
      <trkpt lat="61.115535" lon="14.080717">
        <ele>256.636</ele>
        <time>1970-01-01T01:00:00Z</time>
      </trkpt>
      <trkpt lat="61.115348" lon="14.080909">
        <ele>256.727</ele>
        <time>1970-01-01T01:00:00Z</time>
      </trkpt>
      <trkpt lat="61.115257" lon="14.081036">
        <ele>256.818</ele>
        <time>1970-01-01T01:00:00Z</time>
      </trkpt>
      <trkpt lat="61.115139" lon="14.081253">
        <ele>256.909</ele>
        <time>1970-01-01T01:00:00Z</time>
      </trkpt>
      <trkpt lat="61.114906" lon="14.081661">
        <ele>257</ele>
        <time>1970-01-01T01:00:00Z</time>
      </trkpt>
      <trkpt lat="61.114669" lon="14.082103">
        <ele>257.091</ele>
        <time>1970-01-01T01:00:00Z</time>
      </trkpt>
      <trkpt lat="61.114547" lon="14.082254">
        <ele>257.273</ele>
        <time>1970-01-01T01:00:00Z</time>
      </trkpt>
      <trkpt lat="61.11444" lon="14.082436">
        <ele>257.364</ele>
        <time>1970-01-01T01:00:00Z</time>
      </trkpt>
      <trkpt lat="61.11433" lon="14.08268">
        <ele>257.455</ele>
        <time>1970-01-01T01:00:00Z</time>
      </trkpt>
      <trkpt lat="61.114315" lon="14.082747">
        <ele>257.545</ele>
        <time>1970-01-01T01:00:00Z</time>
      </trkpt>
      <trkpt lat="61.114299" lon="14.082822">
        <ele>257.545</ele>
        <time>1970-01-01T01:00:00Z</time>
      </trkpt>
      <trkpt lat="61.114219" lon="14.083124">
        <ele>257.545</ele>
        <time>1970-01-01T01:00:00Z</time>
      </trkpt>
      <trkpt lat="61.114139" lon="14.083476">
        <ele>257.636</ele>
        <time>1970-01-01T01:00:00Z</time>
      </trkpt>
      <trkpt lat="61.11412" lon="14.083542">
        <ele>257.636</ele>
        <time>1970-01-01T01:00:00Z</time>
      </trkpt>
      <trkpt lat="61.114105" lon="14.083606">
        <ele>257.636</ele>
        <time>1970-01-01T01:00:00Z</time>
      </trkpt>
      <trkpt lat="61.114055" lon="14.083905">
        <ele>257.636</ele>
        <time>1970-01-01T01:00:00Z</time>
      </trkpt>
      <trkpt lat="61.114021" lon="14.084173">
        <ele>256.818</ele>
        <time>1970-01-01T01:00:00Z</time>
      </trkpt>
      <trkpt lat="61.113983" lon="14.08446">
        <ele>255.909</ele>
        <time>1970-01-01T01:00:00Z</time>
      </trkpt>
      <trkpt lat="61.113918" lon="14.084707">
        <ele>255</ele>
        <time>1970-01-01T01:00:00Z</time>
      </trkpt>
      <trkpt lat="61.113849" lon="14.085077">
        <ele>253.727</ele>
        <time>1970-01-01T01:00:00Z</time>
      </trkpt>
      <trkpt lat="61.113815" lon="14.08537">
        <ele>252.455</ele>
        <time>1970-01-01T01:00:00Z</time>
      </trkpt>
      <trkpt lat="61.113803" lon="14.085689">
        <ele>250.909</ele>
        <time>1970-01-01T01:00:00Z</time>
      </trkpt>
      <trkpt lat="61.113784" lon="14.085977">
        <ele>249.364</ele>
        <time>1970-01-01T01:00:00Z</time>
      </trkpt>
      <trkpt lat="61.11378" lon="14.086283">
        <ele>247.818</ele>
        <time>1970-01-01T01:00:00Z</time>
      </trkpt>
      <trkpt lat="61.1138" lon="14.086613">
        <ele>246.364</ele>
        <time>1970-01-01T01:00:00Z</time>
      </trkpt>
      <trkpt lat="61.113784" lon="14.086945">
        <ele>244.909</ele>
        <time>1970-01-01T01:00:00Z</time>
      </trkpt>
      <trkpt lat="61.113708" lon="14.087203">
        <ele>243.455</ele>
        <time>1970-01-01T01:00:00Z</time>
      </trkpt>
      <trkpt lat="61.113685" lon="14.087248">
        <ele>242.727</ele>
        <time>1970-01-01T01:00:00Z</time>
      </trkpt>
      <trkpt lat="61.113616" lon="14.087392">
        <ele>242</ele>
        <time>1970-01-01T01:00:00Z</time>
      </trkpt>
      <trkpt lat="61.11359" lon="14.087427">
        <ele>241.273</ele>
        <time>1970-01-01T01:00:00Z</time>
      </trkpt>
      <trkpt lat="61.113567" lon="14.087464">
        <ele>240.818</ele>
        <time>1970-01-01T01:00:00Z</time>
      </trkpt>
      <trkpt lat="61.113475" lon="14.087755">
        <ele>240.364</ele>
        <time>1970-01-01T01:00:00Z</time>
      </trkpt>
      <trkpt lat="61.113445" lon="14.088022">
        <ele>240.182</ele>
        <time>1970-01-01T01:00:00Z</time>
      </trkpt>
      <trkpt lat="61.113414" lon="14.088253">
        <ele>240.091</ele>
        <time>1970-01-01T01:00:00Z</time>
      </trkpt>
      <trkpt lat="61.113327" lon="14.088607">
        <ele>239.909</ele>
        <time>1970-01-01T01:00:00Z</time>
      </trkpt>
      <trkpt lat="61.113246" lon="14.088811">
        <ele>239.727</ele>
        <time>1970-01-01T01:00:00Z</time>
      </trkpt>
      <trkpt lat="61.113162" lon="14.089025">
        <ele>239.545</ele>
        <time>1970-01-01T01:00:00Z</time>
      </trkpt>
      <trkpt lat="61.112987" lon="14.089301">
        <ele>239.364</ele>
        <time>1970-01-01T01:00:00Z</time>
      </trkpt>
      <trkpt lat="61.112892" lon="14.089508">
        <ele>239.182</ele>
        <time>1970-01-01T01:00:00Z</time>
      </trkpt>
      <trkpt lat="61.112812" lon="14.089831">
        <ele>239</ele>
        <time>1970-01-01T01:00:00Z</time>
      </trkpt>
      <trkpt lat="61.112815" lon="14.089928">
        <ele>238.818</ele>
        <time>1970-01-01T01:00:00Z</time>
      </trkpt>
      <trkpt lat="61.112831" lon="14.090013">
        <ele>238.727</ele>
        <time>1970-01-01T01:00:00Z</time>
      </trkpt>
      <trkpt lat="61.113025" lon="14.090327">
        <ele>238.636</ele>
        <time>1970-01-01T01:00:00Z</time>
      </trkpt>
      <trkpt lat="61.113128" lon="14.09052">
        <ele>238.545</ele>
        <time>1970-01-01T01:00:00Z</time>
      </trkpt>
      <trkpt lat="61.113277" lon="14.090895">
        <ele>238.364</ele>
        <time>1970-01-01T01:00:00Z</time>
      </trkpt>
      <trkpt lat="61.113334" lon="14.091016">
        <ele>238.182</ele>
        <time>1970-01-01T01:00:00Z</time>
      </trkpt>
      <trkpt lat="61.113491" lon="14.091302">
        <ele>238</ele>
        <time>1970-01-01T01:00:00Z</time>
      </trkpt>
      <trkpt lat="61.113533" lon="14.091363">
        <ele>237.818</ele>
        <time>1970-01-01T01:00:00Z</time>
      </trkpt>
      <trkpt lat="61.113628" lon="14.091567">
        <ele>237.545</ele>
        <time>1970-01-01T01:00:00Z</time>
      </trkpt>
      <trkpt lat="61.113697" lon="14.091892">
        <ele>237.636</ele>
        <time>1970-01-01T01:00:00Z</time>
      </trkpt>
      <trkpt lat="61.113719" lon="14.092333">
        <ele>237.727</ele>
        <time>1970-01-01T01:00:00Z</time>
      </trkpt>
      <trkpt lat="61.113727" lon="14.092429">
        <ele>237.818</ele>
        <time>1970-01-01T01:00:00Z</time>
      </trkpt>
      <trkpt lat="61.113758" lon="14.092618">
        <ele>237.909</ele>
        <time>1970-01-01T01:00:00Z</time>
      </trkpt>
      <trkpt lat="61.113842" lon="14.09297">
        <ele>238</ele>
        <time>1970-01-01T01:00:00Z</time>
      </trkpt>
      <trkpt lat="61.113887" lon="14.09329">
        <ele>238</ele>
        <time>1970-01-01T01:00:00Z</time>
      </trkpt>
      <trkpt lat="61.113891" lon="14.093349">
        <ele>238</ele>
        <time>1970-01-01T01:00:00Z</time>
      </trkpt>
      <trkpt lat="61.113914" lon="14.093699">
        <ele>238</ele>
        <time>1970-01-01T01:00:00Z</time>
      </trkpt>
      <trkpt lat="61.113903" lon="14.094056">
        <ele>237.818</ele>
        <time>1970-01-01T01:00:00Z</time>
      </trkpt>
      <trkpt lat="61.113906" lon="14.094437">
        <ele>237.636</ele>
        <time>1970-01-01T01:00:00Z</time>
      </trkpt>
      <trkpt lat="61.113872" lon="14.094733">
        <ele>236.909</ele>
        <time>1970-01-01T01:00:00Z</time>
      </trkpt>
      <trkpt lat="61.113807" lon="14.095165">
        <ele>235.909</ele>
        <time>1970-01-01T01:00:00Z</time>
      </trkpt>
      <trkpt lat="61.113796" lon="14.095243">
        <ele>234.545</ele>
        <time>1970-01-01T01:00:00Z</time>
      </trkpt>
      <trkpt lat="61.113788" lon="14.095639">
        <ele>233.182</ele>
        <time>1970-01-01T01:00:00Z</time>
      </trkpt>
      <trkpt lat="61.113796" lon="14.096085">
        <ele>232.455</ele>
        <time>1970-01-01T01:00:00Z</time>
      </trkpt>
      <trkpt lat="61.113834" lon="14.096364">
        <ele>230.818</ele>
        <time>1970-01-01T01:00:00Z</time>
      </trkpt>
      <trkpt lat="61.113849" lon="14.096942">
        <ele>229.273</ele>
        <time>1970-01-01T01:00:00Z</time>
      </trkpt>
      <trkpt lat="61.113834" lon="14.097325">
        <ele>227.636</ele>
        <time>1970-01-01T01:00:00Z</time>
      </trkpt>
      <trkpt lat="61.113819" lon="14.097716">
        <ele>226.091</ele>
        <time>1970-01-01T01:00:00Z</time>
      </trkpt>
      <trkpt lat="61.113803" lon="14.09783">
        <ele>224.636</ele>
        <time>1970-01-01T01:00:00Z</time>
      </trkpt>
      <trkpt lat="61.113807" lon="14.098089">
        <ele>222.636</ele>
        <time>1970-01-01T01:00:00Z</time>
      </trkpt>
      <trkpt lat="61.113864" lon="14.098279">
        <ele>221.273</ele>
        <time>1970-01-01T01:00:00Z</time>
      </trkpt>
      <trkpt lat="61.113933" lon="14.098814">
        <ele>218.909</ele>
        <time>1970-01-01T01:00:00Z</time>
      </trkpt>
      <trkpt lat="61.113868" lon="14.099572">
        <ele>216.909</ele>
        <time>1970-01-01T01:00:00Z</time>
      </trkpt>
      <trkpt lat="61.113807" lon="14.10031">
        <ele>214.818</ele>
        <time>1970-01-01T01:00:00Z</time>
      </trkpt>
      <trkpt lat="61.113811" lon="14.100449">
        <ele>212.091</ele>
        <time>1970-01-01T01:00:00Z</time>
      </trkpt>
      <trkpt lat="61.11391" lon="14.101019">
        <ele>210.273</ele>
        <time>1970-01-01T01:00:00Z</time>
      </trkpt>
      <trkpt lat="61.114013" lon="14.101677">
        <ele>208.455</ele>
        <time>1970-01-01T01:00:00Z</time>
      </trkpt>
      <trkpt lat="61.113998" lon="14.101938">
        <ele>206.727</ele>
        <time>1970-01-01T01:00:00Z</time>
      </trkpt>
      <trkpt lat="61.113918" lon="14.102381">
        <ele>205.091</ele>
        <time>1970-01-01T01:00:00Z</time>
      </trkpt>
      <trkpt lat="61.11391" lon="14.102548">
        <ele>203.545</ele>
        <time>1970-01-01T01:00:00Z</time>
      </trkpt>
      <trkpt lat="61.113891" lon="14.102679">
        <ele>202.545</ele>
        <time>1970-01-01T01:00:00Z</time>
      </trkpt>
      <trkpt lat="61.113914" lon="14.102939">
        <ele>201.545</ele>
        <time>1970-01-01T01:00:00Z</time>
      </trkpt>
      <trkpt lat="61.113922" lon="14.103034">
        <ele>201.545</ele>
        <time>1970-01-01T01:00:00Z</time>
      </trkpt>
      <trkpt lat="61.113899" lon="14.103149">
        <ele>201.909</ele>
        <time>1970-01-01T01:00:00Z</time>
      </trkpt>
      <trkpt lat="61.113864" lon="14.103384">
        <ele>202.364</ele>
        <time>1970-01-01T01:00:00Z</time>
      </trkpt>
      <trkpt lat="61.113868" lon="14.103548">
        <ele>202.818</ele>
        <time>1970-01-01T01:00:00Z</time>
      </trkpt>
      <trkpt lat="61.113895" lon="14.103639">
        <ele>203.273</ele>
        <time>1970-01-01T01:00:00Z</time>
      </trkpt>
      <trkpt lat="61.113868" lon="14.103819">
        <ele>205.364</ele>
        <time>1970-01-01T01:00:00Z</time>
      </trkpt>
      <trkpt lat="61.113861" lon="14.103972">
        <ele>207.455</ele>
        <time>1970-01-01T01:00:00Z</time>
      </trkpt>
      <trkpt lat="61.113842" lon="14.104087">
        <ele>209.455</ele>
        <time>1970-01-01T01:00:00Z</time>
      </trkpt>
      <trkpt lat="61.113838" lon="14.104178">
        <ele>211.455</ele>
        <time>1970-01-01T01:00:00Z</time>
      </trkpt>
      <trkpt lat="61.113834" lon="14.104207">
        <ele>213.455</ele>
        <time>1970-01-01T01:00:00Z</time>
      </trkpt>
      <trkpt lat="61.113796" lon="14.104301">
        <ele>215.455</ele>
        <time>1970-01-01T01:00:00Z</time>
      </trkpt>
      <trkpt lat="61.113716" lon="14.104563">
        <ele>217.455</ele>
        <time>1970-01-01T01:00:00Z</time>
      </trkpt>
      <trkpt lat="61.113658" lon="14.104735">
        <ele>219.091</ele>
        <time>1970-01-01T01:00:00Z</time>
      </trkpt>
      <trkpt lat="61.11362" lon="14.104823">
        <ele>220.727</ele>
        <time>1970-01-01T01:00:00Z</time>
      </trkpt>
      <trkpt lat="61.113536" lon="14.105056">
        <ele>222.364</ele>
        <time>1970-01-01T01:00:00Z</time>
      </trkpt>
      <trkpt lat="61.113452" lon="14.105253">
        <ele>223.909</ele>
        <time>1970-01-01T01:00:00Z</time>
      </trkpt>
      <trkpt lat="61.113399" lon="14.105437">
        <ele>223.818</ele>
        <time>1970-01-01T01:00:00Z</time>
      </trkpt>
      <trkpt lat="61.113349" lon="14.105598">
        <ele>223.727</ele>
        <time>1970-01-01T01:00:00Z</time>
      </trkpt>
      <trkpt lat="61.113307" lon="14.105955">
        <ele>223.636</ele>
        <time>1970-01-01T01:00:00Z</time>
      </trkpt>
      <trkpt lat="61.113281" lon="14.106277">
        <ele>223.545</ele>
        <time>1970-01-01T01:00:00Z</time>
      </trkpt>
      <trkpt lat="61.113258" lon="14.106378">
        <ele>223.455</ele>
        <time>1970-01-01T01:00:00Z</time>
      </trkpt>
      <trkpt lat="61.113246" lon="14.106521">
        <ele>223.364</ele>
        <time>1970-01-01T01:00:00Z</time>
      </trkpt>
      <trkpt lat="61.113231" lon="14.106555">
        <ele>223.182</ele>
        <time>1970-01-01T01:00:00Z</time>
      </trkpt>
      <trkpt lat="61.113185" lon="14.106687">
        <ele>223</ele>
        <time>1970-01-01T01:00:00Z</time>
      </trkpt>
      <trkpt lat="61.113151" lon="14.106817">
        <ele>222.818</ele>
        <time>1970-01-01T01:00:00Z</time>
      </trkpt>
      <trkpt lat="61.113147" lon="14.106835">
        <ele>222.636</ele>
        <time>1970-01-01T01:00:00Z</time>
      </trkpt>
      <trkpt lat="61.11314" lon="14.106899">
        <ele>223</ele>
        <time>1970-01-01T01:00:00Z</time>
      </trkpt>
      <trkpt lat="61.11309" lon="14.107176">
        <ele>223.273</ele>
        <time>1970-01-01T01:00:00Z</time>
      </trkpt>
      <trkpt lat="61.113059" lon="14.10737">
        <ele>223.545</ele>
        <time>1970-01-01T01:00:00Z</time>
      </trkpt>
      <trkpt lat="61.11301" lon="14.107565">
        <ele>223.818</ele>
        <time>1970-01-01T01:00:00Z</time>
      </trkpt>
      <trkpt lat="61.112991" lon="14.107609">
        <ele>224.091</ele>
        <time>1970-01-01T01:00:00Z</time>
      </trkpt>
      <trkpt lat="61.112941" lon="14.107786">
        <ele>223.909</ele>
        <time>1970-01-01T01:00:00Z</time>
      </trkpt>
      <trkpt lat="61.11288" lon="14.108005">
        <ele>223.818</ele>
        <time>1970-01-01T01:00:00Z</time>
      </trkpt>
      <trkpt lat="61.112857" lon="14.108123">
        <ele>223.818</ele>
        <time>1970-01-01T01:00:00Z</time>
      </trkpt>
      <trkpt lat="61.112876" lon="14.108379">
        <ele>223.818</ele>
        <time>1970-01-01T01:00:00Z</time>
      </trkpt>
      <trkpt lat="61.112918" lon="14.10852">
        <ele>224.091</ele>
        <time>1970-01-01T01:00:00Z</time>
      </trkpt>
      <trkpt lat="61.113021" lon="14.108782">
        <ele>224.364</ele>
        <time>1970-01-01T01:00:00Z</time>
      </trkpt>
      <trkpt lat="61.113048" lon="14.108881">
        <ele>224.091</ele>
        <time>1970-01-01T01:00:00Z</time>
      </trkpt>
      <trkpt lat="61.113079" lon="14.109202">
        <ele>223.909</ele>
        <time>1970-01-01T01:00:00Z</time>
      </trkpt>
      <trkpt lat="61.112987" lon="14.109512">
        <ele>223.727</ele>
        <time>1970-01-01T01:00:00Z</time>
      </trkpt>
      <trkpt lat="61.112892" lon="14.109799">
        <ele>223.545</ele>
        <time>1970-01-01T01:00:00Z</time>
      </trkpt>
      <trkpt lat="61.112873" lon="14.110021">
        <ele>223.273</ele>
        <time>1970-01-01T01:00:00Z</time>
      </trkpt>
      <trkpt lat="61.112846" lon="14.110465">
        <ele>223.455</ele>
        <time>1970-01-01T01:00:00Z</time>
      </trkpt>
      <trkpt lat="61.112842" lon="14.11054">
        <ele>223.545</ele>
        <time>1970-01-01T01:00:00Z</time>
      </trkpt>
      <trkpt lat="61.112842" lon="14.110841">
        <ele>223.727</ele>
        <time>1970-01-01T01:00:00Z</time>
      </trkpt>
      <trkpt lat="61.112854" lon="14.111098">
        <ele>223.545</ele>
        <time>1970-01-01T01:00:00Z</time>
      </trkpt>
      <trkpt lat="61.112922" lon="14.111399">
        <ele>223.455</ele>
        <time>1970-01-01T01:00:00Z</time>
      </trkpt>
      <trkpt lat="61.112937" lon="14.111475">
        <ele>223</ele>
        <time>1970-01-01T01:00:00Z</time>
      </trkpt>
      <trkpt lat="61.112945" lon="14.111845">
        <ele>222.636</ele>
        <time>1970-01-01T01:00:00Z</time>
      </trkpt>
      <trkpt lat="61.112957" lon="14.112271">
        <ele>222.364</ele>
        <time>1970-01-01T01:00:00Z</time>
      </trkpt>
      <trkpt lat="61.113014" lon="14.11269">
        <ele>222.091</ele>
        <time>1970-01-01T01:00:00Z</time>
      </trkpt>
      <trkpt lat="61.112983" lon="14.112956">
        <ele>221.818</ele>
        <time>1970-01-01T01:00:00Z</time>
      </trkpt>
      <trkpt lat="61.112987" lon="14.113336">
        <ele>221.636</ele>
        <time>1970-01-01T01:00:00Z</time>
      </trkpt>
      <trkpt lat="61.113002" lon="14.113727">
        <ele>221.636</ele>
        <time>1970-01-01T01:00:00Z</time>
      </trkpt>
      <trkpt lat="61.113002" lon="14.113869">
        <ele>221.636</ele>
        <time>1970-01-01T01:00:00Z</time>
      </trkpt>
      <trkpt lat="61.113002" lon="14.114206">
        <ele>221.545</ele>
        <time>1970-01-01T01:00:00Z</time>
      </trkpt>
      <trkpt lat="61.113006" lon="14.11429">
        <ele>222</ele>
        <time>1970-01-01T01:00:00Z</time>
      </trkpt>
      <trkpt lat="61.113021" lon="14.114423">
        <ele>221.727</ele>
        <time>1970-01-01T01:00:00Z</time>
      </trkpt>
      <trkpt lat="61.11309" lon="14.114768">
        <ele>221.818</ele>
        <time>1970-01-01T01:00:00Z</time>
      </trkpt>
      <trkpt lat="61.113132" lon="14.114981">
        <ele>221.909</ele>
        <time>1970-01-01T01:00:00Z</time>
      </trkpt>
      <trkpt lat="61.113265" lon="14.115271">
        <ele>221.909</ele>
        <time>1970-01-01T01:00:00Z</time>
      </trkpt>
      <trkpt lat="61.113666" lon="14.115985">
        <ele>221.909</ele>
        <time>1970-01-01T01:00:00Z</time>
      </trkpt>
      <trkpt lat="61.114009" lon="14.1166">
        <ele>221.909</ele>
        <time>1970-01-01T01:00:00Z</time>
      </trkpt>
      <trkpt lat="61.114151" lon="14.116743">
        <ele>221.182</ele>
        <time>1970-01-01T01:00:00Z</time>
      </trkpt>
      <trkpt lat="61.114318" lon="14.116778">
        <ele>220.273</ele>
        <time>1970-01-01T01:00:00Z</time>
      </trkpt>
      <trkpt lat="61.114406" lon="14.116806">
        <ele>219.364</ele>
        <time>1970-01-01T01:00:00Z</time>
      </trkpt>
      <trkpt lat="61.114448" lon="14.116872">
        <ele>218.455</ele>
        <time>1970-01-01T01:00:00Z</time>
      </trkpt>
      <trkpt lat="61.114585" lon="14.117107">
        <ele>217.364</ele>
        <time>1970-01-01T01:00:00Z</time>
      </trkpt>
      <trkpt lat="61.114639" lon="14.117284">
        <ele>217.182</ele>
        <time>1970-01-01T01:00:00Z</time>
      </trkpt>
      <trkpt lat="61.114757" lon="14.11753">
        <ele>217</ele>
        <time>1970-01-01T01:00:00Z</time>
      </trkpt>
      <trkpt lat="61.114818" lon="14.117609">
        <ele>216.818</ele>
        <time>1970-01-01T01:00:00Z</time>
      </trkpt>
      <trkpt lat="61.114814" lon="14.117897">
        <ele>216.818</ele>
        <time>1970-01-01T01:00:00Z</time>
      </trkpt>
      <trkpt lat="61.114807" lon="14.117948">
        <ele>216.818</ele>
        <time>1970-01-01T01:00:00Z</time>
      </trkpt>
      <trkpt lat="61.114784" lon="14.118373">
        <ele>216.818</ele>
        <time>1970-01-01T01:00:00Z</time>
      </trkpt>
      <trkpt lat="61.11478" lon="14.118489">
        <ele>217.818</ele>
        <time>1970-01-01T01:00:00Z</time>
      </trkpt>
      <trkpt lat="61.11478" lon="14.1187">
        <ele>218.818</ele>
        <time>1970-01-01T01:00:00Z</time>
      </trkpt>
      <trkpt lat="61.114826" lon="14.118877">
        <ele>219.818</ele>
        <time>1970-01-01T01:00:00Z</time>
      </trkpt>
      <trkpt lat="61.114852" lon="14.11896">
        <ele>220.818</ele>
        <time>1970-01-01T01:00:00Z</time>
      </trkpt>
      <trkpt lat="61.114971" lon="14.119295">
        <ele>221.727</ele>
        <time>1970-01-01T01:00:00Z</time>
      </trkpt>
      <trkpt lat="61.115135" lon="14.119656">
        <ele>222.091</ele>
        <time>1970-01-01T01:00:00Z</time>
      </trkpt>
      <trkpt lat="61.115184" lon="14.119818">
        <ele>222.455</ele>
        <time>1970-01-01T01:00:00Z</time>
      </trkpt>
      <trkpt lat="61.115234" lon="14.120044">
        <ele>222.818</ele>
        <time>1970-01-01T01:00:00Z</time>
      </trkpt>
      <trkpt lat="61.115226" lon="14.120229">
        <ele>223</ele>
        <time>1970-01-01T01:00:00Z</time>
      </trkpt>
      <trkpt lat="61.1152" lon="14.120614">
        <ele>223.182</ele>
        <time>1970-01-01T01:00:00Z</time>
      </trkpt>
      <trkpt lat="61.115127" lon="14.120832">
        <ele>223.091</ele>
        <time>1970-01-01T01:00:00Z</time>
      </trkpt>
      <trkpt lat="61.115104" lon="14.120962">
        <ele>222.727</ele>
        <time>1970-01-01T01:00:00Z</time>
      </trkpt>
      <trkpt lat="61.115093" lon="14.121021">
        <ele>222.364</ele>
        <time>1970-01-01T01:00:00Z</time>
      </trkpt>
      <trkpt lat="61.115077" lon="14.121164">
        <ele>222</ele>
        <time>1970-01-01T01:00:00Z</time>
      </trkpt>
      <trkpt lat="61.11507" lon="14.121225">
        <ele>221.545</ele>
        <time>1970-01-01T01:00:00Z</time>
      </trkpt>
      <trkpt lat="61.11507" lon="14.121284">
        <ele>221.182</ele>
        <time>1970-01-01T01:00:00Z</time>
      </trkpt>
      <trkpt lat="61.115066" lon="14.121505">
        <ele>220.818</ele>
        <time>1970-01-01T01:00:00Z</time>
      </trkpt>
      <trkpt lat="61.115089" lon="14.12167">
        <ele>220.455</ele>
        <time>1970-01-01T01:00:00Z</time>
      </trkpt>
      <trkpt lat="61.115139" lon="14.122019">
        <ele>219.909</ele>
        <time>1970-01-01T01:00:00Z</time>
      </trkpt>
      <trkpt lat="61.115146" lon="14.122257">
        <ele>219.364</ele>
        <time>1970-01-01T01:00:00Z</time>
      </trkpt>
      <trkpt lat="61.115177" lon="14.12247">
        <ele>218.818</ele>
        <time>1970-01-01T01:00:00Z</time>
      </trkpt>
      <trkpt lat="61.115226" lon="14.12274">
        <ele>218.545</ele>
        <time>1970-01-01T01:00:00Z</time>
      </trkpt>
      <trkpt lat="61.115238" lon="14.122953">
        <ele>218.273</ele>
        <time>1970-01-01T01:00:00Z</time>
      </trkpt>
      <trkpt lat="61.11528" lon="14.123188">
        <ele>218</ele>
        <time>1970-01-01T01:00:00Z</time>
      </trkpt>
      <trkpt lat="61.115249" lon="14.123399">
        <ele>217.545</ele>
        <time>1970-01-01T01:00:00Z</time>
      </trkpt>
      <trkpt lat="61.115253" lon="14.12357">
        <ele>217.182</ele>
        <time>1970-01-01T01:00:00Z</time>
      </trkpt>
      <trkpt lat="61.115264" lon="14.123666">
        <ele>216.909</ele>
        <time>1970-01-01T01:00:00Z</time>
      </trkpt>
      <trkpt lat="61.115268" lon="14.123717">
        <ele>216.636</ele>
        <time>1970-01-01T01:00:00Z</time>
      </trkpt>
      <trkpt lat="61.115257" lon="14.123826">
        <ele>215.727</ele>
        <time>1970-01-01T01:00:00Z</time>
      </trkpt>
      <trkpt lat="61.115207" lon="14.124172">
        <ele>215</ele>
        <time>1970-01-01T01:00:00Z</time>
      </trkpt>
      <trkpt lat="61.11515" lon="14.124341">
        <ele>214.636</ele>
        <time>1970-01-01T01:00:00Z</time>
      </trkpt>
      <trkpt lat="61.115211" lon="14.124856">
        <ele>214.273</ele>
        <time>1970-01-01T01:00:00Z</time>
      </trkpt>
      <trkpt lat="61.11528" lon="14.12521">
        <ele>213.909</ele>
        <time>1970-01-01T01:00:00Z</time>
      </trkpt>
      <trkpt lat="61.115528" lon="14.125967">
        <ele>213.909</ele>
        <time>1970-01-01T01:00:00Z</time>
      </trkpt>
      <trkpt lat="61.11557" lon="14.126065">
        <ele>213.909</ele>
        <time>1970-01-01T01:00:00Z</time>
      </trkpt>
      <trkpt lat="61.115776" lon="14.126458">
        <ele>214.091</ele>
        <time>1970-01-01T01:00:00Z</time>
      </trkpt>
      <trkpt lat="61.115856" lon="14.126622">
        <ele>214.273</ele>
        <time>1970-01-01T01:00:00Z</time>
      </trkpt>
      <trkpt lat="61.115928" lon="14.127029">
        <ele>214.636</ele>
        <time>1970-01-01T01:00:00Z</time>
      </trkpt>
      <trkpt lat="61.115867" lon="14.127318">
        <ele>215</ele>
        <time>1970-01-01T01:00:00Z</time>
      </trkpt>
      <trkpt lat="61.115814" lon="14.127507">
        <ele>216</ele>
        <time>1970-01-01T01:00:00Z</time>
      </trkpt>
      <trkpt lat="61.115791" lon="14.127759">
        <ele>217</ele>
        <time>1970-01-01T01:00:00Z</time>
      </trkpt>
      <trkpt lat="61.115776" lon="14.127869">
        <ele>217.636</ele>
        <time>1970-01-01T01:00:00Z</time>
      </trkpt>
      <trkpt lat="61.115776" lon="14.128043">
        <ele>218.273</ele>
        <time>1970-01-01T01:00:00Z</time>
      </trkpt>
      <trkpt lat="61.115734" lon="14.128187">
        <ele>218.909</ele>
        <time>1970-01-01T01:00:00Z</time>
      </trkpt>
      <trkpt lat="61.115718" lon="14.128289">
        <ele>219.182</ele>
        <time>1970-01-01T01:00:00Z</time>
      </trkpt>
      <trkpt lat="61.11568" lon="14.128443">
        <ele>219.455</ele>
        <time>1970-01-01T01:00:00Z</time>
      </trkpt>
      <trkpt lat="61.115665" lon="14.128556">
        <ele>219.727</ele>
        <time>1970-01-01T01:00:00Z</time>
      </trkpt>
      <trkpt lat="61.115646" lon="14.128646">
        <ele>220</ele>
        <time>1970-01-01T01:00:00Z</time>
      </trkpt>
      <trkpt lat="61.115642" lon="14.128679">
        <ele>220</ele>
        <time>1970-01-01T01:00:00Z</time>
      </trkpt>
      <trkpt lat="61.115619" lon="14.128749">
        <ele>220.818</ele>
        <time>1970-01-01T01:00:00Z</time>
      </trkpt>
      <trkpt lat="61.115608" lon="14.128798">
        <ele>221.636</ele>
        <time>1970-01-01T01:00:00Z</time>
      </trkpt>
      <trkpt lat="61.115558" lon="14.128948">
        <ele>222.455</ele>
        <time>1970-01-01T01:00:00Z</time>
      </trkpt>
      <trkpt lat="61.115501" lon="14.129105">
        <ele>223.273</ele>
        <time>1970-01-01T01:00:00Z</time>
      </trkpt>
      <trkpt lat="61.115463" lon="14.129224">
        <ele>224.182</ele>
        <time>1970-01-01T01:00:00Z</time>
      </trkpt>
      <trkpt lat="61.115406" lon="14.12938">
        <ele>225.091</ele>
        <time>1970-01-01T01:00:00Z</time>
      </trkpt>
      <trkpt lat="61.115371" lon="14.129437">
        <ele>226</ele>
        <time>1970-01-01T01:00:00Z</time>
      </trkpt>
      <trkpt lat="61.11536" lon="14.129463">
        <ele>226.909</ele>
        <time>1970-01-01T01:00:00Z</time>
      </trkpt>
      <trkpt lat="61.115295" lon="14.129583">
        <ele>227.818</ele>
        <time>1970-01-01T01:00:00Z</time>
      </trkpt>
      <trkpt lat="61.115222" lon="14.129738">
        <ele>228.727</ele>
        <time>1970-01-01T01:00:00Z</time>
      </trkpt>
      <trkpt lat="61.115158" lon="14.12994">
        <ele>229.636</ele>
        <time>1970-01-01T01:00:00Z</time>
      </trkpt>
      <trkpt lat="61.115112" lon="14.130081">
        <ele>229.727</ele>
        <time>1970-01-01T01:00:00Z</time>
      </trkpt>
      <trkpt lat="61.115085" lon="14.130144">
        <ele>229.818</ele>
        <time>1970-01-01T01:00:00Z</time>
      </trkpt>
      <trkpt lat="61.115001" lon="14.130257">
        <ele>230.818</ele>
        <time>1970-01-01T01:00:00Z</time>
      </trkpt>
      <trkpt lat="61.114913" lon="14.130283">
        <ele>231.818</ele>
        <time>1970-01-01T01:00:00Z</time>
      </trkpt>
      <trkpt lat="61.114833" lon="14.130309">
        <ele>232.727</ele>
        <time>1970-01-01T01:00:00Z</time>
      </trkpt>
      <trkpt lat="61.114734" lon="14.130324">
        <ele>233.636</ele>
        <time>1970-01-01T01:00:00Z</time>
      </trkpt>
      <trkpt lat="61.114677" lon="14.130327">
        <ele>234.545</ele>
        <time>1970-01-01T01:00:00Z</time>
      </trkpt>
      <trkpt lat="61.114604" lon="14.130353">
        <ele>235.455</ele>
        <time>1970-01-01T01:00:00Z</time>
      </trkpt>
      <trkpt lat="61.114433" lon="14.130366">
        <ele>236.364</ele>
        <time>1970-01-01T01:00:00Z</time>
      </trkpt>
      <trkpt lat="61.114414" lon="14.130364">
        <ele>237.273</ele>
        <time>1970-01-01T01:00:00Z</time>
      </trkpt>
      <trkpt lat="61.114311" lon="14.130373">
        <ele>238.182</ele>
        <time>1970-01-01T01:00:00Z</time>
      </trkpt>
      <trkpt lat="61.114204" lon="14.130367">
        <ele>239.455</ele>
        <time>1970-01-01T01:00:00Z</time>
      </trkpt>
      <trkpt lat="61.114128" lon="14.130371">
        <ele>240.727</ele>
        <time>1970-01-01T01:00:00Z</time>
      </trkpt>
      <trkpt lat="61.113998" lon="14.130341">
        <ele>241.091</ele>
        <time>1970-01-01T01:00:00Z</time>
      </trkpt>
      <trkpt lat="61.113979" lon="14.130338">
        <ele>241.455</ele>
        <time>1970-01-01T01:00:00Z</time>
      </trkpt>
      <trkpt lat="61.113872" lon="14.130308">
        <ele>241.818</ele>
        <time>1970-01-01T01:00:00Z</time>
      </trkpt>
      <trkpt lat="61.11378" lon="14.130321">
        <ele>242.182</ele>
        <time>1970-01-01T01:00:00Z</time>
      </trkpt>
      <trkpt lat="61.113765" lon="14.130338">
        <ele>242.545</ele>
        <time>1970-01-01T01:00:00Z</time>
      </trkpt>
      <trkpt lat="61.1137" lon="14.130421">
        <ele>242.909</ele>
        <time>1970-01-01T01:00:00Z</time>
      </trkpt>
      <trkpt lat="61.113712" lon="14.130621">
        <ele>243.182</ele>
        <time>1970-01-01T01:00:00Z</time>
      </trkpt>
      <trkpt lat="61.113723" lon="14.130807">
        <ele>243.455</ele>
        <time>1970-01-01T01:00:00Z</time>
      </trkpt>
      <trkpt lat="61.113731" lon="14.130867">
        <ele>243.727</ele>
        <time>1970-01-01T01:00:00Z</time>
      </trkpt>
      <trkpt lat="61.11375" lon="14.131019">
        <ele>243.636</ele>
        <time>1970-01-01T01:00:00Z</time>
      </trkpt>
      <trkpt lat="61.113704" lon="14.131223">
        <ele>243.545</ele>
        <time>1970-01-01T01:00:00Z</time>
      </trkpt>
      <trkpt lat="61.113681" lon="14.131373">
        <ele>243.455</ele>
        <time>1970-01-01T01:00:00Z</time>
      </trkpt>
      <trkpt lat="61.113616" lon="14.131539">
        <ele>243.364</ele>
        <time>1970-01-01T01:00:00Z</time>
      </trkpt>
      <trkpt lat="61.113605" lon="14.131574">
        <ele>243.091</ele>
        <time>1970-01-01T01:00:00Z</time>
      </trkpt>
      <trkpt lat="61.113574" lon="14.131747">
        <ele>242.818</ele>
        <time>1970-01-01T01:00:00Z</time>
      </trkpt>
      <trkpt lat="61.113491" lon="14.131964">
        <ele>242.545</ele>
        <time>1970-01-01T01:00:00Z</time>
      </trkpt>
      <trkpt lat="61.113452" lon="14.132105">
        <ele>242.273</ele>
        <time>1970-01-01T01:00:00Z</time>
      </trkpt>
      <trkpt lat="61.113449" lon="14.13214">
        <ele>242.091</ele>
        <time>1970-01-01T01:00:00Z</time>
      </trkpt>
      <trkpt lat="61.113391" lon="14.132286">
        <ele>241.818</ele>
        <time>1970-01-01T01:00:00Z</time>
      </trkpt>
      <trkpt lat="61.113376" lon="14.132357">
        <ele>241.545</ele>
        <time>1970-01-01T01:00:00Z</time>
      </trkpt>
      <trkpt lat="61.11333" lon="14.132525">
        <ele>241.273</ele>
        <time>1970-01-01T01:00:00Z</time>
      </trkpt>
      <trkpt lat="61.113254" lon="14.132836">
        <ele>241</ele>
        <time>1970-01-01T01:00:00Z</time>
      </trkpt>
      <trkpt lat="61.113178" lon="14.132946">
        <ele>240.727</ele>
        <time>1970-01-01T01:00:00Z</time>
      </trkpt>
      <trkpt lat="61.113151" lon="14.133062">
        <ele>240.455</ele>
        <time>1970-01-01T01:00:00Z</time>
      </trkpt>
      <trkpt lat="61.113132" lon="14.133234">
        <ele>240.364</ele>
        <time>1970-01-01T01:00:00Z</time>
      </trkpt>
      <trkpt lat="61.113143" lon="14.133346">
        <ele>240.273</ele>
        <time>1970-01-01T01:00:00Z</time>
      </trkpt>
      <trkpt lat="61.113113" lon="14.133482">
        <ele>240.182</ele>
        <time>1970-01-01T01:00:00Z</time>
      </trkpt>
      <trkpt lat="61.113094" lon="14.133598">
        <ele>240.091</ele>
        <time>1970-01-01T01:00:00Z</time>
      </trkpt>
      <trkpt lat="61.113086" lon="14.133715">
        <ele>240</ele>
        <time>1970-01-01T01:00:00Z</time>
      </trkpt>
      <trkpt lat="61.113082" lon="14.13374">
        <ele>240</ele>
        <time>1970-01-01T01:00:00Z</time>
      </trkpt>
      <trkpt lat="61.113075" lon="14.133843">
        <ele>240</ele>
        <time>1970-01-01T01:00:00Z</time>
      </trkpt>
      <trkpt lat="61.11304" lon="14.134122">
        <ele>240</ele>
        <time>1970-01-01T01:00:00Z</time>
      </trkpt>
      <trkpt lat="61.113029" lon="14.134435">
        <ele>240</ele>
        <time>1970-01-01T01:00:00Z</time>
      </trkpt>
      <trkpt lat="61.113029" lon="14.134532">
        <ele>240</ele>
        <time>1970-01-01T01:00:00Z</time>
      </trkpt>
      <trkpt lat="61.113037" lon="14.134804">
        <ele>240.091</ele>
        <time>1970-01-01T01:00:00Z</time>
      </trkpt>
      <trkpt lat="61.11304" lon="14.134849">
        <ele>240.182</ele>
        <time>1970-01-01T01:00:00Z</time>
      </trkpt>
      <trkpt lat="61.113025" lon="14.134935">
        <ele>240.273</ele>
        <time>1970-01-01T01:00:00Z</time>
      </trkpt>
      <trkpt lat="61.113025" lon="14.135158">
        <ele>240.364</ele>
        <time>1970-01-01T01:00:00Z</time>
      </trkpt>
      <trkpt lat="61.113033" lon="14.135285">
        <ele>240.727</ele>
        <time>1970-01-01T01:00:00Z</time>
      </trkpt>
      <trkpt lat="61.113033" lon="14.135524">
        <ele>241.091</ele>
        <time>1970-01-01T01:00:00Z</time>
      </trkpt>
      <trkpt lat="61.113021" lon="14.135603">
        <ele>241.455</ele>
        <time>1970-01-01T01:00:00Z</time>
      </trkpt>
      <trkpt lat="61.113014" lon="14.135672">
        <ele>241.909</ele>
        <time>1970-01-01T01:00:00Z</time>
      </trkpt>
      <trkpt lat="61.112991" lon="14.135862">
        <ele>242.364</ele>
        <time>1970-01-01T01:00:00Z</time>
      </trkpt>
      <trkpt lat="61.112968" lon="14.135989">
        <ele>242.818</ele>
        <time>1970-01-01T01:00:00Z</time>
      </trkpt>
      <trkpt lat="61.112945" lon="14.136219">
        <ele>243.273</ele>
        <time>1970-01-01T01:00:00Z</time>
      </trkpt>
      <trkpt lat="61.112934" lon="14.13631">
        <ele>243.636</ele>
        <time>1970-01-01T01:00:00Z</time>
      </trkpt>
      <trkpt lat="61.112911" lon="14.136517">
        <ele>244.091</ele>
        <time>1970-01-01T01:00:00Z</time>
      </trkpt>
      <trkpt lat="61.112907" lon="14.136686">
        <ele>244.545</ele>
        <time>1970-01-01T01:00:00Z</time>
      </trkpt>
      <trkpt lat="61.112926" lon="14.136866">
        <ele>245</ele>
        <time>1970-01-01T01:00:00Z</time>
      </trkpt>
      <trkpt lat="61.112892" lon="14.137078">
        <ele>245.182</ele>
        <time>1970-01-01T01:00:00Z</time>
      </trkpt>
      <trkpt lat="61.112884" lon="14.137113">
        <ele>245.364</ele>
        <time>1970-01-01T01:00:00Z</time>
      </trkpt>
      <trkpt lat="61.112895" lon="14.137253">
        <ele>245.545</ele>
        <time>1970-01-01T01:00:00Z</time>
      </trkpt>
      <trkpt lat="61.112911" lon="14.137388">
        <ele>245.727</ele>
        <time>1970-01-01T01:00:00Z</time>
      </trkpt>
      <trkpt lat="61.112907" lon="14.137537">
        <ele>245.545</ele>
        <time>1970-01-01T01:00:00Z</time>
      </trkpt>
      <trkpt lat="61.112884" lon="14.137639">
        <ele>245.364</ele>
        <time>1970-01-01T01:00:00Z</time>
      </trkpt>
      <trkpt lat="61.112888" lon="14.137705">
        <ele>245.182</ele>
        <time>1970-01-01T01:00:00Z</time>
      </trkpt>
      <trkpt lat="61.112903" lon="14.137804">
        <ele>245</ele>
        <time>1970-01-01T01:00:00Z</time>
      </trkpt>
      <trkpt lat="61.11296" lon="14.138033">
        <ele>244.727</ele>
        <time>1970-01-01T01:00:00Z</time>
      </trkpt>
      <trkpt lat="61.113021" lon="14.138312">
        <ele>244.455</ele>
        <time>1970-01-01T01:00:00Z</time>
      </trkpt>
      <trkpt lat="61.113033" lon="14.138538">
        <ele>244.182</ele>
        <time>1970-01-01T01:00:00Z</time>
      </trkpt>
      <trkpt lat="61.113063" lon="14.138776">
        <ele>243.818</ele>
        <time>1970-01-01T01:00:00Z</time>
      </trkpt>
      <trkpt lat="61.113075" lon="14.138816">
        <ele>243.455</ele>
        <time>1970-01-01T01:00:00Z</time>
      </trkpt>
      <trkpt lat="61.113101" lon="14.139142">
        <ele>243.091</ele>
        <time>1970-01-01T01:00:00Z</time>
      </trkpt>
      <trkpt lat="61.113143" lon="14.139369">
        <ele>242.636</ele>
        <time>1970-01-01T01:00:00Z</time>
      </trkpt>
      <trkpt lat="61.113178" lon="14.13961">
        <ele>242.455</ele>
        <time>1970-01-01T01:00:00Z</time>
      </trkpt>
      <trkpt lat="61.113178" lon="14.139657">
        <ele>242.273</ele>
        <time>1970-01-01T01:00:00Z</time>
      </trkpt>
      <trkpt lat="61.113208" lon="14.139871">
        <ele>242.091</ele>
        <time>1970-01-01T01:00:00Z</time>
      </trkpt>
      <trkpt lat="61.113235" lon="14.139971">
        <ele>241.909</ele>
        <time>1970-01-01T01:00:00Z</time>
      </trkpt>
      <trkpt lat="61.113273" lon="14.140286">
        <ele>241.636</ele>
        <time>1970-01-01T01:00:00Z</time>
      </trkpt>
      <trkpt lat="61.113273" lon="14.140491">
        <ele>241.364</ele>
        <time>1970-01-01T01:00:00Z</time>
      </trkpt>
      <trkpt lat="61.113327" lon="14.140734">
        <ele>241.091</ele>
        <time>1970-01-01T01:00:00Z</time>
      </trkpt>
      <trkpt lat="61.11333" lon="14.140796">
        <ele>240.909</ele>
        <time>1970-01-01T01:00:00Z</time>
      </trkpt>
      <trkpt lat="61.113414" lon="14.141144">
        <ele>240.455</ele>
        <time>1970-01-01T01:00:00Z</time>
      </trkpt>
      <trkpt lat="61.113536" lon="14.141498">
        <ele>240</ele>
        <time>1970-01-01T01:00:00Z</time>
      </trkpt>
      <trkpt lat="61.113582" lon="14.141636">
        <ele>239.545</ele>
        <time>1970-01-01T01:00:00Z</time>
      </trkpt>
      <trkpt lat="61.11367" lon="14.141887">
        <ele>239.182</ele>
        <time>1970-01-01T01:00:00Z</time>
      </trkpt>
      <trkpt lat="61.113769" lon="14.142168">
        <ele>239</ele>
        <time>1970-01-01T01:00:00Z</time>
      </trkpt>
      <trkpt lat="61.113815" lon="14.142365">
        <ele>238.818</ele>
        <time>1970-01-01T01:00:00Z</time>
      </trkpt>
      <trkpt lat="61.113868" lon="14.142559">
        <ele>238.636</ele>
        <time>1970-01-01T01:00:00Z</time>
      </trkpt>
      <trkpt lat="61.113887" lon="14.142736">
        <ele>238.545</ele>
        <time>1970-01-01T01:00:00Z</time>
      </trkpt>
      <trkpt lat="61.113891" lon="14.142976">
        <ele>238.545</ele>
        <time>1970-01-01T01:00:00Z</time>
      </trkpt>
      <trkpt lat="61.113906" lon="14.143099">
        <ele>238.545</ele>
        <time>1970-01-01T01:00:00Z</time>
      </trkpt>
      <trkpt lat="61.11391" lon="14.143135">
        <ele>238.545</ele>
        <time>1970-01-01T01:00:00Z</time>
      </trkpt>
      <trkpt lat="61.113956" lon="14.14341">
        <ele>238.909</ele>
        <time>1970-01-01T01:00:00Z</time>
      </trkpt>
      <trkpt lat="61.114025" lon="14.143558">
        <ele>239.273</ele>
        <time>1970-01-01T01:00:00Z</time>
      </trkpt>
      <trkpt lat="61.114173" lon="14.143965">
        <ele>239.636</ele>
        <time>1970-01-01T01:00:00Z</time>
      </trkpt>
      <trkpt lat="61.114322" lon="14.144294">
        <ele>239.636</ele>
        <time>1970-01-01T01:00:00Z</time>
      </trkpt>
      <trkpt lat="61.114402" lon="14.14451">
        <ele>239.455</ele>
        <time>1970-01-01T01:00:00Z</time>
      </trkpt>
      <trkpt lat="61.114513" lon="14.144834">
        <ele>239.273</ele>
        <time>1970-01-01T01:00:00Z</time>
      </trkpt>
      <trkpt lat="61.114532" lon="14.14505">
        <ele>239.091</ele>
        <time>1970-01-01T01:00:00Z</time>
      </trkpt>
      <trkpt lat="61.114608" lon="14.145323">
        <ele>238.909</ele>
        <time>1970-01-01T01:00:00Z</time>
      </trkpt>
      <trkpt lat="61.114711" lon="14.145556">
        <ele>238.636</ele>
        <time>1970-01-01T01:00:00Z</time>
      </trkpt>
      <trkpt lat="61.114776" lon="14.145699">
        <ele>238.364</ele>
        <time>1970-01-01T01:00:00Z</time>
      </trkpt>
      <trkpt lat="61.114795" lon="14.145844">
        <ele>238.091</ele>
        <time>1970-01-01T01:00:00Z</time>
      </trkpt>
      <trkpt lat="61.11483" lon="14.145983">
        <ele>237.727</ele>
        <time>1970-01-01T01:00:00Z</time>
      </trkpt>
      <trkpt lat="61.114875" lon="14.146241">
        <ele>236.727</ele>
        <time>1970-01-01T01:00:00Z</time>
      </trkpt>
      <trkpt lat="61.114963" lon="14.146523">
        <ele>235.727</ele>
        <time>1970-01-01T01:00:00Z</time>
      </trkpt>
      <trkpt lat="61.115047" lon="14.146638">
        <ele>235.091</ele>
        <time>1970-01-01T01:00:00Z</time>
      </trkpt>
      <trkpt lat="61.1152" lon="14.14687">
        <ele>234.455</ele>
        <time>1970-01-01T01:00:00Z</time>
      </trkpt>
      <trkpt lat="61.115383" lon="14.147325">
        <ele>233.818</ele>
        <time>1970-01-01T01:00:00Z</time>
      </trkpt>
      <trkpt lat="61.115558" lon="14.14809">
        <ele>233.182</ele>
        <time>1970-01-01T01:00:00Z</time>
      </trkpt>
      <trkpt lat="61.115592" lon="14.148324">
        <ele>232.455</ele>
        <time>1970-01-01T01:00:00Z</time>
      </trkpt>
      <trkpt lat="61.115657" lon="14.148807">
        <ele>231.727</ele>
        <time>1970-01-01T01:00:00Z</time>
      </trkpt>
      <trkpt lat="61.115715" lon="14.149161">
        <ele>231</ele>
        <time>1970-01-01T01:00:00Z</time>
      </trkpt>
      <trkpt lat="61.115756" lon="14.149329">
        <ele>230.091</ele>
        <time>1970-01-01T01:00:00Z</time>
      </trkpt>
      <trkpt lat="61.115779" lon="14.149394">
        <ele>229.182</ele>
        <time>1970-01-01T01:00:00Z</time>
      </trkpt>
      <trkpt lat="61.115848" lon="14.149739">
        <ele>228.727</ele>
        <time>1970-01-01T01:00:00Z</time>
      </trkpt>
      <trkpt lat="61.115921" lon="14.150167">
        <ele>227.818</ele>
        <time>1970-01-01T01:00:00Z</time>
      </trkpt>
      <trkpt lat="61.115947" lon="14.150259">
        <ele>226.818</ele>
        <time>1970-01-01T01:00:00Z</time>
      </trkpt>
      <trkpt lat="61.116088" lon="14.150738">
        <ele>225.818</ele>
        <time>1970-01-01T01:00:00Z</time>
      </trkpt>
      <trkpt lat="61.116191" lon="14.151224">
        <ele>224.818</ele>
        <time>1970-01-01T01:00:00Z</time>
      </trkpt>
      <trkpt lat="61.11626" lon="14.151575">
        <ele>223.727</ele>
        <time>1970-01-01T01:00:00Z</time>
      </trkpt>
      <trkpt lat="61.116409" lon="14.151947">
        <ele>222.636</ele>
        <time>1970-01-01T01:00:00Z</time>
      </trkpt>
      <trkpt lat="61.116588" lon="14.152238">
        <ele>221.545</ele>
        <time>1970-01-01T01:00:00Z</time>
      </trkpt>
      <trkpt lat="61.116668" lon="14.152407">
        <ele>220.455</ele>
        <time>1970-01-01T01:00:00Z</time>
      </trkpt>
      <trkpt lat="61.116733" lon="14.152974">
        <ele>219.545</ele>
        <time>1970-01-01T01:00:00Z</time>
      </trkpt>
      <trkpt lat="61.116683" lon="14.153471">
        <ele>218.545</ele>
        <time>1970-01-01T01:00:00Z</time>
      </trkpt>
      <trkpt lat="61.116611" lon="14.15393">
        <ele>217.727</ele>
        <time>1970-01-01T01:00:00Z</time>
      </trkpt>
      <trkpt lat="61.116592" lon="14.15401">
        <ele>217.364</ele>
        <time>1970-01-01T01:00:00Z</time>
      </trkpt>
      <trkpt lat="61.116542" lon="14.154199">
        <ele>216.909</ele>
        <time>1970-01-01T01:00:00Z</time>
      </trkpt>
      <trkpt lat="61.116481" lon="14.154414">
        <ele>216.455</ele>
        <time>1970-01-01T01:00:00Z</time>
      </trkpt>
      <trkpt lat="61.1165" lon="14.154751">
        <ele>216</ele>
        <time>1970-01-01T01:00:00Z</time>
      </trkpt>
      <trkpt lat="61.116573" lon="14.155043">
        <ele>215.636</ele>
        <time>1970-01-01T01:00:00Z</time>
      </trkpt>
      <trkpt lat="61.116657" lon="14.155444">
        <ele>215.364</ele>
        <time>1970-01-01T01:00:00Z</time>
      </trkpt>
      <trkpt lat="61.116703" lon="14.155866">
        <ele>215</ele>
        <time>1970-01-01T01:00:00Z</time>
      </trkpt>
      <trkpt lat="61.116706" lon="14.156041">
        <ele>214.636</ele>
        <time>1970-01-01T01:00:00Z</time>
      </trkpt>
      <trkpt lat="61.116699" lon="14.156382">
        <ele>214.182</ele>
        <time>1970-01-01T01:00:00Z</time>
      </trkpt>
      <trkpt lat="61.116683" lon="14.156829">
        <ele>213.818</ele>
        <time>1970-01-01T01:00:00Z</time>
      </trkpt>
      <trkpt lat="61.116672" lon="14.157006">
        <ele>213.455</ele>
        <time>1970-01-01T01:00:00Z</time>
      </trkpt>
      <trkpt lat="61.116641" lon="14.157302">
        <ele>213.091</ele>
        <time>1970-01-01T01:00:00Z</time>
      </trkpt>
      <trkpt lat="61.116664" lon="14.157731">
        <ele>212.909</ele>
        <time>1970-01-01T01:00:00Z</time>
      </trkpt>
      <trkpt lat="61.116699" lon="14.157987">
        <ele>212.727</ele>
        <time>1970-01-01T01:00:00Z</time>
      </trkpt>
      <trkpt lat="61.116699" lon="14.158237">
        <ele>212.545</ele>
        <time>1970-01-01T01:00:00Z</time>
      </trkpt>
      <trkpt lat="61.116714" lon="14.158716">
        <ele>212.364</ele>
        <time>1970-01-01T01:00:00Z</time>
      </trkpt>
      <trkpt lat="61.11671" lon="14.158918">
        <ele>212.182</ele>
        <time>1970-01-01T01:00:00Z</time>
      </trkpt>
      <trkpt lat="61.116691" lon="14.159105">
        <ele>212.091</ele>
        <time>1970-01-01T01:00:00Z</time>
      </trkpt>
      <trkpt lat="61.116668" lon="14.159231">
        <ele>211.909</ele>
        <time>1970-01-01T01:00:00Z</time>
      </trkpt>
      <trkpt lat="61.116596" lon="14.159421">
        <ele>212.091</ele>
        <time>1970-01-01T01:00:00Z</time>
      </trkpt>
      <trkpt lat="61.116512" lon="14.159526">
        <ele>212.273</ele>
        <time>1970-01-01T01:00:00Z</time>
      </trkpt>
      <trkpt lat="61.116477" lon="14.159553">
        <ele>212.455</ele>
        <time>1970-01-01T01:00:00Z</time>
      </trkpt>
      <trkpt lat="61.116416" lon="14.159579">
        <ele>212.636</ele>
        <time>1970-01-01T01:00:00Z</time>
      </trkpt>
      <trkpt lat="61.116321" lon="14.15967">
        <ele>212.818</ele>
        <time>1970-01-01T01:00:00Z</time>
      </trkpt>
      <trkpt lat="61.116264" lon="14.159678">
        <ele>213</ele>
        <time>1970-01-01T01:00:00Z</time>
      </trkpt>
      <trkpt lat="61.116207" lon="14.159711">
        <ele>213.182</ele>
        <time>1970-01-01T01:00:00Z</time>
      </trkpt>
      <trkpt lat="61.116184" lon="14.159734">
        <ele>213.364</ele>
        <time>1970-01-01T01:00:00Z</time>
      </trkpt>
      <trkpt lat="61.116165" lon="14.159743">
        <ele>213.545</ele>
        <time>1970-01-01T01:00:00Z</time>
      </trkpt>
      <trkpt lat="61.116088" lon="14.15982">
        <ele>213.727</ele>
        <time>1970-01-01T01:00:00Z</time>
      </trkpt>
      <trkpt lat="61.116039" lon="14.159883">
        <ele>214</ele>
        <time>1970-01-01T01:00:00Z</time>
      </trkpt>
      <trkpt lat="61.116031" lon="14.159896">
        <ele>214</ele>
        <time>1970-01-01T01:00:00Z</time>
      </trkpt>
      <trkpt lat="61.116008" lon="14.159914">
        <ele>214</ele>
        <time>1970-01-01T01:00:00Z</time>
      </trkpt>
      <trkpt lat="61.115921" lon="14.159989">
        <ele>214</ele>
        <time>1970-01-01T01:00:00Z</time>
      </trkpt>
      <trkpt lat="61.115844" lon="14.160071">
        <ele>214</ele>
        <time>1970-01-01T01:00:00Z</time>
      </trkpt>
      <trkpt lat="61.115753" lon="14.160185">
        <ele>214</ele>
        <time>1970-01-01T01:00:00Z</time>
      </trkpt>
      <trkpt lat="61.115692" lon="14.160245">
        <ele>214</ele>
        <time>1970-01-01T01:00:00Z</time>
      </trkpt>
      <trkpt lat="61.115623" lon="14.160344">
        <ele>214.273</ele>
        <time>1970-01-01T01:00:00Z</time>
      </trkpt>
      <trkpt lat="61.115615" lon="14.160361">
        <ele>214.545</ele>
        <time>1970-01-01T01:00:00Z</time>
      </trkpt>
      <trkpt lat="61.115562" lon="14.160426">
        <ele>214.818</ele>
        <time>1970-01-01T01:00:00Z</time>
      </trkpt>
      <trkpt lat="61.115531" lon="14.160459">
        <ele>215.091</ele>
        <time>1970-01-01T01:00:00Z</time>
      </trkpt>
      <trkpt lat="61.11547" lon="14.160582">
        <ele>215.364</ele>
        <time>1970-01-01T01:00:00Z</time>
      </trkpt>
      <trkpt lat="61.115425" lon="14.160688">
        <ele>215.636</ele>
        <time>1970-01-01T01:00:00Z</time>
      </trkpt>
      <trkpt lat="61.115379" lon="14.160804">
        <ele>215.909</ele>
        <time>1970-01-01T01:00:00Z</time>
      </trkpt>
      <trkpt lat="61.115341" lon="14.160984">
        <ele>216.182</ele>
        <time>1970-01-01T01:00:00Z</time>
      </trkpt>
      <trkpt lat="61.11531" lon="14.161043">
        <ele>216.455</ele>
        <time>1970-01-01T01:00:00Z</time>
      </trkpt>
      <trkpt lat="61.115268" lon="14.161144">
        <ele>216.727</ele>
        <time>1970-01-01T01:00:00Z</time>
      </trkpt>
      <trkpt lat="61.115222" lon="14.16124">
        <ele>217</ele>
        <time>1970-01-01T01:00:00Z</time>
      </trkpt>
      <trkpt lat="61.1152" lon="14.161295">
        <ele>217</ele>
        <time>1970-01-01T01:00:00Z</time>
      </trkpt>
      <trkpt lat="61.11515" lon="14.161379">
        <ele>217</ele>
        <time>1970-01-01T01:00:00Z</time>
      </trkpt>
      <trkpt lat="61.115127" lon="14.161439">
        <ele>217</ele>
        <time>1970-01-01T01:00:00Z</time>
      </trkpt>
      <trkpt lat="61.115077" lon="14.161513">
        <ele>217</ele>
        <time>1970-01-01T01:00:00Z</time>
      </trkpt>
      <trkpt lat="61.115058" lon="14.161571">
        <ele>217</ele>
        <time>1970-01-01T01:00:00Z</time>
      </trkpt>
      <trkpt lat="61.115036" lon="14.161637">
        <ele>217</ele>
        <time>1970-01-01T01:00:00Z</time>
      </trkpt>
      <trkpt lat="61.114994" lon="14.161699">
        <ele>216.909</ele>
        <time>1970-01-01T01:00:00Z</time>
      </trkpt>
      <trkpt lat="61.11491" lon="14.161863">
        <ele>216.818</ele>
        <time>1970-01-01T01:00:00Z</time>
      </trkpt>
      <trkpt lat="61.114879" lon="14.161928">
        <ele>216.727</ele>
        <time>1970-01-01T01:00:00Z</time>
      </trkpt>
      <trkpt lat="61.11481" lon="14.162095">
        <ele>216.636</ele>
        <time>1970-01-01T01:00:00Z</time>
      </trkpt>
      <trkpt lat="61.114788" lon="14.162134">
        <ele>216.545</ele>
        <time>1970-01-01T01:00:00Z</time>
      </trkpt>
      <trkpt lat="61.114727" lon="14.162295">
        <ele>216.455</ele>
        <time>1970-01-01T01:00:00Z</time>
      </trkpt>
      <trkpt lat="61.114704" lon="14.16252">
        <ele>216.636</ele>
        <time>1970-01-01T01:00:00Z</time>
      </trkpt>
      <trkpt lat="61.114696" lon="14.162717">
        <ele>216.818</ele>
        <time>1970-01-01T01:00:00Z</time>
      </trkpt>
      <trkpt lat="61.114723" lon="14.163048">
        <ele>217.091</ele>
        <time>1970-01-01T01:00:00Z</time>
      </trkpt>
      <trkpt lat="61.114681" lon="14.163403">
        <ele>217.364</ele>
        <time>1970-01-01T01:00:00Z</time>
      </trkpt>
      <trkpt lat="61.114658" lon="14.163686">
        <ele>217.636</ele>
        <time>1970-01-01T01:00:00Z</time>
      </trkpt>
      <trkpt lat="61.114574" lon="14.163811">
        <ele>218</ele>
        <time>1970-01-01T01:00:00Z</time>
      </trkpt>
      <trkpt lat="61.114551" lon="14.163835">
        <ele>218.364</ele>
        <time>1970-01-01T01:00:00Z</time>
      </trkpt>
      <trkpt lat="61.114459" lon="14.163946">
        <ele>218.727</ele>
        <time>1970-01-01T01:00:00Z</time>
      </trkpt>
      <trkpt lat="61.114437" lon="14.163978">
        <ele>219.091</ele>
        <time>1970-01-01T01:00:00Z</time>
      </trkpt>
      <trkpt lat="61.114364" lon="14.164138">
        <ele>219.455</ele>
        <time>1970-01-01T01:00:00Z</time>
      </trkpt>
      <trkpt lat="61.114345" lon="14.164186">
        <ele>219.818</ele>
        <time>1970-01-01T01:00:00Z</time>
      </trkpt>
      <trkpt lat="61.114295" lon="14.164297">
        <ele>219.909</ele>
        <time>1970-01-01T01:00:00Z</time>
      </trkpt>
      <trkpt lat="61.114284" lon="14.164326">
        <ele>220</ele>
        <time>1970-01-01T01:00:00Z</time>
      </trkpt>
      <trkpt lat="61.114269" lon="14.16436">
        <ele>220</ele>
        <time>1970-01-01T01:00:00Z</time>
      </trkpt>
      <trkpt lat="61.114234" lon="14.164446">
        <ele>220</ele>
        <time>1970-01-01T01:00:00Z</time>
      </trkpt>
      <trkpt lat="61.114223" lon="14.164487">
        <ele>220</ele>
        <time>1970-01-01T01:00:00Z</time>
      </trkpt>
      <trkpt lat="61.114181" lon="14.164595">
        <ele>220</ele>
        <time>1970-01-01T01:00:00Z</time>
      </trkpt>
      <trkpt lat="61.114173" lon="14.164616">
        <ele>220</ele>
        <time>1970-01-01T01:00:00Z</time>
      </trkpt>
      <trkpt lat="61.114109" lon="14.164726">
        <ele>220</ele>
        <time>1970-01-01T01:00:00Z</time>
      </trkpt>
      <trkpt lat="61.114028" lon="14.164865">
        <ele>220.818</ele>
        <time>1970-01-01T01:00:00Z</time>
      </trkpt>
      <trkpt lat="61.113956" lon="14.16501">
        <ele>221.636</ele>
        <time>1970-01-01T01:00:00Z</time>
      </trkpt>
      <trkpt lat="61.113899" lon="14.165104">
        <ele>222.545</ele>
        <time>1970-01-01T01:00:00Z</time>
      </trkpt>
      <trkpt lat="61.113864" lon="14.165155">
        <ele>223.455</ele>
        <time>1970-01-01T01:00:00Z</time>
      </trkpt>
      <trkpt lat="61.113834" lon="14.165195">
        <ele>224.364</ele>
        <time>1970-01-01T01:00:00Z</time>
      </trkpt>
      <trkpt lat="61.113773" lon="14.165281">
        <ele>225.273</ele>
        <time>1970-01-01T01:00:00Z</time>
      </trkpt>
      <trkpt lat="61.113716" lon="14.165386">
        <ele>226.182</ele>
        <time>1970-01-01T01:00:00Z</time>
      </trkpt>
      <trkpt lat="61.113666" lon="14.165524">
        <ele>227.091</ele>
        <time>1970-01-01T01:00:00Z</time>
      </trkpt>
      <trkpt lat="61.11362" lon="14.165648">
        <ele>228</ele>
        <time>1970-01-01T01:00:00Z</time>
      </trkpt>
      <trkpt lat="61.113567" lon="14.16579">
        <ele>229</ele>
        <time>1970-01-01T01:00:00Z</time>
      </trkpt>
      <trkpt lat="61.113536" lon="14.165888">
        <ele>230</ele>
        <time>1970-01-01T01:00:00Z</time>
      </trkpt>
      <trkpt lat="61.113471" lon="14.16602">
        <ele>230.182</ele>
        <time>1970-01-01T01:00:00Z</time>
      </trkpt>
      <trkpt lat="61.113403" lon="14.166166">
        <ele>231.091</ele>
        <time>1970-01-01T01:00:00Z</time>
      </trkpt>
      <trkpt lat="61.113376" lon="14.166209">
        <ele>231.909</ele>
        <time>1970-01-01T01:00:00Z</time>
      </trkpt>
      <trkpt lat="61.113239" lon="14.166447">
        <ele>232.727</ele>
        <time>1970-01-01T01:00:00Z</time>
      </trkpt>
      <trkpt lat="61.113143" lon="14.166617">
        <ele>233.545</ele>
        <time>1970-01-01T01:00:00Z</time>
      </trkpt>
      <trkpt lat="61.113021" lon="14.166739">
        <ele>234.364</ele>
        <time>1970-01-01T01:00:00Z</time>
      </trkpt>
      <trkpt lat="61.112937" lon="14.166859">
        <ele>235.273</ele>
        <time>1970-01-01T01:00:00Z</time>
      </trkpt>
      <trkpt lat="61.112876" lon="14.167032">
        <ele>236.182</ele>
        <time>1970-01-01T01:00:00Z</time>
      </trkpt>
      <trkpt lat="61.112834" lon="14.167271">
        <ele>237.091</ele>
        <time>1970-01-01T01:00:00Z</time>
      </trkpt>
      <trkpt lat="61.112804" lon="14.167496">
        <ele>237.909</ele>
        <time>1970-01-01T01:00:00Z</time>
      </trkpt>
      <trkpt lat="61.112785" lon="14.16786">
        <ele>238.727</ele>
        <time>1970-01-01T01:00:00Z</time>
      </trkpt>
      <trkpt lat="61.112823" lon="14.168245">
        <ele>239.545</ele>
        <time>1970-01-01T01:00:00Z</time>
      </trkpt>
      <trkpt lat="61.112823" lon="14.16859">
        <ele>238.818</ele>
        <time>1970-01-01T01:00:00Z</time>
      </trkpt>
      <trkpt lat="61.112846" lon="14.16891">
        <ele>238.091</ele>
        <time>1970-01-01T01:00:00Z</time>
      </trkpt>
      <trkpt lat="61.11285" lon="14.168993">
        <ele>237.364</ele>
        <time>1970-01-01T01:00:00Z</time>
      </trkpt>
      <trkpt lat="61.112873" lon="14.169404">
        <ele>236.636</ele>
        <time>1970-01-01T01:00:00Z</time>
      </trkpt>
      <trkpt lat="61.112892" lon="14.169479">
        <ele>235.818</ele>
        <time>1970-01-01T01:00:00Z</time>
      </trkpt>
      <trkpt lat="61.113018" lon="14.170176">
        <ele>234.909</ele>
        <time>1970-01-01T01:00:00Z</time>
      </trkpt>
      <trkpt lat="61.113094" lon="14.170543">
        <ele>234</ele>
        <time>1970-01-01T01:00:00Z</time>
      </trkpt>
      <trkpt lat="61.113185" lon="14.170959">
        <ele>233.091</ele>
        <time>1970-01-01T01:00:00Z</time>
      </trkpt>
      <trkpt lat="61.113277" lon="14.171221">
        <ele>232.182</ele>
        <time>1970-01-01T01:00:00Z</time>
      </trkpt>
      <trkpt lat="61.113334" lon="14.171415">
        <ele>231.182</ele>
        <time>1970-01-01T01:00:00Z</time>
      </trkpt>
      <trkpt lat="61.113361" lon="14.17151">
        <ele>230.182</ele>
        <time>1970-01-01T01:00:00Z</time>
      </trkpt>
      <trkpt lat="61.113384" lon="14.171605">
        <ele>230</ele>
        <time>1970-01-01T01:00:00Z</time>
      </trkpt>
      <trkpt lat="61.113449" lon="14.171792">
        <ele>229.818</ele>
        <time>1970-01-01T01:00:00Z</time>
      </trkpt>
      <trkpt lat="61.113578" lon="14.172193">
        <ele>229</ele>
        <time>1970-01-01T01:00:00Z</time>
      </trkpt>
      <trkpt lat="61.113624" lon="14.172428">
        <ele>228.182</ele>
        <time>1970-01-01T01:00:00Z</time>
      </trkpt>
      <trkpt lat="61.113677" lon="14.172666">
        <ele>227.455</ele>
        <time>1970-01-01T01:00:00Z</time>
      </trkpt>
      <trkpt lat="61.1137" lon="14.172791">
        <ele>226.636</ele>
        <time>1970-01-01T01:00:00Z</time>
      </trkpt>
      <trkpt lat="61.113716" lon="14.17291">
        <ele>225.818</ele>
        <time>1970-01-01T01:00:00Z</time>
      </trkpt>
      <trkpt lat="61.113864" lon="14.173624">
        <ele>224.909</ele>
        <time>1970-01-01T01:00:00Z</time>
      </trkpt>
      <trkpt lat="61.11388" lon="14.174252">
        <ele>224</ele>
        <time>1970-01-01T01:00:00Z</time>
      </trkpt>
      <trkpt lat="61.113876" lon="14.17436">
        <ele>223.182</ele>
        <time>1970-01-01T01:00:00Z</time>
      </trkpt>
      <trkpt lat="61.113861" lon="14.174773">
        <ele>222</ele>
        <time>1970-01-01T01:00:00Z</time>
      </trkpt>
      <trkpt lat="61.113979" lon="14.175253">
        <ele>220.818</ele>
        <time>1970-01-01T01:00:00Z</time>
      </trkpt>
      <trkpt lat="61.114101" lon="14.175543">
        <ele>219.636</ele>
        <time>1970-01-01T01:00:00Z</time>
      </trkpt>
      <trkpt lat="61.114265" lon="14.176023">
        <ele>219.091</ele>
        <time>1970-01-01T01:00:00Z</time>
      </trkpt>
      <trkpt lat="61.114475" lon="14.176266">
        <ele>218.636</ele>
        <time>1970-01-01T01:00:00Z</time>
      </trkpt>
      <trkpt lat="61.114696" lon="14.176173">
        <ele>218.182</ele>
        <time>1970-01-01T01:00:00Z</time>
      </trkpt>
      <trkpt lat="61.114833" lon="14.17591">
        <ele>217.818</ele>
        <time>1970-01-01T01:00:00Z</time>
      </trkpt>
      <trkpt lat="61.114944" lon="14.175622">
        <ele>217.455</ele>
        <time>1970-01-01T01:00:00Z</time>
      </trkpt>
      <trkpt lat="61.114948" lon="14.175569">
        <ele>217.182</ele>
        <time>1970-01-01T01:00:00Z</time>
      </trkpt>
      <trkpt lat="61.114963" lon="14.175416">
        <ele>216.909</ele>
        <time>1970-01-01T01:00:00Z</time>
      </trkpt>
      <trkpt lat="61.114974" lon="14.175365">
        <ele>216.727</ele>
        <time>1970-01-01T01:00:00Z</time>
      </trkpt>
      <trkpt lat="61.115001" lon="14.175196">
        <ele>216.909</ele>
        <time>1970-01-01T01:00:00Z</time>
      </trkpt>
      <trkpt lat="61.115039" lon="14.174972">
        <ele>217</ele>
        <time>1970-01-01T01:00:00Z</time>
      </trkpt>
      <trkpt lat="61.115074" lon="14.17485">
        <ele>216.636</ele>
        <time>1970-01-01T01:00:00Z</time>
      </trkpt>
      <trkpt lat="61.115093" lon="14.174784">
        <ele>216.273</ele>
        <time>1970-01-01T01:00:00Z</time>
      </trkpt>
      <trkpt lat="61.115188" lon="14.174641">
        <ele>216.182</ele>
        <time>1970-01-01T01:00:00Z</time>
      </trkpt>
      <trkpt lat="61.115325" lon="14.174669">
        <ele>216.091</ele>
        <time>1970-01-01T01:00:00Z</time>
      </trkpt>
      <trkpt lat="61.115428" lon="14.174935">
        <ele>216</ele>
        <time>1970-01-01T01:00:00Z</time>
      </trkpt>
      <trkpt lat="61.115459" lon="14.17505">
        <ele>215.909</ele>
        <time>1970-01-01T01:00:00Z</time>
      </trkpt>
      <trkpt lat="61.115497" lon="14.175392">
        <ele>215.818</ele>
        <time>1970-01-01T01:00:00Z</time>
      </trkpt>
      <trkpt lat="61.115432" lon="14.175726">
        <ele>215.727</ele>
        <time>1970-01-01T01:00:00Z</time>
      </trkpt>
      <trkpt lat="61.115417" lon="14.175899">
        <ele>215.545</ele>
        <time>1970-01-01T01:00:00Z</time>
      </trkpt>
      <trkpt lat="61.115379" lon="14.176049">
        <ele>215.364</ele>
        <time>1970-01-01T01:00:00Z</time>
      </trkpt>
      <trkpt lat="61.115333" lon="14.176113">
        <ele>215.273</ele>
        <time>1970-01-01T01:00:00Z</time>
      </trkpt>
      <trkpt lat="61.115318" lon="14.176137">
        <ele>215.545</ele>
        <time>1970-01-01T01:00:00Z</time>
      </trkpt>
      <trkpt lat="61.115272" lon="14.176197">
        <ele>215.818</ele>
        <time>1970-01-01T01:00:00Z</time>
      </trkpt>
      <trkpt lat="61.115253" lon="14.176205">
        <ele>215.727</ele>
        <time>1970-01-01T01:00:00Z</time>
      </trkpt>
      <trkpt lat="61.115188" lon="14.176265">
        <ele>215.636</ele>
        <time>1970-01-01T01:00:00Z</time>
      </trkpt>
      <trkpt lat="61.115169" lon="14.176285">
        <ele>215.545</ele>
        <time>1970-01-01T01:00:00Z</time>
      </trkpt>
      <trkpt lat="61.115116" lon="14.176337">
        <ele>215.455</ele>
        <time>1970-01-01T01:00:00Z</time>
      </trkpt>
      <trkpt lat="61.11507" lon="14.176401">
        <ele>215.364</ele>
        <time>1970-01-01T01:00:00Z</time>
      </trkpt>
      <trkpt lat="61.115051" lon="14.176457">
        <ele>215.273</ele>
        <time>1970-01-01T01:00:00Z</time>
      </trkpt>
      <trkpt lat="61.115024" lon="14.176526">
        <ele>215.182</ele>
        <time>1970-01-01T01:00:00Z</time>
      </trkpt>
      <trkpt lat="61.115024" lon="14.176512">
        <ele>215.091</ele>
        <time>1970-01-01T01:00:00Z</time>
      </trkpt>
      <trkpt lat="61.115016" lon="14.176527">
        <ele>215</ele>
        <time>1970-01-01T01:00:00Z</time>
      </trkpt>
      <trkpt lat="61.114994" lon="14.176538">
        <ele>215</ele>
        <time>1970-01-01T01:00:00Z</time>
      </trkpt>
      <trkpt lat="61.114986" lon="14.176563">
        <ele>215</ele>
        <time>1970-01-01T01:00:00Z</time>
      </trkpt>
      <trkpt lat="61.114967" lon="14.176571">
        <ele>215</ele>
        <time>1970-01-01T01:00:00Z</time>
      </trkpt>
      <trkpt lat="61.11494" lon="14.176595">
        <ele>215</ele>
        <time>1970-01-01T01:00:00Z</time>
      </trkpt>
      <trkpt lat="61.114921" lon="14.176621">
        <ele>215</ele>
        <time>1970-01-01T01:00:00Z</time>
      </trkpt>
      <trkpt lat="61.114871" lon="14.176671">
        <ele>215.455</ele>
        <time>1970-01-01T01:00:00Z</time>
      </trkpt>
      <trkpt lat="61.114856" lon="14.176697">
        <ele>215.909</ele>
        <time>1970-01-01T01:00:00Z</time>
      </trkpt>
      <trkpt lat="61.114791" lon="14.176774">
        <ele>216.364</ele>
        <time>1970-01-01T01:00:00Z</time>
      </trkpt>
      <trkpt lat="61.114757" lon="14.176821">
        <ele>216.818</ele>
        <time>1970-01-01T01:00:00Z</time>
      </trkpt>
      <trkpt lat="61.114738" lon="14.176833">
        <ele>217.273</ele>
        <time>1970-01-01T01:00:00Z</time>
      </trkpt>
      <trkpt lat="61.114608" lon="14.176924">
        <ele>217.727</ele>
        <time>1970-01-01T01:00:00Z</time>
      </trkpt>
      <trkpt lat="61.114509" lon="14.17701">
        <ele>218.182</ele>
        <time>1970-01-01T01:00:00Z</time>
      </trkpt>
      <trkpt lat="61.114395" lon="14.177128">
        <ele>218.545</ele>
        <time>1970-01-01T01:00:00Z</time>
      </trkpt>
      <trkpt lat="61.114311" lon="14.177242">
        <ele>218.909</ele>
        <time>1970-01-01T01:00:00Z</time>
      </trkpt>
      <trkpt lat="61.114208" lon="14.177452">
        <ele>219.273</ele>
        <time>1970-01-01T01:00:00Z</time>
      </trkpt>
      <trkpt lat="61.114078" lon="14.177697">
        <ele>219.636</ele>
        <time>1970-01-01T01:00:00Z</time>
      </trkpt>
      <trkpt lat="61.113983" lon="14.177841">
        <ele>219.455</ele>
        <time>1970-01-01T01:00:00Z</time>
      </trkpt>
      <trkpt lat="61.113918" lon="14.178048">
        <ele>219.273</ele>
        <time>1970-01-01T01:00:00Z</time>
      </trkpt>
      <trkpt lat="61.113876" lon="14.17831">
        <ele>219.091</ele>
        <time>1970-01-01T01:00:00Z</time>
      </trkpt>
      <trkpt lat="61.113899" lon="14.178524">
        <ele>218.909</ele>
        <time>1970-01-01T01:00:00Z</time>
      </trkpt>
      <trkpt lat="61.113922" lon="14.178787">
        <ele>218.636</ele>
        <time>1970-01-01T01:00:00Z</time>
      </trkpt>
      <trkpt lat="61.113922" lon="14.178904">
        <ele>218.364</ele>
        <time>1970-01-01T01:00:00Z</time>
      </trkpt>
      <trkpt lat="61.113933" lon="14.179139">
        <ele>218.091</ele>
        <time>1970-01-01T01:00:00Z</time>
      </trkpt>
      <trkpt lat="61.113941" lon="14.17935">
        <ele>217.818</ele>
        <time>1970-01-01T01:00:00Z</time>
      </trkpt>
      <trkpt lat="61.113952" lon="14.179489">
        <ele>217.545</ele>
        <time>1970-01-01T01:00:00Z</time>
      </trkpt>
      <trkpt lat="61.113925" lon="14.179644">
        <ele>217.636</ele>
        <time>1970-01-01T01:00:00Z</time>
      </trkpt>
      <trkpt lat="61.113887" lon="14.179915">
        <ele>217.727</ele>
        <time>1970-01-01T01:00:00Z</time>
      </trkpt>
      <trkpt lat="61.113861" lon="14.180213">
        <ele>217.909</ele>
        <time>1970-01-01T01:00:00Z</time>
      </trkpt>
      <trkpt lat="61.113845" lon="14.18051">
        <ele>218.091</ele>
        <time>1970-01-01T01:00:00Z</time>
      </trkpt>
      <trkpt lat="61.113838" lon="14.180634">
        <ele>218.273</ele>
        <time>1970-01-01T01:00:00Z</time>
      </trkpt>
      <trkpt lat="61.113796" lon="14.181202">
        <ele>218.455</ele>
        <time>1970-01-01T01:00:00Z</time>
      </trkpt>
      <trkpt lat="61.113777" lon="14.181487">
        <ele>218.727</ele>
        <time>1970-01-01T01:00:00Z</time>
      </trkpt>
      <trkpt lat="61.113758" lon="14.181648">
        <ele>219</ele>
        <time>1970-01-01T01:00:00Z</time>
      </trkpt>
      <trkpt lat="61.113754" lon="14.181916">
        <ele>219.273</ele>
        <time>1970-01-01T01:00:00Z</time>
      </trkpt>
      <trkpt lat="61.113742" lon="14.182088">
        <ele>219.636</ele>
        <time>1970-01-01T01:00:00Z</time>
      </trkpt>
      <trkpt lat="61.113735" lon="14.182264">
        <ele>220</ele>
        <time>1970-01-01T01:00:00Z</time>
      </trkpt>
      <trkpt lat="61.113689" lon="14.182766">
        <ele>220</ele>
        <time>1970-01-01T01:00:00Z</time>
      </trkpt>
      <trkpt lat="61.113498" lon="14.183578">
        <ele>220</ele>
        <time>1970-01-01T01:00:00Z</time>
      </trkpt>
      <trkpt lat="61.113449" lon="14.183898">
        <ele>219.818</ele>
        <time>1970-01-01T01:00:00Z</time>
      </trkpt>
      <trkpt lat="61.113437" lon="14.184115">
        <ele>219.636</ele>
        <time>1970-01-01T01:00:00Z</time>
      </trkpt>
      <trkpt lat="61.113418" lon="14.184585">
        <ele>219.455</ele>
        <time>1970-01-01T01:00:00Z</time>
      </trkpt>
      <trkpt lat="61.113338" lon="14.185089">
        <ele>219.273</ele>
        <time>1970-01-01T01:00:00Z</time>
      </trkpt>
      <trkpt lat="61.113304" lon="14.185199">
        <ele>219</ele>
        <time>1970-01-01T01:00:00Z</time>
      </trkpt>
      <trkpt lat="61.113273" lon="14.185605">
        <ele>218.727</ele>
        <time>1970-01-01T01:00:00Z</time>
      </trkpt>
      <trkpt lat="61.113304" lon="14.185852">
        <ele>218.455</ele>
        <time>1970-01-01T01:00:00Z</time>
      </trkpt>
      <trkpt lat="61.113323" lon="14.186119">
        <ele>218.182</ele>
        <time>1970-01-01T01:00:00Z</time>
      </trkpt>
      <trkpt lat="61.113334" lon="14.18621">
        <ele>217.909</ele>
        <time>1970-01-01T01:00:00Z</time>
      </trkpt>
      <trkpt lat="61.113346" lon="14.186436">
        <ele>217.636</ele>
        <time>1970-01-01T01:00:00Z</time>
      </trkpt>
      <trkpt lat="61.113391" lon="14.186941">
        <ele>218</ele>
        <time>1970-01-01T01:00:00Z</time>
      </trkpt>
      <trkpt lat="61.11338" lon="14.187173">
        <ele>218.545</ele>
        <time>1970-01-01T01:00:00Z</time>
      </trkpt>
      <trkpt lat="61.113231" lon="14.18777">
        <ele>219.091</ele>
        <time>1970-01-01T01:00:00Z</time>
      </trkpt>
      <trkpt lat="61.113117" lon="14.188138">
        <ele>219.364</ele>
        <time>1970-01-01T01:00:00Z</time>
      </trkpt>
      <trkpt lat="61.113037" lon="14.188469">
        <ele>219.636</ele>
        <time>1970-01-01T01:00:00Z</time>
      </trkpt>
      <trkpt lat="61.112918" lon="14.188814">
        <ele>220</ele>
        <time>1970-01-01T01:00:00Z</time>
      </trkpt>
      <trkpt lat="61.112854" lon="14.189044">
        <ele>220.364</ele>
        <time>1970-01-01T01:00:00Z</time>
      </trkpt>
      <trkpt lat="61.112815" lon="14.189405">
        <ele>220.727</ele>
        <time>1970-01-01T01:00:00Z</time>
      </trkpt>
      <trkpt lat="61.11277" lon="14.189721">
        <ele>221.091</ele>
        <time>1970-01-01T01:00:00Z</time>
      </trkpt>
      <trkpt lat="61.112716" lon="14.190149">
        <ele>221.364</ele>
        <time>1970-01-01T01:00:00Z</time>
      </trkpt>
      <trkpt lat="61.112678" lon="14.190391">
        <ele>221.636</ele>
        <time>1970-01-01T01:00:00Z</time>
      </trkpt>
      <trkpt lat="61.112617" lon="14.190565">
        <ele>221.273</ele>
        <time>1970-01-01T01:00:00Z</time>
      </trkpt>
      <trkpt lat="61.112541" lon="14.190809">
        <ele>220.909</ele>
        <time>1970-01-01T01:00:00Z</time>
      </trkpt>
      <trkpt lat="61.112464" lon="14.191118">
        <ele>220.545</ele>
        <time>1970-01-01T01:00:00Z</time>
      </trkpt>
      <trkpt lat="61.112369" lon="14.191396">
        <ele>220.545</ele>
        <time>1970-01-01T01:00:00Z</time>
      </trkpt>
      <trkpt lat="61.112266" lon="14.191644">
        <ele>220.545</ele>
        <time>1970-01-01T01:00:00Z</time>
      </trkpt>
      <trkpt lat="61.112209" lon="14.191801">
        <ele>220.545</ele>
        <time>1970-01-01T01:00:00Z</time>
      </trkpt>
      <trkpt lat="61.112159" lon="14.191913">
        <ele>220.455</ele>
        <time>1970-01-01T01:00:00Z</time>
      </trkpt>
      <trkpt lat="61.112094" lon="14.192116">
        <ele>220.364</ele>
        <time>1970-01-01T01:00:00Z</time>
      </trkpt>
      <trkpt lat="61.11203" lon="14.192294">
        <ele>220.273</ele>
        <time>1970-01-01T01:00:00Z</time>
      </trkpt>
      <trkpt lat="61.11193" lon="14.192595">
        <ele>220.273</ele>
        <time>1970-01-01T01:00:00Z</time>
      </trkpt>
      <trkpt lat="61.111843" lon="14.192964">
        <ele>220.091</ele>
        <time>1970-01-01T01:00:00Z</time>
      </trkpt>
      <trkpt lat="61.11182" lon="14.193037">
        <ele>219.909</ele>
        <time>1970-01-01T01:00:00Z</time>
      </trkpt>
      <trkpt lat="61.111701" lon="14.193392">
        <ele>219.727</ele>
        <time>1970-01-01T01:00:00Z</time>
      </trkpt>
      <trkpt lat="61.11161" lon="14.19359">
        <ele>219.545</ele>
        <time>1970-01-01T01:00:00Z</time>
      </trkpt>
      <trkpt lat="61.111553" lon="14.193753">
        <ele>219.364</ele>
        <time>1970-01-01T01:00:00Z</time>
      </trkpt>
      <trkpt lat="61.111484" lon="14.193904">
        <ele>219.182</ele>
        <time>1970-01-01T01:00:00Z</time>
      </trkpt>
      <trkpt lat="61.111431" lon="14.194064">
        <ele>219</ele>
        <time>1970-01-01T01:00:00Z</time>
      </trkpt>
      <trkpt lat="61.111377" lon="14.194322">
        <ele>218.909</ele>
        <time>1970-01-01T01:00:00Z</time>
      </trkpt>
      <trkpt lat="61.111354" lon="14.194411">
        <ele>218.818</ele>
        <time>1970-01-01T01:00:00Z</time>
      </trkpt>
      <trkpt lat="61.111255" lon="14.194712">
        <ele>218.727</ele>
        <time>1970-01-01T01:00:00Z</time>
      </trkpt>
      <trkpt lat="61.111225" lon="14.194785">
        <ele>218.636</ele>
        <time>1970-01-01T01:00:00Z</time>
      </trkpt>
      <trkpt lat="61.111198" lon="14.194933">
        <ele>218.818</ele>
        <time>1970-01-01T01:00:00Z</time>
      </trkpt>
      <trkpt lat="61.111179" lon="14.19497">
        <ele>219</ele>
        <time>1970-01-01T01:00:00Z</time>
      </trkpt>
      <trkpt lat="61.111087" lon="14.195151">
        <ele>219.182</ele>
        <time>1970-01-01T01:00:00Z</time>
      </trkpt>
      <trkpt lat="61.111068" lon="14.195199">
        <ele>219.364</ele>
        <time>1970-01-01T01:00:00Z</time>
      </trkpt>
      <trkpt lat="61.110988" lon="14.19541">
        <ele>219.455</ele>
        <time>1970-01-01T01:00:00Z</time>
      </trkpt>
      <trkpt lat="61.110919" lon="14.195612">
        <ele>219.545</ele>
        <time>1970-01-01T01:00:00Z</time>
      </trkpt>
      <trkpt lat="61.110836" lon="14.195801">
        <ele>219.636</ele>
        <time>1970-01-01T01:00:00Z</time>
      </trkpt>
      <trkpt lat="61.110786" lon="14.195884">
        <ele>219.727</ele>
        <time>1970-01-01T01:00:00Z</time>
      </trkpt>
      <trkpt lat="61.110755" lon="14.195923">
        <ele>220.818</ele>
        <time>1970-01-01T01:00:00Z</time>
      </trkpt>
      <trkpt lat="61.110744" lon="14.195934">
        <ele>221.909</ele>
        <time>1970-01-01T01:00:00Z</time>
      </trkpt>
      <trkpt lat="61.110664" lon="14.196009">
        <ele>223</ele>
        <time>1970-01-01T01:00:00Z</time>
      </trkpt>
      <trkpt lat="61.110622" lon="14.196045">
        <ele>224.455</ele>
        <time>1970-01-01T01:00:00Z</time>
      </trkpt>
      <trkpt lat="61.110527" lon="14.196077">
        <ele>225.909</ele>
        <time>1970-01-01T01:00:00Z</time>
      </trkpt>
      <trkpt lat="61.110439" lon="14.196113">
        <ele>227.364</ele>
        <time>1970-01-01T01:00:00Z</time>
      </trkpt>
      <trkpt lat="61.110378" lon="14.196185">
        <ele>228.818</ele>
        <time>1970-01-01T01:00:00Z</time>
      </trkpt>
      <trkpt lat="61.110332" lon="14.196249">
        <ele>230.273</ele>
        <time>1970-01-01T01:00:00Z</time>
      </trkpt>
      <trkpt lat="61.110263" lon="14.19641">
        <ele>231.727</ele>
        <time>1970-01-01T01:00:00Z</time>
      </trkpt>
      <trkpt lat="61.110229" lon="14.196521">
        <ele>233.545</ele>
        <time>1970-01-01T01:00:00Z</time>
      </trkpt>
      <trkpt lat="61.110187" lon="14.196609">
        <ele>235.364</ele>
        <time>1970-01-01T01:00:00Z</time>
      </trkpt>
      <trkpt lat="61.110168" lon="14.196675">
        <ele>236.182</ele>
        <time>1970-01-01T01:00:00Z</time>
      </trkpt>
      <trkpt lat="61.11016" lon="14.196776">
        <ele>237</ele>
        <time>1970-01-01T01:00:00Z</time>
      </trkpt>
      <trkpt lat="61.11016" lon="14.19696">
        <ele>237.818</ele>
        <time>1970-01-01T01:00:00Z</time>
      </trkpt>
      <trkpt lat="61.110168" lon="14.197178">
        <ele>238.455</ele>
        <time>1970-01-01T01:00:00Z</time>
      </trkpt>
      <trkpt lat="61.110183" lon="14.197355">
        <ele>239.091</ele>
        <time>1970-01-01T01:00:00Z</time>
      </trkpt>
      <trkpt lat="61.11021" lon="14.197498">
        <ele>239.727</ele>
        <time>1970-01-01T01:00:00Z</time>
      </trkpt>
      <trkpt lat="61.110256" lon="14.197682">
        <ele>240.364</ele>
        <time>1970-01-01T01:00:00Z</time>
      </trkpt>
      <trkpt lat="61.110225" lon="14.197897">
        <ele>241</ele>
        <time>1970-01-01T01:00:00Z</time>
      </trkpt>
      <trkpt lat="61.110145" lon="14.198076">
        <ele>242</ele>
        <time>1970-01-01T01:00:00Z</time>
      </trkpt>
      <trkpt lat="61.110084" lon="14.198226">
        <ele>242.636</ele>
        <time>1970-01-01T01:00:00Z</time>
      </trkpt>
      <trkpt lat="61.110054" lon="14.198306">
        <ele>243.273</ele>
        <time>1970-01-01T01:00:00Z</time>
      </trkpt>
      <trkpt lat="61.109977" lon="14.198527">
        <ele>245.364</ele>
        <time>1970-01-01T01:00:00Z</time>
      </trkpt>
      <trkpt lat="61.109886" lon="14.198765">
        <ele>247.455</ele>
        <time>1970-01-01T01:00:00Z</time>
      </trkpt>
      <trkpt lat="61.109825" lon="14.198934">
        <ele>249.545</ele>
        <time>1970-01-01T01:00:00Z</time>
      </trkpt>
      <trkpt lat="61.109764" lon="14.199153">
        <ele>251.364</ele>
        <time>1970-01-01T01:00:00Z</time>
      </trkpt>
      <trkpt lat="61.109687" lon="14.199475">
        <ele>253.455</ele>
        <time>1970-01-01T01:00:00Z</time>
      </trkpt>
      <trkpt lat="61.109622" lon="14.199793">
        <ele>255.545</ele>
        <time>1970-01-01T01:00:00Z</time>
      </trkpt>
      <trkpt lat="61.109592" lon="14.199901">
        <ele>257.636</ele>
        <time>1970-01-01T01:00:00Z</time>
      </trkpt>
      <trkpt lat="61.109485" lon="14.200219">
        <ele>259.727</ele>
        <time>1970-01-01T01:00:00Z</time>
      </trkpt>
      <trkpt lat="61.10947" lon="14.200295">
        <ele>261.455</ele>
        <time>1970-01-01T01:00:00Z</time>
      </trkpt>
      <trkpt lat="61.109359" lon="14.20051">
        <ele>263.182</ele>
        <time>1970-01-01T01:00:00Z</time>
      </trkpt>
      <trkpt lat="61.109298" lon="14.200655">
        <ele>266.545</ele>
        <time>1970-01-01T01:00:00Z</time>
      </trkpt>
      <trkpt lat="61.109272" lon="14.200799">
        <ele>268.455</ele>
        <time>1970-01-01T01:00:00Z</time>
      </trkpt>
      <trkpt lat="61.109153" lon="14.201056">
        <ele>270.364</ele>
        <time>1970-01-01T01:00:00Z</time>
      </trkpt>
      <trkpt lat="61.109058" lon="14.201399">
        <ele>272.273</ele>
        <time>1970-01-01T01:00:00Z</time>
      </trkpt>
      <trkpt lat="61.108901" lon="14.201859">
        <ele>273.909</ele>
        <time>1970-01-01T01:00:00Z</time>
      </trkpt>
      <trkpt lat="61.108802" lon="14.202178">
        <ele>275.273</ele>
        <time>1970-01-01T01:00:00Z</time>
      </trkpt>
      <trkpt lat="61.108661" lon="14.202481">
        <ele>276.636</ele>
        <time>1970-01-01T01:00:00Z</time>
      </trkpt>
      <trkpt lat="61.10865" lon="14.202522">
        <ele>278</ele>
        <time>1970-01-01T01:00:00Z</time>
      </trkpt>
      <trkpt lat="61.108566" lon="14.202747">
        <ele>279.091</ele>
        <time>1970-01-01T01:00:00Z</time>
      </trkpt>
      <trkpt lat="61.10847" lon="14.20317">
        <ele>280.182</ele>
        <time>1970-01-01T01:00:00Z</time>
      </trkpt>
      <trkpt lat="61.108398" lon="14.203414">
        <ele>281.273</ele>
        <time>1970-01-01T01:00:00Z</time>
      </trkpt>
      <trkpt lat="61.108348" lon="14.203565">
        <ele>280.364</ele>
        <time>1970-01-01T01:00:00Z</time>
      </trkpt>
      <trkpt lat="61.108299" lon="14.203791">
        <ele>280.091</ele>
        <time>1970-01-01T01:00:00Z</time>
      </trkpt>
      <trkpt lat="61.108245" lon="14.203966">
        <ele>279.818</ele>
        <time>1970-01-01T01:00:00Z</time>
      </trkpt>
      <trkpt lat="61.108226" lon="14.204036">
        <ele>279.545</ele>
        <time>1970-01-01T01:00:00Z</time>
      </trkpt>
      <trkpt lat="61.108078" lon="14.204459">
        <ele>279.273</ele>
        <time>1970-01-01T01:00:00Z</time>
      </trkpt>
      <trkpt lat="61.107997" lon="14.204737">
        <ele>279</ele>
        <time>1970-01-01T01:00:00Z</time>
      </trkpt>
      <trkpt lat="61.107898" lon="14.204998">
        <ele>278.727</ele>
        <time>1970-01-01T01:00:00Z</time>
      </trkpt>
      <trkpt lat="61.107841" lon="14.205137">
        <ele>277.818</ele>
        <time>1970-01-01T01:00:00Z</time>
      </trkpt>
      <trkpt lat="61.107753" lon="14.205411">
        <ele>277.182</ele>
        <time>1970-01-01T01:00:00Z</time>
      </trkpt>
      <trkpt lat="61.107669" lon="14.205636">
        <ele>276.545</ele>
        <time>1970-01-01T01:00:00Z</time>
      </trkpt>
      <trkpt lat="61.107627" lon="14.205747">
        <ele>275.909</ele>
        <time>1970-01-01T01:00:00Z</time>
      </trkpt>
      <trkpt lat="61.107448" lon="14.20626">
        <ele>275.636</ele>
        <time>1970-01-01T01:00:00Z</time>
      </trkpt>
      <trkpt lat="61.107418" lon="14.206344">
        <ele>274.727</ele>
        <time>1970-01-01T01:00:00Z</time>
      </trkpt>
      <trkpt lat="61.107326" lon="14.206577">
        <ele>274.545</ele>
        <time>1970-01-01T01:00:00Z</time>
      </trkpt>
      <trkpt lat="61.107257" lon="14.206708">
        <ele>274.364</ele>
        <time>1970-01-01T01:00:00Z</time>
      </trkpt>
      <trkpt lat="61.107223" lon="14.206761">
        <ele>273.273</ele>
        <time>1970-01-01T01:00:00Z</time>
      </trkpt>
      <trkpt lat="61.107215" lon="14.206781">
        <ele>272.182</ele>
        <time>1970-01-01T01:00:00Z</time>
      </trkpt>
      <trkpt lat="61.107151" lon="14.207012">
        <ele>270.455</ele>
        <time>1970-01-01T01:00:00Z</time>
      </trkpt>
      <trkpt lat="61.107086" lon="14.207265">
        <ele>269.364</ele>
        <time>1970-01-01T01:00:00Z</time>
      </trkpt>
      <trkpt lat="61.107006" lon="14.207621">
        <ele>268.273</ele>
        <time>1970-01-01T01:00:00Z</time>
      </trkpt>
      <trkpt lat="61.106861" lon="14.208015">
        <ele>267.182</ele>
        <time>1970-01-01T01:00:00Z</time>
      </trkpt>
      <trkpt lat="61.106658" lon="14.208595">
        <ele>266.455</ele>
        <time>1970-01-01T01:00:00Z</time>
      </trkpt>
      <trkpt lat="61.106605" lon="14.208817">
        <ele>265.727</ele>
        <time>1970-01-01T01:00:00Z</time>
      </trkpt>
      <trkpt lat="61.106521" lon="14.209221">
        <ele>265</ele>
        <time>1970-01-01T01:00:00Z</time>
      </trkpt>
      <trkpt lat="61.106422" lon="14.20937">
        <ele>263.545</ele>
        <time>1970-01-01T01:00:00Z</time>
      </trkpt>
      <trkpt lat="61.106376" lon="14.209445">
        <ele>261.364</ele>
        <time>1970-01-01T01:00:00Z</time>
      </trkpt>
      <trkpt lat="61.106262" lon="14.209753">
        <ele>260.364</ele>
        <time>1970-01-01T01:00:00Z</time>
      </trkpt>
      <trkpt lat="61.106193" lon="14.209907">
        <ele>259.364</ele>
        <time>1970-01-01T01:00:00Z</time>
      </trkpt>
      <trkpt lat="61.10614" lon="14.210091">
        <ele>259</ele>
        <time>1970-01-01T01:00:00Z</time>
      </trkpt>
      <trkpt lat="61.106124" lon="14.210151">
        <ele>258.636</ele>
        <time>1970-01-01T01:00:00Z</time>
      </trkpt>
      <trkpt lat="61.106037" lon="14.210475">
        <ele>258.273</ele>
        <time>1970-01-01T01:00:00Z</time>
      </trkpt>
      <trkpt lat="61.106002" lon="14.210604">
        <ele>257.909</ele>
        <time>1970-01-01T01:00:00Z</time>
      </trkpt>
      <trkpt lat="61.105949" lon="14.210704">
        <ele>257.182</ele>
        <time>1970-01-01T01:00:00Z</time>
      </trkpt>
      <trkpt lat="61.105918" lon="14.210817">
        <ele>255.818</ele>
        <time>1970-01-01T01:00:00Z</time>
      </trkpt>
      <trkpt lat="61.105892" lon="14.210899">
        <ele>254.455</ele>
        <time>1970-01-01T01:00:00Z</time>
      </trkpt>
      <trkpt lat="61.105865" lon="14.21104">
        <ele>253.091</ele>
        <time>1970-01-01T01:00:00Z</time>
      </trkpt>
      <trkpt lat="61.105831" lon="14.211135">
        <ele>252.455</ele>
        <time>1970-01-01T01:00:00Z</time>
      </trkpt>
      <trkpt lat="61.105785" lon="14.211248">
        <ele>252.545</ele>
        <time>1970-01-01T01:00:00Z</time>
      </trkpt>
      <trkpt lat="61.105766" lon="14.211298">
        <ele>252.636</ele>
        <time>1970-01-01T01:00:00Z</time>
      </trkpt>
      <trkpt lat="61.10569" lon="14.211521">
        <ele>252.182</ele>
        <time>1970-01-01T01:00:00Z</time>
      </trkpt>
      <trkpt lat="61.105594" lon="14.211761">
        <ele>251.727</ele>
        <time>1970-01-01T01:00:00Z</time>
      </trkpt>
      <trkpt lat="61.105541" lon="14.211917">
        <ele>251.273</ele>
        <time>1970-01-01T01:00:00Z</time>
      </trkpt>
      <trkpt lat="61.105388" lon="14.2123">
        <ele>250.364</ele>
        <time>1970-01-01T01:00:00Z</time>
      </trkpt>
      <trkpt lat="61.105171" lon="14.212987">
        <ele>249.455</ele>
        <time>1970-01-01T01:00:00Z</time>
      </trkpt>
      <trkpt lat="61.105098" lon="14.213196">
        <ele>249.182</ele>
        <time>1970-01-01T01:00:00Z</time>
      </trkpt>
      <trkpt lat="61.10503" lon="14.213371">
        <ele>249.636</ele>
        <time>1970-01-01T01:00:00Z</time>
      </trkpt>
      <trkpt lat="61.104877" lon="14.213718">
        <ele>249.636</ele>
        <time>1970-01-01T01:00:00Z</time>
      </trkpt>
      <trkpt lat="61.104804" lon="14.213914">
        <ele>249.273</ele>
        <time>1970-01-01T01:00:00Z</time>
      </trkpt>
      <trkpt lat="61.104713" lon="14.214095">
        <ele>247.909</ele>
        <time>1970-01-01T01:00:00Z</time>
      </trkpt>
      <trkpt lat="61.104667" lon="14.214205">
        <ele>246.545</ele>
        <time>1970-01-01T01:00:00Z</time>
      </trkpt>
      <trkpt lat="61.104625" lon="14.214468">
        <ele>246.091</ele>
        <time>1970-01-01T01:00:00Z</time>
      </trkpt>
      <trkpt lat="61.104541" lon="14.214998">
        <ele>245.273</ele>
        <time>1970-01-01T01:00:00Z</time>
      </trkpt>
      <trkpt lat="61.104255" lon="14.21573">
        <ele>244.455</ele>
        <time>1970-01-01T01:00:00Z</time>
      </trkpt>
      <trkpt lat="61.104007" lon="14.216395">
        <ele>244.091</ele>
        <time>1970-01-01T01:00:00Z</time>
      </trkpt>
      <trkpt lat="61.103908" lon="14.216691">
        <ele>243.727</ele>
        <time>1970-01-01T01:00:00Z</time>
      </trkpt>
      <trkpt lat="61.103797" lon="14.217137">
        <ele>243</ele>
        <time>1970-01-01T01:00:00Z</time>
      </trkpt>
      <trkpt lat="61.103778" lon="14.217215">
        <ele>241.545</ele>
        <time>1970-01-01T01:00:00Z</time>
      </trkpt>
      <trkpt lat="61.103691" lon="14.217537">
        <ele>240.545</ele>
        <time>1970-01-01T01:00:00Z</time>
      </trkpt>
      <trkpt lat="61.103656" lon="14.217714">
        <ele>239.909</ele>
        <time>1970-01-01T01:00:00Z</time>
      </trkpt>
      <trkpt lat="61.103542" lon="14.217942">
        <ele>239</ele>
        <time>1970-01-01T01:00:00Z</time>
      </trkpt>
      <trkpt lat="61.103439" lon="14.218141">
        <ele>238.091</ele>
        <time>1970-01-01T01:00:00Z</time>
      </trkpt>
      <trkpt lat="61.103359" lon="14.218351">
        <ele>236.818</ele>
        <time>1970-01-01T01:00:00Z</time>
      </trkpt>
      <trkpt lat="61.103294" lon="14.218544">
        <ele>235.455</ele>
        <time>1970-01-01T01:00:00Z</time>
      </trkpt>
      <trkpt lat="61.10324" lon="14.218746">
        <ele>234.091</ele>
        <time>1970-01-01T01:00:00Z</time>
      </trkpt>
      <trkpt lat="61.103199" lon="14.218944">
        <ele>232.727</ele>
        <time>1970-01-01T01:00:00Z</time>
      </trkpt>
      <trkpt lat="61.103137" lon="14.219162">
        <ele>231.364</ele>
        <time>1970-01-01T01:00:00Z</time>
      </trkpt>
      <trkpt lat="61.103042" lon="14.219431">
        <ele>230</ele>
        <time>1970-01-01T01:00:00Z</time>
      </trkpt>
      <trkpt lat="61.102951" lon="14.219686">
        <ele>228.636</ele>
        <time>1970-01-01T01:00:00Z</time>
      </trkpt>
      <trkpt lat="61.102897" lon="14.219847">
        <ele>227.273</ele>
        <time>1970-01-01T01:00:00Z</time>
      </trkpt>
      <trkpt lat="61.102844" lon="14.220063">
        <ele>225.909</ele>
        <time>1970-01-01T01:00:00Z</time>
      </trkpt>
      <trkpt lat="61.102733" lon="14.220414">
        <ele>225.091</ele>
        <time>1970-01-01T01:00:00Z</time>
      </trkpt>
      <trkpt lat="61.102649" lon="14.220632">
        <ele>224</ele>
        <time>1970-01-01T01:00:00Z</time>
      </trkpt>
      <trkpt lat="61.102588" lon="14.220877">
        <ele>222.909</ele>
        <time>1970-01-01T01:00:00Z</time>
      </trkpt>
      <trkpt lat="61.102519" lon="14.221052">
        <ele>222.273</ele>
        <time>1970-01-01T01:00:00Z</time>
      </trkpt>
      <trkpt lat="61.102497" lon="14.221099">
        <ele>221.636</ele>
        <time>1970-01-01T01:00:00Z</time>
      </trkpt>
      <trkpt lat="61.102451" lon="14.221161">
        <ele>220.909</ele>
        <time>1970-01-01T01:00:00Z</time>
      </trkpt>
      <trkpt lat="61.102409" lon="14.221307">
        <ele>220.273</ele>
        <time>1970-01-01T01:00:00Z</time>
      </trkpt>
      <trkpt lat="61.102344" lon="14.221512">
        <ele>220</ele>
        <time>1970-01-01T01:00:00Z</time>
      </trkpt>
      <trkpt lat="61.10226" lon="14.221755">
        <ele>219.727</ele>
        <time>1970-01-01T01:00:00Z</time>
      </trkpt>
      <trkpt lat="61.10218" lon="14.222078">
        <ele>219.455</ele>
        <time>1970-01-01T01:00:00Z</time>
      </trkpt>
      <trkpt lat="61.102096" lon="14.222365">
        <ele>219.182</ele>
        <time>1970-01-01T01:00:00Z</time>
      </trkpt>
      <trkpt lat="61.102008" lon="14.222585">
        <ele>218.909</ele>
        <time>1970-01-01T01:00:00Z</time>
      </trkpt>
      <trkpt lat="61.101959" lon="14.222731">
        <ele>218.909</ele>
        <time>1970-01-01T01:00:00Z</time>
      </trkpt>
      <trkpt lat="61.101902" lon="14.222885">
        <ele>218.909</ele>
        <time>1970-01-01T01:00:00Z</time>
      </trkpt>
      <trkpt lat="61.101882" lon="14.22294">
        <ele>219</ele>
        <time>1970-01-01T01:00:00Z</time>
      </trkpt>
      <trkpt lat="61.101821" lon="14.223215">
        <ele>219.091</ele>
        <time>1970-01-01T01:00:00Z</time>
      </trkpt>
      <trkpt lat="61.10176" lon="14.223381">
        <ele>219.273</ele>
        <time>1970-01-01T01:00:00Z</time>
      </trkpt>
      <trkpt lat="61.101684" lon="14.223563">
        <ele>219.364</ele>
        <time>1970-01-01T01:00:00Z</time>
      </trkpt>
      <trkpt lat="61.101654" lon="14.223658">
        <ele>219.455</ele>
        <time>1970-01-01T01:00:00Z</time>
      </trkpt>
      <trkpt lat="61.101535" lon="14.223878">
        <ele>219.545</ele>
        <time>1970-01-01T01:00:00Z</time>
      </trkpt>
      <trkpt lat="61.101478" lon="14.224131">
        <ele>219.636</ele>
        <time>1970-01-01T01:00:00Z</time>
      </trkpt>
      <trkpt lat="61.101432" lon="14.224314">
        <ele>219.727</ele>
        <time>1970-01-01T01:00:00Z</time>
      </trkpt>
      <trkpt lat="61.101375" lon="14.224658">
        <ele>219.818</ele>
        <time>1970-01-01T01:00:00Z</time>
      </trkpt>
      <trkpt lat="61.101345" lon="14.224859">
        <ele>219.909</ele>
        <time>1970-01-01T01:00:00Z</time>
      </trkpt>
      <trkpt lat="61.101348" lon="14.224931">
        <ele>220</ele>
        <time>1970-01-01T01:00:00Z</time>
      </trkpt>
      <trkpt lat="61.101383" lon="14.225329">
        <ele>220</ele>
        <time>1970-01-01T01:00:00Z</time>
      </trkpt>
      <trkpt lat="61.101432" lon="14.225571">
        <ele>220.091</ele>
        <time>1970-01-01T01:00:00Z</time>
      </trkpt>
      <trkpt lat="61.10144" lon="14.225681">
        <ele>220.182</ele>
        <time>1970-01-01T01:00:00Z</time>
      </trkpt>
      <trkpt lat="61.101451" lon="14.226075">
        <ele>220.273</ele>
        <time>1970-01-01T01:00:00Z</time>
      </trkpt>
      <trkpt lat="61.101409" lon="14.226258">
        <ele>220.636</ele>
        <time>1970-01-01T01:00:00Z</time>
      </trkpt>
      <trkpt lat="61.101398" lon="14.226272">
        <ele>221</ele>
        <time>1970-01-01T01:00:00Z</time>
      </trkpt>
      <trkpt lat="61.101348" lon="14.226422">
        <ele>221.364</ele>
        <time>1970-01-01T01:00:00Z</time>
      </trkpt>
      <trkpt lat="61.101322" lon="14.226506">
        <ele>221.727</ele>
        <time>1970-01-01T01:00:00Z</time>
      </trkpt>
      <trkpt lat="61.10131" lon="14.22653">
        <ele>222.091</ele>
        <time>1970-01-01T01:00:00Z</time>
      </trkpt>
      <trkpt lat="61.101249" lon="14.226653">
        <ele>222.545</ele>
        <time>1970-01-01T01:00:00Z</time>
      </trkpt>
      <trkpt lat="61.101184" lon="14.226754">
        <ele>223</ele>
        <time>1970-01-01T01:00:00Z</time>
      </trkpt>
      <trkpt lat="61.101165" lon="14.226793">
        <ele>223.455</ele>
        <time>1970-01-01T01:00:00Z</time>
      </trkpt>
      <trkpt lat="61.101032" lon="14.227">
        <ele>223.727</ele>
        <time>1970-01-01T01:00:00Z</time>
      </trkpt>
      <trkpt lat="61.100933" lon="14.227069">
        <ele>224.364</ele>
        <time>1970-01-01T01:00:00Z</time>
      </trkpt>
      <trkpt lat="61.10078" lon="14.227164">
        <ele>225</ele>
        <time>1970-01-01T01:00:00Z</time>
      </trkpt>
      <trkpt lat="61.100685" lon="14.227198">
        <ele>225.364</ele>
        <time>1970-01-01T01:00:00Z</time>
      </trkpt>
      <trkpt lat="61.100593" lon="14.22721">
        <ele>225.727</ele>
        <time>1970-01-01T01:00:00Z</time>
      </trkpt>
      <trkpt lat="61.100498" lon="14.227144">
        <ele>226.091</ele>
        <time>1970-01-01T01:00:00Z</time>
      </trkpt>
      <trkpt lat="61.100448" lon="14.227108">
        <ele>226.455</ele>
        <time>1970-01-01T01:00:00Z</time>
      </trkpt>
      <trkpt lat="61.100353" lon="14.227075">
        <ele>226.818</ele>
        <time>1970-01-01T01:00:00Z</time>
      </trkpt>
      <trkpt lat="61.100276" lon="14.227075">
        <ele>227.091</ele>
        <time>1970-01-01T01:00:00Z</time>
      </trkpt>
      <trkpt lat="61.100212" lon="14.227215">
        <ele>227.364</ele>
        <time>1970-01-01T01:00:00Z</time>
      </trkpt>
      <trkpt lat="61.100151" lon="14.227625">
        <ele>227.636</ele>
        <time>1970-01-01T01:00:00Z</time>
      </trkpt>
      <trkpt lat="61.100105" lon="14.227923">
        <ele>228</ele>
        <time>1970-01-01T01:00:00Z</time>
      </trkpt>
      <trkpt lat="61.100002" lon="14.22821">
        <ele>228</ele>
        <time>1970-01-01T01:00:00Z</time>
      </trkpt>
      <trkpt lat="61.099948" lon="14.228413">
        <ele>228</ele>
        <time>1970-01-01T01:00:00Z</time>
      </trkpt>
      <trkpt lat="61.099872" lon="14.228694">
        <ele>228.273</ele>
        <time>1970-01-01T01:00:00Z</time>
      </trkpt>
      <trkpt lat="61.099834" lon="14.2289">
        <ele>228.545</ele>
        <time>1970-01-01T01:00:00Z</time>
      </trkpt>
      <trkpt lat="61.099781" lon="14.229236">
        <ele>228.818</ele>
        <time>1970-01-01T01:00:00Z</time>
      </trkpt>
      <trkpt lat="61.099674" lon="14.229522">
        <ele>229.091</ele>
        <time>1970-01-01T01:00:00Z</time>
      </trkpt>
      <trkpt lat="61.099636" lon="14.229578">
        <ele>229.364</ele>
        <time>1970-01-01T01:00:00Z</time>
      </trkpt>
      <trkpt lat="61.099548" lon="14.229775">
        <ele>229.636</ele>
        <time>1970-01-01T01:00:00Z</time>
      </trkpt>
      <trkpt lat="61.09938" lon="14.23025">
        <ele>229.909</ele>
        <time>1970-01-01T01:00:00Z</time>
      </trkpt>
      <trkpt lat="61.0993" lon="14.230433">
        <ele>230.091</ele>
        <time>1970-01-01T01:00:00Z</time>
      </trkpt>
      <trkpt lat="61.099258" lon="14.230628">
        <ele>230.273</ele>
        <time>1970-01-01T01:00:00Z</time>
      </trkpt>
      <trkpt lat="61.099212" lon="14.230877">
        <ele>230.455</ele>
        <time>1970-01-01T01:00:00Z</time>
      </trkpt>
      <trkpt lat="61.099151" lon="14.231072">
        <ele>230.636</ele>
        <time>1970-01-01T01:00:00Z</time>
      </trkpt>
      <trkpt lat="61.099102" lon="14.231168">
        <ele>230.818</ele>
        <time>1970-01-01T01:00:00Z</time>
      </trkpt>
      <trkpt lat="61.099044" lon="14.231289">
        <ele>231</ele>
        <time>1970-01-01T01:00:00Z</time>
      </trkpt>
      <trkpt lat="61.098957" lon="14.231479">
        <ele>231.182</ele>
        <time>1970-01-01T01:00:00Z</time>
      </trkpt>
      <trkpt lat="61.098876" lon="14.231615">
        <ele>231.364</ele>
        <time>1970-01-01T01:00:00Z</time>
      </trkpt>
      <trkpt lat="61.09885" lon="14.231648">
        <ele>231.545</ele>
        <time>1970-01-01T01:00:00Z</time>
      </trkpt>
      <trkpt lat="61.098705" lon="14.231813">
        <ele>231.727</ele>
        <time>1970-01-01T01:00:00Z</time>
      </trkpt>
      <trkpt lat="61.098651" lon="14.231863">
        <ele>231.909</ele>
        <time>1970-01-01T01:00:00Z</time>
      </trkpt>
      <trkpt lat="61.098548" lon="14.231988">
        <ele>232.091</ele>
        <time>1970-01-01T01:00:00Z</time>
      </trkpt>
      <trkpt lat="61.098506" lon="14.232047">
        <ele>232.273</ele>
        <time>1970-01-01T01:00:00Z</time>
      </trkpt>
      <trkpt lat="61.098445" lon="14.232106">
        <ele>232.455</ele>
        <time>1970-01-01T01:00:00Z</time>
      </trkpt>
      <trkpt lat="61.098388" lon="14.232133">
        <ele>232.636</ele>
        <time>1970-01-01T01:00:00Z</time>
      </trkpt>
      <trkpt lat="61.098346" lon="14.232196">
        <ele>232.545</ele>
        <time>1970-01-01T01:00:00Z</time>
      </trkpt>
      <trkpt lat="61.098297" lon="14.232269">
        <ele>232.636</ele>
        <time>1970-01-01T01:00:00Z</time>
      </trkpt>
      <trkpt lat="61.098217" lon="14.232374">
        <ele>232.727</ele>
        <time>1970-01-01T01:00:00Z</time>
      </trkpt>
      <trkpt lat="61.098148" lon="14.232464">
        <ele>232.818</ele>
        <time>1970-01-01T01:00:00Z</time>
      </trkpt>
      <trkpt lat="61.098083" lon="14.232542">
        <ele>232.818</ele>
        <time>1970-01-01T01:00:00Z</time>
      </trkpt>
      <trkpt lat="61.098007" lon="14.232633">
        <ele>232.818</ele>
        <time>1970-01-01T01:00:00Z</time>
      </trkpt>
      <trkpt lat="61.0979" lon="14.232761">
        <ele>232.818</ele>
        <time>1970-01-01T01:00:00Z</time>
      </trkpt>
      <trkpt lat="61.097785" lon="14.232886">
        <ele>232.909</ele>
        <time>1970-01-01T01:00:00Z</time>
      </trkpt>
      <trkpt lat="61.097728" lon="14.232932">
        <ele>233</ele>
        <time>1970-01-01T01:00:00Z</time>
      </trkpt>
      <trkpt lat="61.09761" lon="14.233044">
        <ele>233.091</ele>
        <time>1970-01-01T01:00:00Z</time>
      </trkpt>
      <trkpt lat="61.097522" lon="14.233152">
        <ele>233.182</ele>
        <time>1970-01-01T01:00:00Z</time>
      </trkpt>
      <trkpt lat="61.097412" lon="14.23331">
        <ele>233.273</ele>
        <time>1970-01-01T01:00:00Z</time>
      </trkpt>
      <trkpt lat="61.097351" lon="14.233384">
        <ele>233.455</ele>
        <time>1970-01-01T01:00:00Z</time>
      </trkpt>
      <trkpt lat="61.097274" lon="14.233461">
        <ele>233.636</ele>
        <time>1970-01-01T01:00:00Z</time>
      </trkpt>
      <trkpt lat="61.097217" lon="14.23351">
        <ele>233.818</ele>
        <time>1970-01-01T01:00:00Z</time>
      </trkpt>
      <trkpt lat="61.097152" lon="14.233574">
        <ele>234.091</ele>
        <time>1970-01-01T01:00:00Z</time>
      </trkpt>
      <trkpt lat="61.09711" lon="14.23361">
        <ele>234.273</ele>
        <time>1970-01-01T01:00:00Z</time>
      </trkpt>
      <trkpt lat="61.097064" lon="14.233644">
        <ele>234.455</ele>
        <time>1970-01-01T01:00:00Z</time>
      </trkpt>
      <trkpt lat="61.097049" lon="14.233672">
        <ele>234.636</ele>
        <time>1970-01-01T01:00:00Z</time>
      </trkpt>
      <trkpt lat="61.097011" lon="14.233693">
        <ele>234.818</ele>
        <time>1970-01-01T01:00:00Z</time>
      </trkpt>
      <trkpt lat="61.096954" lon="14.233762">
        <ele>235</ele>
        <time>1970-01-01T01:00:00Z</time>
      </trkpt>
      <trkpt lat="61.096893" lon="14.233878">
        <ele>235.182</ele>
        <time>1970-01-01T01:00:00Z</time>
      </trkpt>
      <trkpt lat="61.096847" lon="14.234034">
        <ele>235.455</ele>
        <time>1970-01-01T01:00:00Z</time>
      </trkpt>
      <trkpt lat="61.096836" lon="14.234144">
        <ele>235.455</ele>
        <time>1970-01-01T01:00:00Z</time>
      </trkpt>
      <trkpt lat="61.096809" lon="14.234298">
        <ele>235.455</ele>
        <time>1970-01-01T01:00:00Z</time>
      </trkpt>
      <trkpt lat="61.096786" lon="14.234383">
        <ele>235.455</ele>
        <time>1970-01-01T01:00:00Z</time>
      </trkpt>
      <trkpt lat="61.096706" lon="14.234585">
        <ele>235.455</ele>
        <time>1970-01-01T01:00:00Z</time>
      </trkpt>
      <trkpt lat="61.096633" lon="14.234782">
        <ele>235.545</ele>
        <time>1970-01-01T01:00:00Z</time>
      </trkpt>
      <trkpt lat="61.096469" lon="14.235211">
        <ele>235.636</ele>
        <time>1970-01-01T01:00:00Z</time>
      </trkpt>
      <trkpt lat="61.096405" lon="14.23543">
        <ele>235.909</ele>
        <time>1970-01-01T01:00:00Z</time>
      </trkpt>
      <trkpt lat="61.096359" lon="14.235533">
        <ele>236.182</ele>
        <time>1970-01-01T01:00:00Z</time>
      </trkpt>
      <trkpt lat="61.096347" lon="14.235567">
        <ele>236.455</ele>
        <time>1970-01-01T01:00:00Z</time>
      </trkpt>
      <trkpt lat="61.096313" lon="14.235654">
        <ele>236.818</ele>
        <time>1970-01-01T01:00:00Z</time>
      </trkpt>
      <trkpt lat="61.096286" lon="14.235763">
        <ele>237.091</ele>
        <time>1970-01-01T01:00:00Z</time>
      </trkpt>
      <trkpt lat="61.096256" lon="14.235895">
        <ele>237.091</ele>
        <time>1970-01-01T01:00:00Z</time>
      </trkpt>
      <trkpt lat="61.096244" lon="14.236004">
        <ele>237.091</ele>
        <time>1970-01-01T01:00:00Z</time>
      </trkpt>
      <trkpt lat="61.096244" lon="14.236192">
        <ele>237.091</ele>
        <time>1970-01-01T01:00:00Z</time>
      </trkpt>
      <trkpt lat="61.096252" lon="14.236339">
        <ele>237.091</ele>
        <time>1970-01-01T01:00:00Z</time>
      </trkpt>
      <trkpt lat="61.096256" lon="14.236388">
        <ele>237.091</ele>
        <time>1970-01-01T01:00:00Z</time>
      </trkpt>
      <trkpt lat="61.096317" lon="14.236625">
        <ele>237.091</ele>
        <time>1970-01-01T01:00:00Z</time>
      </trkpt>
      <trkpt lat="61.096408" lon="14.236768">
        <ele>236.909</ele>
        <time>1970-01-01T01:00:00Z</time>
      </trkpt>
      <trkpt lat="61.096481" lon="14.23688">
        <ele>236.727</ele>
        <time>1970-01-01T01:00:00Z</time>
      </trkpt>
      <trkpt lat="61.096542" lon="14.23696">
        <ele>236.545</ele>
        <time>1970-01-01T01:00:00Z</time>
      </trkpt>
      <trkpt lat="61.096572" lon="14.237012">
        <ele>236.273</ele>
        <time>1970-01-01T01:00:00Z</time>
      </trkpt>
      <trkpt lat="61.096645" lon="14.237129">
        <ele>236.182</ele>
        <time>1970-01-01T01:00:00Z</time>
      </trkpt>
      <trkpt lat="61.09671" lon="14.237323">
        <ele>236.364</ele>
        <time>1970-01-01T01:00:00Z</time>
      </trkpt>
      <trkpt lat="61.096717" lon="14.237712">
        <ele>236.545</ele>
        <time>1970-01-01T01:00:00Z</time>
      </trkpt>
      <trkpt lat="61.096736" lon="14.237863">
        <ele>236.727</ele>
        <time>1970-01-01T01:00:00Z</time>
      </trkpt>
      <trkpt lat="61.096736" lon="14.237933">
        <ele>236.909</ele>
        <time>1970-01-01T01:00:00Z</time>
      </trkpt>
      <trkpt lat="61.096721" lon="14.237994">
        <ele>237.091</ele>
        <time>1970-01-01T01:00:00Z</time>
      </trkpt>
      <trkpt lat="61.096687" lon="14.23824">
        <ele>237.909</ele>
        <time>1970-01-01T01:00:00Z</time>
      </trkpt>
      <trkpt lat="61.096641" lon="14.23843">
        <ele>238.727</ele>
        <time>1970-01-01T01:00:00Z</time>
      </trkpt>
      <trkpt lat="61.096637" lon="14.238466">
        <ele>239.545</ele>
        <time>1970-01-01T01:00:00Z</time>
      </trkpt>
      <trkpt lat="61.096633" lon="14.238597">
        <ele>240.364</ele>
        <time>1970-01-01T01:00:00Z</time>
      </trkpt>
      <trkpt lat="61.096611" lon="14.238739">
        <ele>242</ele>
        <time>1970-01-01T01:00:00Z</time>
      </trkpt>
      <trkpt lat="61.096599" lon="14.23887">
        <ele>243.455</ele>
        <time>1970-01-01T01:00:00Z</time>
      </trkpt>
      <trkpt lat="61.096603" lon="14.238944">
        <ele>244.909</ele>
        <time>1970-01-01T01:00:00Z</time>
      </trkpt>
      <trkpt lat="61.096664" lon="14.239194">
        <ele>246.364</ele>
        <time>1970-01-01T01:00:00Z</time>
      </trkpt>
      <trkpt lat="61.096725" lon="14.239421">
        <ele>247.818</ele>
        <time>1970-01-01T01:00:00Z</time>
      </trkpt>
      <trkpt lat="61.09679" lon="14.239662">
        <ele>249.273</ele>
        <time>1970-01-01T01:00:00Z</time>
      </trkpt>
      <trkpt lat="61.096809" lon="14.239717">
        <ele>251.273</ele>
        <time>1970-01-01T01:00:00Z</time>
      </trkpt>
      <trkpt lat="61.096862" lon="14.239982">
        <ele>252.636</ele>
        <time>1970-01-01T01:00:00Z</time>
      </trkpt>
      <trkpt lat="61.096878" lon="14.24003">
        <ele>254</ele>
        <time>1970-01-01T01:00:00Z</time>
      </trkpt>
      <trkpt lat="61.096961" lon="14.240302">
        <ele>254.273</ele>
        <time>1970-01-01T01:00:00Z</time>
      </trkpt>
      <trkpt lat="61.096977" lon="14.240379">
        <ele>254.545</ele>
        <time>1970-01-01T01:00:00Z</time>
      </trkpt>
      <trkpt lat="61.096958" lon="14.240781">
        <ele>254</ele>
        <time>1970-01-01T01:00:00Z</time>
      </trkpt>
      <trkpt lat="61.097" lon="14.241085">
        <ele>253.455</ele>
        <time>1970-01-01T01:00:00Z</time>
      </trkpt>
      <trkpt lat="61.097045" lon="14.241217">
        <ele>254.818</ele>
        <time>1970-01-01T01:00:00Z</time>
      </trkpt>
      <trkpt lat="61.097106" lon="14.241414">
        <ele>256.182</ele>
        <time>1970-01-01T01:00:00Z</time>
      </trkpt>
      <trkpt lat="61.097122" lon="14.241548">
        <ele>257.545</ele>
        <time>1970-01-01T01:00:00Z</time>
      </trkpt>
      <trkpt lat="61.097118" lon="14.241636">
        <ele>258.909</ele>
        <time>1970-01-01T01:00:00Z</time>
      </trkpt>
      <trkpt lat="61.097118" lon="14.241796">
        <ele>259.727</ele>
        <time>1970-01-01T01:00:00Z</time>
      </trkpt>
      <trkpt lat="61.09708" lon="14.242217">
        <ele>260.818</ele>
        <time>1970-01-01T01:00:00Z</time>
      </trkpt>
      <trkpt lat="61.097053" lon="14.24242">
        <ele>261.909</ele>
        <time>1970-01-01T01:00:00Z</time>
      </trkpt>
      <trkpt lat="61.096984" lon="14.242572">
        <ele>264.091</ele>
        <time>1970-01-01T01:00:00Z</time>
      </trkpt>
      <trkpt lat="61.096939" lon="14.242715">
        <ele>266.273</ele>
        <time>1970-01-01T01:00:00Z</time>
      </trkpt>
      <trkpt lat="61.096931" lon="14.242865">
        <ele>268.455</ele>
        <time>1970-01-01T01:00:00Z</time>
      </trkpt>
      <trkpt lat="61.096935" lon="14.243232">
        <ele>270.636</ele>
        <time>1970-01-01T01:00:00Z</time>
      </trkpt>
      <trkpt lat="61.096942" lon="14.243296">
        <ele>270.909</ele>
        <time>1970-01-01T01:00:00Z</time>
      </trkpt>
      <trkpt lat="61.096961" lon="14.243503">
        <ele>271.182</ele>
        <time>1970-01-01T01:00:00Z</time>
      </trkpt>
      <trkpt lat="61.096977" lon="14.243651">
        <ele>271.364</ele>
        <time>1970-01-01T01:00:00Z</time>
      </trkpt>
      <trkpt lat="61.097011" lon="14.243947">
        <ele>271.545</ele>
        <time>1970-01-01T01:00:00Z</time>
      </trkpt>
      <trkpt lat="61.09703" lon="14.244309">
        <ele>271.727</ele>
        <time>1970-01-01T01:00:00Z</time>
      </trkpt>
      <trkpt lat="61.097042" lon="14.244804">
        <ele>271.636</ele>
        <time>1970-01-01T01:00:00Z</time>
      </trkpt>
      <trkpt lat="61.09708" lon="14.245101">
        <ele>271.545</ele>
        <time>1970-01-01T01:00:00Z</time>
      </trkpt>
      <trkpt lat="61.097084" lon="14.245598">
        <ele>271.273</ele>
        <time>1970-01-01T01:00:00Z</time>
      </trkpt>
      <trkpt lat="61.097038" lon="14.245893">
        <ele>271</ele>
        <time>1970-01-01T01:00:00Z</time>
      </trkpt>
      <trkpt lat="61.097011" lon="14.245962">
        <ele>270.727</ele>
        <time>1970-01-01T01:00:00Z</time>
      </trkpt>
      <trkpt lat="61.096965" lon="14.246079">
        <ele>270.455</ele>
        <time>1970-01-01T01:00:00Z</time>
      </trkpt>
      <trkpt lat="61.096908" lon="14.246239">
        <ele>270.182</ele>
        <time>1970-01-01T01:00:00Z</time>
      </trkpt>
      <trkpt lat="61.09687" lon="14.246342">
        <ele>269.909</ele>
        <time>1970-01-01T01:00:00Z</time>
      </trkpt>
      <trkpt lat="61.096847" lon="14.246417">
        <ele>269.727</ele>
        <time>1970-01-01T01:00:00Z</time>
      </trkpt>
      <trkpt lat="61.096824" lon="14.246462">
        <ele>269.545</ele>
        <time>1970-01-01T01:00:00Z</time>
      </trkpt>
      <trkpt lat="61.096828" lon="14.246455">
        <ele>269.364</ele>
        <time>1970-01-01T01:00:00Z</time>
      </trkpt>
      <trkpt lat="61.09682" lon="14.246474">
        <ele>269.182</ele>
        <time>1970-01-01T01:00:00Z</time>
      </trkpt>
      <trkpt lat="61.096813" lon="14.246473">
        <ele>269</ele>
        <time>1970-01-01T01:00:00Z</time>
      </trkpt>
      <trkpt lat="61.096809" lon="14.24649">
        <ele>269</ele>
        <time>1970-01-01T01:00:00Z</time>
      </trkpt>
      <trkpt lat="61.096759" lon="14.246585">
        <ele>269</ele>
        <time>1970-01-01T01:00:00Z</time>
      </trkpt>
      <trkpt lat="61.096706" lon="14.246677">
        <ele>269</ele>
        <time>1970-01-01T01:00:00Z</time>
      </trkpt>
      <trkpt lat="61.096664" lon="14.246731">
        <ele>268.636</ele>
        <time>1970-01-01T01:00:00Z</time>
      </trkpt>
      <trkpt lat="61.096584" lon="14.246866">
        <ele>268.273</ele>
        <time>1970-01-01T01:00:00Z</time>
      </trkpt>
      <trkpt lat="61.096569" lon="14.246887">
        <ele>267.909</ele>
        <time>1970-01-01T01:00:00Z</time>
      </trkpt>
      <trkpt lat="61.096481" lon="14.24702">
        <ele>269.455</ele>
        <time>1970-01-01T01:00:00Z</time>
      </trkpt>
      <trkpt lat="61.096416" lon="14.247119">
        <ele>271</ele>
        <time>1970-01-01T01:00:00Z</time>
      </trkpt>
      <trkpt lat="61.096366" lon="14.247177">
        <ele>272.545</ele>
        <time>1970-01-01T01:00:00Z</time>
      </trkpt>
      <trkpt lat="61.096324" lon="14.247239">
        <ele>274.091</ele>
        <time>1970-01-01T01:00:00Z</time>
      </trkpt>
      <trkpt lat="61.096294" lon="14.247288">
        <ele>275.636</ele>
        <time>1970-01-01T01:00:00Z</time>
      </trkpt>
      <trkpt lat="61.096233" lon="14.247394">
        <ele>277.182</ele>
        <time>1970-01-01T01:00:00Z</time>
      </trkpt>
      <trkpt lat="61.096183" lon="14.247591">
        <ele>278.636</ele>
        <time>1970-01-01T01:00:00Z</time>
      </trkpt>
      <trkpt lat="61.096118" lon="14.247825">
        <ele>280.091</ele>
        <time>1970-01-01T01:00:00Z</time>
      </trkpt>
      <trkpt lat="61.096084" lon="14.248141">
        <ele>281.909</ele>
        <time>1970-01-01T01:00:00Z</time>
      </trkpt>
      <trkpt lat="61.096057" lon="14.248376">
        <ele>283</ele>
        <time>1970-01-01T01:00:00Z</time>
      </trkpt>
      <trkpt lat="61.096035" lon="14.248724">
        <ele>284.091</ele>
        <time>1970-01-01T01:00:00Z</time>
      </trkpt>
      <trkpt lat="61.096012" lon="14.24893">
        <ele>283.273</ele>
        <time>1970-01-01T01:00:00Z</time>
      </trkpt>
      <trkpt lat="61.09589" lon="14.249373">
        <ele>281.636</ele>
        <time>1970-01-01T01:00:00Z</time>
      </trkpt>
      <trkpt lat="61.095802" lon="14.249609">
        <ele>280</ele>
        <time>1970-01-01T01:00:00Z</time>
      </trkpt>
      <trkpt lat="61.095783" lon="14.249693">
        <ele>282</ele>
        <time>1970-01-01T01:00:00Z</time>
      </trkpt>
      <trkpt lat="61.095687" lon="14.25007">
        <ele>284</ele>
        <time>1970-01-01T01:00:00Z</time>
      </trkpt>
      <trkpt lat="61.095638" lon="14.250312">
        <ele>286</ele>
        <time>1970-01-01T01:00:00Z</time>
      </trkpt>
      <trkpt lat="61.095584" lon="14.250461">
        <ele>288.091</ele>
        <time>1970-01-01T01:00:00Z</time>
      </trkpt>
      <trkpt lat="61.095504" lon="14.250646">
        <ele>290</ele>
        <time>1970-01-01T01:00:00Z</time>
      </trkpt>
      <trkpt lat="61.095432" lon="14.250766">
        <ele>291.909</ele>
        <time>1970-01-01T01:00:00Z</time>
      </trkpt>
      <trkpt lat="61.095359" lon="14.250904">
        <ele>294.545</ele>
        <time>1970-01-01T01:00:00Z</time>
      </trkpt>
      <trkpt lat="61.095275" lon="14.251134">
        <ele>297.182</ele>
        <time>1970-01-01T01:00:00Z</time>
      </trkpt>
      <trkpt lat="61.09526" lon="14.251209">
        <ele>299</ele>
        <time>1970-01-01T01:00:00Z</time>
      </trkpt>
      <trkpt lat="61.095188" lon="14.251623">
        <ele>301.636</ele>
        <time>1970-01-01T01:00:00Z</time>
      </trkpt>
      <trkpt lat="61.095169" lon="14.251757">
        <ele>304.273</ele>
        <time>1970-01-01T01:00:00Z</time>
      </trkpt>
      <trkpt lat="61.095127" lon="14.252071">
        <ele>302.273</ele>
        <time>1970-01-01T01:00:00Z</time>
      </trkpt>
      <trkpt lat="61.095111" lon="14.252212">
        <ele>300.273</ele>
        <time>1970-01-01T01:00:00Z</time>
      </trkpt>
      <trkpt lat="61.095012" lon="14.252545">
        <ele>298.273</ele>
        <time>1970-01-01T01:00:00Z</time>
      </trkpt>
      <trkpt lat="61.094936" lon="14.252719">
        <ele>298.273</ele>
        <time>1970-01-01T01:00:00Z</time>
      </trkpt>
      <trkpt lat="61.094875" lon="14.252882">
        <ele>297.545</ele>
        <time>1970-01-01T01:00:00Z</time>
      </trkpt>
      <trkpt lat="61.094821" lon="14.253044">
        <ele>295.636</ele>
        <time>1970-01-01T01:00:00Z</time>
      </trkpt>
      <trkpt lat="61.094757" lon="14.253467">
        <ele>292</ele>
        <time>1970-01-01T01:00:00Z</time>
      </trkpt>
      <trkpt lat="61.094738" lon="14.253575">
        <ele>286.727</ele>
        <time>1970-01-01T01:00:00Z</time>
      </trkpt>
      <trkpt lat="61.094608" lon="14.254208">
        <ele>284</ele>
        <time>1970-01-01T01:00:00Z</time>
      </trkpt>
      <trkpt lat="61.094451" lon="14.254931">
        <ele>279.727</ele>
        <time>1970-01-01T01:00:00Z</time>
      </trkpt>
      <trkpt lat="61.094291" lon="14.255745">
        <ele>275.455</ele>
        <time>1970-01-01T01:00:00Z</time>
      </trkpt>
      <trkpt lat="61.09415" lon="14.256351">
        <ele>270.818</ele>
        <time>1970-01-01T01:00:00Z</time>
      </trkpt>
      <trkpt lat="61.093872" lon="14.25729">
        <ele>266.182</ele>
        <time>1970-01-01T01:00:00Z</time>
      </trkpt>
      <trkpt lat="61.093658" lon="14.258173">
        <ele>261.545</ele>
        <time>1970-01-01T01:00:00Z</time>
      </trkpt>
      <trkpt lat="61.093463" lon="14.258853">
        <ele>255</ele>
        <time>1970-01-01T01:00:00Z</time>
      </trkpt>
      <trkpt lat="61.093288" lon="14.259479">
        <ele>249.364</ele>
        <time>1970-01-01T01:00:00Z</time>
      </trkpt>
      <trkpt lat="61.093158" lon="14.259802">
        <ele>243.545</ele>
        <time>1970-01-01T01:00:00Z</time>
      </trkpt>
      <trkpt lat="61.093097" lon="14.259945">
        <ele>239.091</ele>
        <time>1970-01-01T01:00:00Z</time>
      </trkpt>
      <trkpt lat="61.09304" lon="14.260129">
        <ele>236.273</ele>
        <time>1970-01-01T01:00:00Z</time>
      </trkpt>
      <trkpt lat="61.092929" lon="14.260474">
        <ele>231.455</ele>
        <time>1970-01-01T01:00:00Z</time>
      </trkpt>
      <trkpt lat="61.092784" lon="14.260965">
        <ele>228.182</ele>
        <time>1970-01-01T01:00:00Z</time>
      </trkpt>
      <trkpt lat="61.092624" lon="14.261981">
        <ele>224.909</ele>
        <time>1970-01-01T01:00:00Z</time>
      </trkpt>
      <trkpt lat="61.09254" lon="14.262493">
        <ele>223</ele>
        <time>1970-01-01T01:00:00Z</time>
      </trkpt>
      <trkpt lat="61.092403" lon="14.262943">
        <ele>221.091</ele>
        <time>1970-01-01T01:00:00Z</time>
      </trkpt>
      <trkpt lat="61.092323" lon="14.263154">
        <ele>219.182</ele>
        <time>1970-01-01T01:00:00Z</time>
      </trkpt>
      <trkpt lat="61.092277" lon="14.263355">
        <ele>217.182</ele>
        <time>1970-01-01T01:00:00Z</time>
      </trkpt>
      <trkpt lat="61.092216" lon="14.263489">
        <ele>215.091</ele>
        <time>1970-01-01T01:00:00Z</time>
      </trkpt>
      <trkpt lat="61.092193" lon="14.263537">
        <ele>214.364</ele>
        <time>1970-01-01T01:00:00Z</time>
      </trkpt>
      <trkpt lat="61.092151" lon="14.263672">
        <ele>214</ele>
        <time>1970-01-01T01:00:00Z</time>
      </trkpt>
      <trkpt lat="61.092117" lon="14.263811">
        <ele>213.636</ele>
        <time>1970-01-01T01:00:00Z</time>
      </trkpt>
      <trkpt lat="61.092113" lon="14.263839">
        <ele>213.273</ele>
        <time>1970-01-01T01:00:00Z</time>
      </trkpt>
      <trkpt lat="61.092075" lon="14.263974">
        <ele>212.909</ele>
        <time>1970-01-01T01:00:00Z</time>
      </trkpt>
      <trkpt lat="61.092029" lon="14.264126">
        <ele>212.545</ele>
        <time>1970-01-01T01:00:00Z</time>
      </trkpt>
      <trkpt lat="61.09201" lon="14.264184">
        <ele>212</ele>
        <time>1970-01-01T01:00:00Z</time>
      </trkpt>
      <trkpt lat="61.091888" lon="14.264454">
        <ele>211.455</ele>
        <time>1970-01-01T01:00:00Z</time>
      </trkpt>
      <trkpt lat="61.091739" lon="14.264781">
        <ele>210.909</ele>
        <time>1970-01-01T01:00:00Z</time>
      </trkpt>
      <trkpt lat="61.091625" lon="14.265041">
        <ele>210.364</ele>
        <time>1970-01-01T01:00:00Z</time>
      </trkpt>
      <trkpt lat="61.091533" lon="14.265323">
        <ele>210.182</ele>
        <time>1970-01-01T01:00:00Z</time>
      </trkpt>
      <trkpt lat="61.09143" lon="14.265707">
        <ele>209.909</ele>
        <time>1970-01-01T01:00:00Z</time>
      </trkpt>
      <trkpt lat="61.091381" lon="14.266031">
        <ele>209.636</ele>
        <time>1970-01-01T01:00:00Z</time>
      </trkpt>
      <trkpt lat="61.091358" lon="14.26616">
        <ele>209.364</ele>
        <time>1970-01-01T01:00:00Z</time>
      </trkpt>
      <trkpt lat="61.091339" lon="14.266238">
        <ele>209.273</ele>
        <time>1970-01-01T01:00:00Z</time>
      </trkpt>
      <trkpt lat="61.091205" lon="14.266628">
        <ele>209.182</ele>
        <time>1970-01-01T01:00:00Z</time>
      </trkpt>
      <trkpt lat="61.090984" lon="14.267458">
        <ele>209.091</ele>
        <time>1970-01-01T01:00:00Z</time>
      </trkpt>
      <trkpt lat="61.090934" lon="14.267719">
        <ele>209.182</ele>
        <time>1970-01-01T01:00:00Z</time>
      </trkpt>
      <trkpt lat="61.090915" lon="14.267939">
        <ele>209.273</ele>
        <time>1970-01-01T01:00:00Z</time>
      </trkpt>
      <trkpt lat="61.090908" lon="14.267999">
        <ele>209.636</ele>
        <time>1970-01-01T01:00:00Z</time>
      </trkpt>
      <trkpt lat="61.090873" lon="14.268171">
        <ele>210</ele>
        <time>1970-01-01T01:00:00Z</time>
      </trkpt>
      <trkpt lat="61.090831" lon="14.268265">
        <ele>209.909</ele>
        <time>1970-01-01T01:00:00Z</time>
      </trkpt>
      <trkpt lat="61.09066" lon="14.268394">
        <ele>209.909</ele>
        <time>1970-01-01T01:00:00Z</time>
      </trkpt>
      <trkpt lat="61.090583" lon="14.268428">
        <ele>209.909</ele>
        <time>1970-01-01T01:00:00Z</time>
      </trkpt>
      <trkpt lat="61.090396" lon="14.268531">
        <ele>209.909</ele>
        <time>1970-01-01T01:00:00Z</time>
      </trkpt>
      <trkpt lat="61.090267" lon="14.268688">
        <ele>210</ele>
        <time>1970-01-01T01:00:00Z</time>
      </trkpt>
      <trkpt lat="61.090171" lon="14.268833">
        <ele>210.273</ele>
        <time>1970-01-01T01:00:00Z</time>
      </trkpt>
      <trkpt lat="61.090091" lon="14.268938">
        <ele>210.545</ele>
        <time>1970-01-01T01:00:00Z</time>
      </trkpt>
      <trkpt lat="61.089973" lon="14.26911">
        <ele>210.727</ele>
        <time>1970-01-01T01:00:00Z</time>
      </trkpt>
      <trkpt lat="61.089832" lon="14.269275">
        <ele>210.909</ele>
        <time>1970-01-01T01:00:00Z</time>
      </trkpt>
      <trkpt lat="61.089736" lon="14.269369">
        <ele>210.818</ele>
        <time>1970-01-01T01:00:00Z</time>
      </trkpt>
      <trkpt lat="61.089588" lon="14.269517">
        <ele>210.727</ele>
        <time>1970-01-01T01:00:00Z</time>
      </trkpt>
      <trkpt lat="61.089508" lon="14.269597">
        <ele>210.818</ele>
        <time>1970-01-01T01:00:00Z</time>
      </trkpt>
      <trkpt lat="61.089427" lon="14.269749">
        <ele>210.727</ele>
        <time>1970-01-01T01:00:00Z</time>
      </trkpt>
      <trkpt lat="61.089328" lon="14.269951">
        <ele>210.636</ele>
        <time>1970-01-01T01:00:00Z</time>
      </trkpt>
      <trkpt lat="61.08916" lon="14.270225">
        <ele>210.545</ele>
        <time>1970-01-01T01:00:00Z</time>
      </trkpt>
      <trkpt lat="61.089096" lon="14.270312">
        <ele>210.455</ele>
        <time>1970-01-01T01:00:00Z</time>
      </trkpt>
      <trkpt lat="61.089061" lon="14.270332">
        <ele>210.182</ele>
        <time>1970-01-01T01:00:00Z</time>
      </trkpt>
      <trkpt lat="61.088932" lon="14.270529">
        <ele>209.909</ele>
        <time>1970-01-01T01:00:00Z</time>
      </trkpt>
      <trkpt lat="61.088829" lon="14.270666">
        <ele>209.727</ele>
        <time>1970-01-01T01:00:00Z</time>
      </trkpt>
      <trkpt lat="61.088741" lon="14.270731">
        <ele>209.364</ele>
        <time>1970-01-01T01:00:00Z</time>
      </trkpt>
      <trkpt lat="61.088661" lon="14.270824">
        <ele>209</ele>
        <time>1970-01-01T01:00:00Z</time>
      </trkpt>
      <trkpt lat="61.0886" lon="14.270922">
        <ele>208.636</ele>
        <time>1970-01-01T01:00:00Z</time>
      </trkpt>
      <trkpt lat="61.088569" lon="14.270981">
        <ele>208.364</ele>
        <time>1970-01-01T01:00:00Z</time>
      </trkpt>
      <trkpt lat="61.088466" lon="14.271154">
        <ele>208.273</ele>
        <time>1970-01-01T01:00:00Z</time>
      </trkpt>
      <trkpt lat="61.08839" lon="14.27129">
        <ele>208.091</ele>
        <time>1970-01-01T01:00:00Z</time>
      </trkpt>
      <trkpt lat="61.088214" lon="14.271604">
        <ele>207.909</ele>
        <time>1970-01-01T01:00:00Z</time>
      </trkpt>
      <trkpt lat="61.088092" lon="14.271834">
        <ele>207.727</ele>
        <time>1970-01-01T01:00:00Z</time>
      </trkpt>
      <trkpt lat="61.087982" lon="14.272096">
        <ele>207.545</ele>
        <time>1970-01-01T01:00:00Z</time>
      </trkpt>
      <trkpt lat="61.087959" lon="14.272163">
        <ele>207.364</ele>
        <time>1970-01-01T01:00:00Z</time>
      </trkpt>
      <trkpt lat="61.087917" lon="14.272333">
        <ele>207.182</ele>
        <time>1970-01-01T01:00:00Z</time>
      </trkpt>
      <trkpt lat="61.087879" lon="14.272551">
        <ele>207.182</ele>
        <time>1970-01-01T01:00:00Z</time>
      </trkpt>
      <trkpt lat="61.087871" lon="14.272595">
        <ele>207.091</ele>
        <time>1970-01-01T01:00:00Z</time>
      </trkpt>
      <trkpt lat="61.087871" lon="14.272945">
        <ele>207</ele>
        <time>1970-01-01T01:00:00Z</time>
      </trkpt>
      <trkpt lat="61.087852" lon="14.273212">
        <ele>206.818</ele>
        <time>1970-01-01T01:00:00Z</time>
      </trkpt>
      <trkpt lat="61.087821" lon="14.273427">
        <ele>206.636</ele>
        <time>1970-01-01T01:00:00Z</time>
      </trkpt>
      <trkpt lat="61.087783" lon="14.273623">
        <ele>206.545</ele>
        <time>1970-01-01T01:00:00Z</time>
      </trkpt>
      <trkpt lat="61.087665" lon="14.274046">
        <ele>206.455</ele>
        <time>1970-01-01T01:00:00Z</time>
      </trkpt>
      <trkpt lat="61.087627" lon="14.274141">
        <ele>206.364</ele>
        <time>1970-01-01T01:00:00Z</time>
      </trkpt>
      <trkpt lat="61.087577" lon="14.274323">
        <ele>206.273</ele>
        <time>1970-01-01T01:00:00Z</time>
      </trkpt>
      <trkpt lat="61.087524" lon="14.274494">
        <ele>206.182</ele>
        <time>1970-01-01T01:00:00Z</time>
      </trkpt>
      <trkpt lat="61.087448" lon="14.274687">
        <ele>206.091</ele>
        <time>1970-01-01T01:00:00Z</time>
      </trkpt>
      <trkpt lat="61.08739" lon="14.274961">
        <ele>206.091</ele>
        <time>1970-01-01T01:00:00Z</time>
      </trkpt>
      <trkpt lat="61.087295" lon="14.275365">
        <ele>206.182</ele>
        <time>1970-01-01T01:00:00Z</time>
      </trkpt>
      <trkpt lat="61.087207" lon="14.275668">
        <ele>206.273</ele>
        <time>1970-01-01T01:00:00Z</time>
      </trkpt>
      <trkpt lat="61.087173" lon="14.275746">
        <ele>206.364</ele>
        <time>1970-01-01T01:00:00Z</time>
      </trkpt>
      <trkpt lat="61.087112" lon="14.275943">
        <ele>206.455</ele>
        <time>1970-01-01T01:00:00Z</time>
      </trkpt>
      <trkpt lat="61.08702" lon="14.276146">
        <ele>206.545</ele>
        <time>1970-01-01T01:00:00Z</time>
      </trkpt>
      <trkpt lat="61.086978" lon="14.27626">
        <ele>206.545</ele>
        <time>1970-01-01T01:00:00Z</time>
      </trkpt>
      <trkpt lat="61.086894" lon="14.2765">
        <ele>206.545</ele>
        <time>1970-01-01T01:00:00Z</time>
      </trkpt>
      <trkpt lat="61.086841" lon="14.276661">
        <ele>206.545</ele>
        <time>1970-01-01T01:00:00Z</time>
      </trkpt>
      <trkpt lat="61.08678" lon="14.276823">
        <ele>206.636</ele>
        <time>1970-01-01T01:00:00Z</time>
      </trkpt>
      <trkpt lat="61.086666" lon="14.277048">
        <ele>206.727</ele>
        <time>1970-01-01T01:00:00Z</time>
      </trkpt>
      <trkpt lat="61.08657" lon="14.277379">
        <ele>206.727</ele>
        <time>1970-01-01T01:00:00Z</time>
      </trkpt>
      <trkpt lat="61.086429" lon="14.277676">
        <ele>206.727</ele>
        <time>1970-01-01T01:00:00Z</time>
      </trkpt>
      <trkpt lat="61.086315" lon="14.277841">
        <ele>206.727</ele>
        <time>1970-01-01T01:00:00Z</time>
      </trkpt>
      <trkpt lat="61.086036" lon="14.278235">
        <ele>206.727</ele>
        <time>1970-01-01T01:00:00Z</time>
      </trkpt>
      <trkpt lat="61.085998" lon="14.278296">
        <ele>206.909</ele>
        <time>1970-01-01T01:00:00Z</time>
      </trkpt>
      <trkpt lat="61.085834" lon="14.278526">
        <ele>207.091</ele>
        <time>1970-01-01T01:00:00Z</time>
      </trkpt>
      <trkpt lat="61.08575" lon="14.278697">
        <ele>207.364</ele>
        <time>1970-01-01T01:00:00Z</time>
      </trkpt>
      <trkpt lat="61.085605" lon="14.278853">
        <ele>207.636</ele>
        <time>1970-01-01T01:00:00Z</time>
      </trkpt>
      <trkpt lat="61.085536" lon="14.278911">
        <ele>207.909</ele>
        <time>1970-01-01T01:00:00Z</time>
      </trkpt>
      <trkpt lat="61.085369" lon="14.27917">
        <ele>208</ele>
        <time>1970-01-01T01:00:00Z</time>
      </trkpt>
      <trkpt lat="61.08525" lon="14.279353">
        <ele>208.091</ele>
        <time>1970-01-01T01:00:00Z</time>
      </trkpt>
      <trkpt lat="61.085224" lon="14.279391">
        <ele>208.364</ele>
        <time>1970-01-01T01:00:00Z</time>
      </trkpt>
      <trkpt lat="61.085071" lon="14.279525">
        <ele>208.636</ele>
        <time>1970-01-01T01:00:00Z</time>
      </trkpt>
      <trkpt lat="61.085018" lon="14.279595">
        <ele>208.909</ele>
        <time>1970-01-01T01:00:00Z</time>
      </trkpt>
      <trkpt lat="61.084983" lon="14.279638">
        <ele>209.182</ele>
        <time>1970-01-01T01:00:00Z</time>
      </trkpt>
      <trkpt lat="61.084815" lon="14.279744">
        <ele>209.273</ele>
        <time>1970-01-01T01:00:00Z</time>
      </trkpt>
      <trkpt lat="61.084621" lon="14.279812">
        <ele>209.364</ele>
        <time>1970-01-01T01:00:00Z</time>
      </trkpt>
      <trkpt lat="61.084495" lon="14.279911">
        <ele>209.455</ele>
        <time>1970-01-01T01:00:00Z</time>
      </trkpt>
      <trkpt lat="61.084342" lon="14.279967">
        <ele>209.545</ele>
        <time>1970-01-01T01:00:00Z</time>
      </trkpt>
      <trkpt lat="61.084217" lon="14.280049">
        <ele>209.636</ele>
        <time>1970-01-01T01:00:00Z</time>
      </trkpt>
      <trkpt lat="61.084159" lon="14.280089">
        <ele>209.818</ele>
        <time>1970-01-01T01:00:00Z</time>
      </trkpt>
      <trkpt lat="61.084079" lon="14.280203">
        <ele>210</ele>
        <time>1970-01-01T01:00:00Z</time>
      </trkpt>
      <trkpt lat="61.08406" lon="14.28024">
        <ele>210.182</ele>
        <time>1970-01-01T01:00:00Z</time>
      </trkpt>
      <trkpt lat="61.083999" lon="14.280398">
        <ele>210.364</ele>
        <time>1970-01-01T01:00:00Z</time>
      </trkpt>
      <trkpt lat="61.083957" lon="14.280518">
        <ele>210.545</ele>
        <time>1970-01-01T01:00:00Z</time>
      </trkpt>
      <trkpt lat="61.083919" lon="14.280565">
        <ele>210.727</ele>
        <time>1970-01-01T01:00:00Z</time>
      </trkpt>
      <trkpt lat="61.083885" lon="14.280602">
        <ele>210.818</ele>
        <time>1970-01-01T01:00:00Z</time>
      </trkpt>
      <trkpt lat="61.083789" lon="14.280705">
        <ele>210.909</ele>
        <time>1970-01-01T01:00:00Z</time>
      </trkpt>
      <trkpt lat="61.083671" lon="14.28082">
        <ele>211</ele>
        <time>1970-01-01T01:00:00Z</time>
      </trkpt>
      <trkpt lat="61.083602" lon="14.280933">
        <ele>211.091</ele>
        <time>1970-01-01T01:00:00Z</time>
      </trkpt>
      <trkpt lat="61.083515" lon="14.281157">
        <ele>211.182</ele>
        <time>1970-01-01T01:00:00Z</time>
      </trkpt>
      <trkpt lat="61.083473" lon="14.281296">
        <ele>211.273</ele>
        <time>1970-01-01T01:00:00Z</time>
      </trkpt>
      <trkpt lat="61.083461" lon="14.281322">
        <ele>211.364</ele>
        <time>1970-01-01T01:00:00Z</time>
      </trkpt>
      <trkpt lat="61.083374" lon="14.281526">
        <ele>211.364</ele>
        <time>1970-01-01T01:00:00Z</time>
      </trkpt>
      <trkpt lat="61.083312" lon="14.281652">
        <ele>211.364</ele>
        <time>1970-01-01T01:00:00Z</time>
      </trkpt>
      <trkpt lat="61.083229" lon="14.281747">
        <ele>211.273</ele>
        <time>1970-01-01T01:00:00Z</time>
      </trkpt>
      <trkpt lat="61.083179" lon="14.281807">
        <ele>211.182</ele>
        <time>1970-01-01T01:00:00Z</time>
      </trkpt>
      <trkpt lat="61.083065" lon="14.281983">
        <ele>211.182</ele>
        <time>1970-01-01T01:00:00Z</time>
      </trkpt>
      <trkpt lat="61.082954" lon="14.282111">
        <ele>211.182</ele>
        <time>1970-01-01T01:00:00Z</time>
      </trkpt>
      <trkpt lat="61.082904" lon="14.282176">
        <ele>211.182</ele>
        <time>1970-01-01T01:00:00Z</time>
      </trkpt>
      <trkpt lat="61.082836" lon="14.282226">
        <ele>211.182</ele>
        <time>1970-01-01T01:00:00Z</time>
      </trkpt>
      <trkpt lat="61.082778" lon="14.282288">
        <ele>211.182</ele>
        <time>1970-01-01T01:00:00Z</time>
      </trkpt>
      <trkpt lat="61.082759" lon="14.28232">
        <ele>211.182</ele>
        <time>1970-01-01T01:00:00Z</time>
      </trkpt>
      <trkpt lat="61.082706" lon="14.282374">
        <ele>211.182</ele>
        <time>1970-01-01T01:00:00Z</time>
      </trkpt>
      <trkpt lat="61.082687" lon="14.282395">
        <ele>211.091</ele>
        <time>1970-01-01T01:00:00Z</time>
      </trkpt>
      <trkpt lat="61.082641" lon="14.282425">
        <ele>211</ele>
        <time>1970-01-01T01:00:00Z</time>
      </trkpt>
      <trkpt lat="61.082614" lon="14.282443">
        <ele>211</ele>
        <time>1970-01-01T01:00:00Z</time>
      </trkpt>
      <trkpt lat="61.082508" lon="14.282506">
        <ele>211</ele>
        <time>1970-01-01T01:00:00Z</time>
      </trkpt>
      <trkpt lat="61.082412" lon="14.282551">
        <ele>211</ele>
        <time>1970-01-01T01:00:00Z</time>
      </trkpt>
      <trkpt lat="61.082324" lon="14.282565">
        <ele>211</ele>
        <time>1970-01-01T01:00:00Z</time>
      </trkpt>
      <trkpt lat="61.082248" lon="14.282579">
        <ele>211</ele>
        <time>1970-01-01T01:00:00Z</time>
      </trkpt>
      <trkpt lat="61.082157" lon="14.28262">
        <ele>211</ele>
        <time>1970-01-01T01:00:00Z</time>
      </trkpt>
      <trkpt lat="61.082046" lon="14.282657">
        <ele>211</ele>
        <time>1970-01-01T01:00:00Z</time>
      </trkpt>
      <trkpt lat="61.081974" lon="14.282665">
        <ele>211</ele>
        <time>1970-01-01T01:00:00Z</time>
      </trkpt>
      <trkpt lat="61.081951" lon="14.282656">
        <ele>211</ele>
        <time>1970-01-01T01:00:00Z</time>
      </trkpt>
      <trkpt lat="61.081928" lon="14.282638">
        <ele>211</ele>
        <time>1970-01-01T01:00:00Z</time>
      </trkpt>
      <trkpt lat="61.081764" lon="14.282625">
        <ele>211</ele>
        <time>1970-01-01T01:00:00Z</time>
      </trkpt>
      <trkpt lat="61.08168" lon="14.282592">
        <ele>211</ele>
        <time>1970-01-01T01:00:00Z</time>
      </trkpt>
      <trkpt lat="61.081584" lon="14.282546">
        <ele>211.091</ele>
        <time>1970-01-01T01:00:00Z</time>
      </trkpt>
      <trkpt lat="61.081501" lon="14.282477">
        <ele>211.182</ele>
        <time>1970-01-01T01:00:00Z</time>
      </trkpt>
      <trkpt lat="61.081424" lon="14.282416">
        <ele>211.273</ele>
        <time>1970-01-01T01:00:00Z</time>
      </trkpt>
      <trkpt lat="61.081386" lon="14.282385">
        <ele>211.273</ele>
        <time>1970-01-01T01:00:00Z</time>
      </trkpt>
      <trkpt lat="61.081287" lon="14.282269">
        <ele>211.273</ele>
        <time>1970-01-01T01:00:00Z</time>
      </trkpt>
      <trkpt lat="61.081249" lon="14.282194">
        <ele>211.273</ele>
        <time>1970-01-01T01:00:00Z</time>
      </trkpt>
      <trkpt lat="61.081157" lon="14.28213">
        <ele>211.273</ele>
        <time>1970-01-01T01:00:00Z</time>
      </trkpt>
      <trkpt lat="61.081039" lon="14.282207">
        <ele>211.091</ele>
        <time>1970-01-01T01:00:00Z</time>
      </trkpt>
      <trkpt lat="61.080921" lon="14.282424">
        <ele>210.909</ele>
        <time>1970-01-01T01:00:00Z</time>
      </trkpt>
      <trkpt lat="61.080852" lon="14.282629">
        <ele>210.727</ele>
        <time>1970-01-01T01:00:00Z</time>
      </trkpt>
      <trkpt lat="61.080806" lon="14.282805">
        <ele>210.455</ele>
        <time>1970-01-01T01:00:00Z</time>
      </trkpt>
      <trkpt lat="61.080753" lon="14.283001">
        <ele>210.091</ele>
        <time>1970-01-01T01:00:00Z</time>
      </trkpt>
      <trkpt lat="61.080734" lon="14.283134">
        <ele>209.727</ele>
        <time>1970-01-01T01:00:00Z</time>
      </trkpt>
      <trkpt lat="61.080699" lon="14.283411">
        <ele>209.364</ele>
        <time>1970-01-01T01:00:00Z</time>
      </trkpt>
      <trkpt lat="61.080673" lon="14.28378">
        <ele>209.091</ele>
        <time>1970-01-01T01:00:00Z</time>
      </trkpt>
      <trkpt lat="61.080661" lon="14.283951">
        <ele>208.818</ele>
        <time>1970-01-01T01:00:00Z</time>
      </trkpt>
      <trkpt lat="61.080669" lon="14.28413">
        <ele>208.545</ele>
        <time>1970-01-01T01:00:00Z</time>
      </trkpt>
      <trkpt lat="61.080669" lon="14.284332">
        <ele>208.273</ele>
        <time>1970-01-01T01:00:00Z</time>
      </trkpt>
      <trkpt lat="61.080677" lon="14.284533">
        <ele>208.273</ele>
        <time>1970-01-01T01:00:00Z</time>
      </trkpt>
      <trkpt lat="61.080684" lon="14.284729">
        <ele>208.545</ele>
        <time>1970-01-01T01:00:00Z</time>
      </trkpt>
      <trkpt lat="61.08068" lon="14.284842">
        <ele>208.818</ele>
        <time>1970-01-01T01:00:00Z</time>
      </trkpt>
      <trkpt lat="61.080654" lon="14.285091">
        <ele>209.182</ele>
        <time>1970-01-01T01:00:00Z</time>
      </trkpt>
      <trkpt lat="61.080574" lon="14.285388">
        <ele>209.545</ele>
        <time>1970-01-01T01:00:00Z</time>
      </trkpt>
      <trkpt lat="61.080455" lon="14.285528">
        <ele>209.909</ele>
        <time>1970-01-01T01:00:00Z</time>
      </trkpt>
      <trkpt lat="61.080406" lon="14.285626">
        <ele>210.273</ele>
        <time>1970-01-01T01:00:00Z</time>
      </trkpt>
      <trkpt lat="61.080299" lon="14.285826">
        <ele>210.636</ele>
        <time>1970-01-01T01:00:00Z</time>
      </trkpt>
      <trkpt lat="61.080169" lon="14.286085">
        <ele>211</ele>
        <time>1970-01-01T01:00:00Z</time>
      </trkpt>
      <trkpt lat="61.080104" lon="14.286196">
        <ele>211.364</ele>
        <time>1970-01-01T01:00:00Z</time>
      </trkpt>
      <trkpt lat="61.079978" lon="14.286436">
        <ele>211.909</ele>
        <time>1970-01-01T01:00:00Z</time>
      </trkpt>
      <trkpt lat="61.079891" lon="14.286557">
        <ele>212.364</ele>
        <time>1970-01-01T01:00:00Z</time>
      </trkpt>
      <trkpt lat="61.079845" lon="14.286605">
        <ele>212.545</ele>
        <time>1970-01-01T01:00:00Z</time>
      </trkpt>
      <trkpt lat="61.079738" lon="14.28673">
        <ele>212.727</ele>
        <time>1970-01-01T01:00:00Z</time>
      </trkpt>
      <trkpt lat="61.079658" lon="14.286798">
        <ele>212.909</ele>
        <time>1970-01-01T01:00:00Z</time>
      </trkpt>
      <trkpt lat="61.079524" lon="14.286908">
        <ele>213.091</ele>
        <time>1970-01-01T01:00:00Z</time>
      </trkpt>
      <trkpt lat="61.079498" lon="14.286933">
        <ele>213.273</ele>
        <time>1970-01-01T01:00:00Z</time>
      </trkpt>
      <trkpt lat="61.079368" lon="14.287038">
        <ele>213.455</ele>
        <time>1970-01-01T01:00:00Z</time>
      </trkpt>
      <trkpt lat="61.079269" lon="14.287119">
        <ele>213.818</ele>
        <time>1970-01-01T01:00:00Z</time>
      </trkpt>
      <trkpt lat="61.079162" lon="14.287197">
        <ele>214.182</ele>
        <time>1970-01-01T01:00:00Z</time>
      </trkpt>
      <trkpt lat="61.079135" lon="14.287217">
        <ele>214.545</ele>
        <time>1970-01-01T01:00:00Z</time>
      </trkpt>
      <trkpt lat="61.079021" lon="14.287287">
        <ele>214.727</ele>
        <time>1970-01-01T01:00:00Z</time>
      </trkpt>
      <trkpt lat="61.078853" lon="14.28746">
        <ele>215</ele>
        <time>1970-01-01T01:00:00Z</time>
      </trkpt>
      <trkpt lat="61.078739" lon="14.287712">
        <ele>215.273</ele>
        <time>1970-01-01T01:00:00Z</time>
      </trkpt>
      <trkpt lat="61.078651" lon="14.28809">
        <ele>215.545</ele>
        <time>1970-01-01T01:00:00Z</time>
      </trkpt>
      <trkpt lat="61.078598" lon="14.288407">
        <ele>215.818</ele>
        <time>1970-01-01T01:00:00Z</time>
      </trkpt>
      <trkpt lat="61.078514" lon="14.288697">
        <ele>216.091</ele>
        <time>1970-01-01T01:00:00Z</time>
      </trkpt>
      <trkpt lat="61.078395" lon="14.288838">
        <ele>216.545</ele>
        <time>1970-01-01T01:00:00Z</time>
      </trkpt>
      <trkpt lat="61.078266" lon="14.288979">
        <ele>217</ele>
        <time>1970-01-01T01:00:00Z</time>
      </trkpt>
      <trkpt lat="61.078174" lon="14.289224">
        <ele>217.273</ele>
        <time>1970-01-01T01:00:00Z</time>
      </trkpt>
      <trkpt lat="61.078083" lon="14.28947">
        <ele>217.545</ele>
        <time>1970-01-01T01:00:00Z</time>
      </trkpt>
      <trkpt lat="61.078056" lon="14.289525">
        <ele>217.818</ele>
        <time>1970-01-01T01:00:00Z</time>
      </trkpt>
      <trkpt lat="61.077892" lon="14.289633">
        <ele>218.091</ele>
        <time>1970-01-01T01:00:00Z</time>
      </trkpt>
      <trkpt lat="61.077793" lon="14.28969">
        <ele>218.273</ele>
        <time>1970-01-01T01:00:00Z</time>
      </trkpt>
      <trkpt lat="61.077682" lon="14.289836">
        <ele>218.455</ele>
        <time>1970-01-01T01:00:00Z</time>
      </trkpt>
      <trkpt lat="61.077659" lon="14.289859">
        <ele>218.727</ele>
        <time>1970-01-01T01:00:00Z</time>
      </trkpt>
      <trkpt lat="61.077571" lon="14.289976">
        <ele>219</ele>
        <time>1970-01-01T01:00:00Z</time>
      </trkpt>
      <trkpt lat="61.077453" lon="14.29015">
        <ele>219.273</ele>
        <time>1970-01-01T01:00:00Z</time>
      </trkpt>
      <trkpt lat="61.077369" lon="14.290266">
        <ele>219.364</ele>
        <time>1970-01-01T01:00:00Z</time>
      </trkpt>
      <trkpt lat="61.077266" lon="14.29041">
        <ele>219.455</ele>
        <time>1970-01-01T01:00:00Z</time>
      </trkpt>
      <trkpt lat="61.077194" lon="14.290489">
        <ele>219.545</ele>
        <time>1970-01-01T01:00:00Z</time>
      </trkpt>
      <trkpt lat="61.077098" lon="14.290573">
        <ele>219.636</ele>
        <time>1970-01-01T01:00:00Z</time>
      </trkpt>
      <trkpt lat="61.077053" lon="14.290603">
        <ele>219.727</ele>
        <time>1970-01-01T01:00:00Z</time>
      </trkpt>
      <trkpt lat="61.076911" lon="14.290751">
        <ele>219.818</ele>
        <time>1970-01-01T01:00:00Z</time>
      </trkpt>
      <trkpt lat="61.07682" lon="14.290868">
        <ele>219.909</ele>
        <time>1970-01-01T01:00:00Z</time>
      </trkpt>
      <trkpt lat="61.076751" lon="14.291001">
        <ele>220</ele>
        <time>1970-01-01T01:00:00Z</time>
      </trkpt>
      <trkpt lat="61.076736" lon="14.29102">
        <ele>220</ele>
        <time>1970-01-01T01:00:00Z</time>
      </trkpt>
      <trkpt lat="61.076713" lon="14.291093">
        <ele>220</ele>
        <time>1970-01-01T01:00:00Z</time>
      </trkpt>
      <trkpt lat="61.076656" lon="14.291255">
        <ele>220</ele>
        <time>1970-01-01T01:00:00Z</time>
      </trkpt>
      <trkpt lat="61.076648" lon="14.291323">
        <ele>220</ele>
        <time>1970-01-01T01:00:00Z</time>
      </trkpt>
      <trkpt lat="61.076633" lon="14.291399">
        <ele>220</ele>
        <time>1970-01-01T01:00:00Z</time>
      </trkpt>
      <trkpt lat="61.076606" lon="14.291546">
        <ele>220</ele>
        <time>1970-01-01T01:00:00Z</time>
      </trkpt>
      <trkpt lat="61.076568" lon="14.29176">
        <ele>220</ele>
        <time>1970-01-01T01:00:00Z</time>
      </trkpt>
      <trkpt lat="61.076545" lon="14.291824">
        <ele>220</ele>
        <time>1970-01-01T01:00:00Z</time>
      </trkpt>
      <trkpt lat="61.076442" lon="14.292015">
        <ele>220</ele>
        <time>1970-01-01T01:00:00Z</time>
      </trkpt>
      <trkpt lat="61.076354" lon="14.292116">
        <ele>220</ele>
        <time>1970-01-01T01:00:00Z</time>
      </trkpt>
      <trkpt lat="61.076251" lon="14.292185">
        <ele>220</ele>
        <time>1970-01-01T01:00:00Z</time>
      </trkpt>
      <trkpt lat="61.076175" lon="14.292235">
        <ele>220</ele>
        <time>1970-01-01T01:00:00Z</time>
      </trkpt>
      <trkpt lat="61.076118" lon="14.292277">
        <ele>220</ele>
        <time>1970-01-01T01:00:00Z</time>
      </trkpt>
      <trkpt lat="61.075984" lon="14.292424">
        <ele>220</ele>
        <time>1970-01-01T01:00:00Z</time>
      </trkpt>
      <trkpt lat="61.075904" lon="14.29253">
        <ele>220</ele>
        <time>1970-01-01T01:00:00Z</time>
      </trkpt>
      <trkpt lat="61.075836" lon="14.292654">
        <ele>220</ele>
        <time>1970-01-01T01:00:00Z</time>
      </trkpt>
      <trkpt lat="61.075748" lon="14.292795">
        <ele>220</ele>
        <time>1970-01-01T01:00:00Z</time>
      </trkpt>
      <trkpt lat="61.07571" lon="14.292882">
        <ele>220</ele>
        <time>1970-01-01T01:00:00Z</time>
      </trkpt>
      <trkpt lat="61.075653" lon="14.293115">
        <ele>220</ele>
        <time>1970-01-01T01:00:00Z</time>
      </trkpt>
      <trkpt lat="61.075614" lon="14.293224">
        <ele>220.091</ele>
        <time>1970-01-01T01:00:00Z</time>
      </trkpt>
      <trkpt lat="61.075592" lon="14.293333">
        <ele>220.182</ele>
        <time>1970-01-01T01:00:00Z</time>
      </trkpt>
      <trkpt lat="61.075546" lon="14.293516">
        <ele>220.273</ele>
        <time>1970-01-01T01:00:00Z</time>
      </trkpt>
      <trkpt lat="61.075477" lon="14.293677">
        <ele>220.364</ele>
        <time>1970-01-01T01:00:00Z</time>
      </trkpt>
      <trkpt lat="61.075454" lon="14.293719">
        <ele>220.455</ele>
        <time>1970-01-01T01:00:00Z</time>
      </trkpt>
      <trkpt lat="61.07542" lon="14.293785">
        <ele>220.545</ele>
        <time>1970-01-01T01:00:00Z</time>
      </trkpt>
      <trkpt lat="61.075359" lon="14.29389">
        <ele>220.636</ele>
        <time>1970-01-01T01:00:00Z</time>
      </trkpt>
      <trkpt lat="61.075302" lon="14.294078">
        <ele>220.727</ele>
        <time>1970-01-01T01:00:00Z</time>
      </trkpt>
      <trkpt lat="61.075225" lon="14.294343">
        <ele>220.818</ele>
        <time>1970-01-01T01:00:00Z</time>
      </trkpt>
      <trkpt lat="61.075164" lon="14.294514">
        <ele>220.909</ele>
        <time>1970-01-01T01:00:00Z</time>
      </trkpt>
      <trkpt lat="61.075149" lon="14.294552">
        <ele>221</ele>
        <time>1970-01-01T01:00:00Z</time>
      </trkpt>
      <trkpt lat="61.075115" lon="14.294703">
        <ele>221</ele>
        <time>1970-01-01T01:00:00Z</time>
      </trkpt>
      <trkpt lat="61.07508" lon="14.294871">
        <ele>221</ele>
        <time>1970-01-01T01:00:00Z</time>
      </trkpt>
      <trkpt lat="61.075046" lon="14.295084">
        <ele>221</ele>
        <time>1970-01-01T01:00:00Z</time>
      </trkpt>
      <trkpt lat="61.075035" lon="14.295186">
        <ele>221</ele>
        <time>1970-01-01T01:00:00Z</time>
      </trkpt>
      <trkpt lat="61.075" lon="14.295327">
        <ele>221</ele>
        <time>1970-01-01T01:00:00Z</time>
      </trkpt>
      <trkpt lat="61.074981" lon="14.295423">
        <ele>221</ele>
        <time>1970-01-01T01:00:00Z</time>
      </trkpt>
      <trkpt lat="61.074897" lon="14.29567">
        <ele>221</ele>
        <time>1970-01-01T01:00:00Z</time>
      </trkpt>
      <trkpt lat="61.074874" lon="14.295752">
        <ele>221</ele>
        <time>1970-01-01T01:00:00Z</time>
      </trkpt>
      <trkpt lat="61.07484" lon="14.295946">
        <ele>221</ele>
        <time>1970-01-01T01:00:00Z</time>
      </trkpt>
      <trkpt lat="61.074813" lon="14.29608">
        <ele>221</ele>
        <time>1970-01-01T01:00:00Z</time>
      </trkpt>
      <trkpt lat="61.074806" lon="14.296143">
        <ele>221</ele>
        <time>1970-01-01T01:00:00Z</time>
      </trkpt>
      <trkpt lat="61.074748" lon="14.296365">
        <ele>221</ele>
        <time>1970-01-01T01:00:00Z</time>
      </trkpt>
      <trkpt lat="61.074729" lon="14.29643">
        <ele>221.091</ele>
        <time>1970-01-01T01:00:00Z</time>
      </trkpt>
      <trkpt lat="61.074699" lon="14.296549">
        <ele>221.182</ele>
        <time>1970-01-01T01:00:00Z</time>
      </trkpt>
      <trkpt lat="61.074684" lon="14.296712">
        <ele>221.273</ele>
        <time>1970-01-01T01:00:00Z</time>
      </trkpt>
      <trkpt lat="61.074687" lon="14.296847">
        <ele>221.364</ele>
        <time>1970-01-01T01:00:00Z</time>
      </trkpt>
      <trkpt lat="61.074722" lon="14.297064">
        <ele>221.455</ele>
        <time>1970-01-01T01:00:00Z</time>
      </trkpt>
      <trkpt lat="61.074756" lon="14.297238">
        <ele>221.545</ele>
        <time>1970-01-01T01:00:00Z</time>
      </trkpt>
      <trkpt lat="61.07479" lon="14.297402">
        <ele>221.727</ele>
        <time>1970-01-01T01:00:00Z</time>
      </trkpt>
      <trkpt lat="61.074825" lon="14.297546">
        <ele>221.909</ele>
        <time>1970-01-01T01:00:00Z</time>
      </trkpt>
      <trkpt lat="61.074829" lon="14.297677">
        <ele>222.091</ele>
        <time>1970-01-01T01:00:00Z</time>
      </trkpt>
      <trkpt lat="61.074848" lon="14.297785">
        <ele>222.273</ele>
        <time>1970-01-01T01:00:00Z</time>
      </trkpt>
      <trkpt lat="61.074886" lon="14.297952">
        <ele>222.455</ele>
        <time>1970-01-01T01:00:00Z</time>
      </trkpt>
      <trkpt lat="61.074909" lon="14.298061">
        <ele>222.545</ele>
        <time>1970-01-01T01:00:00Z</time>
      </trkpt>
      <trkpt lat="61.074924" lon="14.298236">
        <ele>222.727</ele>
        <time>1970-01-01T01:00:00Z</time>
      </trkpt>
      <trkpt lat="61.074924" lon="14.298319">
        <ele>222.909</ele>
        <time>1970-01-01T01:00:00Z</time>
      </trkpt>
      <trkpt lat="61.074958" lon="14.298419">
        <ele>223.091</ele>
        <time>1970-01-01T01:00:00Z</time>
      </trkpt>
      <trkpt lat="61.07497" lon="14.298467">
        <ele>223.273</ele>
        <time>1970-01-01T01:00:00Z</time>
      </trkpt>
      <trkpt lat="61.074993" lon="14.298624">
        <ele>223.727</ele>
        <time>1970-01-01T01:00:00Z</time>
      </trkpt>
      <trkpt lat="61.075057" lon="14.298872">
        <ele>224.091</ele>
        <time>1970-01-01T01:00:00Z</time>
      </trkpt>
      <trkpt lat="61.075069" lon="14.298935">
        <ele>224.455</ele>
        <time>1970-01-01T01:00:00Z</time>
      </trkpt>
      <trkpt lat="61.075134" lon="14.299144">
        <ele>224.818</ele>
        <time>1970-01-01T01:00:00Z</time>
      </trkpt>
      <trkpt lat="61.075126" lon="14.299349">
        <ele>225.182</ele>
        <time>1970-01-01T01:00:00Z</time>
      </trkpt>
      <trkpt lat="61.075134" lon="14.299614">
        <ele>225.545</ele>
        <time>1970-01-01T01:00:00Z</time>
      </trkpt>
      <trkpt lat="61.075122" lon="14.299685">
        <ele>226.273</ele>
        <time>1970-01-01T01:00:00Z</time>
      </trkpt>
      <trkpt lat="61.07508" lon="14.299943">
        <ele>226.909</ele>
        <time>1970-01-01T01:00:00Z</time>
      </trkpt>
      <trkpt lat="61.07508" lon="14.300068">
        <ele>227.545</ele>
        <time>1970-01-01T01:00:00Z</time>
      </trkpt>
      <trkpt lat="61.075077" lon="14.300116">
        <ele>228.182</ele>
        <time>1970-01-01T01:00:00Z</time>
      </trkpt>
      <trkpt lat="61.075084" lon="14.300352">
        <ele>229.182</ele>
        <time>1970-01-01T01:00:00Z</time>
      </trkpt>
      <trkpt lat="61.075073" lon="14.300556">
        <ele>229.909</ele>
        <time>1970-01-01T01:00:00Z</time>
      </trkpt>
      <trkpt lat="61.075073" lon="14.300607">
        <ele>230.636</ele>
        <time>1970-01-01T01:00:00Z</time>
      </trkpt>
      <trkpt lat="61.075069" lon="14.300907">
        <ele>231.364</ele>
        <time>1970-01-01T01:00:00Z</time>
      </trkpt>
      <trkpt lat="61.075084" lon="14.30102">
        <ele>232.091</ele>
        <time>1970-01-01T01:00:00Z</time>
      </trkpt>
      <trkpt lat="61.075111" lon="14.301303">
        <ele>232.818</ele>
        <time>1970-01-01T01:00:00Z</time>
      </trkpt>
      <trkpt lat="61.075115" lon="14.301364">
        <ele>233.818</ele>
        <time>1970-01-01T01:00:00Z</time>
      </trkpt>
      <trkpt lat="61.075164" lon="14.301575">
        <ele>234.455</ele>
        <time>1970-01-01T01:00:00Z</time>
      </trkpt>
      <trkpt lat="61.07518" lon="14.301708">
        <ele>235.091</ele>
        <time>1970-01-01T01:00:00Z</time>
      </trkpt>
      <trkpt lat="61.075225" lon="14.301936">
        <ele>236</ele>
        <time>1970-01-01T01:00:00Z</time>
      </trkpt>
      <trkpt lat="61.075267" lon="14.302134">
        <ele>236.909</ele>
        <time>1970-01-01T01:00:00Z</time>
      </trkpt>
      <trkpt lat="61.075325" lon="14.302321">
        <ele>237.455</ele>
        <time>1970-01-01T01:00:00Z</time>
      </trkpt>
      <trkpt lat="61.075351" lon="14.302427">
        <ele>238</ele>
        <time>1970-01-01T01:00:00Z</time>
      </trkpt>
      <trkpt lat="61.075424" lon="14.302657">
        <ele>238.545</ele>
        <time>1970-01-01T01:00:00Z</time>
      </trkpt>
      <trkpt lat="61.075466" lon="14.30281">
        <ele>239</ele>
        <time>1970-01-01T01:00:00Z</time>
      </trkpt>
      <trkpt lat="61.075527" lon="14.303028">
        <ele>239.455</ele>
        <time>1970-01-01T01:00:00Z</time>
      </trkpt>
      <trkpt lat="61.075584" lon="14.303269">
        <ele>239.909</ele>
        <time>1970-01-01T01:00:00Z</time>
      </trkpt>
      <trkpt lat="61.075653" lon="14.303589">
        <ele>240.091</ele>
        <time>1970-01-01T01:00:00Z</time>
      </trkpt>
      <trkpt lat="61.075702" lon="14.303725">
        <ele>240.273</ele>
        <time>1970-01-01T01:00:00Z</time>
      </trkpt>
      <trkpt lat="61.075698" lon="14.304336">
        <ele>240.364</ele>
        <time>1970-01-01T01:00:00Z</time>
      </trkpt>
      <trkpt lat="61.075668" lon="14.304803">
        <ele>240.182</ele>
        <time>1970-01-01T01:00:00Z</time>
      </trkpt>
      <trkpt lat="61.075611" lon="14.305159">
        <ele>240</ele>
        <time>1970-01-01T01:00:00Z</time>
      </trkpt>
      <trkpt lat="61.075595" lon="14.305224">
        <ele>239.818</ele>
        <time>1970-01-01T01:00:00Z</time>
      </trkpt>
      <trkpt lat="61.075492" lon="14.305494">
        <ele>239.636</ele>
        <time>1970-01-01T01:00:00Z</time>
      </trkpt>
      <trkpt lat="61.075389" lon="14.305606">
        <ele>239.455</ele>
        <time>1970-01-01T01:00:00Z</time>
      </trkpt>
      <trkpt lat="61.075363" lon="14.305635">
        <ele>239.364</ele>
        <time>1970-01-01T01:00:00Z</time>
      </trkpt>
      <trkpt lat="61.075325" lon="14.305688">
        <ele>239.364</ele>
        <time>1970-01-01T01:00:00Z</time>
      </trkpt>
      <trkpt lat="61.075237" lon="14.305808">
        <ele>239.364</ele>
        <time>1970-01-01T01:00:00Z</time>
      </trkpt>
      <trkpt lat="61.07516" lon="14.305936">
        <ele>239.364</ele>
        <time>1970-01-01T01:00:00Z</time>
      </trkpt>
      <trkpt lat="61.07508" lon="14.306089">
        <ele>239.364</ele>
        <time>1970-01-01T01:00:00Z</time>
      </trkpt>
      <trkpt lat="61.07497" lon="14.306308">
        <ele>239.545</ele>
        <time>1970-01-01T01:00:00Z</time>
      </trkpt>
      <trkpt lat="61.07489" lon="14.306449">
        <ele>239.727</ele>
        <time>1970-01-01T01:00:00Z</time>
      </trkpt>
      <trkpt lat="61.074813" lon="14.306575">
        <ele>240.273</ele>
        <time>1970-01-01T01:00:00Z</time>
      </trkpt>
      <trkpt lat="61.074726" lon="14.306704">
        <ele>240.818</ele>
        <time>1970-01-01T01:00:00Z</time>
      </trkpt>
      <trkpt lat="61.074649" lon="14.306845">
        <ele>241.364</ele>
        <time>1970-01-01T01:00:00Z</time>
      </trkpt>
      <trkpt lat="61.074565" lon="14.306998">
        <ele>241.909</ele>
        <time>1970-01-01T01:00:00Z</time>
      </trkpt>
      <trkpt lat="61.074523" lon="14.30709">
        <ele>242.455</ele>
        <time>1970-01-01T01:00:00Z</time>
      </trkpt>
      <trkpt lat="61.074432" lon="14.307255">
        <ele>242.909</ele>
        <time>1970-01-01T01:00:00Z</time>
      </trkpt>
      <trkpt lat="61.07442" lon="14.307275">
        <ele>243.727</ele>
        <time>1970-01-01T01:00:00Z</time>
      </trkpt>
      <trkpt lat="61.074386" lon="14.307442">
        <ele>243.818</ele>
        <time>1970-01-01T01:00:00Z</time>
      </trkpt>
      <trkpt lat="61.074401" lon="14.307656">
        <ele>243.909</ele>
        <time>1970-01-01T01:00:00Z</time>
      </trkpt>
      <trkpt lat="61.074451" lon="14.307814">
        <ele>243.909</ele>
        <time>1970-01-01T01:00:00Z</time>
      </trkpt>
      <trkpt lat="61.074501" lon="14.307943">
        <ele>243.909</ele>
        <time>1970-01-01T01:00:00Z</time>
      </trkpt>
      <trkpt lat="61.074596" lon="14.308198">
        <ele>243.545</ele>
        <time>1970-01-01T01:00:00Z</time>
      </trkpt>
      <trkpt lat="61.074661" lon="14.308372">
        <ele>243.182</ele>
        <time>1970-01-01T01:00:00Z</time>
      </trkpt>
      <trkpt lat="61.074695" lon="14.308455">
        <ele>242.818</ele>
        <time>1970-01-01T01:00:00Z</time>
      </trkpt>
      <trkpt lat="61.07471" lon="14.308491">
        <ele>242.727</ele>
        <time>1970-01-01T01:00:00Z</time>
      </trkpt>
      <trkpt lat="61.074733" lon="14.308579">
        <ele>242.636</ele>
        <time>1970-01-01T01:00:00Z</time>
      </trkpt>
      <trkpt lat="61.074771" lon="14.308657">
        <ele>242.545</ele>
        <time>1970-01-01T01:00:00Z</time>
      </trkpt>
      <trkpt lat="61.074794" lon="14.308718">
        <ele>242.091</ele>
        <time>1970-01-01T01:00:00Z</time>
      </trkpt>
      <trkpt lat="61.074798" lon="14.308737">
        <ele>242.364</ele>
        <time>1970-01-01T01:00:00Z</time>
      </trkpt>
      <trkpt lat="61.07481" lon="14.30882">
        <ele>242.636</ele>
        <time>1970-01-01T01:00:00Z</time>
      </trkpt>
      <trkpt lat="61.074836" lon="14.308944">
        <ele>242.909</ele>
        <time>1970-01-01T01:00:00Z</time>
      </trkpt>
      <trkpt lat="61.074851" lon="14.309005">
        <ele>243.182</ele>
        <time>1970-01-01T01:00:00Z</time>
      </trkpt>
      <trkpt lat="61.074851" lon="14.309011">
        <ele>243.455</ele>
        <time>1970-01-01T01:00:00Z</time>
      </trkpt>
      <trkpt lat="61.074859" lon="14.309056">
        <ele>243.909</ele>
        <time>1970-01-01T01:00:00Z</time>
      </trkpt>
      <trkpt lat="61.074882" lon="14.309158">
        <ele>244.364</ele>
        <time>1970-01-01T01:00:00Z</time>
      </trkpt>
      <trkpt lat="61.074893" lon="14.309268">
        <ele>244.545</ele>
        <time>1970-01-01T01:00:00Z</time>
      </trkpt>
      <trkpt lat="61.074909" lon="14.309415">
        <ele>244.727</ele>
        <time>1970-01-01T01:00:00Z</time>
      </trkpt>
      <trkpt lat="61.074935" lon="14.309562">
        <ele>244.909</ele>
        <time>1970-01-01T01:00:00Z</time>
      </trkpt>
      <trkpt lat="61.075004" lon="14.309882">
        <ele>245.091</ele>
        <time>1970-01-01T01:00:00Z</time>
      </trkpt>
      <trkpt lat="61.075054" lon="14.310079">
        <ele>245.273</ele>
        <time>1970-01-01T01:00:00Z</time>
      </trkpt>
      <trkpt lat="61.075084" lon="14.310171">
        <ele>245.455</ele>
        <time>1970-01-01T01:00:00Z</time>
      </trkpt>
      <trkpt lat="61.075107" lon="14.310371">
        <ele>245.636</ele>
        <time>1970-01-01T01:00:00Z</time>
      </trkpt>
      <trkpt lat="61.075138" lon="14.310644">
        <ele>245.818</ele>
        <time>1970-01-01T01:00:00Z</time>
      </trkpt>
      <trkpt lat="61.075088" lon="14.310872">
        <ele>245.909</ele>
        <time>1970-01-01T01:00:00Z</time>
      </trkpt>
      <trkpt lat="61.075073" lon="14.310913">
        <ele>245.818</ele>
        <time>1970-01-01T01:00:00Z</time>
      </trkpt>
      <trkpt lat="61.074993" lon="14.311038">
        <ele>245.727</ele>
        <time>1970-01-01T01:00:00Z</time>
      </trkpt>
      <trkpt lat="61.07497" lon="14.311067">
        <ele>245.636</ele>
        <time>1970-01-01T01:00:00Z</time>
      </trkpt>
      <trkpt lat="61.074882" lon="14.311208">
        <ele>245.545</ele>
        <time>1970-01-01T01:00:00Z</time>
      </trkpt>
      <trkpt lat="61.074802" lon="14.311358">
        <ele>245.455</ele>
        <time>1970-01-01T01:00:00Z</time>
      </trkpt>
      <trkpt lat="61.074768" lon="14.311438">
        <ele>245.364</ele>
        <time>1970-01-01T01:00:00Z</time>
      </trkpt>
      <trkpt lat="61.07471" lon="14.31155">
        <ele>245.273</ele>
        <time>1970-01-01T01:00:00Z</time>
      </trkpt>
      <trkpt lat="61.074687" lon="14.311646">
        <ele>245.182</ele>
        <time>1970-01-01T01:00:00Z</time>
      </trkpt>
      <trkpt lat="61.074687" lon="14.311785">
        <ele>245.091</ele>
        <time>1970-01-01T01:00:00Z</time>
      </trkpt>
      <trkpt lat="61.074691" lon="14.311843">
        <ele>245</ele>
        <time>1970-01-01T01:00:00Z</time>
      </trkpt>
      <trkpt lat="61.074703" lon="14.312067">
        <ele>245</ele>
        <time>1970-01-01T01:00:00Z</time>
      </trkpt>
      <trkpt lat="61.074733" lon="14.312238">
        <ele>245</ele>
        <time>1970-01-01T01:00:00Z</time>
      </trkpt>
      <trkpt lat="61.074752" lon="14.312367">
        <ele>245</ele>
        <time>1970-01-01T01:00:00Z</time>
      </trkpt>
      <trkpt lat="61.074775" lon="14.312542">
        <ele>245</ele>
        <time>1970-01-01T01:00:00Z</time>
      </trkpt>
      <trkpt lat="61.074802" lon="14.312816">
        <ele>245</ele>
        <time>1970-01-01T01:00:00Z</time>
      </trkpt>
      <trkpt lat="61.074802" lon="14.312863">
        <ele>245</ele>
        <time>1970-01-01T01:00:00Z</time>
      </trkpt>
      <trkpt lat="61.074829" lon="14.313048">
        <ele>245</ele>
        <time>1970-01-01T01:00:00Z</time>
      </trkpt>
      <trkpt lat="61.074905" lon="14.313315">
        <ele>245</ele>
        <time>1970-01-01T01:00:00Z</time>
      </trkpt>
      <trkpt lat="61.074932" lon="14.313503">
        <ele>245</ele>
        <time>1970-01-01T01:00:00Z</time>
      </trkpt>
      <trkpt lat="61.07497" lon="14.313716">
        <ele>245</ele>
        <time>1970-01-01T01:00:00Z</time>
      </trkpt>
      <trkpt lat="61.074993" lon="14.313832">
        <ele>245</ele>
        <time>1970-01-01T01:00:00Z</time>
      </trkpt>
      <trkpt lat="61.075012" lon="14.313957">
        <ele>244.909</ele>
        <time>1970-01-01T01:00:00Z</time>
      </trkpt>
      <trkpt lat="61.075008" lon="14.314501">
        <ele>244.818</ele>
        <time>1970-01-01T01:00:00Z</time>
      </trkpt>
      <trkpt lat="61.074996" lon="14.314718">
        <ele>244.455</ele>
        <time>1970-01-01T01:00:00Z</time>
      </trkpt>
      <trkpt lat="61.074966" lon="14.314889">
        <ele>244.091</ele>
        <time>1970-01-01T01:00:00Z</time>
      </trkpt>
      <trkpt lat="61.074943" lon="14.315328">
        <ele>243.727</ele>
        <time>1970-01-01T01:00:00Z</time>
      </trkpt>
      <trkpt lat="61.074924" lon="14.315642">
        <ele>243.182</ele>
        <time>1970-01-01T01:00:00Z</time>
      </trkpt>
      <trkpt lat="61.074905" lon="14.315916">
        <ele>242.636</ele>
        <time>1970-01-01T01:00:00Z</time>
      </trkpt>
      <trkpt lat="61.074951" lon="14.316333">
        <ele>242.091</ele>
        <time>1970-01-01T01:00:00Z</time>
      </trkpt>
      <trkpt lat="61.075" lon="14.316615">
        <ele>241.545</ele>
        <time>1970-01-01T01:00:00Z</time>
      </trkpt>
      <trkpt lat="61.075008" lon="14.316806">
        <ele>240.636</ele>
        <time>1970-01-01T01:00:00Z</time>
      </trkpt>
      <trkpt lat="61.074985" lon="14.317152">
        <ele>239.727</ele>
        <time>1970-01-01T01:00:00Z</time>
      </trkpt>
      <trkpt lat="61.074954" lon="14.317285">
        <ele>238.636</ele>
        <time>1970-01-01T01:00:00Z</time>
      </trkpt>
      <trkpt lat="61.074916" lon="14.31742">
        <ele>237.545</ele>
        <time>1970-01-01T01:00:00Z</time>
      </trkpt>
      <trkpt lat="61.074863" lon="14.317739">
        <ele>236.545</ele>
        <time>1970-01-01T01:00:00Z</time>
      </trkpt>
      <trkpt lat="61.074794" lon="14.318098">
        <ele>235.182</ele>
        <time>1970-01-01T01:00:00Z</time>
      </trkpt>
      <trkpt lat="61.07479" lon="14.318197">
        <ele>233.545</ele>
        <time>1970-01-01T01:00:00Z</time>
      </trkpt>
      <trkpt lat="61.074752" lon="14.318925">
        <ele>231.909</ele>
        <time>1970-01-01T01:00:00Z</time>
      </trkpt>
      <trkpt lat="61.074737" lon="14.319424">
        <ele>231.909</ele>
        <time>1970-01-01T01:00:00Z</time>
      </trkpt>
      <trkpt lat="61.074771" lon="14.319894">
        <ele>231.818</ele>
        <time>1970-01-01T01:00:00Z</time>
      </trkpt>
      <trkpt lat="61.074775" lon="14.320828">
        <ele>231.727</ele>
        <time>1970-01-01T01:00:00Z</time>
      </trkpt>
      <trkpt lat="61.074745" lon="14.321745">
        <ele>231.545</ele>
        <time>1970-01-01T01:00:00Z</time>
      </trkpt>
      <trkpt lat="61.074642" lon="14.32259">
        <ele>231.364</ele>
        <time>1970-01-01T01:00:00Z</time>
      </trkpt>
      <trkpt lat="61.074577" lon="14.323028">
        <ele>231</ele>
        <time>1970-01-01T01:00:00Z</time>
      </trkpt>
      <trkpt lat="61.074375" lon="14.323665">
        <ele>230.636</ele>
        <time>1970-01-01T01:00:00Z</time>
      </trkpt>
      <trkpt lat="61.074325" lon="14.323775">
        <ele>230</ele>
        <time>1970-01-01T01:00:00Z</time>
      </trkpt>
      <trkpt lat="61.07426" lon="14.32421">
        <ele>231.182</ele>
        <time>1970-01-01T01:00:00Z</time>
      </trkpt>
      <trkpt lat="61.074203" lon="14.324589">
        <ele>232.636</ele>
        <time>1970-01-01T01:00:00Z</time>
      </trkpt>
      <trkpt lat="61.074176" lon="14.324773">
        <ele>234.273</ele>
        <time>1970-01-01T01:00:00Z</time>
      </trkpt>
      <trkpt lat="61.074096" lon="14.325237">
        <ele>233.727</ele>
        <time>1970-01-01T01:00:00Z</time>
      </trkpt>
      <trkpt lat="61.073921" lon="14.325973">
        <ele>233.273</ele>
        <time>1970-01-01T01:00:00Z</time>
      </trkpt>
      <trkpt lat="61.073753" lon="14.32656">
        <ele>232.818</ele>
        <time>1970-01-01T01:00:00Z</time>
      </trkpt>
      <trkpt lat="61.073619" lon="14.326885">
        <ele>232</ele>
        <time>1970-01-01T01:00:00Z</time>
      </trkpt>
      <trkpt lat="61.073554" lon="14.327095">
        <ele>231.182</ele>
        <time>1970-01-01T01:00:00Z</time>
      </trkpt>
      <trkpt lat="61.073539" lon="14.327178">
        <ele>230.273</ele>
        <time>1970-01-01T01:00:00Z</time>
      </trkpt>
      <trkpt lat="61.073505" lon="14.327413">
        <ele>229.636</ele>
        <time>1970-01-01T01:00:00Z</time>
      </trkpt>
      <trkpt lat="61.073448" lon="14.327728">
        <ele>229.455</ele>
        <time>1970-01-01T01:00:00Z</time>
      </trkpt>
      <trkpt lat="61.073345" lon="14.328167">
        <ele>227.545</ele>
        <time>1970-01-01T01:00:00Z</time>
      </trkpt>
      <trkpt lat="61.073246" lon="14.328512">
        <ele>225.636</ele>
        <time>1970-01-01T01:00:00Z</time>
      </trkpt>
      <trkpt lat="61.07299" lon="14.3294">
        <ele>223.727</ele>
        <time>1970-01-01T01:00:00Z</time>
      </trkpt>
      <trkpt lat="61.072826" lon="14.330109">
        <ele>222.182</ele>
        <time>1970-01-01T01:00:00Z</time>
      </trkpt>
      <trkpt lat="61.072803" lon="14.330227">
        <ele>220.636</ele>
        <time>1970-01-01T01:00:00Z</time>
      </trkpt>
      <trkpt lat="61.072727" lon="14.330682">
        <ele>219</ele>
        <time>1970-01-01T01:00:00Z</time>
      </trkpt>
      <trkpt lat="61.072639" lon="14.331064">
        <ele>218</ele>
        <time>1970-01-01T01:00:00Z</time>
      </trkpt>
      <trkpt lat="61.072608" lon="14.331157">
        <ele>217.273</ele>
        <time>1970-01-01T01:00:00Z</time>
      </trkpt>
      <trkpt lat="61.072551" lon="14.331407">
        <ele>217.091</ele>
        <time>1970-01-01T01:00:00Z</time>
      </trkpt>
      <trkpt lat="61.072441" lon="14.331847">
        <ele>216.636</ele>
        <time>1970-01-01T01:00:00Z</time>
      </trkpt>
      <trkpt lat="61.072212" lon="14.332732">
        <ele>216.182</ele>
        <time>1970-01-01T01:00:00Z</time>
      </trkpt>
      <trkpt lat="61.072101" lon="14.333047">
        <ele>215.818</ele>
        <time>1970-01-01T01:00:00Z</time>
      </trkpt>
      <trkpt lat="61.072021" lon="14.333297">
        <ele>215.455</ele>
        <time>1970-01-01T01:00:00Z</time>
      </trkpt>
      <trkpt lat="61.07196" lon="14.333499">
        <ele>215.091</ele>
        <time>1970-01-01T01:00:00Z</time>
      </trkpt>
      <trkpt lat="61.071849" lon="14.333754">
        <ele>214.909</ele>
        <time>1970-01-01T01:00:00Z</time>
      </trkpt>
      <trkpt lat="61.071796" lon="14.333851">
        <ele>214.727</ele>
        <time>1970-01-01T01:00:00Z</time>
      </trkpt>
      <trkpt lat="61.071681" lon="14.334027">
        <ele>214.545</ele>
        <time>1970-01-01T01:00:00Z</time>
      </trkpt>
      <trkpt lat="61.071643" lon="14.334112">
        <ele>214.545</ele>
        <time>1970-01-01T01:00:00Z</time>
      </trkpt>
      <trkpt lat="61.071582" lon="14.334291">
        <ele>214.273</ele>
        <time>1970-01-01T01:00:00Z</time>
      </trkpt>
      <trkpt lat="61.071533" lon="14.334512">
        <ele>214.455</ele>
        <time>1970-01-01T01:00:00Z</time>
      </trkpt>
      <trkpt lat="61.071525" lon="14.334567">
        <ele>214.636</ele>
        <time>1970-01-01T01:00:00Z</time>
      </trkpt>
      <trkpt lat="61.071464" lon="14.334882">
        <ele>214.818</ele>
        <time>1970-01-01T01:00:00Z</time>
      </trkpt>
      <trkpt lat="61.071384" lon="14.335103">
        <ele>215.182</ele>
        <time>1970-01-01T01:00:00Z</time>
      </trkpt>
      <trkpt lat="61.0713" lon="14.335325">
        <ele>215.545</ele>
        <time>1970-01-01T01:00:00Z</time>
      </trkpt>
      <trkpt lat="61.071235" lon="14.335535">
        <ele>215.909</ele>
        <time>1970-01-01T01:00:00Z</time>
      </trkpt>
      <trkpt lat="61.071151" lon="14.335912">
        <ele>216.273</ele>
        <time>1970-01-01T01:00:00Z</time>
      </trkpt>
      <trkpt lat="61.071109" lon="14.336033">
        <ele>216.636</ele>
        <time>1970-01-01T01:00:00Z</time>
      </trkpt>
      <trkpt lat="61.071056" lon="14.336316">
        <ele>217.091</ele>
        <time>1970-01-01T01:00:00Z</time>
      </trkpt>
      <trkpt lat="61.07093" lon="14.336672">
        <ele>217.545</ele>
        <time>1970-01-01T01:00:00Z</time>
      </trkpt>
      <trkpt lat="61.070869" lon="14.33678">
        <ele>217.909</ele>
        <time>1970-01-01T01:00:00Z</time>
      </trkpt>
      <trkpt lat="61.070823" lon="14.336878">
        <ele>217.818</ele>
        <time>1970-01-01T01:00:00Z</time>
      </trkpt>
      <trkpt lat="61.070812" lon="14.336913">
        <ele>217.727</ele>
        <time>1970-01-01T01:00:00Z</time>
      </trkpt>
      <trkpt lat="61.070781" lon="14.337005">
        <ele>217.636</ele>
        <time>1970-01-01T01:00:00Z</time>
      </trkpt>
      <trkpt lat="61.070758" lon="14.337138">
        <ele>217.545</ele>
        <time>1970-01-01T01:00:00Z</time>
      </trkpt>
      <trkpt lat="61.070743" lon="14.337203">
        <ele>217.455</ele>
        <time>1970-01-01T01:00:00Z</time>
      </trkpt>
      <trkpt lat="61.070728" lon="14.337259">
        <ele>217.182</ele>
        <time>1970-01-01T01:00:00Z</time>
      </trkpt>
      <trkpt lat="61.07072" lon="14.337369">
        <ele>216.909</ele>
        <time>1970-01-01T01:00:00Z</time>
      </trkpt>
      <trkpt lat="61.070682" lon="14.337606">
        <ele>216.636</ele>
        <time>1970-01-01T01:00:00Z</time>
      </trkpt>
      <trkpt lat="61.070617" lon="14.337805">
        <ele>216.818</ele>
        <time>1970-01-01T01:00:00Z</time>
      </trkpt>
      <trkpt lat="61.070594" lon="14.337841">
        <ele>217</ele>
        <time>1970-01-01T01:00:00Z</time>
      </trkpt>
      <trkpt lat="61.070537" lon="14.338062">
        <ele>217.091</ele>
        <time>1970-01-01T01:00:00Z</time>
      </trkpt>
      <trkpt lat="61.070518" lon="14.338145">
        <ele>217.182</ele>
        <time>1970-01-01T01:00:00Z</time>
      </trkpt>
      <trkpt lat="61.070453" lon="14.338358">
        <ele>217.273</ele>
        <time>1970-01-01T01:00:00Z</time>
      </trkpt>
      <trkpt lat="61.070404" lon="14.338512">
        <ele>217.364</ele>
        <time>1970-01-01T01:00:00Z</time>
      </trkpt>
      <trkpt lat="61.070365" lon="14.338615">
        <ele>217.273</ele>
        <time>1970-01-01T01:00:00Z</time>
      </trkpt>
      <trkpt lat="61.070316" lon="14.338929">
        <ele>217.182</ele>
        <time>1970-01-01T01:00:00Z</time>
      </trkpt>
      <trkpt lat="61.07027" lon="14.339174">
        <ele>217.273</ele>
        <time>1970-01-01T01:00:00Z</time>
      </trkpt>
      <trkpt lat="61.070213" lon="14.339329">
        <ele>217.364</ele>
        <time>1970-01-01T01:00:00Z</time>
      </trkpt>
      <trkpt lat="61.070182" lon="14.339411">
        <ele>217.455</ele>
        <time>1970-01-01T01:00:00Z</time>
      </trkpt>
      <trkpt lat="61.070121" lon="14.339624">
        <ele>217.091</ele>
        <time>1970-01-01T01:00:00Z</time>
      </trkpt>
      <trkpt lat="61.070095" lon="14.339672">
        <ele>216.636</ele>
        <time>1970-01-01T01:00:00Z</time>
      </trkpt>
      <trkpt lat="61.069999" lon="14.339898">
        <ele>216.727</ele>
        <time>1970-01-01T01:00:00Z</time>
      </trkpt>
      <trkpt lat="61.069911" lon="14.340088">
        <ele>216.818</ele>
        <time>1970-01-01T01:00:00Z</time>
      </trkpt>
      <trkpt lat="61.069831" lon="14.340229">
        <ele>216.909</ele>
        <time>1970-01-01T01:00:00Z</time>
      </trkpt>
      <trkpt lat="61.069732" lon="14.340424">
        <ele>217</ele>
        <time>1970-01-01T01:00:00Z</time>
      </trkpt>
      <trkpt lat="61.069702" lon="14.340489">
        <ele>217.182</ele>
        <time>1970-01-01T01:00:00Z</time>
      </trkpt>
      <trkpt lat="61.069622" lon="14.340679">
        <ele>217.364</ele>
        <time>1970-01-01T01:00:00Z</time>
      </trkpt>
      <trkpt lat="61.069553" lon="14.340853">
        <ele>217.545</ele>
        <time>1970-01-01T01:00:00Z</time>
      </trkpt>
      <trkpt lat="61.069534" lon="14.340906">
        <ele>217.727</ele>
        <time>1970-01-01T01:00:00Z</time>
      </trkpt>
      <trkpt lat="61.069473" lon="14.341079">
        <ele>217.909</ele>
        <time>1970-01-01T01:00:00Z</time>
      </trkpt>
      <trkpt lat="61.069416" lon="14.341269">
        <ele>217.909</ele>
        <time>1970-01-01T01:00:00Z</time>
      </trkpt>
      <trkpt lat="61.069297" lon="14.341492">
        <ele>218</ele>
        <time>1970-01-01T01:00:00Z</time>
      </trkpt>
      <trkpt lat="61.069221" lon="14.341676">
        <ele>217.727</ele>
        <time>1970-01-01T01:00:00Z</time>
      </trkpt>
      <trkpt lat="61.069202" lon="14.341764">
        <ele>217.455</ele>
        <time>1970-01-01T01:00:00Z</time>
      </trkpt>
      <trkpt lat="61.069152" lon="14.341941">
        <ele>217.455</ele>
        <time>1970-01-01T01:00:00Z</time>
      </trkpt>
      <trkpt lat="61.06903" lon="14.34222">
        <ele>217.364</ele>
        <time>1970-01-01T01:00:00Z</time>
      </trkpt>
      <trkpt lat="61.068977" lon="14.3423">
        <ele>217.364</ele>
        <time>1970-01-01T01:00:00Z</time>
      </trkpt>
      <trkpt lat="61.068851" lon="14.34261">
        <ele>217.364</ele>
        <time>1970-01-01T01:00:00Z</time>
      </trkpt>
      <trkpt lat="61.068809" lon="14.342738">
        <ele>217.364</ele>
        <time>1970-01-01T01:00:00Z</time>
      </trkpt>
      <trkpt lat="61.06879" lon="14.342801">
        <ele>217.364</ele>
        <time>1970-01-01T01:00:00Z</time>
      </trkpt>
      <trkpt lat="61.068679" lon="14.343106">
        <ele>217.364</ele>
        <time>1970-01-01T01:00:00Z</time>
      </trkpt>
      <trkpt lat="61.068603" lon="14.343316">
        <ele>217.545</ele>
        <time>1970-01-01T01:00:00Z</time>
      </trkpt>
      <trkpt lat="61.068496" lon="14.34356">
        <ele>217.727</ele>
        <time>1970-01-01T01:00:00Z</time>
      </trkpt>
      <trkpt lat="61.068363" lon="14.343781">
        <ele>218.091</ele>
        <time>1970-01-01T01:00:00Z</time>
      </trkpt>
      <trkpt lat="61.068279" lon="14.343914">
        <ele>218.455</ele>
        <time>1970-01-01T01:00:00Z</time>
      </trkpt>
      <trkpt lat="61.068183" lon="14.344079">
        <ele>218.545</ele>
        <time>1970-01-01T01:00:00Z</time>
      </trkpt>
      <trkpt lat="61.068058" lon="14.344316">
        <ele>218.727</ele>
        <time>1970-01-01T01:00:00Z</time>
      </trkpt>
      <trkpt lat="61.068012" lon="14.344451">
        <ele>218.909</ele>
        <time>1970-01-01T01:00:00Z</time>
      </trkpt>
      <trkpt lat="61.067924" lon="14.344642">
        <ele>219.091</ele>
        <time>1970-01-01T01:00:00Z</time>
      </trkpt>
      <trkpt lat="61.067825" lon="14.344872">
        <ele>219.364</ele>
        <time>1970-01-01T01:00:00Z</time>
      </trkpt>
      <trkpt lat="61.067764" lon="14.345055">
        <ele>219.636</ele>
        <time>1970-01-01T01:00:00Z</time>
      </trkpt>
      <trkpt lat="61.06768" lon="14.345274">
        <ele>219.909</ele>
        <time>1970-01-01T01:00:00Z</time>
      </trkpt>
      <trkpt lat="61.067588" lon="14.34544">
        <ele>220.182</ele>
        <time>1970-01-01T01:00:00Z</time>
      </trkpt>
      <trkpt lat="61.067573" lon="14.345485">
        <ele>220.455</ele>
        <time>1970-01-01T01:00:00Z</time>
      </trkpt>
      <trkpt lat="61.067539" lon="14.345595">
        <ele>220.545</ele>
        <time>1970-01-01T01:00:00Z</time>
      </trkpt>
      <trkpt lat="61.067489" lon="14.345808">
        <ele>221.364</ele>
        <time>1970-01-01T01:00:00Z</time>
      </trkpt>
      <trkpt lat="61.067424" lon="14.346048">
        <ele>222.182</ele>
        <time>1970-01-01T01:00:00Z</time>
      </trkpt>
      <trkpt lat="61.067333" lon="14.346293">
        <ele>222.545</ele>
        <time>1970-01-01T01:00:00Z</time>
      </trkpt>
      <trkpt lat="61.067253" lon="14.346473">
        <ele>222.909</ele>
        <time>1970-01-01T01:00:00Z</time>
      </trkpt>
      <trkpt lat="61.067173" lon="14.346679">
        <ele>223.273</ele>
        <time>1970-01-01T01:00:00Z</time>
      </trkpt>
      <trkpt lat="61.067085" lon="14.346899">
        <ele>223.545</ele>
        <time>1970-01-01T01:00:00Z</time>
      </trkpt>
      <trkpt lat="61.06705" lon="14.346985">
        <ele>223.364</ele>
        <time>1970-01-01T01:00:00Z</time>
      </trkpt>
      <trkpt lat="61.067012" lon="14.347196">
        <ele>223.182</ele>
        <time>1970-01-01T01:00:00Z</time>
      </trkpt>
      <trkpt lat="61.06689" lon="14.34753">
        <ele>223</ele>
        <time>1970-01-01T01:00:00Z</time>
      </trkpt>
      <trkpt lat="61.066806" lon="14.34776">
        <ele>222.818</ele>
        <time>1970-01-01T01:00:00Z</time>
      </trkpt>
      <trkpt lat="61.066711" lon="14.347961">
        <ele>223.091</ele>
        <time>1970-01-01T01:00:00Z</time>
      </trkpt>
      <trkpt lat="61.066631" lon="14.348139">
        <ele>222.636</ele>
        <time>1970-01-01T01:00:00Z</time>
      </trkpt>
      <trkpt lat="61.066555" lon="14.348245">
        <ele>222.182</ele>
        <time>1970-01-01T01:00:00Z</time>
      </trkpt>
      <trkpt lat="61.066478" lon="14.348384">
        <ele>222.182</ele>
        <time>1970-01-01T01:00:00Z</time>
      </trkpt>
      <trkpt lat="61.066375" lon="14.348643">
        <ele>222.182</ele>
        <time>1970-01-01T01:00:00Z</time>
      </trkpt>
      <trkpt lat="61.066265" lon="14.348925">
        <ele>222.182</ele>
        <time>1970-01-01T01:00:00Z</time>
      </trkpt>
      <trkpt lat="61.066204" lon="14.349099">
        <ele>221.818</ele>
        <time>1970-01-01T01:00:00Z</time>
      </trkpt>
      <trkpt lat="61.066127" lon="14.349215">
        <ele>221.909</ele>
        <time>1970-01-01T01:00:00Z</time>
      </trkpt>
      <trkpt lat="61.066093" lon="14.349241">
        <ele>222</ele>
        <time>1970-01-01T01:00:00Z</time>
      </trkpt>
      <trkpt lat="61.065956" lon="14.349379">
        <ele>221.909</ele>
        <time>1970-01-01T01:00:00Z</time>
      </trkpt>
      <trkpt lat="61.065868" lon="14.349517">
        <ele>221.818</ele>
        <time>1970-01-01T01:00:00Z</time>
      </trkpt>
      <trkpt lat="61.065715" lon="14.349807">
        <ele>221.182</ele>
        <time>1970-01-01T01:00:00Z</time>
      </trkpt>
      <trkpt lat="61.065628" lon="14.349986">
        <ele>220.545</ele>
        <time>1970-01-01T01:00:00Z</time>
      </trkpt>
      <trkpt lat="61.065494" lon="14.350228">
        <ele>219.909</ele>
        <time>1970-01-01T01:00:00Z</time>
      </trkpt>
      <trkpt lat="61.065399" lon="14.350304">
        <ele>219.273</ele>
        <time>1970-01-01T01:00:00Z</time>
      </trkpt>
      <trkpt lat="61.065315" lon="14.350422">
        <ele>218.545</ele>
        <time>1970-01-01T01:00:00Z</time>
      </trkpt>
      <trkpt lat="61.065231" lon="14.350627">
        <ele>217.818</ele>
        <time>1970-01-01T01:00:00Z</time>
      </trkpt>
      <trkpt lat="61.065124" lon="14.350783">
        <ele>217.545</ele>
        <time>1970-01-01T01:00:00Z</time>
      </trkpt>
      <trkpt lat="61.065013" lon="14.35092">
        <ele>217.273</ele>
        <time>1970-01-01T01:00:00Z</time>
      </trkpt>
      <trkpt lat="61.064956" lon="14.350995">
        <ele>217</ele>
        <time>1970-01-01T01:00:00Z</time>
      </trkpt>
      <trkpt lat="61.064815" lon="14.351263">
        <ele>216.909</ele>
        <time>1970-01-01T01:00:00Z</time>
      </trkpt>
      <trkpt lat="61.064716" lon="14.35145">
        <ele>216.818</ele>
        <time>1970-01-01T01:00:00Z</time>
      </trkpt>
      <trkpt lat="61.064575" lon="14.351694">
        <ele>216.727</ele>
        <time>1970-01-01T01:00:00Z</time>
      </trkpt>
      <trkpt lat="61.064453" lon="14.351873">
        <ele>216.636</ele>
        <time>1970-01-01T01:00:00Z</time>
      </trkpt>
      <trkpt lat="61.064376" lon="14.352017">
        <ele>216.545</ele>
        <time>1970-01-01T01:00:00Z</time>
      </trkpt>
      <trkpt lat="61.064353" lon="14.352062">
        <ele>216.455</ele>
        <time>1970-01-01T01:00:00Z</time>
      </trkpt>
      <trkpt lat="61.064285" lon="14.352202">
        <ele>216.636</ele>
        <time>1970-01-01T01:00:00Z</time>
      </trkpt>
      <trkpt lat="61.064212" lon="14.352324">
        <ele>216.818</ele>
        <time>1970-01-01T01:00:00Z</time>
      </trkpt>
      <trkpt lat="61.064117" lon="14.352543">
        <ele>216.909</ele>
        <time>1970-01-01T01:00:00Z</time>
      </trkpt>
      <trkpt lat="61.063999" lon="14.352729">
        <ele>217</ele>
        <time>1970-01-01T01:00:00Z</time>
      </trkpt>
      <trkpt lat="61.063869" lon="14.35299">
        <ele>217.091</ele>
        <time>1970-01-01T01:00:00Z</time>
      </trkpt>
      <trkpt lat="61.063686" lon="14.353215">
        <ele>217.182</ele>
        <time>1970-01-01T01:00:00Z</time>
      </trkpt>
      <trkpt lat="61.063552" lon="14.353426">
        <ele>217.364</ele>
        <time>1970-01-01T01:00:00Z</time>
      </trkpt>
      <trkpt lat="61.063426" lon="14.353444">
        <ele>218</ele>
        <time>1970-01-01T01:00:00Z</time>
      </trkpt>
      <trkpt lat="61.063301" lon="14.353454">
        <ele>218.636</ele>
        <time>1970-01-01T01:00:00Z</time>
      </trkpt>
      <trkpt lat="61.06319" lon="14.353399">
        <ele>219.273</ele>
        <time>1970-01-01T01:00:00Z</time>
      </trkpt>
      <trkpt lat="61.063056" lon="14.353193">
        <ele>219.909</ele>
        <time>1970-01-01T01:00:00Z</time>
      </trkpt>
      <trkpt lat="61.062988" lon="14.353023">
        <ele>220.364</ele>
        <time>1970-01-01T01:00:00Z</time>
      </trkpt>
      <trkpt lat="61.062938" lon="14.352915">
        <ele>221</ele>
        <time>1970-01-01T01:00:00Z</time>
      </trkpt>
      <trkpt lat="61.062904" lon="14.352835">
        <ele>221.636</ele>
        <time>1970-01-01T01:00:00Z</time>
      </trkpt>
      <trkpt lat="61.062858" lon="14.352655">
        <ele>222.273</ele>
        <time>1970-01-01T01:00:00Z</time>
      </trkpt>
      <trkpt lat="61.062801" lon="14.352498">
        <ele>222.909</ele>
        <time>1970-01-01T01:00:00Z</time>
      </trkpt>
      <trkpt lat="61.062717" lon="14.352261">
        <ele>223.545</ele>
        <time>1970-01-01T01:00:00Z</time>
      </trkpt>
      <trkpt lat="61.062622" lon="14.352139">
        <ele>224.091</ele>
        <time>1970-01-01T01:00:00Z</time>
      </trkpt>
      <trkpt lat="61.062599" lon="14.352111">
        <ele>224.273</ele>
        <time>1970-01-01T01:00:00Z</time>
      </trkpt>
      <trkpt lat="61.062484" lon="14.351905">
        <ele>224.636</ele>
        <time>1970-01-01T01:00:00Z</time>
      </trkpt>
      <trkpt lat="61.062419" lon="14.351734">
        <ele>225</ele>
        <time>1970-01-01T01:00:00Z</time>
      </trkpt>
      <trkpt lat="61.062393" lon="14.351587">
        <ele>225.364</ele>
        <time>1970-01-01T01:00:00Z</time>
      </trkpt>
      <trkpt lat="61.062355" lon="14.351506">
        <ele>225.727</ele>
        <time>1970-01-01T01:00:00Z</time>
      </trkpt>
      <trkpt lat="61.062297" lon="14.351268">
        <ele>225.909</ele>
        <time>1970-01-01T01:00:00Z</time>
      </trkpt>
      <trkpt lat="61.062286" lon="14.351119">
        <ele>226.091</ele>
        <time>1970-01-01T01:00:00Z</time>
      </trkpt>
      <trkpt lat="61.06229" lon="14.351076">
        <ele>226.273</ele>
        <time>1970-01-01T01:00:00Z</time>
      </trkpt>
      <trkpt lat="61.062282" lon="14.350997">
        <ele>226.455</ele>
        <time>1970-01-01T01:00:00Z</time>
      </trkpt>
      <trkpt lat="61.062259" lon="14.35088">
        <ele>227.636</ele>
        <time>1970-01-01T01:00:00Z</time>
      </trkpt>
      <trkpt lat="61.062248" lon="14.350793">
        <ele>229</ele>
        <time>1970-01-01T01:00:00Z</time>
      </trkpt>
      <trkpt lat="61.062244" lon="14.350755">
        <ele>230.364</ele>
        <time>1970-01-01T01:00:00Z</time>
      </trkpt>
      <trkpt lat="61.062221" lon="14.350672">
        <ele>231.545</ele>
        <time>1970-01-01T01:00:00Z</time>
      </trkpt>
      <trkpt lat="61.062137" lon="14.350575">
        <ele>232.727</ele>
        <time>1970-01-01T01:00:00Z</time>
      </trkpt>
      <trkpt lat="61.062049" lon="14.35052">
        <ele>233.909</ele>
        <time>1970-01-01T01:00:00Z</time>
      </trkpt>
      <trkpt lat="61.06195" lon="14.350428">
        <ele>235.091</ele>
        <time>1970-01-01T01:00:00Z</time>
      </trkpt>
      <trkpt lat="61.061878" lon="14.350369">
        <ele>236.273</ele>
        <time>1970-01-01T01:00:00Z</time>
      </trkpt>
      <trkpt lat="61.061828" lon="14.350295">
        <ele>237.273</ele>
        <time>1970-01-01T01:00:00Z</time>
      </trkpt>
      <trkpt lat="61.061668" lon="14.35016">
        <ele>238.273</ele>
        <time>1970-01-01T01:00:00Z</time>
      </trkpt>
      <trkpt lat="61.061607" lon="14.350104">
        <ele>239.273</ele>
        <time>1970-01-01T01:00:00Z</time>
      </trkpt>
      <trkpt lat="61.061508" lon="14.349886">
        <ele>239.273</ele>
        <time>1970-01-01T01:00:00Z</time>
      </trkpt>
      <trkpt lat="61.061485" lon="14.34984">
        <ele>239.182</ele>
        <time>1970-01-01T01:00:00Z</time>
      </trkpt>
      <trkpt lat="61.061397" lon="14.349594">
        <ele>239.091</ele>
        <time>1970-01-01T01:00:00Z</time>
      </trkpt>
      <trkpt lat="61.06134" lon="14.349444">
        <ele>239</ele>
        <time>1970-01-01T01:00:00Z</time>
      </trkpt>
      <trkpt lat="61.061313" lon="14.349392">
        <ele>238.909</ele>
        <time>1970-01-01T01:00:00Z</time>
      </trkpt>
      <trkpt lat="61.061279" lon="14.349307">
        <ele>238.818</ele>
        <time>1970-01-01T01:00:00Z</time>
      </trkpt>
      <trkpt lat="61.061214" lon="14.349247">
        <ele>238.727</ele>
        <time>1970-01-01T01:00:00Z</time>
      </trkpt>
      <trkpt lat="61.061199" lon="14.34923">
        <ele>238.636</ele>
        <time>1970-01-01T01:00:00Z</time>
      </trkpt>
      <trkpt lat="61.061172" lon="14.3492">
        <ele>238.727</ele>
        <time>1970-01-01T01:00:00Z</time>
      </trkpt>
      <trkpt lat="61.061122" lon="14.349157">
        <ele>238.727</ele>
        <time>1970-01-01T01:00:00Z</time>
      </trkpt>
      <trkpt lat="61.061027" lon="14.349091">
        <ele>238.727</ele>
        <time>1970-01-01T01:00:00Z</time>
      </trkpt>
      <trkpt lat="61.060985" lon="14.349064">
        <ele>238.727</ele>
        <time>1970-01-01T01:00:00Z</time>
      </trkpt>
      <trkpt lat="61.060878" lon="14.348922">
        <ele>238.636</ele>
        <time>1970-01-01T01:00:00Z</time>
      </trkpt>
      <trkpt lat="61.060863" lon="14.34889">
        <ele>238.727</ele>
        <time>1970-01-01T01:00:00Z</time>
      </trkpt>
      <trkpt lat="61.060771" lon="14.348746">
        <ele>238.818</ele>
        <time>1970-01-01T01:00:00Z</time>
      </trkpt>
      <trkpt lat="61.060665" lon="14.348584">
        <ele>238.909</ele>
        <time>1970-01-01T01:00:00Z</time>
      </trkpt>
      <trkpt lat="61.0606" lon="14.348486">
        <ele>239</ele>
        <time>1970-01-01T01:00:00Z</time>
      </trkpt>
      <trkpt lat="61.06052" lon="14.348427">
        <ele>239.091</ele>
        <time>1970-01-01T01:00:00Z</time>
      </trkpt>
      <trkpt lat="61.06044" lon="14.348408">
        <ele>239.182</ele>
        <time>1970-01-01T01:00:00Z</time>
      </trkpt>
      <trkpt lat="61.060413" lon="14.348401">
        <ele>239.273</ele>
        <time>1970-01-01T01:00:00Z</time>
      </trkpt>
      <trkpt lat="61.060337" lon="14.348396">
        <ele>239.455</ele>
        <time>1970-01-01T01:00:00Z</time>
      </trkpt>
      <trkpt lat="61.060306" lon="14.348397">
        <ele>239.636</ele>
        <time>1970-01-01T01:00:00Z</time>
      </trkpt>
      <trkpt lat="61.060264" lon="14.348405">
        <ele>239.818</ele>
        <time>1970-01-01T01:00:00Z</time>
      </trkpt>
      <trkpt lat="61.060214" lon="14.348407">
        <ele>240</ele>
        <time>1970-01-01T01:00:00Z</time>
      </trkpt>
      <trkpt lat="61.060161" lon="14.348398">
        <ele>240</ele>
        <time>1970-01-01T01:00:00Z</time>
      </trkpt>
      <trkpt lat="61.060066" lon="14.348376">
        <ele>240</ele>
        <time>1970-01-01T01:00:00Z</time>
      </trkpt>
      <trkpt lat="61.059974" lon="14.348337">
        <ele>240</ele>
        <time>1970-01-01T01:00:00Z</time>
      </trkpt>
      <trkpt lat="61.059837" lon="14.34831">
        <ele>240</ele>
        <time>1970-01-01T01:00:00Z</time>
      </trkpt>
      <trkpt lat="61.059726" lon="14.348259">
        <ele>240</ele>
        <time>1970-01-01T01:00:00Z</time>
      </trkpt>
      <trkpt lat="61.059642" lon="14.348246">
        <ele>240</ele>
        <time>1970-01-01T01:00:00Z</time>
      </trkpt>
      <trkpt lat="61.059547" lon="14.34824">
        <ele>240</ele>
        <time>1970-01-01T01:00:00Z</time>
      </trkpt>
      <trkpt lat="61.059524" lon="14.348211">
        <ele>240</ele>
        <time>1970-01-01T01:00:00Z</time>
      </trkpt>
      <trkpt lat="61.059509" lon="14.348182">
        <ele>240</ele>
        <time>1970-01-01T01:00:00Z</time>
      </trkpt>
      <trkpt lat="61.059429" lon="14.348083">
        <ele>240</ele>
        <time>1970-01-01T01:00:00Z</time>
      </trkpt>
      <trkpt lat="61.059383" lon="14.348011">
        <ele>240</ele>
        <time>1970-01-01T01:00:00Z</time>
      </trkpt>
      <trkpt lat="61.059268" lon="14.347972">
        <ele>240</ele>
        <time>1970-01-01T01:00:00Z</time>
      </trkpt>
      <trkpt lat="61.059146" lon="14.348074">
        <ele>240</ele>
        <time>1970-01-01T01:00:00Z</time>
      </trkpt>
      <trkpt lat="61.059112" lon="14.348134">
        <ele>240</ele>
        <time>1970-01-01T01:00:00Z</time>
      </trkpt>
      <trkpt lat="61.059074" lon="14.348258">
        <ele>240</ele>
        <time>1970-01-01T01:00:00Z</time>
      </trkpt>
      <trkpt lat="61.059032" lon="14.348544">
        <ele>240.091</ele>
        <time>1970-01-01T01:00:00Z</time>
      </trkpt>
      <trkpt lat="61.059017" lon="14.348817">
        <ele>239.909</ele>
        <time>1970-01-01T01:00:00Z</time>
      </trkpt>
      <trkpt lat="61.058998" lon="14.348939">
        <ele>239.727</ele>
        <time>1970-01-01T01:00:00Z</time>
      </trkpt>
      <trkpt lat="61.058971" lon="14.349125">
        <ele>239.545</ele>
        <time>1970-01-01T01:00:00Z</time>
      </trkpt>
      <trkpt lat="61.058891" lon="14.349427">
        <ele>239.364</ele>
        <time>1970-01-01T01:00:00Z</time>
      </trkpt>
      <trkpt lat="61.058811" lon="14.349637">
        <ele>239.182</ele>
        <time>1970-01-01T01:00:00Z</time>
      </trkpt>
      <trkpt lat="61.058708" lon="14.349884">
        <ele>239</ele>
        <time>1970-01-01T01:00:00Z</time>
      </trkpt>
      <trkpt lat="61.058601" lon="14.350065">
        <ele>238.818</ele>
        <time>1970-01-01T01:00:00Z</time>
      </trkpt>
      <trkpt lat="61.058486" lon="14.350167">
        <ele>239.091</ele>
        <time>1970-01-01T01:00:00Z</time>
      </trkpt>
      <trkpt lat="61.058376" lon="14.350279">
        <ele>239.364</ele>
        <time>1970-01-01T01:00:00Z</time>
      </trkpt>
      <trkpt lat="61.058265" lon="14.350313">
        <ele>239.636</ele>
        <time>1970-01-01T01:00:00Z</time>
      </trkpt>
      <trkpt lat="61.058177" lon="14.350247">
        <ele>239.818</ele>
        <time>1970-01-01T01:00:00Z</time>
      </trkpt>
      <trkpt lat="61.058036" lon="14.350118">
        <ele>240.273</ele>
        <time>1970-01-01T01:00:00Z</time>
      </trkpt>
      <trkpt lat="61.057922" lon="14.350003">
        <ele>240.727</ele>
        <time>1970-01-01T01:00:00Z</time>
      </trkpt>
      <trkpt lat="61.057834" lon="14.350017">
        <ele>240.455</ele>
        <time>1970-01-01T01:00:00Z</time>
      </trkpt>
      <trkpt lat="61.057701" lon="14.350129">
        <ele>240.273</ele>
        <time>1970-01-01T01:00:00Z</time>
      </trkpt>
      <trkpt lat="61.057662" lon="14.350164">
        <ele>240.091</ele>
        <time>1970-01-01T01:00:00Z</time>
      </trkpt>
      <trkpt lat="61.057487" lon="14.350255">
        <ele>239.909</ele>
        <time>1970-01-01T01:00:00Z</time>
      </trkpt>
      <trkpt lat="61.057384" lon="14.350325">
        <ele>239.727</ele>
        <time>1970-01-01T01:00:00Z</time>
      </trkpt>
      <trkpt lat="61.057197" lon="14.35049">
        <ele>239.091</ele>
        <time>1970-01-01T01:00:00Z</time>
      </trkpt>
      <trkpt lat="61.057075" lon="14.350603">
        <ele>238.455</ele>
        <time>1970-01-01T01:00:00Z</time>
      </trkpt>
      <trkpt lat="61.056961" lon="14.350728">
        <ele>237.818</ele>
        <time>1970-01-01T01:00:00Z</time>
      </trkpt>
      <trkpt lat="61.056777" lon="14.350887">
        <ele>235.636</ele>
        <time>1970-01-01T01:00:00Z</time>
      </trkpt>
      <trkpt lat="61.056659" lon="14.350975">
        <ele>233.455</ele>
        <time>1970-01-01T01:00:00Z</time>
      </trkpt>
      <trkpt lat="61.056484" lon="14.351117">
        <ele>231.273</ele>
        <time>1970-01-01T01:00:00Z</time>
      </trkpt>
      <trkpt lat="61.056423" lon="14.351146">
        <ele>229.818</ele>
        <time>1970-01-01T01:00:00Z</time>
      </trkpt>
      <trkpt lat="61.056324" lon="14.351206">
        <ele>228.273</ele>
        <time>1970-01-01T01:00:00Z</time>
      </trkpt>
      <trkpt lat="61.056152" lon="14.351382">
        <ele>226.364</ele>
        <time>1970-01-01T01:00:00Z</time>
      </trkpt>
      <trkpt lat="61.056007" lon="14.351548">
        <ele>224.455</ele>
        <time>1970-01-01T01:00:00Z</time>
      </trkpt>
      <trkpt lat="61.05585" lon="14.351702">
        <ele>222.545</ele>
        <time>1970-01-01T01:00:00Z</time>
      </trkpt>
      <trkpt lat="61.055698" lon="14.351854">
        <ele>220.636</ele>
        <time>1970-01-01T01:00:00Z</time>
      </trkpt>
      <trkpt lat="61.055534" lon="14.352095">
        <ele>218.727</ele>
        <time>1970-01-01T01:00:00Z</time>
      </trkpt>
      <trkpt lat="61.055389" lon="14.35228">
        <ele>216.636</ele>
        <time>1970-01-01T01:00:00Z</time>
      </trkpt>
      <trkpt lat="61.055343" lon="14.352335">
        <ele>216.091</ele>
        <time>1970-01-01T01:00:00Z</time>
      </trkpt>
      <trkpt lat="61.05516" lon="14.352602">
        <ele>215.545</ele>
        <time>1970-01-01T01:00:00Z</time>
      </trkpt>
      <trkpt lat="61.055038" lon="14.352836">
        <ele>215</ele>
        <time>1970-01-01T01:00:00Z</time>
      </trkpt>
      <trkpt lat="61.054981" lon="14.352962">
        <ele>214.455</ele>
        <time>1970-01-01T01:00:00Z</time>
      </trkpt>
      <trkpt lat="61.054924" lon="14.353047">
        <ele>213.909</ele>
        <time>1970-01-01T01:00:00Z</time>
      </trkpt>
      <trkpt lat="61.054882" lon="14.35316">
        <ele>213.909</ele>
        <time>1970-01-01T01:00:00Z</time>
      </trkpt>
      <trkpt lat="61.054862" lon="14.353204">
        <ele>213.727</ele>
        <time>1970-01-01T01:00:00Z</time>
      </trkpt>
      <trkpt lat="61.054824" lon="14.353349">
        <ele>213.545</ele>
        <time>1970-01-01T01:00:00Z</time>
      </trkpt>
      <trkpt lat="61.054714" lon="14.353564">
        <ele>213.364</ele>
        <time>1970-01-01T01:00:00Z</time>
      </trkpt>
      <trkpt lat="61.054637" lon="14.35373">
        <ele>213.182</ele>
        <time>1970-01-01T01:00:00Z</time>
      </trkpt>
      <trkpt lat="61.054626" lon="14.353786">
        <ele>213.182</ele>
        <time>1970-01-01T01:00:00Z</time>
      </trkpt>
      <trkpt lat="61.054588" lon="14.353903">
        <ele>213.182</ele>
        <time>1970-01-01T01:00:00Z</time>
      </trkpt>
      <trkpt lat="61.0545" lon="14.354023">
        <ele>213.182</ele>
        <time>1970-01-01T01:00:00Z</time>
      </trkpt>
      <trkpt lat="61.054363" lon="14.354131">
        <ele>213.182</ele>
        <time>1970-01-01T01:00:00Z</time>
      </trkpt>
      <trkpt lat="61.054294" lon="14.354187">
        <ele>213.182</ele>
        <time>1970-01-01T01:00:00Z</time>
      </trkpt>
      <trkpt lat="61.054115" lon="14.354289">
        <ele>213.182</ele>
        <time>1970-01-01T01:00:00Z</time>
      </trkpt>
      <trkpt lat="61.053989" lon="14.354332">
        <ele>213</ele>
        <time>1970-01-01T01:00:00Z</time>
      </trkpt>
      <trkpt lat="61.05389" lon="14.354331">
        <ele>213</ele>
        <time>1970-01-01T01:00:00Z</time>
      </trkpt>
      <trkpt lat="61.053745" lon="14.35437">
        <ele>213</ele>
        <time>1970-01-01T01:00:00Z</time>
      </trkpt>
      <trkpt lat="61.053623" lon="14.354415">
        <ele>213</ele>
        <time>1970-01-01T01:00:00Z</time>
      </trkpt>
      <trkpt lat="61.053447" lon="14.354462">
        <ele>213</ele>
        <time>1970-01-01T01:00:00Z</time>
      </trkpt>
      <trkpt lat="61.053291" lon="14.354505">
        <ele>213.091</ele>
        <time>1970-01-01T01:00:00Z</time>
      </trkpt>
      <trkpt lat="61.053211" lon="14.354536">
        <ele>213.182</ele>
        <time>1970-01-01T01:00:00Z</time>
      </trkpt>
      <trkpt lat="61.053119" lon="14.354499">
        <ele>213.273</ele>
        <time>1970-01-01T01:00:00Z</time>
      </trkpt>
      <trkpt lat="61.053016" lon="14.354512">
        <ele>213.364</ele>
        <time>1970-01-01T01:00:00Z</time>
      </trkpt>
      <trkpt lat="61.052986" lon="14.354516">
        <ele>213.455</ele>
        <time>1970-01-01T01:00:00Z</time>
      </trkpt>
      <trkpt lat="61.052845" lon="14.35445">
        <ele>213.727</ele>
        <time>1970-01-01T01:00:00Z</time>
      </trkpt>
      <trkpt lat="61.052711" lon="14.354342">
        <ele>214</ele>
        <time>1970-01-01T01:00:00Z</time>
      </trkpt>
      <trkpt lat="61.052593" lon="14.354142">
        <ele>214</ele>
        <time>1970-01-01T01:00:00Z</time>
      </trkpt>
      <trkpt lat="61.05257" lon="14.354084">
        <ele>214</ele>
        <time>1970-01-01T01:00:00Z</time>
      </trkpt>
      <trkpt lat="61.052455" lon="14.353889">
        <ele>214</ele>
        <time>1970-01-01T01:00:00Z</time>
      </trkpt>
      <trkpt lat="61.05228" lon="14.353744">
        <ele>213.909</ele>
        <time>1970-01-01T01:00:00Z</time>
      </trkpt>
      <trkpt lat="61.052196" lon="14.353686">
        <ele>213.727</ele>
        <time>1970-01-01T01:00:00Z</time>
      </trkpt>
      <trkpt lat="61.051986" lon="14.353877">
        <ele>213.545</ele>
        <time>1970-01-01T01:00:00Z</time>
      </trkpt>
      <trkpt lat="61.051864" lon="14.354083">
        <ele>213.364</ele>
        <time>1970-01-01T01:00:00Z</time>
      </trkpt>
      <trkpt lat="61.051769" lon="14.354272">
        <ele>213.182</ele>
        <time>1970-01-01T01:00:00Z</time>
      </trkpt>
      <trkpt lat="61.051525" lon="14.35474">
        <ele>213</ele>
        <time>1970-01-01T01:00:00Z</time>
      </trkpt>
      <trkpt lat="61.051387" lon="14.354979">
        <ele>212.636</ele>
        <time>1970-01-01T01:00:00Z</time>
      </trkpt>
      <trkpt lat="61.051204" lon="14.355278">
        <ele>212.182</ele>
        <time>1970-01-01T01:00:00Z</time>
      </trkpt>
      <trkpt lat="61.051174" lon="14.355327">
        <ele>212</ele>
        <time>1970-01-01T01:00:00Z</time>
      </trkpt>
      <trkpt lat="61.05101" lon="14.355409">
        <ele>211.818</ele>
        <time>1970-01-01T01:00:00Z</time>
      </trkpt>
      <trkpt lat="61.050914" lon="14.355428">
        <ele>211.636</ele>
        <time>1970-01-01T01:00:00Z</time>
      </trkpt>
      <trkpt lat="61.050823" lon="14.355478">
        <ele>211.545</ele>
        <time>1970-01-01T01:00:00Z</time>
      </trkpt>
      <trkpt lat="61.050674" lon="14.355529">
        <ele>211.545</ele>
        <time>1970-01-01T01:00:00Z</time>
      </trkpt>
      <trkpt lat="61.050647" lon="14.355522">
        <ele>211.545</ele>
        <time>1970-01-01T01:00:00Z</time>
      </trkpt>
      <trkpt lat="61.050613" lon="14.355524">
        <ele>211.545</ele>
        <time>1970-01-01T01:00:00Z</time>
      </trkpt>
      <trkpt lat="61.05051" lon="14.355565">
        <ele>211.545</ele>
        <time>1970-01-01T01:00:00Z</time>
      </trkpt>
      <trkpt lat="61.050453" lon="14.355558">
        <ele>211.545</ele>
        <time>1970-01-01T01:00:00Z</time>
      </trkpt>
      <trkpt lat="61.050327" lon="14.355607">
        <ele>211.545</ele>
        <time>1970-01-01T01:00:00Z</time>
      </trkpt>
      <trkpt lat="61.050243" lon="14.355609">
        <ele>211.636</ele>
        <time>1970-01-01T01:00:00Z</time>
      </trkpt>
      <trkpt lat="61.050205" lon="14.355621">
        <ele>211.818</ele>
        <time>1970-01-01T01:00:00Z</time>
      </trkpt>
      <trkpt lat="61.050041" lon="14.355688">
        <ele>212</ele>
        <time>1970-01-01T01:00:00Z</time>
      </trkpt>
      <trkpt lat="61.049953" lon="14.355702">
        <ele>212.364</ele>
        <time>1970-01-01T01:00:00Z</time>
      </trkpt>
      <trkpt lat="61.049861" lon="14.355657">
        <ele>212.727</ele>
        <time>1970-01-01T01:00:00Z</time>
      </trkpt>
      <trkpt lat="61.049816" lon="14.355591">
        <ele>213</ele>
        <time>1970-01-01T01:00:00Z</time>
      </trkpt>
      <trkpt lat="61.049747" lon="14.35548">
        <ele>213.273</ele>
        <time>1970-01-01T01:00:00Z</time>
      </trkpt>
      <trkpt lat="61.049644" lon="14.35536">
        <ele>213.455</ele>
        <time>1970-01-01T01:00:00Z</time>
      </trkpt>
      <trkpt lat="61.04961" lon="14.355352">
        <ele>213.636</ele>
        <time>1970-01-01T01:00:00Z</time>
      </trkpt>
      <trkpt lat="61.049495" lon="14.355424">
        <ele>213.818</ele>
        <time>1970-01-01T01:00:00Z</time>
      </trkpt>
      <trkpt lat="61.049472" lon="14.355378">
        <ele>213.909</ele>
        <time>1970-01-01T01:00:00Z</time>
      </trkpt>
      <trkpt lat="61.049449" lon="14.355447">
        <ele>214</ele>
        <time>1970-01-01T01:00:00Z</time>
      </trkpt>
      <trkpt lat="61.049407" lon="14.355695">
        <ele>214</ele>
        <time>1970-01-01T01:00:00Z</time>
      </trkpt>
      <trkpt lat="61.049339" lon="14.355948">
        <ele>214</ele>
        <time>1970-01-01T01:00:00Z</time>
      </trkpt>
      <trkpt lat="61.049221" lon="14.356228">
        <ele>213.818</ele>
        <time>1970-01-01T01:00:00Z</time>
      </trkpt>
      <trkpt lat="61.049106" lon="14.356518">
        <ele>213.818</ele>
        <time>1970-01-01T01:00:00Z</time>
      </trkpt>
      <trkpt lat="61.049018" lon="14.356783">
        <ele>213.818</ele>
        <time>1970-01-01T01:00:00Z</time>
      </trkpt>
      <trkpt lat="61.048992" lon="14.356848">
        <ele>213.818</ele>
        <time>1970-01-01T01:00:00Z</time>
      </trkpt>
      <trkpt lat="61.0489" lon="14.357069">
        <ele>213.909</ele>
        <time>1970-01-01T01:00:00Z</time>
      </trkpt>
      <trkpt lat="61.048816" lon="14.357208">
        <ele>214</ele>
        <time>1970-01-01T01:00:00Z</time>
      </trkpt>
      <trkpt lat="61.048706" lon="14.357313">
        <ele>214.091</ele>
        <time>1970-01-01T01:00:00Z</time>
      </trkpt>
      <trkpt lat="61.048629" lon="14.357427">
        <ele>214.273</ele>
        <time>1970-01-01T01:00:00Z</time>
      </trkpt>
      <trkpt lat="61.048519" lon="14.357558">
        <ele>214.455</ele>
        <time>1970-01-01T01:00:00Z</time>
      </trkpt>
      <trkpt lat="61.048439" lon="14.357869">
        <ele>214.545</ele>
        <time>1970-01-01T01:00:00Z</time>
      </trkpt>
      <trkpt lat="61.048408" lon="14.358147">
        <ele>214.636</ele>
        <time>1970-01-01T01:00:00Z</time>
      </trkpt>
      <trkpt lat="61.048412" lon="14.358201">
        <ele>214.727</ele>
        <time>1970-01-01T01:00:00Z</time>
      </trkpt>
      <trkpt lat="61.048374" lon="14.358518">
        <ele>214.636</ele>
        <time>1970-01-01T01:00:00Z</time>
      </trkpt>
      <trkpt lat="61.048355" lon="14.358655">
        <ele>214.455</ele>
        <time>1970-01-01T01:00:00Z</time>
      </trkpt>
      <trkpt lat="61.04832" lon="14.358973">
        <ele>214.273</ele>
        <time>1970-01-01T01:00:00Z</time>
      </trkpt>
      <trkpt lat="61.048301" lon="14.359152">
        <ele>214.091</ele>
        <time>1970-01-01T01:00:00Z</time>
      </trkpt>
      <trkpt lat="61.048271" lon="14.359343">
        <ele>213.909</ele>
        <time>1970-01-01T01:00:00Z</time>
      </trkpt>
      <trkpt lat="61.048255" lon="14.359519">
        <ele>213.727</ele>
        <time>1970-01-01T01:00:00Z</time>
      </trkpt>
      <trkpt lat="61.04824" lon="14.359624">
        <ele>213.545</ele>
        <time>1970-01-01T01:00:00Z</time>
      </trkpt>
      <trkpt lat="61.048225" lon="14.359817">
        <ele>213.273</ele>
        <time>1970-01-01T01:00:00Z</time>
      </trkpt>
      <trkpt lat="61.048217" lon="14.359891">
        <ele>213.091</ele>
        <time>1970-01-01T01:00:00Z</time>
      </trkpt>
      <trkpt lat="61.048198" lon="14.360171">
        <ele>212.909</ele>
        <time>1970-01-01T01:00:00Z</time>
      </trkpt>
      <trkpt lat="61.048191" lon="14.360211">
        <ele>212.727</ele>
        <time>1970-01-01T01:00:00Z</time>
      </trkpt>
      <trkpt lat="61.048149" lon="14.36039">
        <ele>212.545</ele>
        <time>1970-01-01T01:00:00Z</time>
      </trkpt>
      <trkpt lat="61.048103" lon="14.360629">
        <ele>212.364</ele>
        <time>1970-01-01T01:00:00Z</time>
      </trkpt>
      <trkpt lat="61.048076" lon="14.360817">
        <ele>212.182</ele>
        <time>1970-01-01T01:00:00Z</time>
      </trkpt>
      <trkpt lat="61.048042" lon="14.360961">
        <ele>212</ele>
        <time>1970-01-01T01:00:00Z</time>
      </trkpt>
      <trkpt lat="61.048038" lon="14.361005">
        <ele>211.818</ele>
        <time>1970-01-01T01:00:00Z</time>
      </trkpt>
      <trkpt lat="61.048019" lon="14.361215">
        <ele>211.636</ele>
        <time>1970-01-01T01:00:00Z</time>
      </trkpt>
      <trkpt lat="61.047973" lon="14.361361">
        <ele>211.455</ele>
        <time>1970-01-01T01:00:00Z</time>
      </trkpt>
      <trkpt lat="61.047927" lon="14.361529">
        <ele>211.364</ele>
        <time>1970-01-01T01:00:00Z</time>
      </trkpt>
      <trkpt lat="61.047836" lon="14.361732">
        <ele>211.182</ele>
        <time>1970-01-01T01:00:00Z</time>
      </trkpt>
      <trkpt lat="61.047794" lon="14.36183">
        <ele>211</ele>
        <time>1970-01-01T01:00:00Z</time>
      </trkpt>
      <trkpt lat="61.047744" lon="14.361951">
        <ele>210.818</ele>
        <time>1970-01-01T01:00:00Z</time>
      </trkpt>
      <trkpt lat="61.047683" lon="14.36207">
        <ele>210.636</ele>
        <time>1970-01-01T01:00:00Z</time>
      </trkpt>
      <trkpt lat="61.047668" lon="14.362094">
        <ele>210.545</ele>
        <time>1970-01-01T01:00:00Z</time>
      </trkpt>
      <trkpt lat="61.047569" lon="14.362307">
        <ele>210.455</ele>
        <time>1970-01-01T01:00:00Z</time>
      </trkpt>
      <trkpt lat="61.047527" lon="14.362404">
        <ele>210.273</ele>
        <time>1970-01-01T01:00:00Z</time>
      </trkpt>
      <trkpt lat="61.047473" lon="14.362538">
        <ele>210.091</ele>
        <time>1970-01-01T01:00:00Z</time>
      </trkpt>
      <trkpt lat="61.047458" lon="14.362575">
        <ele>209.909</ele>
        <time>1970-01-01T01:00:00Z</time>
      </trkpt>
      <trkpt lat="61.047401" lon="14.362676">
        <ele>209.727</ele>
        <time>1970-01-01T01:00:00Z</time>
      </trkpt>
      <trkpt lat="61.047317" lon="14.362852">
        <ele>209.545</ele>
        <time>1970-01-01T01:00:00Z</time>
      </trkpt>
      <trkpt lat="61.047256" lon="14.363034">
        <ele>209.364</ele>
        <time>1970-01-01T01:00:00Z</time>
      </trkpt>
      <trkpt lat="61.047218" lon="14.363188">
        <ele>209.091</ele>
        <time>1970-01-01T01:00:00Z</time>
      </trkpt>
      <trkpt lat="61.047161" lon="14.363359">
        <ele>208.818</ele>
        <time>1970-01-01T01:00:00Z</time>
      </trkpt>
      <trkpt lat="61.04713" lon="14.363468">
        <ele>208.545</ele>
        <time>1970-01-01T01:00:00Z</time>
      </trkpt>
      <trkpt lat="61.047115" lon="14.363526">
        <ele>208.182</ele>
        <time>1970-01-01T01:00:00Z</time>
      </trkpt>
      <trkpt lat="61.047069" lon="14.363716">
        <ele>207.818</ele>
        <time>1970-01-01T01:00:00Z</time>
      </trkpt>
      <trkpt lat="61.047016" lon="14.36391">
        <ele>207.545</ele>
        <time>1970-01-01T01:00:00Z</time>
      </trkpt>
      <trkpt lat="61.046955" lon="14.364177">
        <ele>207.273</ele>
        <time>1970-01-01T01:00:00Z</time>
      </trkpt>
      <trkpt lat="61.046844" lon="14.364496">
        <ele>206.909</ele>
        <time>1970-01-01T01:00:00Z</time>
      </trkpt>
      <trkpt lat="61.046733" lon="14.364809">
        <ele>206.545</ele>
        <time>1970-01-01T01:00:00Z</time>
      </trkpt>
      <trkpt lat="61.046691" lon="14.364987">
        <ele>206.182</ele>
        <time>1970-01-01T01:00:00Z</time>
      </trkpt>
      <trkpt lat="61.046623" lon="14.365184">
        <ele>205.818</ele>
        <time>1970-01-01T01:00:00Z</time>
      </trkpt>
      <trkpt lat="61.046562" lon="14.36538">
        <ele>205.636</ele>
        <time>1970-01-01T01:00:00Z</time>
      </trkpt>
      <trkpt lat="61.046504" lon="14.36557">
        <ele>205.455</ele>
        <time>1970-01-01T01:00:00Z</time>
      </trkpt>
      <trkpt lat="61.046424" lon="14.36578">
        <ele>205.273</ele>
        <time>1970-01-01T01:00:00Z</time>
      </trkpt>
      <trkpt lat="61.04634" lon="14.366081">
        <ele>205.182</ele>
        <time>1970-01-01T01:00:00Z</time>
      </trkpt>
      <trkpt lat="61.046287" lon="14.366356">
        <ele>205.091</ele>
        <time>1970-01-01T01:00:00Z</time>
      </trkpt>
      <trkpt lat="61.046222" lon="14.3666">
        <ele>204.909</ele>
        <time>1970-01-01T01:00:00Z</time>
      </trkpt>
      <trkpt lat="61.046138" lon="14.366903">
        <ele>204.727</ele>
        <time>1970-01-01T01:00:00Z</time>
      </trkpt>
      <trkpt lat="61.046119" lon="14.366963">
        <ele>204.636</ele>
        <time>1970-01-01T01:00:00Z</time>
      </trkpt>
      <trkpt lat="61.046077" lon="14.367074">
        <ele>204.545</ele>
        <time>1970-01-01T01:00:00Z</time>
      </trkpt>
      <trkpt lat="61.046051" lon="14.367121">
        <ele>204.455</ele>
        <time>1970-01-01T01:00:00Z</time>
      </trkpt>
      <trkpt lat="61.045932" lon="14.367246">
        <ele>204.455</ele>
        <time>1970-01-01T01:00:00Z</time>
      </trkpt>
      <trkpt lat="61.045852" lon="14.367401">
        <ele>204.364</ele>
        <time>1970-01-01T01:00:00Z</time>
      </trkpt>
      <trkpt lat="61.045795" lon="14.367464">
        <ele>204.364</ele>
        <time>1970-01-01T01:00:00Z</time>
      </trkpt>
      <trkpt lat="61.045722" lon="14.367542">
        <ele>204.364</ele>
        <time>1970-01-01T01:00:00Z</time>
      </trkpt>
      <trkpt lat="61.0457" lon="14.367579">
        <ele>204.364</ele>
        <time>1970-01-01T01:00:00Z</time>
      </trkpt>
      <trkpt lat="61.04565" lon="14.367691">
        <ele>204.364</ele>
        <time>1970-01-01T01:00:00Z</time>
      </trkpt>
      <trkpt lat="61.045543" lon="14.367888">
        <ele>204.455</ele>
        <time>1970-01-01T01:00:00Z</time>
      </trkpt>
      <trkpt lat="61.045433" lon="14.368107">
        <ele>204.545</ele>
        <time>1970-01-01T01:00:00Z</time>
      </trkpt>
      <trkpt lat="61.045383" lon="14.368205">
        <ele>204.636</ele>
        <time>1970-01-01T01:00:00Z</time>
      </trkpt>
      <trkpt lat="61.045288" lon="14.368357">
        <ele>204.727</ele>
        <time>1970-01-01T01:00:00Z</time>
      </trkpt>
      <trkpt lat="61.045265" lon="14.368385">
        <ele>204.818</ele>
        <time>1970-01-01T01:00:00Z</time>
      </trkpt>
      <trkpt lat="61.045162" lon="14.368554">
        <ele>204.909</ele>
        <time>1970-01-01T01:00:00Z</time>
      </trkpt>
      <trkpt lat="61.045139" lon="14.3686">
        <ele>205</ele>
        <time>1970-01-01T01:00:00Z</time>
      </trkpt>
      <trkpt lat="61.045017" lon="14.368768">
        <ele>205</ele>
        <time>1970-01-01T01:00:00Z</time>
      </trkpt>
      <trkpt lat="61.044967" lon="14.368899">
        <ele>205</ele>
        <time>1970-01-01T01:00:00Z</time>
      </trkpt>
      <trkpt lat="61.044948" lon="14.368943">
        <ele>205.091</ele>
        <time>1970-01-01T01:00:00Z</time>
      </trkpt>
      <trkpt lat="61.044891" lon="14.369061">
        <ele>205.182</ele>
        <time>1970-01-01T01:00:00Z</time>
      </trkpt>
      <trkpt lat="61.044879" lon="14.369098">
        <ele>205.273</ele>
        <time>1970-01-01T01:00:00Z</time>
      </trkpt>
      <trkpt lat="61.044803" lon="14.369298">
        <ele>205.364</ele>
        <time>1970-01-01T01:00:00Z</time>
      </trkpt>
      <trkpt lat="61.044704" lon="14.369463">
        <ele>205.455</ele>
        <time>1970-01-01T01:00:00Z</time>
      </trkpt>
      <trkpt lat="61.044612" lon="14.369651">
        <ele>205.545</ele>
        <time>1970-01-01T01:00:00Z</time>
      </trkpt>
      <trkpt lat="61.04449" lon="14.369912">
        <ele>205.636</ele>
        <time>1970-01-01T01:00:00Z</time>
      </trkpt>
      <trkpt lat="61.044364" lon="14.370162">
        <ele>205.818</ele>
        <time>1970-01-01T01:00:00Z</time>
      </trkpt>
      <trkpt lat="61.044288" lon="14.370312">
        <ele>206</ele>
        <time>1970-01-01T01:00:00Z</time>
      </trkpt>
      <trkpt lat="61.044197" lon="14.370489">
        <ele>206.182</ele>
        <time>1970-01-01T01:00:00Z</time>
      </trkpt>
      <trkpt lat="61.044147" lon="14.370586">
        <ele>206.364</ele>
        <time>1970-01-01T01:00:00Z</time>
      </trkpt>
      <trkpt lat="61.043849" lon="14.371202">
        <ele>206.455</ele>
        <time>1970-01-01T01:00:00Z</time>
      </trkpt>
      <trkpt lat="61.043788" lon="14.371367">
        <ele>206.545</ele>
        <time>1970-01-01T01:00:00Z</time>
      </trkpt>
      <trkpt lat="61.043693" lon="14.371595">
        <ele>206.545</ele>
        <time>1970-01-01T01:00:00Z</time>
      </trkpt>
      <trkpt lat="61.043659" lon="14.371796">
        <ele>206.545</ele>
        <time>1970-01-01T01:00:00Z</time>
      </trkpt>
      <trkpt lat="61.043647" lon="14.371882">
        <ele>206.545</ele>
        <time>1970-01-01T01:00:00Z</time>
      </trkpt>
      <trkpt lat="61.04364" lon="14.371932">
        <ele>206.545</ele>
        <time>1970-01-01T01:00:00Z</time>
      </trkpt>
      <trkpt lat="61.043628" lon="14.372032">
        <ele>206.545</ele>
        <time>1970-01-01T01:00:00Z</time>
      </trkpt>
      <trkpt lat="61.04359" lon="14.372313">
        <ele>206.455</ele>
        <time>1970-01-01T01:00:00Z</time>
      </trkpt>
      <trkpt lat="61.043506" lon="14.372599">
        <ele>206.364</ele>
        <time>1970-01-01T01:00:00Z</time>
      </trkpt>
      <trkpt lat="61.043434" lon="14.372862">
        <ele>206.273</ele>
        <time>1970-01-01T01:00:00Z</time>
      </trkpt>
      <trkpt lat="61.043369" lon="14.373105">
        <ele>206.273</ele>
        <time>1970-01-01T01:00:00Z</time>
      </trkpt>
      <trkpt lat="61.043292" lon="14.373306">
        <ele>206.273</ele>
        <time>1970-01-01T01:00:00Z</time>
      </trkpt>
      <trkpt lat="61.043201" lon="14.373465">
        <ele>206.273</ele>
        <time>1970-01-01T01:00:00Z</time>
      </trkpt>
      <trkpt lat="61.043094" lon="14.373623">
        <ele>206.364</ele>
        <time>1970-01-01T01:00:00Z</time>
      </trkpt>
      <trkpt lat="61.043018" lon="14.37374">
        <ele>206.455</ele>
        <time>1970-01-01T01:00:00Z</time>
      </trkpt>
      <trkpt lat="61.042926" lon="14.373883">
        <ele>206.545</ele>
        <time>1970-01-01T01:00:00Z</time>
      </trkpt>
      <trkpt lat="61.042846" lon="14.373984">
        <ele>206.636</ele>
        <time>1970-01-01T01:00:00Z</time>
      </trkpt>
      <trkpt lat="61.042789" lon="14.374079">
        <ele>206.727</ele>
        <time>1970-01-01T01:00:00Z</time>
      </trkpt>
      <trkpt lat="61.042678" lon="14.374205">
        <ele>206.818</ele>
        <time>1970-01-01T01:00:00Z</time>
      </trkpt>
      <trkpt lat="61.042655" lon="14.374222">
        <ele>206.909</ele>
        <time>1970-01-01T01:00:00Z</time>
      </trkpt>
      <trkpt lat="61.042602" lon="14.374285">
        <ele>207</ele>
        <time>1970-01-01T01:00:00Z</time>
      </trkpt>
      <trkpt lat="61.042503" lon="14.374375">
        <ele>207</ele>
        <time>1970-01-01T01:00:00Z</time>
      </trkpt>
      <trkpt lat="61.042488" lon="14.374393">
        <ele>207</ele>
        <time>1970-01-01T01:00:00Z</time>
      </trkpt>
      <trkpt lat="61.042392" lon="14.374503">
        <ele>207.091</ele>
        <time>1970-01-01T01:00:00Z</time>
      </trkpt>
      <trkpt lat="61.042331" lon="14.374596">
        <ele>207.182</ele>
        <time>1970-01-01T01:00:00Z</time>
      </trkpt>
      <trkpt lat="61.042251" lon="14.374731">
        <ele>207.273</ele>
        <time>1970-01-01T01:00:00Z</time>
      </trkpt>
      <trkpt lat="61.04216" lon="14.374877">
        <ele>207.364</ele>
        <time>1970-01-01T01:00:00Z</time>
      </trkpt>
      <trkpt lat="61.042114" lon="14.374954">
        <ele>207.455</ele>
        <time>1970-01-01T01:00:00Z</time>
      </trkpt>
      <trkpt lat="61.042091" lon="14.374997">
        <ele>207.545</ele>
        <time>1970-01-01T01:00:00Z</time>
      </trkpt>
      <trkpt lat="61.041992" lon="14.375142">
        <ele>207.636</ele>
        <time>1970-01-01T01:00:00Z</time>
      </trkpt>
      <trkpt lat="61.041908" lon="14.375296">
        <ele>207.727</ele>
        <time>1970-01-01T01:00:00Z</time>
      </trkpt>
      <trkpt lat="61.041774" lon="14.37545">
        <ele>207.818</ele>
        <time>1970-01-01T01:00:00Z</time>
      </trkpt>
      <trkpt lat="61.041694" lon="14.375608">
        <ele>207.909</ele>
        <time>1970-01-01T01:00:00Z</time>
      </trkpt>
      <trkpt lat="61.041549" lon="14.375744">
        <ele>208.091</ele>
        <time>1970-01-01T01:00:00Z</time>
      </trkpt>
      <trkpt lat="61.041515" lon="14.375771">
        <ele>208.182</ele>
        <time>1970-01-01T01:00:00Z</time>
      </trkpt>
      <trkpt lat="61.041439" lon="14.375865">
        <ele>208.273</ele>
        <time>1970-01-01T01:00:00Z</time>
      </trkpt>
      <trkpt lat="61.041408" lon="14.375884">
        <ele>208.364</ele>
        <time>1970-01-01T01:00:00Z</time>
      </trkpt>
      <trkpt lat="61.04129" lon="14.375948">
        <ele>208.455</ele>
        <time>1970-01-01T01:00:00Z</time>
      </trkpt>
      <trkpt lat="61.041168" lon="14.375939">
        <ele>208.545</ele>
        <time>1970-01-01T01:00:00Z</time>
      </trkpt>
      <trkpt lat="61.041107" lon="14.375861">
        <ele>208.636</ele>
        <time>1970-01-01T01:00:00Z</time>
      </trkpt>
      <trkpt lat="61.040958" lon="14.375806">
        <ele>208.727</ele>
        <time>1970-01-01T01:00:00Z</time>
      </trkpt>
      <trkpt lat="61.04084" lon="14.375698">
        <ele>209</ele>
        <time>1970-01-01T01:00:00Z</time>
      </trkpt>
      <trkpt lat="61.040779" lon="14.375675">
        <ele>209.273</ele>
        <time>1970-01-01T01:00:00Z</time>
      </trkpt>
      <trkpt lat="61.040721" lon="14.375658">
        <ele>209.545</ele>
        <time>1970-01-01T01:00:00Z</time>
      </trkpt>
      <trkpt lat="61.040573" lon="14.375645">
        <ele>209.727</ele>
        <time>1970-01-01T01:00:00Z</time>
      </trkpt>
      <trkpt lat="61.040496" lon="14.375647">
        <ele>209.909</ele>
        <time>1970-01-01T01:00:00Z</time>
      </trkpt>
      <trkpt lat="61.040435" lon="14.375633">
        <ele>210.091</ele>
        <time>1970-01-01T01:00:00Z</time>
      </trkpt>
      <trkpt lat="61.04029" lon="14.375623">
        <ele>210.273</ele>
        <time>1970-01-01T01:00:00Z</time>
      </trkpt>
      <trkpt lat="61.040229" lon="14.37561">
        <ele>210.455</ele>
        <time>1970-01-01T01:00:00Z</time>
      </trkpt>
      <trkpt lat="61.040126" lon="14.375559">
        <ele>210.636</ele>
        <time>1970-01-01T01:00:00Z</time>
      </trkpt>
      <trkpt lat="61.040031" lon="14.375473">
        <ele>210.909</ele>
        <time>1970-01-01T01:00:00Z</time>
      </trkpt>
      <trkpt lat="61.039905" lon="14.375415">
        <ele>211.182</ele>
        <time>1970-01-01T01:00:00Z</time>
      </trkpt>
      <trkpt lat="61.039825" lon="14.375338">
        <ele>211.273</ele>
        <time>1970-01-01T01:00:00Z</time>
      </trkpt>
      <trkpt lat="61.039752" lon="14.375302">
        <ele>211.364</ele>
        <time>1970-01-01T01:00:00Z</time>
      </trkpt>
      <trkpt lat="61.039646" lon="14.375237">
        <ele>211.455</ele>
        <time>1970-01-01T01:00:00Z</time>
      </trkpt>
      <trkpt lat="61.039588" lon="14.375201">
        <ele>211.545</ele>
        <time>1970-01-01T01:00:00Z</time>
      </trkpt>
      <trkpt lat="61.039566" lon="14.375187">
        <ele>211.636</ele>
        <time>1970-01-01T01:00:00Z</time>
      </trkpt>
      <trkpt lat="61.039505" lon="14.375153">
        <ele>211.727</ele>
        <time>1970-01-01T01:00:00Z</time>
      </trkpt>
      <trkpt lat="61.039382" lon="14.375111">
        <ele>211.818</ele>
        <time>1970-01-01T01:00:00Z</time>
      </trkpt>
      <trkpt lat="61.039257" lon="14.375101">
        <ele>212.091</ele>
        <time>1970-01-01T01:00:00Z</time>
      </trkpt>
      <trkpt lat="61.039123" lon="14.375078">
        <ele>212.364</ele>
        <time>1970-01-01T01:00:00Z</time>
      </trkpt>
      <trkpt lat="61.039001" lon="14.375044">
        <ele>212.545</ele>
        <time>1970-01-01T01:00:00Z</time>
      </trkpt>
      <trkpt lat="61.038894" lon="14.374986">
        <ele>212.727</ele>
        <time>1970-01-01T01:00:00Z</time>
      </trkpt>
      <trkpt lat="61.038814" lon="14.374901">
        <ele>212.909</ele>
        <time>1970-01-01T01:00:00Z</time>
      </trkpt>
      <trkpt lat="61.038734" lon="14.374814">
        <ele>213.091</ele>
        <time>1970-01-01T01:00:00Z</time>
      </trkpt>
      <trkpt lat="61.038608" lon="14.374721">
        <ele>213.273</ele>
        <time>1970-01-01T01:00:00Z</time>
      </trkpt>
      <trkpt lat="61.038532" lon="14.374658">
        <ele>213.455</ele>
        <time>1970-01-01T01:00:00Z</time>
      </trkpt>
      <trkpt lat="61.03849" lon="14.374629">
        <ele>213.636</ele>
        <time>1970-01-01T01:00:00Z</time>
      </trkpt>
      <trkpt lat="61.038372" lon="14.374684">
        <ele>213.727</ele>
        <time>1970-01-01T01:00:00Z</time>
      </trkpt>
      <trkpt lat="61.038318" lon="14.374761">
        <ele>213.818</ele>
        <time>1970-01-01T01:00:00Z</time>
      </trkpt>
      <trkpt lat="61.038234" lon="14.374963">
        <ele>213.909</ele>
        <time>1970-01-01T01:00:00Z</time>
      </trkpt>
      <trkpt lat="61.038146" lon="14.375203">
        <ele>214</ele>
        <time>1970-01-01T01:00:00Z</time>
      </trkpt>
      <trkpt lat="61.038059" lon="14.375434">
        <ele>214.091</ele>
        <time>1970-01-01T01:00:00Z</time>
      </trkpt>
      <trkpt lat="61.037975" lon="14.375539">
        <ele>214.182</ele>
        <time>1970-01-01T01:00:00Z</time>
      </trkpt>
      <trkpt lat="61.037918" lon="14.375619">
        <ele>214.273</ele>
        <time>1970-01-01T01:00:00Z</time>
      </trkpt>
      <trkpt lat="61.037822" lon="14.375776">
        <ele>214.273</ele>
        <time>1970-01-01T01:00:00Z</time>
      </trkpt>
      <trkpt lat="61.037727" lon="14.375931">
        <ele>214.273</ele>
        <time>1970-01-01T01:00:00Z</time>
      </trkpt>
      <trkpt lat="61.037624" lon="14.376074">
        <ele>214.273</ele>
        <time>1970-01-01T01:00:00Z</time>
      </trkpt>
      <trkpt lat="61.037509" lon="14.376173">
        <ele>214.273</ele>
        <time>1970-01-01T01:00:00Z</time>
      </trkpt>
      <trkpt lat="61.037403" lon="14.376292">
        <ele>214.545</ele>
        <time>1970-01-01T01:00:00Z</time>
      </trkpt>
      <trkpt lat="61.037315" lon="14.376416">
        <ele>214.818</ele>
        <time>1970-01-01T01:00:00Z</time>
      </trkpt>
      <trkpt lat="61.037231" lon="14.376516">
        <ele>214.909</ele>
        <time>1970-01-01T01:00:00Z</time>
      </trkpt>
      <trkpt lat="61.037181" lon="14.376618">
        <ele>215</ele>
        <time>1970-01-01T01:00:00Z</time>
      </trkpt>
      <trkpt lat="61.037139" lon="14.376735">
        <ele>215.091</ele>
        <time>1970-01-01T01:00:00Z</time>
      </trkpt>
      <trkpt lat="61.037044" lon="14.376921">
        <ele>215.182</ele>
        <time>1970-01-01T01:00:00Z</time>
      </trkpt>
      <trkpt lat="61.036979" lon="14.377034">
        <ele>215.273</ele>
        <time>1970-01-01T01:00:00Z</time>
      </trkpt>
      <trkpt lat="61.036937" lon="14.377065">
        <ele>215.455</ele>
        <time>1970-01-01T01:00:00Z</time>
      </trkpt>
      <trkpt lat="61.036865" lon="14.377182">
        <ele>215.636</ele>
        <time>1970-01-01T01:00:00Z</time>
      </trkpt>
      <trkpt lat="61.036819" lon="14.37727">
        <ele>215.818</ele>
        <time>1970-01-01T01:00:00Z</time>
      </trkpt>
      <trkpt lat="61.036674" lon="14.377468">
        <ele>216</ele>
        <time>1970-01-01T01:00:00Z</time>
      </trkpt>
      <trkpt lat="61.036651" lon="14.377517">
        <ele>216.091</ele>
        <time>1970-01-01T01:00:00Z</time>
      </trkpt>
      <trkpt lat="61.03659" lon="14.377633">
        <ele>216.182</ele>
        <time>1970-01-01T01:00:00Z</time>
      </trkpt>
      <trkpt lat="61.036487" lon="14.377825">
        <ele>216.273</ele>
        <time>1970-01-01T01:00:00Z</time>
      </trkpt>
      <trkpt lat="61.036384" lon="14.378026">
        <ele>216.364</ele>
        <time>1970-01-01T01:00:00Z</time>
      </trkpt>
      <trkpt lat="61.036289" lon="14.378256">
        <ele>216.455</ele>
        <time>1970-01-01T01:00:00Z</time>
      </trkpt>
      <trkpt lat="61.036239" lon="14.378368">
        <ele>216.545</ele>
        <time>1970-01-01T01:00:00Z</time>
      </trkpt>
      <trkpt lat="61.036125" lon="14.378617">
        <ele>216.636</ele>
        <time>1970-01-01T01:00:00Z</time>
      </trkpt>
      <trkpt lat="61.036003" lon="14.378879">
        <ele>216.727</ele>
        <time>1970-01-01T01:00:00Z</time>
      </trkpt>
      <trkpt lat="61.035934" lon="14.379012">
        <ele>216.909</ele>
        <time>1970-01-01T01:00:00Z</time>
      </trkpt>
      <trkpt lat="61.035873" lon="14.379127">
        <ele>217.091</ele>
        <time>1970-01-01T01:00:00Z</time>
      </trkpt>
      <trkpt lat="61.035846" lon="14.37919">
        <ele>217.273</ele>
        <time>1970-01-01T01:00:00Z</time>
      </trkpt>
      <trkpt lat="61.035766" lon="14.379374">
        <ele>217.364</ele>
        <time>1970-01-01T01:00:00Z</time>
      </trkpt>
      <trkpt lat="61.035728" lon="14.379511">
        <ele>217.455</ele>
        <time>1970-01-01T01:00:00Z</time>
      </trkpt>
      <trkpt lat="61.035701" lon="14.379629">
        <ele>217.545</ele>
        <time>1970-01-01T01:00:00Z</time>
      </trkpt>
      <trkpt lat="61.035667" lon="14.379734">
        <ele>217.727</ele>
        <time>1970-01-01T01:00:00Z</time>
      </trkpt>
      <trkpt lat="61.035652" lon="14.379787">
        <ele>217.909</ele>
        <time>1970-01-01T01:00:00Z</time>
      </trkpt>
      <trkpt lat="61.035625" lon="14.379876">
        <ele>218.091</ele>
        <time>1970-01-01T01:00:00Z</time>
      </trkpt>
      <trkpt lat="61.035507" lon="14.38014">
        <ele>218.273</ele>
        <time>1970-01-01T01:00:00Z</time>
      </trkpt>
      <trkpt lat="61.035495" lon="14.380167">
        <ele>218.455</ele>
        <time>1970-01-01T01:00:00Z</time>
      </trkpt>
      <trkpt lat="61.03543" lon="14.38029">
        <ele>218.545</ele>
        <time>1970-01-01T01:00:00Z</time>
      </trkpt>
      <trkpt lat="61.035331" lon="14.380488">
        <ele>218.636</ele>
        <time>1970-01-01T01:00:00Z</time>
      </trkpt>
      <trkpt lat="61.035293" lon="14.38061">
        <ele>218.727</ele>
        <time>1970-01-01T01:00:00Z</time>
      </trkpt>
      <trkpt lat="61.035247" lon="14.380774">
        <ele>218.909</ele>
        <time>1970-01-01T01:00:00Z</time>
      </trkpt>
      <trkpt lat="61.035232" lon="14.380825">
        <ele>219.091</ele>
        <time>1970-01-01T01:00:00Z</time>
      </trkpt>
      <trkpt lat="61.035148" lon="14.381006">
        <ele>219.273</ele>
        <time>1970-01-01T01:00:00Z</time>
      </trkpt>
      <trkpt lat="61.035129" lon="14.38105">
        <ele>219.364</ele>
        <time>1970-01-01T01:00:00Z</time>
      </trkpt>
      <trkpt lat="61.035011" lon="14.381301">
        <ele>219.455</ele>
        <time>1970-01-01T01:00:00Z</time>
      </trkpt>
      <trkpt lat="61.034885" lon="14.381514">
        <ele>219.545</ele>
        <time>1970-01-01T01:00:00Z</time>
      </trkpt>
      <trkpt lat="61.034797" lon="14.38172">
        <ele>219.636</ele>
        <time>1970-01-01T01:00:00Z</time>
      </trkpt>
      <trkpt lat="61.034702" lon="14.382002">
        <ele>219.727</ele>
        <time>1970-01-01T01:00:00Z</time>
      </trkpt>
      <trkpt lat="61.034645" lon="14.382126">
        <ele>219.818</ele>
        <time>1970-01-01T01:00:00Z</time>
      </trkpt>
      <trkpt lat="61.034595" lon="14.382298">
        <ele>219.909</ele>
        <time>1970-01-01T01:00:00Z</time>
      </trkpt>
      <trkpt lat="61.03458" lon="14.382349">
        <ele>220</ele>
        <time>1970-01-01T01:00:00Z</time>
      </trkpt>
      <trkpt lat="61.034523" lon="14.382537">
        <ele>220</ele>
        <time>1970-01-01T01:00:00Z</time>
      </trkpt>
      <trkpt lat="61.034439" lon="14.382601">
        <ele>220</ele>
        <time>1970-01-01T01:00:00Z</time>
      </trkpt>
      <trkpt lat="61.034179" lon="14.382514">
        <ele>220</ele>
        <time>1970-01-01T01:00:00Z</time>
      </trkpt>
      <trkpt lat="61.03408" lon="14.38238">
        <ele>220</ele>
        <time>1970-01-01T01:00:00Z</time>
      </trkpt>
      <trkpt lat="61.034049" lon="14.382339">
        <ele>220</ele>
        <time>1970-01-01T01:00:00Z</time>
      </trkpt>
      <trkpt lat="61.034019" lon="14.382313">
        <ele>220</ele>
        <time>1970-01-01T01:00:00Z</time>
      </trkpt>
      <trkpt lat="61.033924" lon="14.382129">
        <ele>220</ele>
        <time>1970-01-01T01:00:00Z</time>
      </trkpt>
      <trkpt lat="61.033843" lon="14.381962">
        <ele>220</ele>
        <time>1970-01-01T01:00:00Z</time>
      </trkpt>
      <trkpt lat="61.033813" lon="14.381893">
        <ele>220</ele>
        <time>1970-01-01T01:00:00Z</time>
      </trkpt>
      <trkpt lat="61.033737" lon="14.381753">
        <ele>220</ele>
        <time>1970-01-01T01:00:00Z</time>
      </trkpt>
      <trkpt lat="61.033687" lon="14.381659">
        <ele>220</ele>
        <time>1970-01-01T01:00:00Z</time>
      </trkpt>
      <trkpt lat="61.033588" lon="14.381538">
        <ele>220</ele>
        <time>1970-01-01T01:00:00Z</time>
      </trkpt>
      <trkpt lat="61.033546" lon="14.381478">
        <ele>220</ele>
        <time>1970-01-01T01:00:00Z</time>
      </trkpt>
      <trkpt lat="61.033432" lon="14.381468">
        <ele>220</ele>
        <time>1970-01-01T01:00:00Z</time>
      </trkpt>
      <trkpt lat="61.033405" lon="14.381466">
        <ele>220</ele>
        <time>1970-01-01T01:00:00Z</time>
      </trkpt>
      <trkpt lat="61.033336" lon="14.381449">
        <ele>220</ele>
        <time>1970-01-01T01:00:00Z</time>
      </trkpt>
      <trkpt lat="61.033256" lon="14.381472">
        <ele>220</ele>
        <time>1970-01-01T01:00:00Z</time>
      </trkpt>
      <trkpt lat="61.033199" lon="14.38152">
        <ele>220</ele>
        <time>1970-01-01T01:00:00Z</time>
      </trkpt>
      <trkpt lat="61.033149" lon="14.381603">
        <ele>220</ele>
        <time>1970-01-01T01:00:00Z</time>
      </trkpt>
      <trkpt lat="61.033077" lon="14.381633">
        <ele>220</ele>
        <time>1970-01-01T01:00:00Z</time>
      </trkpt>
      <trkpt lat="61.033016" lon="14.381693">
        <ele>220</ele>
        <time>1970-01-01T01:00:00Z</time>
      </trkpt>
      <trkpt lat="61.032997" lon="14.3817">
        <ele>220</ele>
        <time>1970-01-01T01:00:00Z</time>
      </trkpt>
      <trkpt lat="61.032943" lon="14.3817">
        <ele>220</ele>
        <time>1970-01-01T01:00:00Z</time>
      </trkpt>
      <trkpt lat="61.032951" lon="14.381704">
        <ele>220</ele>
        <time>1970-01-01T01:00:00Z</time>
      </trkpt>
      <trkpt lat="61.032947" lon="14.381735">
        <ele>220</ele>
        <time>1970-01-01T01:00:00Z</time>
      </trkpt>
      <trkpt lat="61.032947" lon="14.381737">
        <ele>220</ele>
        <time>1970-01-01T01:00:00Z</time>
      </trkpt>
      <trkpt lat="61.032947" lon="14.381741">
        <ele>220</ele>
        <time>1970-01-01T01:00:00Z</time>
      </trkpt>
      <trkpt lat="61.032951" lon="14.38174">
        <ele>220</ele>
        <time>1970-01-01T01:00:00Z</time>
      </trkpt>
      <trkpt lat="61.032947" lon="14.381763">
        <ele>220</ele>
        <time>1970-01-01T01:00:00Z</time>
      </trkpt>
      <trkpt lat="61.032947" lon="14.381763">
        <ele>220</ele>
        <time>1970-01-01T01:00:00Z</time>
      </trkpt>
      <trkpt lat="61.032947" lon="14.381777">
        <ele>220</ele>
        <time>1970-01-01T01:00:00Z</time>
      </trkpt>
      <trkpt lat="61.032936" lon="14.381793">
        <ele>220</ele>
        <time>1970-01-01T01:00:00Z</time>
      </trkpt>
      <trkpt lat="61.032825" lon="14.381772">
        <ele>220</ele>
        <time>1970-01-01T01:00:00Z</time>
      </trkpt>
      <trkpt lat="61.032741" lon="14.381731">
        <ele>220</ele>
        <time>1970-01-01T01:00:00Z</time>
      </trkpt>
      <trkpt lat="61.032672" lon="14.381701">
        <ele>220</ele>
        <time>1970-01-01T01:00:00Z</time>
      </trkpt>
      <trkpt lat="61.032581" lon="14.381703">
        <ele>220</ele>
        <time>1970-01-01T01:00:00Z</time>
      </trkpt>
      <trkpt lat="61.032512" lon="14.381653">
        <ele>220</ele>
        <time>1970-01-01T01:00:00Z</time>
      </trkpt>
      <trkpt lat="61.032444" lon="14.38157">
        <ele>220</ele>
        <time>1970-01-01T01:00:00Z</time>
      </trkpt>
      <trkpt lat="61.032371" lon="14.381515">
        <ele>220</ele>
        <time>1970-01-01T01:00:00Z</time>
      </trkpt>
      <trkpt lat="61.032329" lon="14.381486">
        <ele>220</ele>
        <time>1970-01-01T01:00:00Z</time>
      </trkpt>
      <trkpt lat="61.032272" lon="14.381362">
        <ele>220</ele>
        <time>1970-01-01T01:00:00Z</time>
      </trkpt>
      <trkpt lat="61.032234" lon="14.38131">
        <ele>220</ele>
        <time>1970-01-01T01:00:00Z</time>
      </trkpt>
      <trkpt lat="61.032188" lon="14.381232">
        <ele>220</ele>
        <time>1970-01-01T01:00:00Z</time>
      </trkpt>
      <trkpt lat="61.032135" lon="14.381093">
        <ele>220</ele>
        <time>1970-01-01T01:00:00Z</time>
      </trkpt>
      <trkpt lat="61.032024" lon="14.380918">
        <ele>220</ele>
        <time>1970-01-01T01:00:00Z</time>
      </trkpt>
      <trkpt lat="61.031955" lon="14.380896">
        <ele>220</ele>
        <time>1970-01-01T01:00:00Z</time>
      </trkpt>
      <trkpt lat="61.031772" lon="14.380916">
        <ele>220</ele>
        <time>1970-01-01T01:00:00Z</time>
      </trkpt>
      <trkpt lat="61.031639" lon="14.380917">
        <ele>220</ele>
        <time>1970-01-01T01:00:00Z</time>
      </trkpt>
      <trkpt lat="61.031581" lon="14.38089">
        <ele>220</ele>
        <time>1970-01-01T01:00:00Z</time>
      </trkpt>
      <trkpt lat="61.031551" lon="14.380887">
        <ele>220</ele>
        <time>1970-01-01T01:00:00Z</time>
      </trkpt>
      <trkpt lat="61.031528" lon="14.380881">
        <ele>219.909</ele>
        <time>1970-01-01T01:00:00Z</time>
      </trkpt>
      <trkpt lat="61.031452" lon="14.380828">
        <ele>219.818</ele>
        <time>1970-01-01T01:00:00Z</time>
      </trkpt>
      <trkpt lat="61.031402" lon="14.380813">
        <ele>219.727</ele>
        <time>1970-01-01T01:00:00Z</time>
      </trkpt>
      <trkpt lat="61.031314" lon="14.380814">
        <ele>219.636</ele>
        <time>1970-01-01T01:00:00Z</time>
      </trkpt>
      <trkpt lat="61.031284" lon="14.380815">
        <ele>219.545</ele>
        <time>1970-01-01T01:00:00Z</time>
      </trkpt>
      <trkpt lat="61.031173" lon="14.380818">
        <ele>219.455</ele>
        <time>1970-01-01T01:00:00Z</time>
      </trkpt>
      <trkpt lat="61.031063" lon="14.380832">
        <ele>219.364</ele>
        <time>1970-01-01T01:00:00Z</time>
      </trkpt>
      <trkpt lat="61.030979" lon="14.380857">
        <ele>219.273</ele>
        <time>1970-01-01T01:00:00Z</time>
      </trkpt>
      <trkpt lat="61.030902" lon="14.380887">
        <ele>219.182</ele>
        <time>1970-01-01T01:00:00Z</time>
      </trkpt>
      <trkpt lat="61.030822" lon="14.380899">
        <ele>219.091</ele>
        <time>1970-01-01T01:00:00Z</time>
      </trkpt>
      <trkpt lat="61.030769" lon="14.380899">
        <ele>219</ele>
        <time>1970-01-01T01:00:00Z</time>
      </trkpt>
      <trkpt lat="61.030731" lon="14.380903">
        <ele>219</ele>
        <time>1970-01-01T01:00:00Z</time>
      </trkpt>
      <trkpt lat="61.030654" lon="14.380964">
        <ele>219</ele>
        <time>1970-01-01T01:00:00Z</time>
      </trkpt>
      <trkpt lat="61.03062" lon="14.380978">
        <ele>219</ele>
        <time>1970-01-01T01:00:00Z</time>
      </trkpt>
      <trkpt lat="61.030475" lon="14.381018">
        <ele>219</ele>
        <time>1970-01-01T01:00:00Z</time>
      </trkpt>
      <trkpt lat="61.030368" lon="14.381059">
        <ele>219</ele>
        <time>1970-01-01T01:00:00Z</time>
      </trkpt>
      <trkpt lat="61.030269" lon="14.381114">
        <ele>219</ele>
        <time>1970-01-01T01:00:00Z</time>
      </trkpt>
      <trkpt lat="61.030147" lon="14.38118">
        <ele>219</ele>
        <time>1970-01-01T01:00:00Z</time>
      </trkpt>
      <trkpt lat="61.030006" lon="14.381218">
        <ele>219.091</ele>
        <time>1970-01-01T01:00:00Z</time>
      </trkpt>
      <trkpt lat="61.029846" lon="14.381234">
        <ele>219.182</ele>
        <time>1970-01-01T01:00:00Z</time>
      </trkpt>
      <trkpt lat="61.029811" lon="14.38122">
        <ele>219.273</ele>
        <time>1970-01-01T01:00:00Z</time>
      </trkpt>
      <trkpt lat="61.029781" lon="14.381199">
        <ele>219.364</ele>
        <time>1970-01-01T01:00:00Z</time>
      </trkpt>
      <trkpt lat="61.029727" lon="14.381176">
        <ele>219.455</ele>
        <time>1970-01-01T01:00:00Z</time>
      </trkpt>
      <trkpt lat="61.029628" lon="14.38109">
        <ele>219.545</ele>
        <time>1970-01-01T01:00:00Z</time>
      </trkpt>
      <trkpt lat="61.029533" lon="14.381043">
        <ele>219.636</ele>
        <time>1970-01-01T01:00:00Z</time>
      </trkpt>
      <trkpt lat="61.029502" lon="14.380995">
        <ele>219.727</ele>
        <time>1970-01-01T01:00:00Z</time>
      </trkpt>
      <trkpt lat="61.029445" lon="14.38095">
        <ele>219.818</ele>
        <time>1970-01-01T01:00:00Z</time>
      </trkpt>
      <trkpt lat="61.029415" lon="14.380935">
        <ele>219.909</ele>
        <time>1970-01-01T01:00:00Z</time>
      </trkpt>
      <trkpt lat="61.029342" lon="14.380885">
        <ele>220</ele>
        <time>1970-01-01T01:00:00Z</time>
      </trkpt>
      <trkpt lat="61.029277" lon="14.380826">
        <ele>220</ele>
        <time>1970-01-01T01:00:00Z</time>
      </trkpt>
      <trkpt lat="61.029224" lon="14.380792">
        <ele>220</ele>
        <time>1970-01-01T01:00:00Z</time>
      </trkpt>
      <trkpt lat="61.029155" lon="14.380795">
        <ele>220</ele>
        <time>1970-01-01T01:00:00Z</time>
      </trkpt>
      <trkpt lat="61.029056" lon="14.380785">
        <ele>220</ele>
        <time>1970-01-01T01:00:00Z</time>
      </trkpt>
      <trkpt lat="61.028984" lon="14.380818">
        <ele>220</ele>
        <time>1970-01-01T01:00:00Z</time>
      </trkpt>
      <trkpt lat="61.028942" lon="14.380812">
        <ele>219.909</ele>
        <time>1970-01-01T01:00:00Z</time>
      </trkpt>
      <trkpt lat="61.028861" lon="14.380875">
        <ele>219.818</ele>
        <time>1970-01-01T01:00:00Z</time>
      </trkpt>
      <trkpt lat="61.028789" lon="14.380991">
        <ele>219.727</ele>
        <time>1970-01-01T01:00:00Z</time>
      </trkpt>
      <trkpt lat="61.028678" lon="14.381273">
        <ele>219.636</ele>
        <time>1970-01-01T01:00:00Z</time>
      </trkpt>
      <trkpt lat="61.028656" lon="14.381329">
        <ele>219.545</ele>
        <time>1970-01-01T01:00:00Z</time>
      </trkpt>
      <trkpt lat="61.028625" lon="14.381489">
        <ele>219.455</ele>
        <time>1970-01-01T01:00:00Z</time>
      </trkpt>
      <trkpt lat="61.028572" lon="14.381637">
        <ele>219.364</ele>
        <time>1970-01-01T01:00:00Z</time>
      </trkpt>
      <trkpt lat="61.028553" lon="14.381679">
        <ele>219.273</ele>
        <time>1970-01-01T01:00:00Z</time>
      </trkpt>
      <trkpt lat="61.028472" lon="14.381787">
        <ele>219.273</ele>
        <time>1970-01-01T01:00:00Z</time>
      </trkpt>
      <trkpt lat="61.0284" lon="14.381916">
        <ele>219.273</ele>
        <time>1970-01-01T01:00:00Z</time>
      </trkpt>
      <trkpt lat="61.028244" lon="14.382045">
        <ele>219.273</ele>
        <time>1970-01-01T01:00:00Z</time>
      </trkpt>
      <trkpt lat="61.028114" lon="14.382248">
        <ele>219.364</ele>
        <time>1970-01-01T01:00:00Z</time>
      </trkpt>
      <trkpt lat="61.028003" lon="14.382388">
        <ele>219.455</ele>
        <time>1970-01-01T01:00:00Z</time>
      </trkpt>
      <trkpt lat="61.027805" lon="14.382741">
        <ele>219.545</ele>
        <time>1970-01-01T01:00:00Z</time>
      </trkpt>
      <trkpt lat="61.027732" lon="14.382837">
        <ele>219.636</ele>
        <time>1970-01-01T01:00:00Z</time>
      </trkpt>
      <trkpt lat="61.027606" lon="14.383019">
        <ele>219.909</ele>
        <time>1970-01-01T01:00:00Z</time>
      </trkpt>
      <trkpt lat="61.027519" lon="14.383167">
        <ele>220.182</ele>
        <time>1970-01-01T01:00:00Z</time>
      </trkpt>
      <trkpt lat="61.027404" lon="14.383365">
        <ele>220.455</ele>
        <time>1970-01-01T01:00:00Z</time>
      </trkpt>
      <trkpt lat="61.027332" lon="14.383485">
        <ele>220.545</ele>
        <time>1970-01-01T01:00:00Z</time>
      </trkpt>
      <trkpt lat="61.027225" lon="14.383652">
        <ele>220.545</ele>
        <time>1970-01-01T01:00:00Z</time>
      </trkpt>
      <trkpt lat="61.027061" lon="14.383715">
        <ele>220.545</ele>
        <time>1970-01-01T01:00:00Z</time>
      </trkpt>
      <trkpt lat="61.027015" lon="14.38376">
        <ele>220.545</ele>
        <time>1970-01-01T01:00:00Z</time>
      </trkpt>
      <trkpt lat="61.026916" lon="14.383849">
        <ele>220.545</ele>
        <time>1970-01-01T01:00:00Z</time>
      </trkpt>
      <trkpt lat="61.026821" lon="14.383978">
        <ele>220.455</ele>
        <time>1970-01-01T01:00:00Z</time>
      </trkpt>
      <trkpt lat="61.026679" lon="14.384138">
        <ele>220.455</ele>
        <time>1970-01-01T01:00:00Z</time>
      </trkpt>
      <trkpt lat="61.026588" lon="14.384296">
        <ele>220.455</ele>
        <time>1970-01-01T01:00:00Z</time>
      </trkpt>
      <trkpt lat="61.026489" lon="14.38446">
        <ele>220.182</ele>
        <time>1970-01-01T01:00:00Z</time>
      </trkpt>
      <trkpt lat="61.026401" lon="14.384634">
        <ele>219.909</ele>
        <time>1970-01-01T01:00:00Z</time>
      </trkpt>
      <trkpt lat="61.026313" lon="14.384831">
        <ele>219.636</ele>
        <time>1970-01-01T01:00:00Z</time>
      </trkpt>
      <trkpt lat="61.02626" lon="14.385062">
        <ele>219.545</ele>
        <time>1970-01-01T01:00:00Z</time>
      </trkpt>
      <trkpt lat="61.026237" lon="14.385213">
        <ele>219.455</ele>
        <time>1970-01-01T01:00:00Z</time>
      </trkpt>
      <trkpt lat="61.02618" lon="14.385537">
        <ele>219.364</ele>
        <time>1970-01-01T01:00:00Z</time>
      </trkpt>
      <trkpt lat="61.026123" lon="14.385741">
        <ele>219.273</ele>
        <time>1970-01-01T01:00:00Z</time>
      </trkpt>
      <trkpt lat="61.026042" lon="14.38603">
        <ele>219.182</ele>
        <time>1970-01-01T01:00:00Z</time>
      </trkpt>
      <trkpt lat="61.025966" lon="14.386354">
        <ele>219.182</ele>
        <time>1970-01-01T01:00:00Z</time>
      </trkpt>
      <trkpt lat="61.025901" lon="14.386596">
        <ele>219.091</ele>
        <time>1970-01-01T01:00:00Z</time>
      </trkpt>
      <trkpt lat="61.025825" lon="14.386872">
        <ele>219</ele>
        <time>1970-01-01T01:00:00Z</time>
      </trkpt>
      <trkpt lat="61.025722" lon="14.387213">
        <ele>219.091</ele>
        <time>1970-01-01T01:00:00Z</time>
      </trkpt>
      <trkpt lat="61.025653" lon="14.387392">
        <ele>219.182</ele>
        <time>1970-01-01T01:00:00Z</time>
      </trkpt>
      <trkpt lat="61.025474" lon="14.387572">
        <ele>219.273</ele>
        <time>1970-01-01T01:00:00Z</time>
      </trkpt>
      <trkpt lat="61.025363" lon="14.387736">
        <ele>219.364</ele>
        <time>1970-01-01T01:00:00Z</time>
      </trkpt>
      <trkpt lat="61.025234" lon="14.387931">
        <ele>219.455</ele>
        <time>1970-01-01T01:00:00Z</time>
      </trkpt>
      <trkpt lat="61.02518" lon="14.388026">
        <ele>219.545</ele>
        <time>1970-01-01T01:00:00Z</time>
      </trkpt>
      <trkpt lat="61.025016" lon="14.3883">
        <ele>219.636</ele>
        <time>1970-01-01T01:00:00Z</time>
      </trkpt>
      <trkpt lat="61.024894" lon="14.388453">
        <ele>219.727</ele>
        <time>1970-01-01T01:00:00Z</time>
      </trkpt>
      <trkpt lat="61.024768" lon="14.388513">
        <ele>219.818</ele>
        <time>1970-01-01T01:00:00Z</time>
      </trkpt>
      <trkpt lat="61.024677" lon="14.388532">
        <ele>219.909</ele>
        <time>1970-01-01T01:00:00Z</time>
      </trkpt>
      <trkpt lat="61.024562" lon="14.3886">
        <ele>220</ele>
        <time>1970-01-01T01:00:00Z</time>
      </trkpt>
      <trkpt lat="61.024494" lon="14.388622">
        <ele>220</ele>
        <time>1970-01-01T01:00:00Z</time>
      </trkpt>
      <trkpt lat="61.024398" lon="14.388668">
        <ele>220</ele>
        <time>1970-01-01T01:00:00Z</time>
      </trkpt>
      <trkpt lat="61.024375" lon="14.38867">
        <ele>220</ele>
        <time>1970-01-01T01:00:00Z</time>
      </trkpt>
      <trkpt lat="61.024257" lon="14.388721">
        <ele>220</ele>
        <time>1970-01-01T01:00:00Z</time>
      </trkpt>
      <trkpt lat="61.024108" lon="14.388781">
        <ele>220</ele>
        <time>1970-01-01T01:00:00Z</time>
      </trkpt>
      <trkpt lat="61.024066" lon="14.388794">
        <ele>220</ele>
        <time>1970-01-01T01:00:00Z</time>
      </trkpt>
      <trkpt lat="61.023998" lon="14.388844">
        <ele>220</ele>
        <time>1970-01-01T01:00:00Z</time>
      </trkpt>
      <trkpt lat="61.023872" lon="14.388945">
        <ele>220</ele>
        <time>1970-01-01T01:00:00Z</time>
      </trkpt>
      <trkpt lat="61.023723" lon="14.389025">
        <ele>220</ele>
        <time>1970-01-01T01:00:00Z</time>
      </trkpt>
      <trkpt lat="61.023632" lon="14.389073">
        <ele>220</ele>
        <time>1970-01-01T01:00:00Z</time>
      </trkpt>
      <trkpt lat="61.023586" lon="14.389101">
        <ele>220</ele>
        <time>1970-01-01T01:00:00Z</time>
      </trkpt>
      <trkpt lat="61.023483" lon="14.389155">
        <ele>220</ele>
        <time>1970-01-01T01:00:00Z</time>
      </trkpt>
      <trkpt lat="61.023391" lon="14.389224">
        <ele>220</ele>
        <time>1970-01-01T01:00:00Z</time>
      </trkpt>
      <trkpt lat="61.023231" lon="14.389346">
        <ele>220</ele>
        <time>1970-01-01T01:00:00Z</time>
      </trkpt>
      <trkpt lat="61.023128" lon="14.389397">
        <ele>219.909</ele>
        <time>1970-01-01T01:00:00Z</time>
      </trkpt>
      <trkpt lat="61.022945" lon="14.389495">
        <ele>219.818</ele>
        <time>1970-01-01T01:00:00Z</time>
      </trkpt>
      <trkpt lat="61.022861" lon="14.389521">
        <ele>219.727</ele>
        <time>1970-01-01T01:00:00Z</time>
      </trkpt>
      <trkpt lat="61.022827" lon="14.389524">
        <ele>219.636</ele>
        <time>1970-01-01T01:00:00Z</time>
      </trkpt>
      <trkpt lat="61.022697" lon="14.389587">
        <ele>219.545</ele>
        <time>1970-01-01T01:00:00Z</time>
      </trkpt>
      <trkpt lat="61.022583" lon="14.389654">
        <ele>219.455</ele>
        <time>1970-01-01T01:00:00Z</time>
      </trkpt>
      <trkpt lat="61.022525" lon="14.389698">
        <ele>219.364</ele>
        <time>1970-01-01T01:00:00Z</time>
      </trkpt>
      <trkpt lat="61.022453" lon="14.389763">
        <ele>219.364</ele>
        <time>1970-01-01T01:00:00Z</time>
      </trkpt>
      <trkpt lat="61.022357" lon="14.389822">
        <ele>219.364</ele>
        <time>1970-01-01T01:00:00Z</time>
      </trkpt>
      <trkpt lat="61.022319" lon="14.389869">
        <ele>219.364</ele>
        <time>1970-01-01T01:00:00Z</time>
      </trkpt>
      <trkpt lat="61.022243" lon="14.389948">
        <ele>219.364</ele>
        <time>1970-01-01T01:00:00Z</time>
      </trkpt>
      <trkpt lat="61.022171" lon="14.389994">
        <ele>219.364</ele>
        <time>1970-01-01T01:00:00Z</time>
      </trkpt>
      <trkpt lat="61.022079" lon="14.390094">
        <ele>219.364</ele>
        <time>1970-01-01T01:00:00Z</time>
      </trkpt>
      <trkpt lat="61.022052" lon="14.390111">
        <ele>219.364</ele>
        <time>1970-01-01T01:00:00Z</time>
      </trkpt>
      <trkpt lat="61.021926" lon="14.390234">
        <ele>219.364</ele>
        <time>1970-01-01T01:00:00Z</time>
      </trkpt>
      <trkpt lat="61.021842" lon="14.390327">
        <ele>219.364</ele>
        <time>1970-01-01T01:00:00Z</time>
      </trkpt>
      <trkpt lat="61.021739" lon="14.390465">
        <ele>219.364</ele>
        <time>1970-01-01T01:00:00Z</time>
      </trkpt>
      <trkpt lat="61.021682" lon="14.39054">
        <ele>219.364</ele>
        <time>1970-01-01T01:00:00Z</time>
      </trkpt>
      <trkpt lat="61.021659" lon="14.390571">
        <ele>219.273</ele>
        <time>1970-01-01T01:00:00Z</time>
      </trkpt>
      <trkpt lat="61.021545" lon="14.390754">
        <ele>219.182</ele>
        <time>1970-01-01T01:00:00Z</time>
      </trkpt>
      <trkpt lat="61.021526" lon="14.390791">
        <ele>219.091</ele>
        <time>1970-01-01T01:00:00Z</time>
      </trkpt>
      <trkpt lat="61.02145" lon="14.390913">
        <ele>219</ele>
        <time>1970-01-01T01:00:00Z</time>
      </trkpt>
      <trkpt lat="61.021427" lon="14.390941">
        <ele>219</ele>
        <time>1970-01-01T01:00:00Z</time>
      </trkpt>
      <trkpt lat="61.021301" lon="14.391161">
        <ele>219</ele>
        <time>1970-01-01T01:00:00Z</time>
      </trkpt>
      <trkpt lat="61.021156" lon="14.391435">
        <ele>219</ele>
        <time>1970-01-01T01:00:00Z</time>
      </trkpt>
      <trkpt lat="61.021099" lon="14.391628">
        <ele>219</ele>
        <time>1970-01-01T01:00:00Z</time>
      </trkpt>
      <trkpt lat="61.02103" lon="14.391905">
        <ele>219</ele>
        <time>1970-01-01T01:00:00Z</time>
      </trkpt>
      <trkpt lat="61.020984" lon="14.392077">
        <ele>219</ele>
        <time>1970-01-01T01:00:00Z</time>
      </trkpt>
      <trkpt lat="61.020885" lon="14.392467">
        <ele>219</ele>
        <time>1970-01-01T01:00:00Z</time>
      </trkpt>
      <trkpt lat="61.020793" lon="14.392801">
        <ele>219</ele>
        <time>1970-01-01T01:00:00Z</time>
      </trkpt>
      <trkpt lat="61.020729" lon="14.393094">
        <ele>219</ele>
        <time>1970-01-01T01:00:00Z</time>
      </trkpt>
      <trkpt lat="61.020694" lon="14.393272">
        <ele>219</ele>
        <time>1970-01-01T01:00:00Z</time>
      </trkpt>
      <trkpt lat="61.020591" lon="14.393682">
        <ele>219</ele>
        <time>1970-01-01T01:00:00Z</time>
      </trkpt>
      <trkpt lat="61.020568" lon="14.393779">
        <ele>219</ele>
        <time>1970-01-01T01:00:00Z</time>
      </trkpt>
      <trkpt lat="61.020538" lon="14.393958">
        <ele>219</ele>
        <time>1970-01-01T01:00:00Z</time>
      </trkpt>
      <trkpt lat="61.020503" lon="14.39412">
        <ele>218.909</ele>
        <time>1970-01-01T01:00:00Z</time>
      </trkpt>
      <trkpt lat="61.020473" lon="14.394273">
        <ele>218.818</ele>
        <time>1970-01-01T01:00:00Z</time>
      </trkpt>
      <trkpt lat="61.020454" lon="14.394418">
        <ele>218.727</ele>
        <time>1970-01-01T01:00:00Z</time>
      </trkpt>
      <trkpt lat="61.020477" lon="14.394807">
        <ele>218.727</ele>
        <time>1970-01-01T01:00:00Z</time>
      </trkpt>
      <trkpt lat="61.020462" lon="14.395088">
        <ele>218.727</ele>
        <time>1970-01-01T01:00:00Z</time>
      </trkpt>
      <trkpt lat="61.020442" lon="14.395468">
        <ele>218.727</ele>
        <time>1970-01-01T01:00:00Z</time>
      </trkpt>
      <trkpt lat="61.020439" lon="14.39569">
        <ele>218.727</ele>
        <time>1970-01-01T01:00:00Z</time>
      </trkpt>
      <trkpt lat="61.02045" lon="14.396154">
        <ele>218.727</ele>
        <time>1970-01-01T01:00:00Z</time>
      </trkpt>
      <trkpt lat="61.020454" lon="14.396274">
        <ele>218.727</ele>
        <time>1970-01-01T01:00:00Z</time>
      </trkpt>
      <trkpt lat="61.020458" lon="14.396508">
        <ele>218.727</ele>
        <time>1970-01-01T01:00:00Z</time>
      </trkpt>
      <trkpt lat="61.020458" lon="14.396704">
        <ele>218.727</ele>
        <time>1970-01-01T01:00:00Z</time>
      </trkpt>
      <trkpt lat="61.020481" lon="14.397028">
        <ele>218.818</ele>
        <time>1970-01-01T01:00:00Z</time>
      </trkpt>
      <trkpt lat="61.020481" lon="14.397242">
        <ele>218.909</ele>
        <time>1970-01-01T01:00:00Z</time>
      </trkpt>
      <trkpt lat="61.020462" lon="14.39751">
        <ele>218.909</ele>
        <time>1970-01-01T01:00:00Z</time>
      </trkpt>
      <trkpt lat="61.020473" lon="14.397743">
        <ele>218.818</ele>
        <time>1970-01-01T01:00:00Z</time>
      </trkpt>
      <trkpt lat="61.020503" lon="14.398147">
        <ele>218.727</ele>
        <time>1970-01-01T01:00:00Z</time>
      </trkpt>
      <trkpt lat="61.020507" lon="14.398678">
        <ele>218.636</ele>
        <time>1970-01-01T01:00:00Z</time>
      </trkpt>
      <trkpt lat="61.020492" lon="14.399147">
        <ele>218.545</ele>
        <time>1970-01-01T01:00:00Z</time>
      </trkpt>
      <trkpt lat="61.02037" lon="14.399818">
        <ele>218.545</ele>
        <time>1970-01-01T01:00:00Z</time>
      </trkpt>
      <trkpt lat="61.020347" lon="14.399918">
        <ele>218.545</ele>
        <time>1970-01-01T01:00:00Z</time>
      </trkpt>
      <trkpt lat="61.020191" lon="14.400259">
        <ele>218.545</ele>
        <time>1970-01-01T01:00:00Z</time>
      </trkpt>
      <trkpt lat="61.020168" lon="14.400302">
        <ele>218.545</ele>
        <time>1970-01-01T01:00:00Z</time>
      </trkpt>
      <trkpt lat="61.020103" lon="14.400369">
        <ele>218.545</ele>
        <time>1970-01-01T01:00:00Z</time>
      </trkpt>
      <trkpt lat="61.019996" lon="14.400517">
        <ele>218.545</ele>
        <time>1970-01-01T01:00:00Z</time>
      </trkpt>
      <trkpt lat="61.019958" lon="14.400583">
        <ele>218.545</ele>
        <time>1970-01-01T01:00:00Z</time>
      </trkpt>
      <trkpt lat="61.019901" lon="14.400777">
        <ele>218.545</ele>
        <time>1970-01-01T01:00:00Z</time>
      </trkpt>
      <trkpt lat="61.019874" lon="14.400839">
        <ele>218.545</ele>
        <time>1970-01-01T01:00:00Z</time>
      </trkpt>
      <trkpt lat="61.019783" lon="14.401059">
        <ele>218.545</ele>
        <time>1970-01-01T01:00:00Z</time>
      </trkpt>
      <trkpt lat="61.019706" lon="14.401261">
        <ele>218.545</ele>
        <time>1970-01-01T01:00:00Z</time>
      </trkpt>
      <trkpt lat="61.019622" lon="14.401462">
        <ele>218.455</ele>
        <time>1970-01-01T01:00:00Z</time>
      </trkpt>
      <trkpt lat="61.019603" lon="14.401511">
        <ele>218.364</ele>
        <time>1970-01-01T01:00:00Z</time>
      </trkpt>
      <trkpt lat="61.019527" lon="14.401753">
        <ele>218.273</ele>
        <time>1970-01-01T01:00:00Z</time>
      </trkpt>
      <trkpt lat="61.019508" lon="14.401789">
        <ele>218.182</ele>
        <time>1970-01-01T01:00:00Z</time>
      </trkpt>
      <trkpt lat="61.019401" lon="14.40205">
        <ele>218.091</ele>
        <time>1970-01-01T01:00:00Z</time>
      </trkpt>
      <trkpt lat="61.019363" lon="14.402137">
        <ele>218.091</ele>
        <time>1970-01-01T01:00:00Z</time>
      </trkpt>
      <trkpt lat="61.01926" lon="14.402425">
        <ele>218.182</ele>
        <time>1970-01-01T01:00:00Z</time>
      </trkpt>
      <trkpt lat="61.019172" lon="14.402609">
        <ele>218.182</ele>
        <time>1970-01-01T01:00:00Z</time>
      </trkpt>
      <trkpt lat="61.019081" lon="14.402785">
        <ele>218.182</ele>
        <time>1970-01-01T01:00:00Z</time>
      </trkpt>
      <trkpt lat="61.01902" lon="14.402959">
        <ele>218.182</ele>
        <time>1970-01-01T01:00:00Z</time>
      </trkpt>
      <trkpt lat="61.018966" lon="14.403142">
        <ele>218.182</ele>
        <time>1970-01-01T01:00:00Z</time>
      </trkpt>
      <trkpt lat="61.01884" lon="14.403596">
        <ele>218.182</ele>
        <time>1970-01-01T01:00:00Z</time>
      </trkpt>
      <trkpt lat="61.01876" lon="14.403757">
        <ele>218.182</ele>
        <time>1970-01-01T01:00:00Z</time>
      </trkpt>
      <trkpt lat="61.018638" lon="14.404079">
        <ele>218.182</ele>
        <time>1970-01-01T01:00:00Z</time>
      </trkpt>
      <trkpt lat="61.018524" lon="14.404291">
        <ele>218.182</ele>
        <time>1970-01-01T01:00:00Z</time>
      </trkpt>
      <trkpt lat="61.018478" lon="14.404393">
        <ele>218.182</ele>
        <time>1970-01-01T01:00:00Z</time>
      </trkpt>
      <trkpt lat="61.018444" lon="14.4046">
        <ele>218.091</ele>
        <time>1970-01-01T01:00:00Z</time>
      </trkpt>
      <trkpt lat="61.018367" lon="14.404853">
        <ele>218</ele>
        <time>1970-01-01T01:00:00Z</time>
      </trkpt>
      <trkpt lat="61.018337" lon="14.405075">
        <ele>218</ele>
        <time>1970-01-01T01:00:00Z</time>
      </trkpt>
      <trkpt lat="61.018325" lon="14.405104">
        <ele>218</ele>
        <time>1970-01-01T01:00:00Z</time>
      </trkpt>
      <trkpt lat="61.018276" lon="14.405286">
        <ele>218</ele>
        <time>1970-01-01T01:00:00Z</time>
      </trkpt>
      <trkpt lat="61.018249" lon="14.405403">
        <ele>218</ele>
        <time>1970-01-01T01:00:00Z</time>
      </trkpt>
      <trkpt lat="61.018203" lon="14.405575">
        <ele>218</ele>
        <time>1970-01-01T01:00:00Z</time>
      </trkpt>
      <trkpt lat="61.018196" lon="14.405619">
        <ele>218</ele>
        <time>1970-01-01T01:00:00Z</time>
      </trkpt>
      <trkpt lat="61.018115" lon="14.405928">
        <ele>218</ele>
        <time>1970-01-01T01:00:00Z</time>
      </trkpt>
      <trkpt lat="61.018062" lon="14.406134">
        <ele>218</ele>
        <time>1970-01-01T01:00:00Z</time>
      </trkpt>
      <trkpt lat="61.018047" lon="14.40618">
        <ele>218</ele>
        <time>1970-01-01T01:00:00Z</time>
      </trkpt>
      <trkpt lat="61.017993" lon="14.406412">
        <ele>218</ele>
        <time>1970-01-01T01:00:00Z</time>
      </trkpt>
      <trkpt lat="61.017944" lon="14.406602">
        <ele>218</ele>
        <time>1970-01-01T01:00:00Z</time>
      </trkpt>
      <trkpt lat="61.017906" lon="14.406776">
        <ele>218</ele>
        <time>1970-01-01T01:00:00Z</time>
      </trkpt>
      <trkpt lat="61.017868" lon="14.4069">
        <ele>218</ele>
        <time>1970-01-01T01:00:00Z</time>
      </trkpt>
      <trkpt lat="61.017848" lon="14.407009">
        <ele>218</ele>
        <time>1970-01-01T01:00:00Z</time>
      </trkpt>
      <trkpt lat="61.017883" lon="14.407197">
        <ele>218</ele>
        <time>1970-01-01T01:00:00Z</time>
      </trkpt>
      <trkpt lat="61.017932" lon="14.407265">
        <ele>218</ele>
        <time>1970-01-01T01:00:00Z</time>
      </trkpt>
      <trkpt lat="61.017997" lon="14.407377">
        <ele>218</ele>
        <time>1970-01-01T01:00:00Z</time>
      </trkpt>
      <trkpt lat="61.018016" lon="14.407396">
        <ele>218.091</ele>
        <time>1970-01-01T01:00:00Z</time>
      </trkpt>
      <trkpt lat="61.018096" lon="14.407511">
        <ele>218.182</ele>
        <time>1970-01-01T01:00:00Z</time>
      </trkpt>
      <trkpt lat="61.018115" lon="14.407542">
        <ele>218.273</ele>
        <time>1970-01-01T01:00:00Z</time>
      </trkpt>
      <trkpt lat="61.018253" lon="14.407776">
        <ele>218.364</ele>
        <time>1970-01-01T01:00:00Z</time>
      </trkpt>
      <trkpt lat="61.018352" lon="14.407953">
        <ele>218.455</ele>
        <time>1970-01-01T01:00:00Z</time>
      </trkpt>
      <trkpt lat="61.018402" lon="14.40818">
        <ele>218.545</ele>
        <time>1970-01-01T01:00:00Z</time>
      </trkpt>
      <trkpt lat="61.018413" lon="14.40825">
        <ele>218.636</ele>
        <time>1970-01-01T01:00:00Z</time>
      </trkpt>
      <trkpt lat="61.018421" lon="14.408329">
        <ele>218.727</ele>
        <time>1970-01-01T01:00:00Z</time>
      </trkpt>
      <trkpt lat="61.018409" lon="14.40851">
        <ele>218.818</ele>
        <time>1970-01-01T01:00:00Z</time>
      </trkpt>
      <trkpt lat="61.018363" lon="14.408856">
        <ele>218.909</ele>
        <time>1970-01-01T01:00:00Z</time>
      </trkpt>
      <trkpt lat="61.018306" lon="14.409068">
        <ele>219</ele>
        <time>1970-01-01T01:00:00Z</time>
      </trkpt>
      <trkpt lat="61.018257" lon="14.409184">
        <ele>219</ele>
        <time>1970-01-01T01:00:00Z</time>
      </trkpt>
      <trkpt lat="61.018173" lon="14.409354">
        <ele>218.909</ele>
        <time>1970-01-01T01:00:00Z</time>
      </trkpt>
      <trkpt lat="61.018108" lon="14.40952">
        <ele>218.818</ele>
        <time>1970-01-01T01:00:00Z</time>
      </trkpt>
      <trkpt lat="61.018089" lon="14.409568">
        <ele>218.818</ele>
        <time>1970-01-01T01:00:00Z</time>
      </trkpt>
      <trkpt lat="61.018009" lon="14.409718">
        <ele>218.818</ele>
        <time>1970-01-01T01:00:00Z</time>
      </trkpt>
      <trkpt lat="61.017955" lon="14.409877">
        <ele>218.818</ele>
        <time>1970-01-01T01:00:00Z</time>
      </trkpt>
      <trkpt lat="61.017879" lon="14.410046">
        <ele>218.818</ele>
        <time>1970-01-01T01:00:00Z</time>
      </trkpt>
      <trkpt lat="61.017787" lon="14.410262">
        <ele>218.818</ele>
        <time>1970-01-01T01:00:00Z</time>
      </trkpt>
      <trkpt lat="61.017696" lon="14.410564">
        <ele>218.818</ele>
        <time>1970-01-01T01:00:00Z</time>
      </trkpt>
      <trkpt lat="61.017665" lon="14.41064">
        <ele>218.818</ele>
        <time>1970-01-01T01:00:00Z</time>
      </trkpt>
      <trkpt lat="61.017459" lon="14.410978">
        <ele>218.818</ele>
        <time>1970-01-01T01:00:00Z</time>
      </trkpt>
      <trkpt lat="61.017395" lon="14.411111">
        <ele>218.727</ele>
        <time>1970-01-01T01:00:00Z</time>
      </trkpt>
      <trkpt lat="61.017288" lon="14.411315">
        <ele>218.727</ele>
        <time>1970-01-01T01:00:00Z</time>
      </trkpt>
      <trkpt lat="61.017215" lon="14.411434">
        <ele>218.727</ele>
        <time>1970-01-01T01:00:00Z</time>
      </trkpt>
      <trkpt lat="61.017181" lon="14.411482">
        <ele>218.636</ele>
        <time>1970-01-01T01:00:00Z</time>
      </trkpt>
      <trkpt lat="61.017097" lon="14.411576">
        <ele>218.545</ele>
        <time>1970-01-01T01:00:00Z</time>
      </trkpt>
      <trkpt lat="61.017009" lon="14.411694">
        <ele>218.455</ele>
        <time>1970-01-01T01:00:00Z</time>
      </trkpt>
      <trkpt lat="61.016944" lon="14.411753">
        <ele>218.364</ele>
        <time>1970-01-01T01:00:00Z</time>
      </trkpt>
      <trkpt lat="61.016868" lon="14.411786">
        <ele>218.273</ele>
        <time>1970-01-01T01:00:00Z</time>
      </trkpt>
      <trkpt lat="61.016735" lon="14.411826">
        <ele>218.182</ele>
        <time>1970-01-01T01:00:00Z</time>
      </trkpt>
      <trkpt lat="61.016719" lon="14.411831">
        <ele>218.091</ele>
        <time>1970-01-01T01:00:00Z</time>
      </trkpt>
      <trkpt lat="61.016716" lon="14.411836">
        <ele>217.727</ele>
        <time>1970-01-01T01:00:00Z</time>
      </trkpt>
      <trkpt lat="61.016662" lon="14.411895">
        <ele>217.455</ele>
        <time>1970-01-01T01:00:00Z</time>
      </trkpt>
      <trkpt lat="61.016601" lon="14.411872">
        <ele>217.182</ele>
        <time>1970-01-01T01:00:00Z</time>
      </trkpt>
      <trkpt lat="61.016479" lon="14.411823">
        <ele>216.909</ele>
        <time>1970-01-01T01:00:00Z</time>
      </trkpt>
      <trkpt lat="61.016361" lon="14.411744">
        <ele>216.636</ele>
        <time>1970-01-01T01:00:00Z</time>
      </trkpt>
      <trkpt lat="61.016273" lon="14.411657">
        <ele>216.364</ele>
        <time>1970-01-01T01:00:00Z</time>
      </trkpt>
      <trkpt lat="61.016239" lon="14.411579">
        <ele>216.091</ele>
        <time>1970-01-01T01:00:00Z</time>
      </trkpt>
      <trkpt lat="61.016178" lon="14.411499">
        <ele>215.818</ele>
        <time>1970-01-01T01:00:00Z</time>
      </trkpt>
      <trkpt lat="61.016101" lon="14.411369">
        <ele>215.545</ele>
        <time>1970-01-01T01:00:00Z</time>
      </trkpt>
      <trkpt lat="61.016075" lon="14.411264">
        <ele>215.273</ele>
        <time>1970-01-01T01:00:00Z</time>
      </trkpt>
      <trkpt lat="61.016059" lon="14.411115">
        <ele>215</ele>
        <time>1970-01-01T01:00:00Z</time>
      </trkpt>
      <trkpt lat="61.016033" lon="14.411014">
        <ele>215</ele>
        <time>1970-01-01T01:00:00Z</time>
      </trkpt>
      <trkpt lat="61.016025" lon="14.410914">
        <ele>215</ele>
        <time>1970-01-01T01:00:00Z</time>
      </trkpt>
      <trkpt lat="61.016017" lon="14.410876">
        <ele>214.818</ele>
        <time>1970-01-01T01:00:00Z</time>
      </trkpt>
      <trkpt lat="61.015914" lon="14.410776">
        <ele>214.636</ele>
        <time>1970-01-01T01:00:00Z</time>
      </trkpt>
      <trkpt lat="61.015842" lon="14.410755">
        <ele>214.455</ele>
        <time>1970-01-01T01:00:00Z</time>
      </trkpt>
      <trkpt lat="61.015659" lon="14.410758">
        <ele>214.273</ele>
        <time>1970-01-01T01:00:00Z</time>
      </trkpt>
      <trkpt lat="61.015544" lon="14.41072">
        <ele>214.091</ele>
        <time>1970-01-01T01:00:00Z</time>
      </trkpt>
      <trkpt lat="61.015388" lon="14.410728">
        <ele>213.909</ele>
        <time>1970-01-01T01:00:00Z</time>
      </trkpt>
      <trkpt lat="61.015243" lon="14.410769">
        <ele>213.727</ele>
        <time>1970-01-01T01:00:00Z</time>
      </trkpt>
      <trkpt lat="61.015144" lon="14.410754">
        <ele>213.545</ele>
        <time>1970-01-01T01:00:00Z</time>
      </trkpt>
      <trkpt lat="61.015079" lon="14.410746">
        <ele>213.364</ele>
        <time>1970-01-01T01:00:00Z</time>
      </trkpt>
      <trkpt lat="61.014976" lon="14.410904">
        <ele>213.182</ele>
        <time>1970-01-01T01:00:00Z</time>
      </trkpt>
      <trkpt lat="61.014949" lon="14.411063">
        <ele>212.909</ele>
        <time>1970-01-01T01:00:00Z</time>
      </trkpt>
      <trkpt lat="61.01498" lon="14.411302">
        <ele>212.818</ele>
        <time>1970-01-01T01:00:00Z</time>
      </trkpt>
      <trkpt lat="61.015003" lon="14.411513">
        <ele>212.727</ele>
        <time>1970-01-01T01:00:00Z</time>
      </trkpt>
      <trkpt lat="61.015014" lon="14.411666">
        <ele>212.636</ele>
        <time>1970-01-01T01:00:00Z</time>
      </trkpt>
      <trkpt lat="61.015071" lon="14.411924">
        <ele>212.545</ele>
        <time>1970-01-01T01:00:00Z</time>
      </trkpt>
      <trkpt lat="61.01511" lon="14.41224">
        <ele>212.455</ele>
        <time>1970-01-01T01:00:00Z</time>
      </trkpt>
      <trkpt lat="61.015113" lon="14.412364">
        <ele>212.273</ele>
        <time>1970-01-01T01:00:00Z</time>
      </trkpt>
      <trkpt lat="61.015106" lon="14.412439">
        <ele>212.091</ele>
        <time>1970-01-01T01:00:00Z</time>
      </trkpt>
      <trkpt lat="61.015106" lon="14.412507">
        <ele>211.909</ele>
        <time>1970-01-01T01:00:00Z</time>
      </trkpt>
      <trkpt lat="61.01511" lon="14.412563">
        <ele>211.636</ele>
        <time>1970-01-01T01:00:00Z</time>
      </trkpt>
      <trkpt lat="61.015113" lon="14.412813">
        <ele>211.364</ele>
        <time>1970-01-01T01:00:00Z</time>
      </trkpt>
      <trkpt lat="61.015125" lon="14.413071">
        <ele>211.182</ele>
        <time>1970-01-01T01:00:00Z</time>
      </trkpt>
      <trkpt lat="61.015144" lon="14.413304">
        <ele>210.909</ele>
        <time>1970-01-01T01:00:00Z</time>
      </trkpt>
      <trkpt lat="61.015186" lon="14.41365">
        <ele>210.636</ele>
        <time>1970-01-01T01:00:00Z</time>
      </trkpt>
      <trkpt lat="61.015171" lon="14.414073">
        <ele>210.364</ele>
        <time>1970-01-01T01:00:00Z</time>
      </trkpt>
      <trkpt lat="61.015167" lon="14.414381">
        <ele>210</ele>
        <time>1970-01-01T01:00:00Z</time>
      </trkpt>
      <trkpt lat="61.015163" lon="14.414552">
        <ele>209.636</ele>
        <time>1970-01-01T01:00:00Z</time>
      </trkpt>
      <trkpt lat="61.015159" lon="14.41471">
        <ele>209.364</ele>
        <time>1970-01-01T01:00:00Z</time>
      </trkpt>
      <trkpt lat="61.015148" lon="14.414977">
        <ele>209.091</ele>
        <time>1970-01-01T01:00:00Z</time>
      </trkpt>
      <trkpt lat="61.015098" lon="14.415382">
        <ele>208.818</ele>
        <time>1970-01-01T01:00:00Z</time>
      </trkpt>
      <trkpt lat="61.015098" lon="14.415614">
        <ele>208.545</ele>
        <time>1970-01-01T01:00:00Z</time>
      </trkpt>
      <trkpt lat="61.015102" lon="14.415804">
        <ele>208.273</ele>
        <time>1970-01-01T01:00:00Z</time>
      </trkpt>
      <trkpt lat="61.015098" lon="14.415909">
        <ele>208</ele>
        <time>1970-01-01T01:00:00Z</time>
      </trkpt>
      <trkpt lat="61.015171" lon="14.41619">
        <ele>207.818</ele>
        <time>1970-01-01T01:00:00Z</time>
      </trkpt>
      <trkpt lat="61.015171" lon="14.416245">
        <ele>207.636</ele>
        <time>1970-01-01T01:00:00Z</time>
      </trkpt>
      <trkpt lat="61.015178" lon="14.416457">
        <ele>207.364</ele>
        <time>1970-01-01T01:00:00Z</time>
      </trkpt>
      <trkpt lat="61.015228" lon="14.416698">
        <ele>207.182</ele>
        <time>1970-01-01T01:00:00Z</time>
      </trkpt>
      <trkpt lat="61.015258" lon="14.416876">
        <ele>207</ele>
        <time>1970-01-01T01:00:00Z</time>
      </trkpt>
      <trkpt lat="61.015262" lon="14.416899">
        <ele>206.727</ele>
        <time>1970-01-01T01:00:00Z</time>
      </trkpt>
      <trkpt lat="61.015293" lon="14.417058">
        <ele>206.455</ele>
        <time>1970-01-01T01:00:00Z</time>
      </trkpt>
      <trkpt lat="61.015335" lon="14.417302">
        <ele>206.182</ele>
        <time>1970-01-01T01:00:00Z</time>
      </trkpt>
      <trkpt lat="61.01535" lon="14.417372">
        <ele>206.545</ele>
        <time>1970-01-01T01:00:00Z</time>
      </trkpt>
      <trkpt lat="61.015388" lon="14.417688">
        <ele>206.909</ele>
        <time>1970-01-01T01:00:00Z</time>
      </trkpt>
      <trkpt lat="61.01538" lon="14.418135">
        <ele>207.273</ele>
        <time>1970-01-01T01:00:00Z</time>
      </trkpt>
      <trkpt lat="61.015392" lon="14.418377">
        <ele>207.636</ele>
        <time>1970-01-01T01:00:00Z</time>
      </trkpt>
      <trkpt lat="61.015434" lon="14.418517">
        <ele>208</ele>
        <time>1970-01-01T01:00:00Z</time>
      </trkpt>
      <trkpt lat="61.015529" lon="14.418875">
        <ele>208.455</ele>
        <time>1970-01-01T01:00:00Z</time>
      </trkpt>
      <trkpt lat="61.015537" lon="14.419107">
        <ele>208.364</ele>
        <time>1970-01-01T01:00:00Z</time>
      </trkpt>
      <trkpt lat="61.015514" lon="14.419404">
        <ele>208.273</ele>
        <time>1970-01-01T01:00:00Z</time>
      </trkpt>
      <trkpt lat="61.015495" lon="14.419657">
        <ele>208.273</ele>
        <time>1970-01-01T01:00:00Z</time>
      </trkpt>
      <trkpt lat="61.015483" lon="14.419924">
        <ele>208.273</ele>
        <time>1970-01-01T01:00:00Z</time>
      </trkpt>
      <trkpt lat="61.015483" lon="14.420126">
        <ele>208.273</ele>
        <time>1970-01-01T01:00:00Z</time>
      </trkpt>
      <trkpt lat="61.015449" lon="14.420343">
        <ele>207.727</ele>
        <time>1970-01-01T01:00:00Z</time>
      </trkpt>
      <trkpt lat="61.015411" lon="14.420555">
        <ele>207.182</ele>
        <time>1970-01-01T01:00:00Z</time>
      </trkpt>
      <trkpt lat="61.015384" lon="14.420837">
        <ele>206.636</ele>
        <time>1970-01-01T01:00:00Z</time>
      </trkpt>
      <trkpt lat="61.015354" lon="14.421065">
        <ele>206</ele>
        <time>1970-01-01T01:00:00Z</time>
      </trkpt>
      <trkpt lat="61.015335" lon="14.421306">
        <ele>205.364</ele>
        <time>1970-01-01T01:00:00Z</time>
      </trkpt>
      <trkpt lat="61.015319" lon="14.421515">
        <ele>204.727</ele>
        <time>1970-01-01T01:00:00Z</time>
      </trkpt>
      <trkpt lat="61.015293" lon="14.421776">
        <ele>204.636</ele>
        <time>1970-01-01T01:00:00Z</time>
      </trkpt>
      <trkpt lat="61.015274" lon="14.42206">
        <ele>204.636</ele>
        <time>1970-01-01T01:00:00Z</time>
      </trkpt>
      <trkpt lat="61.015228" lon="14.422499">
        <ele>204.636</ele>
        <time>1970-01-01T01:00:00Z</time>
      </trkpt>
      <trkpt lat="61.015209" lon="14.422784">
        <ele>204.636</ele>
        <time>1970-01-01T01:00:00Z</time>
      </trkpt>
      <trkpt lat="61.015171" lon="14.423171">
        <ele>204.636</ele>
        <time>1970-01-01T01:00:00Z</time>
      </trkpt>
      <trkpt lat="61.015136" lon="14.423547">
        <ele>204.727</ele>
        <time>1970-01-01T01:00:00Z</time>
      </trkpt>
      <trkpt lat="61.015087" lon="14.423854">
        <ele>204.818</ele>
        <time>1970-01-01T01:00:00Z</time>
      </trkpt>
      <trkpt lat="61.015064" lon="14.424184">
        <ele>204.909</ele>
        <time>1970-01-01T01:00:00Z</time>
      </trkpt>
      <trkpt lat="61.015045" lon="14.424271">
        <ele>205.182</ele>
        <time>1970-01-01T01:00:00Z</time>
      </trkpt>
      <trkpt lat="61.014999" lon="14.424633">
        <ele>205.455</ele>
        <time>1970-01-01T01:00:00Z</time>
      </trkpt>
      <trkpt lat="61.014976" lon="14.424972">
        <ele>205.727</ele>
        <time>1970-01-01T01:00:00Z</time>
      </trkpt>
      <trkpt lat="61.014999" lon="14.425209">
        <ele>206</ele>
        <time>1970-01-01T01:00:00Z</time>
      </trkpt>
      <trkpt lat="61.014991" lon="14.425455">
        <ele>206.182</ele>
        <time>1970-01-01T01:00:00Z</time>
      </trkpt>
      <trkpt lat="61.014999" lon="14.42571">
        <ele>206.364</ele>
        <time>1970-01-01T01:00:00Z</time>
      </trkpt>
      <trkpt lat="61.01501" lon="14.425989">
        <ele>206.545</ele>
        <time>1970-01-01T01:00:00Z</time>
      </trkpt>
      <trkpt lat="61.015007" lon="14.426266">
        <ele>206.818</ele>
        <time>1970-01-01T01:00:00Z</time>
      </trkpt>
      <trkpt lat="61.015007" lon="14.4265">
        <ele>207</ele>
        <time>1970-01-01T01:00:00Z</time>
      </trkpt>
      <trkpt lat="61.015007" lon="14.426607">
        <ele>207.364</ele>
        <time>1970-01-01T01:00:00Z</time>
      </trkpt>
      <trkpt lat="61.01498" lon="14.426959">
        <ele>207.727</ele>
        <time>1970-01-01T01:00:00Z</time>
      </trkpt>
      <trkpt lat="61.014953" lon="14.427072">
        <ele>208</ele>
        <time>1970-01-01T01:00:00Z</time>
      </trkpt>
      <trkpt lat="61.01493" lon="14.427415">
        <ele>208.273</ele>
        <time>1970-01-01T01:00:00Z</time>
      </trkpt>
      <trkpt lat="61.014934" lon="14.427587">
        <ele>208.636</ele>
        <time>1970-01-01T01:00:00Z</time>
      </trkpt>
      <trkpt lat="61.014934" lon="14.427965">
        <ele>209</ele>
        <time>1970-01-01T01:00:00Z</time>
      </trkpt>
      <trkpt lat="61.014942" lon="14.428194">
        <ele>209.364</ele>
        <time>1970-01-01T01:00:00Z</time>
      </trkpt>
      <trkpt lat="61.014942" lon="14.428481">
        <ele>209.909</ele>
        <time>1970-01-01T01:00:00Z</time>
      </trkpt>
      <trkpt lat="61.014907" lon="14.428768">
        <ele>210.455</ele>
        <time>1970-01-01T01:00:00Z</time>
      </trkpt>
      <trkpt lat="61.014862" lon="14.429134">
        <ele>210.909</ele>
        <time>1970-01-01T01:00:00Z</time>
      </trkpt>
      <trkpt lat="61.014801" lon="14.429375">
        <ele>212.091</ele>
        <time>1970-01-01T01:00:00Z</time>
      </trkpt>
      <trkpt lat="61.014781" lon="14.429572">
        <ele>213.091</ele>
        <time>1970-01-01T01:00:00Z</time>
      </trkpt>
      <trkpt lat="61.014755" lon="14.429807">
        <ele>214.091</ele>
        <time>1970-01-01T01:00:00Z</time>
      </trkpt>
      <trkpt lat="61.014701" lon="14.43013">
        <ele>215.091</ele>
        <time>1970-01-01T01:00:00Z</time>
      </trkpt>
      <trkpt lat="61.014652" lon="14.430397">
        <ele>216.091</ele>
        <time>1970-01-01T01:00:00Z</time>
      </trkpt>
      <trkpt lat="61.014625" lon="14.43056">
        <ele>217.091</ele>
        <time>1970-01-01T01:00:00Z</time>
      </trkpt>
      <trkpt lat="61.014587" lon="14.430756">
        <ele>218.091</ele>
        <time>1970-01-01T01:00:00Z</time>
      </trkpt>
      <trkpt lat="61.014549" lon="14.431013">
        <ele>219.091</ele>
        <time>1970-01-01T01:00:00Z</time>
      </trkpt>
      <trkpt lat="61.014541" lon="14.431233">
        <ele>219.909</ele>
        <time>1970-01-01T01:00:00Z</time>
      </trkpt>
      <trkpt lat="61.014537" lon="14.431291">
        <ele>220.727</ele>
        <time>1970-01-01T01:00:00Z</time>
      </trkpt>
      <trkpt lat="61.014514" lon="14.431468">
        <ele>221</ele>
        <time>1970-01-01T01:00:00Z</time>
      </trkpt>
      <trkpt lat="61.014514" lon="14.431612">
        <ele>220.545</ele>
        <time>1970-01-01T01:00:00Z</time>
      </trkpt>
      <trkpt lat="61.014499" lon="14.431796">
        <ele>220.091</ele>
        <time>1970-01-01T01:00:00Z</time>
      </trkpt>
      <trkpt lat="61.014488" lon="14.431934">
        <ele>218.455</ele>
        <time>1970-01-01T01:00:00Z</time>
      </trkpt>
      <trkpt lat="61.014492" lon="14.432133">
        <ele>216.818</ele>
        <time>1970-01-01T01:00:00Z</time>
      </trkpt>
      <trkpt lat="61.014511" lon="14.432291">
        <ele>215.182</ele>
        <time>1970-01-01T01:00:00Z</time>
      </trkpt>
      <trkpt lat="61.014503" lon="14.432566">
        <ele>213.455</ele>
        <time>1970-01-01T01:00:00Z</time>
      </trkpt>
      <trkpt lat="61.01443" lon="14.432909">
        <ele>211.455</ele>
        <time>1970-01-01T01:00:00Z</time>
      </trkpt>
      <trkpt lat="61.014385" lon="14.433157">
        <ele>209.455</ele>
        <time>1970-01-01T01:00:00Z</time>
      </trkpt>
      <trkpt lat="61.014385" lon="14.433215">
        <ele>207.455</ele>
        <time>1970-01-01T01:00:00Z</time>
      </trkpt>
      <trkpt lat="61.014328" lon="14.433587">
        <ele>205.455</ele>
        <time>1970-01-01T01:00:00Z</time>
      </trkpt>
      <trkpt lat="61.014301" lon="14.433665">
        <ele>204</ele>
        <time>1970-01-01T01:00:00Z</time>
      </trkpt>
      <trkpt lat="61.014186" lon="14.433976">
        <ele>202.545</ele>
        <time>1970-01-01T01:00:00Z</time>
      </trkpt>
      <trkpt lat="61.013996" lon="14.434548">
        <ele>201.091</ele>
        <time>1970-01-01T01:00:00Z</time>
      </trkpt>
      <trkpt lat="61.013839" lon="14.435009">
        <ele>200.818</ele>
        <time>1970-01-01T01:00:00Z</time>
      </trkpt>
      <trkpt lat="61.013801" lon="14.435115">
        <ele>200.545</ele>
        <time>1970-01-01T01:00:00Z</time>
      </trkpt>
      <trkpt lat="61.013626" lon="14.435582">
        <ele>200.273</ele>
        <time>1970-01-01T01:00:00Z</time>
      </trkpt>
      <trkpt lat="61.0135" lon="14.435708">
        <ele>200</ele>
        <time>1970-01-01T01:00:00Z</time>
      </trkpt>
      <trkpt lat="61.01337" lon="14.43578">
        <ele>200</ele>
        <time>1970-01-01T01:00:00Z</time>
      </trkpt>
      <trkpt lat="61.013313" lon="14.435815">
        <ele>200</ele>
        <time>1970-01-01T01:00:00Z</time>
      </trkpt>
      <trkpt lat="61.013298" lon="14.435818">
        <ele>200</ele>
        <time>1970-01-01T01:00:00Z</time>
      </trkpt>
      <trkpt lat="61.013271" lon="14.435823">
        <ele>200</ele>
        <time>1970-01-01T01:00:00Z</time>
      </trkpt>
      <trkpt lat="61.013175" lon="14.435948">
        <ele>200</ele>
        <time>1970-01-01T01:00:00Z</time>
      </trkpt>
      <trkpt lat="61.013103" lon="14.436056">
        <ele>200</ele>
        <time>1970-01-01T01:00:00Z</time>
      </trkpt>
      <trkpt lat="61.013027" lon="14.436232">
        <ele>200</ele>
        <time>1970-01-01T01:00:00Z</time>
      </trkpt>
      <trkpt lat="61.012928" lon="14.436508">
        <ele>200</ele>
        <time>1970-01-01T01:00:00Z</time>
      </trkpt>
      <trkpt lat="61.012836" lon="14.436732">
        <ele>200</ele>
        <time>1970-01-01T01:00:00Z</time>
      </trkpt>
      <trkpt lat="61.012729" lon="14.436916">
        <ele>200</ele>
        <time>1970-01-01T01:00:00Z</time>
      </trkpt>
      <trkpt lat="61.012611" lon="14.437106">
        <ele>200</ele>
        <time>1970-01-01T01:00:00Z</time>
      </trkpt>
      <trkpt lat="61.01247" lon="14.43727">
        <ele>200</ele>
        <time>1970-01-01T01:00:00Z</time>
      </trkpt>
      <trkpt lat="61.012393" lon="14.437353">
        <ele>199.909</ele>
        <time>1970-01-01T01:00:00Z</time>
      </trkpt>
      <trkpt lat="61.012332" lon="14.437428">
        <ele>199.818</ele>
        <time>1970-01-01T01:00:00Z</time>
      </trkpt>
      <trkpt lat="61.012218" lon="14.437551">
        <ele>199.727</ele>
        <time>1970-01-01T01:00:00Z</time>
      </trkpt>
      <trkpt lat="61.012104" lon="14.43767">
        <ele>199.636</ele>
        <time>1970-01-01T01:00:00Z</time>
      </trkpt>
      <trkpt lat="61.011997" lon="14.437818">
        <ele>199.545</ele>
        <time>1970-01-01T01:00:00Z</time>
      </trkpt>
      <trkpt lat="61.011844" lon="14.438009">
        <ele>199.455</ele>
        <time>1970-01-01T01:00:00Z</time>
      </trkpt>
      <trkpt lat="61.011737" lon="14.438177">
        <ele>199.364</ele>
        <time>1970-01-01T01:00:00Z</time>
      </trkpt>
      <trkpt lat="61.011592" lon="14.438464">
        <ele>199.273</ele>
        <time>1970-01-01T01:00:00Z</time>
      </trkpt>
      <trkpt lat="61.011474" lon="14.438673">
        <ele>199.182</ele>
        <time>1970-01-01T01:00:00Z</time>
      </trkpt>
      <trkpt lat="61.01136" lon="14.43879">
        <ele>199.091</ele>
        <time>1970-01-01T01:00:00Z</time>
      </trkpt>
      <trkpt lat="61.011276" lon="14.438794">
        <ele>199</ele>
        <time>1970-01-01T01:00:00Z</time>
      </trkpt>
      <trkpt lat="61.011188" lon="14.438887">
        <ele>199</ele>
        <time>1970-01-01T01:00:00Z</time>
      </trkpt>
      <trkpt lat="61.011108" lon="14.439044">
        <ele>198.909</ele>
        <time>1970-01-01T01:00:00Z</time>
      </trkpt>
      <trkpt lat="61.011016" lon="14.439263">
        <ele>198.818</ele>
        <time>1970-01-01T01:00:00Z</time>
      </trkpt>
      <trkpt lat="61.010978" lon="14.439312">
        <ele>198.727</ele>
        <time>1970-01-01T01:00:00Z</time>
      </trkpt>
      <trkpt lat="61.010868" lon="14.43946">
        <ele>198.636</ele>
        <time>1970-01-01T01:00:00Z</time>
      </trkpt>
      <trkpt lat="61.010765" lon="14.43959">
        <ele>198.545</ele>
        <time>1970-01-01T01:00:00Z</time>
      </trkpt>
      <trkpt lat="61.010551" lon="14.439949">
        <ele>198.455</ele>
        <time>1970-01-01T01:00:00Z</time>
      </trkpt>
      <trkpt lat="61.010444" lon="14.440139">
        <ele>198.364</ele>
        <time>1970-01-01T01:00:00Z</time>
      </trkpt>
      <trkpt lat="61.010337" lon="14.440345">
        <ele>198.273</ele>
        <time>1970-01-01T01:00:00Z</time>
      </trkpt>
      <trkpt lat="61.010246" lon="14.440518">
        <ele>198.182</ele>
        <time>1970-01-01T01:00:00Z</time>
      </trkpt>
      <trkpt lat="61.010219" lon="14.440557">
        <ele>198.091</ele>
        <time>1970-01-01T01:00:00Z</time>
      </trkpt>
      <trkpt lat="61.010082" lon="14.44069">
        <ele>198</ele>
        <time>1970-01-01T01:00:00Z</time>
      </trkpt>
      <trkpt lat="61.009998" lon="14.440771">
        <ele>198</ele>
        <time>1970-01-01T01:00:00Z</time>
      </trkpt>
      <trkpt lat="61.009933" lon="14.440819">
        <ele>198</ele>
        <time>1970-01-01T01:00:00Z</time>
      </trkpt>
      <trkpt lat="61.009819" lon="14.440935">
        <ele>198</ele>
        <time>1970-01-01T01:00:00Z</time>
      </trkpt>
      <trkpt lat="61.009708" lon="14.441042">
        <ele>198</ele>
        <time>1970-01-01T01:00:00Z</time>
      </trkpt>
      <trkpt lat="61.009674" lon="14.441066">
        <ele>198</ele>
        <time>1970-01-01T01:00:00Z</time>
      </trkpt>
      <trkpt lat="61.009624" lon="14.441106">
        <ele>198</ele>
        <time>1970-01-01T01:00:00Z</time>
      </trkpt>
      <trkpt lat="61.009601" lon="14.441129">
        <ele>198</ele>
        <time>1970-01-01T01:00:00Z</time>
      </trkpt>
      <trkpt lat="61.009578" lon="14.441144">
        <ele>198</ele>
        <time>1970-01-01T01:00:00Z</time>
      </trkpt>
      <trkpt lat="61.009494" lon="14.441184">
        <ele>198</ele>
        <time>1970-01-01T01:00:00Z</time>
      </trkpt>
      <trkpt lat="61.00938" lon="14.441205">
        <ele>198</ele>
        <time>1970-01-01T01:00:00Z</time>
      </trkpt>
      <trkpt lat="61.009239" lon="14.441329">
        <ele>198</ele>
        <time>1970-01-01T01:00:00Z</time>
      </trkpt>
      <trkpt lat="61.009151" lon="14.441389">
        <ele>198</ele>
        <time>1970-01-01T01:00:00Z</time>
      </trkpt>
      <trkpt lat="61.009075" lon="14.441514">
        <ele>198</ele>
        <time>1970-01-01T01:00:00Z</time>
      </trkpt>
      <trkpt lat="61.009048" lon="14.44155">
        <ele>198</ele>
        <time>1970-01-01T01:00:00Z</time>
      </trkpt>
      <trkpt lat="61.008914" lon="14.441807">
        <ele>198</ele>
        <time>1970-01-01T01:00:00Z</time>
      </trkpt>
      <trkpt lat="61.008831" lon="14.442037">
        <ele>197.909</ele>
        <time>1970-01-01T01:00:00Z</time>
      </trkpt>
      <trkpt lat="61.008796" lon="14.442177">
        <ele>197.818</ele>
        <time>1970-01-01T01:00:00Z</time>
      </trkpt>
      <trkpt lat="61.008735" lon="14.44249">
        <ele>197.727</ele>
        <time>1970-01-01T01:00:00Z</time>
      </trkpt>
      <trkpt lat="61.008712" lon="14.442706">
        <ele>197.636</ele>
        <time>1970-01-01T01:00:00Z</time>
      </trkpt>
      <trkpt lat="61.008644" lon="14.442957">
        <ele>197.545</ele>
        <time>1970-01-01T01:00:00Z</time>
      </trkpt>
      <trkpt lat="61.00864" lon="14.443181">
        <ele>197.455</ele>
        <time>1970-01-01T01:00:00Z</time>
      </trkpt>
      <trkpt lat="61.008666" lon="14.443516">
        <ele>197.364</ele>
        <time>1970-01-01T01:00:00Z</time>
      </trkpt>
      <trkpt lat="61.008712" lon="14.443795">
        <ele>197.273</ele>
        <time>1970-01-01T01:00:00Z</time>
      </trkpt>
      <trkpt lat="61.008811" lon="14.444056">
        <ele>197.182</ele>
        <time>1970-01-01T01:00:00Z</time>
      </trkpt>
      <trkpt lat="61.008895" lon="14.444412">
        <ele>197.091</ele>
        <time>1970-01-01T01:00:00Z</time>
      </trkpt>
      <trkpt lat="61.008945" lon="14.444684">
        <ele>196.909</ele>
        <time>1970-01-01T01:00:00Z</time>
      </trkpt>
      <trkpt lat="61.008991" lon="14.444967">
        <ele>196.818</ele>
        <time>1970-01-01T01:00:00Z</time>
      </trkpt>
      <trkpt lat="61.008991" lon="14.445234">
        <ele>196.727</ele>
        <time>1970-01-01T01:00:00Z</time>
      </trkpt>
      <trkpt lat="61.008983" lon="14.445322">
        <ele>196.636</ele>
        <time>1970-01-01T01:00:00Z</time>
      </trkpt>
      <trkpt lat="61.008964" lon="14.445491">
        <ele>196.545</ele>
        <time>1970-01-01T01:00:00Z</time>
      </trkpt>
      <trkpt lat="61.00896" lon="14.445569">
        <ele>196.455</ele>
        <time>1970-01-01T01:00:00Z</time>
      </trkpt>
      <trkpt lat="61.008953" lon="14.445645">
        <ele>196.364</ele>
        <time>1970-01-01T01:00:00Z</time>
      </trkpt>
      <trkpt lat="61.008914" lon="14.445871">
        <ele>196.273</ele>
        <time>1970-01-01T01:00:00Z</time>
      </trkpt>
      <trkpt lat="61.008888" lon="14.446026">
        <ele>196.182</ele>
        <time>1970-01-01T01:00:00Z</time>
      </trkpt>
      <trkpt lat="61.008827" lon="14.44639">
        <ele>196.091</ele>
        <time>1970-01-01T01:00:00Z</time>
      </trkpt>
      <trkpt lat="61.008789" lon="14.446595">
        <ele>196</ele>
        <time>1970-01-01T01:00:00Z</time>
      </trkpt>
      <trkpt lat="61.008781" lon="14.4469">
        <ele>196</ele>
        <time>1970-01-01T01:00:00Z</time>
      </trkpt>
      <trkpt lat="61.008754" lon="14.447072">
        <ele>196</ele>
        <time>1970-01-01T01:00:00Z</time>
      </trkpt>
      <trkpt lat="61.008747" lon="14.447348">
        <ele>196</ele>
        <time>1970-01-01T01:00:00Z</time>
      </trkpt>
      <trkpt lat="61.0088" lon="14.447649">
        <ele>196</ele>
        <time>1970-01-01T01:00:00Z</time>
      </trkpt>
      <trkpt lat="61.0088" lon="14.447712">
        <ele>196</ele>
        <time>1970-01-01T01:00:00Z</time>
      </trkpt>
      <trkpt lat="61.008789" lon="14.448054">
        <ele>196</ele>
        <time>1970-01-01T01:00:00Z</time>
      </trkpt>
      <trkpt lat="61.008781" lon="14.44831">
        <ele>196</ele>
        <time>1970-01-01T01:00:00Z</time>
      </trkpt>
      <trkpt lat="61.008769" lon="14.448489">
        <ele>196</ele>
        <time>1970-01-01T01:00:00Z</time>
      </trkpt>
      <trkpt lat="61.008754" lon="14.448713">
        <ele>196</ele>
        <time>1970-01-01T01:00:00Z</time>
      </trkpt>
      <trkpt lat="61.008739" lon="14.448938">
        <ele>196</ele>
        <time>1970-01-01T01:00:00Z</time>
      </trkpt>
      <trkpt lat="61.008724" lon="14.448998">
        <ele>196</ele>
        <time>1970-01-01T01:00:00Z</time>
      </trkpt>
      <trkpt lat="61.008708" lon="14.449156">
        <ele>196</ele>
        <time>1970-01-01T01:00:00Z</time>
      </trkpt>
      <trkpt lat="61.008689" lon="14.449536">
        <ele>196</ele>
        <time>1970-01-01T01:00:00Z</time>
      </trkpt>
      <trkpt lat="61.008674" lon="14.449882">
        <ele>195.909</ele>
        <time>1970-01-01T01:00:00Z</time>
      </trkpt>
      <trkpt lat="61.008636" lon="14.450176">
        <ele>195.818</ele>
        <time>1970-01-01T01:00:00Z</time>
      </trkpt>
      <trkpt lat="61.008636" lon="14.450419">
        <ele>195.727</ele>
        <time>1970-01-01T01:00:00Z</time>
      </trkpt>
      <trkpt lat="61.008651" lon="14.450629">
        <ele>195.636</ele>
        <time>1970-01-01T01:00:00Z</time>
      </trkpt>
      <trkpt lat="61.00875" lon="14.450986">
        <ele>195.545</ele>
        <time>1970-01-01T01:00:00Z</time>
      </trkpt>
      <trkpt lat="61.008892" lon="14.451225">
        <ele>195.455</ele>
        <time>1970-01-01T01:00:00Z</time>
      </trkpt>
      <trkpt lat="61.008953" lon="14.451333">
        <ele>195.364</ele>
        <time>1970-01-01T01:00:00Z</time>
      </trkpt>
      <trkpt lat="61.009067" lon="14.451568">
        <ele>195.273</ele>
        <time>1970-01-01T01:00:00Z</time>
      </trkpt>
      <trkpt lat="61.009189" lon="14.45185">
        <ele>195.182</ele>
        <time>1970-01-01T01:00:00Z</time>
      </trkpt>
      <trkpt lat="61.009239" lon="14.452013">
        <ele>195.091</ele>
        <time>1970-01-01T01:00:00Z</time>
      </trkpt>
      <trkpt lat="61.009269" lon="14.452225">
        <ele>195.091</ele>
        <time>1970-01-01T01:00:00Z</time>
      </trkpt>
      <trkpt lat="61.009311" lon="14.452573">
        <ele>195.182</ele>
        <time>1970-01-01T01:00:00Z</time>
      </trkpt>
      <trkpt lat="61.009342" lon="14.452765">
        <ele>195.273</ele>
        <time>1970-01-01T01:00:00Z</time>
      </trkpt>
      <trkpt lat="61.009361" lon="14.452945">
        <ele>195.364</ele>
        <time>1970-01-01T01:00:00Z</time>
      </trkpt>
      <trkpt lat="61.009365" lon="14.452986">
        <ele>195.455</ele>
        <time>1970-01-01T01:00:00Z</time>
      </trkpt>
      <trkpt lat="61.009387" lon="14.45322">
        <ele>195.545</ele>
        <time>1970-01-01T01:00:00Z</time>
      </trkpt>
      <trkpt lat="61.009349" lon="14.453378">
        <ele>195.636</ele>
        <time>1970-01-01T01:00:00Z</time>
      </trkpt>
      <trkpt lat="61.009281" lon="14.453557">
        <ele>195.727</ele>
        <time>1970-01-01T01:00:00Z</time>
      </trkpt>
      <trkpt lat="61.009262" lon="14.453681">
        <ele>195.818</ele>
        <time>1970-01-01T01:00:00Z</time>
      </trkpt>
      <trkpt lat="61.009265" lon="14.453857">
        <ele>195.909</ele>
        <time>1970-01-01T01:00:00Z</time>
      </trkpt>
      <trkpt lat="61.00925" lon="14.45403">
        <ele>196</ele>
        <time>1970-01-01T01:00:00Z</time>
      </trkpt>
      <trkpt lat="61.009212" lon="14.454185">
        <ele>196</ele>
        <time>1970-01-01T01:00:00Z</time>
      </trkpt>
      <trkpt lat="61.009181" lon="14.454269">
        <ele>196</ele>
        <time>1970-01-01T01:00:00Z</time>
      </trkpt>
      <trkpt lat="61.009162" lon="14.454348">
        <ele>196.091</ele>
        <time>1970-01-01T01:00:00Z</time>
      </trkpt>
      <trkpt lat="61.009113" lon="14.45448">
        <ele>196.182</ele>
        <time>1970-01-01T01:00:00Z</time>
      </trkpt>
      <trkpt lat="61.009056" lon="14.454648">
        <ele>196.273</ele>
        <time>1970-01-01T01:00:00Z</time>
      </trkpt>
      <trkpt lat="61.008949" lon="14.454932">
        <ele>196.364</ele>
        <time>1970-01-01T01:00:00Z</time>
      </trkpt>
      <trkpt lat="61.00885" lon="14.455186">
        <ele>196.455</ele>
        <time>1970-01-01T01:00:00Z</time>
      </trkpt>
      <trkpt lat="61.008762" lon="14.455364">
        <ele>196.545</ele>
        <time>1970-01-01T01:00:00Z</time>
      </trkpt>
      <trkpt lat="61.00867" lon="14.455564">
        <ele>196.636</ele>
        <time>1970-01-01T01:00:00Z</time>
      </trkpt>
      <trkpt lat="61.008579" lon="14.45578">
        <ele>196.727</ele>
        <time>1970-01-01T01:00:00Z</time>
      </trkpt>
      <trkpt lat="61.008472" lon="14.456027">
        <ele>196.818</ele>
        <time>1970-01-01T01:00:00Z</time>
      </trkpt>
      <trkpt lat="61.008411" lon="14.456182">
        <ele>197</ele>
        <time>1970-01-01T01:00:00Z</time>
      </trkpt>
      <trkpt lat="61.008342" lon="14.456361">
        <ele>197.182</ele>
        <time>1970-01-01T01:00:00Z</time>
      </trkpt>
      <trkpt lat="61.008304" lon="14.456508">
        <ele>197.273</ele>
        <time>1970-01-01T01:00:00Z</time>
      </trkpt>
      <trkpt lat="61.008258" lon="14.456716">
        <ele>197.455</ele>
        <time>1970-01-01T01:00:00Z</time>
      </trkpt>
      <trkpt lat="61.00819" lon="14.457025">
        <ele>197.636</ele>
        <time>1970-01-01T01:00:00Z</time>
      </trkpt>
      <trkpt lat="61.00811" lon="14.4573">
        <ele>197.818</ele>
        <time>1970-01-01T01:00:00Z</time>
      </trkpt>
      <trkpt lat="61.008037" lon="14.457584">
        <ele>198</ele>
        <time>1970-01-01T01:00:00Z</time>
      </trkpt>
      <trkpt lat="61.007946" lon="14.457801">
        <ele>198.182</ele>
        <time>1970-01-01T01:00:00Z</time>
      </trkpt>
      <trkpt lat="61.007869" lon="14.457965">
        <ele>198.364</ele>
        <time>1970-01-01T01:00:00Z</time>
      </trkpt>
      <trkpt lat="61.007839" lon="14.458061">
        <ele>198.545</ele>
        <time>1970-01-01T01:00:00Z</time>
      </trkpt>
      <trkpt lat="61.007778" lon="14.458268">
        <ele>198.727</ele>
        <time>1970-01-01T01:00:00Z</time>
      </trkpt>
      <trkpt lat="61.007755" lon="14.458519">
        <ele>198.909</ele>
        <time>1970-01-01T01:00:00Z</time>
      </trkpt>
      <trkpt lat="61.00774" lon="14.458692">
        <ele>199.091</ele>
        <time>1970-01-01T01:00:00Z</time>
      </trkpt>
      <trkpt lat="61.007732" lon="14.458929">
        <ele>199.273</ele>
        <time>1970-01-01T01:00:00Z</time>
      </trkpt>
      <trkpt lat="61.00772" lon="14.459094">
        <ele>199.364</ele>
        <time>1970-01-01T01:00:00Z</time>
      </trkpt>
      <trkpt lat="61.007675" lon="14.459397">
        <ele>199.455</ele>
        <time>1970-01-01T01:00:00Z</time>
      </trkpt>
      <trkpt lat="61.007621" lon="14.459672">
        <ele>199.545</ele>
        <time>1970-01-01T01:00:00Z</time>
      </trkpt>
      <trkpt lat="61.007587" lon="14.459901">
        <ele>199.636</ele>
        <time>1970-01-01T01:00:00Z</time>
      </trkpt>
      <trkpt lat="61.007541" lon="14.460195">
        <ele>199.727</ele>
        <time>1970-01-01T01:00:00Z</time>
      </trkpt>
      <trkpt lat="61.007503" lon="14.460368">
        <ele>199.818</ele>
        <time>1970-01-01T01:00:00Z</time>
      </trkpt>
      <trkpt lat="61.007465" lon="14.460612">
        <ele>199.909</ele>
        <time>1970-01-01T01:00:00Z</time>
      </trkpt>
      <trkpt lat="61.007438" lon="14.460832">
        <ele>200</ele>
        <time>1970-01-01T01:00:00Z</time>
      </trkpt>
      <trkpt lat="61.007389" lon="14.461084">
        <ele>200</ele>
        <time>1970-01-01T01:00:00Z</time>
      </trkpt>
      <trkpt lat="61.007377" lon="14.461266">
        <ele>200</ele>
        <time>1970-01-01T01:00:00Z</time>
      </trkpt>
      <trkpt lat="61.00735" lon="14.461432">
        <ele>200</ele>
        <time>1970-01-01T01:00:00Z</time>
      </trkpt>
      <trkpt lat="61.007278" lon="14.461677">
        <ele>200</ele>
        <time>1970-01-01T01:00:00Z</time>
      </trkpt>
      <trkpt lat="61.007217" lon="14.461889">
        <ele>200</ele>
        <time>1970-01-01T01:00:00Z</time>
      </trkpt>
      <trkpt lat="61.007171" lon="14.46203">
        <ele>200</ele>
        <time>1970-01-01T01:00:00Z</time>
      </trkpt>
      <trkpt lat="61.007068" lon="14.462241">
        <ele>200</ele>
        <time>1970-01-01T01:00:00Z</time>
      </trkpt>
      <trkpt lat="61.00698" lon="14.462396">
        <ele>200</ele>
        <time>1970-01-01T01:00:00Z</time>
      </trkpt>
      <trkpt lat="61.006927" lon="14.462468">
        <ele>200</ele>
        <time>1970-01-01T01:00:00Z</time>
      </trkpt>
      <trkpt lat="61.006839" lon="14.462669">
        <ele>200</ele>
        <time>1970-01-01T01:00:00Z</time>
      </trkpt>
      <trkpt lat="61.006809" lon="14.462767">
        <ele>200</ele>
        <time>1970-01-01T01:00:00Z</time>
      </trkpt>
      <trkpt lat="61.006763" lon="14.462891">
        <ele>200</ele>
        <time>1970-01-01T01:00:00Z</time>
      </trkpt>
      <trkpt lat="61.00674" lon="14.462966">
        <ele>200</ele>
        <time>1970-01-01T01:00:00Z</time>
      </trkpt>
      <trkpt lat="61.00669" lon="14.463201">
        <ele>200</ele>
        <time>1970-01-01T01:00:00Z</time>
      </trkpt>
      <trkpt lat="61.006641" lon="14.463441">
        <ele>200</ele>
        <time>1970-01-01T01:00:00Z</time>
      </trkpt>
      <trkpt lat="61.006572" lon="14.463746">
        <ele>200</ele>
        <time>1970-01-01T01:00:00Z</time>
      </trkpt>
      <trkpt lat="61.006542" lon="14.463834">
        <ele>200</ele>
        <time>1970-01-01T01:00:00Z</time>
      </trkpt>
      <trkpt lat="61.006519" lon="14.463914">
        <ele>200</ele>
        <time>1970-01-01T01:00:00Z</time>
      </trkpt>
      <trkpt lat="61.006484" lon="14.464199">
        <ele>200</ele>
        <time>1970-01-01T01:00:00Z</time>
      </trkpt>
      <trkpt lat="61.006427" lon="14.464517">
        <ele>200</ele>
        <time>1970-01-01T01:00:00Z</time>
      </trkpt>
      <trkpt lat="61.006401" lon="14.464639">
        <ele>200</ele>
        <time>1970-01-01T01:00:00Z</time>
      </trkpt>
      <trkpt lat="61.006317" lon="14.464953">
        <ele>200</ele>
        <time>1970-01-01T01:00:00Z</time>
      </trkpt>
      <trkpt lat="61.006298" lon="14.465101">
        <ele>200</ele>
        <time>1970-01-01T01:00:00Z</time>
      </trkpt>
      <trkpt lat="61.006259" lon="14.465413">
        <ele>200</ele>
        <time>1970-01-01T01:00:00Z</time>
      </trkpt>
      <trkpt lat="61.006248" lon="14.465499">
        <ele>200</ele>
        <time>1970-01-01T01:00:00Z</time>
      </trkpt>
      <trkpt lat="61.006183" lon="14.46573">
        <ele>200</ele>
        <time>1970-01-01T01:00:00Z</time>
      </trkpt>
      <trkpt lat="61.006118" lon="14.465894">
        <ele>200</ele>
        <time>1970-01-01T01:00:00Z</time>
      </trkpt>
      <trkpt lat="61.006" lon="14.466081">
        <ele>200</ele>
        <time>1970-01-01T01:00:00Z</time>
      </trkpt>
      <trkpt lat="61.005973" lon="14.466133">
        <ele>200</ele>
        <time>1970-01-01T01:00:00Z</time>
      </trkpt>
      <trkpt lat="61.005889" lon="14.466311">
        <ele>200</ele>
        <time>1970-01-01T01:00:00Z</time>
      </trkpt>
      <trkpt lat="61.005825" lon="14.466409">
        <ele>200</ele>
        <time>1970-01-01T01:00:00Z</time>
      </trkpt>
      <trkpt lat="61.005744" lon="14.466621">
        <ele>200</ele>
        <time>1970-01-01T01:00:00Z</time>
      </trkpt>
      <trkpt lat="61.005683" lon="14.466736">
        <ele>200</ele>
        <time>1970-01-01T01:00:00Z</time>
      </trkpt>
      <trkpt lat="61.005592" lon="14.466994">
        <ele>200</ele>
        <time>1970-01-01T01:00:00Z</time>
      </trkpt>
      <trkpt lat="61.005535" lon="14.467126">
        <ele>200</ele>
        <time>1970-01-01T01:00:00Z</time>
      </trkpt>
      <trkpt lat="61.005516" lon="14.467179">
        <ele>200</ele>
        <time>1970-01-01T01:00:00Z</time>
      </trkpt>
      <trkpt lat="61.005451" lon="14.467372">
        <ele>200</ele>
        <time>1970-01-01T01:00:00Z</time>
      </trkpt>
      <trkpt lat="61.005401" lon="14.467528">
        <ele>200</ele>
        <time>1970-01-01T01:00:00Z</time>
      </trkpt>
      <trkpt lat="61.005363" lon="14.467677">
        <ele>200</ele>
        <time>1970-01-01T01:00:00Z</time>
      </trkpt>
      <trkpt lat="61.005252" lon="14.46794">
        <ele>200</ele>
        <time>1970-01-01T01:00:00Z</time>
      </trkpt>
      <trkpt lat="61.005142" lon="14.468288">
        <ele>200</ele>
        <time>1970-01-01T01:00:00Z</time>
      </trkpt>
      <trkpt lat="61.005031" lon="14.468684">
        <ele>200</ele>
        <time>1970-01-01T01:00:00Z</time>
      </trkpt>
      <trkpt lat="61.00497" lon="14.468967">
        <ele>200</ele>
        <time>1970-01-01T01:00:00Z</time>
      </trkpt>
      <trkpt lat="61.004924" lon="14.469268">
        <ele>200</ele>
        <time>1970-01-01T01:00:00Z</time>
      </trkpt>
      <trkpt lat="61.004894" lon="14.469421">
        <ele>200</ele>
        <time>1970-01-01T01:00:00Z</time>
      </trkpt>
      <trkpt lat="61.004856" lon="14.469636">
        <ele>200</ele>
        <time>1970-01-01T01:00:00Z</time>
      </trkpt>
      <trkpt lat="61.004814" lon="14.469873">
        <ele>200</ele>
        <time>1970-01-01T01:00:00Z</time>
      </trkpt>
      <trkpt lat="61.004806" lon="14.470113">
        <ele>200</ele>
        <time>1970-01-01T01:00:00Z</time>
      </trkpt>
      <trkpt lat="61.004821" lon="14.470255">
        <ele>200</ele>
        <time>1970-01-01T01:00:00Z</time>
      </trkpt>
      <trkpt lat="61.00489" lon="14.470538">
        <ele>200</ele>
        <time>1970-01-01T01:00:00Z</time>
      </trkpt>
      <trkpt lat="61.00492" lon="14.470833">
        <ele>200</ele>
        <time>1970-01-01T01:00:00Z</time>
      </trkpt>
      <trkpt lat="61.00494" lon="14.471026">
        <ele>200</ele>
        <time>1970-01-01T01:00:00Z</time>
      </trkpt>
      <trkpt lat="61.004943" lon="14.471245">
        <ele>200</ele>
        <time>1970-01-01T01:00:00Z</time>
      </trkpt>
      <trkpt lat="61.004985" lon="14.471539">
        <ele>200</ele>
        <time>1970-01-01T01:00:00Z</time>
      </trkpt>
      <trkpt lat="61.005012" lon="14.471742">
        <ele>200</ele>
        <time>1970-01-01T01:00:00Z</time>
      </trkpt>
      <trkpt lat="61.005023" lon="14.471846">
        <ele>200</ele>
        <time>1970-01-01T01:00:00Z</time>
      </trkpt>
      <trkpt lat="61.00505" lon="14.472037">
        <ele>200</ele>
        <time>1970-01-01T01:00:00Z</time>
      </trkpt>
      <trkpt lat="61.005058" lon="14.472085">
        <ele>200</ele>
        <time>1970-01-01T01:00:00Z</time>
      </trkpt>
      <trkpt lat="61.005031" lon="14.472304">
        <ele>200</ele>
        <time>1970-01-01T01:00:00Z</time>
      </trkpt>
      <trkpt lat="61.004962" lon="14.472612">
        <ele>200</ele>
        <time>1970-01-01T01:00:00Z</time>
      </trkpt>
      <trkpt lat="61.004913" lon="14.472867">
        <ele>199.909</ele>
        <time>1970-01-01T01:00:00Z</time>
      </trkpt>
      <trkpt lat="61.004894" lon="14.473088">
        <ele>199.818</ele>
        <time>1970-01-01T01:00:00Z</time>
      </trkpt>
      <trkpt lat="61.004886" lon="14.47327">
        <ele>199.727</ele>
        <time>1970-01-01T01:00:00Z</time>
      </trkpt>
      <trkpt lat="61.004871" lon="14.473581">
        <ele>199.636</ele>
        <time>1970-01-01T01:00:00Z</time>
      </trkpt>
      <trkpt lat="61.004886" lon="14.473757">
        <ele>199.545</ele>
        <time>1970-01-01T01:00:00Z</time>
      </trkpt>
      <trkpt lat="61.004894" lon="14.473893">
        <ele>199.455</ele>
        <time>1970-01-01T01:00:00Z</time>
      </trkpt>
      <trkpt lat="61.004924" lon="14.474118">
        <ele>199.364</ele>
        <time>1970-01-01T01:00:00Z</time>
      </trkpt>
      <trkpt lat="61.004924" lon="14.474191">
        <ele>199.273</ele>
        <time>1970-01-01T01:00:00Z</time>
      </trkpt>
      <trkpt lat="61.004936" lon="14.474366">
        <ele>199.182</ele>
        <time>1970-01-01T01:00:00Z</time>
      </trkpt>
      <trkpt lat="61.004936" lon="14.474537">
        <ele>199.091</ele>
        <time>1970-01-01T01:00:00Z</time>
      </trkpt>
      <trkpt lat="61.004997" lon="14.47471">
        <ele>199</ele>
        <time>1970-01-01T01:00:00Z</time>
      </trkpt>
      <trkpt lat="61.005062" lon="14.474988">
        <ele>199</ele>
        <time>1970-01-01T01:00:00Z</time>
      </trkpt>
      <trkpt lat="61.005084" lon="14.475142">
        <ele>199</ele>
        <time>1970-01-01T01:00:00Z</time>
      </trkpt>
      <trkpt lat="61.005096" lon="14.475191">
        <ele>199</ele>
        <time>1970-01-01T01:00:00Z</time>
      </trkpt>
      <trkpt lat="61.005084" lon="14.475424">
        <ele>199</ele>
        <time>1970-01-01T01:00:00Z</time>
      </trkpt>
      <trkpt lat="61.005084" lon="14.475484">
        <ele>199</ele>
        <time>1970-01-01T01:00:00Z</time>
      </trkpt>
      <trkpt lat="61.005088" lon="14.475631">
        <ele>199</ele>
        <time>1970-01-01T01:00:00Z</time>
      </trkpt>
      <trkpt lat="61.005142" lon="14.475923">
        <ele>199</ele>
        <time>1970-01-01T01:00:00Z</time>
      </trkpt>
      <trkpt lat="61.005161" lon="14.476237">
        <ele>199</ele>
        <time>1970-01-01T01:00:00Z</time>
      </trkpt>
      <trkpt lat="61.005142" lon="14.476649">
        <ele>199</ele>
        <time>1970-01-01T01:00:00Z</time>
      </trkpt>
      <trkpt lat="61.00513" lon="14.476723">
        <ele>199</ele>
        <time>1970-01-01T01:00:00Z</time>
      </trkpt>
      <trkpt lat="61.005111" lon="14.477036">
        <ele>199</ele>
        <time>1970-01-01T01:00:00Z</time>
      </trkpt>
      <trkpt lat="61.005069" lon="14.477547">
        <ele>199</ele>
        <time>1970-01-01T01:00:00Z</time>
      </trkpt>
      <trkpt lat="61.005031" lon="14.477767">
        <ele>199</ele>
        <time>1970-01-01T01:00:00Z</time>
      </trkpt>
      <trkpt lat="61.005012" lon="14.477838">
        <ele>199</ele>
        <time>1970-01-01T01:00:00Z</time>
      </trkpt>
      <trkpt lat="61.00494" lon="14.478194">
        <ele>199</ele>
        <time>1970-01-01T01:00:00Z</time>
      </trkpt>
      <trkpt lat="61.004928" lon="14.478441">
        <ele>199</ele>
        <time>1970-01-01T01:00:00Z</time>
      </trkpt>
      <trkpt lat="61.004894" lon="14.478664">
        <ele>199</ele>
        <time>1970-01-01T01:00:00Z</time>
      </trkpt>
      <trkpt lat="61.004867" lon="14.478893">
        <ele>199</ele>
        <time>1970-01-01T01:00:00Z</time>
      </trkpt>
      <trkpt lat="61.004802" lon="14.479144">
        <ele>199</ele>
        <time>1970-01-01T01:00:00Z</time>
      </trkpt>
      <trkpt lat="61.004791" lon="14.479257">
        <ele>198.909</ele>
        <time>1970-01-01T01:00:00Z</time>
      </trkpt>
      <trkpt lat="61.004737" lon="14.479412">
        <ele>198.818</ele>
        <time>1970-01-01T01:00:00Z</time>
      </trkpt>
      <trkpt lat="61.004699" lon="14.479705">
        <ele>198.727</ele>
        <time>1970-01-01T01:00:00Z</time>
      </trkpt>
      <trkpt lat="61.004676" lon="14.4798">
        <ele>198.636</ele>
        <time>1970-01-01T01:00:00Z</time>
      </trkpt>
      <trkpt lat="61.004638" lon="14.480138">
        <ele>198.545</ele>
        <time>1970-01-01T01:00:00Z</time>
      </trkpt>
      <trkpt lat="61.004611" lon="14.480348">
        <ele>198.455</ele>
        <time>1970-01-01T01:00:00Z</time>
      </trkpt>
      <trkpt lat="61.00455" lon="14.48057">
        <ele>198.364</ele>
        <time>1970-01-01T01:00:00Z</time>
      </trkpt>
      <trkpt lat="61.004497" lon="14.480792">
        <ele>198.273</ele>
        <time>1970-01-01T01:00:00Z</time>
      </trkpt>
      <trkpt lat="61.004447" lon="14.481019">
        <ele>198.182</ele>
        <time>1970-01-01T01:00:00Z</time>
      </trkpt>
      <trkpt lat="61.004405" lon="14.481326">
        <ele>198.091</ele>
        <time>1970-01-01T01:00:00Z</time>
      </trkpt>
      <trkpt lat="61.004405" lon="14.481489">
        <ele>198</ele>
        <time>1970-01-01T01:00:00Z</time>
      </trkpt>
      <trkpt lat="61.004405" lon="14.481765">
        <ele>198</ele>
        <time>1970-01-01T01:00:00Z</time>
      </trkpt>
      <trkpt lat="61.004436" lon="14.481963">
        <ele>198.091</ele>
        <time>1970-01-01T01:00:00Z</time>
      </trkpt>
      <trkpt lat="61.004467" lon="14.482104">
        <ele>198.182</ele>
        <time>1970-01-01T01:00:00Z</time>
      </trkpt>
      <trkpt lat="61.004528" lon="14.482275">
        <ele>198.273</ele>
        <time>1970-01-01T01:00:00Z</time>
      </trkpt>
      <trkpt lat="61.004566" lon="14.482433">
        <ele>198.364</ele>
        <time>1970-01-01T01:00:00Z</time>
      </trkpt>
      <trkpt lat="61.004585" lon="14.482489">
        <ele>198.455</ele>
        <time>1970-01-01T01:00:00Z</time>
      </trkpt>
      <trkpt lat="61.004661" lon="14.482783">
        <ele>198.545</ele>
        <time>1970-01-01T01:00:00Z</time>
      </trkpt>
      <trkpt lat="61.004726" lon="14.483046">
        <ele>198.545</ele>
        <time>1970-01-01T01:00:00Z</time>
      </trkpt>
      <trkpt lat="61.004772" lon="14.483378">
        <ele>198.545</ele>
        <time>1970-01-01T01:00:00Z</time>
      </trkpt>
      <trkpt lat="61.004776" lon="14.483625">
        <ele>198.545</ele>
        <time>1970-01-01T01:00:00Z</time>
      </trkpt>
      <trkpt lat="61.004718" lon="14.48376">
        <ele>198.545</ele>
        <time>1970-01-01T01:00:00Z</time>
      </trkpt>
      <trkpt lat="61.004631" lon="14.483835">
        <ele>198.455</ele>
        <time>1970-01-01T01:00:00Z</time>
      </trkpt>
      <trkpt lat="61.004501" lon="14.484045">
        <ele>198.273</ele>
        <time>1970-01-01T01:00:00Z</time>
      </trkpt>
      <trkpt lat="61.00439" lon="14.484189">
        <ele>198.091</ele>
        <time>1970-01-01T01:00:00Z</time>
      </trkpt>
      <trkpt lat="61.004234" lon="14.484423">
        <ele>197.909</ele>
        <time>1970-01-01T01:00:00Z</time>
      </trkpt>
      <trkpt lat="61.004138" lon="14.484665">
        <ele>197.727</ele>
        <time>1970-01-01T01:00:00Z</time>
      </trkpt>
      <trkpt lat="61.0041" lon="14.484756">
        <ele>197.364</ele>
        <time>1970-01-01T01:00:00Z</time>
      </trkpt>
      <trkpt lat="61.004024" lon="14.484958">
        <ele>197</ele>
        <time>1970-01-01T01:00:00Z</time>
      </trkpt>
      <trkpt lat="61.003944" lon="14.485103">
        <ele>196.727</ele>
        <time>1970-01-01T01:00:00Z</time>
      </trkpt>
      <trkpt lat="61.003868" lon="14.48528">
        <ele>196.455</ele>
        <time>1970-01-01T01:00:00Z</time>
      </trkpt>
      <trkpt lat="61.003833" lon="14.485343">
        <ele>196.182</ele>
        <time>1970-01-01T01:00:00Z</time>
      </trkpt>
      <trkpt lat="61.003704" lon="14.485566">
        <ele>195.909</ele>
        <time>1970-01-01T01:00:00Z</time>
      </trkpt>
      <trkpt lat="61.00362" lon="14.485703">
        <ele>195.727</ele>
        <time>1970-01-01T01:00:00Z</time>
      </trkpt>
      <trkpt lat="61.003471" lon="14.48591">
        <ele>195.545</ele>
        <time>1970-01-01T01:00:00Z</time>
      </trkpt>
      <trkpt lat="61.003398" lon="14.48609">
        <ele>195.273</ele>
        <time>1970-01-01T01:00:00Z</time>
      </trkpt>
      <trkpt lat="61.003364" lon="14.486246">
        <ele>195</ele>
        <time>1970-01-01T01:00:00Z</time>
      </trkpt>
      <trkpt lat="61.003356" lon="14.486479">
        <ele>194.636</ele>
        <time>1970-01-01T01:00:00Z</time>
      </trkpt>
      <trkpt lat="61.003337" lon="14.486834">
        <ele>194.455</ele>
        <time>1970-01-01T01:00:00Z</time>
      </trkpt>
      <trkpt lat="61.00328" lon="14.487083">
        <ele>194.273</ele>
        <time>1970-01-01T01:00:00Z</time>
      </trkpt>
      <trkpt lat="61.003261" lon="14.487169">
        <ele>194</ele>
        <time>1970-01-01T01:00:00Z</time>
      </trkpt>
      <trkpt lat="61.003219" lon="14.487507">
        <ele>193.727</ele>
        <time>1970-01-01T01:00:00Z</time>
      </trkpt>
      <trkpt lat="61.003162" lon="14.488233">
        <ele>193.455</ele>
        <time>1970-01-01T01:00:00Z</time>
      </trkpt>
      <trkpt lat="61.003143" lon="14.488468">
        <ele>193.182</ele>
        <time>1970-01-01T01:00:00Z</time>
      </trkpt>
      <trkpt lat="61.003143" lon="14.488771">
        <ele>192.818</ele>
        <time>1970-01-01T01:00:00Z</time>
      </trkpt>
      <trkpt lat="61.003135" lon="14.488964">
        <ele>192.455</ele>
        <time>1970-01-01T01:00:00Z</time>
      </trkpt>
      <trkpt lat="61.00312" lon="14.48928">
        <ele>192.182</ele>
        <time>1970-01-01T01:00:00Z</time>
      </trkpt>
      <trkpt lat="61.003124" lon="14.489442">
        <ele>191.727</ele>
        <time>1970-01-01T01:00:00Z</time>
      </trkpt>
      <trkpt lat="61.003135" lon="14.489564">
        <ele>191.364</ele>
        <time>1970-01-01T01:00:00Z</time>
      </trkpt>
      <trkpt lat="61.003116" lon="14.48989">
        <ele>191</ele>
        <time>1970-01-01T01:00:00Z</time>
      </trkpt>
      <trkpt lat="61.003078" lon="14.49008">
        <ele>190.636</ele>
        <time>1970-01-01T01:00:00Z</time>
      </trkpt>
      <trkpt lat="61.003044" lon="14.490266">
        <ele>190.364</ele>
        <time>1970-01-01T01:00:00Z</time>
      </trkpt>
      <trkpt lat="61.003005" lon="14.490512">
        <ele>189.909</ele>
        <time>1970-01-01T01:00:00Z</time>
      </trkpt>
      <trkpt lat="61.003028" lon="14.490743">
        <ele>189.455</ele>
        <time>1970-01-01T01:00:00Z</time>
      </trkpt>
      <trkpt lat="61.003055" lon="14.490882">
        <ele>189</ele>
        <time>1970-01-01T01:00:00Z</time>
      </trkpt>
      <trkpt lat="61.003112" lon="14.491163">
        <ele>188.636</ele>
        <time>1970-01-01T01:00:00Z</time>
      </trkpt>
      <trkpt lat="61.003219" lon="14.491336">
        <ele>188.273</ele>
        <time>1970-01-01T01:00:00Z</time>
      </trkpt>
      <trkpt lat="61.003345" lon="14.491479">
        <ele>187.909</ele>
        <time>1970-01-01T01:00:00Z</time>
      </trkpt>
      <trkpt lat="61.003452" lon="14.491617">
        <ele>187.727</ele>
        <time>1970-01-01T01:00:00Z</time>
      </trkpt>
      <trkpt lat="61.00354" lon="14.491761">
        <ele>187.545</ele>
        <time>1970-01-01T01:00:00Z</time>
      </trkpt>
      <trkpt lat="61.003597" lon="14.49184">
        <ele>187.182</ele>
        <time>1970-01-01T01:00:00Z</time>
      </trkpt>
      <trkpt lat="61.003616" lon="14.491869">
        <ele>186.818</ele>
        <time>1970-01-01T01:00:00Z</time>
      </trkpt>
      <trkpt lat="61.003665" lon="14.491933">
        <ele>186.455</ele>
        <time>1970-01-01T01:00:00Z</time>
      </trkpt>
      <trkpt lat="61.003772" lon="14.492104">
        <ele>186.273</ele>
        <time>1970-01-01T01:00:00Z</time>
      </trkpt>
      <trkpt lat="61.003807" lon="14.492177">
        <ele>186.091</ele>
        <time>1970-01-01T01:00:00Z</time>
      </trkpt>
      <trkpt lat="61.003841" lon="14.49227">
        <ele>185.909</ele>
        <time>1970-01-01T01:00:00Z</time>
      </trkpt>
      <trkpt lat="61.003906" lon="14.492399">
        <ele>185.727</ele>
        <time>1970-01-01T01:00:00Z</time>
      </trkpt>
      <trkpt lat="61.003913" lon="14.492421">
        <ele>185.364</ele>
        <time>1970-01-01T01:00:00Z</time>
      </trkpt>
      <trkpt lat="61.003932" lon="14.492509">
        <ele>185</ele>
        <time>1970-01-01T01:00:00Z</time>
      </trkpt>
      <trkpt lat="61.003936" lon="14.492546">
        <ele>184.636</ele>
        <time>1970-01-01T01:00:00Z</time>
      </trkpt>
      <trkpt lat="61.003974" lon="14.492726">
        <ele>184.091</ele>
        <time>1970-01-01T01:00:00Z</time>
      </trkpt>
      <trkpt lat="61.003997" lon="14.492887">
        <ele>183.727</ele>
        <time>1970-01-01T01:00:00Z</time>
      </trkpt>
      <trkpt lat="61.00402" lon="14.493087">
        <ele>183.364</ele>
        <time>1970-01-01T01:00:00Z</time>
      </trkpt>
      <trkpt lat="61.004077" lon="14.493338">
        <ele>182.909</ele>
        <time>1970-01-01T01:00:00Z</time>
      </trkpt>
      <trkpt lat="61.004207" lon="14.493707">
        <ele>182.455</ele>
        <time>1970-01-01T01:00:00Z</time>
      </trkpt>
      <trkpt lat="61.004283" lon="14.493945">
        <ele>182</ele>
        <time>1970-01-01T01:00:00Z</time>
      </trkpt>
      <trkpt lat="61.004318" lon="14.494076">
        <ele>181.636</ele>
        <time>1970-01-01T01:00:00Z</time>
      </trkpt>
      <trkpt lat="61.004409" lon="14.494525">
        <ele>181.273</ele>
        <time>1970-01-01T01:00:00Z</time>
      </trkpt>
      <trkpt lat="61.004489" lon="14.494868">
        <ele>181.091</ele>
        <time>1970-01-01T01:00:00Z</time>
      </trkpt>
      <trkpt lat="61.004596" lon="14.495157">
        <ele>180.909</ele>
        <time>1970-01-01T01:00:00Z</time>
      </trkpt>
      <trkpt lat="61.004726" lon="14.495364">
        <ele>180.727</ele>
        <time>1970-01-01T01:00:00Z</time>
      </trkpt>
      <trkpt lat="61.004825" lon="14.49553">
        <ele>180.636</ele>
        <time>1970-01-01T01:00:00Z</time>
      </trkpt>
      <trkpt lat="61.004886" lon="14.495651">
        <ele>180.545</ele>
        <time>1970-01-01T01:00:00Z</time>
      </trkpt>
      <trkpt lat="61.004978" lon="14.495906">
        <ele>180.455</ele>
        <time>1970-01-01T01:00:00Z</time>
      </trkpt>
      <trkpt lat="61.005107" lon="14.496164">
        <ele>180.455</ele>
        <time>1970-01-01T01:00:00Z</time>
      </trkpt>
      <trkpt lat="61.005184" lon="14.496315">
        <ele>180.364</ele>
        <time>1970-01-01T01:00:00Z</time>
      </trkpt>
      <trkpt lat="61.005237" lon="14.496388">
        <ele>180.273</ele>
        <time>1970-01-01T01:00:00Z</time>
      </trkpt>
      <trkpt lat="61.005302" lon="14.496601">
        <ele>180.091</ele>
        <time>1970-01-01T01:00:00Z</time>
      </trkpt>
      <trkpt lat="61.005413" lon="14.496877">
        <ele>179.909</ele>
        <time>1970-01-01T01:00:00Z</time>
      </trkpt>
      <trkpt lat="61.005428" lon="14.496948">
        <ele>179.727</ele>
        <time>1970-01-01T01:00:00Z</time>
      </trkpt>
      <trkpt lat="61.005439" lon="14.497146">
        <ele>179.545</ele>
        <time>1970-01-01T01:00:00Z</time>
      </trkpt>
      <trkpt lat="61.005439" lon="14.497213">
        <ele>179.364</ele>
        <time>1970-01-01T01:00:00Z</time>
      </trkpt>
      <trkpt lat="61.005435" lon="14.497529">
        <ele>179.273</ele>
        <time>1970-01-01T01:00:00Z</time>
      </trkpt>
      <trkpt lat="61.005401" lon="14.497806">
        <ele>179.182</ele>
        <time>1970-01-01T01:00:00Z</time>
      </trkpt>
      <trkpt lat="61.005371" lon="14.497905">
        <ele>179.091</ele>
        <time>1970-01-01T01:00:00Z</time>
      </trkpt>
      <trkpt lat="61.00529" lon="14.498052">
        <ele>179</ele>
        <time>1970-01-01T01:00:00Z</time>
      </trkpt>
      <trkpt lat="61.005199" lon="14.498228">
        <ele>179</ele>
        <time>1970-01-01T01:00:00Z</time>
      </trkpt>
      <trkpt lat="61.005058" lon="14.498531">
        <ele>179</ele>
        <time>1970-01-01T01:00:00Z</time>
      </trkpt>
      <trkpt lat="61.005001" lon="14.498673">
        <ele>179</ele>
        <time>1970-01-01T01:00:00Z</time>
      </trkpt>
      <trkpt lat="61.004932" lon="14.498971">
        <ele>179</ele>
        <time>1970-01-01T01:00:00Z</time>
      </trkpt>
      <trkpt lat="61.004848" lon="14.499281">
        <ele>179</ele>
        <time>1970-01-01T01:00:00Z</time>
      </trkpt>
      <trkpt lat="61.004814" lon="14.499476">
        <ele>179.091</ele>
        <time>1970-01-01T01:00:00Z</time>
      </trkpt>
      <trkpt lat="61.004764" lon="14.49976">
        <ele>179.182</ele>
        <time>1970-01-01T01:00:00Z</time>
      </trkpt>
      <trkpt lat="61.004726" lon="14.49991">
        <ele>179.273</ele>
        <time>1970-01-01T01:00:00Z</time>
      </trkpt>
      <trkpt lat="61.004684" lon="14.500138">
        <ele>179.364</ele>
        <time>1970-01-01T01:00:00Z</time>
      </trkpt>
      <trkpt lat="61.004665" lon="14.500354">
        <ele>179.455</ele>
        <time>1970-01-01T01:00:00Z</time>
      </trkpt>
      <trkpt lat="61.004653" lon="14.500496">
        <ele>179.545</ele>
        <time>1970-01-01T01:00:00Z</time>
      </trkpt>
      <trkpt lat="61.004589" lon="14.500882">
        <ele>179.636</ele>
        <time>1970-01-01T01:00:00Z</time>
      </trkpt>
      <trkpt lat="61.004531" lon="14.501198">
        <ele>179.727</ele>
        <time>1970-01-01T01:00:00Z</time>
      </trkpt>
      <trkpt lat="61.004467" lon="14.501477">
        <ele>179.818</ele>
        <time>1970-01-01T01:00:00Z</time>
      </trkpt>
      <trkpt lat="61.004421" lon="14.501863">
        <ele>179.909</ele>
        <time>1970-01-01T01:00:00Z</time>
      </trkpt>
      <trkpt lat="61.004383" lon="14.502193">
        <ele>180</ele>
        <time>1970-01-01T01:00:00Z</time>
      </trkpt>
      <trkpt lat="61.004364" lon="14.502289">
        <ele>180</ele>
        <time>1970-01-01T01:00:00Z</time>
      </trkpt>
      <trkpt lat="61.004337" lon="14.502593">
        <ele>180</ele>
        <time>1970-01-01T01:00:00Z</time>
      </trkpt>
      <trkpt lat="61.004283" lon="14.502881">
        <ele>180</ele>
        <time>1970-01-01T01:00:00Z</time>
      </trkpt>
      <trkpt lat="61.004241" lon="14.503226">
        <ele>180</ele>
        <time>1970-01-01T01:00:00Z</time>
      </trkpt>
      <trkpt lat="61.004219" lon="14.50349">
        <ele>180</ele>
        <time>1970-01-01T01:00:00Z</time>
      </trkpt>
      <trkpt lat="61.004222" lon="14.503769">
        <ele>180</ele>
        <time>1970-01-01T01:00:00Z</time>
      </trkpt>
      <trkpt lat="61.004184" lon="14.504094">
        <ele>180</ele>
        <time>1970-01-01T01:00:00Z</time>
      </trkpt>
      <trkpt lat="61.004112" lon="14.504356">
        <ele>180</ele>
        <time>1970-01-01T01:00:00Z</time>
      </trkpt>
      <trkpt lat="61.004081" lon="14.504532">
        <ele>180</ele>
        <time>1970-01-01T01:00:00Z</time>
      </trkpt>
      <trkpt lat="61.004089" lon="14.504573">
        <ele>180</ele>
        <time>1970-01-01T01:00:00Z</time>
      </trkpt>
      <trkpt lat="61.004093" lon="14.504616">
        <ele>180</ele>
        <time>1970-01-01T01:00:00Z</time>
      </trkpt>
      <trkpt lat="61.004093" lon="14.504667">
        <ele>180</ele>
        <time>1970-01-01T01:00:00Z</time>
      </trkpt>
      <trkpt lat="61.0041" lon="14.504815">
        <ele>180</ele>
        <time>1970-01-01T01:00:00Z</time>
      </trkpt>
      <trkpt lat="61.004127" lon="14.504974">
        <ele>180</ele>
        <time>1970-01-01T01:00:00Z</time>
      </trkpt>
      <trkpt lat="61.004138" lon="14.505273">
        <ele>180</ele>
        <time>1970-01-01T01:00:00Z</time>
      </trkpt>
      <trkpt lat="61.004096" lon="14.505453">
        <ele>180</ele>
        <time>1970-01-01T01:00:00Z</time>
      </trkpt>
      <trkpt lat="61.004032" lon="14.505688">
        <ele>180</ele>
        <time>1970-01-01T01:00:00Z</time>
      </trkpt>
      <trkpt lat="61.003963" lon="14.505969">
        <ele>180</ele>
        <time>1970-01-01T01:00:00Z</time>
      </trkpt>
      <trkpt lat="61.003963" lon="14.506079">
        <ele>180</ele>
        <time>1970-01-01T01:00:00Z</time>
      </trkpt>
      <trkpt lat="61.004039" lon="14.506298">
        <ele>180</ele>
        <time>1970-01-01T01:00:00Z</time>
      </trkpt>
      <trkpt lat="61.00407" lon="14.506381">
        <ele>180</ele>
        <time>1970-01-01T01:00:00Z</time>
      </trkpt>
      <trkpt lat="61.004146" lon="14.506693">
        <ele>180</ele>
        <time>1970-01-01T01:00:00Z</time>
      </trkpt>
      <trkpt lat="61.004196" lon="14.506855">
        <ele>180</ele>
        <time>1970-01-01T01:00:00Z</time>
      </trkpt>
      <trkpt lat="61.00428" lon="14.507117">
        <ele>180</ele>
        <time>1970-01-01T01:00:00Z</time>
      </trkpt>
      <trkpt lat="61.004291" lon="14.507179">
        <ele>180</ele>
        <time>1970-01-01T01:00:00Z</time>
      </trkpt>
      <trkpt lat="61.004264" lon="14.507659">
        <ele>180</ele>
        <time>1970-01-01T01:00:00Z</time>
      </trkpt>
      <trkpt lat="61.004264" lon="14.507925">
        <ele>180</ele>
        <time>1970-01-01T01:00:00Z</time>
      </trkpt>
      <trkpt lat="61.004245" lon="14.50812">
        <ele>180</ele>
        <time>1970-01-01T01:00:00Z</time>
      </trkpt>
      <trkpt lat="61.004199" lon="14.508432">
        <ele>180</ele>
        <time>1970-01-01T01:00:00Z</time>
      </trkpt>
      <trkpt lat="61.004184" lon="14.508566">
        <ele>180</ele>
        <time>1970-01-01T01:00:00Z</time>
      </trkpt>
      <trkpt lat="61.004058" lon="14.509638">
        <ele>180</ele>
        <time>1970-01-01T01:00:00Z</time>
      </trkpt>
      <trkpt lat="61.00402" lon="14.510286">
        <ele>180</ele>
        <time>1970-01-01T01:00:00Z</time>
      </trkpt>
      <trkpt lat="61.004039" lon="14.510664">
        <ele>180</ele>
        <time>1970-01-01T01:00:00Z</time>
      </trkpt>
      <trkpt lat="61.004135" lon="14.510869">
        <ele>180</ele>
        <time>1970-01-01T01:00:00Z</time>
      </trkpt>
      <trkpt lat="61.004226" lon="14.511063">
        <ele>180</ele>
        <time>1970-01-01T01:00:00Z</time>
      </trkpt>
      <trkpt lat="61.004257" lon="14.511137">
        <ele>180</ele>
        <time>1970-01-01T01:00:00Z</time>
      </trkpt>
      <trkpt lat="61.004341" lon="14.511329">
        <ele>179.909</ele>
        <time>1970-01-01T01:00:00Z</time>
      </trkpt>
      <trkpt lat="61.004375" lon="14.511384">
        <ele>179.818</ele>
        <time>1970-01-01T01:00:00Z</time>
      </trkpt>
      <trkpt lat="61.004436" lon="14.51146">
        <ele>179.727</ele>
        <time>1970-01-01T01:00:00Z</time>
      </trkpt>
      <trkpt lat="61.004524" lon="14.511531">
        <ele>179.636</ele>
        <time>1970-01-01T01:00:00Z</time>
      </trkpt>
      <trkpt lat="61.004604" lon="14.511607">
        <ele>179.545</ele>
        <time>1970-01-01T01:00:00Z</time>
      </trkpt>
      <trkpt lat="61.004714" lon="14.511807">
        <ele>179.455</ele>
        <time>1970-01-01T01:00:00Z</time>
      </trkpt>
      <trkpt lat="61.004745" lon="14.511886">
        <ele>179.364</ele>
        <time>1970-01-01T01:00:00Z</time>
      </trkpt>
      <trkpt lat="61.004829" lon="14.512153">
        <ele>179.273</ele>
        <time>1970-01-01T01:00:00Z</time>
      </trkpt>
      <trkpt lat="61.004894" lon="14.512429">
        <ele>179.182</ele>
        <time>1970-01-01T01:00:00Z</time>
      </trkpt>
      <trkpt lat="61.004959" lon="14.512889">
        <ele>179.091</ele>
        <time>1970-01-01T01:00:00Z</time>
      </trkpt>
      <trkpt lat="61.00497" lon="14.513182">
        <ele>179</ele>
        <time>1970-01-01T01:00:00Z</time>
      </trkpt>
      <trkpt lat="61.004985" lon="14.513291">
        <ele>178.909</ele>
        <time>1970-01-01T01:00:00Z</time>
      </trkpt>
      <trkpt lat="61.005027" lon="14.513559">
        <ele>178.818</ele>
        <time>1970-01-01T01:00:00Z</time>
      </trkpt>
      <trkpt lat="61.005065" lon="14.513861">
        <ele>178.727</ele>
        <time>1970-01-01T01:00:00Z</time>
      </trkpt>
      <trkpt lat="61.0051" lon="14.514179">
        <ele>178.636</ele>
        <time>1970-01-01T01:00:00Z</time>
      </trkpt>
      <trkpt lat="61.00513" lon="14.514391">
        <ele>178.545</ele>
        <time>1970-01-01T01:00:00Z</time>
      </trkpt>
      <trkpt lat="61.005149" lon="14.514803">
        <ele>178.455</ele>
        <time>1970-01-01T01:00:00Z</time>
      </trkpt>
      <trkpt lat="61.005126" lon="14.515006">
        <ele>178.273</ele>
        <time>1970-01-01T01:00:00Z</time>
      </trkpt>
      <trkpt lat="61.005134" lon="14.515204">
        <ele>178.091</ele>
        <time>1970-01-01T01:00:00Z</time>
      </trkpt>
      <trkpt lat="61.005161" lon="14.515403">
        <ele>177.909</ele>
        <time>1970-01-01T01:00:00Z</time>
      </trkpt>
      <trkpt lat="61.005214" lon="14.515673">
        <ele>177.727</ele>
        <time>1970-01-01T01:00:00Z</time>
      </trkpt>
      <trkpt lat="61.005264" lon="14.516134">
        <ele>177.545</ele>
        <time>1970-01-01T01:00:00Z</time>
      </trkpt>
      <trkpt lat="61.005283" lon="14.516536">
        <ele>177.455</ele>
        <time>1970-01-01T01:00:00Z</time>
      </trkpt>
      <trkpt lat="61.00531" lon="14.516772">
        <ele>177.364</ele>
        <time>1970-01-01T01:00:00Z</time>
      </trkpt>
      <trkpt lat="61.005313" lon="14.517062">
        <ele>177.182</ele>
        <time>1970-01-01T01:00:00Z</time>
      </trkpt>
      <trkpt lat="61.005271" lon="14.51723">
        <ele>177</ele>
        <time>1970-01-01T01:00:00Z</time>
      </trkpt>
      <trkpt lat="61.005207" lon="14.517383">
        <ele>176.636</ele>
        <time>1970-01-01T01:00:00Z</time>
      </trkpt>
      <trkpt lat="61.005092" lon="14.517677">
        <ele>176.273</ele>
        <time>1970-01-01T01:00:00Z</time>
      </trkpt>
      <trkpt lat="61.005092" lon="14.517915">
        <ele>176</ele>
        <time>1970-01-01T01:00:00Z</time>
      </trkpt>
      <trkpt lat="61.005184" lon="14.518094">
        <ele>175.727</ele>
        <time>1970-01-01T01:00:00Z</time>
      </trkpt>
      <trkpt lat="61.005413" lon="14.518304">
        <ele>175.455</ele>
        <time>1970-01-01T01:00:00Z</time>
      </trkpt>
      <trkpt lat="61.005496" lon="14.518394">
        <ele>175.091</ele>
        <time>1970-01-01T01:00:00Z</time>
      </trkpt>
      <trkpt lat="61.005634" lon="14.518434">
        <ele>174.727</ele>
        <time>1970-01-01T01:00:00Z</time>
      </trkpt>
      <trkpt lat="61.005729" lon="14.518439">
        <ele>174.182</ele>
        <time>1970-01-01T01:00:00Z</time>
      </trkpt>
      <trkpt lat="61.005889" lon="14.518593">
        <ele>173.636</ele>
        <time>1970-01-01T01:00:00Z</time>
      </trkpt>
      <trkpt lat="61.005905" lon="14.518621">
        <ele>173.182</ele>
        <time>1970-01-01T01:00:00Z</time>
      </trkpt>
      <trkpt lat="61.006034" lon="14.518808">
        <ele>172.727</ele>
        <time>1970-01-01T01:00:00Z</time>
      </trkpt>
      <trkpt lat="61.006179" lon="14.518898">
        <ele>172.455</ele>
        <time>1970-01-01T01:00:00Z</time>
      </trkpt>
      <trkpt lat="61.006305" lon="14.518887">
        <ele>172.182</ele>
        <time>1970-01-01T01:00:00Z</time>
      </trkpt>
      <trkpt lat="61.006427" lon="14.51881">
        <ele>171.909</ele>
        <time>1970-01-01T01:00:00Z</time>
      </trkpt>
      <trkpt lat="61.006568" lon="14.518672">
        <ele>171.636</ele>
        <time>1970-01-01T01:00:00Z</time>
      </trkpt>
      <trkpt lat="61.006626" lon="14.518621">
        <ele>171.364</ele>
        <time>1970-01-01T01:00:00Z</time>
      </trkpt>
      <trkpt lat="61.00671" lon="14.518634">
        <ele>170.909</ele>
        <time>1970-01-01T01:00:00Z</time>
      </trkpt>
      <trkpt lat="61.00682" lon="14.518875">
        <ele>170.455</ele>
        <time>1970-01-01T01:00:00Z</time>
      </trkpt>
      <trkpt lat="61.006866" lon="14.518974">
        <ele>170.182</ele>
        <time>1970-01-01T01:00:00Z</time>
      </trkpt>
      <trkpt lat="61.006992" lon="14.519141">
        <ele>169.909</ele>
        <time>1970-01-01T01:00:00Z</time>
      </trkpt>
      <trkpt lat="61.007038" lon="14.519202">
        <ele>169.636</ele>
        <time>1970-01-01T01:00:00Z</time>
      </trkpt>
      <trkpt lat="61.007164" lon="14.519246">
        <ele>169.364</ele>
        <time>1970-01-01T01:00:00Z</time>
      </trkpt>
      <trkpt lat="61.007286" lon="14.519211">
        <ele>169.091</ele>
        <time>1970-01-01T01:00:00Z</time>
      </trkpt>
      <trkpt lat="61.007419" lon="14.519184">
        <ele>168.818</ele>
        <time>1970-01-01T01:00:00Z</time>
      </trkpt>
      <trkpt lat="61.00756" lon="14.519235">
        <ele>168.545</ele>
        <time>1970-01-01T01:00:00Z</time>
      </trkpt>
      <trkpt lat="61.007633" lon="14.519298">
        <ele>168.273</ele>
        <time>1970-01-01T01:00:00Z</time>
      </trkpt>
      <trkpt lat="61.007701" lon="14.519613">
        <ele>168</ele>
        <time>1970-01-01T01:00:00Z</time>
      </trkpt>
      <trkpt lat="61.00769" lon="14.519747">
        <ele>168</ele>
        <time>1970-01-01T01:00:00Z</time>
      </trkpt>
      <trkpt lat="61.007663" lon="14.520091">
        <ele>168</ele>
        <time>1970-01-01T01:00:00Z</time>
      </trkpt>
      <trkpt lat="61.007682" lon="14.520306">
        <ele>168</ele>
        <time>1970-01-01T01:00:00Z</time>
      </trkpt>
      <trkpt lat="61.007675" lon="14.520418">
        <ele>168</ele>
        <time>1970-01-01T01:00:00Z</time>
      </trkpt>
      <trkpt lat="61.007678" lon="14.520778">
        <ele>168</ele>
        <time>1970-01-01T01:00:00Z</time>
      </trkpt>
      <trkpt lat="61.007659" lon="14.521115">
        <ele>168</ele>
        <time>1970-01-01T01:00:00Z</time>
      </trkpt>
      <trkpt lat="61.007637" lon="14.521454">
        <ele>168</ele>
        <time>1970-01-01T01:00:00Z</time>
      </trkpt>
      <trkpt lat="61.007629" lon="14.521707">
        <ele>167.818</ele>
        <time>1970-01-01T01:00:00Z</time>
      </trkpt>
      <trkpt lat="61.007648" lon="14.521948">
        <ele>167.636</ele>
        <time>1970-01-01T01:00:00Z</time>
      </trkpt>
      <trkpt lat="61.007732" lon="14.522278">
        <ele>167.364</ele>
        <time>1970-01-01T01:00:00Z</time>
      </trkpt>
      <trkpt lat="61.007797" lon="14.52248">
        <ele>167.091</ele>
        <time>1970-01-01T01:00:00Z</time>
      </trkpt>
      <trkpt lat="61.007904" lon="14.522683">
        <ele>166.818</ele>
        <time>1970-01-01T01:00:00Z</time>
      </trkpt>
      <trkpt lat="61.007995" lon="14.522875">
        <ele>166.545</ele>
        <time>1970-01-01T01:00:00Z</time>
      </trkpt>
      <trkpt lat="61.008022" lon="14.522903">
        <ele>166.273</ele>
        <time>1970-01-01T01:00:00Z</time>
      </trkpt>
      <trkpt lat="61.008125" lon="14.523103">
        <ele>166</ele>
        <time>1970-01-01T01:00:00Z</time>
      </trkpt>
      <trkpt lat="61.008193" lon="14.523265">
        <ele>165.727</ele>
        <time>1970-01-01T01:00:00Z</time>
      </trkpt>
      <trkpt lat="61.008274" lon="14.52342">
        <ele>165.455</ele>
        <time>1970-01-01T01:00:00Z</time>
      </trkpt>
      <trkpt lat="61.008293" lon="14.52346">
        <ele>165.182</ele>
        <time>1970-01-01T01:00:00Z</time>
      </trkpt>
      <trkpt lat="61.008377" lon="14.523696">
        <ele>165.091</ele>
        <time>1970-01-01T01:00:00Z</time>
      </trkpt>
      <trkpt lat="61.008422" lon="14.523881">
        <ele>165</ele>
        <time>1970-01-01T01:00:00Z</time>
      </trkpt>
      <trkpt lat="61.008468" lon="14.524018">
        <ele>165</ele>
        <time>1970-01-01T01:00:00Z</time>
      </trkpt>
      <trkpt lat="61.008525" lon="14.524228">
        <ele>165</ele>
        <time>1970-01-01T01:00:00Z</time>
      </trkpt>
      <trkpt lat="61.008548" lon="14.524268">
        <ele>165</ele>
        <time>1970-01-01T01:00:00Z</time>
      </trkpt>
      <trkpt lat="61.008575" lon="14.524513">
        <ele>165</ele>
        <time>1970-01-01T01:00:00Z</time>
      </trkpt>
      <trkpt lat="61.00856" lon="14.524738">
        <ele>165</ele>
        <time>1970-01-01T01:00:00Z</time>
      </trkpt>
      <trkpt lat="61.008556" lon="14.52505">
        <ele>165</ele>
        <time>1970-01-01T01:00:00Z</time>
      </trkpt>
      <trkpt lat="61.008533" lon="14.525279">
        <ele>165</ele>
        <time>1970-01-01T01:00:00Z</time>
      </trkpt>
      <trkpt lat="61.008522" lon="14.525371">
        <ele>165</ele>
        <time>1970-01-01T01:00:00Z</time>
      </trkpt>
      <trkpt lat="61.008529" lon="14.525517">
        <ele>165</ele>
        <time>1970-01-01T01:00:00Z</time>
      </trkpt>
      <trkpt lat="61.008533" lon="14.52571">
        <ele>165</ele>
        <time>1970-01-01T01:00:00Z</time>
      </trkpt>
      <trkpt lat="61.008541" lon="14.525782">
        <ele>165</ele>
        <time>1970-01-01T01:00:00Z</time>
      </trkpt>
      <trkpt lat="61.00856" lon="14.525949">
        <ele>165</ele>
        <time>1970-01-01T01:00:00Z</time>
      </trkpt>
      <trkpt lat="61.008598" lon="14.526141">
        <ele>165</ele>
        <time>1970-01-01T01:00:00Z</time>
      </trkpt>
      <trkpt lat="61.008647" lon="14.52641">
        <ele>165</ele>
        <time>1970-01-01T01:00:00Z</time>
      </trkpt>
      <trkpt lat="61.00867" lon="14.526502">
        <ele>165</ele>
        <time>1970-01-01T01:00:00Z</time>
      </trkpt>
      <trkpt lat="61.008705" lon="14.526586">
        <ele>165</ele>
        <time>1970-01-01T01:00:00Z</time>
      </trkpt>
      <trkpt lat="61.008876" lon="14.526791">
        <ele>165</ele>
        <time>1970-01-01T01:00:00Z</time>
      </trkpt>
      <trkpt lat="61.009044" lon="14.526894">
        <ele>165</ele>
        <time>1970-01-01T01:00:00Z</time>
      </trkpt>
      <trkpt lat="61.009147" lon="14.526992">
        <ele>164.909</ele>
        <time>1970-01-01T01:00:00Z</time>
      </trkpt>
      <trkpt lat="61.009246" lon="14.527107">
        <ele>164.818</ele>
        <time>1970-01-01T01:00:00Z</time>
      </trkpt>
      <trkpt lat="61.009365" lon="14.527216">
        <ele>164.727</ele>
        <time>1970-01-01T01:00:00Z</time>
      </trkpt>
      <trkpt lat="61.009471" lon="14.527297">
        <ele>164.636</ele>
        <time>1970-01-01T01:00:00Z</time>
      </trkpt>
      <trkpt lat="61.009586" lon="14.527419">
        <ele>164.545</ele>
        <time>1970-01-01T01:00:00Z</time>
      </trkpt>
      <trkpt lat="61.009693" lon="14.527505">
        <ele>164.455</ele>
        <time>1970-01-01T01:00:00Z</time>
      </trkpt>
      <trkpt lat="61.009799" lon="14.527601">
        <ele>164.364</ele>
        <time>1970-01-01T01:00:00Z</time>
      </trkpt>
      <trkpt lat="61.009849" lon="14.527645">
        <ele>164.273</ele>
        <time>1970-01-01T01:00:00Z</time>
      </trkpt>
      <trkpt lat="61.009918" lon="14.527857">
        <ele>164.182</ele>
        <time>1970-01-01T01:00:00Z</time>
      </trkpt>
      <trkpt lat="61.009963" lon="14.528092">
        <ele>164.091</ele>
        <time>1970-01-01T01:00:00Z</time>
      </trkpt>
      <trkpt lat="61.009986" lon="14.528355">
        <ele>164</ele>
        <time>1970-01-01T01:00:00Z</time>
      </trkpt>
      <trkpt lat="61.010009" lon="14.528554">
        <ele>164</ele>
        <time>1970-01-01T01:00:00Z</time>
      </trkpt>
      <trkpt lat="61.009994" lon="14.528779">
        <ele>164</ele>
        <time>1970-01-01T01:00:00Z</time>
      </trkpt>
      <trkpt lat="61.009948" lon="14.528995">
        <ele>164</ele>
        <time>1970-01-01T01:00:00Z</time>
      </trkpt>
      <trkpt lat="61.009929" lon="14.52907">
        <ele>163.909</ele>
        <time>1970-01-01T01:00:00Z</time>
      </trkpt>
      <trkpt lat="61.00991" lon="14.529145">
        <ele>163.818</ele>
        <time>1970-01-01T01:00:00Z</time>
      </trkpt>
      <trkpt lat="61.009899" lon="14.529216">
        <ele>163.727</ele>
        <time>1970-01-01T01:00:00Z</time>
      </trkpt>
      <trkpt lat="61.00986" lon="14.529391">
        <ele>163.636</ele>
        <time>1970-01-01T01:00:00Z</time>
      </trkpt>
      <trkpt lat="61.009841" lon="14.529447">
        <ele>163.545</ele>
        <time>1970-01-01T01:00:00Z</time>
      </trkpt>
      <trkpt lat="61.00978" lon="14.52972">
        <ele>163.455</ele>
        <time>1970-01-01T01:00:00Z</time>
      </trkpt>
      <trkpt lat="61.009761" lon="14.529955">
        <ele>163.364</ele>
        <time>1970-01-01T01:00:00Z</time>
      </trkpt>
      <trkpt lat="61.009742" lon="14.530241">
        <ele>163.182</ele>
        <time>1970-01-01T01:00:00Z</time>
      </trkpt>
      <trkpt lat="61.009719" lon="14.530507">
        <ele>163</ele>
        <time>1970-01-01T01:00:00Z</time>
      </trkpt>
      <trkpt lat="61.009708" lon="14.530821">
        <ele>162.818</ele>
        <time>1970-01-01T01:00:00Z</time>
      </trkpt>
      <trkpt lat="61.009696" lon="14.531044">
        <ele>162.636</ele>
        <time>1970-01-01T01:00:00Z</time>
      </trkpt>
      <trkpt lat="61.009662" lon="14.531323">
        <ele>162.545</ele>
        <time>1970-01-01T01:00:00Z</time>
      </trkpt>
      <trkpt lat="61.009639" lon="14.531544">
        <ele>162.455</ele>
        <time>1970-01-01T01:00:00Z</time>
      </trkpt>
      <trkpt lat="61.009632" lon="14.531928">
        <ele>162.364</ele>
        <time>1970-01-01T01:00:00Z</time>
      </trkpt>
      <trkpt lat="61.009628" lon="14.532064">
        <ele>162.273</ele>
        <time>1970-01-01T01:00:00Z</time>
      </trkpt>
      <trkpt lat="61.009624" lon="14.532169">
        <ele>162.182</ele>
        <time>1970-01-01T01:00:00Z</time>
      </trkpt>
      <trkpt lat="61.009624" lon="14.53223">
        <ele>162.091</ele>
        <time>1970-01-01T01:00:00Z</time>
      </trkpt>
      <trkpt lat="61.009593" lon="14.532526">
        <ele>162</ele>
        <time>1970-01-01T01:00:00Z</time>
      </trkpt>
      <trkpt lat="61.009567" lon="14.532732">
        <ele>162</ele>
        <time>1970-01-01T01:00:00Z</time>
      </trkpt>
      <trkpt lat="61.009563" lon="14.532923">
        <ele>162</ele>
        <time>1970-01-01T01:00:00Z</time>
      </trkpt>
      <trkpt lat="61.009548" lon="14.533179">
        <ele>162</ele>
        <time>1970-01-01T01:00:00Z</time>
      </trkpt>
      <trkpt lat="61.00954" lon="14.533349">
        <ele>162</ele>
        <time>1970-01-01T01:00:00Z</time>
      </trkpt>
      <trkpt lat="61.009544" lon="14.533649">
        <ele>162</ele>
        <time>1970-01-01T01:00:00Z</time>
      </trkpt>
      <trkpt lat="61.009536" lon="14.533761">
        <ele>162</ele>
        <time>1970-01-01T01:00:00Z</time>
      </trkpt>
      <trkpt lat="61.009536" lon="14.533996">
        <ele>162</ele>
        <time>1970-01-01T01:00:00Z</time>
      </trkpt>
      <trkpt lat="61.009532" lon="14.534288">
        <ele>162</ele>
        <time>1970-01-01T01:00:00Z</time>
      </trkpt>
      <trkpt lat="61.009525" lon="14.534532">
        <ele>162</ele>
        <time>1970-01-01T01:00:00Z</time>
      </trkpt>
      <trkpt lat="61.009506" lon="14.53472">
        <ele>162</ele>
        <time>1970-01-01T01:00:00Z</time>
      </trkpt>
      <trkpt lat="61.009456" lon="14.53488">
        <ele>162</ele>
        <time>1970-01-01T01:00:00Z</time>
      </trkpt>
      <trkpt lat="61.009395" lon="14.53499">
        <ele>162</ele>
        <time>1970-01-01T01:00:00Z</time>
      </trkpt>
      <trkpt lat="61.009288" lon="14.53512">
        <ele>162</ele>
        <time>1970-01-01T01:00:00Z</time>
      </trkpt>
      <trkpt lat="61.009193" lon="14.535212">
        <ele>162</ele>
        <time>1970-01-01T01:00:00Z</time>
      </trkpt>
      <trkpt lat="61.009128" lon="14.535319">
        <ele>162</ele>
        <time>1970-01-01T01:00:00Z</time>
      </trkpt>
      <trkpt lat="61.009021" lon="14.535452">
        <ele>162</ele>
        <time>1970-01-01T01:00:00Z</time>
      </trkpt>
      <trkpt lat="61.008903" lon="14.535594">
        <ele>162</ele>
        <time>1970-01-01T01:00:00Z</time>
      </trkpt>
      <trkpt lat="61.0088" lon="14.535799">
        <ele>162</ele>
        <time>1970-01-01T01:00:00Z</time>
      </trkpt>
      <trkpt lat="61.008693" lon="14.536016">
        <ele>162</ele>
        <time>1970-01-01T01:00:00Z</time>
      </trkpt>
      <trkpt lat="61.008632" lon="14.536128">
        <ele>162</ele>
        <time>1970-01-01T01:00:00Z</time>
      </trkpt>
      <trkpt lat="61.008563" lon="14.536228">
        <ele>162</ele>
        <time>1970-01-01T01:00:00Z</time>
      </trkpt>
      <trkpt lat="61.008544" lon="14.536262">
        <ele>162</ele>
        <time>1970-01-01T01:00:00Z</time>
      </trkpt>
      <trkpt lat="61.008434" lon="14.53639">
        <ele>162</ele>
        <time>1970-01-01T01:00:00Z</time>
      </trkpt>
      <trkpt lat="61.008327" lon="14.536475">
        <ele>162</ele>
        <time>1970-01-01T01:00:00Z</time>
      </trkpt>
      <trkpt lat="61.008262" lon="14.536538">
        <ele>162.091</ele>
        <time>1970-01-01T01:00:00Z</time>
      </trkpt>
      <trkpt lat="61.008155" lon="14.53666">
        <ele>162.182</ele>
        <time>1970-01-01T01:00:00Z</time>
      </trkpt>
      <trkpt lat="61.008075" lon="14.536736">
        <ele>162.273</ele>
        <time>1970-01-01T01:00:00Z</time>
      </trkpt>
      <trkpt lat="61.00798" lon="14.536762">
        <ele>162.364</ele>
        <time>1970-01-01T01:00:00Z</time>
      </trkpt>
      <trkpt lat="61.007957" lon="14.536767">
        <ele>162.636</ele>
        <time>1970-01-01T01:00:00Z</time>
      </trkpt>
      <trkpt lat="61.007808" lon="14.536877">
        <ele>162.909</ele>
        <time>1970-01-01T01:00:00Z</time>
      </trkpt>
      <trkpt lat="61.00756" lon="14.537132">
        <ele>163.182</ele>
        <time>1970-01-01T01:00:00Z</time>
      </trkpt>
      <trkpt lat="61.007366" lon="14.537259">
        <ele>163.455</ele>
        <time>1970-01-01T01:00:00Z</time>
      </trkpt>
      <trkpt lat="61.00719" lon="14.537413">
        <ele>163.727</ele>
        <time>1970-01-01T01:00:00Z</time>
      </trkpt>
      <trkpt lat="61.00708" lon="14.537512">
        <ele>164</ele>
        <time>1970-01-01T01:00:00Z</time>
      </trkpt>
      <trkpt lat="61.006988" lon="14.537565">
        <ele>164.273</ele>
        <time>1970-01-01T01:00:00Z</time>
      </trkpt>
      <trkpt lat="61.006919" lon="14.537593">
        <ele>164.455</ele>
        <time>1970-01-01T01:00:00Z</time>
      </trkpt>
      <trkpt lat="61.006816" lon="14.537675">
        <ele>164.636</ele>
        <time>1970-01-01T01:00:00Z</time>
      </trkpt>
      <trkpt lat="61.006748" lon="14.5377">
        <ele>164.818</ele>
        <time>1970-01-01T01:00:00Z</time>
      </trkpt>
      <trkpt lat="61.006587" lon="14.537822">
        <ele>165</ele>
        <time>1970-01-01T01:00:00Z</time>
      </trkpt>
      <trkpt lat="61.006572" lon="14.537848">
        <ele>165</ele>
        <time>1970-01-01T01:00:00Z</time>
      </trkpt>
      <trkpt lat="61.006534" lon="14.538121">
        <ele>165</ele>
        <time>1970-01-01T01:00:00Z</time>
      </trkpt>
      <trkpt lat="61.006534" lon="14.538173">
        <ele>165</ele>
        <time>1970-01-01T01:00:00Z</time>
      </trkpt>
      <trkpt lat="61.006534" lon="14.538413">
        <ele>165</ele>
        <time>1970-01-01T01:00:00Z</time>
      </trkpt>
      <trkpt lat="61.006584" lon="14.538671">
        <ele>165</ele>
        <time>1970-01-01T01:00:00Z</time>
      </trkpt>
      <trkpt lat="61.006607" lon="14.538869">
        <ele>165</ele>
        <time>1970-01-01T01:00:00Z</time>
      </trkpt>
      <trkpt lat="61.006633" lon="14.539169">
        <ele>165</ele>
        <time>1970-01-01T01:00:00Z</time>
      </trkpt>
      <trkpt lat="61.006652" lon="14.539361">
        <ele>164.909</ele>
        <time>1970-01-01T01:00:00Z</time>
      </trkpt>
      <trkpt lat="61.006671" lon="14.539572">
        <ele>164.818</ele>
        <time>1970-01-01T01:00:00Z</time>
      </trkpt>
      <trkpt lat="61.00669" lon="14.539767">
        <ele>164.727</ele>
        <time>1970-01-01T01:00:00Z</time>
      </trkpt>
      <trkpt lat="61.006702" lon="14.540038">
        <ele>164.636</ele>
        <time>1970-01-01T01:00:00Z</time>
      </trkpt>
      <trkpt lat="61.006736" lon="14.540304">
        <ele>164.545</ele>
        <time>1970-01-01T01:00:00Z</time>
      </trkpt>
      <trkpt lat="61.006755" lon="14.540511">
        <ele>164.455</ele>
        <time>1970-01-01T01:00:00Z</time>
      </trkpt>
      <trkpt lat="61.006793" lon="14.54074">
        <ele>164.364</ele>
        <time>1970-01-01T01:00:00Z</time>
      </trkpt>
      <trkpt lat="61.006824" lon="14.540983">
        <ele>164.273</ele>
        <time>1970-01-01T01:00:00Z</time>
      </trkpt>
      <trkpt lat="61.006858" lon="14.541233">
        <ele>164.182</ele>
        <time>1970-01-01T01:00:00Z</time>
      </trkpt>
      <trkpt lat="61.006877" lon="14.541466">
        <ele>164.091</ele>
        <time>1970-01-01T01:00:00Z</time>
      </trkpt>
      <trkpt lat="61.006916" lon="14.541768">
        <ele>164</ele>
        <time>1970-01-01T01:00:00Z</time>
      </trkpt>
      <trkpt lat="61.006931" lon="14.541861">
        <ele>164</ele>
        <time>1970-01-01T01:00:00Z</time>
      </trkpt>
      <trkpt lat="61.006954" lon="14.542066">
        <ele>163.909</ele>
        <time>1970-01-01T01:00:00Z</time>
      </trkpt>
      <trkpt lat="61.006973" lon="14.542311">
        <ele>163.818</ele>
        <time>1970-01-01T01:00:00Z</time>
      </trkpt>
      <trkpt lat="61.006996" lon="14.542613">
        <ele>163.727</ele>
        <time>1970-01-01T01:00:00Z</time>
      </trkpt>
      <trkpt lat="61.007045" lon="14.542803">
        <ele>163.636</ele>
        <time>1970-01-01T01:00:00Z</time>
      </trkpt>
      <trkpt lat="61.007083" lon="14.542892">
        <ele>163.545</ele>
        <time>1970-01-01T01:00:00Z</time>
      </trkpt>
      <trkpt lat="61.007106" lon="14.543043">
        <ele>163.455</ele>
        <time>1970-01-01T01:00:00Z</time>
      </trkpt>
      <trkpt lat="61.007164" lon="14.543227">
        <ele>163.273</ele>
        <time>1970-01-01T01:00:00Z</time>
      </trkpt>
      <trkpt lat="61.007183" lon="14.543294">
        <ele>163.091</ele>
        <time>1970-01-01T01:00:00Z</time>
      </trkpt>
      <trkpt lat="61.007263" lon="14.543807">
        <ele>162.909</ele>
        <time>1970-01-01T01:00:00Z</time>
      </trkpt>
      <trkpt lat="61.007308" lon="14.54415">
        <ele>162.727</ele>
        <time>1970-01-01T01:00:00Z</time>
      </trkpt>
      <trkpt lat="61.007358" lon="14.544581">
        <ele>162.545</ele>
        <time>1970-01-01T01:00:00Z</time>
      </trkpt>
      <trkpt lat="61.007373" lon="14.544704">
        <ele>162.455</ele>
        <time>1970-01-01T01:00:00Z</time>
      </trkpt>
      <trkpt lat="61.007415" lon="14.544898">
        <ele>162.364</ele>
        <time>1970-01-01T01:00:00Z</time>
      </trkpt>
      <trkpt lat="61.007453" lon="14.54503">
        <ele>162.3</ele>
        <time>1970-01-01T01:00:00Z</time>
      </trkpt>
      <trkpt lat="61.007575" lon="14.545287">
        <ele>162.222</ele>
        <time>1970-01-01T01:00:00Z</time>
      </trkpt>
      <trkpt lat="61.007629" lon="14.545742">
        <ele>162.125</ele>
        <time>1970-01-01T01:00:00Z</time>
      </trkpt>
      <trkpt lat="61.007629" lon="14.54583">
        <ele>162</ele>
        <time>1970-01-01T01:00:00Z</time>
      </trkpt>
      <trkpt lat="61.007656" lon="14.546058">
        <ele>162</ele>
        <time>1970-01-01T01:00:00Z</time>
      </trkpt>
    </trkseg>
  </trk>
</gpx>